<?xml version='1.0' encoding='UTF-8'?><gpx version="1.1" creator="JPX - https://github.com/jenetics/jpx" xmlns="http://www.topografix.com/GPX/1/1"><trk><trkseg><trkpt lat="45.6247907" lon="11.5762437"><ele>47.0</ele><time>2026-03-28T11:59:39.272Z</time></trkpt><trkpt lat="45.6249433" lon="11.5760866"><ele>47.0</ele><time>2026-03-28T11:59:42.153Z</time></trkpt><trkpt lat="45.6251319" lon="11.575893"><ele>47.0</ele><time>2026-03-28T11:59:44.152Z</time></trkpt><trkpt lat="45.6252078" lon="11.5757696"><ele>47.0</ele><time>2026-03-28T11:59:45.152Z</time></trkpt><trkpt lat="45.6252693" lon="11.5756525"><ele>47.0</ele><time>2026-03-28T11:59:46.152Z</time></trkpt><trkpt lat="45.6253261" lon="11.575547"><ele>47.0</ele><time>2026-03-28T11:59:47.151Z</time></trkpt><trkpt lat="45.6253822" lon="11.5754473"><ele>47.0</ele><time>2026-03-28T11:59:48.151Z</time></trkpt><trkpt lat="45.6254429" lon="11.5753426"><ele>47.0</ele><time>2026-03-28T11:59:49.152Z</time></trkpt><trkpt lat="45.6255048" lon="11.5752353"><ele>47.400000000000006</ele><time>2026-03-28T11:59:50.151Z</time></trkpt><trkpt lat="45.625564" lon="11.5751285"><ele>47.800000000000004</ele><time>2026-03-28T11:59:51.151Z</time></trkpt><trkpt lat="45.6256227" lon="11.5750245"><ele>48.2</ele><time>2026-03-28T11:59:52.151Z</time></trkpt><trkpt lat="45.6256799" lon="11.5749244"><ele>48.6</ele><time>2026-03-28T11:59:53.152Z</time></trkpt><trkpt lat="45.6257361" lon="11.5748212"><ele>49.0</ele><time>2026-03-28T11:59:54.152Z</time></trkpt><trkpt lat="45.6257933" lon="11.5747183"><ele>49.0</ele><time>2026-03-28T11:59:55.152Z</time></trkpt><trkpt lat="45.6258533" lon="11.5746117"><ele>49.0</ele><time>2026-03-28T11:59:56.152Z</time></trkpt><trkpt lat="45.6259233" lon="11.57451"><ele>49.0</ele><time>2026-03-28T11:59:57.152Z</time></trkpt><trkpt lat="45.626" lon="11.574405"><ele>49.0</ele><time>2026-03-28T11:59:58.152Z</time></trkpt><trkpt lat="45.6260767" lon="11.5743083"><ele>49.0</ele><time>2026-03-28T11:59:59.152Z</time></trkpt><trkpt lat="45.626155" lon="11.5742117"><ele>49.2</ele><time>2026-03-28T12:00:00.151Z</time></trkpt><trkpt lat="45.6262267" lon="11.574115"><ele>49.400000000000006</ele><time>2026-03-28T12:00:01.152Z</time></trkpt><trkpt lat="45.6262983" lon="11.5740217"><ele>49.6</ele><time>2026-03-28T12:00:02.152Z</time></trkpt><trkpt lat="45.6263667" lon="11.5739233"><ele>49.8</ele><time>2026-03-28T12:00:03.152Z</time></trkpt><trkpt lat="45.62643" lon="11.5738267"><ele>50.0</ele><time>2026-03-28T12:00:04.151Z</time></trkpt><trkpt lat="45.6265017" lon="11.5737283"><ele>50.16666666666667</ele><time>2026-03-28T12:00:05.152Z</time></trkpt><trkpt lat="45.62657" lon="11.5736367"><ele>50.333333333333336</ele><time>2026-03-28T12:00:06.151Z</time></trkpt><trkpt lat="45.6266317" lon="11.5735533"><ele>50.5</ele><time>2026-03-28T12:00:07.152Z</time></trkpt><trkpt lat="45.62668" lon="11.5734783"><ele>50.66666666666667</ele><time>2026-03-28T12:00:08.152Z</time></trkpt><trkpt lat="45.6267517" lon="11.5733533"><ele>50.833333333333336</ele><time>2026-03-28T12:00:10.152Z</time></trkpt><trkpt lat="45.6268067" lon="11.5732667"><ele>51.0</ele><time>2026-03-28T12:00:12.152Z</time></trkpt><trkpt lat="45.626925" lon="11.573285"><ele>51.0</ele><time>2026-03-28T12:00:15.152Z</time></trkpt><trkpt lat="45.6269983" lon="11.573335"><ele>51.0</ele><time>2026-03-28T12:00:16.151Z</time></trkpt><trkpt lat="45.6270733" lon="11.5733883"><ele>51.0</ele><time>2026-03-28T12:00:17.151Z</time></trkpt><trkpt lat="45.6271567" lon="11.5734433"><ele>51.0</ele><time>2026-03-28T12:00:18.152Z</time></trkpt><trkpt lat="45.627245" lon="11.5735117"><ele>51.0</ele><time>2026-03-28T12:00:19.152Z</time></trkpt><trkpt lat="45.62734" lon="11.5735833"><ele>51.0</ele><time>2026-03-28T12:00:20.152Z</time></trkpt><trkpt lat="45.6274417" lon="11.5736567"><ele>51.0</ele><time>2026-03-28T12:00:21.151Z</time></trkpt><trkpt lat="45.627545" lon="11.5737433"><ele>51.0</ele><time>2026-03-28T12:00:22.152Z</time></trkpt><trkpt lat="45.6276467" lon="11.57382"><ele>51.0</ele><time>2026-03-28T12:00:23.152Z</time></trkpt><trkpt lat="45.62775" lon="11.573895"><ele>51.25</ele><time>2026-03-28T12:00:24.151Z</time></trkpt><trkpt lat="45.6278533" lon="11.5739733"><ele>51.5</ele><time>2026-03-28T12:00:25.152Z</time></trkpt><trkpt lat="45.6279683" lon="11.5740567"><ele>51.75</ele><time>2026-03-28T12:00:26.152Z</time></trkpt><trkpt lat="45.6280783" lon="11.574145"><ele>52.0</ele><time>2026-03-28T12:00:27.152Z</time></trkpt><trkpt lat="45.6281867" lon="11.5742333"><ele>52.0</ele><time>2026-03-28T12:00:28.152Z</time></trkpt><trkpt lat="45.6282917" lon="11.574325"><ele>52.0</ele><time>2026-03-28T12:00:29.152Z</time></trkpt><trkpt lat="45.62839" lon="11.57441"><ele>52.0</ele><time>2026-03-28T12:00:30.152Z</time></trkpt><trkpt lat="45.628485" lon="11.5744833"><ele>52.0</ele><time>2026-03-28T12:00:31.152Z</time></trkpt><trkpt lat="45.628575" lon="11.5745567"><ele>52.0</ele><time>2026-03-28T12:00:32.151Z</time></trkpt><trkpt lat="45.6286567" lon="11.5746317"><ele>52.2</ele><time>2026-03-28T12:00:33.152Z</time></trkpt><trkpt lat="45.6287433" lon="11.5747183"><ele>52.400000000000006</ele><time>2026-03-28T12:00:34.152Z</time></trkpt><trkpt lat="45.6288167" lon="11.5747767"><ele>52.599999999999994</ele><time>2026-03-28T12:00:35.152Z</time></trkpt><trkpt lat="45.628895" lon="11.574825"><ele>52.8</ele><time>2026-03-28T12:00:36.152Z</time></trkpt><trkpt lat="45.62898" lon="11.57486"><ele>53.0</ele><time>2026-03-28T12:00:37.152Z</time></trkpt><trkpt lat="45.62908" lon="11.5748617"><ele>53.0</ele><time>2026-03-28T12:00:38.151Z</time></trkpt><trkpt lat="45.6291883" lon="11.5748667"><ele>53.0</ele><time>2026-03-28T12:00:39.152Z</time></trkpt><trkpt lat="45.6292933" lon="11.5748867"><ele>53.0</ele><time>2026-03-28T12:00:40.152Z</time></trkpt><trkpt lat="45.6294067" lon="11.5749067"><ele>53.0</ele><time>2026-03-28T12:00:41.152Z</time></trkpt><trkpt lat="45.6295233" lon="11.5749217"><ele>53.0</ele><time>2026-03-28T12:00:42.152Z</time></trkpt><trkpt lat="45.6296367" lon="11.57495"><ele>53.0</ele><time>2026-03-28T12:00:43.152Z</time></trkpt><trkpt lat="45.6297433" lon="11.5750067"><ele>53.0</ele><time>2026-03-28T12:00:44.152Z</time></trkpt><trkpt lat="45.6298533" lon="11.5750867"><ele>53.0</ele><time>2026-03-28T12:00:45.152Z</time></trkpt><trkpt lat="45.629965" lon="11.575175"><ele>53.0</ele><time>2026-03-28T12:00:46.152Z</time></trkpt><trkpt lat="45.630085" lon="11.5752483"><ele>53.0</ele><time>2026-03-28T12:00:47.152Z</time></trkpt><trkpt lat="45.6302083" lon="11.5753183"><ele>53.0</ele><time>2026-03-28T12:00:48.152Z</time></trkpt><trkpt lat="45.630345" lon="11.5753867"><ele>53.0</ele><time>2026-03-28T12:00:49.152Z</time></trkpt><trkpt lat="45.6305" lon="11.575415"><ele>53.0</ele><time>2026-03-28T12:00:50.151Z</time></trkpt><trkpt lat="45.6306417" lon="11.5754583"><ele>52.75</ele><time>2026-03-28T12:00:51.152Z</time></trkpt><trkpt lat="45.6307867" lon="11.5755017"><ele>52.5</ele><time>2026-03-28T12:00:52.152Z</time></trkpt><trkpt lat="45.63093" lon="11.5755367"><ele>52.25</ele><time>2026-03-28T12:00:53.151Z</time></trkpt><trkpt lat="45.6310617" lon="11.5755883"><ele>52.0</ele><time>2026-03-28T12:00:54.152Z</time></trkpt><trkpt lat="45.6311833" lon="11.5756217"><ele>52.0</ele><time>2026-03-28T12:00:55.152Z</time></trkpt><trkpt lat="45.6313117" lon="11.57566"><ele>52.0</ele><time>2026-03-28T12:00:56.151Z</time></trkpt><trkpt lat="45.6314483" lon="11.5757"><ele>52.0</ele><time>2026-03-28T12:00:57.152Z</time></trkpt><trkpt lat="45.631575" lon="11.5757467"><ele>52.0</ele><time>2026-03-28T12:00:58.151Z</time></trkpt><trkpt lat="45.6317117" lon="11.5757983"><ele>52.0</ele><time>2026-03-28T12:00:59.152Z</time></trkpt><trkpt lat="45.6318417" lon="11.57585"><ele>52.0</ele><time>2026-03-28T12:01:00.152Z</time></trkpt><trkpt lat="45.6319767" lon="11.5759067"><ele>52.0</ele><time>2026-03-28T12:01:01.152Z</time></trkpt><trkpt lat="45.63211" lon="11.57597"><ele>52.0</ele><time>2026-03-28T12:01:02.151Z</time></trkpt><trkpt lat="45.6322467" lon="11.5760333"><ele>52.25</ele><time>2026-03-28T12:01:03.152Z</time></trkpt><trkpt lat="45.6323867" lon="11.5761017"><ele>52.5</ele><time>2026-03-28T12:01:04.152Z</time></trkpt><trkpt lat="45.63252" lon="11.5761683"><ele>52.75</ele><time>2026-03-28T12:01:05.152Z</time></trkpt><trkpt lat="45.6326517" lon="11.5762367"><ele>53.0</ele><time>2026-03-28T12:01:06.152Z</time></trkpt><trkpt lat="45.6327717" lon="11.57629"><ele>53.5</ele><time>2026-03-28T12:01:07.152Z</time></trkpt><trkpt lat="45.6328917" lon="11.5763333"><ele>54.0</ele><time>2026-03-28T12:01:08.152Z</time></trkpt><trkpt lat="45.6330183" lon="11.5763717"><ele>54.5</ele><time>2026-03-28T12:01:09.152Z</time></trkpt><trkpt lat="45.6331483" lon="11.5764033"><ele>55.0</ele><time>2026-03-28T12:01:10.152Z</time></trkpt><trkpt lat="45.633285" lon="11.5764217"><ele>55.0</ele><time>2026-03-28T12:01:11.152Z</time></trkpt><trkpt lat="45.633425" lon="11.5764367"><ele>55.0</ele><time>2026-03-28T12:01:12.152Z</time></trkpt><trkpt lat="45.6335683" lon="11.5764533"><ele>55.0</ele><time>2026-03-28T12:01:13.151Z</time></trkpt><trkpt lat="45.63371" lon="11.5764683"><ele>55.0</ele><time>2026-03-28T12:01:14.152Z</time></trkpt><trkpt lat="45.6338517" lon="11.5764817"><ele>55.0</ele><time>2026-03-28T12:01:15.152Z</time></trkpt><trkpt lat="45.634005" lon="11.5765"><ele>55.0</ele><time>2026-03-28T12:01:16.151Z</time></trkpt><trkpt lat="45.63414" lon="11.5765033"><ele>55.0</ele><time>2026-03-28T12:01:17.152Z</time></trkpt><trkpt lat="45.634275" lon="11.5765133"><ele>55.0</ele><time>2026-03-28T12:01:18.152Z</time></trkpt><trkpt lat="45.6344167" lon="11.576525"><ele>55.25</ele><time>2026-03-28T12:01:19.151Z</time></trkpt><trkpt lat="45.6345567" lon="11.576545"><ele>55.5</ele><time>2026-03-28T12:01:20.151Z</time></trkpt><trkpt lat="45.6346983" lon="11.5765567"><ele>55.75</ele><time>2026-03-28T12:01:21.152Z</time></trkpt><trkpt lat="45.63485" lon="11.5765667"><ele>56.0</ele><time>2026-03-28T12:01:22.152Z</time></trkpt><trkpt lat="45.6350067" lon="11.5765667"><ele>56.0</ele><time>2026-03-28T12:01:23.152Z</time></trkpt><trkpt lat="45.635165" lon="11.5765833"><ele>56.0</ele><time>2026-03-28T12:01:24.152Z</time></trkpt><trkpt lat="45.635315" lon="11.576605"><ele>56.0</ele><time>2026-03-28T12:01:25.152Z</time></trkpt><trkpt lat="45.63547" lon="11.5766133"><ele>57.0</ele><time>2026-03-28T12:01:26.152Z</time></trkpt><trkpt lat="45.635615" lon="11.5766183"><ele>58.0</ele><time>2026-03-28T12:01:27.151Z</time></trkpt><trkpt lat="45.635765" lon="11.5766217"><ele>59.0</ele><time>2026-03-28T12:01:28.151Z</time></trkpt><trkpt lat="45.6359133" lon="11.576615"><ele>60.0</ele><time>2026-03-28T12:01:29.152Z</time></trkpt><trkpt lat="45.6360683" lon="11.576575"><ele>60.25</ele><time>2026-03-28T12:01:30.152Z</time></trkpt><trkpt lat="45.6362133" lon="11.57653"><ele>60.5</ele><time>2026-03-28T12:01:31.152Z</time></trkpt><trkpt lat="45.6363517" lon="11.5764967"><ele>60.75</ele><time>2026-03-28T12:01:32.152Z</time></trkpt><trkpt lat="45.636485" lon="11.5764533"><ele>61.0</ele><time>2026-03-28T12:01:33.152Z</time></trkpt><trkpt lat="45.6366117" lon="11.57642"><ele>61.0</ele><time>2026-03-28T12:01:34.151Z</time></trkpt><trkpt lat="45.636735" lon="11.5764067"><ele>61.0</ele><time>2026-03-28T12:01:35.152Z</time></trkpt><trkpt lat="45.636855" lon="11.5764433"><ele>61.0</ele><time>2026-03-28T12:01:36.152Z</time></trkpt><trkpt lat="45.63695" lon="11.5765333"><ele>61.0</ele><time>2026-03-28T12:01:37.152Z</time></trkpt><trkpt lat="45.63705" lon="11.5766683"><ele>61.0</ele><time>2026-03-28T12:01:38.152Z</time></trkpt><trkpt lat="45.6371517" lon="11.5768017"><ele>61.0</ele><time>2026-03-28T12:01:39.151Z</time></trkpt><trkpt lat="45.6372567" lon="11.576935"><ele>61.0</ele><time>2026-03-28T12:01:40.152Z</time></trkpt><trkpt lat="45.637365" lon="11.57705"><ele>61.0</ele><time>2026-03-28T12:01:41.152Z</time></trkpt><trkpt lat="45.6374717" lon="11.5771183"><ele>61.0</ele><time>2026-03-28T12:01:42.152Z</time></trkpt><trkpt lat="45.6375967" lon="11.577135"><ele>61.0</ele><time>2026-03-28T12:01:43.152Z</time></trkpt><trkpt lat="45.6377417" lon="11.57714"><ele>61.0</ele><time>2026-03-28T12:01:44.152Z</time></trkpt><trkpt lat="45.6378867" lon="11.5771367"><ele>61.0</ele><time>2026-03-28T12:01:45.152Z</time></trkpt><trkpt lat="45.6380283" lon="11.57713"><ele>60.5</ele><time>2026-03-28T12:01:46.152Z</time></trkpt><trkpt lat="45.6381567" lon="11.5771283"><ele>60.0</ele><time>2026-03-28T12:01:47.151Z</time></trkpt><trkpt lat="45.6382733" lon="11.5771283"><ele>59.5</ele><time>2026-03-28T12:01:48.152Z</time></trkpt><trkpt lat="45.6383967" lon="11.5771333"><ele>59.0</ele><time>2026-03-28T12:01:49.152Z</time></trkpt><trkpt lat="45.6385167" lon="11.5771383"><ele>59.25</ele><time>2026-03-28T12:01:50.152Z</time></trkpt><trkpt lat="45.638635" lon="11.5771583"><ele>59.5</ele><time>2026-03-28T12:01:51.151Z</time></trkpt><trkpt lat="45.6387533" lon="11.57719"><ele>59.75</ele><time>2026-03-28T12:01:52.152Z</time></trkpt><trkpt lat="45.6388767" lon="11.577225"><ele>60.0</ele><time>2026-03-28T12:01:53.152Z</time></trkpt><trkpt lat="45.6389833" lon="11.577265"><ele>60.0</ele><time>2026-03-28T12:01:54.152Z</time></trkpt><trkpt lat="45.6390883" lon="11.5772917"><ele>60.0</ele><time>2026-03-28T12:01:55.152Z</time></trkpt><trkpt lat="45.63918" lon="11.5773217"><ele>60.0</ele><time>2026-03-28T12:01:56.152Z</time></trkpt><trkpt lat="45.6392617" lon="11.5773583"><ele>60.0</ele><time>2026-03-28T12:01:57.152Z</time></trkpt><trkpt lat="45.6393367" lon="11.5773833"><ele>60.0</ele><time>2026-03-28T12:01:58.152Z</time></trkpt><trkpt lat="45.639415" lon="11.577405"><ele>60.0</ele><time>2026-03-28T12:01:59.152Z</time></trkpt><trkpt lat="45.6394783" lon="11.5774033"><ele>60.2</ele><time>2026-03-28T12:02:00.151Z</time></trkpt><trkpt lat="45.63955" lon="11.5774033"><ele>60.4</ele><time>2026-03-28T12:02:01.152Z</time></trkpt><trkpt lat="45.6396017" lon="11.5773167"><ele>60.599999999999994</ele><time>2026-03-28T12:02:02.152Z</time></trkpt><trkpt lat="45.6396317" lon="11.57719"><ele>60.8</ele><time>2026-03-28T12:02:03.152Z</time></trkpt><trkpt lat="45.639655" lon="11.5770483"><ele>61.0</ele><time>2026-03-28T12:02:04.152Z</time></trkpt><trkpt lat="45.639675" lon="11.5768817"><ele>60.99999999999999</ele><time>2026-03-28T12:02:05.152Z</time></trkpt><trkpt lat="45.6396967" lon="11.5767433"><ele>61.0</ele><time>2026-03-28T12:02:06.152Z</time></trkpt><trkpt lat="45.6397333" lon="11.57663"><ele>61.0</ele><time>2026-03-28T12:02:07.152Z</time></trkpt><trkpt lat="45.63978" lon="11.5765333"><ele>61.0</ele><time>2026-03-28T12:02:08.152Z</time></trkpt><trkpt lat="45.6398367" lon="11.5764383"><ele>60.99999999999999</ele><time>2026-03-28T12:02:09.151Z</time></trkpt><trkpt lat="45.6399067" lon="11.5763717"><ele>61.0</ele><time>2026-03-28T12:02:10.151Z</time></trkpt><trkpt lat="45.639995" lon="11.5763517"><ele>61.0</ele><time>2026-03-28T12:02:11.152Z</time></trkpt><trkpt lat="45.6401083" lon="11.5763733"><ele>61.0</ele><time>2026-03-28T12:02:12.152Z</time></trkpt><trkpt lat="45.64025" lon="11.5764317"><ele>61.0</ele><time>2026-03-28T12:02:13.151Z</time></trkpt><trkpt lat="45.6403983" lon="11.5764783"><ele>61.0</ele><time>2026-03-28T12:02:14.152Z</time></trkpt><trkpt lat="45.640535" lon="11.5765033"><ele>60.75</ele><time>2026-03-28T12:02:15.152Z</time></trkpt><trkpt lat="45.64067" lon="11.57653"><ele>60.5</ele><time>2026-03-28T12:02:16.152Z</time></trkpt><trkpt lat="45.6408083" lon="11.5765567"><ele>60.25</ele><time>2026-03-28T12:02:17.152Z</time></trkpt><trkpt lat="45.640945" lon="11.5765783"><ele>60.0</ele><time>2026-03-28T12:02:18.152Z</time></trkpt><trkpt lat="45.6410767" lon="11.5765967"><ele>60.0</ele><time>2026-03-28T12:02:19.151Z</time></trkpt><trkpt lat="45.64121" lon="11.576625"><ele>60.0</ele><time>2026-03-28T12:02:20.152Z</time></trkpt><trkpt lat="45.6413517" lon="11.57666"><ele>60.0</ele><time>2026-03-28T12:02:21.152Z</time></trkpt><trkpt lat="45.6414867" lon="11.5767067"><ele>60.0</ele><time>2026-03-28T12:02:22.152Z</time></trkpt><trkpt lat="45.641625" lon="11.5767417"><ele>60.0</ele><time>2026-03-28T12:02:23.152Z</time></trkpt><trkpt lat="45.6417533" lon="11.5767667"><ele>60.0</ele><time>2026-03-28T12:02:24.152Z</time></trkpt><trkpt lat="45.64187" lon="11.5767817"><ele>60.0</ele><time>2026-03-28T12:02:25.152Z</time></trkpt><trkpt lat="45.6419833" lon="11.5768017"><ele>60.0</ele><time>2026-03-28T12:02:26.152Z</time></trkpt><trkpt lat="45.64207" lon="11.5768117"><ele>60.0</ele><time>2026-03-28T12:02:27.152Z</time></trkpt><trkpt lat="45.6421517" lon="11.5768217"><ele>60.333333333333336</ele><time>2026-03-28T12:02:28.152Z</time></trkpt><trkpt lat="45.64226" lon="11.5768617"><ele>60.66666666666667</ele><time>2026-03-28T12:02:30.152Z</time></trkpt><trkpt lat="45.642325" lon="11.5768633"><ele>61.0</ele><time>2026-03-28T12:02:32.152Z</time></trkpt><trkpt lat="45.6423867" lon="11.5768083"><ele>61.333333333333336</ele><time>2026-03-28T12:02:34.151Z</time></trkpt><trkpt lat="45.6424033" lon="11.576665"><ele>61.66666666666667</ele><time>2026-03-28T12:02:36.152Z</time></trkpt><trkpt lat="45.6424117" lon="11.5765583"><ele>62.0</ele><time>2026-03-28T12:02:37.152Z</time></trkpt><trkpt lat="45.6424233" lon="11.57645"><ele>62.00000000000001</ele><time>2026-03-28T12:02:38.151Z</time></trkpt><trkpt lat="45.6424367" lon="11.5763317"><ele>62.0</ele><time>2026-03-28T12:02:39.152Z</time></trkpt><trkpt lat="45.64246" lon="11.5762067"><ele>62.0</ele><time>2026-03-28T12:02:40.152Z</time></trkpt><trkpt lat="45.642475" lon="11.5760867"><ele>62.0</ele><time>2026-03-28T12:02:41.152Z</time></trkpt><trkpt lat="45.6424967" lon="11.57596"><ele>62.00000000000001</ele><time>2026-03-28T12:02:42.152Z</time></trkpt><trkpt lat="45.6425067" lon="11.5758417"><ele>62.0</ele><time>2026-03-28T12:02:43.152Z</time></trkpt><trkpt lat="45.642515" lon="11.575735"><ele>62.00000000000001</ele><time>2026-03-28T12:02:44.152Z</time></trkpt><trkpt lat="45.6425267" lon="11.575645"><ele>62.0</ele><time>2026-03-28T12:02:45.151Z</time></trkpt><trkpt lat="45.64256" lon="11.5755483"><ele>62.0</ele><time>2026-03-28T12:02:46.151Z</time></trkpt><trkpt lat="45.642615" lon="11.5754917"><ele>62.0</ele><time>2026-03-28T12:02:47.152Z</time></trkpt><trkpt lat="45.6426833" lon="11.5754667"><ele>62.00000000000001</ele><time>2026-03-28T12:02:48.151Z</time></trkpt><trkpt lat="45.6427617" lon="11.5754767"><ele>62.0</ele><time>2026-03-28T12:02:49.152Z</time></trkpt><trkpt lat="45.64286" lon="11.5755167"><ele>62.0</ele><time>2026-03-28T12:02:50.151Z</time></trkpt><trkpt lat="45.6429683" lon="11.575565"><ele>62.0</ele><time>2026-03-28T12:02:51.152Z</time></trkpt><trkpt lat="45.6430783" lon="11.5756167"><ele>62.0</ele><time>2026-03-28T12:02:52.152Z</time></trkpt><trkpt lat="45.6431933" lon="11.575665"><ele>62.0</ele><time>2026-03-28T12:02:53.152Z</time></trkpt><trkpt lat="45.6433183" lon="11.5757133"><ele>62.0</ele><time>2026-03-28T12:02:54.151Z</time></trkpt><trkpt lat="45.64345" lon="11.5757683"><ele>62.0</ele><time>2026-03-28T12:02:55.151Z</time></trkpt><trkpt lat="45.6435817" lon="11.5758217"><ele>62.0</ele><time>2026-03-28T12:02:56.152Z</time></trkpt><trkpt lat="45.6437217" lon="11.575875"><ele>62.0</ele><time>2026-03-28T12:02:57.152Z</time></trkpt><trkpt lat="45.6438617" lon="11.5759367"><ele>62.66666666666667</ele><time>2026-03-28T12:02:58.152Z</time></trkpt><trkpt lat="45.6440067" lon="11.5760017"><ele>63.33333333333333</ele><time>2026-03-28T12:02:59.151Z</time></trkpt><trkpt lat="45.6441567" lon="11.5760667"><ele>64.0</ele><time>2026-03-28T12:03:00.152Z</time></trkpt><trkpt lat="45.644315" lon="11.5761317"><ele>64.66666666666666</ele><time>2026-03-28T12:03:01.152Z</time></trkpt><trkpt lat="45.6444717" lon="11.5761983"><ele>65.33333333333333</ele><time>2026-03-28T12:03:02.152Z</time></trkpt><trkpt lat="45.644625" lon="11.5762733"><ele>66.0</ele><time>2026-03-28T12:03:03.152Z</time></trkpt><trkpt lat="45.644775" lon="11.57635"><ele>66.0</ele><time>2026-03-28T12:03:04.152Z</time></trkpt><trkpt lat="45.64492" lon="11.5764167"><ele>66.0</ele><time>2026-03-28T12:03:05.152Z</time></trkpt><trkpt lat="45.6450667" lon="11.57649"><ele>66.0</ele><time>2026-03-28T12:03:06.151Z</time></trkpt><trkpt lat="45.6452133" lon="11.5765583"><ele>65.0</ele><time>2026-03-28T12:03:07.152Z</time></trkpt><trkpt lat="45.64536" lon="11.5766233"><ele>64.0</ele><time>2026-03-28T12:03:08.152Z</time></trkpt><trkpt lat="45.6455183" lon="11.5767"><ele>63.0</ele><time>2026-03-28T12:03:09.151Z</time></trkpt><trkpt lat="45.6456717" lon="11.5767733"><ele>63.0</ele><time>2026-03-28T12:03:10.151Z</time></trkpt><trkpt lat="45.6458283" lon="11.57685"><ele>63.0</ele><time>2026-03-28T12:03:11.151Z</time></trkpt><trkpt lat="45.64599" lon="11.5769217"><ele>63.0</ele><time>2026-03-28T12:03:12.151Z</time></trkpt><trkpt lat="45.64615" lon="11.5769967"><ele>63.33333333333333</ele><time>2026-03-28T12:03:13.152Z</time></trkpt><trkpt lat="45.646315" lon="11.5770783"><ele>63.666666666666664</ele><time>2026-03-28T12:03:14.152Z</time></trkpt><trkpt lat="45.6464783" lon="11.5771533"><ele>64.0</ele><time>2026-03-28T12:03:15.152Z</time></trkpt><trkpt lat="45.6466433" lon="11.5772383"><ele>64.0</ele><time>2026-03-28T12:03:16.152Z</time></trkpt><trkpt lat="45.6468033" lon="11.5773217"><ele>64.0</ele><time>2026-03-28T12:03:17.152Z</time></trkpt><trkpt lat="45.6469583" lon="11.5774033"><ele>64.0</ele><time>2026-03-28T12:03:18.151Z</time></trkpt><trkpt lat="45.6471133" lon="11.57748"><ele>64.33333333333333</ele><time>2026-03-28T12:03:19.151Z</time></trkpt><trkpt lat="45.647265" lon="11.5775567"><ele>64.66666666666667</ele><time>2026-03-28T12:03:20.152Z</time></trkpt><trkpt lat="45.647415" lon="11.57763"><ele>65.0</ele><time>2026-03-28T12:03:21.152Z</time></trkpt><trkpt lat="45.64757" lon="11.577695"><ele>65.0</ele><time>2026-03-28T12:03:22.152Z</time></trkpt><trkpt lat="45.6477267" lon="11.5777733"><ele>65.0</ele><time>2026-03-28T12:03:23.152Z</time></trkpt><trkpt lat="45.647885" lon="11.5778583"><ele>65.0</ele><time>2026-03-28T12:03:24.151Z</time></trkpt><trkpt lat="45.6480483" lon="11.5779383"><ele>65.0</ele><time>2026-03-28T12:03:25.152Z</time></trkpt><trkpt lat="45.6482117" lon="11.5780183"><ele>65.0</ele><time>2026-03-28T12:03:26.152Z</time></trkpt><trkpt lat="45.6483817" lon="11.5780917"><ele>65.0</ele><time>2026-03-28T12:03:27.152Z</time></trkpt><trkpt lat="45.64855" lon="11.57817"><ele>65.33333333333334</ele><time>2026-03-28T12:03:28.151Z</time></trkpt><trkpt lat="45.64871" lon="11.5782383"><ele>65.66666666666667</ele><time>2026-03-28T12:03:29.152Z</time></trkpt><trkpt lat="45.6488567" lon="11.5783167"><ele>66.0</ele><time>2026-03-28T12:03:30.152Z</time></trkpt><trkpt lat="45.649" lon="11.5783867"><ele>66.0</ele><time>2026-03-28T12:03:31.152Z</time></trkpt><trkpt lat="45.64913" lon="11.57845"><ele>66.0</ele><time>2026-03-28T12:03:32.152Z</time></trkpt><trkpt lat="45.64925" lon="11.57851"><ele>66.0</ele><time>2026-03-28T12:03:33.152Z</time></trkpt><trkpt lat="45.649365" lon="11.578565"><ele>66.0</ele><time>2026-03-28T12:03:34.151Z</time></trkpt><trkpt lat="45.6494633" lon="11.5786317"><ele>66.6</ele><time>2026-03-28T12:03:35.152Z</time></trkpt><trkpt lat="45.6495517" lon="11.5787033"><ele>67.19999999999999</ele><time>2026-03-28T12:03:36.151Z</time></trkpt><trkpt lat="45.6496217" lon="11.5787683"><ele>67.80000000000001</ele><time>2026-03-28T12:03:37.152Z</time></trkpt><trkpt lat="45.6497" lon="11.5788733"><ele>68.4</ele><time>2026-03-28T12:03:39.152Z</time></trkpt><trkpt lat="45.6497567" lon="11.5790283"><ele>69.0</ele><time>2026-03-28T12:03:41.151Z</time></trkpt><trkpt lat="45.6498583" lon="11.57912"><ele>69.0</ele><time>2026-03-28T12:03:43.152Z</time></trkpt><trkpt lat="45.649925" lon="11.5791"><ele>69.0</ele><time>2026-03-28T12:03:44.152Z</time></trkpt><trkpt lat="45.6499883" lon="11.5790483"><ele>69.0</ele><time>2026-03-28T12:03:45.151Z</time></trkpt><trkpt lat="45.6500767" lon="11.5789683"><ele>69.0</ele><time>2026-03-28T12:03:46.152Z</time></trkpt><trkpt lat="45.65017" lon="11.57888"><ele>69.0</ele><time>2026-03-28T12:03:47.151Z</time></trkpt><trkpt lat="45.6502733" lon="11.5788017"><ele>68.25</ele><time>2026-03-28T12:03:48.152Z</time></trkpt><trkpt lat="45.650385" lon="11.5787117"><ele>67.5</ele><time>2026-03-28T12:03:49.151Z</time></trkpt><trkpt lat="45.6504983" lon="11.578595"><ele>66.75</ele><time>2026-03-28T12:03:50.152Z</time></trkpt><trkpt lat="45.6506017" lon="11.5784667"><ele>66.0</ele><time>2026-03-28T12:03:51.152Z</time></trkpt><trkpt lat="45.6507" lon="11.5783317"><ele>66.0</ele><time>2026-03-28T12:03:52.152Z</time></trkpt><trkpt lat="45.6508017" lon="11.5782083"><ele>66.0</ele><time>2026-03-28T12:03:53.152Z</time></trkpt><trkpt lat="45.6509167" lon="11.5780733"><ele>66.0</ele><time>2026-03-28T12:03:54.152Z</time></trkpt><trkpt lat="45.6510317" lon="11.5779367"><ele>66.0</ele><time>2026-03-28T12:03:55.152Z</time></trkpt><trkpt lat="45.65115" lon="11.577795"><ele>66.0</ele><time>2026-03-28T12:03:56.152Z</time></trkpt><trkpt lat="45.6512683" lon="11.5776617"><ele>66.0</ele><time>2026-03-28T12:03:57.152Z</time></trkpt><trkpt lat="45.6513933" lon="11.5775367"><ele>66.0</ele><time>2026-03-28T12:03:58.152Z</time></trkpt><trkpt lat="45.65152" lon="11.5774183"><ele>66.0</ele><time>2026-03-28T12:03:59.152Z</time></trkpt><trkpt lat="45.6516517" lon="11.5772783"><ele>66.0</ele><time>2026-03-28T12:04:00.152Z</time></trkpt><trkpt lat="45.651785" lon="11.5771317"><ele>66.0</ele><time>2026-03-28T12:04:01.152Z</time></trkpt><trkpt lat="45.6519117" lon="11.576975"><ele>65.33333333333333</ele><time>2026-03-28T12:04:02.152Z</time></trkpt><trkpt lat="45.6520433" lon="11.5768233"><ele>64.66666666666666</ele><time>2026-03-28T12:04:03.152Z</time></trkpt><trkpt lat="45.652175" lon="11.576685"><ele>64.0</ele><time>2026-03-28T12:04:04.152Z</time></trkpt><trkpt lat="45.6523067" lon="11.5765533"><ele>64.0</ele><time>2026-03-28T12:04:05.152Z</time></trkpt><trkpt lat="45.6524333" lon="11.576415"><ele>64.0</ele><time>2026-03-28T12:04:06.152Z</time></trkpt><trkpt lat="45.6525617" lon="11.5762717"><ele>64.0</ele><time>2026-03-28T12:04:07.152Z</time></trkpt><trkpt lat="45.65269" lon="11.5761317"><ele>65.0</ele><time>2026-03-28T12:04:08.152Z</time></trkpt><trkpt lat="45.6528217" lon="11.575995"><ele>66.0</ele><time>2026-03-28T12:04:09.152Z</time></trkpt><trkpt lat="45.6529517" lon="11.5758533"><ele>67.0</ele><time>2026-03-28T12:04:10.151Z</time></trkpt><trkpt lat="45.6530817" lon="11.5757117"><ele>67.0</ele><time>2026-03-28T12:04:11.152Z</time></trkpt><trkpt lat="45.6532117" lon="11.575575"><ele>67.0</ele><time>2026-03-28T12:04:12.152Z</time></trkpt><trkpt lat="45.6533467" lon="11.575435"><ele>67.0</ele><time>2026-03-28T12:04:13.152Z</time></trkpt><trkpt lat="45.6534783" lon="11.5752933"><ele>66.66666666666666</ele><time>2026-03-28T12:04:14.152Z</time></trkpt><trkpt lat="45.6536083" lon="11.5751517"><ele>66.33333333333333</ele><time>2026-03-28T12:04:15.152Z</time></trkpt><trkpt lat="45.65374" lon="11.5750117"><ele>66.0</ele><time>2026-03-28T12:04:16.152Z</time></trkpt><trkpt lat="45.6538717" lon="11.5748717"><ele>67.0</ele><time>2026-03-28T12:04:17.152Z</time></trkpt><trkpt lat="45.6540033" lon="11.5747333"><ele>68.0</ele><time>2026-03-28T12:04:18.152Z</time></trkpt><trkpt lat="45.6541333" lon="11.574595"><ele>69.0</ele><time>2026-03-28T12:04:19.152Z</time></trkpt><trkpt lat="45.6542667" lon="11.5744567"><ele>69.0</ele><time>2026-03-28T12:04:20.151Z</time></trkpt><trkpt lat="45.6543967" lon="11.5743133"><ele>69.0</ele><time>2026-03-28T12:04:21.151Z</time></trkpt><trkpt lat="45.6545267" lon="11.5741717"><ele>69.0</ele><time>2026-03-28T12:04:22.152Z</time></trkpt><trkpt lat="45.6546567" lon="11.5740367"><ele>70.33333333333333</ele><time>2026-03-28T12:04:23.151Z</time></trkpt><trkpt lat="45.6547817" lon="11.5739033"><ele>71.66666666666666</ele><time>2026-03-28T12:04:24.152Z</time></trkpt><trkpt lat="45.654915" lon="11.5737617"><ele>73.0</ele><time>2026-03-28T12:04:25.151Z</time></trkpt><trkpt lat="45.655045" lon="11.5736167"><ele>73.33333333333333</ele><time>2026-03-28T12:04:26.152Z</time></trkpt><trkpt lat="45.6551833" lon="11.57347"><ele>73.66666666666667</ele><time>2026-03-28T12:04:27.152Z</time></trkpt><trkpt lat="45.6553233" lon="11.57333"><ele>74.0</ele><time>2026-03-28T12:04:28.152Z</time></trkpt><trkpt lat="45.65546" lon="11.573185"><ele>73.33333333333334</ele><time>2026-03-28T12:04:29.152Z</time></trkpt><trkpt lat="45.6555883" lon="11.5730433"><ele>72.66666666666667</ele><time>2026-03-28T12:04:30.152Z</time></trkpt><trkpt lat="45.65572" lon="11.5729017"><ele>72.0</ele><time>2026-03-28T12:04:31.152Z</time></trkpt><trkpt lat="45.655845" lon="11.572765"><ele>72.0</ele><time>2026-03-28T12:04:32.152Z</time></trkpt><trkpt lat="45.6559767" lon="11.5726283"><ele>72.0</ele><time>2026-03-28T12:04:33.152Z</time></trkpt><trkpt lat="45.6561067" lon="11.57249"><ele>72.0</ele><time>2026-03-28T12:04:34.151Z</time></trkpt><trkpt lat="45.6562383" lon="11.5723583"><ele>72.0</ele><time>2026-03-28T12:04:35.152Z</time></trkpt><trkpt lat="45.656375" lon="11.5722217"><ele>72.0</ele><time>2026-03-28T12:04:36.152Z</time></trkpt><trkpt lat="45.65651" lon="11.57208"><ele>72.0</ele><time>2026-03-28T12:04:37.152Z</time></trkpt><trkpt lat="45.6566467" lon="11.5719367"><ele>72.0</ele><time>2026-03-28T12:04:38.151Z</time></trkpt><trkpt lat="45.6567883" lon="11.571795"><ele>72.0</ele><time>2026-03-28T12:04:39.152Z</time></trkpt><trkpt lat="45.65693" lon="11.571655"><ele>72.0</ele><time>2026-03-28T12:04:40.152Z</time></trkpt><trkpt lat="45.6570667" lon="11.5715233"><ele>72.0</ele><time>2026-03-28T12:04:41.152Z</time></trkpt><trkpt lat="45.6572017" lon="11.5713917"><ele>72.0</ele><time>2026-03-28T12:04:42.152Z</time></trkpt><trkpt lat="45.657335" lon="11.5712567"><ele>72.0</ele><time>2026-03-28T12:04:43.151Z</time></trkpt><trkpt lat="45.657455" lon="11.57112"><ele>72.33333333333333</ele><time>2026-03-28T12:04:44.151Z</time></trkpt><trkpt lat="45.65757" lon="11.570955"><ele>72.66666666666666</ele><time>2026-03-28T12:04:45.151Z</time></trkpt><trkpt lat="45.6576633" lon="11.5707683"><ele>73.0</ele><time>2026-03-28T12:04:46.151Z</time></trkpt><trkpt lat="45.657745" lon="11.5705717"><ele>72.66666666666666</ele><time>2026-03-28T12:04:47.152Z</time></trkpt><trkpt lat="45.6578283" lon="11.5703617"><ele>72.33333333333333</ele><time>2026-03-28T12:04:48.152Z</time></trkpt><trkpt lat="45.6579033" lon="11.5701567"><ele>72.0</ele><time>2026-03-28T12:04:49.152Z</time></trkpt><trkpt lat="45.6579817" lon="11.5699567"><ele>72.0</ele><time>2026-03-28T12:04:50.152Z</time></trkpt><trkpt lat="45.6580633" lon="11.5697417"><ele>72.0</ele><time>2026-03-28T12:04:51.151Z</time></trkpt><trkpt lat="45.65814" lon="11.569535"><ele>72.0</ele><time>2026-03-28T12:04:52.152Z</time></trkpt><trkpt lat="45.6582117" lon="11.5693333"><ele>73.0</ele><time>2026-03-28T12:04:53.152Z</time></trkpt><trkpt lat="45.6582817" lon="11.5691333"><ele>74.0</ele><time>2026-03-28T12:04:54.152Z</time></trkpt><trkpt lat="45.6583583" lon="11.5689333"><ele>75.0</ele><time>2026-03-28T12:04:55.152Z</time></trkpt><trkpt lat="45.6584333" lon="11.5687367"><ele>75.0</ele><time>2026-03-28T12:04:56.151Z</time></trkpt><trkpt lat="45.6585117" lon="11.5685283"><ele>75.0</ele><time>2026-03-28T12:04:57.152Z</time></trkpt><trkpt lat="45.65859" lon="11.5683267"><ele>75.0</ele><time>2026-03-28T12:04:58.152Z</time></trkpt><trkpt lat="45.65867" lon="11.56812"><ele>75.0</ele><time>2026-03-28T12:04:59.152Z</time></trkpt><trkpt lat="45.6587433" lon="11.5679183"><ele>75.0</ele><time>2026-03-28T12:05:00.152Z</time></trkpt><trkpt lat="45.6588117" lon="11.56773"><ele>75.0</ele><time>2026-03-28T12:05:01.152Z</time></trkpt><trkpt lat="45.6588817" lon="11.5675517"><ele>74.5</ele><time>2026-03-28T12:05:02.152Z</time></trkpt><trkpt lat="45.65895" lon="11.5673817"><ele>74.0</ele><time>2026-03-28T12:05:03.152Z</time></trkpt><trkpt lat="45.659015" lon="11.5672167"><ele>73.5</ele><time>2026-03-28T12:05:04.151Z</time></trkpt><trkpt lat="45.6590867" lon="11.56705"><ele>73.0</ele><time>2026-03-28T12:05:05.152Z</time></trkpt><trkpt lat="45.6591667" lon="11.5669017"><ele>73.0</ele><time>2026-03-28T12:05:06.152Z</time></trkpt><trkpt lat="45.6592517" lon="11.5667683"><ele>73.0</ele><time>2026-03-28T12:05:07.151Z</time></trkpt><trkpt lat="45.6593533" lon="11.566625"><ele>73.0</ele><time>2026-03-28T12:05:08.152Z</time></trkpt><trkpt lat="45.659465" lon="11.5664767"><ele>73.0</ele><time>2026-03-28T12:05:09.152Z</time></trkpt><trkpt lat="45.65958" lon="11.5663517"><ele>73.0</ele><time>2026-03-28T12:05:10.151Z</time></trkpt><trkpt lat="45.6597067" lon="11.566245"><ele>73.0</ele><time>2026-03-28T12:05:11.152Z</time></trkpt><trkpt lat="45.6598433" lon="11.566155"><ele>73.0</ele><time>2026-03-28T12:05:12.152Z</time></trkpt><trkpt lat="45.6599933" lon="11.5660783"><ele>73.33333333333333</ele><time>2026-03-28T12:05:13.152Z</time></trkpt><trkpt lat="45.6601483" lon="11.5660017"><ele>73.66666666666667</ele><time>2026-03-28T12:05:14.151Z</time></trkpt><trkpt lat="45.6603033" lon="11.56593"><ele>74.0</ele><time>2026-03-28T12:05:15.151Z</time></trkpt><trkpt lat="45.66046" lon="11.5658517"><ele>74.66666666666667</ele><time>2026-03-28T12:05:16.152Z</time></trkpt><trkpt lat="45.6606183" lon="11.5657767"><ele>75.33333333333333</ele><time>2026-03-28T12:05:17.152Z</time></trkpt><trkpt lat="45.660775" lon="11.5657"><ele>76.0</ele><time>2026-03-28T12:05:18.152Z</time></trkpt><trkpt lat="45.66094" lon="11.565625"><ele>76.0</ele><time>2026-03-28T12:05:19.152Z</time></trkpt><trkpt lat="45.6610967" lon="11.5655467"><ele>76.0</ele><time>2026-03-28T12:05:20.152Z</time></trkpt><trkpt lat="45.6612533" lon="11.56547"><ele>76.0</ele><time>2026-03-28T12:05:21.152Z</time></trkpt><trkpt lat="45.66141" lon="11.56539"><ele>76.33333333333333</ele><time>2026-03-28T12:05:22.152Z</time></trkpt><trkpt lat="45.6615667" lon="11.5653183"><ele>76.66666666666667</ele><time>2026-03-28T12:05:23.152Z</time></trkpt><trkpt lat="45.6617217" lon="11.5652317"><ele>77.0</ele><time>2026-03-28T12:05:24.152Z</time></trkpt><trkpt lat="45.661885" lon="11.5651567"><ele>77.0</ele><time>2026-03-28T12:05:25.151Z</time></trkpt><trkpt lat="45.6620383" lon="11.5650833"><ele>77.0</ele><time>2026-03-28T12:05:26.152Z</time></trkpt><trkpt lat="45.6621867" lon="11.5650117"><ele>77.0</ele><time>2026-03-28T12:05:27.152Z</time></trkpt><trkpt lat="45.6623317" lon="11.564925"><ele>77.0</ele><time>2026-03-28T12:05:28.152Z</time></trkpt><trkpt lat="45.6624733" lon="11.5648467"><ele>77.0</ele><time>2026-03-28T12:05:29.152Z</time></trkpt><trkpt lat="45.66262" lon="11.5647717"><ele>77.0</ele><time>2026-03-28T12:05:30.152Z</time></trkpt><trkpt lat="45.66277" lon="11.5646967"><ele>77.0</ele><time>2026-03-28T12:05:31.152Z</time></trkpt><trkpt lat="45.66292" lon="11.5646317"><ele>77.0</ele><time>2026-03-28T12:05:32.152Z</time></trkpt><trkpt lat="45.66307" lon="11.564555"><ele>77.0</ele><time>2026-03-28T12:05:33.152Z</time></trkpt><trkpt lat="45.66322" lon="11.5644767"><ele>77.66666666666667</ele><time>2026-03-28T12:05:34.152Z</time></trkpt><trkpt lat="45.6633633" lon="11.5643967"><ele>78.33333333333333</ele><time>2026-03-28T12:05:35.152Z</time></trkpt><trkpt lat="45.6635183" lon="11.564325"><ele>79.0</ele><time>2026-03-28T12:05:36.151Z</time></trkpt><trkpt lat="45.66367" lon="11.5642417"><ele>79.33333333333333</ele><time>2026-03-28T12:05:37.152Z</time></trkpt><trkpt lat="45.663815" lon="11.564165"><ele>79.66666666666667</ele><time>2026-03-28T12:05:38.152Z</time></trkpt><trkpt lat="45.6639633" lon="11.5640883"><ele>80.0</ele><time>2026-03-28T12:05:39.152Z</time></trkpt><trkpt lat="45.6641067" lon="11.56402"><ele>80.0</ele><time>2026-03-28T12:05:40.151Z</time></trkpt><trkpt lat="45.6642483" lon="11.5639433"><ele>80.0</ele><time>2026-03-28T12:05:41.152Z</time></trkpt><trkpt lat="45.664395" lon="11.5638617"><ele>80.0</ele><time>2026-03-28T12:05:42.152Z</time></trkpt><trkpt lat="45.6645383" lon="11.5637767"><ele>79.66666666666667</ele><time>2026-03-28T12:05:43.151Z</time></trkpt><trkpt lat="45.664695" lon="11.5637183"><ele>79.33333333333333</ele><time>2026-03-28T12:05:44.152Z</time></trkpt><trkpt lat="45.6648517" lon="11.56367"><ele>79.0</ele><time>2026-03-28T12:05:45.151Z</time></trkpt><trkpt lat="45.665015" lon="11.5636483"><ele>79.0</ele><time>2026-03-28T12:05:46.152Z</time></trkpt><trkpt lat="45.665175" lon="11.5636117"><ele>79.0</ele><time>2026-03-28T12:05:47.152Z</time></trkpt><trkpt lat="45.665325" lon="11.5635683"><ele>79.0</ele><time>2026-03-28T12:05:48.151Z</time></trkpt><trkpt lat="45.6654783" lon="11.563525"><ele>79.33333333333333</ele><time>2026-03-28T12:05:49.152Z</time></trkpt><trkpt lat="45.6656283" lon="11.563475"><ele>79.66666666666667</ele><time>2026-03-28T12:05:50.151Z</time></trkpt><trkpt lat="45.665785" lon="11.5634367"><ele>80.0</ele><time>2026-03-28T12:05:51.152Z</time></trkpt><trkpt lat="45.6659417" lon="11.563395"><ele>80.0</ele><time>2026-03-28T12:05:52.151Z</time></trkpt><trkpt lat="45.6661017" lon="11.56336"><ele>80.0</ele><time>2026-03-28T12:05:53.152Z</time></trkpt><trkpt lat="45.666265" lon="11.5633317"><ele>80.0</ele><time>2026-03-28T12:05:54.152Z</time></trkpt><trkpt lat="45.6664317" lon="11.5633067"><ele>80.33333333333334</ele><time>2026-03-28T12:05:55.152Z</time></trkpt><trkpt lat="45.6665983" lon="11.5632883"><ele>80.66666666666667</ele><time>2026-03-28T12:05:56.152Z</time></trkpt><trkpt lat="45.6667617" lon="11.5632767"><ele>81.0</ele><time>2026-03-28T12:05:57.152Z</time></trkpt><trkpt lat="45.6669133" lon="11.5632567"><ele>81.25</ele><time>2026-03-28T12:05:58.152Z</time></trkpt><trkpt lat="45.66706" lon="11.5632383"><ele>81.5</ele><time>2026-03-28T12:05:59.151Z</time></trkpt><trkpt lat="45.667195" lon="11.56322"><ele>81.75</ele><time>2026-03-28T12:06:00.152Z</time></trkpt><trkpt lat="45.66733" lon="11.5631967"><ele>82.0</ele><time>2026-03-28T12:06:01.151Z</time></trkpt><trkpt lat="45.6674767" lon="11.5631717"><ele>82.0</ele><time>2026-03-28T12:06:02.152Z</time></trkpt><trkpt lat="45.66763" lon="11.5631517"><ele>82.0</ele><time>2026-03-28T12:06:03.151Z</time></trkpt><trkpt lat="45.6677817" lon="11.56313"><ele>82.0</ele><time>2026-03-28T12:06:04.152Z</time></trkpt><trkpt lat="45.6679283" lon="11.5631017"><ele>82.0</ele><time>2026-03-28T12:06:05.152Z</time></trkpt><trkpt lat="45.66808" lon="11.563075"><ele>82.0</ele><time>2026-03-28T12:06:06.152Z</time></trkpt><trkpt lat="45.6682367" lon="11.5630617"><ele>82.0</ele><time>2026-03-28T12:06:07.152Z</time></trkpt><trkpt lat="45.66839" lon="11.5630333"><ele>82.0</ele><time>2026-03-28T12:06:08.152Z</time></trkpt><trkpt lat="45.6685417" lon="11.5630117"><ele>82.0</ele><time>2026-03-28T12:06:09.151Z</time></trkpt><trkpt lat="45.6687033" lon="11.562985"><ele>82.0</ele><time>2026-03-28T12:06:10.151Z</time></trkpt><trkpt lat="45.6688633" lon="11.56296"><ele>82.33333333333333</ele><time>2026-03-28T12:06:11.152Z</time></trkpt><trkpt lat="45.6690167" lon="11.5629333"><ele>82.66666666666667</ele><time>2026-03-28T12:06:12.152Z</time></trkpt><trkpt lat="45.6691717" lon="11.562915"><ele>83.0</ele><time>2026-03-28T12:06:13.152Z</time></trkpt><trkpt lat="45.66933" lon="11.5628917"><ele>83.0</ele><time>2026-03-28T12:06:14.151Z</time></trkpt><trkpt lat="45.66949" lon="11.5628717"><ele>83.0</ele><time>2026-03-28T12:06:15.152Z</time></trkpt><trkpt lat="45.6696517" lon="11.5628483"><ele>83.0</ele><time>2026-03-28T12:06:16.152Z</time></trkpt><trkpt lat="45.6698133" lon="11.56282"><ele>83.0</ele><time>2026-03-28T12:06:17.152Z</time></trkpt><trkpt lat="45.6699783" lon="11.5627883"><ele>83.0</ele><time>2026-03-28T12:06:18.152Z</time></trkpt><trkpt lat="45.6701417" lon="11.5627383"><ele>83.0</ele><time>2026-03-28T12:06:19.151Z</time></trkpt><trkpt lat="45.6702983" lon="11.5626717"><ele>83.5</ele><time>2026-03-28T12:06:20.151Z</time></trkpt><trkpt lat="45.670445" lon="11.56259"><ele>84.0</ele><time>2026-03-28T12:06:21.152Z</time></trkpt><trkpt lat="45.670575" lon="11.5625067"><ele>84.5</ele><time>2026-03-28T12:06:22.152Z</time></trkpt><trkpt lat="45.6706917" lon="11.5624117"><ele>85.0</ele><time>2026-03-28T12:06:23.152Z</time></trkpt><trkpt lat="45.6707983" lon="11.562305"><ele>85.0</ele><time>2026-03-28T12:06:24.152Z</time></trkpt><trkpt lat="45.670895" lon="11.5621967"><ele>85.0</ele><time>2026-03-28T12:06:25.152Z</time></trkpt><trkpt lat="45.670985" lon="11.5620933"><ele>85.0</ele><time>2026-03-28T12:06:26.151Z</time></trkpt><trkpt lat="45.6710583" lon="11.5619967"><ele>85.0</ele><time>2026-03-28T12:06:27.152Z</time></trkpt><trkpt lat="45.6711167" lon="11.5619067"><ele>85.0</ele><time>2026-03-28T12:06:28.152Z</time></trkpt><trkpt lat="45.6711517" lon="11.5618267"><ele>85.16666666666666</ele><time>2026-03-28T12:06:29.151Z</time></trkpt><trkpt lat="45.6711817" lon="11.5617383"><ele>85.33333333333333</ele><time>2026-03-28T12:06:30.152Z</time></trkpt><trkpt lat="45.671215" lon="11.561605"><ele>85.5</ele><time>2026-03-28T12:06:32.152Z</time></trkpt><trkpt lat="45.6712367" lon="11.56152"><ele>85.66666666666667</ele><time>2026-03-28T12:06:35.152Z</time></trkpt><trkpt lat="45.6711917" lon="11.5614083"><ele>85.83333333333334</ele><time>2026-03-28T12:07:39.152Z</time></trkpt><trkpt lat="45.6712733" lon="11.5614333"><ele>86.0</ele><time>2026-03-28T12:09:24.152Z</time></trkpt><trkpt lat="45.6713317" lon="11.5613883"><ele>86.0</ele><time>2026-03-28T12:09:27.152Z</time></trkpt><trkpt lat="45.6713883" lon="11.56132"><ele>86.0</ele><time>2026-03-28T12:09:29.152Z</time></trkpt><trkpt lat="45.6714933" lon="11.5612833"><ele>86.0</ele><time>2026-03-28T12:09:31.152Z</time></trkpt><trkpt lat="45.67156" lon="11.56126"><ele>86.0</ele><time>2026-03-28T12:09:32.152Z</time></trkpt><trkpt lat="45.6716333" lon="11.56121"><ele>86.0</ele><time>2026-03-28T12:09:33.152Z</time></trkpt><trkpt lat="45.671705" lon="11.56114"><ele>86.0</ele><time>2026-03-28T12:09:34.152Z</time></trkpt><trkpt lat="45.6717983" lon="11.5610633"><ele>85.75</ele><time>2026-03-28T12:09:35.152Z</time></trkpt><trkpt lat="45.6718933" lon="11.5609683"><ele>85.5</ele><time>2026-03-28T12:09:36.152Z</time></trkpt><trkpt lat="45.6719867" lon="11.56088"><ele>85.25</ele><time>2026-03-28T12:09:37.152Z</time></trkpt><trkpt lat="45.6720817" lon="11.5607833"><ele>85.0</ele><time>2026-03-28T12:09:38.152Z</time></trkpt><trkpt lat="45.672175" lon="11.5606817"><ele>85.0</ele><time>2026-03-28T12:09:39.152Z</time></trkpt><trkpt lat="45.6722783" lon="11.5605883"><ele>85.0</ele><time>2026-03-28T12:09:40.152Z</time></trkpt><trkpt lat="45.67239" lon="11.560495"><ele>85.0</ele><time>2026-03-28T12:09:41.151Z</time></trkpt><trkpt lat="45.6725083" lon="11.5604067"><ele>85.0</ele><time>2026-03-28T12:09:42.152Z</time></trkpt><trkpt lat="45.6726283" lon="11.5603217"><ele>84.75</ele><time>2026-03-28T12:09:43.152Z</time></trkpt><trkpt lat="45.6727533" lon="11.5602317"><ele>84.5</ele><time>2026-03-28T12:09:44.152Z</time></trkpt><trkpt lat="45.6728833" lon="11.56014"><ele>84.25</ele><time>2026-03-28T12:09:45.152Z</time></trkpt><trkpt lat="45.67301" lon="11.5600517"><ele>84.0</ele><time>2026-03-28T12:09:46.152Z</time></trkpt><trkpt lat="45.673135" lon="11.5599617"><ele>84.5</ele><time>2026-03-28T12:09:47.152Z</time></trkpt><trkpt lat="45.6732533" lon="11.55987"><ele>85.0</ele><time>2026-03-28T12:09:48.152Z</time></trkpt><trkpt lat="45.6733767" lon="11.5597767"><ele>85.5</ele><time>2026-03-28T12:09:49.152Z</time></trkpt><trkpt lat="45.6734917" lon="11.55968"><ele>86.0</ele><time>2026-03-28T12:09:50.151Z</time></trkpt><trkpt lat="45.67361" lon="11.5595683"><ele>86.0</ele><time>2026-03-28T12:09:51.152Z</time></trkpt><trkpt lat="45.6737383" lon="11.5594683"><ele>86.0</ele><time>2026-03-28T12:09:52.152Z</time></trkpt><trkpt lat="45.6738683" lon="11.559385"><ele>86.0</ele><time>2026-03-28T12:09:53.152Z</time></trkpt><trkpt lat="45.673985" lon="11.559305"><ele>86.0</ele><time>2026-03-28T12:09:54.152Z</time></trkpt><trkpt lat="45.6741033" lon="11.5592083"><ele>86.0</ele><time>2026-03-28T12:09:55.152Z</time></trkpt><trkpt lat="45.6742167" lon="11.559095"><ele>86.0</ele><time>2026-03-28T12:09:56.152Z</time></trkpt><trkpt lat="45.67432" lon="11.5589867"><ele>86.0</ele><time>2026-03-28T12:09:57.152Z</time></trkpt><trkpt lat="45.6744033" lon="11.5588683"><ele>86.0</ele><time>2026-03-28T12:09:58.152Z</time></trkpt><trkpt lat="45.67447" lon="11.5587467"><ele>86.66666666666667</ele><time>2026-03-28T12:09:59.152Z</time></trkpt><trkpt lat="45.6745267" lon="11.55864"><ele>87.33333333333334</ele><time>2026-03-28T12:10:00.152Z</time></trkpt><trkpt lat="45.6745717" lon="11.5585517"><ele>88.0</ele><time>2026-03-28T12:10:01.151Z</time></trkpt><trkpt lat="45.674615" lon="11.558475"><ele>88.66666666666667</ele><time>2026-03-28T12:10:02.152Z</time></trkpt><trkpt lat="45.6747067" lon="11.558395"><ele>89.33333333333333</ele><time>2026-03-28T12:10:04.151Z</time></trkpt><trkpt lat="45.674785" lon="11.5583967"><ele>90.0</ele><time>2026-03-28T12:10:07.152Z</time></trkpt><trkpt lat="45.6748567" lon="11.5584283"><ele>90.0</ele><time>2026-03-28T12:10:09.152Z</time></trkpt><trkpt lat="45.674985" lon="11.55845"><ele>90.0</ele><time>2026-03-28T12:10:11.151Z</time></trkpt><trkpt lat="45.675055" lon="11.55847"><ele>90.0</ele><time>2026-03-28T12:10:12.151Z</time></trkpt><trkpt lat="45.6751283" lon="11.5585167"><ele>90.0</ele><time>2026-03-28T12:10:13.152Z</time></trkpt><trkpt lat="45.6752383" lon="11.5585667"><ele>90.0</ele><time>2026-03-28T12:10:15.152Z</time></trkpt><trkpt lat="45.6753483" lon="11.5585617"><ele>89.6</ele><time>2026-03-28T12:10:17.152Z</time></trkpt><trkpt lat="45.6754167" lon="11.5585333"><ele>89.2</ele><time>2026-03-28T12:10:18.152Z</time></trkpt><trkpt lat="45.6755017" lon="11.5584767"><ele>88.80000000000001</ele><time>2026-03-28T12:10:19.152Z</time></trkpt><trkpt lat="45.6756067" lon="11.558385"><ele>88.4</ele><time>2026-03-28T12:10:20.152Z</time></trkpt><trkpt lat="45.67571" lon="11.558285"><ele>88.0</ele><time>2026-03-28T12:10:21.152Z</time></trkpt><trkpt lat="45.6758017" lon="11.558185"><ele>88.0</ele><time>2026-03-28T12:10:22.152Z</time></trkpt><trkpt lat="45.6759083" lon="11.5580733"><ele>88.0</ele><time>2026-03-28T12:10:23.152Z</time></trkpt><trkpt lat="45.6760133" lon="11.5579583"><ele>88.0</ele><time>2026-03-28T12:10:24.152Z</time></trkpt><trkpt lat="45.6761233" lon="11.5578367"><ele>88.0</ele><time>2026-03-28T12:10:25.152Z</time></trkpt><trkpt lat="45.6762433" lon="11.5577133"><ele>87.66666666666666</ele><time>2026-03-28T12:10:26.151Z</time></trkpt><trkpt lat="45.6763683" lon="11.5575733"><ele>87.33333333333333</ele><time>2026-03-28T12:10:27.152Z</time></trkpt><trkpt lat="45.67649" lon="11.557435"><ele>87.0</ele><time>2026-03-28T12:10:28.151Z</time></trkpt><trkpt lat="45.6766167" lon="11.5572917"><ele>87.0</ele><time>2026-03-28T12:10:29.151Z</time></trkpt><trkpt lat="45.676745" lon="11.5571533"><ele>87.0</ele><time>2026-03-28T12:10:30.151Z</time></trkpt><trkpt lat="45.6768633" lon="11.5570233"><ele>87.0</ele><time>2026-03-28T12:10:31.152Z</time></trkpt><trkpt lat="45.6769733" lon="11.5569"><ele>87.33333333333333</ele><time>2026-03-28T12:10:32.151Z</time></trkpt><trkpt lat="45.6770867" lon="11.5567733"><ele>87.66666666666666</ele><time>2026-03-28T12:10:33.151Z</time></trkpt><trkpt lat="45.6772133" lon="11.5566367"><ele>88.0</ele><time>2026-03-28T12:10:34.152Z</time></trkpt><trkpt lat="45.6773433" lon="11.5564933"><ele>88.0</ele><time>2026-03-28T12:10:35.152Z</time></trkpt><trkpt lat="45.6774767" lon="11.5563467"><ele>88.0</ele><time>2026-03-28T12:10:36.151Z</time></trkpt><trkpt lat="45.67761" lon="11.5562033"><ele>88.0</ele><time>2026-03-28T12:10:37.151Z</time></trkpt><trkpt lat="45.6777433" lon="11.556055"><ele>88.33333333333333</ele><time>2026-03-28T12:10:38.152Z</time></trkpt><trkpt lat="45.6778783" lon="11.555905"><ele>88.66666666666667</ele><time>2026-03-28T12:10:39.152Z</time></trkpt><trkpt lat="45.6780133" lon="11.5557467"><ele>89.0</ele><time>2026-03-28T12:10:40.152Z</time></trkpt><trkpt lat="45.6781467" lon="11.5555917"><ele>89.0</ele><time>2026-03-28T12:10:41.152Z</time></trkpt><trkpt lat="45.6782733" lon="11.5554433"><ele>89.0</ele><time>2026-03-28T12:10:42.152Z</time></trkpt><trkpt lat="45.6783883" lon="11.5553183"><ele>89.0</ele><time>2026-03-28T12:10:43.152Z</time></trkpt><trkpt lat="45.6784983" lon="11.555185"><ele>88.25</ele><time>2026-03-28T12:10:44.152Z</time></trkpt><trkpt lat="45.67861" lon="11.55505"><ele>87.5</ele><time>2026-03-28T12:10:45.152Z</time></trkpt><trkpt lat="45.6787133" lon="11.55493"><ele>86.75</ele><time>2026-03-28T12:10:46.151Z</time></trkpt><trkpt lat="45.6788183" lon="11.554805"><ele>86.0</ele><time>2026-03-28T12:10:47.152Z</time></trkpt><trkpt lat="45.6789033" lon="11.5547017"><ele>86.0</ele><time>2026-03-28T12:10:48.151Z</time></trkpt><trkpt lat="45.67897" lon="11.554625"><ele>86.0</ele><time>2026-03-28T12:10:49.152Z</time></trkpt><trkpt lat="45.67903" lon="11.5545783"><ele>86.0</ele><time>2026-03-28T12:10:50.152Z</time></trkpt><trkpt lat="45.6790983" lon="11.55454"><ele>86.0</ele><time>2026-03-28T12:10:51.152Z</time></trkpt><trkpt lat="45.679175" lon="11.5544983"><ele>86.0</ele><time>2026-03-28T12:10:52.152Z</time></trkpt><trkpt lat="45.6792633" lon="11.554465"><ele>86.0</ele><time>2026-03-28T12:10:53.152Z</time></trkpt><trkpt lat="45.67936" lon="11.5544517"><ele>86.6</ele><time>2026-03-28T12:10:54.152Z</time></trkpt><trkpt lat="45.6794617" lon="11.55444"><ele>87.19999999999999</ele><time>2026-03-28T12:10:55.152Z</time></trkpt><trkpt lat="45.6795533" lon="11.554405"><ele>87.80000000000001</ele><time>2026-03-28T12:10:56.152Z</time></trkpt><trkpt lat="45.6796467" lon="11.5543567"><ele>88.4</ele><time>2026-03-28T12:10:57.152Z</time></trkpt><trkpt lat="45.6797283" lon="11.5543133"><ele>89.0</ele><time>2026-03-28T12:10:58.152Z</time></trkpt><trkpt lat="45.679805" lon="11.55428"><ele>89.0</ele><time>2026-03-28T12:10:59.152Z</time></trkpt><trkpt lat="45.6798717" lon="11.554245"><ele>89.0</ele><time>2026-03-28T12:11:00.152Z</time></trkpt><trkpt lat="45.6799333" lon="11.554215"><ele>89.0</ele><time>2026-03-28T12:11:01.152Z</time></trkpt><trkpt lat="45.68004" lon="11.55412"><ele>89.0</ele><time>2026-03-28T12:11:03.151Z</time></trkpt><trkpt lat="45.680175" lon="11.5540567"><ele>89.0</ele><time>2026-03-28T12:11:05.151Z</time></trkpt><trkpt lat="45.68027" lon="11.5540117"><ele>89.0</ele><time>2026-03-28T12:11:06.152Z</time></trkpt><trkpt lat="45.6803817" lon="11.5539633"><ele>89.0</ele><time>2026-03-28T12:11:07.152Z</time></trkpt><trkpt lat="45.680505" lon="11.5539033"><ele>89.0</ele><time>2026-03-28T12:11:08.151Z</time></trkpt><trkpt lat="45.6806367" lon="11.5538433"><ele>89.0</ele><time>2026-03-28T12:11:09.152Z</time></trkpt><trkpt lat="45.6807783" lon="11.5537867"><ele>89.0</ele><time>2026-03-28T12:11:10.152Z</time></trkpt><trkpt lat="45.6809183" lon="11.5537317"><ele>89.0</ele><time>2026-03-28T12:11:11.152Z</time></trkpt><trkpt lat="45.68106" lon="11.5536667"><ele>89.0</ele><time>2026-03-28T12:11:12.152Z</time></trkpt><trkpt lat="45.6811967" lon="11.5536033"><ele>89.0</ele><time>2026-03-28T12:11:13.152Z</time></trkpt><trkpt lat="45.6813267" lon="11.5535383"><ele>89.0</ele><time>2026-03-28T12:11:14.152Z</time></trkpt><trkpt lat="45.68145" lon="11.5534883"><ele>89.0</ele><time>2026-03-28T12:11:15.152Z</time></trkpt><trkpt lat="45.6815617" lon="11.553445"><ele>89.0</ele><time>2026-03-28T12:11:16.151Z</time></trkpt><trkpt lat="45.68166" lon="11.5534033"><ele>89.0</ele><time>2026-03-28T12:11:17.152Z</time></trkpt><trkpt lat="45.6817517" lon="11.553365"><ele>89.0</ele><time>2026-03-28T12:11:18.151Z</time></trkpt><trkpt lat="45.6818433" lon="11.5533167"><ele>89.0</ele><time>2026-03-28T12:11:19.152Z</time></trkpt><trkpt lat="45.6819283" lon="11.553275"><ele>89.0</ele><time>2026-03-28T12:11:20.152Z</time></trkpt><trkpt lat="45.6820183" lon="11.5532433"><ele>89.0</ele><time>2026-03-28T12:11:21.152Z</time></trkpt><trkpt lat="45.6821233" lon="11.5531917"><ele>89.0</ele><time>2026-03-28T12:11:22.152Z</time></trkpt><trkpt lat="45.6822433" lon="11.553135"><ele>89.0</ele><time>2026-03-28T12:11:23.152Z</time></trkpt><trkpt lat="45.6823683" lon="11.5530767"><ele>89.5</ele><time>2026-03-28T12:11:24.152Z</time></trkpt><trkpt lat="45.6824867" lon="11.5530233"><ele>90.0</ele><time>2026-03-28T12:11:25.152Z</time></trkpt><trkpt lat="45.682605" lon="11.5529717"><ele>90.5</ele><time>2026-03-28T12:11:26.152Z</time></trkpt><trkpt lat="45.682715" lon="11.5529217"><ele>91.0</ele><time>2026-03-28T12:11:27.152Z</time></trkpt><trkpt lat="45.68282" lon="11.5528733"><ele>91.33333333333333</ele><time>2026-03-28T12:11:28.152Z</time></trkpt><trkpt lat="45.6829167" lon="11.5528317"><ele>91.66666666666666</ele><time>2026-03-28T12:11:29.152Z</time></trkpt><trkpt lat="45.683005" lon="11.5527967"><ele>92.0</ele><time>2026-03-28T12:11:30.152Z</time></trkpt><trkpt lat="45.6830767" lon="11.5527717"><ele>92.33333333333333</ele><time>2026-03-28T12:11:31.152Z</time></trkpt><trkpt lat="45.6831433" lon="11.5527567"><ele>92.66666666666667</ele><time>2026-03-28T12:11:32.151Z</time></trkpt><trkpt lat="45.6832483" lon="11.5527483"><ele>93.0</ele><time>2026-03-28T12:11:34.152Z</time></trkpt><trkpt lat="45.6833217" lon="11.5527433"><ele>93.0</ele><time>2026-03-28T12:11:36.151Z</time></trkpt><trkpt lat="45.6833817" lon="11.5527917"><ele>93.0</ele><time>2026-03-28T12:11:38.152Z</time></trkpt><trkpt lat="45.6834533" lon="11.5528633"><ele>93.0</ele><time>2026-03-28T12:11:40.152Z</time></trkpt><trkpt lat="45.683515" lon="11.5529467"><ele>93.0</ele><time>2026-03-28T12:11:41.152Z</time></trkpt><trkpt lat="45.6835733" lon="11.5530333"><ele>93.0</ele><time>2026-03-28T12:11:42.151Z</time></trkpt><trkpt lat="45.6836317" lon="11.5531117"><ele>93.0</ele><time>2026-03-28T12:11:43.152Z</time></trkpt><trkpt lat="45.683685" lon="11.55317"><ele>92.25</ele><time>2026-03-28T12:11:44.152Z</time></trkpt><trkpt lat="45.6838" lon="11.5532217"><ele>91.5</ele><time>2026-03-28T12:11:46.151Z</time></trkpt><trkpt lat="45.6839267" lon="11.55319"><ele>90.75</ele><time>2026-03-28T12:11:48.151Z</time></trkpt><trkpt lat="45.684025" lon="11.5531183"><ele>90.0</ele><time>2026-03-28T12:11:49.152Z</time></trkpt><trkpt lat="45.6841383" lon="11.5530283"><ele>90.0</ele><time>2026-03-28T12:11:50.152Z</time></trkpt><trkpt lat="45.68427" lon="11.5529317"><ele>90.0</ele><time>2026-03-28T12:11:51.152Z</time></trkpt><trkpt lat="45.6843967" lon="11.552845"><ele>90.0</ele><time>2026-03-28T12:11:52.152Z</time></trkpt><trkpt lat="45.68453" lon="11.5527533"><ele>90.0</ele><time>2026-03-28T12:11:53.152Z</time></trkpt><trkpt lat="45.68467" lon="11.5526517"><ele>90.5</ele><time>2026-03-28T12:11:54.152Z</time></trkpt><trkpt lat="45.6848083" lon="11.5525533"><ele>91.0</ele><time>2026-03-28T12:11:55.152Z</time></trkpt><trkpt lat="45.6849467" lon="11.55246"><ele>91.5</ele><time>2026-03-28T12:11:56.151Z</time></trkpt><trkpt lat="45.6850717" lon="11.552375"><ele>92.0</ele><time>2026-03-28T12:11:57.152Z</time></trkpt><trkpt lat="45.685195" lon="11.552285"><ele>91.25</ele><time>2026-03-28T12:11:58.151Z</time></trkpt><trkpt lat="45.6853117" lon="11.5522033"><ele>90.5</ele><time>2026-03-28T12:11:59.152Z</time></trkpt><trkpt lat="45.6854217" lon="11.55213"><ele>89.75</ele><time>2026-03-28T12:12:00.152Z</time></trkpt><trkpt lat="45.6855283" lon="11.5520617"><ele>89.0</ele><time>2026-03-28T12:12:01.152Z</time></trkpt><trkpt lat="45.6856383" lon="11.5520033"><ele>90.25</ele><time>2026-03-28T12:12:02.152Z</time></trkpt><trkpt lat="45.6857683" lon="11.551955"><ele>91.5</ele><time>2026-03-28T12:12:03.151Z</time></trkpt><trkpt lat="45.6859017" lon="11.551895"><ele>92.75</ele><time>2026-03-28T12:12:04.152Z</time></trkpt><trkpt lat="45.6860433" lon="11.5518317"><ele>94.0</ele><time>2026-03-28T12:12:05.152Z</time></trkpt><trkpt lat="45.6861883" lon="11.5517667"><ele>94.0</ele><time>2026-03-28T12:12:06.152Z</time></trkpt><trkpt lat="45.6863333" lon="11.5517183"><ele>94.0</ele><time>2026-03-28T12:12:07.152Z</time></trkpt><trkpt lat="45.6864817" lon="11.5516417"><ele>94.0</ele><time>2026-03-28T12:12:08.151Z</time></trkpt><trkpt lat="45.6866333" lon="11.551575"><ele>94.0</ele><time>2026-03-28T12:12:09.151Z</time></trkpt><trkpt lat="45.686785" lon="11.5515083"><ele>94.0</ele><time>2026-03-28T12:12:10.152Z</time></trkpt><trkpt lat="45.6869317" lon="11.5514417"><ele>94.0</ele><time>2026-03-28T12:12:11.152Z</time></trkpt><trkpt lat="45.6870717" lon="11.5513733"><ele>93.75</ele><time>2026-03-28T12:12:12.152Z</time></trkpt><trkpt lat="45.6872" lon="11.5513033"><ele>93.5</ele><time>2026-03-28T12:12:13.152Z</time></trkpt><trkpt lat="45.687325" lon="11.551235"><ele>93.25</ele><time>2026-03-28T12:12:14.152Z</time></trkpt><trkpt lat="45.6874533" lon="11.55118"><ele>93.0</ele><time>2026-03-28T12:12:15.151Z</time></trkpt><trkpt lat="45.6875717" lon="11.55112"><ele>93.2</ele><time>2026-03-28T12:12:16.151Z</time></trkpt><trkpt lat="45.6876833" lon="11.5510733"><ele>93.4</ele><time>2026-03-28T12:12:17.152Z</time></trkpt><trkpt lat="45.6877833" lon="11.5510467"><ele>93.60000000000001</ele><time>2026-03-28T12:12:18.152Z</time></trkpt><trkpt lat="45.6878733" lon="11.5510283"><ele>93.80000000000001</ele><time>2026-03-28T12:12:19.151Z</time></trkpt><trkpt lat="45.687965" lon="11.55099"><ele>94.0</ele><time>2026-03-28T12:12:20.151Z</time></trkpt><trkpt lat="45.6880733" lon="11.550925"><ele>94.0</ele><time>2026-03-28T12:12:21.152Z</time></trkpt><trkpt lat="45.6881983" lon="11.5508683"><ele>94.0</ele><time>2026-03-28T12:12:22.151Z</time></trkpt><trkpt lat="45.6883383" lon="11.5508033"><ele>94.0</ele><time>2026-03-28T12:12:23.152Z</time></trkpt><trkpt lat="45.688495" lon="11.5507333"><ele>94.0</ele><time>2026-03-28T12:12:24.151Z</time></trkpt><trkpt lat="45.6886517" lon="11.5506483"><ele>94.33333333333333</ele><time>2026-03-28T12:12:25.152Z</time></trkpt><trkpt lat="45.6888167" lon="11.55055"><ele>94.66666666666667</ele><time>2026-03-28T12:12:26.152Z</time></trkpt><trkpt lat="45.6889767" lon="11.5504433"><ele>95.0</ele><time>2026-03-28T12:12:27.152Z</time></trkpt><trkpt lat="45.689125" lon="11.5503317"><ele>95.0</ele><time>2026-03-28T12:12:28.151Z</time></trkpt><trkpt lat="45.6892683" lon="11.5502333"><ele>95.0</ele><time>2026-03-28T12:12:29.152Z</time></trkpt><trkpt lat="45.6894117" lon="11.550135"><ele>95.0</ele><time>2026-03-28T12:12:30.152Z</time></trkpt><trkpt lat="45.68956" lon="11.5500383"><ele>96.0</ele><time>2026-03-28T12:12:31.152Z</time></trkpt><trkpt lat="45.68969" lon="11.5499417"><ele>97.0</ele><time>2026-03-28T12:12:32.152Z</time></trkpt><trkpt lat="45.6898317" lon="11.5498333"><ele>98.0</ele><time>2026-03-28T12:12:33.152Z</time></trkpt><trkpt lat="45.689985" lon="11.5497283"><ele>98.0</ele><time>2026-03-28T12:12:34.152Z</time></trkpt><trkpt lat="45.6901267" lon="11.5496383"><ele>98.0</ele><time>2026-03-28T12:12:35.152Z</time></trkpt><trkpt lat="45.6902683" lon="11.5495333"><ele>98.0</ele><time>2026-03-28T12:12:36.152Z</time></trkpt><trkpt lat="45.690405" lon="11.54944"><ele>98.75</ele><time>2026-03-28T12:12:37.151Z</time></trkpt><trkpt lat="45.690525" lon="11.5493483"><ele>99.5</ele><time>2026-03-28T12:12:38.151Z</time></trkpt><trkpt lat="45.6906383" lon="11.5492533"><ele>100.25</ele><time>2026-03-28T12:12:39.151Z</time></trkpt><trkpt lat="45.6907483" lon="11.54917"><ele>101.0</ele><time>2026-03-28T12:12:40.152Z</time></trkpt><trkpt lat="45.6908433" lon="11.5491"><ele>100.99999999999999</ele><time>2026-03-28T12:12:41.152Z</time></trkpt><trkpt lat="45.69091" lon="11.5490467"><ele>101.0</ele><time>2026-03-28T12:12:42.152Z</time></trkpt><trkpt lat="45.6909883" lon="11.54898"><ele>101.0</ele><time>2026-03-28T12:12:44.152Z</time></trkpt><trkpt lat="45.6909683" lon="11.5490783"><ele>101.0</ele><time>2026-03-28T12:12:51.152Z</time></trkpt><trkpt lat="45.690965" lon="11.5491917"><ele>100.99999999999999</ele><time>2026-03-28T12:12:54.151Z</time></trkpt><trkpt lat="45.6910033" lon="11.54932"><ele>101.0</ele><time>2026-03-28T12:12:56.152Z</time></trkpt><trkpt lat="45.6910267" lon="11.5494383"><ele>99.99999999999999</ele><time>2026-03-28T12:12:57.152Z</time></trkpt><trkpt lat="45.6910533" lon="11.5495433"><ele>99.0</ele><time>2026-03-28T12:12:58.152Z</time></trkpt><trkpt lat="45.69109" lon="11.5496383"><ele>98.0</ele><time>2026-03-28T12:12:59.152Z</time></trkpt><trkpt lat="45.6912017" lon="11.5496533"><ele>97.0</ele><time>2026-03-28T12:13:01.152Z</time></trkpt><trkpt lat="45.6912717" lon="11.5496433"><ele>96.0</ele><time>2026-03-28T12:13:02.152Z</time></trkpt><trkpt lat="45.6913533" lon="11.5496183"><ele>95.0</ele><time>2026-03-28T12:13:03.151Z</time></trkpt><trkpt lat="45.6914317" lon="11.549605"><ele>94.8</ele><time>2026-03-28T12:13:04.152Z</time></trkpt><trkpt lat="45.69152" lon="11.549585"><ele>94.6</ele><time>2026-03-28T12:13:05.151Z</time></trkpt><trkpt lat="45.6916217" lon="11.5495583"><ele>94.4</ele><time>2026-03-28T12:13:06.152Z</time></trkpt><trkpt lat="45.6917217" lon="11.54953"><ele>94.2</ele><time>2026-03-28T12:13:07.152Z</time></trkpt><trkpt lat="45.6918233" lon="11.5494983"><ele>94.0</ele><time>2026-03-28T12:13:08.152Z</time></trkpt><trkpt lat="45.691935" lon="11.5494683"><ele>95.25</ele><time>2026-03-28T12:13:09.152Z</time></trkpt><trkpt lat="45.6920467" lon="11.5494283"><ele>96.5</ele><time>2026-03-28T12:13:10.152Z</time></trkpt><trkpt lat="45.6921567" lon="11.54939"><ele>97.75</ele><time>2026-03-28T12:13:11.151Z</time></trkpt><trkpt lat="45.6922717" lon="11.54935"><ele>99.0</ele><time>2026-03-28T12:13:12.152Z</time></trkpt><trkpt lat="45.692385" lon="11.54931"><ele>99.0</ele><time>2026-03-28T12:13:13.152Z</time></trkpt><trkpt lat="45.692505" lon="11.5492583"><ele>99.0</ele><time>2026-03-28T12:13:14.151Z</time></trkpt><trkpt lat="45.69263" lon="11.54922"><ele>99.0</ele><time>2026-03-28T12:13:15.152Z</time></trkpt><trkpt lat="45.692765" lon="11.54918"><ele>99.0</ele><time>2026-03-28T12:13:16.151Z</time></trkpt><trkpt lat="45.6929" lon="11.5491467"><ele>98.75</ele><time>2026-03-28T12:13:17.152Z</time></trkpt><trkpt lat="45.693035" lon="11.54911"><ele>98.5</ele><time>2026-03-28T12:13:18.152Z</time></trkpt><trkpt lat="45.69317" lon="11.5490717"><ele>98.25</ele><time>2026-03-28T12:13:19.151Z</time></trkpt><trkpt lat="45.6933017" lon="11.5490383"><ele>98.0</ele><time>2026-03-28T12:13:20.152Z</time></trkpt><trkpt lat="45.69343" lon="11.549"><ele>98.0</ele><time>2026-03-28T12:13:21.152Z</time></trkpt><trkpt lat="45.693565" lon="11.54897"><ele>98.0</ele><time>2026-03-28T12:13:22.152Z</time></trkpt><trkpt lat="45.6937017" lon="11.548935"><ele>98.0</ele><time>2026-03-28T12:13:23.151Z</time></trkpt><trkpt lat="45.6938383" lon="11.5488883"><ele>98.0</ele><time>2026-03-28T12:13:24.152Z</time></trkpt><trkpt lat="45.6939667" lon="11.5488533"><ele>98.2</ele><time>2026-03-28T12:13:25.152Z</time></trkpt><trkpt lat="45.69408" lon="11.54882"><ele>98.4</ele><time>2026-03-28T12:13:26.152Z</time></trkpt><trkpt lat="45.6941833" lon="11.54879"><ele>98.60000000000001</ele><time>2026-03-28T12:13:27.152Z</time></trkpt><trkpt lat="45.6942833" lon="11.54876"><ele>98.80000000000001</ele><time>2026-03-28T12:13:28.152Z</time></trkpt><trkpt lat="45.69437" lon="11.5487267"><ele>99.0</ele><time>2026-03-28T12:13:29.152Z</time></trkpt><trkpt lat="45.6944417" lon="11.5486967"><ele>99.33333333333333</ele><time>2026-03-28T12:13:30.152Z</time></trkpt><trkpt lat="45.6945133" lon="11.5486683"><ele>99.66666666666666</ele><time>2026-03-28T12:13:31.152Z</time></trkpt><trkpt lat="45.6946267" lon="11.5486583"><ele>100.0</ele><time>2026-03-28T12:13:33.152Z</time></trkpt><trkpt lat="45.694705" lon="11.5486667"><ele>100.33333333333333</ele><time>2026-03-28T12:13:35.151Z</time></trkpt><trkpt lat="45.6947733" lon="11.548685"><ele>100.66666666666666</ele><time>2026-03-28T12:13:37.152Z</time></trkpt><trkpt lat="45.6948617" lon="11.548705"><ele>101.0</ele><time>2026-03-28T12:13:39.152Z</time></trkpt><trkpt lat="45.6949283" lon="11.548655"><ele>101.0</ele><time>2026-03-28T12:13:40.151Z</time></trkpt><trkpt lat="45.69499" lon="11.5486083"><ele>101.0</ele><time>2026-03-28T12:13:41.152Z</time></trkpt><trkpt lat="45.695095" lon="11.5485183"><ele>101.0</ele><time>2026-03-28T12:13:43.152Z</time></trkpt><trkpt lat="45.695145" lon="11.5484633"><ele>101.0</ele><time>2026-03-28T12:13:44.152Z</time></trkpt><trkpt lat="45.6952467" lon="11.5483333"><ele>101.0</ele><time>2026-03-28T12:13:46.151Z</time></trkpt><trkpt lat="45.6952933" lon="11.5482617"><ele>100.19999999999999</ele><time>2026-03-28T12:13:47.152Z</time></trkpt><trkpt lat="45.6953467" lon="11.5481883"><ele>99.39999999999999</ele><time>2026-03-28T12:13:48.152Z</time></trkpt><trkpt lat="45.6954133" lon="11.5481183"><ele>98.6</ele><time>2026-03-28T12:13:49.152Z</time></trkpt><trkpt lat="45.695495" lon="11.5480567"><ele>97.8</ele><time>2026-03-28T12:13:50.151Z</time></trkpt><trkpt lat="45.6956133" lon="11.548005"><ele>97.0</ele><time>2026-03-28T12:13:51.152Z</time></trkpt><trkpt lat="45.69576" lon="11.547945"><ele>97.0</ele><time>2026-03-28T12:13:52.151Z</time></trkpt><trkpt lat="45.6959117" lon="11.5478917"><ele>97.0</ele><time>2026-03-28T12:13:53.152Z</time></trkpt><trkpt lat="45.696055" lon="11.5478333"><ele>97.0</ele><time>2026-03-28T12:13:54.152Z</time></trkpt><trkpt lat="45.6962" lon="11.5477717"><ele>98.66666666666667</ele><time>2026-03-28T12:13:55.152Z</time></trkpt><trkpt lat="45.6963567" lon="11.547705"><ele>100.33333333333334</ele><time>2026-03-28T12:13:56.152Z</time></trkpt><trkpt lat="45.6965233" lon="11.5476317"><ele>102.0</ele><time>2026-03-28T12:13:57.152Z</time></trkpt><trkpt lat="45.69668" lon="11.5475633"><ele>102.0</ele><time>2026-03-28T12:13:58.152Z</time></trkpt><trkpt lat="45.6968483" lon="11.5474967"><ele>102.0</ele><time>2026-03-28T12:13:59.152Z</time></trkpt><trkpt lat="45.6970183" lon="11.5474317"><ele>102.0</ele><time>2026-03-28T12:14:00.152Z</time></trkpt><trkpt lat="45.69719" lon="11.547355"><ele>101.33333333333334</ele><time>2026-03-28T12:14:01.151Z</time></trkpt><trkpt lat="45.6973583" lon="11.5472833"><ele>100.66666666666667</ele><time>2026-03-28T12:14:02.152Z</time></trkpt><trkpt lat="45.6975317" lon="11.5472117"><ele>100.0</ele><time>2026-03-28T12:14:03.152Z</time></trkpt><trkpt lat="45.6977017" lon="11.54714"><ele>100.33333333333334</ele><time>2026-03-28T12:14:04.152Z</time></trkpt><trkpt lat="45.697885" lon="11.5470633"><ele>100.66666666666666</ele><time>2026-03-28T12:14:05.152Z</time></trkpt><trkpt lat="45.6980583" lon="11.5469933"><ele>101.0</ele><time>2026-03-28T12:14:06.151Z</time></trkpt><trkpt lat="45.6982333" lon="11.5469133"><ele>101.0</ele><time>2026-03-28T12:14:07.152Z</time></trkpt><trkpt lat="45.6984067" lon="11.54684"><ele>101.0</ele><time>2026-03-28T12:14:08.152Z</time></trkpt><trkpt lat="45.6985817" lon="11.5467667"><ele>101.0</ele><time>2026-03-28T12:14:09.152Z</time></trkpt><trkpt lat="45.698755" lon="11.5467033"><ele>101.0</ele><time>2026-03-28T12:14:10.152Z</time></trkpt><trkpt lat="45.6989133" lon="11.5466333"><ele>101.0</ele><time>2026-03-28T12:14:11.151Z</time></trkpt><trkpt lat="45.6990617" lon="11.5465683"><ele>101.0</ele><time>2026-03-28T12:14:12.152Z</time></trkpt><trkpt lat="45.6991917" lon="11.54651"><ele>101.0</ele><time>2026-03-28T12:14:13.152Z</time></trkpt><trkpt lat="45.6993167" lon="11.546455"><ele>101.0</ele><time>2026-03-28T12:14:14.152Z</time></trkpt><trkpt lat="45.6994383" lon="11.54641"><ele>101.0</ele><time>2026-03-28T12:14:15.152Z</time></trkpt><trkpt lat="45.699565" lon="11.5463617"><ele>101.0</ele><time>2026-03-28T12:14:16.152Z</time></trkpt><trkpt lat="45.6996933" lon="11.54631"><ele>100.75</ele><time>2026-03-28T12:14:17.152Z</time></trkpt><trkpt lat="45.69983" lon="11.5462617"><ele>100.5</ele><time>2026-03-28T12:14:18.152Z</time></trkpt><trkpt lat="45.69996" lon="11.5461983"><ele>100.25</ele><time>2026-03-28T12:14:19.152Z</time></trkpt><trkpt lat="45.7000933" lon="11.5461267"><ele>100.0</ele><time>2026-03-28T12:14:20.152Z</time></trkpt><trkpt lat="45.7002267" lon="11.54607"><ele>101.5</ele><time>2026-03-28T12:14:21.152Z</time></trkpt><trkpt lat="45.70035" lon="11.546015"><ele>103.0</ele><time>2026-03-28T12:14:22.152Z</time></trkpt><trkpt lat="45.700475" lon="11.5459567"><ele>104.5</ele><time>2026-03-28T12:14:23.152Z</time></trkpt><trkpt lat="45.7006117" lon="11.5459033"><ele>106.0</ele><time>2026-03-28T12:14:24.152Z</time></trkpt><trkpt lat="45.7007683" lon="11.5458433"><ele>106.0</ele><time>2026-03-28T12:14:25.152Z</time></trkpt><trkpt lat="45.70092" lon="11.545775"><ele>106.0</ele><time>2026-03-28T12:14:26.152Z</time></trkpt><trkpt lat="45.7010783" lon="11.5457167"><ele>106.0</ele><time>2026-03-28T12:14:27.152Z</time></trkpt><trkpt lat="45.7012317" lon="11.545655"><ele>105.33333333333334</ele><time>2026-03-28T12:14:28.152Z</time></trkpt><trkpt lat="45.70138" lon="11.545595"><ele>104.66666666666666</ele><time>2026-03-28T12:14:29.151Z</time></trkpt><trkpt lat="45.7015283" lon="11.545535"><ele>104.0</ele><time>2026-03-28T12:14:30.152Z</time></trkpt><trkpt lat="45.7016683" lon="11.5454833"><ele>104.0</ele><time>2026-03-28T12:14:31.152Z</time></trkpt><trkpt lat="45.7018117" lon="11.5454317"><ele>104.0</ele><time>2026-03-28T12:14:32.152Z</time></trkpt><trkpt lat="45.7019633" lon="11.5453733"><ele>104.0</ele><time>2026-03-28T12:14:33.152Z</time></trkpt><trkpt lat="45.7021067" lon="11.5453217"><ele>104.25</ele><time>2026-03-28T12:14:34.152Z</time></trkpt><trkpt lat="45.7022433" lon="11.5452667"><ele>104.5</ele><time>2026-03-28T12:14:35.151Z</time></trkpt><trkpt lat="45.7023867" lon="11.545205"><ele>104.75</ele><time>2026-03-28T12:14:36.152Z</time></trkpt><trkpt lat="45.70253" lon="11.545145"><ele>105.0</ele><time>2026-03-28T12:14:37.151Z</time></trkpt><trkpt lat="45.70267" lon="11.545085"><ele>105.25</ele><time>2026-03-28T12:14:38.152Z</time></trkpt><trkpt lat="45.7028083" lon="11.5450367"><ele>105.5</ele><time>2026-03-28T12:14:39.151Z</time></trkpt><trkpt lat="45.7029283" lon="11.544995"><ele>105.75</ele><time>2026-03-28T12:14:40.152Z</time></trkpt><trkpt lat="45.70304" lon="11.5449483"><ele>106.0</ele><time>2026-03-28T12:14:41.151Z</time></trkpt><trkpt lat="45.7031533" lon="11.5448983"><ele>106.0</ele><time>2026-03-28T12:14:42.152Z</time></trkpt><trkpt lat="45.7032583" lon="11.54485"><ele>106.0</ele><time>2026-03-28T12:14:43.151Z</time></trkpt><trkpt lat="45.703355" lon="11.544815"><ele>106.0</ele><time>2026-03-28T12:14:44.152Z</time></trkpt><trkpt lat="45.70344" lon="11.5447783"><ele>106.0</ele><time>2026-03-28T12:14:45.152Z</time></trkpt><trkpt lat="45.7035117" lon="11.54474"><ele>106.0</ele><time>2026-03-28T12:14:46.152Z</time></trkpt><trkpt lat="45.7036117" lon="11.5446533"><ele>105.8</ele><time>2026-03-28T12:14:48.151Z</time></trkpt><trkpt lat="45.703705" lon="11.54456"><ele>105.6</ele><time>2026-03-28T12:14:50.152Z</time></trkpt><trkpt lat="45.7037783" lon="11.54452"><ele>105.4</ele><time>2026-03-28T12:14:51.152Z</time></trkpt><trkpt lat="45.7038683" lon="11.5444667"><ele>105.2</ele><time>2026-03-28T12:14:52.152Z</time></trkpt><trkpt lat="45.7039717" lon="11.5444033"><ele>105.0</ele><time>2026-03-28T12:14:53.152Z</time></trkpt><trkpt lat="45.7040733" lon="11.544335"><ele>105.5</ele><time>2026-03-28T12:14:54.152Z</time></trkpt><trkpt lat="45.7041833" lon="11.544265"><ele>106.0</ele><time>2026-03-28T12:14:55.152Z</time></trkpt><trkpt lat="45.7042967" lon="11.54419"><ele>106.5</ele><time>2026-03-28T12:14:56.151Z</time></trkpt><trkpt lat="45.704415" lon="11.54411"><ele>107.0</ele><time>2026-03-28T12:14:57.152Z</time></trkpt><trkpt lat="45.7045317" lon="11.5440283"><ele>107.0</ele><time>2026-03-28T12:14:58.151Z</time></trkpt><trkpt lat="45.7046467" lon="11.5439367"><ele>107.0</ele><time>2026-03-28T12:14:59.151Z</time></trkpt><trkpt lat="45.7047617" lon="11.5438583"><ele>107.0</ele><time>2026-03-28T12:15:00.15Z</time></trkpt><trkpt lat="45.7048667" lon="11.543785"><ele>107.0</ele><time>2026-03-28T12:15:01.151Z</time></trkpt><trkpt lat="45.7049567" lon="11.5437133"><ele>107.83333333333333</ele><time>2026-03-28T12:15:02.15Z</time></trkpt><trkpt lat="45.7050217" lon="11.543635"><ele>108.66666666666666</ele><time>2026-03-28T12:15:03.151Z</time></trkpt><trkpt lat="45.705075" lon="11.543495"><ele>109.5</ele><time>2026-03-28T12:15:05.151Z</time></trkpt><trkpt lat="45.7050833" lon="11.5433733"><ele>110.33333333333334</ele><time>2026-03-28T12:15:07.151Z</time></trkpt><trkpt lat="45.7050567" lon="11.5432883"><ele>111.16666666666667</ele><time>2026-03-28T12:15:08.151Z</time></trkpt><trkpt lat="45.70503" lon="11.543195"><ele>112.0</ele><time>2026-03-28T12:15:09.151Z</time></trkpt><trkpt lat="45.7049783" lon="11.54311"><ele>112.0</ele><time>2026-03-28T12:15:12.151Z</time></trkpt><trkpt lat="45.705035" lon="11.54322"><ele>112.0</ele><time>2026-03-28T12:15:20.15Z</time></trkpt><trkpt lat="45.7050783" lon="11.5433483"><ele>112.0</ele><time>2026-03-28T12:15:21.151Z</time></trkpt><trkpt lat="45.7051283" lon="11.5435"><ele>112.0</ele><time>2026-03-28T12:15:22.151Z</time></trkpt><trkpt lat="45.7052017" lon="11.5437083"><ele>110.75</ele><time>2026-03-28T12:15:23.151Z</time></trkpt><trkpt lat="45.7052717" lon="11.5439"><ele>109.5</ele><time>2026-03-28T12:15:24.15Z</time></trkpt><trkpt lat="45.70534" lon="11.5440767"><ele>108.25</ele><time>2026-03-28T12:15:25.151Z</time></trkpt><trkpt lat="45.7054" lon="11.5442367"><ele>107.0</ele><time>2026-03-28T12:15:26.15Z</time></trkpt><trkpt lat="45.7054583" lon="11.544385"><ele>107.0</ele><time>2026-03-28T12:15:27.15Z</time></trkpt><trkpt lat="45.7055167" lon="11.54452"><ele>106.99999999999999</ele><time>2026-03-28T12:15:28.151Z</time></trkpt><trkpt lat="45.7055667" lon="11.5446483"><ele>106.99999999999999</ele><time>2026-03-28T12:15:29.151Z</time></trkpt><trkpt lat="45.70561" lon="11.544765"><ele>107.0</ele><time>2026-03-28T12:15:30.151Z</time></trkpt><trkpt lat="45.7056567" lon="11.5448783"><ele>107.0</ele><time>2026-03-28T12:15:31.15Z</time></trkpt><trkpt lat="45.7057" lon="11.5449933"><ele>107.6</ele><time>2026-03-28T12:15:32.151Z</time></trkpt><trkpt lat="45.7057417" lon="11.5451017"><ele>108.19999999999999</ele><time>2026-03-28T12:15:33.151Z</time></trkpt><trkpt lat="45.705785" lon="11.545195"><ele>108.8</ele><time>2026-03-28T12:15:34.15Z</time></trkpt><trkpt lat="45.7058283" lon="11.54528"><ele>109.4</ele><time>2026-03-28T12:15:35.151Z</time></trkpt><trkpt lat="45.7059317" lon="11.5453467"><ele>110.0</ele><time>2026-03-28T12:15:37.151Z</time></trkpt><trkpt lat="45.7060517" lon="11.54534"><ele>110.49999999999999</ele><time>2026-03-28T12:15:39.151Z</time></trkpt><trkpt lat="45.70613" lon="11.5453033"><ele>111.0</ele><time>2026-03-28T12:15:40.151Z</time></trkpt><trkpt lat="45.7062183" lon="11.5452383"><ele>111.5</ele><time>2026-03-28T12:15:41.151Z</time></trkpt><trkpt lat="45.7063" lon="11.5451683"><ele>112.0</ele><time>2026-03-28T12:15:42.151Z</time></trkpt><trkpt lat="45.7063733" lon="11.5451267"><ele>112.49999999999999</ele><time>2026-03-28T12:15:43.151Z</time></trkpt><trkpt lat="45.7064417" lon="11.5451067"><ele>113.0</ele><time>2026-03-28T12:15:44.15Z</time></trkpt><trkpt lat="45.7065067" lon="11.5450983"><ele>113.0</ele><time>2026-03-28T12:15:45.151Z</time></trkpt><trkpt lat="45.7066133" lon="11.54505"><ele>113.00000000000001</ele><time>2026-03-28T12:15:47.15Z</time></trkpt><trkpt lat="45.7066633" lon="11.5449817"><ele>113.00000000000001</ele><time>2026-03-28T12:15:48.151Z</time></trkpt><trkpt lat="45.70671" lon="11.5449033"><ele>113.0</ele><time>2026-03-28T12:15:49.15Z</time></trkpt><trkpt lat="45.706795" lon="11.5447933"><ele>113.0</ele><time>2026-03-28T12:15:51.151Z</time></trkpt><trkpt lat="45.7068767" lon="11.5447233"><ele>113.0</ele><time>2026-03-28T12:15:53.151Z</time></trkpt><trkpt lat="45.70694" lon="11.5446867"><ele>113.00000000000001</ele><time>2026-03-28T12:15:55.151Z</time></trkpt><trkpt lat="45.7070267" lon="11.5445917"><ele>113.00000000000001</ele><time>2026-03-28T12:15:57.151Z</time></trkpt><trkpt lat="45.7070967" lon="11.54451"><ele>113.0</ele><time>2026-03-28T12:15:58.151Z</time></trkpt><trkpt lat="45.7071833" lon="11.5443883"><ele>113.0</ele><time>2026-03-28T12:15:59.151Z</time></trkpt><trkpt lat="45.7072567" lon="11.5442733"><ele>112.99999999999999</ele><time>2026-03-28T12:16:00.151Z</time></trkpt><trkpt lat="45.7073217" lon="11.54416"><ele>113.0</ele><time>2026-03-28T12:16:01.151Z</time></trkpt><trkpt lat="45.7073783" lon="11.544035"><ele>113.0</ele><time>2026-03-28T12:16:02.151Z</time></trkpt><trkpt lat="45.7074217" lon="11.543935"><ele>113.0</ele><time>2026-03-28T12:16:03.151Z</time></trkpt><trkpt lat="45.7074567" lon="11.5438533"><ele>112.99999999999999</ele><time>2026-03-28T12:16:04.151Z</time></trkpt><trkpt lat="45.7075133" lon="11.5437667"><ele>113.0</ele><time>2026-03-28T12:16:06.151Z</time></trkpt><trkpt lat="45.7076117" lon="11.5437583"><ele>112.99999999999999</ele><time>2026-03-28T12:16:55.151Z</time></trkpt><trkpt lat="45.7075433" lon="11.5438367"><ele>113.0</ele><time>2026-03-28T12:17:56.151Z</time></trkpt><trkpt lat="45.7075557" lon="11.54374"><ele>113.0</ele><time>2026-03-28T12:20:36.151Z</time></trkpt><trkpt lat="45.7076089" lon="11.5436827"><ele>113.0</ele><time>2026-03-28T12:20:40.19Z</time></trkpt><trkpt lat="45.7077107" lon="11.5436747"><ele>112.99999999999999</ele><time>2026-03-28T12:20:41.252Z</time></trkpt><trkpt lat="45.7077635" lon="11.5436076"><ele>113.0</ele><time>2026-03-28T12:20:42.236Z</time></trkpt><trkpt lat="45.7078642" lon="11.5435682"><ele>113.2</ele><time>2026-03-28T12:20:44.17Z</time></trkpt><trkpt lat="45.7079433" lon="11.5435235"><ele>113.4</ele><time>2026-03-28T12:20:45.231Z</time></trkpt><trkpt lat="45.7080266" lon="11.5434522"><ele>113.60000000000001</ele><time>2026-03-28T12:20:46.151Z</time></trkpt><trkpt lat="45.7081004" lon="11.5434046"><ele>113.80000000000001</ele><time>2026-03-28T12:20:47.15Z</time></trkpt><trkpt lat="45.7081733" lon="11.54336"><ele>114.0</ele><time>2026-03-28T12:20:48.15Z</time></trkpt><trkpt lat="45.7082883" lon="11.5432883"><ele>114.0</ele><time>2026-03-28T12:20:50.151Z</time></trkpt><trkpt lat="45.7083533" lon="11.5432583"><ele>113.99999999999999</ele><time>2026-03-28T12:20:51.151Z</time></trkpt><trkpt lat="45.7084217" lon="11.5432233"><ele>114.0</ele><time>2026-03-28T12:20:52.151Z</time></trkpt><trkpt lat="45.7084883" lon="11.5431867"><ele>114.0</ele><time>2026-03-28T12:20:53.151Z</time></trkpt><trkpt lat="45.708555" lon="11.543145"><ele>113.99999999999999</ele><time>2026-03-28T12:20:54.151Z</time></trkpt><trkpt lat="45.7086167" lon="11.5431033"><ele>114.0</ele><time>2026-03-28T12:20:55.151Z</time></trkpt><trkpt lat="45.7086783" lon="11.5430633"><ele>114.0</ele><time>2026-03-28T12:20:56.151Z</time></trkpt><trkpt lat="45.708785" lon="11.5429983"><ele>114.0</ele><time>2026-03-28T12:20:58.151Z</time></trkpt><trkpt lat="45.7088817" lon="11.54293"><ele>114.0</ele><time>2026-03-28T12:21:00.151Z</time></trkpt><trkpt lat="45.70899" lon="11.542885"><ele>114.0</ele><time>2026-03-28T12:21:02.151Z</time></trkpt><trkpt lat="45.70911" lon="11.5428383"><ele>114.0</ele><time>2026-03-28T12:21:04.151Z</time></trkpt><trkpt lat="45.7091767" lon="11.542805"><ele>114.0</ele><time>2026-03-28T12:21:05.151Z</time></trkpt><trkpt lat="45.7092567" lon="11.542775"><ele>113.80000000000001</ele><time>2026-03-28T12:21:06.151Z</time></trkpt><trkpt lat="45.7093483" lon="11.54275"><ele>113.60000000000001</ele><time>2026-03-28T12:21:07.151Z</time></trkpt><trkpt lat="45.7094517" lon="11.5427117"><ele>113.4</ele><time>2026-03-28T12:21:08.151Z</time></trkpt><trkpt lat="45.709565" lon="11.54269"><ele>113.2</ele><time>2026-03-28T12:21:09.151Z</time></trkpt><trkpt lat="45.709675" lon="11.542675"><ele>113.0</ele><time>2026-03-28T12:21:10.151Z</time></trkpt><trkpt lat="45.7098017" lon="11.542645"><ele>113.0</ele><time>2026-03-28T12:21:11.151Z</time></trkpt><trkpt lat="45.7099267" lon="11.54263"><ele>113.0</ele><time>2026-03-28T12:21:12.151Z</time></trkpt><trkpt lat="45.7100417" lon="11.5426167"><ele>113.0</ele><time>2026-03-28T12:21:13.15Z</time></trkpt><trkpt lat="45.7101467" lon="11.5425983"><ele>113.0</ele><time>2026-03-28T12:21:14.15Z</time></trkpt><trkpt lat="45.71026" lon="11.5425783"><ele>113.5</ele><time>2026-03-28T12:21:15.151Z</time></trkpt><trkpt lat="45.71037" lon="11.542565"><ele>114.0</ele><time>2026-03-28T12:21:16.151Z</time></trkpt><trkpt lat="45.7104817" lon="11.5425333"><ele>114.5</ele><time>2026-03-28T12:21:17.151Z</time></trkpt><trkpt lat="45.7105983" lon="11.542495"><ele>115.0</ele><time>2026-03-28T12:21:18.151Z</time></trkpt><trkpt lat="45.710715" lon="11.5424617"><ele>115.0</ele><time>2026-03-28T12:21:19.151Z</time></trkpt><trkpt lat="45.7108283" lon="11.5424433"><ele>115.0</ele><time>2026-03-28T12:21:20.15Z</time></trkpt><trkpt lat="45.71094" lon="11.5424333"><ele>115.0</ele><time>2026-03-28T12:21:21.151Z</time></trkpt><trkpt lat="45.7110517" lon="11.54243"><ele>115.0</ele><time>2026-03-28T12:21:22.15Z</time></trkpt><trkpt lat="45.71116" lon="11.5424167"><ele>115.0</ele><time>2026-03-28T12:21:23.15Z</time></trkpt><trkpt lat="45.7112683" lon="11.5423867"><ele>115.0</ele><time>2026-03-28T12:21:24.151Z</time></trkpt><trkpt lat="45.71138" lon="11.5423517"><ele>115.0</ele><time>2026-03-28T12:21:25.15Z</time></trkpt><trkpt lat="45.7114917" lon="11.5423133"><ele>115.0</ele><time>2026-03-28T12:21:26.151Z</time></trkpt><trkpt lat="45.7116033" lon="11.5422867"><ele>115.0</ele><time>2026-03-28T12:21:27.151Z</time></trkpt><trkpt lat="45.7117133" lon="11.54226"><ele>115.0</ele><time>2026-03-28T12:21:28.15Z</time></trkpt><trkpt lat="45.7118217" lon="11.5422317"><ele>115.0</ele><time>2026-03-28T12:21:29.151Z</time></trkpt><trkpt lat="45.71193" lon="11.5421983"><ele>115.0</ele><time>2026-03-28T12:21:30.15Z</time></trkpt><trkpt lat="45.712045" lon="11.5421533"><ele>115.0</ele><time>2026-03-28T12:21:31.151Z</time></trkpt><trkpt lat="45.7121583" lon="11.54211"><ele>115.2</ele><time>2026-03-28T12:21:32.15Z</time></trkpt><trkpt lat="45.71227" lon="11.5420717"><ele>115.4</ele><time>2026-03-28T12:21:33.151Z</time></trkpt><trkpt lat="45.7123683" lon="11.5420433"><ele>115.6</ele><time>2026-03-28T12:21:34.151Z</time></trkpt><trkpt lat="45.7124583" lon="11.5420183"><ele>115.8</ele><time>2026-03-28T12:21:35.151Z</time></trkpt><trkpt lat="45.7125317" lon="11.5419933"><ele>116.0</ele><time>2026-03-28T12:21:36.151Z</time></trkpt><trkpt lat="45.7126" lon="11.5419683"><ele>116.0</ele><time>2026-03-28T12:21:37.151Z</time></trkpt><trkpt lat="45.7126617" lon="11.5419417"><ele>116.0</ele><time>2026-03-28T12:21:38.151Z</time></trkpt><trkpt lat="45.71275" lon="11.5419117"><ele>116.0</ele><time>2026-03-28T12:21:39.151Z</time></trkpt><trkpt lat="45.7128367" lon="11.5418817"><ele>116.0</ele><time>2026-03-28T12:21:40.15Z</time></trkpt><trkpt lat="45.71293" lon="11.54185"><ele>116.0</ele><time>2026-03-28T12:21:41.151Z</time></trkpt><trkpt lat="45.7130517" lon="11.5418083"><ele>115.5</ele><time>2026-03-28T12:21:42.15Z</time></trkpt><trkpt lat="45.7131717" lon="11.5417633"><ele>115.0</ele><time>2026-03-28T12:21:43.151Z</time></trkpt><trkpt lat="45.7133033" lon="11.54172"><ele>114.5</ele><time>2026-03-28T12:21:44.151Z</time></trkpt><trkpt lat="45.71343" lon="11.5417"><ele>114.0</ele><time>2026-03-28T12:21:45.15Z</time></trkpt><trkpt lat="45.71355" lon="11.5416983"><ele>114.0</ele><time>2026-03-28T12:21:46.151Z</time></trkpt><trkpt lat="45.7136733" lon="11.5417083"><ele>114.0</ele><time>2026-03-28T12:21:47.151Z</time></trkpt><trkpt lat="45.7137883" lon="11.5417167"><ele>114.0</ele><time>2026-03-28T12:21:48.151Z</time></trkpt><trkpt lat="45.7139033" lon="11.5417083"><ele>114.0</ele><time>2026-03-28T12:21:49.151Z</time></trkpt><trkpt lat="45.7140183" lon="11.54168"><ele>114.0</ele><time>2026-03-28T12:21:50.151Z</time></trkpt><trkpt lat="45.7141317" lon="11.5416617"><ele>114.0</ele><time>2026-03-28T12:21:51.151Z</time></trkpt><trkpt lat="45.7142317" lon="11.541635"><ele>114.0</ele><time>2026-03-28T12:21:52.15Z</time></trkpt><trkpt lat="45.714345" lon="11.5416167"><ele>114.0</ele><time>2026-03-28T12:21:53.15Z</time></trkpt><trkpt lat="45.71446" lon="11.5416067"><ele>114.0</ele><time>2026-03-28T12:21:54.151Z</time></trkpt><trkpt lat="45.71457" lon="11.54159"><ele>114.2</ele><time>2026-03-28T12:21:55.15Z</time></trkpt><trkpt lat="45.7146783" lon="11.5415733"><ele>114.4</ele><time>2026-03-28T12:21:56.151Z</time></trkpt><trkpt lat="45.7147767" lon="11.5415517"><ele>114.6</ele><time>2026-03-28T12:21:57.151Z</time></trkpt><trkpt lat="45.7148767" lon="11.5415317"><ele>114.8</ele><time>2026-03-28T12:21:58.151Z</time></trkpt><trkpt lat="45.71498" lon="11.5415067"><ele>115.0</ele><time>2026-03-28T12:21:59.151Z</time></trkpt><trkpt lat="45.7150867" lon="11.5414883"><ele>115.0</ele><time>2026-03-28T12:22:00.15Z</time></trkpt><trkpt lat="45.7152017" lon="11.54148"><ele>115.0</ele><time>2026-03-28T12:22:01.151Z</time></trkpt><trkpt lat="45.7153233" lon="11.541485"><ele>115.0</ele><time>2026-03-28T12:22:02.15Z</time></trkpt><trkpt lat="45.7154417" lon="11.541495"><ele>115.0</ele><time>2026-03-28T12:22:03.15Z</time></trkpt><trkpt lat="45.7155533" lon="11.541495"><ele>115.0</ele><time>2026-03-28T12:22:04.151Z</time></trkpt><trkpt lat="45.7156633" lon="11.5414783"><ele>115.0</ele><time>2026-03-28T12:22:05.151Z</time></trkpt><trkpt lat="45.7157683" lon="11.541455"><ele>115.0</ele><time>2026-03-28T12:22:06.151Z</time></trkpt><trkpt lat="45.7158667" lon="11.541435"><ele>115.0</ele><time>2026-03-28T12:22:07.15Z</time></trkpt><trkpt lat="45.7159617" lon="11.5414283"><ele>115.0</ele><time>2026-03-28T12:22:08.151Z</time></trkpt><trkpt lat="45.7160617" lon="11.5414117"><ele>115.4</ele><time>2026-03-28T12:22:09.151Z</time></trkpt><trkpt lat="45.7161617" lon="11.5413817"><ele>115.8</ele><time>2026-03-28T12:22:10.151Z</time></trkpt><trkpt lat="45.716265" lon="11.5413517"><ele>116.19999999999999</ele><time>2026-03-28T12:22:11.151Z</time></trkpt><trkpt lat="45.7163717" lon="11.54132"><ele>116.6</ele><time>2026-03-28T12:22:12.151Z</time></trkpt><trkpt lat="45.71648" lon="11.5412933"><ele>117.0</ele><time>2026-03-28T12:22:13.151Z</time></trkpt><trkpt lat="45.7165917" lon="11.5412617"><ele>117.0</ele><time>2026-03-28T12:22:14.151Z</time></trkpt><trkpt lat="45.7167033" lon="11.5412483"><ele>116.99999999999999</ele><time>2026-03-28T12:22:15.15Z</time></trkpt><trkpt lat="45.7168133" lon="11.5412333"><ele>116.99999999999999</ele><time>2026-03-28T12:22:16.151Z</time></trkpt><trkpt lat="45.7169167" lon="11.541225"><ele>117.0</ele><time>2026-03-28T12:22:17.151Z</time></trkpt><trkpt lat="45.7170133" lon="11.5411967"><ele>117.0</ele><time>2026-03-28T12:22:18.15Z</time></trkpt><trkpt lat="45.7171017" lon="11.5411683"><ele>116.39999999999999</ele><time>2026-03-28T12:22:19.151Z</time></trkpt><trkpt lat="45.717205" lon="11.54115"><ele>115.79999999999998</ele><time>2026-03-28T12:22:20.151Z</time></trkpt><trkpt lat="45.7173" lon="11.5411317"><ele>115.2</ele><time>2026-03-28T12:22:21.151Z</time></trkpt><trkpt lat="45.7173783" lon="11.541115"><ele>114.6</ele><time>2026-03-28T12:22:22.151Z</time></trkpt><trkpt lat="45.7174633" lon="11.5411017"><ele>114.0</ele><time>2026-03-28T12:22:23.151Z</time></trkpt><trkpt lat="45.7175583" lon="11.54108"><ele>114.0</ele><time>2026-03-28T12:22:24.151Z</time></trkpt><trkpt lat="45.7176467" lon="11.54104"><ele>114.0</ele><time>2026-03-28T12:22:25.151Z</time></trkpt><trkpt lat="45.7177267" lon="11.541005"><ele>114.0</ele><time>2026-03-28T12:22:26.151Z</time></trkpt><trkpt lat="45.7178133" lon="11.540975"><ele>114.0</ele><time>2026-03-28T12:22:27.15Z</time></trkpt><trkpt lat="45.7179" lon="11.540955"><ele>114.0</ele><time>2026-03-28T12:22:28.15Z</time></trkpt><trkpt lat="45.7179917" lon="11.5409383"><ele>114.0</ele><time>2026-03-28T12:22:29.15Z</time></trkpt><trkpt lat="45.718075" lon="11.54092"><ele>114.5</ele><time>2026-03-28T12:22:30.151Z</time></trkpt><trkpt lat="45.7181417" lon="11.5409017"><ele>115.0</ele><time>2026-03-28T12:22:31.151Z</time></trkpt><trkpt lat="45.7182567" lon="11.5409183"><ele>115.5</ele><time>2026-03-28T12:22:33.151Z</time></trkpt><trkpt lat="45.718315" lon="11.5409567"><ele>116.0</ele><time>2026-03-28T12:22:34.151Z</time></trkpt><trkpt lat="45.7183717" lon="11.54102"><ele>116.5</ele><time>2026-03-28T12:22:35.151Z</time></trkpt><trkpt lat="45.718435" lon="11.5411117"><ele>117.0</ele><time>2026-03-28T12:22:36.15Z</time></trkpt><trkpt lat="45.7185067" lon="11.541215"><ele>117.8</ele><time>2026-03-28T12:22:37.15Z</time></trkpt><trkpt lat="45.7185733" lon="11.5412967"><ele>118.6</ele><time>2026-03-28T12:22:38.15Z</time></trkpt><trkpt lat="45.7186467" lon="11.54136"><ele>119.39999999999999</ele><time>2026-03-28T12:22:39.151Z</time></trkpt><trkpt lat="45.718745" lon="11.5413583"><ele>120.19999999999999</ele><time>2026-03-28T12:22:40.15Z</time></trkpt><trkpt lat="45.7188517" lon="11.5413167"><ele>121.0</ele><time>2026-03-28T12:22:41.151Z</time></trkpt><trkpt lat="45.7189667" lon="11.5412633"><ele>121.0</ele><time>2026-03-28T12:22:42.151Z</time></trkpt><trkpt lat="45.7190817" lon="11.54121"><ele>121.0</ele><time>2026-03-28T12:22:43.15Z</time></trkpt><trkpt lat="45.7192017" lon="11.5411517"><ele>121.0</ele><time>2026-03-28T12:22:44.151Z</time></trkpt><trkpt lat="45.719325" lon="11.5410967"><ele>121.0</ele><time>2026-03-28T12:22:45.151Z</time></trkpt><trkpt lat="45.7194483" lon="11.5410467"><ele>121.0</ele><time>2026-03-28T12:22:46.151Z</time></trkpt><trkpt lat="45.719575" lon="11.541"><ele>121.0</ele><time>2026-03-28T12:22:47.151Z</time></trkpt><trkpt lat="45.719705" lon="11.54096"><ele>121.0</ele><time>2026-03-28T12:22:48.151Z</time></trkpt><trkpt lat="45.7198083" lon="11.5409033"><ele>121.0</ele><time>2026-03-28T12:22:49.151Z</time></trkpt><trkpt lat="45.7199017" lon="11.5408267"><ele>121.00000000000001</ele><time>2026-03-28T12:22:50.151Z</time></trkpt><trkpt lat="45.7199783" lon="11.54075"><ele>121.0</ele><time>2026-03-28T12:22:51.151Z</time></trkpt><trkpt lat="45.720045" lon="11.5406933"><ele>121.0</ele><time>2026-03-28T12:22:52.151Z</time></trkpt><trkpt lat="45.720105" lon="11.5406617"><ele>121.0</ele><time>2026-03-28T12:22:53.15Z</time></trkpt><trkpt lat="45.720185" lon="11.5407017"><ele>121.00000000000001</ele><time>2026-03-28T12:22:55.15Z</time></trkpt><trkpt lat="45.720195" lon="11.5408567"><ele>121.0</ele><time>2026-03-28T12:22:56.151Z</time></trkpt><trkpt lat="45.7201983" lon="11.5410383"><ele>121.6</ele><time>2026-03-28T12:22:57.151Z</time></trkpt><trkpt lat="45.7202183" lon="11.5412267"><ele>122.19999999999999</ele><time>2026-03-28T12:22:58.15Z</time></trkpt><trkpt lat="45.7202367" lon="11.5413967"><ele>122.80000000000001</ele><time>2026-03-28T12:22:59.151Z</time></trkpt><trkpt lat="45.7202533" lon="11.54154"><ele>123.4</ele><time>2026-03-28T12:23:00.151Z</time></trkpt><trkpt lat="45.7202717" lon="11.5416583"><ele>124.0</ele><time>2026-03-28T12:23:01.151Z</time></trkpt><trkpt lat="45.7202983" lon="11.5417967"><ele>124.0</ele><time>2026-03-28T12:23:03.151Z</time></trkpt><trkpt lat="45.7203283" lon="11.5419083"><ele>124.0</ele><time>2026-03-28T12:23:07.151Z</time></trkpt><trkpt lat="45.72035" lon="11.5420617"><ele>124.0</ele><time>2026-03-28T12:23:09.151Z</time></trkpt><trkpt lat="45.7203733" lon="11.5421667"><ele>124.0</ele><time>2026-03-28T12:23:10.15Z</time></trkpt><trkpt lat="45.7204033" lon="11.5422867"><ele>124.0</ele><time>2026-03-28T12:23:11.15Z</time></trkpt><trkpt lat="45.720435" lon="11.54242"><ele>124.25</ele><time>2026-03-28T12:23:12.15Z</time></trkpt><trkpt lat="45.720465" lon="11.542575"><ele>124.5</ele><time>2026-03-28T12:23:13.151Z</time></trkpt><trkpt lat="45.7204783" lon="11.5427317"><ele>124.75</ele><time>2026-03-28T12:23:14.151Z</time></trkpt><trkpt lat="45.7204833" lon="11.5428983"><ele>125.0</ele><time>2026-03-28T12:23:15.151Z</time></trkpt><trkpt lat="45.7204867" lon="11.543065"><ele>126.99999999999999</ele><time>2026-03-28T12:23:16.151Z</time></trkpt><trkpt lat="45.720485" lon="11.54322"><ele>129.0</ele><time>2026-03-28T12:23:17.151Z</time></trkpt><trkpt lat="45.7204717" lon="11.5433533"><ele>131.0</ele><time>2026-03-28T12:23:18.151Z</time></trkpt><trkpt lat="45.7204583" lon="11.5434567"><ele>133.0</ele><time>2026-03-28T12:23:19.151Z</time></trkpt><trkpt lat="45.7204283" lon="11.543545"><ele>135.0</ele><time>2026-03-28T12:23:20.15Z</time></trkpt><trkpt lat="45.7203533" lon="11.543605"><ele>137.0</ele><time>2026-03-28T12:23:21.151Z</time></trkpt><trkpt lat="45.7202633" lon="11.5436867"><ele>139.5</ele><time>2026-03-28T12:23:22.15Z</time></trkpt><trkpt lat="45.7201633" lon="11.543785"><ele>142.0</ele><time>2026-03-28T12:23:23.151Z</time></trkpt><trkpt lat="45.72005" lon="11.5438767"><ele>144.5</ele><time>2026-03-28T12:23:24.151Z</time></trkpt><trkpt lat="45.71992" lon="11.54397"><ele>147.0</ele><time>2026-03-28T12:23:25.15Z</time></trkpt><trkpt lat="45.7198033" lon="11.5440417"><ele>147.0</ele><time>2026-03-28T12:23:26.15Z</time></trkpt><trkpt lat="45.719705" lon="11.54411"><ele>147.0</ele><time>2026-03-28T12:23:27.151Z</time></trkpt><trkpt lat="45.719635" lon="11.5442067"><ele>147.0</ele><time>2026-03-28T12:23:28.15Z</time></trkpt><trkpt lat="45.7196017" lon="11.5443233"><ele>147.0</ele><time>2026-03-28T12:23:29.15Z</time></trkpt><trkpt lat="45.7195983" lon="11.54447"><ele>147.0</ele><time>2026-03-28T12:23:30.15Z</time></trkpt><trkpt lat="45.7195933" lon="11.5446217"><ele>148.79999999999998</ele><time>2026-03-28T12:23:31.151Z</time></trkpt><trkpt lat="45.7195917" lon="11.5447767"><ele>150.6</ele><time>2026-03-28T12:23:32.15Z</time></trkpt><trkpt lat="45.7195883" lon="11.54493"><ele>152.39999999999998</ele><time>2026-03-28T12:23:33.15Z</time></trkpt><trkpt lat="45.71957" lon="11.54507"><ele>154.2</ele><time>2026-03-28T12:23:34.151Z</time></trkpt><trkpt lat="45.719545" lon="11.5451883"><ele>156.0</ele><time>2026-03-28T12:23:35.151Z</time></trkpt><trkpt lat="45.7195117" lon="11.5452833"><ele>156.0</ele><time>2026-03-28T12:23:36.151Z</time></trkpt><trkpt lat="45.7194567" lon="11.54533"><ele>156.0</ele><time>2026-03-28T12:23:38.151Z</time></trkpt><trkpt lat="45.7193883" lon="11.5453033"><ele>156.0</ele><time>2026-03-28T12:23:39.151Z</time></trkpt><trkpt lat="45.7193083" lon="11.5452633"><ele>156.0</ele><time>2026-03-28T12:23:40.15Z</time></trkpt><trkpt lat="45.7192583" lon="11.5451967"><ele>156.0</ele><time>2026-03-28T12:23:41.151Z</time></trkpt><trkpt lat="45.7192033" lon="11.5451417"><ele>156.0</ele><time>2026-03-28T12:23:43.151Z</time></trkpt><trkpt lat="45.7192233" lon="11.5452533"><ele>156.0</ele><time>2026-03-28T12:23:47.15Z</time></trkpt><trkpt lat="45.7192617" lon="11.5453767"><ele>158.0</ele><time>2026-03-28T12:23:48.151Z</time></trkpt><trkpt lat="45.719285" lon="11.5455033"><ele>160.0</ele><time>2026-03-28T12:23:49.151Z</time></trkpt><trkpt lat="45.71931" lon="11.54561"><ele>162.0</ele><time>2026-03-28T12:23:50.151Z</time></trkpt><trkpt lat="45.7193817" lon="11.545765"><ele>164.0</ele><time>2026-03-28T12:23:52.15Z</time></trkpt><trkpt lat="45.7194583" lon="11.5457733"><ele>166.0</ele><time>2026-03-28T12:23:53.151Z</time></trkpt><trkpt lat="45.7195533" lon="11.54576"><ele>166.25</ele><time>2026-03-28T12:23:54.151Z</time></trkpt><trkpt lat="45.719665" lon="11.54576"><ele>166.5</ele><time>2026-03-28T12:23:55.151Z</time></trkpt><trkpt lat="45.7197817" lon="11.5457617"><ele>166.75</ele><time>2026-03-28T12:23:56.15Z</time></trkpt><trkpt lat="45.7198917" lon="11.545745"><ele>167.0</ele><time>2026-03-28T12:23:57.151Z</time></trkpt><trkpt lat="45.7200017" lon="11.5457283"><ele>167.0</ele><time>2026-03-28T12:23:58.15Z</time></trkpt><trkpt lat="45.7201017" lon="11.5457033"><ele>167.0</ele><time>2026-03-28T12:23:59.15Z</time></trkpt><trkpt lat="45.7202033" lon="11.54566"><ele>167.0</ele><time>2026-03-28T12:24:00.151Z</time></trkpt><trkpt lat="45.7203" lon="11.5456133"><ele>167.0</ele><time>2026-03-28T12:24:01.151Z</time></trkpt><trkpt lat="45.7203917" lon="11.5455717"><ele>167.0</ele><time>2026-03-28T12:24:02.15Z</time></trkpt><trkpt lat="45.7204783" lon="11.54553"><ele>167.83333333333331</ele><time>2026-03-28T12:24:03.15Z</time></trkpt><trkpt lat="45.720555" lon="11.5455017"><ele>168.66666666666666</ele><time>2026-03-28T12:24:04.151Z</time></trkpt><trkpt lat="45.720615" lon="11.54547"><ele>169.5</ele><time>2026-03-28T12:24:05.151Z</time></trkpt><trkpt lat="45.7207133" lon="11.5454283"><ele>170.33333333333334</ele><time>2026-03-28T12:24:07.151Z</time></trkpt><trkpt lat="45.72079" lon="11.54539"><ele>171.16666666666669</ele><time>2026-03-28T12:24:09.15Z</time></trkpt><trkpt lat="45.7208917" lon="11.545355"><ele>172.0</ele><time>2026-03-28T12:24:11.151Z</time></trkpt><trkpt lat="45.7209617" lon="11.5453417"><ele>170.0</ele><time>2026-03-28T12:24:12.151Z</time></trkpt><trkpt lat="45.7210483" lon="11.545355"><ele>168.0</ele><time>2026-03-28T12:24:13.151Z</time></trkpt><trkpt lat="45.7211483" lon="11.545385"><ele>166.0</ele><time>2026-03-28T12:24:14.151Z</time></trkpt><trkpt lat="45.7212333" lon="11.5454"><ele>164.0</ele><time>2026-03-28T12:24:15.15Z</time></trkpt><trkpt lat="45.7213283" lon="11.545435"><ele>162.0</ele><time>2026-03-28T12:24:16.151Z</time></trkpt><trkpt lat="45.721405" lon="11.5454467"><ele>162.0</ele><time>2026-03-28T12:24:17.15Z</time></trkpt><trkpt lat="45.7214817" lon="11.54546"><ele>162.0</ele><time>2026-03-28T12:24:18.15Z</time></trkpt><trkpt lat="45.7215533" lon="11.5454783"><ele>162.0</ele><time>2026-03-28T12:24:19.151Z</time></trkpt><trkpt lat="45.7216167" lon="11.5454867"><ele>162.0</ele><time>2026-03-28T12:24:20.151Z</time></trkpt><trkpt lat="45.721685" lon="11.545495"><ele>162.0</ele><time>2026-03-28T12:24:21.151Z</time></trkpt><trkpt lat="45.7217833" lon="11.5455683"><ele>162.0</ele><time>2026-03-28T12:24:23.15Z</time></trkpt><trkpt lat="45.721815" lon="11.5457417"><ele>162.0</ele><time>2026-03-28T12:24:25.151Z</time></trkpt><trkpt lat="45.7218367" lon="11.5458383"><ele>162.0</ele><time>2026-03-28T12:24:26.151Z</time></trkpt><trkpt lat="45.72187" lon="11.5459217"><ele>162.0</ele><time>2026-03-28T12:24:27.151Z</time></trkpt><trkpt lat="45.7219117" lon="11.5460083"><ele>162.0</ele><time>2026-03-28T12:24:28.151Z</time></trkpt><trkpt lat="45.7219683" lon="11.546085"><ele>162.0</ele><time>2026-03-28T12:24:29.15Z</time></trkpt><trkpt lat="45.7220217" lon="11.5461533"><ele>162.0</ele><time>2026-03-28T12:24:30.15Z</time></trkpt><trkpt lat="45.7220733" lon="11.5462333"><ele>162.0</ele><time>2026-03-28T12:24:31.15Z</time></trkpt><trkpt lat="45.7221483" lon="11.5463117"><ele>161.6</ele><time>2026-03-28T12:24:33.151Z</time></trkpt><trkpt lat="45.7222183" lon="11.5462733"><ele>161.2</ele><time>2026-03-28T12:24:35.15Z</time></trkpt><trkpt lat="45.72228" lon="11.5462167"><ele>160.8</ele><time>2026-03-28T12:24:36.151Z</time></trkpt><trkpt lat="45.72237" lon="11.5461367"><ele>160.4</ele><time>2026-03-28T12:24:37.15Z</time></trkpt><trkpt lat="45.7224783" lon="11.5460517"><ele>160.0</ele><time>2026-03-28T12:24:38.15Z</time></trkpt><trkpt lat="45.7226033" lon="11.546"><ele>160.0</ele><time>2026-03-28T12:24:39.151Z</time></trkpt><trkpt lat="45.7227217" lon="11.5459567"><ele>160.0</ele><time>2026-03-28T12:24:40.151Z</time></trkpt><trkpt lat="45.7228383" lon="11.5459383"><ele>160.0</ele><time>2026-03-28T12:24:41.15Z</time></trkpt><trkpt lat="45.7229433" lon="11.54593"><ele>160.0</ele><time>2026-03-28T12:24:42.151Z</time></trkpt><trkpt lat="45.7230533" lon="11.5459183"><ele>160.2</ele><time>2026-03-28T12:24:43.151Z</time></trkpt><trkpt lat="45.7231733" lon="11.5459"><ele>160.4</ele><time>2026-03-28T12:24:44.151Z</time></trkpt><trkpt lat="45.7232867" lon="11.5459"><ele>160.60000000000002</ele><time>2026-03-28T12:24:45.151Z</time></trkpt><trkpt lat="45.7233883" lon="11.5459017"><ele>160.8</ele><time>2026-03-28T12:24:46.151Z</time></trkpt><trkpt lat="45.7234933" lon="11.5459183"><ele>161.0</ele><time>2026-03-28T12:24:47.151Z</time></trkpt><trkpt lat="45.7235983" lon="11.5459483"><ele>160.0</ele><time>2026-03-28T12:24:48.15Z</time></trkpt><trkpt lat="45.723695" lon="11.5459683"><ele>159.0</ele><time>2026-03-28T12:24:49.15Z</time></trkpt><trkpt lat="45.7237933" lon="11.54602"><ele>158.0</ele><time>2026-03-28T12:24:50.151Z</time></trkpt><trkpt lat="45.7239117" lon="11.5460917"><ele>157.0</ele><time>2026-03-28T12:24:51.151Z</time></trkpt><trkpt lat="45.7240083" lon="11.5461467"><ele>156.0</ele><time>2026-03-28T12:24:52.151Z</time></trkpt><trkpt lat="45.7241033" lon="11.5461933"><ele>157.0</ele><time>2026-03-28T12:24:53.15Z</time></trkpt><trkpt lat="45.724195" lon="11.5462417"><ele>158.0</ele><time>2026-03-28T12:24:54.151Z</time></trkpt><trkpt lat="45.724285" lon="11.546275"><ele>159.0</ele><time>2026-03-28T12:24:55.151Z</time></trkpt><trkpt lat="45.7243733" lon="11.546315"><ele>160.0</ele><time>2026-03-28T12:24:56.15Z</time></trkpt><trkpt lat="45.72446" lon="11.546345"><ele>161.0</ele><time>2026-03-28T12:24:57.15Z</time></trkpt><trkpt lat="45.7245333" lon="11.54638"><ele>161.0</ele><time>2026-03-28T12:24:58.15Z</time></trkpt><trkpt lat="45.7246167" lon="11.5464233"><ele>161.0</ele><time>2026-03-28T12:24:59.151Z</time></trkpt><trkpt lat="45.7247017" lon="11.546455"><ele>161.0</ele><time>2026-03-28T12:25:00.151Z</time></trkpt><trkpt lat="45.7248" lon="11.5464733"><ele>161.0</ele><time>2026-03-28T12:25:01.151Z</time></trkpt><trkpt lat="45.724925" lon="11.5465267"><ele>161.0</ele><time>2026-03-28T12:25:02.151Z</time></trkpt><trkpt lat="45.7250517" lon="11.5465083"><ele>161.0</ele><time>2026-03-28T12:25:03.151Z</time></trkpt><trkpt lat="45.72519" lon="11.546485"><ele>161.0</ele><time>2026-03-28T12:25:04.151Z</time></trkpt><trkpt lat="45.72533" lon="11.5464633"><ele>161.0</ele><time>2026-03-28T12:25:05.151Z</time></trkpt><trkpt lat="45.7254717" lon="11.5464483"><ele>161.0</ele><time>2026-03-28T12:25:06.151Z</time></trkpt><trkpt lat="45.725615" lon="11.54643"><ele>161.0</ele><time>2026-03-28T12:25:07.151Z</time></trkpt><trkpt lat="45.72575" lon="11.546415"><ele>161.0</ele><time>2026-03-28T12:25:08.151Z</time></trkpt><trkpt lat="45.725875" lon="11.5464033"><ele>161.0</ele><time>2026-03-28T12:25:09.151Z</time></trkpt><trkpt lat="45.7259933" lon="11.5464167"><ele>161.0</ele><time>2026-03-28T12:25:10.151Z</time></trkpt><trkpt lat="45.726105" lon="11.5464517"><ele>160.0</ele><time>2026-03-28T12:25:11.151Z</time></trkpt><trkpt lat="45.7262033" lon="11.546525"><ele>159.0</ele><time>2026-03-28T12:25:12.151Z</time></trkpt><trkpt lat="45.7262717" lon="11.5466133"><ele>158.0</ele><time>2026-03-28T12:25:13.15Z</time></trkpt><trkpt lat="45.7263117" lon="11.546725"><ele>157.0</ele><time>2026-03-28T12:25:14.151Z</time></trkpt><trkpt lat="45.7263433" lon="11.5468433"><ele>156.0</ele><time>2026-03-28T12:25:15.151Z</time></trkpt><trkpt lat="45.726375" lon="11.5469733"><ele>158.4</ele><time>2026-03-28T12:25:16.151Z</time></trkpt><trkpt lat="45.7264083" lon="11.5471183"><ele>160.8</ele><time>2026-03-28T12:25:17.151Z</time></trkpt><trkpt lat="45.7264267" lon="11.547265"><ele>163.20000000000002</ele><time>2026-03-28T12:25:18.151Z</time></trkpt><trkpt lat="45.7264367" lon="11.5474167"><ele>165.6</ele><time>2026-03-28T12:25:19.151Z</time></trkpt><trkpt lat="45.7264467" lon="11.547565"><ele>168.0</ele><time>2026-03-28T12:25:20.151Z</time></trkpt><trkpt lat="45.7264633" lon="11.5477117"><ele>168.0</ele><time>2026-03-28T12:25:21.151Z</time></trkpt><trkpt lat="45.7264883" lon="11.5478667"><ele>168.0</ele><time>2026-03-28T12:25:22.151Z</time></trkpt><trkpt lat="45.7265117" lon="11.547995"><ele>168.0</ele><time>2026-03-28T12:25:23.151Z</time></trkpt><trkpt lat="45.7265433" lon="11.5481267"><ele>168.0</ele><time>2026-03-28T12:25:24.151Z</time></trkpt><trkpt lat="45.726565" lon="11.54827"><ele>168.0</ele><time>2026-03-28T12:25:25.15Z</time></trkpt><trkpt lat="45.7265967" lon="11.5484033"><ele>169.5</ele><time>2026-03-28T12:25:26.151Z</time></trkpt><trkpt lat="45.7266283" lon="11.5485133"><ele>171.0</ele><time>2026-03-28T12:25:27.151Z</time></trkpt><trkpt lat="45.7266533" lon="11.5486167"><ele>172.5</ele><time>2026-03-28T12:25:28.15Z</time></trkpt><trkpt lat="45.7266783" lon="11.548715"><ele>174.0</ele><time>2026-03-28T12:25:29.15Z</time></trkpt><trkpt lat="45.726715" lon="11.5488133"><ele>175.5</ele><time>2026-03-28T12:25:30.151Z</time></trkpt><trkpt lat="45.726755" lon="11.5488917"><ele>177.0</ele><time>2026-03-28T12:25:31.151Z</time></trkpt><trkpt lat="45.726805" lon="11.54901"><ele>178.0</ele><time>2026-03-28T12:25:33.151Z</time></trkpt><trkpt lat="45.7267683" lon="11.5491233"><ele>179.0</ele><time>2026-03-28T12:25:35.151Z</time></trkpt><trkpt lat="45.7266483" lon="11.5492267"><ele>180.0</ele><time>2026-03-28T12:25:37.151Z</time></trkpt><trkpt lat="45.7265783" lon="11.5492983"><ele>181.0</ele><time>2026-03-28T12:25:38.15Z</time></trkpt><trkpt lat="45.7265067" lon="11.54937"><ele>182.0</ele><time>2026-03-28T12:25:39.15Z</time></trkpt><trkpt lat="45.72644" lon="11.5494367"><ele>182.0</ele><time>2026-03-28T12:25:40.151Z</time></trkpt><trkpt lat="45.7263817" lon="11.54949"><ele>182.0</ele><time>2026-03-28T12:25:41.151Z</time></trkpt><trkpt lat="45.7262933" lon="11.5495417"><ele>182.0</ele><time>2026-03-28T12:25:43.151Z</time></trkpt><trkpt lat="45.7262483" lon="11.5496083"><ele>182.0</ele><time>2026-03-28T12:25:45.15Z</time></trkpt><trkpt lat="45.7262467" lon="11.5497517"><ele>182.0</ele><time>2026-03-28T12:25:47.151Z</time></trkpt><trkpt lat="45.726265" lon="11.549845"><ele>182.0</ele><time>2026-03-28T12:25:48.15Z</time></trkpt><trkpt lat="45.7262883" lon="11.5499433"><ele>182.0</ele><time>2026-03-28T12:25:49.151Z</time></trkpt><trkpt lat="45.7263117" lon="11.5500333"><ele>182.0</ele><time>2026-03-28T12:25:50.151Z</time></trkpt><trkpt lat="45.72632" lon="11.5501283"><ele>182.0</ele><time>2026-03-28T12:25:51.151Z</time></trkpt><trkpt lat="45.7263017" lon="11.55022"><ele>182.0</ele><time>2026-03-28T12:25:52.151Z</time></trkpt><trkpt lat="45.7262583" lon="11.5503183"><ele>182.0</ele><time>2026-03-28T12:25:53.151Z</time></trkpt><trkpt lat="45.72621" lon="11.5504133"><ele>182.0</ele><time>2026-03-28T12:25:54.151Z</time></trkpt><trkpt lat="45.7261617" lon="11.5505083"><ele>182.0</ele><time>2026-03-28T12:25:55.15Z</time></trkpt><trkpt lat="45.7261433" lon="11.5506033"><ele>181.33333333333331</ele><time>2026-03-28T12:25:56.151Z</time></trkpt><trkpt lat="45.726145" lon="11.55071"><ele>180.66666666666666</ele><time>2026-03-28T12:25:57.151Z</time></trkpt><trkpt lat="45.72615" lon="11.5508233"><ele>180.0</ele><time>2026-03-28T12:25:58.151Z</time></trkpt><trkpt lat="45.72617" lon="11.5509267"><ele>179.33333333333334</ele><time>2026-03-28T12:25:59.151Z</time></trkpt><trkpt lat="45.72619" lon="11.5510167"><ele>178.66666666666669</ele><time>2026-03-28T12:26:00.151Z</time></trkpt><trkpt lat="45.7262383" lon="11.5511717"><ele>178.0</ele><time>2026-03-28T12:26:02.151Z</time></trkpt><trkpt lat="45.7262733" lon="11.55132"><ele>175.2</ele><time>2026-03-28T12:26:04.151Z</time></trkpt><trkpt lat="45.72629" lon="11.5514083"><ele>172.4</ele><time>2026-03-28T12:26:05.15Z</time></trkpt><trkpt lat="45.7263033" lon="11.5515067"><ele>169.6</ele><time>2026-03-28T12:26:06.151Z</time></trkpt><trkpt lat="45.7263133" lon="11.5516033"><ele>166.79999999999998</ele><time>2026-03-28T12:26:07.15Z</time></trkpt><trkpt lat="45.7262983" lon="11.5517717"><ele>164.0</ele><time>2026-03-28T12:26:09.151Z</time></trkpt><trkpt lat="45.7262333" lon="11.55194"><ele>164.0</ele><time>2026-03-28T12:26:11.15Z</time></trkpt><trkpt lat="45.726185" lon="11.552005"><ele>164.0</ele><time>2026-03-28T12:26:12.151Z</time></trkpt><trkpt lat="45.7261317" lon="11.5520717"><ele>164.0</ele><time>2026-03-28T12:26:13.15Z</time></trkpt><trkpt lat="45.7260667" lon="11.55213"><ele>164.0</ele><time>2026-03-28T12:26:14.151Z</time></trkpt><trkpt lat="45.7259667" lon="11.5521783"><ele>164.0</ele><time>2026-03-28T12:26:15.15Z</time></trkpt><trkpt lat="45.7258817" lon="11.5522083"><ele>164.0</ele><time>2026-03-28T12:26:16.151Z</time></trkpt><trkpt lat="45.7257833" lon="11.552235"><ele>160.0</ele><time>2026-03-28T12:26:17.151Z</time></trkpt><trkpt lat="45.725675" lon="11.5522567"><ele>156.0</ele><time>2026-03-28T12:26:18.15Z</time></trkpt><trkpt lat="45.7255617" lon="11.55227"><ele>152.0</ele><time>2026-03-28T12:26:19.151Z</time></trkpt><trkpt lat="45.72545" lon="11.55229"><ele>148.0</ele><time>2026-03-28T12:26:20.151Z</time></trkpt><trkpt lat="45.7253167" lon="11.55229"><ele>148.5</ele><time>2026-03-28T12:26:21.151Z</time></trkpt><trkpt lat="45.7251867" lon="11.5522983"><ele>149.0</ele><time>2026-03-28T12:26:22.151Z</time></trkpt><trkpt lat="45.7250667" lon="11.5523067"><ele>149.5</ele><time>2026-03-28T12:26:23.151Z</time></trkpt><trkpt lat="45.7249567" lon="11.55231"><ele>150.0</ele><time>2026-03-28T12:26:24.151Z</time></trkpt><trkpt lat="45.724845" lon="11.5523117"><ele>150.0</ele><time>2026-03-28T12:26:25.15Z</time></trkpt><trkpt lat="45.7247583" lon="11.552325"><ele>150.0</ele><time>2026-03-28T12:26:26.151Z</time></trkpt><trkpt lat="45.7246833" lon="11.5523467"><ele>150.0</ele><time>2026-03-28T12:26:27.151Z</time></trkpt><trkpt lat="45.7246217" lon="11.5523767"><ele>150.0</ele><time>2026-03-28T12:26:28.15Z</time></trkpt><trkpt lat="45.7245333" lon="11.5524317"><ele>150.0</ele><time>2026-03-28T12:26:29.151Z</time></trkpt><trkpt lat="45.724455" lon="11.5524967"><ele>150.0</ele><time>2026-03-28T12:26:30.151Z</time></trkpt><trkpt lat="45.72437" lon="11.5525767"><ele>148.2</ele><time>2026-03-28T12:26:31.15Z</time></trkpt><trkpt lat="45.72429" lon="11.5526617"><ele>146.4</ele><time>2026-03-28T12:26:32.151Z</time></trkpt><trkpt lat="45.7242183" lon="11.552745"><ele>144.6</ele><time>2026-03-28T12:26:33.151Z</time></trkpt><trkpt lat="45.7241417" lon="11.55283"><ele>142.8</ele><time>2026-03-28T12:26:34.151Z</time></trkpt><trkpt lat="45.7240667" lon="11.55291"><ele>141.0</ele><time>2026-03-28T12:26:35.151Z</time></trkpt><trkpt lat="45.7239883" lon="11.5529833"><ele>141.0</ele><time>2026-03-28T12:26:36.15Z</time></trkpt><trkpt lat="45.7239133" lon="11.5530517"><ele>141.0</ele><time>2026-03-28T12:26:37.151Z</time></trkpt><trkpt lat="45.7238383" lon="11.5531067"><ele>141.0</ele><time>2026-03-28T12:26:38.15Z</time></trkpt><trkpt lat="45.7237717" lon="11.5531517"><ele>141.0</ele><time>2026-03-28T12:26:39.151Z</time></trkpt><trkpt lat="45.723715" lon="11.5532"><ele>141.0</ele><time>2026-03-28T12:26:40.151Z</time></trkpt><trkpt lat="45.7236267" lon="11.553255"><ele>141.0</ele><time>2026-03-28T12:26:42.151Z</time></trkpt><trkpt lat="45.72355" lon="11.553265"><ele>141.0</ele><time>2026-03-28T12:26:45.151Z</time></trkpt><trkpt lat="45.72349" lon="11.5533033"><ele>141.0</ele><time>2026-03-28T12:27:00.151Z</time></trkpt><trkpt lat="45.7234167" lon="11.5533367"><ele>141.0</ele><time>2026-03-28T12:27:16.151Z</time></trkpt><trkpt lat="45.7233317" lon="11.55329"><ele>141.0</ele><time>2026-03-28T12:27:17.151Z</time></trkpt><trkpt lat="45.7233967" lon="11.5533"><ele>141.0</ele><time>2026-03-28T12:27:35.151Z</time></trkpt><trkpt lat="45.7234567" lon="11.5533283"><ele>141.0</ele><time>2026-03-28T12:27:37.151Z</time></trkpt><trkpt lat="45.7235267" lon="11.553365"><ele>141.0</ele><time>2026-03-28T12:27:39.151Z</time></trkpt><trkpt lat="45.7236017" lon="11.5534033"><ele>141.0</ele><time>2026-03-28T12:27:41.151Z</time></trkpt><trkpt lat="45.72367" lon="11.5534433"><ele>141.0</ele><time>2026-03-28T12:27:42.15Z</time></trkpt><trkpt lat="45.723735" lon="11.5534933"><ele>141.0</ele><time>2026-03-28T12:27:43.151Z</time></trkpt><trkpt lat="45.7238033" lon="11.5535483"><ele>141.0</ele><time>2026-03-28T12:27:44.15Z</time></trkpt><trkpt lat="45.7238667" lon="11.5536183"><ele>141.0</ele><time>2026-03-28T12:27:45.151Z</time></trkpt><trkpt lat="45.7239417" lon="11.553715"><ele>141.0</ele><time>2026-03-28T12:27:46.151Z</time></trkpt><trkpt lat="45.7240333" lon="11.5538083"><ele>140.8</ele><time>2026-03-28T12:27:47.151Z</time></trkpt><trkpt lat="45.7241233" lon="11.5538883"><ele>140.6</ele><time>2026-03-28T12:27:48.151Z</time></trkpt><trkpt lat="45.72421" lon="11.55396"><ele>140.4</ele><time>2026-03-28T12:27:49.151Z</time></trkpt><trkpt lat="45.7242967" lon="11.5540283"><ele>140.2</ele><time>2026-03-28T12:27:50.151Z</time></trkpt><trkpt lat="45.7243833" lon="11.5540867"><ele>140.0</ele><time>2026-03-28T12:27:51.151Z</time></trkpt><trkpt lat="45.72447" lon="11.554135"><ele>140.0</ele><time>2026-03-28T12:27:52.15Z</time></trkpt><trkpt lat="45.724565" lon="11.554195"><ele>140.0</ele><time>2026-03-28T12:27:53.151Z</time></trkpt><trkpt lat="45.7246633" lon="11.5542517"><ele>140.0</ele><time>2026-03-28T12:27:54.151Z</time></trkpt><trkpt lat="45.7247617" lon="11.5543033"><ele>140.0</ele><time>2026-03-28T12:27:55.151Z</time></trkpt><trkpt lat="45.7248617" lon="11.55436"><ele>140.0</ele><time>2026-03-28T12:27:56.15Z</time></trkpt><trkpt lat="45.72496" lon="11.5544083"><ele>140.0</ele><time>2026-03-28T12:27:57.151Z</time></trkpt><trkpt lat="45.7250483" lon="11.554465"><ele>140.0</ele><time>2026-03-28T12:27:58.151Z</time></trkpt><trkpt lat="45.7251183" lon="11.5545283"><ele>140.0</ele><time>2026-03-28T12:27:59.151Z</time></trkpt><trkpt lat="45.7251683" lon="11.5546017"><ele>140.0</ele><time>2026-03-28T12:28:00.151Z</time></trkpt><trkpt lat="45.7252067" lon="11.5546833"><ele>140.0</ele><time>2026-03-28T12:28:01.151Z</time></trkpt><trkpt lat="45.7252933" lon="11.5548117"><ele>140.0</ele><time>2026-03-28T12:28:03.15Z</time></trkpt><trkpt lat="45.72536" lon="11.5548533"><ele>140.0</ele><time>2026-03-28T12:28:04.151Z</time></trkpt><trkpt lat="45.7254483" lon="11.554875"><ele>140.0</ele><time>2026-03-28T12:28:05.15Z</time></trkpt><trkpt lat="45.725565" lon="11.5549033"><ele>140.0</ele><time>2026-03-28T12:28:06.15Z</time></trkpt><trkpt lat="45.7256633" lon="11.5549317"><ele>140.0</ele><time>2026-03-28T12:28:07.151Z</time></trkpt><trkpt lat="45.7257617" lon="11.554945"><ele>140.0</ele><time>2026-03-28T12:28:08.151Z</time></trkpt><trkpt lat="45.7258683" lon="11.554955"><ele>140.0</ele><time>2026-03-28T12:28:09.15Z</time></trkpt><trkpt lat="45.7259783" lon="11.554945"><ele>140.0</ele><time>2026-03-28T12:28:10.151Z</time></trkpt><trkpt lat="45.7260833" lon="11.5549167"><ele>140.0</ele><time>2026-03-28T12:28:11.151Z</time></trkpt><trkpt lat="45.72619" lon="11.554865"><ele>140.0</ele><time>2026-03-28T12:28:12.151Z</time></trkpt><trkpt lat="45.7262967" lon="11.5547983"><ele>140.0</ele><time>2026-03-28T12:28:13.151Z</time></trkpt><trkpt lat="45.72641" lon="11.55473"><ele>140.8</ele><time>2026-03-28T12:28:14.151Z</time></trkpt><trkpt lat="45.7265133" lon="11.55466"><ele>141.6</ele><time>2026-03-28T12:28:15.151Z</time></trkpt><trkpt lat="45.7266033" lon="11.5546"><ele>142.4</ele><time>2026-03-28T12:28:16.151Z</time></trkpt><trkpt lat="45.7266817" lon="11.5545383"><ele>143.2</ele><time>2026-03-28T12:28:17.151Z</time></trkpt><trkpt lat="45.7267717" lon="11.5544767"><ele>144.0</ele><time>2026-03-28T12:28:18.151Z</time></trkpt><trkpt lat="45.7268733" lon="11.5544333"><ele>144.0</ele><time>2026-03-28T12:28:19.151Z</time></trkpt><trkpt lat="45.7269817" lon="11.5544083"><ele>144.0</ele><time>2026-03-28T12:28:20.151Z</time></trkpt><trkpt lat="45.7271" lon="11.55439"><ele>144.0</ele><time>2026-03-28T12:28:21.151Z</time></trkpt><trkpt lat="45.7272167" lon="11.55437"><ele>144.0</ele><time>2026-03-28T12:28:22.151Z</time></trkpt><trkpt lat="45.7273417" lon="11.5543433"><ele>144.0</ele><time>2026-03-28T12:28:23.151Z</time></trkpt><trkpt lat="45.7274717" lon="11.55431"><ele>144.0</ele><time>2026-03-28T12:28:24.151Z</time></trkpt><trkpt lat="45.72761" lon="11.5542767"><ele>144.0</ele><time>2026-03-28T12:28:25.151Z</time></trkpt><trkpt lat="45.7277583" lon="11.5542367"><ele>144.0</ele><time>2026-03-28T12:28:26.15Z</time></trkpt><trkpt lat="45.7279083" lon="11.554195"><ele>144.25</ele><time>2026-03-28T12:28:27.15Z</time></trkpt><trkpt lat="45.728055" lon="11.5541733"><ele>144.5</ele><time>2026-03-28T12:28:28.151Z</time></trkpt><trkpt lat="45.7281917" lon="11.55416"><ele>144.75</ele><time>2026-03-28T12:28:29.151Z</time></trkpt><trkpt lat="45.728325" lon="11.5541567"><ele>145.0</ele><time>2026-03-28T12:28:30.15Z</time></trkpt><trkpt lat="45.7284583" lon="11.55415"><ele>145.5</ele><time>2026-03-28T12:28:31.151Z</time></trkpt><trkpt lat="45.7285983" lon="11.5541433"><ele>146.0</ele><time>2026-03-28T12:28:32.151Z</time></trkpt><trkpt lat="45.728745" lon="11.5541367"><ele>146.5</ele><time>2026-03-28T12:28:33.151Z</time></trkpt><trkpt lat="45.7288833" lon="11.5541367"><ele>147.0</ele><time>2026-03-28T12:28:34.151Z</time></trkpt><trkpt lat="45.7290167" lon="11.55415"><ele>147.0</ele><time>2026-03-28T12:28:35.15Z</time></trkpt><trkpt lat="45.7291467" lon="11.5541583"><ele>147.0</ele><time>2026-03-28T12:28:36.151Z</time></trkpt><trkpt lat="45.72928" lon="11.5541617"><ele>147.0</ele><time>2026-03-28T12:28:37.151Z</time></trkpt><trkpt lat="45.72941" lon="11.5541617"><ele>147.0</ele><time>2026-03-28T12:28:38.151Z</time></trkpt><trkpt lat="45.7295417" lon="11.5541767"><ele>147.25</ele><time>2026-03-28T12:28:39.15Z</time></trkpt><trkpt lat="45.7296733" lon="11.5542083"><ele>147.5</ele><time>2026-03-28T12:28:40.151Z</time></trkpt><trkpt lat="45.7298033" lon="11.5542283"><ele>147.75</ele><time>2026-03-28T12:28:41.15Z</time></trkpt><trkpt lat="45.729935" lon="11.5542317"><ele>148.0</ele><time>2026-03-28T12:28:42.151Z</time></trkpt><trkpt lat="45.7300533" lon="11.5542217"><ele>148.0</ele><time>2026-03-28T12:28:43.151Z</time></trkpt><trkpt lat="45.730175" lon="11.5541883"><ele>148.0</ele><time>2026-03-28T12:28:44.15Z</time></trkpt><trkpt lat="45.7302933" lon="11.5541517"><ele>148.0</ele><time>2026-03-28T12:28:45.151Z</time></trkpt><trkpt lat="45.73042" lon="11.5541133"><ele>148.0</ele><time>2026-03-28T12:28:46.151Z</time></trkpt><trkpt lat="45.730535" lon="11.5540683"><ele>148.5</ele><time>2026-03-28T12:28:47.151Z</time></trkpt><trkpt lat="45.730665" lon="11.5540117"><ele>149.0</ele><time>2026-03-28T12:28:48.15Z</time></trkpt><trkpt lat="45.730795" lon="11.5539583"><ele>149.5</ele><time>2026-03-28T12:28:49.151Z</time></trkpt><trkpt lat="45.7309267" lon="11.5539133"><ele>150.0</ele><time>2026-03-28T12:28:50.151Z</time></trkpt><trkpt lat="45.731065" lon="11.5538817"><ele>150.5</ele><time>2026-03-28T12:28:51.15Z</time></trkpt><trkpt lat="45.7312033" lon="11.5538467"><ele>151.0</ele><time>2026-03-28T12:28:52.151Z</time></trkpt><trkpt lat="45.731345" lon="11.5538017"><ele>151.5</ele><time>2026-03-28T12:28:53.151Z</time></trkpt><trkpt lat="45.7314933" lon="11.5537667"><ele>152.0</ele><time>2026-03-28T12:28:54.151Z</time></trkpt><trkpt lat="45.73164" lon="11.5537283"><ele>151.75</ele><time>2026-03-28T12:28:55.151Z</time></trkpt><trkpt lat="45.7317683" lon="11.5536833"><ele>151.5</ele><time>2026-03-28T12:28:56.151Z</time></trkpt><trkpt lat="45.7318867" lon="11.5536267"><ele>151.25</ele><time>2026-03-28T12:28:57.15Z</time></trkpt><trkpt lat="45.7320033" lon="11.5535667"><ele>151.0</ele><time>2026-03-28T12:28:58.151Z</time></trkpt><trkpt lat="45.73211" lon="11.5535083"><ele>151.0</ele><time>2026-03-28T12:28:59.151Z</time></trkpt><trkpt lat="45.73221" lon="11.5534583"><ele>151.0</ele><time>2026-03-28T12:29:00.15Z</time></trkpt><trkpt lat="45.7322967" lon="11.5534283"><ele>151.0</ele><time>2026-03-28T12:29:01.15Z</time></trkpt><trkpt lat="45.7323733" lon="11.5534033"><ele>151.0</ele><time>2026-03-28T12:29:02.15Z</time></trkpt><trkpt lat="45.7324833" lon="11.5533933"><ele>151.0</ele><time>2026-03-28T12:29:04.151Z</time></trkpt><trkpt lat="45.732585" lon="11.553475"><ele>151.0</ele><time>2026-03-28T12:29:06.151Z</time></trkpt><trkpt lat="45.73267" lon="11.5535117"><ele>151.0</ele><time>2026-03-28T12:29:07.151Z</time></trkpt><trkpt lat="45.7327783" lon="11.55353"><ele>151.0</ele><time>2026-03-28T12:29:08.151Z</time></trkpt><trkpt lat="45.7329067" lon="11.5535483"><ele>151.0</ele><time>2026-03-28T12:29:09.151Z</time></trkpt><trkpt lat="45.7330417" lon="11.5535717"><ele>151.25</ele><time>2026-03-28T12:29:10.151Z</time></trkpt><trkpt lat="45.7331883" lon="11.5535967"><ele>151.5</ele><time>2026-03-28T12:29:11.151Z</time></trkpt><trkpt lat="45.7333333" lon="11.5536083"><ele>151.75</ele><time>2026-03-28T12:29:12.151Z</time></trkpt><trkpt lat="45.7334683" lon="11.5536117"><ele>152.0</ele><time>2026-03-28T12:29:13.151Z</time></trkpt><trkpt lat="45.7336017" lon="11.553605"><ele>152.6</ele><time>2026-03-28T12:29:14.151Z</time></trkpt><trkpt lat="45.7337317" lon="11.5536"><ele>153.2</ele><time>2026-03-28T12:29:15.15Z</time></trkpt><trkpt lat="45.7338367" lon="11.55359"><ele>153.8</ele><time>2026-03-28T12:29:16.151Z</time></trkpt><trkpt lat="45.733935" lon="11.553575"><ele>154.4</ele><time>2026-03-28T12:29:17.151Z</time></trkpt><trkpt lat="45.7340267" lon="11.55353"><ele>155.0</ele><time>2026-03-28T12:29:18.15Z</time></trkpt><trkpt lat="45.7341133" lon="11.5534533"><ele>155.0</ele><time>2026-03-28T12:29:19.151Z</time></trkpt><trkpt lat="45.7342017" lon="11.5533433"><ele>155.0</ele><time>2026-03-28T12:29:20.151Z</time></trkpt><trkpt lat="45.734275" lon="11.553215"><ele>155.0</ele><time>2026-03-28T12:29:21.151Z</time></trkpt><trkpt lat="45.7343317" lon="11.553105"><ele>155.0</ele><time>2026-03-28T12:29:22.151Z</time></trkpt><trkpt lat="45.734385" lon="11.553005"><ele>155.0</ele><time>2026-03-28T12:29:23.15Z</time></trkpt><trkpt lat="45.7344433" lon="11.5529217"><ele>155.33333333333331</ele><time>2026-03-28T12:29:24.15Z</time></trkpt><trkpt lat="45.734505" lon="11.552865"><ele>155.66666666666666</ele><time>2026-03-28T12:29:25.151Z</time></trkpt><trkpt lat="45.7345783" lon="11.5528317"><ele>156.0</ele><time>2026-03-28T12:29:26.151Z</time></trkpt><trkpt lat="45.7346533" lon="11.552825"><ele>156.33333333333334</ele><time>2026-03-28T12:29:27.151Z</time></trkpt><trkpt lat="45.7347167" lon="11.552815"><ele>156.66666666666669</ele><time>2026-03-28T12:29:28.15Z</time></trkpt><trkpt lat="45.7347933" lon="11.5527567"><ele>157.0</ele><time>2026-03-28T12:29:30.151Z</time></trkpt><trkpt lat="45.7349" lon="11.5526767"><ele>157.0</ele><time>2026-03-28T12:29:32.151Z</time></trkpt><trkpt lat="45.7349733" lon="11.5526383"><ele>157.0</ele><time>2026-03-28T12:29:33.151Z</time></trkpt><trkpt lat="45.7350533" lon="11.5525933"><ele>157.0</ele><time>2026-03-28T12:29:34.151Z</time></trkpt><trkpt lat="45.7351483" lon="11.5525383"><ele>157.0</ele><time>2026-03-28T12:29:35.15Z</time></trkpt><trkpt lat="45.735255" lon="11.5524767"><ele>157.0</ele><time>2026-03-28T12:29:36.151Z</time></trkpt><trkpt lat="45.73537" lon="11.55241"><ele>157.5</ele><time>2026-03-28T12:29:37.15Z</time></trkpt><trkpt lat="45.7354967" lon="11.55236"><ele>158.0</ele><time>2026-03-28T12:29:38.15Z</time></trkpt><trkpt lat="45.73563" lon="11.5523233"><ele>158.5</ele><time>2026-03-28T12:29:39.151Z</time></trkpt><trkpt lat="45.7357583" lon="11.5522917"><ele>159.0</ele><time>2026-03-28T12:29:40.151Z</time></trkpt><trkpt lat="45.735885" lon="11.55226"><ele>159.0</ele><time>2026-03-28T12:29:41.15Z</time></trkpt><trkpt lat="45.7360217" lon="11.55222"><ele>159.0</ele><time>2026-03-28T12:29:42.151Z</time></trkpt><trkpt lat="45.73615" lon="11.5521833"><ele>159.0</ele><time>2026-03-28T12:29:43.151Z</time></trkpt><trkpt lat="45.7362767" lon="11.5521433"><ele>159.0</ele><time>2026-03-28T12:29:44.15Z</time></trkpt><trkpt lat="45.7364067" lon="11.5521033"><ele>158.75</ele><time>2026-03-28T12:29:45.151Z</time></trkpt><trkpt lat="45.7365467" lon="11.5520567"><ele>158.5</ele><time>2026-03-28T12:29:46.151Z</time></trkpt><trkpt lat="45.7366667" lon="11.5520267"><ele>158.25</ele><time>2026-03-28T12:29:47.151Z</time></trkpt><trkpt lat="45.7367867" lon="11.5520167"><ele>158.0</ele><time>2026-03-28T12:29:48.151Z</time></trkpt><trkpt lat="45.736905" lon="11.5520333"><ele>158.5</ele><time>2026-03-28T12:29:49.151Z</time></trkpt><trkpt lat="45.7370167" lon="11.5520483"><ele>159.0</ele><time>2026-03-28T12:29:50.151Z</time></trkpt><trkpt lat="45.7371267" lon="11.5520533"><ele>159.5</ele><time>2026-03-28T12:29:51.15Z</time></trkpt><trkpt lat="45.7372417" lon="11.55204"><ele>160.0</ele><time>2026-03-28T12:29:52.151Z</time></trkpt><trkpt lat="45.737365" lon="11.5520117"><ele>160.25</ele><time>2026-03-28T12:29:53.151Z</time></trkpt><trkpt lat="45.7374933" lon="11.55197"><ele>160.5</ele><time>2026-03-28T12:29:54.151Z</time></trkpt><trkpt lat="45.7376317" lon="11.551925"><ele>160.75</ele><time>2026-03-28T12:29:55.151Z</time></trkpt><trkpt lat="45.737775" lon="11.55189"><ele>161.0</ele><time>2026-03-28T12:29:56.151Z</time></trkpt><trkpt lat="45.73791" lon="11.5518583"><ele>161.4</ele><time>2026-03-28T12:29:57.151Z</time></trkpt><trkpt lat="45.7380333" lon="11.551835"><ele>161.8</ele><time>2026-03-28T12:29:58.15Z</time></trkpt><trkpt lat="45.7381383" lon="11.5518117"><ele>162.20000000000002</ele><time>2026-03-28T12:29:59.151Z</time></trkpt><trkpt lat="45.7382267" lon="11.5518067"><ele>162.60000000000002</ele><time>2026-03-28T12:30:00.15Z</time></trkpt><trkpt lat="45.7383" lon="11.5518133"><ele>163.0</ele><time>2026-03-28T12:30:01.151Z</time></trkpt><trkpt lat="45.7383617" lon="11.55194"><ele>163.0</ele><time>2026-03-28T12:30:03.151Z</time></trkpt><trkpt lat="45.7383767" lon="11.552085"><ele>163.0</ele><time>2026-03-28T12:30:05.151Z</time></trkpt><trkpt lat="45.7384233" lon="11.5520117"><ele>163.0</ele><time>2026-03-28T12:30:13.151Z</time></trkpt><trkpt lat="45.738465" lon="11.5519117"><ele>163.0</ele><time>2026-03-28T12:30:15.151Z</time></trkpt><trkpt lat="45.7385217" lon="11.5518583"><ele>163.0</ele><time>2026-03-28T12:30:17.151Z</time></trkpt><trkpt lat="45.738635" lon="11.551775"><ele>163.0</ele><time>2026-03-28T12:30:19.151Z</time></trkpt><trkpt lat="45.7387117" lon="11.5517333"><ele>163.25</ele><time>2026-03-28T12:30:20.151Z</time></trkpt><trkpt lat="45.7388117" lon="11.5516933"><ele>163.5</ele><time>2026-03-28T12:30:21.151Z</time></trkpt><trkpt lat="45.7389267" lon="11.55168"><ele>163.75</ele><time>2026-03-28T12:30:22.151Z</time></trkpt><trkpt lat="45.7390533" lon="11.551675"><ele>164.0</ele><time>2026-03-28T12:30:23.151Z</time></trkpt><trkpt lat="45.7391867" lon="11.55166"><ele>164.0</ele><time>2026-03-28T12:30:24.15Z</time></trkpt><trkpt lat="45.739325" lon="11.5516433"><ele>164.0</ele><time>2026-03-28T12:30:25.151Z</time></trkpt><trkpt lat="45.7394717" lon="11.5516267"><ele>164.0</ele><time>2026-03-28T12:30:26.151Z</time></trkpt><trkpt lat="45.73961" lon="11.5516067"><ele>164.0</ele><time>2026-03-28T12:30:27.151Z</time></trkpt><trkpt lat="45.7397317" lon="11.55159"><ele>165.0</ele><time>2026-03-28T12:30:28.151Z</time></trkpt><trkpt lat="45.7398483" lon="11.5515883"><ele>166.0</ele><time>2026-03-28T12:30:29.151Z</time></trkpt><trkpt lat="45.73994" lon="11.5516067"><ele>167.0</ele><time>2026-03-28T12:30:30.151Z</time></trkpt><trkpt lat="45.7400167" lon="11.551675"><ele>168.0</ele><time>2026-03-28T12:30:31.151Z</time></trkpt><trkpt lat="45.7400833" lon="11.5517983"><ele>169.0</ele><time>2026-03-28T12:30:32.151Z</time></trkpt><trkpt lat="45.7401483" lon="11.551955"><ele>169.5</ele><time>2026-03-28T12:30:33.151Z</time></trkpt><trkpt lat="45.74021" lon="11.552125"><ele>170.0</ele><time>2026-03-28T12:30:34.15Z</time></trkpt><trkpt lat="45.7402717" lon="11.5522817"><ele>170.5</ele><time>2026-03-28T12:30:35.15Z</time></trkpt><trkpt lat="45.7403283" lon="11.5524317"><ele>171.0</ele><time>2026-03-28T12:30:36.151Z</time></trkpt><trkpt lat="45.7403817" lon="11.55258"><ele>172.60000000000002</ele><time>2026-03-28T12:30:37.151Z</time></trkpt><trkpt lat="45.74043" lon="11.5527267"><ele>174.2</ele><time>2026-03-28T12:30:38.151Z</time></trkpt><trkpt lat="45.740475" lon="11.5528533"><ele>175.8</ele><time>2026-03-28T12:30:39.151Z</time></trkpt><trkpt lat="45.74053" lon="11.5529333"><ele>177.39999999999998</ele><time>2026-03-28T12:30:40.151Z</time></trkpt><trkpt lat="45.7406567" lon="11.5529283"><ele>179.0</ele><time>2026-03-28T12:30:42.15Z</time></trkpt><trkpt lat="45.7407517" lon="11.5528983"><ele>179.0</ele><time>2026-03-28T12:30:43.151Z</time></trkpt><trkpt lat="45.7408633" lon="11.5528833"><ele>179.0</ele><time>2026-03-28T12:30:44.15Z</time></trkpt><trkpt lat="45.74097" lon="11.5528717"><ele>179.0</ele><time>2026-03-28T12:30:45.151Z</time></trkpt><trkpt lat="45.7410783" lon="11.5528617"><ele>179.0</ele><time>2026-03-28T12:30:46.151Z</time></trkpt><trkpt lat="45.7411867" lon="11.5528567"><ele>179.0</ele><time>2026-03-28T12:30:47.151Z</time></trkpt><trkpt lat="45.74129" lon="11.55284"><ele>181.79999999999998</ele><time>2026-03-28T12:30:48.151Z</time></trkpt><trkpt lat="45.7413967" lon="11.5528067"><ele>184.6</ele><time>2026-03-28T12:30:49.151Z</time></trkpt><trkpt lat="45.741495" lon="11.5527617"><ele>187.4</ele><time>2026-03-28T12:30:50.151Z</time></trkpt><trkpt lat="45.74158" lon="11.5527167"><ele>190.2</ele><time>2026-03-28T12:30:51.151Z</time></trkpt><trkpt lat="45.7416467" lon="11.55268"><ele>193.0</ele><time>2026-03-28T12:30:52.151Z</time></trkpt><trkpt lat="45.7417433" lon="11.5526717"><ele>192.99999999999997</ele><time>2026-03-28T12:30:54.151Z</time></trkpt><trkpt lat="45.7418183" lon="11.5527383"><ele>193.0</ele><time>2026-03-28T12:30:56.15Z</time></trkpt><trkpt lat="45.741875" lon="11.5528083"><ele>193.0</ele><time>2026-03-28T12:30:57.15Z</time></trkpt><trkpt lat="45.7419317" lon="11.55286"><ele>193.0</ele><time>2026-03-28T12:30:58.151Z</time></trkpt><trkpt lat="45.742" lon="11.5528833"><ele>192.99999999999997</ele><time>2026-03-28T12:30:59.151Z</time></trkpt><trkpt lat="45.7420767" lon="11.5528917"><ele>193.0</ele><time>2026-03-28T12:31:00.151Z</time></trkpt><trkpt lat="45.7421583" lon="11.5528483"><ele>194.99999999999997</ele><time>2026-03-28T12:31:01.15Z</time></trkpt><trkpt lat="45.7422483" lon="11.5527817"><ele>197.0</ele><time>2026-03-28T12:31:02.151Z</time></trkpt><trkpt lat="45.742345" lon="11.5527133"><ele>199.0</ele><time>2026-03-28T12:31:03.151Z</time></trkpt><trkpt lat="45.74243" lon="11.55267"><ele>201.0</ele><time>2026-03-28T12:31:04.15Z</time></trkpt><trkpt lat="45.7425067" lon="11.5526283"><ele>202.99999999999997</ele><time>2026-03-28T12:31:05.15Z</time></trkpt><trkpt lat="45.74257" lon="11.5525967"><ele>205.0</ele><time>2026-03-28T12:31:06.151Z</time></trkpt><trkpt lat="45.7427017" lon="11.5525833"><ele>206.6</ele><time>2026-03-28T12:31:08.151Z</time></trkpt><trkpt lat="45.7428133" lon="11.5526283"><ele>208.2</ele><time>2026-03-28T12:31:10.151Z</time></trkpt><trkpt lat="45.74288" lon="11.5526767"><ele>209.8</ele><time>2026-03-28T12:31:12.15Z</time></trkpt><trkpt lat="45.7429467" lon="11.5527933"><ele>211.4</ele><time>2026-03-28T12:31:14.15Z</time></trkpt><trkpt lat="45.743015" lon="11.552935"><ele>213.0</ele><time>2026-03-28T12:31:16.15Z</time></trkpt><trkpt lat="45.743055" lon="11.5530467"><ele>214.8</ele><time>2026-03-28T12:31:17.151Z</time></trkpt><trkpt lat="45.7430833" lon="11.5531583"><ele>216.60000000000002</ele><time>2026-03-28T12:31:18.151Z</time></trkpt><trkpt lat="45.7430983" lon="11.5532767"><ele>218.39999999999998</ele><time>2026-03-28T12:31:19.151Z</time></trkpt><trkpt lat="45.7430967" lon="11.55337"><ele>220.2</ele><time>2026-03-28T12:31:20.151Z</time></trkpt><trkpt lat="45.7430517" lon="11.5535317"><ele>222.0</ele><time>2026-03-28T12:31:22.151Z</time></trkpt><trkpt lat="45.7430233" lon="11.5536633"><ele>223.16666666666666</ele><time>2026-03-28T12:31:24.151Z</time></trkpt><trkpt lat="45.743045" lon="11.553805"><ele>224.33333333333331</ele><time>2026-03-28T12:31:26.151Z</time></trkpt><trkpt lat="45.74312" lon="11.5539017"><ele>225.5</ele><time>2026-03-28T12:31:28.151Z</time></trkpt><trkpt lat="45.74319" lon="11.5539367"><ele>226.66666666666666</ele><time>2026-03-28T12:31:29.151Z</time></trkpt><trkpt lat="45.7432583" lon="11.5539733"><ele>227.83333333333331</ele><time>2026-03-28T12:31:30.151Z</time></trkpt><trkpt lat="45.7433233" lon="11.5540217"><ele>229.0</ele><time>2026-03-28T12:31:31.151Z</time></trkpt><trkpt lat="45.7433933" lon="11.554085"><ele>229.0</ele><time>2026-03-28T12:31:32.151Z</time></trkpt><trkpt lat="45.7434617" lon="11.554185"><ele>229.0</ele><time>2026-03-28T12:31:33.151Z</time></trkpt><trkpt lat="45.7435367" lon="11.5543317"><ele>229.0</ele><time>2026-03-28T12:31:34.151Z</time></trkpt><trkpt lat="45.7436233" lon="11.5544583"><ele>229.0</ele><time>2026-03-28T12:31:35.151Z</time></trkpt><trkpt lat="45.7437067" lon="11.55456"><ele>231.83333333333331</ele><time>2026-03-28T12:31:36.15Z</time></trkpt><trkpt lat="45.7437717" lon="11.5546517"><ele>234.66666666666666</ele><time>2026-03-28T12:31:37.151Z</time></trkpt><trkpt lat="45.7438183" lon="11.554745"><ele>237.5</ele><time>2026-03-28T12:31:38.151Z</time></trkpt><trkpt lat="45.74386" lon="11.554835"><ele>240.33333333333331</ele><time>2026-03-28T12:31:39.15Z</time></trkpt><trkpt lat="45.74391" lon="11.554945"><ele>243.16666666666666</ele><time>2026-03-28T12:31:41.15Z</time></trkpt><trkpt lat="45.74398" lon="11.5550067"><ele>246.0</ele><time>2026-03-28T12:31:45.151Z</time></trkpt><trkpt lat="45.74406" lon="11.5550417"><ele>246.0</ele><time>2026-03-28T12:31:47.151Z</time></trkpt><trkpt lat="45.7441367" lon="11.555075"><ele>246.00000000000003</ele><time>2026-03-28T12:31:49.151Z</time></trkpt><trkpt lat="45.744225" lon="11.555115"><ele>246.00000000000003</ele><time>2026-03-28T12:31:51.151Z</time></trkpt><trkpt lat="45.7443" lon="11.5551133"><ele>246.0</ele><time>2026-03-28T12:31:52.15Z</time></trkpt><trkpt lat="45.7444117" lon="11.5551133"><ele>246.0</ele><time>2026-03-28T12:31:53.151Z</time></trkpt><trkpt lat="45.74455" lon="11.55513"><ele>248.66666666666669</ele><time>2026-03-28T12:31:54.151Z</time></trkpt><trkpt lat="45.7447133" lon="11.555155"><ele>251.33333333333334</ele><time>2026-03-28T12:31:55.151Z</time></trkpt><trkpt lat="45.744885" lon="11.55518"><ele>254.0</ele><time>2026-03-28T12:31:56.151Z</time></trkpt><trkpt lat="45.745005" lon="11.5552167"><ele>254.0</ele><time>2026-03-28T12:31:57.151Z</time></trkpt><trkpt lat="45.7451217" lon="11.5552517"><ele>254.0</ele><time>2026-03-28T12:31:58.151Z</time></trkpt><trkpt lat="45.7452317" lon="11.5552783"><ele>254.0</ele><time>2026-03-28T12:31:59.151Z</time></trkpt><trkpt lat="45.7453467" lon="11.5552917"><ele>254.0</ele><time>2026-03-28T12:32:00.151Z</time></trkpt><trkpt lat="45.7454583" lon="11.555295"><ele>255.0</ele><time>2026-03-28T12:32:01.151Z</time></trkpt><trkpt lat="45.7455683" lon="11.5553017"><ele>255.99999999999997</ele><time>2026-03-28T12:32:02.151Z</time></trkpt><trkpt lat="45.7456767" lon="11.5553317"><ele>257.0</ele><time>2026-03-28T12:32:03.151Z</time></trkpt><trkpt lat="45.745775" lon="11.55536"><ele>258.0</ele><time>2026-03-28T12:32:04.151Z</time></trkpt><trkpt lat="45.7458733" lon="11.5553967"><ele>259.0</ele><time>2026-03-28T12:32:05.15Z</time></trkpt><trkpt lat="45.7459833" lon="11.5554367"><ele>259.4</ele><time>2026-03-28T12:32:06.151Z</time></trkpt><trkpt lat="45.7460917" lon="11.55548"><ele>259.79999999999995</ele><time>2026-03-28T12:32:07.151Z</time></trkpt><trkpt lat="45.746195" lon="11.5555233"><ele>260.20000000000005</ele><time>2026-03-28T12:32:08.151Z</time></trkpt><trkpt lat="45.7462967" lon="11.55556"><ele>260.6</ele><time>2026-03-28T12:32:09.151Z</time></trkpt><trkpt lat="45.7463883" lon="11.55559"><ele>261.0</ele><time>2026-03-28T12:32:10.151Z</time></trkpt><trkpt lat="45.746475" lon="11.5556317"><ele>261.0</ele><time>2026-03-28T12:32:11.151Z</time></trkpt><trkpt lat="45.74654" lon="11.55568"><ele>261.0</ele><time>2026-03-28T12:32:12.151Z</time></trkpt><trkpt lat="45.7465767" lon="11.5557733"><ele>261.0</ele><time>2026-03-28T12:32:13.151Z</time></trkpt><trkpt lat="45.7466233" lon="11.5559217"><ele>261.0</ele><time>2026-03-28T12:32:14.15Z</time></trkpt><trkpt lat="45.7466533" lon="11.5561133"><ele>261.0</ele><time>2026-03-28T12:32:15.151Z</time></trkpt><trkpt lat="45.7466683" lon="11.5563167"><ele>262.0</ele><time>2026-03-28T12:32:16.151Z</time></trkpt><trkpt lat="45.74668" lon="11.5565017"><ele>263.0</ele><time>2026-03-28T12:32:17.151Z</time></trkpt><trkpt lat="45.7467067" lon="11.5566633"><ele>264.0</ele><time>2026-03-28T12:32:18.151Z</time></trkpt><trkpt lat="45.7467417" lon="11.5568233"><ele>265.0</ele><time>2026-03-28T12:32:19.151Z</time></trkpt><trkpt lat="45.7467933" lon="11.556965"><ele>266.0</ele><time>2026-03-28T12:32:20.151Z</time></trkpt><trkpt lat="45.7468567" lon="11.55709"><ele>267.0</ele><time>2026-03-28T12:32:21.151Z</time></trkpt><trkpt lat="45.7469267" lon="11.5572033"><ele>268.0</ele><time>2026-03-28T12:32:22.151Z</time></trkpt><trkpt lat="45.7470067" lon="11.557325"><ele>269.0</ele><time>2026-03-28T12:32:23.15Z</time></trkpt><trkpt lat="45.747075" lon="11.5574383"><ele>270.0</ele><time>2026-03-28T12:32:24.151Z</time></trkpt><trkpt lat="45.747135" lon="11.5575133"><ele>270.0</ele><time>2026-03-28T12:32:25.15Z</time></trkpt><trkpt lat="45.74719" lon="11.5575733"><ele>270.0</ele><time>2026-03-28T12:32:26.151Z</time></trkpt><trkpt lat="45.747325" lon="11.5576"><ele>270.0</ele><time>2026-03-28T12:32:28.151Z</time></trkpt><trkpt lat="45.7474233" lon="11.5575967"><ele>270.0</ele><time>2026-03-28T12:32:29.15Z</time></trkpt><trkpt lat="45.747525" lon="11.5576183"><ele>270.0</ele><time>2026-03-28T12:32:30.151Z</time></trkpt><trkpt lat="45.7476133" lon="11.5576733"><ele>270.0</ele><time>2026-03-28T12:32:31.15Z</time></trkpt><trkpt lat="45.74768" lon="11.5577667"><ele>270.0</ele><time>2026-03-28T12:32:32.151Z</time></trkpt><trkpt lat="45.747725" lon="11.5578633"><ele>270.0</ele><time>2026-03-28T12:32:33.151Z</time></trkpt><trkpt lat="45.7477533" lon="11.5579817"><ele>270.0</ele><time>2026-03-28T12:32:34.15Z</time></trkpt><trkpt lat="45.74777" lon="11.55808"><ele>270.0</ele><time>2026-03-28T12:32:35.151Z</time></trkpt><trkpt lat="45.7477883" lon="11.5581717"><ele>270.0</ele><time>2026-03-28T12:32:36.151Z</time></trkpt><trkpt lat="45.7478283" lon="11.5582883"><ele>268.6</ele><time>2026-03-28T12:32:38.151Z</time></trkpt><trkpt lat="45.74791" lon="11.5583583"><ele>267.2</ele><time>2026-03-28T12:32:40.151Z</time></trkpt><trkpt lat="45.7479783" lon="11.5583617"><ele>265.8</ele><time>2026-03-28T12:32:41.151Z</time></trkpt><trkpt lat="45.7480733" lon="11.5583367"><ele>264.4</ele><time>2026-03-28T12:32:42.151Z</time></trkpt><trkpt lat="45.7481867" lon="11.5583217"><ele>263.0</ele><time>2026-03-28T12:32:43.151Z</time></trkpt><trkpt lat="45.7483033" lon="11.5583183"><ele>263.0</ele><time>2026-03-28T12:32:44.15Z</time></trkpt><trkpt lat="45.7484283" lon="11.5583233"><ele>263.0</ele><time>2026-03-28T12:32:45.15Z</time></trkpt><trkpt lat="45.74855" lon="11.5583283"><ele>263.0</ele><time>2026-03-28T12:32:46.15Z</time></trkpt><trkpt lat="45.7486817" lon="11.5583483"><ele>263.0</ele><time>2026-03-28T12:32:47.15Z</time></trkpt><trkpt lat="45.7488183" lon="11.558375"><ele>264.0</ele><time>2026-03-28T12:32:48.151Z</time></trkpt><trkpt lat="45.74897" lon="11.55841"><ele>265.0</ele><time>2026-03-28T12:32:49.151Z</time></trkpt><trkpt lat="45.7491117" lon="11.55843"><ele>266.0</ele><time>2026-03-28T12:32:50.151Z</time></trkpt><trkpt lat="45.7492633" lon="11.558455"><ele>267.0</ele><time>2026-03-28T12:32:51.151Z</time></trkpt><trkpt lat="45.749425" lon="11.55849"><ele>268.6666666666667</ele><time>2026-03-28T12:32:52.15Z</time></trkpt><trkpt lat="45.74959" lon="11.5585233"><ele>270.33333333333337</ele><time>2026-03-28T12:32:53.151Z</time></trkpt><trkpt lat="45.7497517" lon="11.5585517"><ele>272.0</ele><time>2026-03-28T12:32:54.151Z</time></trkpt><trkpt lat="45.7499167" lon="11.5585633"><ele>272.0</ele><time>2026-03-28T12:32:55.15Z</time></trkpt><trkpt lat="45.7500767" lon="11.558565"><ele>272.0</ele><time>2026-03-28T12:32:56.151Z</time></trkpt><trkpt lat="45.7502283" lon="11.5585517"><ele>272.0</ele><time>2026-03-28T12:32:57.151Z</time></trkpt><trkpt lat="45.750385" lon="11.558525"><ele>274.5</ele><time>2026-03-28T12:32:58.151Z</time></trkpt><trkpt lat="45.75054" lon="11.5584867"><ele>277.0</ele><time>2026-03-28T12:32:59.15Z</time></trkpt><trkpt lat="45.7506767" lon="11.5584167"><ele>279.5</ele><time>2026-03-28T12:33:00.151Z</time></trkpt><trkpt lat="45.7508" lon="11.5583067"><ele>282.0</ele><time>2026-03-28T12:33:01.15Z</time></trkpt><trkpt lat="45.7509117" lon="11.5581733"><ele>282.0</ele><time>2026-03-28T12:33:02.151Z</time></trkpt><trkpt lat="45.7510067" lon="11.55802"><ele>282.0</ele><time>2026-03-28T12:33:03.15Z</time></trkpt><trkpt lat="45.7510917" lon="11.5578667"><ele>282.0</ele><time>2026-03-28T12:33:04.15Z</time></trkpt><trkpt lat="45.7511683" lon="11.5577333"><ele>282.0</ele><time>2026-03-28T12:33:05.15Z</time></trkpt><trkpt lat="45.7512367" lon="11.557625"><ele>281.3333333333333</ele><time>2026-03-28T12:33:06.151Z</time></trkpt><trkpt lat="45.75129" lon="11.5575583"><ele>280.6666666666667</ele><time>2026-03-28T12:33:07.151Z</time></trkpt><trkpt lat="45.7513317" lon="11.5574733"><ele>280.0</ele><time>2026-03-28T12:33:08.15Z</time></trkpt><trkpt lat="45.751355" lon="11.5573633"><ele>279.33333333333337</ele><time>2026-03-28T12:33:09.151Z</time></trkpt><trkpt lat="45.751355" lon="11.55725"><ele>278.6666666666667</ele><time>2026-03-28T12:33:10.15Z</time></trkpt><trkpt lat="45.7513683" lon="11.5571133"><ele>278.0</ele><time>2026-03-28T12:33:11.15Z</time></trkpt><trkpt lat="45.7513967" lon="11.5569817"><ele>278.0</ele><time>2026-03-28T12:33:12.151Z</time></trkpt><trkpt lat="45.75145" lon="11.5568683"><ele>278.0</ele><time>2026-03-28T12:33:13.151Z</time></trkpt><trkpt lat="45.75152" lon="11.5567733"><ele>278.0</ele><time>2026-03-28T12:33:14.151Z</time></trkpt><trkpt lat="45.7515983" lon="11.5566833"><ele>278.0</ele><time>2026-03-28T12:33:15.151Z</time></trkpt><trkpt lat="45.7516917" lon="11.5566"><ele>278.0</ele><time>2026-03-28T12:33:16.15Z</time></trkpt><trkpt lat="45.75179" lon="11.55653"><ele>277.83333333333337</ele><time>2026-03-28T12:33:17.151Z</time></trkpt><trkpt lat="45.7518767" lon="11.5564617"><ele>277.6666666666667</ele><time>2026-03-28T12:33:18.15Z</time></trkpt><trkpt lat="45.751955" lon="11.55639"><ele>277.5</ele><time>2026-03-28T12:33:19.151Z</time></trkpt><trkpt lat="45.75202" lon="11.5563183"><ele>277.3333333333333</ele><time>2026-03-28T12:33:20.15Z</time></trkpt><trkpt lat="45.7520833" lon="11.5562467"><ele>277.16666666666663</ele><time>2026-03-28T12:33:21.151Z</time></trkpt><trkpt lat="45.7521417" lon="11.5562067"><ele>277.0</ele><time>2026-03-28T12:33:22.151Z</time></trkpt><trkpt lat="45.75221" lon="11.5561883"><ele>277.0</ele><time>2026-03-28T12:33:23.151Z</time></trkpt><trkpt lat="45.75229" lon="11.55619"><ele>277.0</ele><time>2026-03-28T12:33:24.151Z</time></trkpt><trkpt lat="45.7523733" lon="11.556175"><ele>277.0</ele><time>2026-03-28T12:33:25.15Z</time></trkpt><trkpt lat="45.7524517" lon="11.5561783"><ele>277.0</ele><time>2026-03-28T12:33:26.151Z</time></trkpt><trkpt lat="45.752525" lon="11.5562"><ele>277.0</ele><time>2026-03-28T12:33:27.15Z</time></trkpt><trkpt lat="45.7525883" lon="11.556235"><ele>277.0</ele><time>2026-03-28T12:33:28.151Z</time></trkpt><trkpt lat="45.7526533" lon="11.5562867"><ele>274.5</ele><time>2026-03-28T12:33:29.15Z</time></trkpt><trkpt lat="45.7527117" lon="11.55635"><ele>272.0</ele><time>2026-03-28T12:33:30.151Z</time></trkpt><trkpt lat="45.7527767" lon="11.5564233"><ele>269.5</ele><time>2026-03-28T12:33:31.151Z</time></trkpt><trkpt lat="45.7528467" lon="11.5565067"><ele>267.0</ele><time>2026-03-28T12:33:32.151Z</time></trkpt><trkpt lat="45.7529233" lon="11.5565917"><ele>264.5</ele><time>2026-03-28T12:33:33.151Z</time></trkpt><trkpt lat="45.7529983" lon="11.5566833"><ele>262.0</ele><time>2026-03-28T12:33:34.15Z</time></trkpt><trkpt lat="45.753075" lon="11.5567767"><ele>262.0</ele><time>2026-03-28T12:33:35.151Z</time></trkpt><trkpt lat="45.7531567" lon="11.55687"><ele>262.0</ele><time>2026-03-28T12:33:36.15Z</time></trkpt><trkpt lat="45.753225" lon="11.5569367"><ele>262.0</ele><time>2026-03-28T12:33:37.151Z</time></trkpt><trkpt lat="45.7532867" lon="11.557"><ele>262.0</ele><time>2026-03-28T12:33:38.151Z</time></trkpt><trkpt lat="45.753335" lon="11.55707"><ele>262.0</ele><time>2026-03-28T12:33:39.151Z</time></trkpt><trkpt lat="45.7533733" lon="11.5571517"><ele>262.0</ele><time>2026-03-28T12:33:40.151Z</time></trkpt><trkpt lat="45.753405" lon="11.5572383"><ele>265.4</ele><time>2026-03-28T12:33:41.151Z</time></trkpt><trkpt lat="45.7534433" lon="11.557375"><ele>268.79999999999995</ele><time>2026-03-28T12:33:43.151Z</time></trkpt><trkpt lat="45.7534983" lon="11.557455"><ele>272.2</ele><time>2026-03-28T12:33:46.15Z</time></trkpt><trkpt lat="45.75362" lon="11.5575017"><ele>275.59999999999997</ele><time>2026-03-28T12:33:48.151Z</time></trkpt><trkpt lat="45.75373" lon="11.5575517"><ele>279.0</ele><time>2026-03-28T12:33:49.15Z</time></trkpt><trkpt lat="45.7538317" lon="11.5575383"><ele>279.5</ele><time>2026-03-28T12:33:50.151Z</time></trkpt><trkpt lat="45.753925" lon="11.5575233"><ele>280.0</ele><time>2026-03-28T12:33:51.151Z</time></trkpt><trkpt lat="45.7540183" lon="11.5575217"><ele>280.5</ele><time>2026-03-28T12:33:52.15Z</time></trkpt><trkpt lat="45.7541033" lon="11.5575183"><ele>281.0</ele><time>2026-03-28T12:33:53.151Z</time></trkpt><trkpt lat="45.7541833" lon="11.55751"><ele>281.5</ele><time>2026-03-28T12:33:54.15Z</time></trkpt><trkpt lat="45.7542617" lon="11.5575"><ele>282.0</ele><time>2026-03-28T12:33:55.151Z</time></trkpt><trkpt lat="45.75433" lon="11.5575033"><ele>281.6666666666667</ele><time>2026-03-28T12:33:56.15Z</time></trkpt><trkpt lat="45.7543933" lon="11.5575133"><ele>281.3333333333333</ele><time>2026-03-28T12:33:57.15Z</time></trkpt><trkpt lat="45.7544667" lon="11.5575317"><ele>281.0</ele><time>2026-03-28T12:33:58.151Z</time></trkpt><trkpt lat="45.75453" lon="11.55758"><ele>280.66666666666663</ele><time>2026-03-28T12:33:59.15Z</time></trkpt><trkpt lat="45.7545867" lon="11.55766"><ele>280.3333333333333</ele><time>2026-03-28T12:34:00.151Z</time></trkpt><trkpt lat="45.754635" lon="11.55777"><ele>280.0</ele><time>2026-03-28T12:34:01.15Z</time></trkpt><trkpt lat="45.75468" lon="11.5578833"><ele>282.5</ele><time>2026-03-28T12:34:02.151Z</time></trkpt><trkpt lat="45.7547167" lon="11.5579783"><ele>285.0</ele><time>2026-03-28T12:34:03.151Z</time></trkpt><trkpt lat="45.75476" lon="11.5580767"><ele>287.5</ele><time>2026-03-28T12:34:04.15Z</time></trkpt><trkpt lat="45.7548067" lon="11.558145"><ele>290.0</ele><time>2026-03-28T12:34:05.151Z</time></trkpt><trkpt lat="45.7548717" lon="11.5582067"><ele>292.5</ele><time>2026-03-28T12:34:06.151Z</time></trkpt><trkpt lat="45.7549633" lon="11.558255"><ele>295.0</ele><time>2026-03-28T12:34:07.151Z</time></trkpt><trkpt lat="45.7550517" lon="11.5582833"><ele>295.0</ele><time>2026-03-28T12:34:08.151Z</time></trkpt><trkpt lat="45.75514" lon="11.558325"><ele>295.0</ele><time>2026-03-28T12:34:09.15Z</time></trkpt><trkpt lat="45.755215" lon="11.5583667"><ele>295.0</ele><time>2026-03-28T12:34:10.15Z</time></trkpt><trkpt lat="45.7552767" lon="11.558415"><ele>295.0</ele><time>2026-03-28T12:34:11.15Z</time></trkpt><trkpt lat="45.7553333" lon="11.558465"><ele>295.0</ele><time>2026-03-28T12:34:12.151Z</time></trkpt><trkpt lat="45.7553967" lon="11.5585017"><ele>295.0</ele><time>2026-03-28T12:34:13.151Z</time></trkpt><trkpt lat="45.7554667" lon="11.558535"><ele>295.16666666666663</ele><time>2026-03-28T12:34:14.15Z</time></trkpt><trkpt lat="45.7555467" lon="11.558575"><ele>295.3333333333333</ele><time>2026-03-28T12:34:15.151Z</time></trkpt><trkpt lat="45.755645" lon="11.55864"><ele>295.5</ele><time>2026-03-28T12:34:17.151Z</time></trkpt><trkpt lat="45.7557217" lon="11.5587"><ele>295.6666666666667</ele><time>2026-03-28T12:34:20.15Z</time></trkpt><trkpt lat="45.7556467" lon="11.5586333"><ele>295.83333333333337</ele><time>2026-03-28T12:34:29.151Z</time></trkpt><trkpt lat="45.7556267" lon="11.558535"><ele>296.0</ele><time>2026-03-28T12:34:31.151Z</time></trkpt><trkpt lat="45.7556333" lon="11.55843"><ele>296.0</ele><time>2026-03-28T12:34:33.151Z</time></trkpt><trkpt lat="45.7556267" lon="11.5582717"><ele>296.0</ele><time>2026-03-28T12:34:35.151Z</time></trkpt><trkpt lat="45.7556067" lon="11.5580833"><ele>296.0</ele><time>2026-03-28T12:34:37.151Z</time></trkpt><trkpt lat="45.7555733" lon="11.5579867"><ele>296.0</ele><time>2026-03-28T12:34:38.151Z</time></trkpt><trkpt lat="45.7555383" lon="11.557885"><ele>296.0</ele><time>2026-03-28T12:34:39.151Z</time></trkpt><trkpt lat="45.7554967" lon="11.55778"><ele>296.1666666666667</ele><time>2026-03-28T12:34:40.15Z</time></trkpt><trkpt lat="45.755455" lon="11.557695"><ele>296.33333333333337</ele><time>2026-03-28T12:34:41.151Z</time></trkpt><trkpt lat="45.75542" lon="11.5576133"><ele>296.5</ele><time>2026-03-28T12:34:42.151Z</time></trkpt><trkpt lat="45.7554" lon="11.5575233"><ele>296.6666666666667</ele><time>2026-03-28T12:34:43.151Z</time></trkpt><trkpt lat="45.7553967" lon="11.55734"><ele>296.8333333333333</ele><time>2026-03-28T12:34:45.15Z</time></trkpt><trkpt lat="45.7554167" lon="11.5571833"><ele>297.0</ele><time>2026-03-28T12:34:47.15Z</time></trkpt><trkpt lat="45.7554333" lon="11.55707"><ele>295.6666666666667</ele><time>2026-03-28T12:34:49.151Z</time></trkpt><trkpt lat="45.755465" lon="11.5569717"><ele>294.3333333333333</ele><time>2026-03-28T12:34:53.151Z</time></trkpt><trkpt lat="45.7555167" lon="11.556915"><ele>293.0</ele><time>2026-03-28T12:34:57.151Z</time></trkpt><trkpt lat="45.7556" lon="11.5568983"><ele>291.66666666666663</ele><time>2026-03-28T12:35:00.151Z</time></trkpt><trkpt lat="45.7556733" lon="11.5569267"><ele>290.3333333333333</ele><time>2026-03-28T12:35:03.151Z</time></trkpt><trkpt lat="45.7557617" lon="11.5569283"><ele>289.0</ele><time>2026-03-28T12:35:05.151Z</time></trkpt><trkpt lat="45.7559017" lon="11.5569533"><ele>289.0</ele><time>2026-03-28T12:35:07.151Z</time></trkpt><trkpt lat="45.7559983" lon="11.5569683"><ele>289.0</ele><time>2026-03-28T12:35:08.151Z</time></trkpt><trkpt lat="45.756105" lon="11.556955"><ele>289.0</ele><time>2026-03-28T12:35:09.151Z</time></trkpt><trkpt lat="45.7562367" lon="11.5569617"><ele>289.0</ele><time>2026-03-28T12:35:10.15Z</time></trkpt><trkpt lat="45.7563783" lon="11.556925"><ele>293.0</ele><time>2026-03-28T12:35:11.151Z</time></trkpt><trkpt lat="45.7565467" lon="11.5569367"><ele>297.0</ele><time>2026-03-28T12:35:12.151Z</time></trkpt><trkpt lat="45.7567283" lon="11.5569333"><ele>301.0</ele><time>2026-03-28T12:35:13.151Z</time></trkpt><trkpt lat="45.7568433" lon="11.55692"><ele>303.0</ele><time>2026-03-28T12:35:14.15Z</time></trkpt><trkpt lat="45.7569367" lon="11.556905"><ele>305.0</ele><time>2026-03-28T12:35:15.151Z</time></trkpt><trkpt lat="45.7570333" lon="11.55698"><ele>307.0</ele><time>2026-03-28T12:35:17.15Z</time></trkpt><trkpt lat="45.7570483" lon="11.5571167"><ele>309.0</ele><time>2026-03-28T12:35:19.151Z</time></trkpt><trkpt lat="45.7570367" lon="11.5572083"><ele>311.0</ele><time>2026-03-28T12:35:20.151Z</time></trkpt><trkpt lat="45.7570017" lon="11.557315"><ele>313.0</ele><time>2026-03-28T12:35:21.15Z</time></trkpt><trkpt lat="45.7569583" lon="11.5574483"><ele>314.16666666666663</ele><time>2026-03-28T12:35:22.15Z</time></trkpt><trkpt lat="45.7569133" lon="11.5575783"><ele>315.3333333333333</ele><time>2026-03-28T12:35:23.151Z</time></trkpt><trkpt lat="45.756875" lon="11.5577033"><ele>316.5</ele><time>2026-03-28T12:35:24.151Z</time></trkpt><trkpt lat="45.7568517" lon="11.5578133"><ele>317.6666666666667</ele><time>2026-03-28T12:35:25.15Z</time></trkpt><trkpt lat="45.7568433" lon="11.557925"><ele>318.83333333333337</ele><time>2026-03-28T12:35:26.151Z</time></trkpt><trkpt lat="45.7568533" lon="11.5580267"><ele>320.0</ele><time>2026-03-28T12:35:27.151Z</time></trkpt><trkpt lat="45.7568717" lon="11.5581217"><ele>324.6666666666667</ele><time>2026-03-28T12:35:28.151Z</time></trkpt><trkpt lat="45.7569017" lon="11.5582083"><ele>329.33333333333337</ele><time>2026-03-28T12:35:29.151Z</time></trkpt><trkpt lat="45.7569567" lon="11.5582933"><ele>334.0</ele><time>2026-03-28T12:35:31.151Z</time></trkpt><trkpt lat="45.7570367" lon="11.558335"><ele>338.6666666666667</ele><time>2026-03-28T12:35:34.151Z</time></trkpt><trkpt lat="45.757125" lon="11.55833"><ele>343.3333333333333</ele><time>2026-03-28T12:35:36.151Z</time></trkpt><trkpt lat="45.7571917" lon="11.5583367"><ele>348.0</ele><time>2026-03-28T12:35:37.151Z</time></trkpt><trkpt lat="45.757285" lon="11.5583583"><ele>348.0</ele><time>2026-03-28T12:35:38.151Z</time></trkpt><trkpt lat="45.757375" lon="11.5583867"><ele>348.0</ele><time>2026-03-28T12:35:39.151Z</time></trkpt><trkpt lat="45.7574683" lon="11.5584067"><ele>348.0</ele><time>2026-03-28T12:35:40.151Z</time></trkpt><trkpt lat="45.75754" lon="11.558425"><ele>348.0</ele><time>2026-03-28T12:35:41.15Z</time></trkpt><trkpt lat="45.7576317" lon="11.55845"><ele>348.0</ele><time>2026-03-28T12:35:43.151Z</time></trkpt><trkpt lat="45.7577" lon="11.558475"><ele>348.0</ele><time>2026-03-28T12:35:45.151Z</time></trkpt><trkpt lat="45.75776" lon="11.5585183"><ele>351.0</ele><time>2026-03-28T12:35:48.151Z</time></trkpt><trkpt lat="45.7578233" lon="11.5586217"><ele>354.0</ele><time>2026-03-28T12:35:51.151Z</time></trkpt><trkpt lat="45.757855" lon="11.5587333"><ele>357.0</ele><time>2026-03-28T12:35:53.15Z</time></trkpt><trkpt lat="45.757865" lon="11.5589217"><ele>360.0</ele><time>2026-03-28T12:35:55.15Z</time></trkpt><trkpt lat="45.75788" lon="11.55907"><ele>363.0</ele><time>2026-03-28T12:35:56.15Z</time></trkpt><trkpt lat="45.7579033" lon="11.5592233"><ele>364.59999999999997</ele><time>2026-03-28T12:35:57.151Z</time></trkpt><trkpt lat="45.75793" lon="11.5593933"><ele>366.2</ele><time>2026-03-28T12:35:58.151Z</time></trkpt><trkpt lat="45.7579517" lon="11.5595517"><ele>367.8</ele><time>2026-03-28T12:35:59.151Z</time></trkpt><trkpt lat="45.75797" lon="11.559705"><ele>369.4</ele><time>2026-03-28T12:36:00.15Z</time></trkpt><trkpt lat="45.7579867" lon="11.5598467"><ele>371.0</ele><time>2026-03-28T12:36:01.151Z</time></trkpt><trkpt lat="45.7579983" lon="11.55996"><ele>371.0</ele><time>2026-03-28T12:36:02.151Z</time></trkpt><trkpt lat="45.75802" lon="11.5600833"><ele>371.0</ele><time>2026-03-28T12:36:04.151Z</time></trkpt><trkpt lat="45.7580583" lon="11.5601917"><ele>371.0</ele><time>2026-03-28T12:36:07.151Z</time></trkpt><trkpt lat="45.758115" lon="11.5602317"><ele>371.0</ele><time>2026-03-28T12:36:09.151Z</time></trkpt><trkpt lat="45.7582533" lon="11.560305"><ele>371.0</ele><time>2026-03-28T12:36:11.151Z</time></trkpt><trkpt lat="45.7583533" lon="11.5603617"><ele>370.25</ele><time>2026-03-28T12:36:12.151Z</time></trkpt><trkpt lat="45.7584683" lon="11.5604167"><ele>369.5</ele><time>2026-03-28T12:36:13.151Z</time></trkpt><trkpt lat="45.758585" lon="11.5604783"><ele>368.75</ele><time>2026-03-28T12:36:14.151Z</time></trkpt><trkpt lat="45.758695" lon="11.5605133"><ele>368.0</ele><time>2026-03-28T12:36:15.151Z</time></trkpt><trkpt lat="45.7587917" lon="11.5605317"><ele>370.0</ele><time>2026-03-28T12:36:16.15Z</time></trkpt><trkpt lat="45.7588833" lon="11.5605383"><ele>372.0</ele><time>2026-03-28T12:36:17.151Z</time></trkpt><trkpt lat="45.7589733" lon="11.5605433"><ele>374.0</ele><time>2026-03-28T12:36:18.151Z</time></trkpt><trkpt lat="45.7590567" lon="11.5605467"><ele>376.0</ele><time>2026-03-28T12:36:19.151Z</time></trkpt><trkpt lat="45.7591217" lon="11.56055"><ele>378.0</ele><time>2026-03-28T12:36:20.151Z</time></trkpt><trkpt lat="45.759215" lon="11.5605633"><ele>380.0</ele><time>2026-03-28T12:36:22.15Z</time></trkpt><trkpt lat="45.7592667" lon="11.56065"><ele>380.0</ele><time>2026-03-28T12:36:31.151Z</time></trkpt><trkpt lat="45.759255" lon="11.5607483"><ele>380.0</ele><time>2026-03-28T12:36:33.151Z</time></trkpt><trkpt lat="45.7592233" lon="11.5609067"><ele>380.0</ele><time>2026-03-28T12:36:35.151Z</time></trkpt><trkpt lat="45.7592117" lon="11.5610033"><ele>380.0</ele><time>2026-03-28T12:36:36.151Z</time></trkpt><trkpt lat="45.7592117" lon="11.56111"><ele>380.0</ele><time>2026-03-28T12:36:37.151Z</time></trkpt><trkpt lat="45.7592283" lon="11.5612367"><ele>380.0</ele><time>2026-03-28T12:36:38.15Z</time></trkpt><trkpt lat="45.7592517" lon="11.561385"><ele>380.0</ele><time>2026-03-28T12:36:39.15Z</time></trkpt><trkpt lat="45.7592983" lon="11.5615133"><ele>380.0</ele><time>2026-03-28T12:36:40.15Z</time></trkpt><trkpt lat="45.7593717" lon="11.5616233"><ele>380.0</ele><time>2026-03-28T12:36:41.151Z</time></trkpt><trkpt lat="45.7594717" lon="11.5617083"><ele>380.0</ele><time>2026-03-28T12:36:42.151Z</time></trkpt><trkpt lat="45.7595717" lon="11.5617917"><ele>380.0</ele><time>2026-03-28T12:36:43.151Z</time></trkpt><trkpt lat="45.759665" lon="11.5618967"><ele>380.0</ele><time>2026-03-28T12:36:44.151Z</time></trkpt><trkpt lat="45.7597433" lon="11.562015"><ele>380.0</ele><time>2026-03-28T12:36:45.151Z</time></trkpt><trkpt lat="45.7597933" lon="11.56215"><ele>380.0</ele><time>2026-03-28T12:36:46.15Z</time></trkpt><trkpt lat="45.759825" lon="11.5622917"><ele>380.0</ele><time>2026-03-28T12:36:47.151Z</time></trkpt><trkpt lat="45.7598383" lon="11.5624383"><ele>380.0</ele><time>2026-03-28T12:36:48.151Z</time></trkpt><trkpt lat="45.7598517" lon="11.5625883"><ele>380.83333333333337</ele><time>2026-03-28T12:36:49.151Z</time></trkpt><trkpt lat="45.7598667" lon="11.56273"><ele>381.6666666666667</ele><time>2026-03-28T12:36:50.15Z</time></trkpt><trkpt lat="45.7598783" lon="11.5628583"><ele>382.5</ele><time>2026-03-28T12:36:51.15Z</time></trkpt><trkpt lat="45.7598933" lon="11.5629683"><ele>383.33333333333337</ele><time>2026-03-28T12:36:52.151Z</time></trkpt><trkpt lat="45.7599117" lon="11.5630567"><ele>384.1666666666667</ele><time>2026-03-28T12:36:53.151Z</time></trkpt><trkpt lat="45.7599633" lon="11.5631133"><ele>385.0</ele><time>2026-03-28T12:36:54.151Z</time></trkpt><trkpt lat="45.7600317" lon="11.563145"><ele>386.0</ele><time>2026-03-28T12:36:55.151Z</time></trkpt><trkpt lat="45.7601233" lon="11.56315"><ele>387.0</ele><time>2026-03-28T12:36:56.15Z</time></trkpt><trkpt lat="45.7602283" lon="11.5631733"><ele>388.0</ele><time>2026-03-28T12:36:57.151Z</time></trkpt><trkpt lat="45.7603517" lon="11.563225"><ele>389.0</ele><time>2026-03-28T12:36:58.15Z</time></trkpt><trkpt lat="45.7604833" lon="11.5632617"><ele>389.0</ele><time>2026-03-28T12:36:59.15Z</time></trkpt><trkpt lat="45.7606133" lon="11.563265"><ele>389.0</ele><time>2026-03-28T12:37:00.151Z</time></trkpt><trkpt lat="45.760735" lon="11.5632333"><ele>389.0</ele><time>2026-03-28T12:37:01.151Z</time></trkpt><trkpt lat="45.76086" lon="11.563185"><ele>389.0</ele><time>2026-03-28T12:37:02.15Z</time></trkpt><trkpt lat="45.7609833" lon="11.563145"><ele>389.6</ele><time>2026-03-28T12:37:03.15Z</time></trkpt><trkpt lat="45.7610983" lon="11.56312"><ele>390.2</ele><time>2026-03-28T12:37:04.15Z</time></trkpt><trkpt lat="45.76121" lon="11.5631117"><ele>390.8</ele><time>2026-03-28T12:37:05.151Z</time></trkpt><trkpt lat="45.76131" lon="11.563125"><ele>391.40000000000003</ele><time>2026-03-28T12:37:06.15Z</time></trkpt><trkpt lat="45.7614117" lon="11.563155"><ele>392.0</ele><time>2026-03-28T12:37:07.151Z</time></trkpt><trkpt lat="45.761485" lon="11.5632167"><ele>391.99999999999994</ele><time>2026-03-28T12:37:08.151Z</time></trkpt><trkpt lat="45.76154" lon="11.5632933"><ele>392.0</ele><time>2026-03-28T12:37:09.151Z</time></trkpt><trkpt lat="45.7615617" lon="11.5633833"><ele>392.0</ele><time>2026-03-28T12:37:10.151Z</time></trkpt><trkpt lat="45.7615733" lon="11.5634883"><ele>392.0</ele><time>2026-03-28T12:37:11.151Z</time></trkpt><trkpt lat="45.7615783" lon="11.56362"><ele>391.99999999999994</ele><time>2026-03-28T12:37:12.15Z</time></trkpt><trkpt lat="45.7615917" lon="11.5637617"><ele>392.0</ele><time>2026-03-28T12:37:13.15Z</time></trkpt><trkpt lat="45.7616283" lon="11.5639067"><ele>393.66666666666663</ele><time>2026-03-28T12:37:14.151Z</time></trkpt><trkpt lat="45.761675" lon="11.5640333"><ele>395.3333333333333</ele><time>2026-03-28T12:37:15.151Z</time></trkpt><trkpt lat="45.76173" lon="11.5641433"><ele>397.0</ele><time>2026-03-28T12:37:16.151Z</time></trkpt><trkpt lat="45.76179" lon="11.5642317"><ele>398.66666666666663</ele><time>2026-03-28T12:37:17.151Z</time></trkpt><trkpt lat="45.7618567" lon="11.5642933"><ele>400.3333333333333</ele><time>2026-03-28T12:37:19.151Z</time></trkpt><trkpt lat="45.7618933" lon="11.5642183"><ele>402.0</ele><time>2026-03-28T12:37:21.151Z</time></trkpt><trkpt lat="45.7619417" lon="11.564125"><ele>403.0</ele><time>2026-03-28T12:37:22.15Z</time></trkpt><trkpt lat="45.762005" lon="11.564"><ele>404.0</ele><time>2026-03-28T12:37:23.151Z</time></trkpt><trkpt lat="45.7621167" lon="11.563785"><ele>405.0</ele><time>2026-03-28T12:37:24.151Z</time></trkpt><trkpt lat="45.7621817" lon="11.5635783"><ele>405.0</ele><time>2026-03-28T12:37:25.151Z</time></trkpt><trkpt lat="45.762195" lon="11.5633817"><ele>405.0</ele><time>2026-03-28T12:37:26.151Z</time></trkpt><trkpt lat="45.7622133" lon="11.5631717"><ele>405.0</ele><time>2026-03-28T12:37:27.151Z</time></trkpt><trkpt lat="45.7622367" lon="11.5629583"><ele>405.0</ele><time>2026-03-28T12:37:28.151Z</time></trkpt><trkpt lat="45.762275" lon="11.5627283"><ele>403.66666666666663</ele><time>2026-03-28T12:37:29.151Z</time></trkpt><trkpt lat="45.7622983" lon="11.5625183"><ele>402.3333333333333</ele><time>2026-03-28T12:37:30.15Z</time></trkpt><trkpt lat="45.7623167" lon="11.5623"><ele>401.0</ele><time>2026-03-28T12:37:31.151Z</time></trkpt><trkpt lat="45.7623233" lon="11.56208"><ele>399.75</ele><time>2026-03-28T12:37:32.151Z</time></trkpt><trkpt lat="45.7623083" lon="11.5618733"><ele>398.5</ele><time>2026-03-28T12:37:33.151Z</time></trkpt><trkpt lat="45.7622983" lon="11.561665"><ele>397.25</ele><time>2026-03-28T12:37:34.15Z</time></trkpt><trkpt lat="45.762285" lon="11.5614783"><ele>396.0</ele><time>2026-03-28T12:37:35.15Z</time></trkpt><trkpt lat="45.76228" lon="11.5613117"><ele>393.8</ele><time>2026-03-28T12:37:36.151Z</time></trkpt><trkpt lat="45.762295" lon="11.561155"><ele>391.6</ele><time>2026-03-28T12:37:37.151Z</time></trkpt><trkpt lat="45.7623183" lon="11.56104"><ele>389.4</ele><time>2026-03-28T12:37:38.15Z</time></trkpt><trkpt lat="45.7624167" lon="11.560945"><ele>387.2</ele><time>2026-03-28T12:37:40.151Z</time></trkpt><trkpt lat="45.7624817" lon="11.56096"><ele>385.0</ele><time>2026-03-28T12:37:41.151Z</time></trkpt><trkpt lat="45.7625583" lon="11.5610033"><ele>385.0</ele><time>2026-03-28T12:37:42.151Z</time></trkpt><trkpt lat="45.7626533" lon="11.5610667"><ele>385.0</ele><time>2026-03-28T12:37:43.151Z</time></trkpt><trkpt lat="45.762755" lon="11.561125"><ele>385.0</ele><time>2026-03-28T12:37:44.151Z</time></trkpt><trkpt lat="45.76285" lon="11.5611667"><ele>385.0</ele><time>2026-03-28T12:37:45.15Z</time></trkpt><trkpt lat="45.7629483" lon="11.5612"><ele>385.0</ele><time>2026-03-28T12:37:46.151Z</time></trkpt><trkpt lat="45.7630333" lon="11.5611767"><ele>386.0</ele><time>2026-03-28T12:37:47.15Z</time></trkpt><trkpt lat="45.763115" lon="11.5611317"><ele>387.0</ele><time>2026-03-28T12:37:48.151Z</time></trkpt><trkpt lat="45.7631717" lon="11.561055"><ele>388.0</ele><time>2026-03-28T12:37:49.151Z</time></trkpt><trkpt lat="45.7631883" lon="11.5609017"><ele>389.0</ele><time>2026-03-28T12:37:50.151Z</time></trkpt><trkpt lat="45.76318" lon="11.5607583"><ele>390.0</ele><time>2026-03-28T12:37:51.15Z</time></trkpt><trkpt lat="45.7631417" lon="11.560615"><ele>390.0</ele><time>2026-03-28T12:37:52.15Z</time></trkpt><trkpt lat="45.763085" lon="11.5604667"><ele>390.0</ele><time>2026-03-28T12:37:53.151Z</time></trkpt><trkpt lat="45.7630483" lon="11.560325"><ele>390.0</ele><time>2026-03-28T12:37:54.15Z</time></trkpt><trkpt lat="45.763035" lon="11.56018"><ele>390.0</ele><time>2026-03-28T12:37:55.151Z</time></trkpt><trkpt lat="45.7630583" lon="11.5600517"><ele>390.0</ele><time>2026-03-28T12:37:56.151Z</time></trkpt><trkpt lat="45.7631067" lon="11.55995"><ele>389.75</ele><time>2026-03-28T12:37:57.15Z</time></trkpt><trkpt lat="45.7631817" lon="11.55986"><ele>389.5</ele><time>2026-03-28T12:37:58.15Z</time></trkpt><trkpt lat="45.7632667" lon="11.55978"><ele>389.25</ele><time>2026-03-28T12:37:59.151Z</time></trkpt><trkpt lat="45.763365" lon="11.5596717"><ele>389.0</ele><time>2026-03-28T12:38:00.15Z</time></trkpt><trkpt lat="45.76348" lon="11.5595833"><ele>392.25</ele><time>2026-03-28T12:38:01.151Z</time></trkpt><trkpt lat="45.7636" lon="11.5595117"><ele>395.5</ele><time>2026-03-28T12:38:02.151Z</time></trkpt><trkpt lat="45.7637367" lon="11.5594383"><ele>398.75</ele><time>2026-03-28T12:38:03.15Z</time></trkpt><trkpt lat="45.7638683" lon="11.5593633"><ele>402.0</ele><time>2026-03-28T12:38:04.151Z</time></trkpt><trkpt lat="45.763985" lon="11.5592967"><ele>402.0</ele><time>2026-03-28T12:38:05.15Z</time></trkpt><trkpt lat="45.764075" lon="11.5592033"><ele>402.0</ele><time>2026-03-28T12:38:06.151Z</time></trkpt><trkpt lat="45.7641383" lon="11.5590783"><ele>402.0</ele><time>2026-03-28T12:38:07.151Z</time></trkpt><trkpt lat="45.7641717" lon="11.55893"><ele>402.0</ele><time>2026-03-28T12:38:08.151Z</time></trkpt><trkpt lat="45.7641783" lon="11.5587633"><ele>402.0</ele><time>2026-03-28T12:38:09.151Z</time></trkpt><trkpt lat="45.7641833" lon="11.558595"><ele>402.0</ele><time>2026-03-28T12:38:10.151Z</time></trkpt><trkpt lat="45.7642017" lon="11.5584017"><ele>402.0</ele><time>2026-03-28T12:38:11.15Z</time></trkpt><trkpt lat="45.76423" lon="11.5582133"><ele>402.0</ele><time>2026-03-28T12:38:12.15Z</time></trkpt><trkpt lat="45.7642783" lon="11.5580017"><ele>402.0</ele><time>2026-03-28T12:38:13.151Z</time></trkpt><trkpt lat="45.76433" lon="11.5577867"><ele>408.66666666666663</ele><time>2026-03-28T12:38:14.151Z</time></trkpt><trkpt lat="45.7643717" lon="11.5575667"><ele>415.3333333333333</ele><time>2026-03-28T12:38:15.151Z</time></trkpt><trkpt lat="45.764415" lon="11.5573583"><ele>422.0</ele><time>2026-03-28T12:38:16.151Z</time></trkpt><trkpt lat="45.7644617" lon="11.557165"><ele>420.0</ele><time>2026-03-28T12:38:17.151Z</time></trkpt><trkpt lat="45.76452" lon="11.5570083"><ele>418.0</ele><time>2026-03-28T12:38:18.15Z</time></trkpt><trkpt lat="45.7645933" lon="11.55687"><ele>416.0</ele><time>2026-03-28T12:38:19.15Z</time></trkpt><trkpt lat="45.7646517" lon="11.5567533"><ele>414.0</ele><time>2026-03-28T12:38:20.15Z</time></trkpt><trkpt lat="45.7647017" lon="11.556665"><ele>412.0</ele><time>2026-03-28T12:38:21.151Z</time></trkpt><trkpt lat="45.7648067" lon="11.5565833"><ele>412.0</ele><time>2026-03-28T12:38:23.151Z</time></trkpt><trkpt lat="45.7648867" lon="11.556615"><ele>412.0</ele><time>2026-03-28T12:38:25.151Z</time></trkpt><trkpt lat="45.7649017" lon="11.5567433"><ele>412.0</ele><time>2026-03-28T12:38:28.151Z</time></trkpt><trkpt lat="45.7649517" lon="11.5570517"><ele>412.0</ele><time>2026-03-28T12:38:30.15Z</time></trkpt><trkpt lat="45.7649767" lon="11.5572133"><ele>414.0</ele><time>2026-03-28T12:38:31.151Z</time></trkpt><trkpt lat="45.7649917" lon="11.55738"><ele>416.0</ele><time>2026-03-28T12:38:32.15Z</time></trkpt><trkpt lat="45.76501" lon="11.557585"><ele>418.0</ele><time>2026-03-28T12:38:33.15Z</time></trkpt><trkpt lat="45.7650233" lon="11.5577283"><ele>420.0</ele><time>2026-03-28T12:38:34.151Z</time></trkpt><trkpt lat="45.7650417" lon="11.5578467"><ele>422.0</ele><time>2026-03-28T12:38:35.151Z</time></trkpt><trkpt lat="45.7650633" lon="11.55795"><ele>422.66666666666663</ele><time>2026-03-28T12:38:36.151Z</time></trkpt><trkpt lat="45.7651017" lon="11.55806"><ele>423.3333333333333</ele><time>2026-03-28T12:38:37.151Z</time></trkpt><trkpt lat="45.7651467" lon="11.5581717"><ele>424.0</ele><time>2026-03-28T12:38:38.151Z</time></trkpt><trkpt lat="45.76519" lon="11.558275"><ele>424.66666666666663</ele><time>2026-03-28T12:38:39.151Z</time></trkpt><trkpt lat="45.7652233" lon="11.55836"><ele>425.3333333333333</ele><time>2026-03-28T12:38:40.151Z</time></trkpt><trkpt lat="45.765245" lon="11.5584483"><ele>426.0</ele><time>2026-03-28T12:38:41.151Z</time></trkpt><trkpt lat="45.7652517" lon="11.558585"><ele>423.4</ele><time>2026-03-28T12:38:43.151Z</time></trkpt><trkpt lat="45.7652483" lon="11.5586933"><ele>420.8</ele><time>2026-03-28T12:38:44.151Z</time></trkpt><trkpt lat="45.7652417" lon="11.55883"><ele>418.2</ele><time>2026-03-28T12:38:45.151Z</time></trkpt><trkpt lat="45.765235" lon="11.55897"><ele>415.59999999999997</ele><time>2026-03-28T12:38:46.151Z</time></trkpt><trkpt lat="45.76523" lon="11.5591217"><ele>413.0</ele><time>2026-03-28T12:38:47.151Z</time></trkpt><trkpt lat="45.7652183" lon="11.55928"><ele>412.75</ele><time>2026-03-28T12:38:48.15Z</time></trkpt><trkpt lat="45.7652033" lon="11.5594533"><ele>412.5</ele><time>2026-03-28T12:38:49.151Z</time></trkpt><trkpt lat="45.7651917" lon="11.559625"><ele>412.25</ele><time>2026-03-28T12:38:50.151Z</time></trkpt><trkpt lat="45.765175" lon="11.5597917"><ele>412.0</ele><time>2026-03-28T12:38:51.15Z</time></trkpt><trkpt lat="45.7651583" lon="11.5599433"><ele>413.8</ele><time>2026-03-28T12:38:52.151Z</time></trkpt><trkpt lat="45.7651433" lon="11.5600883"><ele>415.6</ele><time>2026-03-28T12:38:53.151Z</time></trkpt><trkpt lat="45.7651433" lon="11.5602133"><ele>417.40000000000003</ele><time>2026-03-28T12:38:54.15Z</time></trkpt><trkpt lat="45.7651617" lon="11.560325"><ele>419.20000000000005</ele><time>2026-03-28T12:38:55.151Z</time></trkpt><trkpt lat="45.7652083" lon="11.5604583"><ele>421.0</ele><time>2026-03-28T12:38:56.151Z</time></trkpt><trkpt lat="45.7652617" lon="11.5606033"><ele>423.25</ele><time>2026-03-28T12:38:57.151Z</time></trkpt><trkpt lat="45.7653117" lon="11.5607567"><ele>425.5</ele><time>2026-03-28T12:38:58.151Z</time></trkpt><trkpt lat="45.76536" lon="11.56091"><ele>427.75</ele><time>2026-03-28T12:38:59.151Z</time></trkpt><trkpt lat="45.765405" lon="11.5610617"><ele>430.0</ele><time>2026-03-28T12:39:00.151Z</time></trkpt><trkpt lat="45.7654467" lon="11.5612117"><ele>432.2</ele><time>2026-03-28T12:39:01.151Z</time></trkpt><trkpt lat="45.7654883" lon="11.5613717"><ele>434.4</ele><time>2026-03-28T12:39:02.151Z</time></trkpt><trkpt lat="45.76553" lon="11.56153"><ele>436.6</ele><time>2026-03-28T12:39:03.15Z</time></trkpt><trkpt lat="45.7655667" lon="11.561675"><ele>438.8</ele><time>2026-03-28T12:39:04.151Z</time></trkpt><trkpt lat="45.7655983" lon="11.56181"><ele>441.0</ele><time>2026-03-28T12:39:05.151Z</time></trkpt><trkpt lat="45.7656117" lon="11.5619333"><ele>443.5</ele><time>2026-03-28T12:39:06.15Z</time></trkpt><trkpt lat="45.7656117" lon="11.5620667"><ele>446.0</ele><time>2026-03-28T12:39:07.15Z</time></trkpt><trkpt lat="45.7656133" lon="11.56219"><ele>448.5</ele><time>2026-03-28T12:39:08.15Z</time></trkpt><trkpt lat="45.7656217" lon="11.5622967"><ele>451.0</ele><time>2026-03-28T12:39:09.151Z</time></trkpt><trkpt lat="45.765635" lon="11.5623983"><ele>453.5</ele><time>2026-03-28T12:39:10.15Z</time></trkpt><trkpt lat="45.7656367" lon="11.562565"><ele>456.0</ele><time>2026-03-28T12:39:12.151Z</time></trkpt><trkpt lat="45.76565" lon="11.562685"><ele>456.0</ele><time>2026-03-28T12:39:15.151Z</time></trkpt><trkpt lat="45.76575" lon="11.5627083"><ele>456.0</ele><time>2026-03-28T12:39:28.151Z</time></trkpt><trkpt lat="45.7658317" lon="11.5628567"><ele>456.0</ele><time>2026-03-28T12:39:30.151Z</time></trkpt><trkpt lat="45.7658933" lon="11.5629783"><ele>456.0</ele><time>2026-03-28T12:39:31.15Z</time></trkpt><trkpt lat="45.7659567" lon="11.5631333"><ele>454.5</ele><time>2026-03-28T12:39:32.151Z</time></trkpt><trkpt lat="45.7660183" lon="11.5632817"><ele>453.0</ele><time>2026-03-28T12:39:33.151Z</time></trkpt><trkpt lat="45.766085" lon="11.5634317"><ele>451.5</ele><time>2026-03-28T12:39:34.151Z</time></trkpt><trkpt lat="45.766155" lon="11.563565"><ele>450.0</ele><time>2026-03-28T12:39:35.151Z</time></trkpt><trkpt lat="45.7662183" lon="11.5636833"><ele>454.0</ele><time>2026-03-28T12:39:36.151Z</time></trkpt><trkpt lat="45.766265" lon="11.5637833"><ele>458.0</ele><time>2026-03-28T12:39:37.151Z</time></trkpt><trkpt lat="45.7663" lon="11.5638683"><ele>462.0</ele><time>2026-03-28T12:39:38.151Z</time></trkpt><trkpt lat="45.7663283" lon="11.5639617"><ele>466.0</ele><time>2026-03-28T12:39:39.151Z</time></trkpt><trkpt lat="45.76637" lon="11.5640667"><ele>470.0</ele><time>2026-03-28T12:39:40.151Z</time></trkpt><trkpt lat="45.7664267" lon="11.5641783"><ele>474.0</ele><time>2026-03-28T12:39:41.151Z</time></trkpt><trkpt lat="45.76649" lon="11.564295"><ele>474.0</ele><time>2026-03-28T12:39:42.15Z</time></trkpt><trkpt lat="45.7665583" lon="11.564415"><ele>474.0</ele><time>2026-03-28T12:39:43.15Z</time></trkpt><trkpt lat="45.7666283" lon="11.5645417"><ele>474.0</ele><time>2026-03-28T12:39:44.151Z</time></trkpt><trkpt lat="45.7666983" lon="11.5646683"><ele>474.0</ele><time>2026-03-28T12:39:45.151Z</time></trkpt><trkpt lat="45.7667717" lon="11.5648133"><ele>471.5</ele><time>2026-03-28T12:39:46.151Z</time></trkpt><trkpt lat="45.7668467" lon="11.5649617"><ele>469.0</ele><time>2026-03-28T12:39:47.15Z</time></trkpt><trkpt lat="45.7669233" lon="11.5651133"><ele>466.5</ele><time>2026-03-28T12:39:48.151Z</time></trkpt><trkpt lat="45.7670033" lon="11.5652717"><ele>464.0</ele><time>2026-03-28T12:39:49.151Z</time></trkpt><trkpt lat="45.7670833" lon="11.56543"><ele>470.0</ele><time>2026-03-28T12:39:50.151Z</time></trkpt><trkpt lat="45.76716" lon="11.5655967"><ele>476.0</ele><time>2026-03-28T12:39:51.151Z</time></trkpt><trkpt lat="45.767245" lon="11.565755"><ele>482.0</ele><time>2026-03-28T12:39:52.151Z</time></trkpt><trkpt lat="45.7673383" lon="11.5659083"><ele>488.0</ele><time>2026-03-28T12:39:53.151Z</time></trkpt><trkpt lat="45.7674433" lon="11.56605"><ele>488.0</ele><time>2026-03-28T12:39:54.151Z</time></trkpt><trkpt lat="45.7675583" lon="11.5661683"><ele>488.0</ele><time>2026-03-28T12:39:55.15Z</time></trkpt><trkpt lat="45.7676733" lon="11.5662783"><ele>488.0</ele><time>2026-03-28T12:39:56.151Z</time></trkpt><trkpt lat="45.7677883" lon="11.5663817"><ele>488.0</ele><time>2026-03-28T12:39:57.151Z</time></trkpt><trkpt lat="45.7678967" lon="11.56648"><ele>488.75</ele><time>2026-03-28T12:39:58.151Z</time></trkpt><trkpt lat="45.7680017" lon="11.5665783"><ele>489.5</ele><time>2026-03-28T12:39:59.15Z</time></trkpt><trkpt lat="45.7681033" lon="11.566665"><ele>490.25</ele><time>2026-03-28T12:40:00.151Z</time></trkpt><trkpt lat="45.7681933" lon="11.5667467"><ele>491.0</ele><time>2026-03-28T12:40:01.15Z</time></trkpt><trkpt lat="45.76828" lon="11.56682"><ele>490.99999999999994</ele><time>2026-03-28T12:40:02.151Z</time></trkpt><trkpt lat="45.7683533" lon="11.5668767"><ele>491.0</ele><time>2026-03-28T12:40:03.151Z</time></trkpt><trkpt lat="45.768425" lon="11.5669267"><ele>491.0</ele><time>2026-03-28T12:40:04.151Z</time></trkpt><trkpt lat="45.768485" lon="11.5669783"><ele>491.0</ele><time>2026-03-28T12:40:05.151Z</time></trkpt><trkpt lat="45.7685517" lon="11.5670383"><ele>490.99999999999994</ele><time>2026-03-28T12:40:08.151Z</time></trkpt><trkpt lat="45.7685283" lon="11.5671317"><ele>491.0</ele><time>2026-03-28T12:40:11.151Z</time></trkpt><trkpt lat="45.7684917" lon="11.5672567"><ele>490.25</ele><time>2026-03-28T12:40:13.151Z</time></trkpt><trkpt lat="45.7683817" lon="11.56737"><ele>489.5</ele><time>2026-03-28T12:40:15.151Z</time></trkpt><trkpt lat="45.7682383" lon="11.5674433"><ele>488.75</ele><time>2026-03-28T12:40:16.151Z</time></trkpt><trkpt lat="45.7681433" lon="11.5675233"><ele>488.0</ele><time>2026-03-28T12:40:17.151Z</time></trkpt><trkpt lat="45.7680583" lon="11.5675967"><ele>487.99999999999994</ele><time>2026-03-28T12:40:18.151Z</time></trkpt><trkpt lat="45.76798" lon="11.5676583"><ele>488.0</ele><time>2026-03-28T12:40:19.151Z</time></trkpt><trkpt lat="45.7679017" lon="11.5677117"><ele>488.0</ele><time>2026-03-28T12:40:20.151Z</time></trkpt><trkpt lat="45.7678267" lon="11.567755"><ele>488.0</ele><time>2026-03-28T12:40:21.15Z</time></trkpt><trkpt lat="45.767755" lon="11.5677983"><ele>487.99999999999994</ele><time>2026-03-28T12:40:22.151Z</time></trkpt><trkpt lat="45.7676833" lon="11.567855"><ele>488.0</ele><time>2026-03-28T12:40:23.151Z</time></trkpt><trkpt lat="45.7676283" lon="11.567905"><ele>489.8333333333333</ele><time>2026-03-28T12:40:24.151Z</time></trkpt><trkpt lat="45.7675633" lon="11.56796"><ele>491.66666666666663</ele><time>2026-03-28T12:40:25.151Z</time></trkpt><trkpt lat="45.7675033" lon="11.5680433"><ele>493.5</ele><time>2026-03-28T12:40:26.151Z</time></trkpt><trkpt lat="45.7674667" lon="11.56813"><ele>495.33333333333337</ele><time>2026-03-28T12:40:27.151Z</time></trkpt><trkpt lat="45.7674133" lon="11.568215"><ele>497.1666666666667</ele><time>2026-03-28T12:40:28.151Z</time></trkpt><trkpt lat="45.7673783" lon="11.568305"><ele>499.0</ele><time>2026-03-28T12:40:29.151Z</time></trkpt><trkpt lat="45.76732" lon="11.5684367"><ele>499.0</ele><time>2026-03-28T12:40:31.149Z</time></trkpt><trkpt lat="45.7672583" lon="11.56856"><ele>499.0</ele><time>2026-03-28T12:40:33.15Z</time></trkpt><trkpt lat="45.76722" lon="11.56873"><ele>499.0</ele><time>2026-03-28T12:40:35.15Z</time></trkpt><trkpt lat="45.7671883" lon="11.5688417"><ele>499.0</ele><time>2026-03-28T12:40:36.149Z</time></trkpt><trkpt lat="45.7671517" lon="11.5689683"><ele>499.0</ele><time>2026-03-28T12:40:37.15Z</time></trkpt><trkpt lat="45.7671133" lon="11.5690933"><ele>500.50000000000006</ele><time>2026-03-28T12:40:38.149Z</time></trkpt><trkpt lat="45.7670767" lon="11.5692117"><ele>502.0</ele><time>2026-03-28T12:40:39.15Z</time></trkpt><trkpt lat="45.7670383" lon="11.56931"><ele>503.5</ele><time>2026-03-28T12:40:40.149Z</time></trkpt><trkpt lat="45.7669867" lon="11.5694217"><ele>505.0</ele><time>2026-03-28T12:40:41.15Z</time></trkpt><trkpt lat="45.766945" lon="11.5695017"><ele>506.50000000000006</ele><time>2026-03-28T12:40:42.15Z</time></trkpt><trkpt lat="45.7669067" lon="11.56959"><ele>508.0</ele><time>2026-03-28T12:40:43.15Z</time></trkpt><trkpt lat="45.7668583" lon="11.569685"><ele>508.00000000000006</ele><time>2026-03-28T12:40:44.15Z</time></trkpt><trkpt lat="45.7668067" lon="11.5697733"><ele>508.0</ele><time>2026-03-28T12:40:45.15Z</time></trkpt><trkpt lat="45.7667567" lon="11.5698583"><ele>508.0</ele><time>2026-03-28T12:40:46.149Z</time></trkpt><trkpt lat="45.7667117" lon="11.5699517"><ele>508.0</ele><time>2026-03-28T12:40:47.15Z</time></trkpt><trkpt lat="45.766675" lon="11.570045"><ele>508.00000000000006</ele><time>2026-03-28T12:40:48.15Z</time></trkpt><trkpt lat="45.7666383" lon="11.5701267"><ele>508.0</ele><time>2026-03-28T12:40:49.15Z</time></trkpt><trkpt lat="45.766545" lon="11.57027"><ele>508.00000000000006</ele><time>2026-03-28T12:40:51.15Z</time></trkpt><trkpt lat="45.7664833" lon="11.5703217"><ele>508.0</ele><time>2026-03-28T12:40:53.15Z</time></trkpt><trkpt lat="45.7664233" lon="11.5703783"><ele>508.0</ele><time>2026-03-28T12:40:55.15Z</time></trkpt><trkpt lat="45.7663333" lon="11.570475"><ele>508.0</ele><time>2026-03-28T12:40:57.15Z</time></trkpt><trkpt lat="45.76628" lon="11.570525"><ele>508.00000000000006</ele><time>2026-03-28T12:40:58.15Z</time></trkpt><trkpt lat="45.76622" lon="11.5705767"><ele>508.0</ele><time>2026-03-28T12:40:59.15Z</time></trkpt><trkpt lat="45.7661583" lon="11.5706217"><ele>507.1666666666667</ele><time>2026-03-28T12:41:00.149Z</time></trkpt><trkpt lat="45.7660917" lon="11.57067"><ele>506.33333333333337</ele><time>2026-03-28T12:41:01.149Z</time></trkpt><trkpt lat="45.7659867" lon="11.5707217"><ele>505.5</ele><time>2026-03-28T12:41:03.15Z</time></trkpt><trkpt lat="45.7658917" lon="11.5707667"><ele>504.66666666666663</ele><time>2026-03-28T12:41:05.15Z</time></trkpt><trkpt lat="45.76583" lon="11.57079"><ele>503.8333333333333</ele><time>2026-03-28T12:41:06.149Z</time></trkpt><trkpt lat="45.7657517" lon="11.5708267"><ele>503.0</ele><time>2026-03-28T12:41:07.149Z</time></trkpt><trkpt lat="45.7656633" lon="11.5708917"><ele>503.0</ele><time>2026-03-28T12:41:08.15Z</time></trkpt><trkpt lat="45.7655667" lon="11.5709833"><ele>502.99999999999994</ele><time>2026-03-28T12:41:09.15Z</time></trkpt><trkpt lat="45.7654733" lon="11.571075"><ele>502.99999999999994</ele><time>2026-03-28T12:41:10.15Z</time></trkpt><trkpt lat="45.7653817" lon="11.5711567"><ele>503.0</ele><time>2026-03-28T12:41:11.15Z</time></trkpt><trkpt lat="45.7653017" lon="11.57123"><ele>503.0</ele><time>2026-03-28T12:41:12.149Z</time></trkpt><trkpt lat="45.7652233" lon="11.5713033"><ele>500.8333333333333</ele><time>2026-03-28T12:41:13.15Z</time></trkpt><trkpt lat="45.765145" lon="11.5713917"><ele>498.66666666666663</ele><time>2026-03-28T12:41:14.15Z</time></trkpt><trkpt lat="45.7650783" lon="11.5714733"><ele>496.5</ele><time>2026-03-28T12:41:15.15Z</time></trkpt><trkpt lat="45.76502" lon="11.5715317"><ele>494.33333333333337</ele><time>2026-03-28T12:41:16.15Z</time></trkpt><trkpt lat="45.764945" lon="11.5715817"><ele>492.1666666666667</ele><time>2026-03-28T12:41:18.149Z</time></trkpt><trkpt lat="45.76487" lon="11.5716117"><ele>490.0</ele><time>2026-03-28T12:41:21.15Z</time></trkpt><trkpt lat="45.7648517" lon="11.5717933"><ele>490.00000000000006</ele><time>2026-03-28T12:41:51.15Z</time></trkpt><trkpt lat="45.7648" lon="11.571895"><ele>490.0</ele><time>2026-03-28T12:42:08.15Z</time></trkpt><trkpt lat="45.76479" lon="11.5720133"><ele>490.0</ele><time>2026-03-28T12:42:11.149Z</time></trkpt><trkpt lat="45.7647817" lon="11.5721117"><ele>490.0</ele><time>2026-03-28T12:42:13.149Z</time></trkpt><trkpt lat="45.7647583" lon="11.5722083"><ele>490.00000000000006</ele><time>2026-03-28T12:42:15.149Z</time></trkpt><trkpt lat="45.7646967" lon="11.57233"><ele>490.0</ele><time>2026-03-28T12:42:17.15Z</time></trkpt><trkpt lat="45.76464" lon="11.5723783"><ele>487.83333333333337</ele><time>2026-03-28T12:42:19.15Z</time></trkpt><trkpt lat="45.7645617" lon="11.5723367"><ele>485.6666666666667</ele><time>2026-03-28T12:42:20.149Z</time></trkpt><trkpt lat="45.76461" lon="11.5724333"><ele>483.5</ele><time>2026-03-28T12:42:22.15Z</time></trkpt><trkpt lat="45.7645567" lon="11.5724983"><ele>481.33333333333337</ele><time>2026-03-28T12:42:25.15Z</time></trkpt><trkpt lat="45.7645267" lon="11.5726533"><ele>479.1666666666667</ele><time>2026-03-28T12:43:21.15Z</time></trkpt><trkpt lat="45.7645867" lon="11.5727317"><ele>477.0</ele><time>2026-03-28T12:43:24.15Z</time></trkpt><trkpt lat="45.76464" lon="11.572825"><ele>475.5</ele><time>2026-03-28T12:43:26.15Z</time></trkpt><trkpt lat="45.7646667" lon="11.5729167"><ele>474.0</ele><time>2026-03-28T12:43:27.149Z</time></trkpt><trkpt lat="45.764695" lon="11.57303"><ele>472.5</ele><time>2026-03-28T12:43:28.15Z</time></trkpt><trkpt lat="45.7646883" lon="11.573135"><ele>471.0</ele><time>2026-03-28T12:43:29.15Z</time></trkpt><trkpt lat="45.7646633" lon="11.5732833"><ele>469.5</ele><time>2026-03-28T12:43:30.15Z</time></trkpt><trkpt lat="45.7646267" lon="11.57341"><ele>468.0</ele><time>2026-03-28T12:43:31.15Z</time></trkpt><trkpt lat="45.7645883" lon="11.5735417"><ele>468.0</ele><time>2026-03-28T12:43:32.15Z</time></trkpt><trkpt lat="45.7645433" lon="11.573665"><ele>468.0</ele><time>2026-03-28T12:43:33.15Z</time></trkpt><trkpt lat="45.764495" lon="11.573795"><ele>468.0</ele><time>2026-03-28T12:43:34.15Z</time></trkpt><trkpt lat="45.7644367" lon="11.5738817"><ele>468.0</ele><time>2026-03-28T12:43:35.15Z</time></trkpt><trkpt lat="45.7643683" lon="11.57394"><ele>468.0</ele><time>2026-03-28T12:43:36.149Z</time></trkpt><trkpt lat="45.7642933" lon="11.5739683"><ele>468.0</ele><time>2026-03-28T12:43:37.15Z</time></trkpt><trkpt lat="45.764195" lon="11.5739633"><ele>468.1666666666667</ele><time>2026-03-28T12:43:39.15Z</time></trkpt><trkpt lat="45.76413" lon="11.5740117"><ele>468.33333333333337</ele><time>2026-03-28T12:43:42.15Z</time></trkpt><trkpt lat="45.7641217" lon="11.5741183"><ele>468.5</ele><time>2026-03-28T12:43:44.15Z</time></trkpt><trkpt lat="45.7641283" lon="11.5742233"><ele>468.6666666666667</ele><time>2026-03-28T12:43:45.149Z</time></trkpt><trkpt lat="45.7641283" lon="11.5743633"><ele>468.83333333333337</ele><time>2026-03-28T12:43:46.15Z</time></trkpt><trkpt lat="45.7641317" lon="11.5745167"><ele>469.0</ele><time>2026-03-28T12:43:47.149Z</time></trkpt><trkpt lat="45.7641367" lon="11.5746933"><ele>469.25</ele><time>2026-03-28T12:43:48.15Z</time></trkpt><trkpt lat="45.764135" lon="11.5748683"><ele>469.5</ele><time>2026-03-28T12:43:49.15Z</time></trkpt><trkpt lat="45.7641233" lon="11.5750433"><ele>469.75</ele><time>2026-03-28T12:43:50.149Z</time></trkpt><trkpt lat="45.7640917" lon="11.5752233"><ele>470.0</ele><time>2026-03-28T12:43:51.15Z</time></trkpt><trkpt lat="45.7640267" lon="11.5753867"><ele>471.25</ele><time>2026-03-28T12:43:52.15Z</time></trkpt><trkpt lat="45.763935" lon="11.575535"><ele>472.5</ele><time>2026-03-28T12:43:53.15Z</time></trkpt><trkpt lat="45.7638483" lon="11.5756967"><ele>473.75</ele><time>2026-03-28T12:43:54.149Z</time></trkpt><trkpt lat="45.7637767" lon="11.575875"><ele>475.0</ele><time>2026-03-28T12:43:55.15Z</time></trkpt><trkpt lat="45.7637317" lon="11.576065"><ele>476.0</ele><time>2026-03-28T12:43:56.15Z</time></trkpt><trkpt lat="45.7636983" lon="11.5762567"><ele>477.0</ele><time>2026-03-28T12:43:57.15Z</time></trkpt><trkpt lat="45.76366" lon="11.5764367"><ele>478.0</ele><time>2026-03-28T12:43:58.15Z</time></trkpt><trkpt lat="45.7636067" lon="11.5766033"><ele>479.0</ele><time>2026-03-28T12:43:59.15Z</time></trkpt><trkpt lat="45.7635367" lon="11.5767667"><ele>479.75</ele><time>2026-03-28T12:44:00.15Z</time></trkpt><trkpt lat="45.7634483" lon="11.5769233"><ele>480.5</ele><time>2026-03-28T12:44:01.15Z</time></trkpt><trkpt lat="45.763345" lon="11.5770633"><ele>481.25</ele><time>2026-03-28T12:44:02.15Z</time></trkpt><trkpt lat="45.763235" lon="11.5771933"><ele>482.0</ele><time>2026-03-28T12:44:03.149Z</time></trkpt><trkpt lat="45.763125" lon="11.5773183"><ele>482.0</ele><time>2026-03-28T12:44:04.149Z</time></trkpt><trkpt lat="45.76303" lon="11.5774483"><ele>482.0</ele><time>2026-03-28T12:44:05.15Z</time></trkpt><trkpt lat="45.7629533" lon="11.57758"><ele>482.0</ele><time>2026-03-28T12:44:06.15Z</time></trkpt><trkpt lat="45.7628883" lon="11.5777217"><ele>482.0</ele><time>2026-03-28T12:44:07.149Z</time></trkpt><trkpt lat="45.7628633" lon="11.57786"><ele>481.0</ele><time>2026-03-28T12:44:08.15Z</time></trkpt><trkpt lat="45.762855" lon="11.5779983"><ele>480.00000000000006</ele><time>2026-03-28T12:44:09.149Z</time></trkpt><trkpt lat="45.762885" lon="11.5781433"><ele>479.00000000000006</ele><time>2026-03-28T12:44:10.149Z</time></trkpt><trkpt lat="45.76294" lon="11.578275"><ele>478.0</ele><time>2026-03-28T12:44:11.149Z</time></trkpt><trkpt lat="45.7629883" lon="11.5783817"><ele>477.0</ele><time>2026-03-28T12:44:12.15Z</time></trkpt><trkpt lat="45.7630233" lon="11.5784667"><ele>477.0</ele><time>2026-03-28T12:44:13.15Z</time></trkpt><trkpt lat="45.763065" lon="11.5785383"><ele>477.00000000000006</ele><time>2026-03-28T12:44:14.15Z</time></trkpt><trkpt lat="45.7631383" lon="11.5785883"><ele>477.00000000000006</ele><time>2026-03-28T12:44:16.15Z</time></trkpt><trkpt lat="45.7632133" lon="11.5785733"><ele>477.0</ele><time>2026-03-28T12:44:18.15Z</time></trkpt><trkpt lat="45.76334" lon="11.5785067"><ele>477.0</ele><time>2026-03-28T12:44:34.15Z</time></trkpt><trkpt lat="45.7634483" lon="11.578445"><ele>477.0</ele><time>2026-03-28T12:44:36.15Z</time></trkpt><trkpt lat="45.7635083" lon="11.5783967"><ele>477.0</ele><time>2026-03-28T12:44:37.15Z</time></trkpt><trkpt lat="45.7635717" lon="11.578385"><ele>477.0</ele><time>2026-03-28T12:44:38.15Z</time></trkpt><trkpt lat="45.7636483" lon="11.5783933"><ele>477.0</ele><time>2026-03-28T12:44:39.15Z</time></trkpt><trkpt lat="45.763745" lon="11.57841"><ele>477.0</ele><time>2026-03-28T12:44:40.149Z</time></trkpt><trkpt lat="45.763845" lon="11.5784317"><ele>477.0</ele><time>2026-03-28T12:44:41.15Z</time></trkpt><trkpt lat="45.7639367" lon="11.5784483"><ele>476.5</ele><time>2026-03-28T12:44:42.15Z</time></trkpt><trkpt lat="45.764015" lon="11.5784567"><ele>476.0</ele><time>2026-03-28T12:44:43.15Z</time></trkpt><trkpt lat="45.76408" lon="11.5784567"><ele>475.5</ele><time>2026-03-28T12:44:44.15Z</time></trkpt><trkpt lat="45.7641883" lon="11.5785133"><ele>475.0</ele><time>2026-03-28T12:44:46.149Z</time></trkpt><trkpt lat="45.7642367" lon="11.57858"><ele>474.5</ele><time>2026-03-28T12:44:47.15Z</time></trkpt><trkpt lat="45.764285" lon="11.57866"><ele>474.0</ele><time>2026-03-28T12:44:48.15Z</time></trkpt><trkpt lat="45.7643433" lon="11.5787567"><ele>470.79999999999995</ele><time>2026-03-28T12:44:49.15Z</time></trkpt><trkpt lat="45.7644133" lon="11.5788433"><ele>467.59999999999997</ele><time>2026-03-28T12:44:50.15Z</time></trkpt><trkpt lat="45.764485" lon="11.5789133"><ele>464.4</ele><time>2026-03-28T12:44:51.149Z</time></trkpt><trkpt lat="45.7645433" lon="11.57896"><ele>461.2</ele><time>2026-03-28T12:44:52.149Z</time></trkpt><trkpt lat="45.7646567" lon="11.5790483"><ele>458.0</ele><time>2026-03-28T12:44:53.15Z</time></trkpt><trkpt lat="45.7647317" lon="11.5790683"><ele>458.0</ele><time>2026-03-28T12:44:54.15Z</time></trkpt><trkpt lat="45.76484" lon="11.5790133"><ele>457.99999999999994</ele><time>2026-03-28T12:44:56.149Z</time></trkpt><trkpt lat="45.764885" lon="11.5789267"><ele>457.99999999999994</ele><time>2026-03-28T12:44:57.15Z</time></trkpt><trkpt lat="45.7649233" lon="11.578805"><ele>458.0</ele><time>2026-03-28T12:44:58.15Z</time></trkpt><trkpt lat="45.7649567" lon="11.57866"><ele>458.0</ele><time>2026-03-28T12:44:59.149Z</time></trkpt><trkpt lat="45.7649867" lon="11.57852"><ele>457.79999999999995</ele><time>2026-03-28T12:45:00.149Z</time></trkpt><trkpt lat="45.7650167" lon="11.5784"><ele>457.59999999999997</ele><time>2026-03-28T12:45:01.149Z</time></trkpt><trkpt lat="45.7650567" lon="11.5782983"><ele>457.40000000000003</ele><time>2026-03-28T12:45:02.15Z</time></trkpt><trkpt lat="45.7651117" lon="11.5781783"><ele>457.20000000000005</ele><time>2026-03-28T12:45:03.15Z</time></trkpt><trkpt lat="45.76517" lon="11.5780633"><ele>457.0</ele><time>2026-03-28T12:45:04.149Z</time></trkpt><trkpt lat="45.7652283" lon="11.5779533"><ele>451.6</ele><time>2026-03-28T12:45:05.149Z</time></trkpt><trkpt lat="45.7652833" lon="11.57784"><ele>446.20000000000005</ele><time>2026-03-28T12:45:06.149Z</time></trkpt><trkpt lat="45.765345" lon="11.5777133"><ele>440.8</ele><time>2026-03-28T12:45:07.15Z</time></trkpt><trkpt lat="45.765405" lon="11.5776067"><ele>435.4</ele><time>2026-03-28T12:45:08.15Z</time></trkpt><trkpt lat="45.7654617" lon="11.5775133"><ele>430.0</ele><time>2026-03-28T12:45:09.15Z</time></trkpt><trkpt lat="45.765505" lon="11.5774267"><ele>430.0</ele><time>2026-03-28T12:45:10.15Z</time></trkpt><trkpt lat="45.7655533" lon="11.57735"><ele>430.0</ele><time>2026-03-28T12:45:11.15Z</time></trkpt><trkpt lat="45.765605" lon="11.5772767"><ele>430.0</ele><time>2026-03-28T12:45:12.149Z</time></trkpt><trkpt lat="45.7656583" lon="11.577205"><ele>430.0</ele><time>2026-03-28T12:45:13.15Z</time></trkpt><trkpt lat="45.76572" lon="11.577145"><ele>430.0</ele><time>2026-03-28T12:45:14.15Z</time></trkpt><trkpt lat="45.7657783" lon="11.5770867"><ele>430.0</ele><time>2026-03-28T12:45:15.15Z</time></trkpt><trkpt lat="45.7658283" lon="11.5769983"><ele>430.0</ele><time>2026-03-28T12:45:17.15Z</time></trkpt><trkpt lat="45.7657983" lon="11.5769117"><ele>429.83333333333337</ele><time>2026-03-28T12:45:20.15Z</time></trkpt><trkpt lat="45.7657183" lon="11.5768717"><ele>429.6666666666667</ele><time>2026-03-28T12:45:22.15Z</time></trkpt><trkpt lat="45.76577" lon="11.576765"><ele>429.5</ele><time>2026-03-28T12:45:28.15Z</time></trkpt><trkpt lat="45.7658367" lon="11.5767333"><ele>429.33333333333337</ele><time>2026-03-28T12:45:29.15Z</time></trkpt><trkpt lat="45.7659067" lon="11.5766933"><ele>429.1666666666667</ele><time>2026-03-28T12:45:30.15Z</time></trkpt><trkpt lat="45.7659717" lon="11.5766683"><ele>429.0</ele><time>2026-03-28T12:45:31.15Z</time></trkpt><trkpt lat="45.7660467" lon="11.576635"><ele>424.6666666666667</ele><time>2026-03-28T12:45:32.15Z</time></trkpt><trkpt lat="45.7661233" lon="11.576615"><ele>420.33333333333337</ele><time>2026-03-28T12:45:33.15Z</time></trkpt><trkpt lat="45.7662017" lon="11.576605"><ele>416.0</ele><time>2026-03-28T12:45:34.149Z</time></trkpt><trkpt lat="45.7662683" lon="11.57661"><ele>411.6666666666667</ele><time>2026-03-28T12:45:35.15Z</time></trkpt><trkpt lat="45.7663567" lon="11.5766833"><ele>407.33333333333337</ele><time>2026-03-28T12:45:37.15Z</time></trkpt><trkpt lat="45.7663533" lon="11.5768483"><ele>403.0</ele><time>2026-03-28T12:45:39.15Z</time></trkpt><trkpt lat="45.766335" lon="11.5769467"><ele>401.2</ele><time>2026-03-28T12:45:40.15Z</time></trkpt><trkpt lat="45.7663067" lon="11.5770533"><ele>399.4</ele><time>2026-03-28T12:45:41.15Z</time></trkpt><trkpt lat="45.76626" lon="11.5771833"><ele>397.59999999999997</ele><time>2026-03-28T12:45:42.149Z</time></trkpt><trkpt lat="45.7661967" lon="11.5773233"><ele>395.79999999999995</ele><time>2026-03-28T12:45:43.15Z</time></trkpt><trkpt lat="45.766135" lon="11.5774933"><ele>394.0</ele><time>2026-03-28T12:45:44.15Z</time></trkpt><trkpt lat="45.76604" lon="11.5776533"><ele>399.75</ele><time>2026-03-28T12:45:45.15Z</time></trkpt><trkpt lat="45.7659783" lon="11.57781"><ele>405.5</ele><time>2026-03-28T12:45:46.149Z</time></trkpt><trkpt lat="45.7659533" lon="11.577975"><ele>411.25</ele><time>2026-03-28T12:45:47.15Z</time></trkpt><trkpt lat="45.7659283" lon="11.5781283"><ele>417.0</ele><time>2026-03-28T12:45:48.15Z</time></trkpt><trkpt lat="45.7659267" lon="11.5782817"><ele>417.0</ele><time>2026-03-28T12:45:49.15Z</time></trkpt><trkpt lat="45.7659117" lon="11.5784417"><ele>417.0</ele><time>2026-03-28T12:45:50.149Z</time></trkpt><trkpt lat="45.7659133" lon="11.5786183"><ele>417.0</ele><time>2026-03-28T12:45:51.15Z</time></trkpt><trkpt lat="45.7659467" lon="11.5787817"><ele>417.0</ele><time>2026-03-28T12:45:52.15Z</time></trkpt><trkpt lat="45.76598" lon="11.5789317"><ele>416.6666666666667</ele><time>2026-03-28T12:45:53.15Z</time></trkpt><trkpt lat="45.7660033" lon="11.5790583"><ele>416.33333333333337</ele><time>2026-03-28T12:45:54.15Z</time></trkpt><trkpt lat="45.7660217" lon="11.579165"><ele>416.0</ele><time>2026-03-28T12:45:55.149Z</time></trkpt><trkpt lat="45.7660467" lon="11.5792583"><ele>415.6666666666667</ele><time>2026-03-28T12:45:57.15Z</time></trkpt><trkpt lat="45.7660083" lon="11.579125"><ele>415.33333333333337</ele><time>2026-03-28T12:46:00.15Z</time></trkpt><trkpt lat="45.7660167" lon="11.5789717"><ele>415.0</ele><time>2026-03-28T12:46:01.149Z</time></trkpt><trkpt lat="45.766025" lon="11.578825"><ele>410.1666666666667</ele><time>2026-03-28T12:46:02.15Z</time></trkpt><trkpt lat="45.7660433" lon="11.5786967"><ele>405.33333333333337</ele><time>2026-03-28T12:46:03.15Z</time></trkpt><trkpt lat="45.7660583" lon="11.5785867"><ele>400.5</ele><time>2026-03-28T12:46:04.15Z</time></trkpt><trkpt lat="45.76612" lon="11.57851"><ele>395.66666666666663</ele><time>2026-03-28T12:46:06.15Z</time></trkpt><trkpt lat="45.7662067" lon="11.5785317"><ele>390.8333333333333</ele><time>2026-03-28T12:46:09.15Z</time></trkpt><trkpt lat="45.7662567" lon="11.5786367"><ele>386.0</ele><time>2026-03-28T12:46:10.15Z</time></trkpt><trkpt lat="45.7663083" lon="11.5787383"><ele>384.75</ele><time>2026-03-28T12:46:11.15Z</time></trkpt><trkpt lat="45.766305" lon="11.578835"><ele>383.5</ele><time>2026-03-28T12:46:13.15Z</time></trkpt><trkpt lat="45.7663233" lon="11.57912"><ele>382.25</ele><time>2026-03-28T12:46:15.15Z</time></trkpt><trkpt lat="45.766325" lon="11.5793383"><ele>381.0</ele><time>2026-03-28T12:46:16.15Z</time></trkpt><trkpt lat="45.766335" lon="11.579495"><ele>380.25</ele><time>2026-03-28T12:46:17.15Z</time></trkpt><trkpt lat="45.7663583" lon="11.5797083"><ele>379.5</ele><time>2026-03-28T12:46:18.15Z</time></trkpt><trkpt lat="45.7663867" lon="11.5798417"><ele>378.75</ele><time>2026-03-28T12:46:19.149Z</time></trkpt><trkpt lat="45.766435" lon="11.57996"><ele>378.0</ele><time>2026-03-28T12:46:20.15Z</time></trkpt><trkpt lat="45.76649" lon="11.5800967"><ele>378.0</ele><time>2026-03-28T12:46:21.149Z</time></trkpt><trkpt lat="45.7665383" lon="11.580225"><ele>378.0</ele><time>2026-03-28T12:46:22.15Z</time></trkpt><trkpt lat="45.7665817" lon="11.5803567"><ele>378.0</ele><time>2026-03-28T12:46:23.15Z</time></trkpt><trkpt lat="45.7666" lon="11.5804767"><ele>378.0</ele><time>2026-03-28T12:46:24.15Z</time></trkpt><trkpt lat="45.7666083" lon="11.5806317"><ele>378.0</ele><time>2026-03-28T12:46:25.15Z</time></trkpt><trkpt lat="45.76659" lon="11.5807817"><ele>376.5</ele><time>2026-03-28T12:46:26.15Z</time></trkpt><trkpt lat="45.7665483" lon="11.580935"><ele>375.0</ele><time>2026-03-28T12:46:27.149Z</time></trkpt><trkpt lat="45.7664717" lon="11.5810867"><ele>373.5</ele><time>2026-03-28T12:46:28.149Z</time></trkpt><trkpt lat="45.766405" lon="11.5812433"><ele>372.0</ele><time>2026-03-28T12:46:29.149Z</time></trkpt><trkpt lat="45.76634" lon="11.5813867"><ele>374.0</ele><time>2026-03-28T12:46:30.15Z</time></trkpt><trkpt lat="45.766265" lon="11.5815117"><ele>376.0</ele><time>2026-03-28T12:46:31.15Z</time></trkpt><trkpt lat="45.766165" lon="11.5816167"><ele>378.0</ele><time>2026-03-28T12:46:32.149Z</time></trkpt><trkpt lat="45.7660717" lon="11.58171"><ele>380.0</ele><time>2026-03-28T12:46:33.15Z</time></trkpt><trkpt lat="45.7659533" lon="11.5817833"><ele>380.0</ele><time>2026-03-28T12:46:34.15Z</time></trkpt><trkpt lat="45.765845" lon="11.581825"><ele>380.0</ele><time>2026-03-28T12:46:35.15Z</time></trkpt><trkpt lat="45.76575" lon="11.5818567"><ele>380.0</ele><time>2026-03-28T12:46:36.15Z</time></trkpt><trkpt lat="45.765655" lon="11.5818983"><ele>380.0</ele><time>2026-03-28T12:46:37.15Z</time></trkpt><trkpt lat="45.7656083" lon="11.58198"><ele>380.0</ele><time>2026-03-28T12:46:38.15Z</time></trkpt><trkpt lat="45.765585" lon="11.58207"><ele>377.2</ele><time>2026-03-28T12:46:39.15Z</time></trkpt><trkpt lat="45.7655633" lon="11.5821883"><ele>374.4</ele><time>2026-03-28T12:46:40.15Z</time></trkpt><trkpt lat="45.76555" lon="11.58234"><ele>371.6</ele><time>2026-03-28T12:46:41.149Z</time></trkpt><trkpt lat="45.76554" lon="11.5825"><ele>368.8</ele><time>2026-03-28T12:46:42.15Z</time></trkpt><trkpt lat="45.7655333" lon="11.582655"><ele>366.0</ele><time>2026-03-28T12:46:43.15Z</time></trkpt><trkpt lat="45.7655233" lon="11.5828117"><ele>366.3333333333333</ele><time>2026-03-28T12:46:44.15Z</time></trkpt><trkpt lat="45.7655117" lon="11.582935"><ele>366.6666666666667</ele><time>2026-03-28T12:46:45.15Z</time></trkpt><trkpt lat="45.76551" lon="11.58305"><ele>367.0</ele><time>2026-03-28T12:46:46.15Z</time></trkpt><trkpt lat="45.7655317" lon="11.5831667"><ele>367.33333333333337</ele><time>2026-03-28T12:46:47.149Z</time></trkpt><trkpt lat="45.76557" lon="11.5832867"><ele>367.6666666666667</ele><time>2026-03-28T12:46:48.149Z</time></trkpt><trkpt lat="45.7656167" lon="11.58339"><ele>368.0</ele><time>2026-03-28T12:46:49.15Z</time></trkpt><trkpt lat="45.7656567" lon="11.5834767"><ele>368.0</ele><time>2026-03-28T12:46:50.15Z</time></trkpt><trkpt lat="45.7656883" lon="11.58362"><ele>368.0</ele><time>2026-03-28T12:46:52.149Z</time></trkpt><trkpt lat="45.7656983" lon="11.5837283"><ele>368.0</ele><time>2026-03-28T12:46:54.149Z</time></trkpt><trkpt lat="45.765725" lon="11.5838817"><ele>368.0</ele><time>2026-03-28T12:46:56.149Z</time></trkpt><trkpt lat="45.7657367" lon="11.5839733"><ele>368.0</ele><time>2026-03-28T12:46:57.15Z</time></trkpt><trkpt lat="45.7657467" lon="11.584085"><ele>368.0</ele><time>2026-03-28T12:46:58.15Z</time></trkpt><trkpt lat="45.7657867" lon="11.5842067"><ele>365.79999999999995</ele><time>2026-03-28T12:46:59.15Z</time></trkpt><trkpt lat="45.7658317" lon="11.584335"><ele>363.6</ele><time>2026-03-28T12:47:00.15Z</time></trkpt><trkpt lat="45.7658817" lon="11.5844833"><ele>361.4</ele><time>2026-03-28T12:47:01.15Z</time></trkpt><trkpt lat="45.765915" lon="11.5846383"><ele>359.20000000000005</ele><time>2026-03-28T12:47:02.149Z</time></trkpt><trkpt lat="45.7659367" lon="11.5847817"><ele>357.0</ele><time>2026-03-28T12:47:03.149Z</time></trkpt><trkpt lat="45.7659383" lon="11.5849117"><ele>354.3333333333333</ele><time>2026-03-28T12:47:04.15Z</time></trkpt><trkpt lat="45.7659233" lon="11.58502"><ele>351.6666666666667</ele><time>2026-03-28T12:47:05.15Z</time></trkpt><trkpt lat="45.7658833" lon="11.5851"><ele>349.0</ele><time>2026-03-28T12:47:06.15Z</time></trkpt><trkpt lat="45.765815" lon="11.5851633"><ele>346.33333333333337</ele><time>2026-03-28T12:47:07.15Z</time></trkpt><trkpt lat="45.765745" lon="11.58522"><ele>343.6666666666667</ele><time>2026-03-28T12:47:08.15Z</time></trkpt><trkpt lat="45.7656733" lon="11.5852633"><ele>341.0</ele><time>2026-03-28T12:47:09.149Z</time></trkpt><trkpt lat="45.7656167" lon="11.5853083"><ele>338.4</ele><time>2026-03-28T12:47:10.15Z</time></trkpt><trkpt lat="45.7655767" lon="11.5854633"><ele>335.8</ele><time>2026-03-28T12:47:20.15Z</time></trkpt><trkpt lat="45.7655783" lon="11.5856117"><ele>333.2</ele><time>2026-03-28T12:47:22.15Z</time></trkpt><trkpt lat="45.7655833" lon="11.5857133"><ele>330.59999999999997</ele><time>2026-03-28T12:47:23.149Z</time></trkpt><trkpt lat="45.765595" lon="11.5858383"><ele>328.0</ele><time>2026-03-28T12:47:24.15Z</time></trkpt><trkpt lat="45.7656083" lon="11.5859867"><ele>328.0</ele><time>2026-03-28T12:47:25.15Z</time></trkpt><trkpt lat="45.765615" lon="11.5861567"><ele>328.0</ele><time>2026-03-28T12:47:26.15Z</time></trkpt><trkpt lat="45.76561" lon="11.58635"><ele>328.0</ele><time>2026-03-28T12:47:27.15Z</time></trkpt><trkpt lat="45.7655917" lon="11.5865367"><ele>328.0</ele><time>2026-03-28T12:47:28.149Z</time></trkpt><trkpt lat="45.7655783" lon="11.5866933"><ele>326.59999999999997</ele><time>2026-03-28T12:47:29.149Z</time></trkpt><trkpt lat="45.7655833" lon="11.5868317"><ele>325.2</ele><time>2026-03-28T12:47:30.15Z</time></trkpt><trkpt lat="45.7656133" lon="11.5869383"><ele>323.8</ele><time>2026-03-28T12:47:31.15Z</time></trkpt><trkpt lat="45.76569" lon="11.58699"><ele>322.4</ele><time>2026-03-28T12:47:32.15Z</time></trkpt><trkpt lat="45.7657883" lon="11.5870217"><ele>321.0</ele><time>2026-03-28T12:47:33.15Z</time></trkpt><trkpt lat="45.76588" lon="11.58706"><ele>319.0</ele><time>2026-03-28T12:47:34.15Z</time></trkpt><trkpt lat="45.7659717" lon="11.5870917"><ele>317.0</ele><time>2026-03-28T12:47:35.15Z</time></trkpt><trkpt lat="45.766055" lon="11.5871067"><ele>315.0</ele><time>2026-03-28T12:47:36.15Z</time></trkpt><trkpt lat="45.7661267" lon="11.58712"><ele>313.0</ele><time>2026-03-28T12:47:37.149Z</time></trkpt><trkpt lat="45.7661967" lon="11.5871967"><ele>311.0</ele><time>2026-03-28T12:47:39.15Z</time></trkpt><trkpt lat="45.76615" lon="11.5872617"><ele>309.0</ele><time>2026-03-28T12:47:40.149Z</time></trkpt><trkpt lat="45.766085" lon="11.5873183"><ele>309.0</ele><time>2026-03-28T12:47:41.15Z</time></trkpt><trkpt lat="45.766005" lon="11.5873783"><ele>309.0</ele><time>2026-03-28T12:47:42.15Z</time></trkpt><trkpt lat="45.7659233" lon="11.5874633"><ele>309.0</ele><time>2026-03-28T12:47:43.15Z</time></trkpt><trkpt lat="45.765835" lon="11.5875367"><ele>309.0</ele><time>2026-03-28T12:47:44.149Z</time></trkpt><trkpt lat="45.7657467" lon="11.5875783"><ele>309.0</ele><time>2026-03-28T12:47:45.149Z</time></trkpt><trkpt lat="45.76565" lon="11.587615"><ele>309.0</ele><time>2026-03-28T12:47:46.15Z</time></trkpt><trkpt lat="45.7655567" lon="11.5876383"><ele>309.0</ele><time>2026-03-28T12:47:47.149Z</time></trkpt><trkpt lat="45.76546" lon="11.5876733"><ele>309.0</ele><time>2026-03-28T12:47:48.15Z</time></trkpt><trkpt lat="45.7653817" lon="11.5877367"><ele>309.0</ele><time>2026-03-28T12:47:49.15Z</time></trkpt><trkpt lat="45.765335" lon="11.587835"><ele>309.0</ele><time>2026-03-28T12:47:50.15Z</time></trkpt><trkpt lat="45.7653033" lon="11.587945"><ele>306.6666666666667</ele><time>2026-03-28T12:47:51.15Z</time></trkpt><trkpt lat="45.7652917" lon="11.5880683"><ele>304.3333333333333</ele><time>2026-03-28T12:47:52.15Z</time></trkpt><trkpt lat="45.7652883" lon="11.588185"><ele>302.0</ele><time>2026-03-28T12:47:53.15Z</time></trkpt><trkpt lat="45.7653033" lon="11.5882967"><ele>299.66666666666663</ele><time>2026-03-28T12:47:54.15Z</time></trkpt><trkpt lat="45.7653333" lon="11.58842"><ele>297.3333333333333</ele><time>2026-03-28T12:47:55.149Z</time></trkpt><trkpt lat="45.7653583" lon="11.5885417"><ele>295.0</ele><time>2026-03-28T12:47:56.15Z</time></trkpt><trkpt lat="45.7653667" lon="11.5886417"><ele>291.0</ele><time>2026-03-28T12:47:57.15Z</time></trkpt><trkpt lat="45.7653683" lon="11.588805"><ele>287.0</ele><time>2026-03-28T12:47:59.15Z</time></trkpt><trkpt lat="45.76536" lon="11.588945"><ele>283.0</ele><time>2026-03-28T12:48:01.149Z</time></trkpt><trkpt lat="45.7653517" lon="11.5890533"><ele>279.0</ele><time>2026-03-28T12:48:04.15Z</time></trkpt><trkpt lat="45.76536" lon="11.5891767"><ele>275.0</ele><time>2026-03-28T12:48:07.15Z</time></trkpt><trkpt lat="45.7653683" lon="11.58934"><ele>275.0</ele><time>2026-03-28T12:48:09.149Z</time></trkpt><trkpt lat="45.76536" lon="11.5894867"><ele>275.0</ele><time>2026-03-28T12:48:11.15Z</time></trkpt><trkpt lat="45.7653033" lon="11.5896667"><ele>275.0</ele><time>2026-03-28T12:48:13.15Z</time></trkpt><trkpt lat="45.765255" lon="11.5897783"><ele>275.0</ele><time>2026-03-28T12:48:14.149Z</time></trkpt><trkpt lat="45.7652117" lon="11.58988"><ele>275.0</ele><time>2026-03-28T12:48:15.149Z</time></trkpt><trkpt lat="45.7651683" lon="11.58998"><ele>275.8</ele><time>2026-03-28T12:48:16.15Z</time></trkpt><trkpt lat="45.7651117" lon="11.590075"><ele>276.6</ele><time>2026-03-28T12:48:17.15Z</time></trkpt><trkpt lat="45.7650433" lon="11.59018"><ele>277.4</ele><time>2026-03-28T12:48:18.15Z</time></trkpt><trkpt lat="45.7649683" lon="11.5902633"><ele>278.2</ele><time>2026-03-28T12:48:19.15Z</time></trkpt><trkpt lat="45.7648767" lon="11.590335"><ele>279.0</ele><time>2026-03-28T12:48:20.15Z</time></trkpt><trkpt lat="45.7647967" lon="11.590345"><ele>274.2</ele><time>2026-03-28T12:48:21.15Z</time></trkpt><trkpt lat="45.7647017" lon="11.5903733"><ele>269.4</ele><time>2026-03-28T12:48:23.15Z</time></trkpt><trkpt lat="45.7647817" lon="11.5904733"><ele>264.6</ele><time>2026-03-28T12:48:26.15Z</time></trkpt><trkpt lat="45.7648833" lon="11.5905067"><ele>259.8</ele><time>2026-03-28T12:48:27.15Z</time></trkpt><trkpt lat="45.765" lon="11.5905383"><ele>255.0</ele><time>2026-03-28T12:48:28.149Z</time></trkpt><trkpt lat="45.765125" lon="11.590535"><ele>250.75</ele><time>2026-03-28T12:48:29.149Z</time></trkpt><trkpt lat="45.7653083" lon="11.5905533"><ele>246.5</ele><time>2026-03-28T12:48:30.15Z</time></trkpt><trkpt lat="45.7654383" lon="11.5905367"><ele>242.25</ele><time>2026-03-28T12:48:31.149Z</time></trkpt><trkpt lat="45.7655467" lon="11.59053"><ele>238.0</ele><time>2026-03-28T12:48:32.15Z</time></trkpt><trkpt lat="45.7656267" lon="11.590525"><ele>238.0</ele><time>2026-03-28T12:48:33.15Z</time></trkpt><trkpt lat="45.76569" lon="11.5905233"><ele>238.0</ele><time>2026-03-28T12:48:34.15Z</time></trkpt><trkpt lat="45.765775" lon="11.59054"><ele>238.0</ele><time>2026-03-28T12:48:37.15Z</time></trkpt><trkpt lat="45.7657883" lon="11.5906283"><ele>238.0</ele><time>2026-03-28T12:48:39.149Z</time></trkpt><trkpt lat="45.765715" lon="11.59083"><ele>238.0</ele><time>2026-03-28T12:48:41.15Z</time></trkpt><trkpt lat="45.76563" lon="11.5909867"><ele>238.0</ele><time>2026-03-28T12:48:42.15Z</time></trkpt><trkpt lat="45.7655367" lon="11.5911317"><ele>238.0</ele><time>2026-03-28T12:48:43.15Z</time></trkpt><trkpt lat="45.7654533" lon="11.5912467"><ele>238.0</ele><time>2026-03-28T12:48:44.15Z</time></trkpt><trkpt lat="45.7653533" lon="11.5913417"><ele>238.0</ele><time>2026-03-28T12:48:45.15Z</time></trkpt><trkpt lat="45.765265" lon="11.5914067"><ele>236.83333333333331</ele><time>2026-03-28T12:48:46.149Z</time></trkpt><trkpt lat="45.7651933" lon="11.5914517"><ele>235.66666666666666</ele><time>2026-03-28T12:48:47.149Z</time></trkpt><trkpt lat="45.7651317" lon="11.591485"><ele>234.5</ele><time>2026-03-28T12:48:48.15Z</time></trkpt><trkpt lat="45.76506" lon="11.5915083"><ele>233.33333333333331</ele><time>2026-03-28T12:48:50.149Z</time></trkpt><trkpt lat="45.7651367" lon="11.5915567"><ele>232.16666666666666</ele><time>2026-03-28T12:48:53.149Z</time></trkpt><trkpt lat="45.7652033" lon="11.591565"><ele>231.0</ele><time>2026-03-28T12:48:54.15Z</time></trkpt><trkpt lat="45.7653083" lon="11.5916217"><ele>230.60000000000002</ele><time>2026-03-28T12:48:56.15Z</time></trkpt><trkpt lat="45.76536" lon="11.59177"><ele>230.20000000000002</ele><time>2026-03-28T12:48:58.15Z</time></trkpt><trkpt lat="45.765385" lon="11.591925"><ele>229.79999999999998</ele><time>2026-03-28T12:49:00.15Z</time></trkpt><trkpt lat="45.765385" lon="11.5920617"><ele>229.39999999999998</ele><time>2026-03-28T12:49:01.149Z</time></trkpt><trkpt lat="45.765395" lon="11.5922217"><ele>229.0</ele><time>2026-03-28T12:49:03.15Z</time></trkpt><trkpt lat="45.7654467" lon="11.59231"><ele>229.0</ele><time>2026-03-28T12:49:05.149Z</time></trkpt><trkpt lat="45.7655467" lon="11.592335"><ele>228.99999999999997</ele><time>2026-03-28T12:49:07.149Z</time></trkpt><trkpt lat="45.7656217" lon="11.59231"><ele>228.99999999999997</ele><time>2026-03-28T12:49:08.149Z</time></trkpt><trkpt lat="45.76571" lon="11.5922717"><ele>229.0</ele><time>2026-03-28T12:49:09.149Z</time></trkpt><trkpt lat="45.7658" lon="11.5922483"><ele>229.0</ele><time>2026-03-28T12:49:10.15Z</time></trkpt><trkpt lat="45.7658883" lon="11.5922467"><ele>229.0</ele><time>2026-03-28T12:49:11.15Z</time></trkpt><trkpt lat="45.7659633" lon="11.592265"><ele>228.99999999999997</ele><time>2026-03-28T12:49:12.15Z</time></trkpt><trkpt lat="45.7660283" lon="11.59232"><ele>228.99999999999997</ele><time>2026-03-28T12:49:13.15Z</time></trkpt><trkpt lat="45.7660733" lon="11.5924383"><ele>229.0</ele><time>2026-03-28T12:49:14.149Z</time></trkpt><trkpt lat="45.7661133" lon="11.59264"><ele>229.0</ele><time>2026-03-28T12:49:15.15Z</time></trkpt><trkpt lat="45.7661533" lon="11.59284"><ele>230.5</ele><time>2026-03-28T12:49:16.149Z</time></trkpt><trkpt lat="45.7661983" lon="11.5930283"><ele>232.0</ele><time>2026-03-28T12:49:17.149Z</time></trkpt><trkpt lat="45.7662483" lon="11.5932117"><ele>233.5</ele><time>2026-03-28T12:49:18.149Z</time></trkpt><trkpt lat="45.766295" lon="11.5933767"><ele>235.0</ele><time>2026-03-28T12:49:19.15Z</time></trkpt><trkpt lat="45.7663617" lon="11.593505"><ele>235.0</ele><time>2026-03-28T12:49:20.15Z</time></trkpt><trkpt lat="45.7664583" lon="11.5936367"><ele>235.0</ele><time>2026-03-28T12:49:21.15Z</time></trkpt><trkpt lat="45.7665683" lon="11.5937517"><ele>235.0</ele><time>2026-03-28T12:49:22.15Z</time></trkpt><trkpt lat="45.7666817" lon="11.5938683"><ele>235.0</ele><time>2026-03-28T12:49:23.15Z</time></trkpt><trkpt lat="45.7667933" lon="11.59398"><ele>238.25</ele><time>2026-03-28T12:49:24.15Z</time></trkpt><trkpt lat="45.76691" lon="11.594095"><ele>241.5</ele><time>2026-03-28T12:49:25.149Z</time></trkpt><trkpt lat="45.7670267" lon="11.5941883"><ele>244.75</ele><time>2026-03-28T12:49:26.15Z</time></trkpt><trkpt lat="45.7671433" lon="11.594285"><ele>248.0</ele><time>2026-03-28T12:49:27.15Z</time></trkpt><trkpt lat="45.76726" lon="11.5943867"><ele>248.0</ele><time>2026-03-28T12:49:28.15Z</time></trkpt><trkpt lat="45.76738" lon="11.5944683"><ele>248.0</ele><time>2026-03-28T12:49:29.15Z</time></trkpt><trkpt lat="45.7675117" lon="11.594545"><ele>248.0</ele><time>2026-03-28T12:49:30.15Z</time></trkpt><trkpt lat="45.76764" lon="11.594615"><ele>248.0</ele><time>2026-03-28T12:49:31.15Z</time></trkpt><trkpt lat="45.7677667" lon="11.594685"><ele>249.25</ele><time>2026-03-28T12:49:32.149Z</time></trkpt><trkpt lat="45.76788" lon="11.5947617"><ele>250.5</ele><time>2026-03-28T12:49:33.15Z</time></trkpt><trkpt lat="45.767975" lon="11.5948533"><ele>251.75</ele><time>2026-03-28T12:49:34.15Z</time></trkpt><trkpt lat="45.76804" lon="11.5949983"><ele>253.0</ele><time>2026-03-28T12:49:35.15Z</time></trkpt><trkpt lat="45.768115" lon="11.59515"><ele>253.0</ele><time>2026-03-28T12:49:36.15Z</time></trkpt><trkpt lat="45.7682083" lon="11.5952867"><ele>253.0</ele><time>2026-03-28T12:49:37.15Z</time></trkpt><trkpt lat="45.7683367" lon="11.59539"><ele>253.0</ele><time>2026-03-28T12:49:38.15Z</time></trkpt><trkpt lat="45.7684717" lon="11.5954617"><ele>253.0</ele><time>2026-03-28T12:49:39.15Z</time></trkpt><trkpt lat="45.7686133" lon="11.595545"><ele>254.33333333333331</ele><time>2026-03-28T12:49:40.15Z</time></trkpt><trkpt lat="45.76874" lon="11.59566"><ele>255.66666666666669</ele><time>2026-03-28T12:49:41.15Z</time></trkpt><trkpt lat="45.768865" lon="11.5957933"><ele>257.0</ele><time>2026-03-28T12:49:42.149Z</time></trkpt><trkpt lat="45.768985" lon="11.5959333"><ele>257.0</ele><time>2026-03-28T12:49:43.149Z</time></trkpt><trkpt lat="45.7690917" lon="11.596095"><ele>257.0</ele><time>2026-03-28T12:49:44.15Z</time></trkpt><trkpt lat="45.7691733" lon="11.596305"><ele>257.0</ele><time>2026-03-28T12:49:45.149Z</time></trkpt><trkpt lat="45.769245" lon="11.59652"><ele>256.0</ele><time>2026-03-28T12:49:46.149Z</time></trkpt><trkpt lat="45.76933" lon="11.5967417"><ele>255.0</ele><time>2026-03-28T12:49:47.15Z</time></trkpt><trkpt lat="45.769415" lon="11.5969367"><ele>254.0</ele><time>2026-03-28T12:49:48.15Z</time></trkpt><trkpt lat="45.76952" lon="11.5971083"><ele>257.6666666666667</ele><time>2026-03-28T12:49:49.15Z</time></trkpt><trkpt lat="45.7696267" lon="11.59729"><ele>261.3333333333333</ele><time>2026-03-28T12:49:50.149Z</time></trkpt><trkpt lat="45.769745" lon="11.5974617"><ele>265.0</ele><time>2026-03-28T12:49:51.15Z</time></trkpt><trkpt lat="45.76985" lon="11.5976283"><ele>265.0</ele><time>2026-03-28T12:49:52.15Z</time></trkpt><trkpt lat="45.769945" lon="11.5977967"><ele>265.0</ele><time>2026-03-28T12:49:53.15Z</time></trkpt><trkpt lat="45.7700317" lon="11.5979867"><ele>265.0</ele><time>2026-03-28T12:49:54.15Z</time></trkpt><trkpt lat="45.7701067" lon="11.5981667"><ele>264.0</ele><time>2026-03-28T12:49:55.15Z</time></trkpt><trkpt lat="45.77018" lon="11.5983383"><ele>263.0</ele><time>2026-03-28T12:49:56.15Z</time></trkpt><trkpt lat="45.770255" lon="11.5984983"><ele>262.0</ele><time>2026-03-28T12:49:57.149Z</time></trkpt><trkpt lat="45.7703367" lon="11.5986583"><ele>261.0</ele><time>2026-03-28T12:49:58.149Z</time></trkpt><trkpt lat="45.7704217" lon="11.5987867"><ele>262.8</ele><time>2026-03-28T12:49:59.15Z</time></trkpt><trkpt lat="45.7705167" lon="11.5988883"><ele>264.6</ele><time>2026-03-28T12:50:00.15Z</time></trkpt><trkpt lat="45.7706167" lon="11.5989533"><ele>266.4</ele><time>2026-03-28T12:50:01.15Z</time></trkpt><trkpt lat="45.77072" lon="11.5989967"><ele>268.2</ele><time>2026-03-28T12:50:02.15Z</time></trkpt><trkpt lat="45.7708117" lon="11.599025"><ele>270.0</ele><time>2026-03-28T12:50:03.15Z</time></trkpt><trkpt lat="45.770885" lon="11.5990617"><ele>270.0</ele><time>2026-03-28T12:50:04.149Z</time></trkpt><trkpt lat="45.7709417" lon="11.599115"><ele>270.0</ele><time>2026-03-28T12:50:05.149Z</time></trkpt><trkpt lat="45.771015" lon="11.599245"><ele>270.0</ele><time>2026-03-28T12:50:07.149Z</time></trkpt><trkpt lat="45.7710467" lon="11.5994267"><ele>270.0</ele><time>2026-03-28T12:50:09.15Z</time></trkpt><trkpt lat="45.7710617" lon="11.5995233"><ele>270.0</ele><time>2026-03-28T12:50:10.15Z</time></trkpt><trkpt lat="45.7710933" lon="11.5996933"><ele>271.8</ele><time>2026-03-28T12:50:12.15Z</time></trkpt><trkpt lat="45.7711233" lon="11.5998433"><ele>273.6</ele><time>2026-03-28T12:50:14.149Z</time></trkpt><trkpt lat="45.77117" lon="11.59997"><ele>275.4</ele><time>2026-03-28T12:50:16.15Z</time></trkpt><trkpt lat="45.7712433" lon="11.6001017"><ele>277.2</ele><time>2026-03-28T12:50:18.15Z</time></trkpt><trkpt lat="45.7713283" lon="11.600185"><ele>279.0</ele><time>2026-03-28T12:50:20.15Z</time></trkpt><trkpt lat="45.7713767" lon="11.6002467"><ele>279.0</ele><time>2026-03-28T12:50:21.15Z</time></trkpt><trkpt lat="45.77143" lon="11.6003017"><ele>279.0</ele><time>2026-03-28T12:50:22.15Z</time></trkpt><trkpt lat="45.77148" lon="11.6003817"><ele>279.0</ele><time>2026-03-28T12:50:23.15Z</time></trkpt><trkpt lat="45.771525" lon="11.600485"><ele>279.0</ele><time>2026-03-28T12:50:24.149Z</time></trkpt><trkpt lat="45.7715617" lon="11.60057"><ele>279.0</ele><time>2026-03-28T12:50:25.15Z</time></trkpt><trkpt lat="45.7716233" lon="11.6006733"><ele>279.0</ele><time>2026-03-28T12:50:26.15Z</time></trkpt><trkpt lat="45.7717067" lon="11.6007667"><ele>279.4</ele><time>2026-03-28T12:50:27.15Z</time></trkpt><trkpt lat="45.7718017" lon="11.6008417"><ele>279.79999999999995</ele><time>2026-03-28T12:50:28.149Z</time></trkpt><trkpt lat="45.7718833" lon="11.6009117"><ele>280.20000000000005</ele><time>2026-03-28T12:50:29.15Z</time></trkpt><trkpt lat="45.7719483" lon="11.6009783"><ele>280.6</ele><time>2026-03-28T12:50:30.15Z</time></trkpt><trkpt lat="45.7719967" lon="11.6010833"><ele>281.0</ele><time>2026-03-28T12:50:31.15Z</time></trkpt><trkpt lat="45.772035" lon="11.601225"><ele>284.5</ele><time>2026-03-28T12:50:33.15Z</time></trkpt><trkpt lat="45.771915" lon="11.6014033"><ele>288.0</ele><time>2026-03-28T12:50:36.15Z</time></trkpt><trkpt lat="45.77184" lon="11.6015417"><ele>291.5</ele><time>2026-03-28T12:50:37.15Z</time></trkpt><trkpt lat="45.7717433" lon="11.6016783"><ele>295.0</ele><time>2026-03-28T12:50:38.15Z</time></trkpt><trkpt lat="45.7716033" lon="11.6017883"><ele>295.0</ele><time>2026-03-28T12:50:39.15Z</time></trkpt><trkpt lat="45.771485" lon="11.6018767"><ele>295.0</ele><time>2026-03-28T12:50:40.15Z</time></trkpt><trkpt lat="45.771395" lon="11.6019883"><ele>295.0</ele><time>2026-03-28T12:50:41.15Z</time></trkpt><trkpt lat="45.771335" lon="11.6021317"><ele>295.0</ele><time>2026-03-28T12:50:42.15Z</time></trkpt><trkpt lat="45.7712967" lon="11.6022983"><ele>298.2</ele><time>2026-03-28T12:50:43.149Z</time></trkpt><trkpt lat="45.7712733" lon="11.602465"><ele>301.4</ele><time>2026-03-28T12:50:44.15Z</time></trkpt><trkpt lat="45.7712567" lon="11.6026217"><ele>304.6</ele><time>2026-03-28T12:50:45.15Z</time></trkpt><trkpt lat="45.7712283" lon="11.6027567"><ele>307.8</ele><time>2026-03-28T12:50:46.15Z</time></trkpt><trkpt lat="45.771185" lon="11.6028633"><ele>311.0</ele><time>2026-03-28T12:50:47.149Z</time></trkpt><trkpt lat="45.7711383" lon="11.60297"><ele>314.20000000000005</ele><time>2026-03-28T12:50:48.149Z</time></trkpt><trkpt lat="45.77111" lon="11.6030567"><ele>317.40000000000003</ele><time>2026-03-28T12:50:49.15Z</time></trkpt><trkpt lat="45.7711233" lon="11.6031867"><ele>320.6</ele><time>2026-03-28T12:50:52.15Z</time></trkpt><trkpt lat="45.7711917" lon="11.603105"><ele>323.8</ele><time>2026-03-28T12:50:55.15Z</time></trkpt><trkpt lat="45.7713067" lon="11.6030067"><ele>327.0</ele><time>2026-03-28T12:50:56.15Z</time></trkpt><trkpt lat="45.77153" lon="11.602855"><ele>325.3333333333333</ele><time>2026-03-28T12:50:57.149Z</time></trkpt><trkpt lat="45.7717117" lon="11.6027517"><ele>323.66666666666663</ele><time>2026-03-28T12:50:58.149Z</time></trkpt><trkpt lat="45.7718617" lon="11.6026433"><ele>322.0</ele><time>2026-03-28T12:50:59.15Z</time></trkpt><trkpt lat="45.7719883" lon="11.602525"><ele>322.0</ele><time>2026-03-28T12:51:00.149Z</time></trkpt><trkpt lat="45.7721" lon="11.6024183"><ele>322.0</ele><time>2026-03-28T12:51:01.15Z</time></trkpt><trkpt lat="45.7721933" lon="11.6023417"><ele>322.0</ele><time>2026-03-28T12:51:02.149Z</time></trkpt><trkpt lat="45.772285" lon="11.6023067"><ele>322.0</ele><time>2026-03-28T12:51:03.15Z</time></trkpt><trkpt lat="45.7724083" lon="11.602295"><ele>322.0</ele><time>2026-03-28T12:51:04.15Z</time></trkpt><trkpt lat="45.7725217" lon="11.6023"><ele>322.0</ele><time>2026-03-28T12:51:05.15Z</time></trkpt><trkpt lat="45.7726383" lon="11.6023333"><ele>322.0</ele><time>2026-03-28T12:51:06.15Z</time></trkpt><trkpt lat="45.772725" lon="11.6024817"><ele>322.0</ele><time>2026-03-28T12:51:07.15Z</time></trkpt><trkpt lat="45.7728033" lon="11.6026567"><ele>326.0</ele><time>2026-03-28T12:51:08.15Z</time></trkpt><trkpt lat="45.772875" lon="11.6028317"><ele>330.0</ele><time>2026-03-28T12:51:09.15Z</time></trkpt><trkpt lat="45.7729367" lon="11.6029667"><ele>334.0</ele><time>2026-03-28T12:51:10.15Z</time></trkpt><trkpt lat="45.773005" lon="11.6030967"><ele>338.0</ele><time>2026-03-28T12:51:11.15Z</time></trkpt><trkpt lat="45.7730517" lon="11.6031767"><ele>342.0</ele><time>2026-03-28T12:51:12.15Z</time></trkpt><trkpt lat="45.773125" lon="11.603265"><ele>342.0</ele><time>2026-03-28T12:51:14.149Z</time></trkpt><trkpt lat="45.7731667" lon="11.6031633"><ele>342.0</ele><time>2026-03-28T12:51:17.15Z</time></trkpt><trkpt lat="45.7732067" lon="11.6030533"><ele>342.0</ele><time>2026-03-28T12:51:19.15Z</time></trkpt><trkpt lat="45.773275" lon="11.60314"><ele>342.0</ele><time>2026-03-28T12:51:22.149Z</time></trkpt><trkpt lat="45.7732983" lon="11.6032867"><ele>342.0</ele><time>2026-03-28T12:51:23.15Z</time></trkpt><trkpt lat="45.7733433" lon="11.6035817"><ele>346.0</ele><time>2026-03-28T12:51:24.149Z</time></trkpt><trkpt lat="45.77339" lon="11.6038883"><ele>350.0</ele><time>2026-03-28T12:51:25.15Z</time></trkpt><trkpt lat="45.773415" lon="11.6040917"><ele>354.0</ele><time>2026-03-28T12:51:26.15Z</time></trkpt><trkpt lat="45.77343" lon="11.6042667"><ele>354.0</ele><time>2026-03-28T12:51:27.15Z</time></trkpt><trkpt lat="45.7734317" lon="11.6043983"><ele>354.0</ele><time>2026-03-28T12:51:28.149Z</time></trkpt><trkpt lat="45.773455" lon="11.6046483"><ele>354.0</ele><time>2026-03-28T12:51:29.149Z</time></trkpt><trkpt lat="45.773455" lon="11.6047817"><ele>354.0</ele><time>2026-03-28T12:51:30.15Z</time></trkpt><trkpt lat="45.7734583" lon="11.60488"><ele>354.0</ele><time>2026-03-28T12:51:31.15Z</time></trkpt><trkpt lat="45.7734067" lon="11.605015"><ele>354.6666666666667</ele><time>2026-03-28T12:51:33.149Z</time></trkpt><trkpt lat="45.7733783" lon="11.6051283"><ele>355.3333333333333</ele><time>2026-03-28T12:51:35.15Z</time></trkpt><trkpt lat="45.77338" lon="11.6052967"><ele>356.0</ele><time>2026-03-28T12:51:37.15Z</time></trkpt><trkpt lat="45.7734217" lon="11.605385"><ele>356.66666666666663</ele><time>2026-03-28T12:51:39.149Z</time></trkpt><trkpt lat="45.7735083" lon="11.6054033"><ele>357.3333333333333</ele><time>2026-03-28T12:51:42.15Z</time></trkpt><trkpt lat="45.773565" lon="11.6053583"><ele>358.0</ele><time>2026-03-28T12:51:44.15Z</time></trkpt><trkpt lat="45.7736217" lon="11.6052983"><ele>359.14285714285717</ele><time>2026-03-28T12:51:47.149Z</time></trkpt><trkpt lat="45.7736633" lon="11.6052267"><ele>360.2857142857143</ele><time>2026-03-28T12:51:49.15Z</time></trkpt><trkpt lat="45.7737117" lon="11.6051567"><ele>361.42857142857144</ele><time>2026-03-28T12:51:51.149Z</time></trkpt><trkpt lat="45.7737667" lon="11.605105"><ele>362.57142857142856</ele><time>2026-03-28T12:51:53.15Z</time></trkpt><trkpt lat="45.7738417" lon="11.60506"><ele>363.7142857142857</ele><time>2026-03-28T12:51:55.15Z</time></trkpt><trkpt lat="45.7739267" lon="11.605025"><ele>364.8571428571429</ele><time>2026-03-28T12:51:57.15Z</time></trkpt><trkpt lat="45.7739983" lon="11.60498"><ele>366.0</ele><time>2026-03-28T12:51:59.15Z</time></trkpt><trkpt lat="45.7740417" lon="11.60487"><ele>366.0</ele><time>2026-03-28T12:52:02.149Z</time></trkpt><trkpt lat="45.77408" lon="11.604785"><ele>366.0</ele><time>2026-03-28T12:52:04.15Z</time></trkpt><trkpt lat="45.77413" lon="11.604695"><ele>366.0</ele><time>2026-03-28T12:52:06.15Z</time></trkpt><trkpt lat="45.774195" lon="11.6045833"><ele>366.0</ele><time>2026-03-28T12:52:08.15Z</time></trkpt><trkpt lat="45.774265" lon="11.6044767"><ele>366.0</ele><time>2026-03-28T12:52:10.149Z</time></trkpt><trkpt lat="45.77432" lon="11.6044267"><ele>366.0</ele><time>2026-03-28T12:52:11.149Z</time></trkpt><trkpt lat="45.774385" lon="11.6043883"><ele>370.0</ele><time>2026-03-28T12:52:12.149Z</time></trkpt><trkpt lat="45.7744667" lon="11.604355"><ele>374.0</ele><time>2026-03-28T12:52:13.15Z</time></trkpt><trkpt lat="45.77457" lon="11.6043283"><ele>378.0</ele><time>2026-03-28T12:52:14.15Z</time></trkpt><trkpt lat="45.77468" lon="11.604315"><ele>382.0</ele><time>2026-03-28T12:52:15.15Z</time></trkpt><trkpt lat="45.7747767" lon="11.60429"><ele>386.0</ele><time>2026-03-28T12:52:16.15Z</time></trkpt><trkpt lat="45.774855" lon="11.6042567"><ele>385.99999999999994</ele><time>2026-03-28T12:52:17.15Z</time></trkpt><trkpt lat="45.7749217" lon="11.604225"><ele>386.0</ele><time>2026-03-28T12:52:18.15Z</time></trkpt><trkpt lat="45.7749983" lon="11.6042283"><ele>386.0</ele><time>2026-03-28T12:52:20.149Z</time></trkpt><trkpt lat="45.7749583" lon="11.60432"><ele>386.0</ele><time>2026-03-28T12:52:22.15Z</time></trkpt><trkpt lat="45.77487" lon="11.6043983"><ele>385.99999999999994</ele><time>2026-03-28T12:52:24.149Z</time></trkpt><trkpt lat="45.77481" lon="11.6044533"><ele>386.0</ele><time>2026-03-28T12:52:25.15Z</time></trkpt><trkpt lat="45.77475" lon="11.6045683"><ele>391.75</ele><time>2026-03-28T12:52:26.15Z</time></trkpt><trkpt lat="45.7746833" lon="11.6047633"><ele>397.5</ele><time>2026-03-28T12:52:27.15Z</time></trkpt><trkpt lat="45.7746217" lon="11.604975"><ele>403.25</ele><time>2026-03-28T12:52:28.15Z</time></trkpt><trkpt lat="45.77457" lon="11.6051583"><ele>409.0</ele><time>2026-03-28T12:52:29.149Z</time></trkpt><trkpt lat="45.7745267" lon="11.60534"><ele>411.2</ele><time>2026-03-28T12:52:30.15Z</time></trkpt><trkpt lat="45.7744917" lon="11.6054983"><ele>413.4</ele><time>2026-03-28T12:52:31.149Z</time></trkpt><trkpt lat="45.77448" lon="11.6056517"><ele>415.6</ele><time>2026-03-28T12:52:32.15Z</time></trkpt><trkpt lat="45.7744967" lon="11.6057933"><ele>417.8</ele><time>2026-03-28T12:52:33.15Z</time></trkpt><trkpt lat="45.7745333" lon="11.605905"><ele>420.0</ele><time>2026-03-28T12:52:34.149Z</time></trkpt><trkpt lat="45.77457" lon="11.6060233"><ele>420.0</ele><time>2026-03-28T12:52:35.15Z</time></trkpt><trkpt lat="45.7746017" lon="11.606155"><ele>420.0</ele><time>2026-03-28T12:52:36.15Z</time></trkpt><trkpt lat="45.7746067" lon="11.6062783"><ele>420.0</ele><time>2026-03-28T12:52:37.15Z</time></trkpt><trkpt lat="45.7745967" lon="11.606425"><ele>420.0</ele><time>2026-03-28T12:52:38.149Z</time></trkpt><trkpt lat="45.77459" lon="11.6065817"><ele>420.0</ele><time>2026-03-28T12:52:39.15Z</time></trkpt><trkpt lat="45.77459" lon="11.606755"><ele>422.0</ele><time>2026-03-28T12:52:40.15Z</time></trkpt><trkpt lat="45.77459" lon="11.6069317"><ele>424.0</ele><time>2026-03-28T12:52:41.15Z</time></trkpt><trkpt lat="45.774605" lon="11.6071083"><ele>426.0</ele><time>2026-03-28T12:52:42.149Z</time></trkpt><trkpt lat="45.7746083" lon="11.607275"><ele>428.0</ele><time>2026-03-28T12:52:43.15Z</time></trkpt><trkpt lat="45.774635" lon="11.6074333"><ele>429.2</ele><time>2026-03-28T12:52:44.149Z</time></trkpt><trkpt lat="45.7746733" lon="11.607585"><ele>430.4</ele><time>2026-03-28T12:52:45.149Z</time></trkpt><trkpt lat="45.774705" lon="11.6077233"><ele>431.59999999999997</ele><time>2026-03-28T12:52:46.15Z</time></trkpt><trkpt lat="45.774715" lon="11.6078717"><ele>432.79999999999995</ele><time>2026-03-28T12:52:47.15Z</time></trkpt><trkpt lat="45.77469" lon="11.6080233"><ele>434.0</ele><time>2026-03-28T12:52:48.15Z</time></trkpt><trkpt lat="45.7746567" lon="11.6081567"><ele>435.0</ele><time>2026-03-28T12:52:49.15Z</time></trkpt><trkpt lat="45.7746317" lon="11.6082833"><ele>436.0</ele><time>2026-03-28T12:52:50.15Z</time></trkpt><trkpt lat="45.7746167" lon="11.608415"><ele>437.0</ele><time>2026-03-28T12:52:51.15Z</time></trkpt><trkpt lat="45.77461" lon="11.6085483"><ele>438.0</ele><time>2026-03-28T12:52:52.15Z</time></trkpt><trkpt lat="45.7746233" lon="11.6086967"><ele>439.0</ele><time>2026-03-28T12:52:53.15Z</time></trkpt><trkpt lat="45.7746417" lon="11.608835"><ele>439.79999999999995</ele><time>2026-03-28T12:52:54.15Z</time></trkpt><trkpt lat="45.7746667" lon="11.6089633"><ele>440.59999999999997</ele><time>2026-03-28T12:52:55.15Z</time></trkpt><trkpt lat="45.77467" lon="11.6091"><ele>441.4</ele><time>2026-03-28T12:52:56.15Z</time></trkpt><trkpt lat="45.7746817" lon="11.609255"><ele>442.2</ele><time>2026-03-28T12:52:57.149Z</time></trkpt><trkpt lat="45.7747017" lon="11.6094067"><ele>443.0</ele><time>2026-03-28T12:52:58.15Z</time></trkpt><trkpt lat="45.7747133" lon="11.6095467"><ele>443.16666666666663</ele><time>2026-03-28T12:52:59.15Z</time></trkpt><trkpt lat="45.7747217" lon="11.6096733"><ele>443.3333333333333</ele><time>2026-03-28T12:53:00.15Z</time></trkpt><trkpt lat="45.77473" lon="11.6097983"><ele>443.5</ele><time>2026-03-28T12:53:01.15Z</time></trkpt><trkpt lat="45.7747383" lon="11.6099233"><ele>443.66666666666663</ele><time>2026-03-28T12:53:02.15Z</time></trkpt><trkpt lat="45.7747433" lon="11.6100483"><ele>443.8333333333333</ele><time>2026-03-28T12:53:03.15Z</time></trkpt><trkpt lat="45.7747483" lon="11.61017"><ele>444.0</ele><time>2026-03-28T12:53:04.15Z</time></trkpt><trkpt lat="45.7747583" lon="11.6102883"><ele>444.5</ele><time>2026-03-28T12:53:05.15Z</time></trkpt><trkpt lat="45.77477" lon="11.6103983"><ele>445.0</ele><time>2026-03-28T12:53:06.15Z</time></trkpt><trkpt lat="45.7747767" lon="11.6104967"><ele>445.5</ele><time>2026-03-28T12:53:07.149Z</time></trkpt><trkpt lat="45.77478" lon="11.6106483"><ele>446.0</ele><time>2026-03-28T12:53:09.15Z</time></trkpt><trkpt lat="45.7747517" lon="11.6107683"><ele>446.5</ele><time>2026-03-28T12:53:11.15Z</time></trkpt><trkpt lat="45.7747133" lon="11.6109017"><ele>447.0</ele><time>2026-03-28T12:53:13.15Z</time></trkpt><trkpt lat="45.7746083" lon="11.6109867"><ele>447.0</ele><time>2026-03-28T12:53:15.149Z</time></trkpt><trkpt lat="45.7745267" lon="11.6110217"><ele>447.00000000000006</ele><time>2026-03-28T12:53:16.149Z</time></trkpt><trkpt lat="45.7744333" lon="11.6110717"><ele>447.00000000000006</ele><time>2026-03-28T12:53:17.15Z</time></trkpt><trkpt lat="45.774355" lon="11.6111683"><ele>447.0</ele><time>2026-03-28T12:53:18.15Z</time></trkpt><trkpt lat="45.7742933" lon="11.6113"><ele>447.0</ele><time>2026-03-28T12:53:19.15Z</time></trkpt><trkpt lat="45.7742317" lon="11.611455"><ele>442.25</ele><time>2026-03-28T12:53:20.15Z</time></trkpt><trkpt lat="45.7741683" lon="11.6116183"><ele>437.5</ele><time>2026-03-28T12:53:21.15Z</time></trkpt><trkpt lat="45.7741033" lon="11.611795"><ele>432.75</ele><time>2026-03-28T12:53:22.149Z</time></trkpt><trkpt lat="45.7740417" lon="11.6119717"><ele>428.0</ele><time>2026-03-28T12:53:23.15Z</time></trkpt><trkpt lat="45.773995" lon="11.6121633"><ele>428.0</ele><time>2026-03-28T12:53:24.149Z</time></trkpt><trkpt lat="45.77397" lon="11.61234"><ele>428.0</ele><time>2026-03-28T12:53:25.15Z</time></trkpt><trkpt lat="45.7739833" lon="11.6125183"><ele>428.0</ele><time>2026-03-28T12:53:26.149Z</time></trkpt><trkpt lat="45.774035" lon="11.6126683"><ele>428.0</ele><time>2026-03-28T12:53:27.15Z</time></trkpt><trkpt lat="45.7740967" lon="11.612805"><ele>427.99999999999994</ele><time>2026-03-28T12:53:28.15Z</time></trkpt><trkpt lat="45.7741433" lon="11.612935"><ele>428.0</ele><time>2026-03-28T12:53:29.15Z</time></trkpt><trkpt lat="45.774175" lon="11.613035"><ele>428.0</ele><time>2026-03-28T12:53:30.15Z</time></trkpt><trkpt lat="45.774205" lon="11.6131567"><ele>428.0</ele><time>2026-03-28T12:53:32.15Z</time></trkpt><trkpt lat="45.7742483" lon="11.6132233"><ele>427.99999999999994</ele><time>2026-03-28T12:53:35.15Z</time></trkpt><trkpt lat="45.77432" lon="11.613255"><ele>428.0</ele><time>2026-03-28T12:53:38.15Z</time></trkpt><trkpt lat="45.7743733" lon="11.6131333"><ele>427.99999999999994</ele><time>2026-03-28T12:53:40.15Z</time></trkpt><trkpt lat="45.7743817" lon="11.6130283"><ele>428.0</ele><time>2026-03-28T12:53:41.15Z</time></trkpt><trkpt lat="45.7743833" lon="11.6129333"><ele>428.0</ele><time>2026-03-28T12:53:42.15Z</time></trkpt><trkpt lat="45.7743617" lon="11.6128067"><ele>428.0</ele><time>2026-03-28T12:53:43.149Z</time></trkpt><trkpt lat="45.7743467" lon="11.612715"><ele>427.99999999999994</ele><time>2026-03-28T12:53:44.15Z</time></trkpt><trkpt lat="45.7743367" lon="11.61253"><ele>428.0</ele><time>2026-03-28T12:53:46.15Z</time></trkpt><trkpt lat="45.7743433" lon="11.6123833"><ele>433.79999999999995</ele><time>2026-03-28T12:53:47.149Z</time></trkpt><trkpt lat="45.7743667" lon="11.6122383"><ele>439.59999999999997</ele><time>2026-03-28T12:53:48.15Z</time></trkpt><trkpt lat="45.7743983" lon="11.6120767"><ele>445.40000000000003</ele><time>2026-03-28T12:53:49.15Z</time></trkpt><trkpt lat="45.7744317" lon="11.6119283"><ele>451.20000000000005</ele><time>2026-03-28T12:53:50.15Z</time></trkpt><trkpt lat="45.77447" lon="11.6117817"><ele>457.0</ele><time>2026-03-28T12:53:51.149Z</time></trkpt><trkpt lat="45.7745083" lon="11.6116567"><ele>457.00000000000006</ele><time>2026-03-28T12:53:52.15Z</time></trkpt><trkpt lat="45.774555" lon="11.6115633"><ele>457.0</ele><time>2026-03-28T12:53:53.15Z</time></trkpt><trkpt lat="45.7745983" lon="11.6114917"><ele>457.0</ele><time>2026-03-28T12:53:54.149Z</time></trkpt><trkpt lat="45.7747017" lon="11.611385"><ele>457.0</ele><time>2026-03-28T12:53:56.15Z</time></trkpt><trkpt lat="45.774775" lon="11.6113583"><ele>457.00000000000006</ele><time>2026-03-28T12:53:57.149Z</time></trkpt><trkpt lat="45.7748533" lon="11.611345"><ele>457.0</ele><time>2026-03-28T12:53:58.15Z</time></trkpt><trkpt lat="45.7749233" lon="11.6113183"><ele>457.00000000000006</ele><time>2026-03-28T12:53:59.149Z</time></trkpt><trkpt lat="45.7749917" lon="11.6112783"><ele>457.0</ele><time>2026-03-28T12:54:00.15Z</time></trkpt><trkpt lat="45.7750633" lon="11.6112217"><ele>457.0</ele><time>2026-03-28T12:54:01.15Z</time></trkpt><trkpt lat="45.7751467" lon="11.6111667"><ele>457.0</ele><time>2026-03-28T12:54:02.15Z</time></trkpt><trkpt lat="45.7752317" lon="11.61112"><ele>457.00000000000006</ele><time>2026-03-28T12:54:03.15Z</time></trkpt><trkpt lat="45.7753183" lon="11.6110917"><ele>457.0</ele><time>2026-03-28T12:54:04.15Z</time></trkpt><trkpt lat="45.7753933" lon="11.61105"><ele>462.83333333333337</ele><time>2026-03-28T12:54:05.15Z</time></trkpt><trkpt lat="45.7754633" lon="11.6109967"><ele>468.6666666666667</ele><time>2026-03-28T12:54:06.149Z</time></trkpt><trkpt lat="45.7755233" lon="11.6109183"><ele>474.5</ele><time>2026-03-28T12:54:07.15Z</time></trkpt><trkpt lat="45.775565" lon="11.6108167"><ele>480.33333333333337</ele><time>2026-03-28T12:54:08.149Z</time></trkpt><trkpt lat="45.77559" lon="11.6106833"><ele>486.1666666666667</ele><time>2026-03-28T12:54:09.149Z</time></trkpt><trkpt lat="45.7756067" lon="11.6105283"><ele>492.0</ele><time>2026-03-28T12:54:10.149Z</time></trkpt><trkpt lat="45.7756267" lon="11.6103867"><ele>490.8</ele><time>2026-03-28T12:54:11.15Z</time></trkpt><trkpt lat="45.775645" lon="11.6102433"><ele>489.6</ele><time>2026-03-28T12:54:12.149Z</time></trkpt><trkpt lat="45.77567" lon="11.6100917"><ele>488.40000000000003</ele><time>2026-03-28T12:54:13.15Z</time></trkpt><trkpt lat="45.7757033" lon="11.6099517"><ele>487.20000000000005</ele><time>2026-03-28T12:54:14.149Z</time></trkpt><trkpt lat="45.7757483" lon="11.60983"><ele>486.0</ele><time>2026-03-28T12:54:15.15Z</time></trkpt><trkpt lat="45.7758017" lon="11.6097167"><ele>486.0</ele><time>2026-03-28T12:54:16.15Z</time></trkpt><trkpt lat="45.7758517" lon="11.6096183"><ele>486.0</ele><time>2026-03-28T12:54:17.15Z</time></trkpt><trkpt lat="45.775895" lon="11.6095217"><ele>486.0</ele><time>2026-03-28T12:54:18.15Z</time></trkpt><trkpt lat="45.7759317" lon="11.609415"><ele>486.0</ele><time>2026-03-28T12:54:19.15Z</time></trkpt><trkpt lat="45.7759683" lon="11.6092867"><ele>486.0</ele><time>2026-03-28T12:54:20.15Z</time></trkpt><trkpt lat="45.7760033" lon="11.6091567"><ele>486.0</ele><time>2026-03-28T12:54:21.15Z</time></trkpt><trkpt lat="45.7760483" lon="11.6090267"><ele>493.20000000000005</ele><time>2026-03-28T12:54:22.149Z</time></trkpt><trkpt lat="45.7760917" lon="11.6088867"><ele>500.40000000000003</ele><time>2026-03-28T12:54:23.15Z</time></trkpt><trkpt lat="45.7761283" lon="11.6087517"><ele>507.6</ele><time>2026-03-28T12:54:24.15Z</time></trkpt><trkpt lat="45.776165" lon="11.6086"><ele>514.8000000000001</ele><time>2026-03-28T12:54:25.15Z</time></trkpt><trkpt lat="45.7762017" lon="11.608455"><ele>522.0</ele><time>2026-03-28T12:54:26.15Z</time></trkpt><trkpt lat="45.77623" lon="11.6083117"><ele>522.0</ele><time>2026-03-28T12:54:27.149Z</time></trkpt><trkpt lat="45.7762483" lon="11.6081667"><ele>522.0</ele><time>2026-03-28T12:54:28.15Z</time></trkpt><trkpt lat="45.7762717" lon="11.6080283"><ele>522.0</ele><time>2026-03-28T12:54:29.149Z</time></trkpt><trkpt lat="45.776305" lon="11.6078967"><ele>522.0</ele><time>2026-03-28T12:54:30.149Z</time></trkpt><trkpt lat="45.7763467" lon="11.6077633"><ele>522.0</ele><time>2026-03-28T12:54:31.15Z</time></trkpt><trkpt lat="45.776365" lon="11.6076567"><ele>521.0</ele><time>2026-03-28T12:54:32.15Z</time></trkpt><trkpt lat="45.77639" lon="11.6075467"><ele>520.0</ele><time>2026-03-28T12:54:33.149Z</time></trkpt><trkpt lat="45.7764233" lon="11.6074583"><ele>519.0</ele><time>2026-03-28T12:54:34.149Z</time></trkpt><trkpt lat="45.7764733" lon="11.6073517"><ele>518.0</ele><time>2026-03-28T12:54:36.15Z</time></trkpt><trkpt lat="45.7765317" lon="11.60729"><ele>517.0</ele><time>2026-03-28T12:54:38.15Z</time></trkpt><trkpt lat="45.7765933" lon="11.60724"><ele>516.0</ele><time>2026-03-28T12:54:40.15Z</time></trkpt><trkpt lat="45.7766517" lon="11.60718"><ele>516.0</ele><time>2026-03-28T12:54:41.15Z</time></trkpt><trkpt lat="45.7767167" lon="11.6070967"><ele>516.0</ele><time>2026-03-28T12:54:42.15Z</time></trkpt><trkpt lat="45.7767733" lon="11.6070233"><ele>516.0</ele><time>2026-03-28T12:54:43.15Z</time></trkpt><trkpt lat="45.77684" lon="11.60692"><ele>516.0</ele><time>2026-03-28T12:54:44.15Z</time></trkpt><trkpt lat="45.7769217" lon="11.6068517"><ele>516.0</ele><time>2026-03-28T12:54:46.149Z</time></trkpt><trkpt lat="45.776945" lon="11.6069567"><ele>516.0</ele><time>2026-03-28T12:54:50.15Z</time></trkpt><trkpt lat="45.7769933" lon="11.6071467"><ele>518.4</ele><time>2026-03-28T12:54:58.149Z</time></trkpt><trkpt lat="45.7770167" lon="11.6073183"><ele>520.8</ele><time>2026-03-28T12:55:09.149Z</time></trkpt><trkpt lat="45.7770117" lon="11.607455"><ele>523.1999999999999</ele><time>2026-03-28T12:55:11.15Z</time></trkpt><trkpt lat="45.7769967" lon="11.6075517"><ele>525.6</ele><time>2026-03-28T12:55:12.15Z</time></trkpt><trkpt lat="45.7769717" lon="11.607685"><ele>528.0</ele><time>2026-03-28T12:55:13.149Z</time></trkpt><trkpt lat="45.77693" lon="11.6078333"><ele>530.8</ele><time>2026-03-28T12:55:14.15Z</time></trkpt><trkpt lat="45.7768967" lon="11.6079617"><ele>533.5999999999999</ele><time>2026-03-28T12:55:15.15Z</time></trkpt><trkpt lat="45.7768667" lon="11.6080683"><ele>536.4000000000001</ele><time>2026-03-28T12:55:16.15Z</time></trkpt><trkpt lat="45.7768767" lon="11.6082217"><ele>539.2</ele><time>2026-03-28T12:55:18.15Z</time></trkpt><trkpt lat="45.7769983" lon="11.60829"><ele>542.0</ele><time>2026-03-28T12:55:20.15Z</time></trkpt><trkpt lat="45.777095" lon="11.6083083"><ele>542.0</ele><time>2026-03-28T12:55:21.15Z</time></trkpt><trkpt lat="45.777195" lon="11.6083267"><ele>542.0</ele><time>2026-03-28T12:55:22.15Z</time></trkpt><trkpt lat="45.7772883" lon="11.6083333"><ele>542.0</ele><time>2026-03-28T12:55:23.15Z</time></trkpt><trkpt lat="45.77738" lon="11.60833"><ele>542.0</ele><time>2026-03-28T12:55:24.15Z</time></trkpt><trkpt lat="45.7774683" lon="11.60832"><ele>542.0</ele><time>2026-03-28T12:55:25.15Z</time></trkpt><trkpt lat="45.7775517" lon="11.6083133"><ele>542.0</ele><time>2026-03-28T12:55:26.15Z</time></trkpt><trkpt lat="45.7776167" lon="11.6083267"><ele>542.0</ele><time>2026-03-28T12:55:27.149Z</time></trkpt><trkpt lat="45.7777183" lon="11.6084167"><ele>542.0</ele><time>2026-03-28T12:55:29.149Z</time></trkpt><trkpt lat="45.7778083" lon="11.6085183"><ele>542.0</ele><time>2026-03-28T12:55:31.15Z</time></trkpt><trkpt lat="45.7778883" lon="11.608595"><ele>542.0</ele><time>2026-03-28T12:55:33.15Z</time></trkpt><trkpt lat="45.7779533" lon="11.6085717"><ele>545.0</ele><time>2026-03-28T12:55:35.15Z</time></trkpt><trkpt lat="45.77801" lon="11.6085017"><ele>548.0</ele><time>2026-03-28T12:55:36.15Z</time></trkpt><trkpt lat="45.778085" lon="11.6083583"><ele>551.0</ele><time>2026-03-28T12:55:38.15Z</time></trkpt><trkpt lat="45.7781533" lon="11.6082067"><ele>554.0</ele><time>2026-03-28T12:55:40.149Z</time></trkpt><trkpt lat="45.7781917" lon="11.60812"><ele>557.0</ele><time>2026-03-28T12:55:41.15Z</time></trkpt><trkpt lat="45.7782383" lon="11.608025"><ele>557.0</ele><time>2026-03-28T12:55:42.15Z</time></trkpt><trkpt lat="45.7783033" lon="11.6079133"><ele>557.0</ele><time>2026-03-28T12:55:43.149Z</time></trkpt><trkpt lat="45.778375" lon="11.6077867"><ele>557.0</ele><time>2026-03-28T12:55:44.15Z</time></trkpt><trkpt lat="45.7784467" lon="11.607655"><ele>557.0</ele><time>2026-03-28T12:55:45.15Z</time></trkpt><trkpt lat="45.7785433" lon="11.6075"><ele>562.2</ele><time>2026-03-28T12:55:46.15Z</time></trkpt><trkpt lat="45.7786083" lon="11.6073783"><ele>567.4000000000001</ele><time>2026-03-28T12:55:47.149Z</time></trkpt><trkpt lat="45.778675" lon="11.6072467"><ele>572.5999999999999</ele><time>2026-03-28T12:55:48.15Z</time></trkpt><trkpt lat="45.7787183" lon="11.60712"><ele>577.8</ele><time>2026-03-28T12:55:49.15Z</time></trkpt><trkpt lat="45.7787517" lon="11.6069867"><ele>583.0</ele><time>2026-03-28T12:55:50.149Z</time></trkpt><trkpt lat="45.7787817" lon="11.6068667"><ele>583.0</ele><time>2026-03-28T12:55:51.15Z</time></trkpt><trkpt lat="45.7788133" lon="11.60675"><ele>583.0</ele><time>2026-03-28T12:55:52.15Z</time></trkpt><trkpt lat="45.7788483" lon="11.6066567"><ele>583.0</ele><time>2026-03-28T12:55:53.15Z</time></trkpt><trkpt lat="45.7788817" lon="11.6065583"><ele>583.0</ele><time>2026-03-28T12:55:54.149Z</time></trkpt><trkpt lat="45.778955" lon="11.606425"><ele>583.0</ele><time>2026-03-28T12:55:55.15Z</time></trkpt><trkpt lat="45.778975" lon="11.6063233"><ele>583.0</ele><time>2026-03-28T12:55:56.15Z</time></trkpt><trkpt lat="45.7790233" lon="11.6062083"><ele>579.1999999999999</ele><time>2026-03-28T12:55:57.15Z</time></trkpt><trkpt lat="45.7790833" lon="11.6060917"><ele>575.4</ele><time>2026-03-28T12:55:58.149Z</time></trkpt><trkpt lat="45.7791467" lon="11.6059817"><ele>571.5999999999999</ele><time>2026-03-28T12:55:59.15Z</time></trkpt><trkpt lat="45.7792017" lon="11.6058917"><ele>567.8</ele><time>2026-03-28T12:56:00.149Z</time></trkpt><trkpt lat="45.779255" lon="11.6058017"><ele>564.0</ele><time>2026-03-28T12:56:01.15Z</time></trkpt><trkpt lat="45.7793083" lon="11.605695"><ele>570.6</ele><time>2026-03-28T12:56:02.15Z</time></trkpt><trkpt lat="45.7793933" lon="11.6055717"><ele>577.2</ele><time>2026-03-28T12:56:03.149Z</time></trkpt><trkpt lat="45.7794617" lon="11.6054633"><ele>583.8000000000001</ele><time>2026-03-28T12:56:04.15Z</time></trkpt><trkpt lat="45.779515" lon="11.6053717"><ele>590.4</ele><time>2026-03-28T12:56:05.149Z</time></trkpt><trkpt lat="45.7795633" lon="11.6052783"><ele>597.0</ele><time>2026-03-28T12:56:06.149Z</time></trkpt><trkpt lat="45.7795983" lon="11.6051983"><ele>597.0</ele><time>2026-03-28T12:56:07.15Z</time></trkpt><trkpt lat="45.7796317" lon="11.6051217"><ele>597.0</ele><time>2026-03-28T12:56:08.15Z</time></trkpt><trkpt lat="45.77966" lon="11.6050333"><ele>597.0</ele><time>2026-03-28T12:56:09.149Z</time></trkpt><trkpt lat="45.7796817" lon="11.6048867"><ele>597.0</ele><time>2026-03-28T12:56:11.15Z</time></trkpt><trkpt lat="45.77972" lon="11.60474"><ele>597.0</ele><time>2026-03-28T12:56:13.15Z</time></trkpt><trkpt lat="45.779735" lon="11.6046467"><ele>597.0</ele><time>2026-03-28T12:56:14.15Z</time></trkpt><trkpt lat="45.779755" lon="11.60456"><ele>592.4</ele><time>2026-03-28T12:56:15.15Z</time></trkpt><trkpt lat="45.7798017" lon="11.6044083"><ele>587.8000000000001</ele><time>2026-03-28T12:56:17.15Z</time></trkpt><trkpt lat="45.7798433" lon="11.604265"><ele>583.2</ele><time>2026-03-28T12:56:19.15Z</time></trkpt><trkpt lat="45.779875" lon="11.6041833"><ele>578.6</ele><time>2026-03-28T12:56:20.15Z</time></trkpt><trkpt lat="45.7799133" lon="11.6040567"><ele>574.0</ele><time>2026-03-28T12:56:21.15Z</time></trkpt><trkpt lat="45.7800983" lon="11.603875"><ele>574.0</ele><time>2026-03-28T12:56:23.15Z</time></trkpt><trkpt lat="45.780175" lon="11.6038283"><ele>574.0</ele><time>2026-03-28T12:56:24.15Z</time></trkpt><trkpt lat="45.7802983" lon="11.6037983"><ele>574.0</ele><time>2026-03-28T12:56:26.149Z</time></trkpt><trkpt lat="45.7803683" lon="11.6038183"><ele>574.0</ele><time>2026-03-28T12:56:27.15Z</time></trkpt><trkpt lat="45.7804483" lon="11.6038617"><ele>574.0</ele><time>2026-03-28T12:56:28.15Z</time></trkpt><trkpt lat="45.780525" lon="11.6038983"><ele>574.0</ele><time>2026-03-28T12:56:29.15Z</time></trkpt><trkpt lat="45.7806067" lon="11.6039367"><ele>577.1666666666667</ele><time>2026-03-28T12:56:30.15Z</time></trkpt><trkpt lat="45.78068" lon="11.60396"><ele>580.3333333333334</ele><time>2026-03-28T12:56:31.15Z</time></trkpt><trkpt lat="45.7807517" lon="11.60397"><ele>583.5</ele><time>2026-03-28T12:56:32.15Z</time></trkpt><trkpt lat="45.78082" lon="11.60398"><ele>586.6666666666666</ele><time>2026-03-28T12:56:33.15Z</time></trkpt><trkpt lat="45.7808967" lon="11.604015"><ele>589.8333333333333</ele><time>2026-03-28T12:56:34.15Z</time></trkpt><trkpt lat="45.7809783" lon="11.60406"><ele>593.0</ele><time>2026-03-28T12:56:35.15Z</time></trkpt><trkpt lat="45.7810617" lon="11.604105"><ele>593.0</ele><time>2026-03-28T12:56:36.15Z</time></trkpt><trkpt lat="45.7811433" lon="11.6041517"><ele>593.0</ele><time>2026-03-28T12:56:37.149Z</time></trkpt><trkpt lat="45.78122" lon="11.6042017"><ele>593.0</ele><time>2026-03-28T12:56:38.15Z</time></trkpt><trkpt lat="45.7813017" lon="11.6042567"><ele>593.0</ele><time>2026-03-28T12:56:39.15Z</time></trkpt><trkpt lat="45.7813783" lon="11.6043117"><ele>593.0</ele><time>2026-03-28T12:56:40.15Z</time></trkpt><trkpt lat="45.7814683" lon="11.6043767"><ele>593.0</ele><time>2026-03-28T12:56:41.149Z</time></trkpt><trkpt lat="45.7815617" lon="11.6044433"><ele>593.0</ele><time>2026-03-28T12:56:42.149Z</time></trkpt><trkpt lat="45.7816467" lon="11.6044917"><ele>593.0</ele><time>2026-03-28T12:56:43.15Z</time></trkpt><trkpt lat="45.7817333" lon="11.6045433"><ele>593.0</ele><time>2026-03-28T12:56:44.149Z</time></trkpt><trkpt lat="45.7818133" lon="11.6045967"><ele>593.0</ele><time>2026-03-28T12:56:45.149Z</time></trkpt><trkpt lat="45.7819" lon="11.604655"><ele>593.0</ele><time>2026-03-28T12:56:46.15Z</time></trkpt><trkpt lat="45.7819783" lon="11.6046933"><ele>597.1999999999999</ele><time>2026-03-28T12:56:47.15Z</time></trkpt><trkpt lat="45.7820517" lon="11.6047267"><ele>601.4</ele><time>2026-03-28T12:56:48.15Z</time></trkpt><trkpt lat="45.7821567" lon="11.60479"><ele>605.5999999999999</ele><time>2026-03-28T12:56:50.15Z</time></trkpt><trkpt lat="45.7822633" lon="11.6048833"><ele>609.8</ele><time>2026-03-28T12:56:52.15Z</time></trkpt><trkpt lat="45.78233" lon="11.6049633"><ele>614.0</ele><time>2026-03-28T12:56:53.149Z</time></trkpt><trkpt lat="45.7823967" lon="11.605045"><ele>614.0</ele><time>2026-03-28T12:56:54.15Z</time></trkpt><trkpt lat="45.78247" lon="11.6051233"><ele>614.0</ele><time>2026-03-28T12:56:55.149Z</time></trkpt><trkpt lat="45.7825417" lon="11.6052"><ele>614.0</ele><time>2026-03-28T12:56:56.15Z</time></trkpt><trkpt lat="45.7826133" lon="11.6052783"><ele>614.0</ele><time>2026-03-28T12:56:57.15Z</time></trkpt><trkpt lat="45.782685" lon="11.60536"><ele>614.0</ele><time>2026-03-28T12:56:58.149Z</time></trkpt><trkpt lat="45.7827583" lon="11.6054333"><ele>613.8333333333333</ele><time>2026-03-28T12:56:59.15Z</time></trkpt><trkpt lat="45.7828267" lon="11.6055017"><ele>613.6666666666666</ele><time>2026-03-28T12:57:00.149Z</time></trkpt><trkpt lat="45.7828867" lon="11.6055667"><ele>613.5</ele><time>2026-03-28T12:57:01.15Z</time></trkpt><trkpt lat="45.7829433" lon="11.6056183"><ele>613.3333333333334</ele><time>2026-03-28T12:57:02.15Z</time></trkpt><trkpt lat="45.7830033" lon="11.6056683"><ele>613.1666666666667</ele><time>2026-03-28T12:57:03.15Z</time></trkpt><trkpt lat="45.78307" lon="11.605705"><ele>613.0</ele><time>2026-03-28T12:57:04.15Z</time></trkpt><trkpt lat="45.7831767" lon="11.605755"><ele>613.0</ele><time>2026-03-28T12:57:06.15Z</time></trkpt><trkpt lat="45.7832617" lon="11.6057867"><ele>613.0</ele><time>2026-03-28T12:57:08.15Z</time></trkpt><trkpt lat="45.7833833" lon="11.6059"><ele>613.0</ele><time>2026-03-28T12:59:43.149Z</time></trkpt><trkpt lat="45.7834867" lon="11.6058417"><ele>613.0</ele><time>2026-03-28T13:01:10.15Z</time></trkpt><trkpt lat="45.78358" lon="11.6057683"><ele>612.6</ele><time>2026-03-28T13:01:12.15Z</time></trkpt><trkpt lat="45.7836717" lon="11.6057133"><ele>612.1999999999999</ele><time>2026-03-28T13:01:14.15Z</time></trkpt><trkpt lat="45.7837767" lon="11.6057533"><ele>611.8</ele><time>2026-03-28T13:01:16.15Z</time></trkpt><trkpt lat="45.783885" lon="11.6057967"><ele>611.4</ele><time>2026-03-28T13:01:18.15Z</time></trkpt><trkpt lat="45.7839483" lon="11.6058067"><ele>611.0</ele><time>2026-03-28T13:01:19.149Z</time></trkpt><trkpt lat="45.7840167" lon="11.6058083"><ele>611.0</ele><time>2026-03-28T13:01:20.15Z</time></trkpt><trkpt lat="45.7840833" lon="11.6058267"><ele>611.0</ele><time>2026-03-28T13:01:21.15Z</time></trkpt><trkpt lat="45.7841967" lon="11.6058383"><ele>611.0</ele><time>2026-03-28T13:01:23.149Z</time></trkpt><trkpt lat="45.7842633" lon="11.60584"><ele>611.0</ele><time>2026-03-28T13:01:24.15Z</time></trkpt><trkpt lat="45.78436" lon="11.605825"><ele>611.0</ele><time>2026-03-28T13:01:25.15Z</time></trkpt><trkpt lat="45.7844683" lon="11.6058117"><ele>613.0</ele><time>2026-03-28T13:01:26.15Z</time></trkpt><trkpt lat="45.7845617" lon="11.6058"><ele>615.0</ele><time>2026-03-28T13:01:27.149Z</time></trkpt><trkpt lat="45.7846533" lon="11.6057783"><ele>617.0</ele><time>2026-03-28T13:01:28.15Z</time></trkpt><trkpt lat="45.78474" lon="11.60575"><ele>619.0</ele><time>2026-03-28T13:01:29.149Z</time></trkpt><trkpt lat="45.78482" lon="11.60572"><ele>621.0</ele><time>2026-03-28T13:01:30.15Z</time></trkpt><trkpt lat="45.784915" lon="11.6056883"><ele>621.0</ele><time>2026-03-28T13:01:31.15Z</time></trkpt><trkpt lat="45.785025" lon="11.6056533"><ele>621.0</ele><time>2026-03-28T13:01:32.15Z</time></trkpt><trkpt lat="45.78514" lon="11.605615"><ele>621.0</ele><time>2026-03-28T13:01:33.15Z</time></trkpt><trkpt lat="45.7852617" lon="11.6055933"><ele>621.0</ele><time>2026-03-28T13:01:34.15Z</time></trkpt><trkpt lat="45.7853767" lon="11.6056"><ele>620.75</ele><time>2026-03-28T13:01:35.15Z</time></trkpt><trkpt lat="45.7854917" lon="11.6056167"><ele>620.5</ele><time>2026-03-28T13:01:36.15Z</time></trkpt><trkpt lat="45.7856017" lon="11.6056267"><ele>620.25</ele><time>2026-03-28T13:01:37.149Z</time></trkpt><trkpt lat="45.7857283" lon="11.605615"><ele>620.0</ele><time>2026-03-28T13:01:38.15Z</time></trkpt><trkpt lat="45.7858333" lon="11.6056017"><ele>620.0</ele><time>2026-03-28T13:01:39.15Z</time></trkpt><trkpt lat="45.7859367" lon="11.6055967"><ele>620.0</ele><time>2026-03-28T13:01:40.15Z</time></trkpt><trkpt lat="45.7860433" lon="11.6056017"><ele>620.0</ele><time>2026-03-28T13:01:41.15Z</time></trkpt><trkpt lat="45.78616" lon="11.6056083"><ele>620.0</ele><time>2026-03-28T13:01:42.149Z</time></trkpt><trkpt lat="45.7862833" lon="11.6056183"><ele>620.6</ele><time>2026-03-28T13:01:43.15Z</time></trkpt><trkpt lat="45.7864017" lon="11.6056333"><ele>621.2</ele><time>2026-03-28T13:01:44.149Z</time></trkpt><trkpt lat="45.7865033" lon="11.6056417"><ele>621.8</ele><time>2026-03-28T13:01:45.149Z</time></trkpt><trkpt lat="45.7866083" lon="11.6056533"><ele>622.4</ele><time>2026-03-28T13:01:46.149Z</time></trkpt><trkpt lat="45.7867167" lon="11.60567"><ele>623.0</ele><time>2026-03-28T13:01:47.149Z</time></trkpt><trkpt lat="45.7868183" lon="11.6057017"><ele>621.8</ele><time>2026-03-28T13:01:48.15Z</time></trkpt><trkpt lat="45.7869067" lon="11.6057533"><ele>620.5999999999999</ele><time>2026-03-28T13:01:49.149Z</time></trkpt><trkpt lat="45.78699" lon="11.60584"><ele>619.4000000000001</ele><time>2026-03-28T13:01:50.15Z</time></trkpt><trkpt lat="45.78706" lon="11.6059283"><ele>618.2</ele><time>2026-03-28T13:01:51.149Z</time></trkpt><trkpt lat="45.78713" lon="11.6060117"><ele>617.0</ele><time>2026-03-28T13:01:52.15Z</time></trkpt><trkpt lat="45.7871983" lon="11.6061"><ele>617.4285714285714</ele><time>2026-03-28T13:01:53.15Z</time></trkpt><trkpt lat="45.7872633" lon="11.6061867"><ele>617.8571428571428</ele><time>2026-03-28T13:01:54.15Z</time></trkpt><trkpt lat="45.78731" lon="11.6062617"><ele>618.2857142857142</ele><time>2026-03-28T13:01:55.15Z</time></trkpt><trkpt lat="45.7873617" lon="11.606335"><ele>618.7142857142858</ele><time>2026-03-28T13:01:56.15Z</time></trkpt><trkpt lat="45.7874117" lon="11.6064017"><ele>619.1428571428571</ele><time>2026-03-28T13:01:57.15Z</time></trkpt><trkpt lat="45.7874633" lon="11.60647"><ele>619.5714285714286</ele><time>2026-03-28T13:01:58.15Z</time></trkpt><trkpt lat="45.7875133" lon="11.6065483"><ele>620.0</ele><time>2026-03-28T13:01:59.15Z</time></trkpt><trkpt lat="45.787575" lon="11.6066367"><ele>620.0</ele><time>2026-03-28T13:02:00.15Z</time></trkpt><trkpt lat="45.78764" lon="11.60672"><ele>620.0</ele><time>2026-03-28T13:02:01.15Z</time></trkpt><trkpt lat="45.78771" lon="11.60681"><ele>620.0</ele><time>2026-03-28T13:02:02.15Z</time></trkpt><trkpt lat="45.7877817" lon="11.6069033"><ele>620.0</ele><time>2026-03-28T13:02:03.15Z</time></trkpt><trkpt lat="45.7878517" lon="11.607"><ele>620.0</ele><time>2026-03-28T13:02:04.15Z</time></trkpt><trkpt lat="45.787925" lon="11.6070867"><ele>619.6666666666666</ele><time>2026-03-28T13:02:05.15Z</time></trkpt><trkpt lat="45.787995" lon="11.607165"><ele>619.3333333333333</ele><time>2026-03-28T13:02:06.15Z</time></trkpt><trkpt lat="45.7880633" lon="11.6072367"><ele>619.0</ele><time>2026-03-28T13:02:07.15Z</time></trkpt><trkpt lat="45.7881383" lon="11.60735"><ele>618.6666666666666</ele><time>2026-03-28T13:02:08.15Z</time></trkpt><trkpt lat="45.7881917" lon="11.6074417"><ele>618.3333333333334</ele><time>2026-03-28T13:02:09.15Z</time></trkpt><trkpt lat="45.7882333" lon="11.6075317"><ele>618.0</ele><time>2026-03-28T13:02:10.15Z</time></trkpt><trkpt lat="45.788295" lon="11.6076633"><ele>618.0</ele><time>2026-03-28T13:02:12.15Z</time></trkpt><trkpt lat="45.78834" lon="11.60781"><ele>618.0</ele><time>2026-03-28T13:02:14.15Z</time></trkpt><trkpt lat="45.78838" lon="11.6079767"><ele>618.0</ele><time>2026-03-28T13:02:16.15Z</time></trkpt><trkpt lat="45.7884483" lon="11.60812"><ele>618.0</ele><time>2026-03-28T13:02:18.15Z</time></trkpt><trkpt lat="45.7885017" lon="11.608185"><ele>618.0</ele><time>2026-03-28T13:02:19.15Z</time></trkpt><trkpt lat="45.788585" lon="11.608285"><ele>617.4285714285714</ele><time>2026-03-28T13:02:21.149Z</time></trkpt><trkpt lat="45.7886" lon="11.6083883"><ele>616.8571428571429</ele><time>2026-03-28T13:02:24.15Z</time></trkpt><trkpt lat="45.788565" lon="11.608495"><ele>616.2857142857142</ele><time>2026-03-28T13:02:27.15Z</time></trkpt><trkpt lat="45.788485" lon="11.6085567"><ele>615.7142857142858</ele><time>2026-03-28T13:02:30.15Z</time></trkpt><trkpt lat="45.78842" lon="11.6085367"><ele>615.1428571428571</ele><time>2026-03-28T13:02:33.15Z</time></trkpt><trkpt lat="45.78836" lon="11.6084817"><ele>614.5714285714286</ele><time>2026-03-28T13:02:43.149Z</time></trkpt><trkpt lat="45.7883067" lon="11.6084283"><ele>614.0</ele><time>2026-03-28T13:02:45.15Z</time></trkpt><trkpt lat="45.7882417" lon="11.608385"><ele>614.0</ele><time>2026-03-28T13:02:47.149Z</time></trkpt><trkpt lat="45.7881683" lon="11.6083317"><ele>614.0</ele><time>2026-03-28T13:03:06.15Z</time></trkpt><trkpt lat="45.78812" lon="11.60825"><ele>614.0</ele><time>2026-03-28T13:03:08.15Z</time></trkpt><trkpt lat="45.7880667" lon="11.60815"><ele>614.0</ele><time>2026-03-28T13:03:11.15Z</time></trkpt><trkpt lat="45.7879867" lon="11.6081783"><ele>614.0</ele><time>2026-03-28T13:03:13.149Z</time></trkpt><trkpt lat="45.7879133" lon="11.608175"><ele>614.0</ele><time>2026-03-28T13:03:16.149Z</time></trkpt><trkpt lat="45.7878517" lon="11.608155"><ele>614.0</ele><time>2026-03-28T13:03:22.149Z</time></trkpt><trkpt lat="45.787785" lon="11.6080733"><ele>614.0</ele><time>2026-03-28T13:03:57.15Z</time></trkpt><trkpt lat="45.7878367" lon="11.60815"><ele>614.0</ele><time>2026-03-28T13:05:36.15Z</time></trkpt><trkpt lat="45.7879233" lon="11.6081383"><ele>614.0</ele><time>2026-03-28T13:05:39.149Z</time></trkpt><trkpt lat="45.787975" lon="11.6080567"><ele>614.0</ele><time>2026-03-28T13:05:42.15Z</time></trkpt><trkpt lat="45.7879617" lon="11.60795"><ele>614.0</ele><time>2026-03-28T13:05:45.15Z</time></trkpt><trkpt lat="45.787995" lon="11.6078717"><ele>613.9999999999999</ele><time>2026-03-28T13:05:51.15Z</time></trkpt><trkpt lat="45.788045" lon="11.6080033"><ele>614.0</ele><time>2026-03-28T13:08:51.149Z</time></trkpt><trkpt lat="45.7880733" lon="11.6081017"><ele>614.0</ele><time>2026-03-28T13:08:54.149Z</time></trkpt><trkpt lat="45.78811" lon="11.60819"><ele>614.0</ele><time>2026-03-28T13:08:57.149Z</time></trkpt><trkpt lat="45.78815" lon="11.6082617"><ele>614.0</ele><time>2026-03-28T13:08:59.148Z</time></trkpt><trkpt lat="45.7882033" lon="11.6083283"><ele>613.9999999999999</ele><time>2026-03-28T13:09:01.148Z</time></trkpt><trkpt lat="45.7882533" lon="11.608385"><ele>614.0</ele><time>2026-03-28T13:09:03.149Z</time></trkpt><trkpt lat="45.788305" lon="11.6084433"><ele>614.0</ele><time>2026-03-28T13:09:05.148Z</time></trkpt><trkpt lat="45.788355" lon="11.608505"><ele>614.0</ele><time>2026-03-28T13:09:08.149Z</time></trkpt><trkpt lat="45.788435" lon="11.608515"><ele>614.0</ele><time>2026-03-28T13:09:59.149Z</time></trkpt><trkpt lat="45.7884883" lon="11.6085633"><ele>614.0</ele><time>2026-03-28T13:10:09.149Z</time></trkpt><trkpt lat="45.7884" lon="11.6085617"><ele>614.0</ele><time>2026-03-28T13:12:02.148Z</time></trkpt><trkpt lat="45.78849" lon="11.6085417"><ele>614.0</ele><time>2026-03-28T13:13:28.149Z</time></trkpt><trkpt lat="45.7886133" lon="11.6085583"><ele>613.9999999999999</ele><time>2026-03-28T13:14:01.149Z</time></trkpt><trkpt lat="45.7885509" lon="11.6085337"><ele>614.0</ele><time>2026-03-28T13:16:39.162Z</time></trkpt><trkpt lat="45.7885845" lon="11.6086247"><ele>614.0</ele><time>2026-03-28T13:17:26.228Z</time></trkpt><trkpt lat="45.788519" lon="11.6086214"><ele>614.0</ele><time>2026-03-28T13:18:56.206Z</time></trkpt><trkpt lat="45.7884527" lon="11.6085434"><ele>614.0</ele><time>2026-03-28T13:23:35.198Z</time></trkpt><trkpt lat="45.7885233" lon="11.6085333"><ele>613.9999999999999</ele><time>2026-03-28T13:26:04.147Z</time></trkpt><trkpt lat="45.7885867" lon="11.6085233"><ele>614.0</ele><time>2026-03-28T13:26:08.148Z</time></trkpt><trkpt lat="45.7886583" lon="11.6085667"><ele>614.4</ele><time>2026-03-28T13:26:12.148Z</time></trkpt><trkpt lat="45.788725" lon="11.6086217"><ele>614.8</ele><time>2026-03-28T13:26:14.148Z</time></trkpt><trkpt lat="45.7888133" lon="11.6086533"><ele>615.2</ele><time>2026-03-28T13:26:16.148Z</time></trkpt><trkpt lat="45.78889" lon="11.60867"><ele>615.6</ele><time>2026-03-28T13:26:18.148Z</time></trkpt><trkpt lat="45.7890017" lon="11.6087467"><ele>616.0</ele><time>2026-03-28T13:26:20.148Z</time></trkpt><trkpt lat="45.7890983" lon="11.6087833"><ele>616.0</ele><time>2026-03-28T13:26:22.148Z</time></trkpt><trkpt lat="45.789205" lon="11.6088117"><ele>616.0</ele><time>2026-03-28T13:26:24.147Z</time></trkpt><trkpt lat="45.78928" lon="11.608835"><ele>616.0</ele><time>2026-03-28T13:26:26.148Z</time></trkpt><trkpt lat="45.7893533" lon="11.60889"><ele>616.0</ele><time>2026-03-28T13:26:28.148Z</time></trkpt><trkpt lat="45.789375" lon="11.6089883"><ele>616.0</ele><time>2026-03-28T13:26:30.148Z</time></trkpt><trkpt lat="45.789415" lon="11.6090917"><ele>616.0</ele><time>2026-03-28T13:26:32.148Z</time></trkpt><trkpt lat="45.7894433" lon="11.60919"><ele>616.4</ele><time>2026-03-28T13:26:34.147Z</time></trkpt><trkpt lat="45.78948" lon="11.6093017"><ele>616.8</ele><time>2026-03-28T13:26:37.148Z</time></trkpt><trkpt lat="45.789525" lon="11.609415"><ele>617.1999999999999</ele><time>2026-03-28T13:26:40.148Z</time></trkpt><trkpt lat="45.78958" lon="11.609535"><ele>617.6</ele><time>2026-03-28T13:26:44.148Z</time></trkpt><trkpt lat="45.7896133" lon="11.6096467"><ele>618.0</ele><time>2026-03-28T13:26:47.148Z</time></trkpt><trkpt lat="45.789705" lon="11.6098783"><ele>618.3333333333334</ele><time>2026-03-28T13:26:48.147Z</time></trkpt><trkpt lat="45.78977" lon="11.60992"><ele>618.6666666666666</ele><time>2026-03-28T13:26:52.148Z</time></trkpt><trkpt lat="45.78973" lon="11.60983"><ele>619.0</ele><time>2026-03-28T13:27:02.148Z</time></trkpt><trkpt lat="45.7896417" lon="11.609865"><ele>619.3333333333333</ele><time>2026-03-28T13:27:05.147Z</time></trkpt><trkpt lat="45.7895867" lon="11.6099233"><ele>619.6666666666666</ele><time>2026-03-28T13:27:07.148Z</time></trkpt><trkpt lat="45.7895567" lon="11.6100467"><ele>620.0</ele><time>2026-03-28T13:27:10.148Z</time></trkpt><trkpt lat="45.78956" lon="11.6101817"><ele>620.0</ele><time>2026-03-28T13:27:12.148Z</time></trkpt><trkpt lat="45.7895583" lon="11.6103017"><ele>620.0</ele><time>2026-03-28T13:27:14.148Z</time></trkpt><trkpt lat="45.7895283" lon="11.6104583"><ele>620.0</ele><time>2026-03-28T13:27:16.148Z</time></trkpt><trkpt lat="45.78951" lon="11.61061"><ele>620.0</ele><time>2026-03-28T13:27:18.148Z</time></trkpt><trkpt lat="45.789475" lon="11.6107233"><ele>620.0</ele><time>2026-03-28T13:27:20.148Z</time></trkpt><trkpt lat="45.7894567" lon="11.610855"><ele>621.5</ele><time>2026-03-28T13:27:22.148Z</time></trkpt><trkpt lat="45.7894517" lon="11.6110033"><ele>623.0</ele><time>2026-03-28T13:27:24.147Z</time></trkpt><trkpt lat="45.7894583" lon="11.6110967"><ele>624.5</ele><time>2026-03-28T13:27:25.148Z</time></trkpt><trkpt lat="45.7894667" lon="11.6111867"><ele>626.0</ele><time>2026-03-28T13:27:26.148Z</time></trkpt><trkpt lat="45.789485" lon="11.6113583"><ele>627.5</ele><time>2026-03-28T13:27:28.147Z</time></trkpt><trkpt lat="45.789495" lon="11.6114583"><ele>629.0</ele><time>2026-03-28T13:27:29.147Z</time></trkpt><trkpt lat="45.789505" lon="11.6115617"><ele>630.4</ele><time>2026-03-28T13:27:30.147Z</time></trkpt><trkpt lat="45.78953" lon="11.611675"><ele>631.8</ele><time>2026-03-28T13:27:31.147Z</time></trkpt><trkpt lat="45.789555" lon="11.611785"><ele>633.2</ele><time>2026-03-28T13:27:32.148Z</time></trkpt><trkpt lat="45.7895917" lon="11.611895"><ele>634.6</ele><time>2026-03-28T13:27:33.148Z</time></trkpt><trkpt lat="45.7896533" lon="11.612045"><ele>636.0</ele><time>2026-03-28T13:27:35.148Z</time></trkpt><trkpt lat="45.789715" lon="11.612185"><ele>636.2857142857142</ele><time>2026-03-28T13:27:37.148Z</time></trkpt><trkpt lat="45.7897483" lon="11.6122933"><ele>636.5714285714287</ele><time>2026-03-28T13:27:39.147Z</time></trkpt><trkpt lat="45.7897583" lon="11.612385"><ele>636.8571428571429</ele><time>2026-03-28T13:27:41.147Z</time></trkpt><trkpt lat="45.78977" lon="11.61248"><ele>637.1428571428571</ele><time>2026-03-28T13:27:43.147Z</time></trkpt><trkpt lat="45.78977" lon="11.612575"><ele>637.4285714285713</ele><time>2026-03-28T13:27:46.148Z</time></trkpt><trkpt lat="45.789765" lon="11.6126917"><ele>637.7142857142858</ele><time>2026-03-28T13:27:49.148Z</time></trkpt><trkpt lat="45.789755" lon="11.612805"><ele>638.0</ele><time>2026-03-28T13:27:53.148Z</time></trkpt><trkpt lat="45.7897517" lon="11.6129083"><ele>638.8333333333333</ele><time>2026-03-28T13:27:55.148Z</time></trkpt><trkpt lat="45.78972" lon="11.6130333"><ele>639.6666666666666</ele><time>2026-03-28T13:27:58.148Z</time></trkpt><trkpt lat="45.7897183" lon="11.6131283"><ele>640.5</ele><time>2026-03-28T13:28:00.148Z</time></trkpt><trkpt lat="45.789705" lon="11.613245"><ele>641.3333333333334</ele><time>2026-03-28T13:28:02.148Z</time></trkpt><trkpt lat="45.7896833" lon="11.61337"><ele>642.1666666666667</ele><time>2026-03-28T13:28:05.148Z</time></trkpt><trkpt lat="45.7896333" lon="11.6134567"><ele>643.0</ele><time>2026-03-28T13:28:07.148Z</time></trkpt><trkpt lat="45.7895983" lon="11.6136183"><ele>644.0</ele><time>2026-03-28T13:28:09.148Z</time></trkpt><trkpt lat="45.7895733" lon="11.6137033"><ele>645.0</ele><time>2026-03-28T13:28:11.148Z</time></trkpt><trkpt lat="45.7895117" lon="11.6137783"><ele>646.0</ele><time>2026-03-28T13:28:15.148Z</time></trkpt><trkpt lat="45.7894767" lon="11.6138817"><ele>647.0</ele><time>2026-03-28T13:28:18.147Z</time></trkpt><trkpt lat="45.7894317" lon="11.6139833"><ele>648.0</ele><time>2026-03-28T13:28:20.148Z</time></trkpt><trkpt lat="45.78939" lon="11.614065"><ele>649.0</ele><time>2026-03-28T13:28:21.148Z</time></trkpt><trkpt lat="45.789335" lon="11.6141733"><ele>652.4000000000001</ele><time>2026-03-28T13:28:23.148Z</time></trkpt><trkpt lat="45.7893083" lon="11.6142567"><ele>655.8</ele><time>2026-03-28T13:28:25.148Z</time></trkpt><trkpt lat="45.789305" lon="11.6143567"><ele>659.2</ele><time>2026-03-28T13:28:30.148Z</time></trkpt><trkpt lat="45.78932" lon="11.61449"><ele>662.5999999999999</ele><time>2026-03-28T13:28:32.148Z</time></trkpt><trkpt lat="45.789295" lon="11.6146483"><ele>666.0</ele><time>2026-03-28T13:28:35.148Z</time></trkpt><trkpt lat="45.789295" lon="11.614805"><ele>666.0</ele><time>2026-03-28T13:28:38.148Z</time></trkpt><trkpt lat="45.789205" lon="11.614895"><ele>666.0</ele><time>2026-03-28T13:28:40.148Z</time></trkpt><trkpt lat="45.78916" lon="11.615045"><ele>666.0</ele><time>2026-03-28T13:28:44.148Z</time></trkpt><trkpt lat="45.7891633" lon="11.6151567"><ele>666.0</ele><time>2026-03-28T13:28:46.148Z</time></trkpt><trkpt lat="45.78921" lon="11.6153167"><ele>666.0</ele><time>2026-03-28T13:28:56.148Z</time></trkpt><trkpt lat="45.7892667" lon="11.6153967"><ele>664.4</ele><time>2026-03-28T13:29:00.148Z</time></trkpt><trkpt lat="45.7892383" lon="11.6154817"><ele>662.8</ele><time>2026-03-28T13:29:11.148Z</time></trkpt><trkpt lat="45.789135" lon="11.6155333"><ele>661.1999999999999</ele><time>2026-03-28T13:29:15.148Z</time></trkpt><trkpt lat="45.789065" lon="11.615565"><ele>659.5999999999999</ele><time>2026-03-28T13:29:18.148Z</time></trkpt><trkpt lat="45.7889683" lon="11.6155817"><ele>658.0</ele><time>2026-03-28T13:29:20.148Z</time></trkpt><trkpt lat="45.7888317" lon="11.6156217"><ele>658.0</ele><time>2026-03-28T13:29:22.148Z</time></trkpt><trkpt lat="45.788725" lon="11.6156467"><ele>658.0</ele><time>2026-03-28T13:29:24.148Z</time></trkpt><trkpt lat="45.7886317" lon="11.6156767"><ele>658.0</ele><time>2026-03-28T13:29:26.147Z</time></trkpt><trkpt lat="45.7885583" lon="11.6157"><ele>658.0</ele><time>2026-03-28T13:29:29.147Z</time></trkpt><trkpt lat="45.7884817" lon="11.615735"><ele>658.0</ele><time>2026-03-28T13:29:32.147Z</time></trkpt><trkpt lat="45.788385" lon="11.6157717"><ele>660.6666666666667</ele><time>2026-03-28T13:29:34.148Z</time></trkpt><trkpt lat="45.78822" lon="11.61587"><ele>663.3333333333334</ele><time>2026-03-28T13:29:36.148Z</time></trkpt><trkpt lat="45.788095" lon="11.6159867"><ele>666.0</ele><time>2026-03-28T13:29:39.148Z</time></trkpt><trkpt lat="45.78798" lon="11.61609"><ele>666.0</ele><time>2026-03-28T13:29:42.148Z</time></trkpt><trkpt lat="45.7879167" lon="11.616135"><ele>666.0</ele><time>2026-03-28T13:29:43.148Z</time></trkpt><trkpt lat="45.7878583" lon="11.6161883"><ele>666.0</ele><time>2026-03-28T13:29:46.148Z</time></trkpt><trkpt lat="45.7877833" lon="11.6162233"><ele>666.0</ele><time>2026-03-28T13:29:50.148Z</time></trkpt><trkpt lat="45.7877217" lon="11.6162933"><ele>666.0</ele><time>2026-03-28T13:29:54.148Z</time></trkpt><trkpt lat="45.7876483" lon="11.61643"><ele>666.0</ele><time>2026-03-28T13:29:58.147Z</time></trkpt><trkpt lat="45.7875717" lon="11.6164717"><ele>666.5999999999999</ele><time>2026-03-28T13:29:59.148Z</time></trkpt><trkpt lat="45.787495" lon="11.6165083"><ele>667.2</ele><time>2026-03-28T13:30:00.148Z</time></trkpt><trkpt lat="45.7873867" lon="11.61656"><ele>667.8</ele><time>2026-03-28T13:30:02.147Z</time></trkpt><trkpt lat="45.787265" lon="11.6166167"><ele>668.4000000000001</ele><time>2026-03-28T13:30:04.148Z</time></trkpt><trkpt lat="45.7871983" lon="11.616645"><ele>669.0</ele><time>2026-03-28T13:30:05.147Z</time></trkpt><trkpt lat="45.7871067" lon="11.6166883"><ele>669.0</ele><time>2026-03-28T13:30:07.148Z</time></trkpt><trkpt lat="45.787045" lon="11.616745"><ele>669.0</ele><time>2026-03-28T13:30:09.148Z</time></trkpt><trkpt lat="45.78699" lon="11.6167933"><ele>669.0</ele><time>2026-03-28T13:30:11.148Z</time></trkpt><trkpt lat="45.7868933" lon="11.616825"><ele>669.0</ele><time>2026-03-28T13:30:13.148Z</time></trkpt><trkpt lat="45.7867917" lon="11.6168717"><ele>669.0</ele><time>2026-03-28T13:30:16.148Z</time></trkpt><trkpt lat="45.78672" lon="11.616895"><ele>669.0</ele><time>2026-03-28T13:30:17.147Z</time></trkpt><trkpt lat="45.7866183" lon="11.616955"><ele>670.8333333333334</ele><time>2026-03-28T13:30:19.147Z</time></trkpt><trkpt lat="45.7865383" lon="11.617005"><ele>672.6666666666666</ele><time>2026-03-28T13:30:22.148Z</time></trkpt><trkpt lat="45.7864633" lon="11.6170467"><ele>674.5</ele><time>2026-03-28T13:30:24.147Z</time></trkpt><trkpt lat="45.7863833" lon="11.617105"><ele>676.3333333333333</ele><time>2026-03-28T13:30:27.148Z</time></trkpt><trkpt lat="45.7863033" lon="11.6171167"><ele>678.1666666666666</ele><time>2026-03-28T13:30:30.148Z</time></trkpt><trkpt lat="45.7862133" lon="11.6171467"><ele>680.0</ele><time>2026-03-28T13:30:33.148Z</time></trkpt><trkpt lat="45.7860383" lon="11.6172233"><ele>680.0</ele><time>2026-03-28T13:30:35.148Z</time></trkpt><trkpt lat="45.78596" lon="11.6172483"><ele>680.0</ele><time>2026-03-28T13:30:36.148Z</time></trkpt><trkpt lat="45.7858317" lon="11.617275"><ele>680.0</ele><time>2026-03-28T13:30:38.148Z</time></trkpt><trkpt lat="45.7857683" lon="11.6172617"><ele>680.0</ele><time>2026-03-28T13:30:44.148Z</time></trkpt><trkpt lat="45.78572" lon="11.6173267"><ele>680.0</ele><time>2026-03-28T13:30:54.148Z</time></trkpt><trkpt lat="45.7857067" lon="11.617415"><ele>680.0</ele><time>2026-03-28T13:31:00.148Z</time></trkpt><trkpt lat="45.7856333" lon="11.6174183"><ele>680.0</ele><time>2026-03-28T13:31:05.148Z</time></trkpt><trkpt lat="45.7855583" lon="11.61743"><ele>680.0</ele><time>2026-03-28T13:31:08.147Z</time></trkpt><trkpt lat="45.7854867" lon="11.61743"><ele>680.0</ele><time>2026-03-28T13:31:11.148Z</time></trkpt><trkpt lat="45.7854183" lon="11.6174533"><ele>680.0</ele><time>2026-03-28T13:31:15.148Z</time></trkpt><trkpt lat="45.7853483" lon="11.6174433"><ele>680.0</ele><time>2026-03-28T13:31:19.148Z</time></trkpt><trkpt lat="45.785275" lon="11.6174633"><ele>680.0</ele><time>2026-03-28T13:31:27.148Z</time></trkpt><trkpt lat="45.78514" lon="11.6175283"><ele>682.3333333333333</ele><time>2026-03-28T13:31:41.148Z</time></trkpt><trkpt lat="45.78506" lon="11.6175483"><ele>684.6666666666666</ele><time>2026-03-28T13:31:48.148Z</time></trkpt><trkpt lat="45.785" lon="11.6175983"><ele>687.0</ele><time>2026-03-28T13:31:53.148Z</time></trkpt><trkpt lat="45.7848867" lon="11.617635"><ele>689.3333333333334</ele><time>2026-03-28T13:35:37.147Z</time></trkpt><trkpt lat="45.7849533" lon="11.617625"><ele>691.6666666666667</ele><time>2026-03-28T13:35:44.148Z</time></trkpt><trkpt lat="45.7850333" lon="11.6176333"><ele>694.0</ele><time>2026-03-28T13:35:47.148Z</time></trkpt><trkpt lat="45.7851183" lon="11.6176283"><ele>691.6666666666667</ele><time>2026-03-28T13:35:51.148Z</time></trkpt><trkpt lat="45.7851967" lon="11.6176167"><ele>689.3333333333334</ele><time>2026-03-28T13:35:55.147Z</time></trkpt><trkpt lat="45.7852667" lon="11.6176217"><ele>687.0</ele><time>2026-03-28T13:35:58.148Z</time></trkpt><trkpt lat="45.7853383" lon="11.6176317"><ele>684.6666666666666</ele><time>2026-03-28T13:36:00.148Z</time></trkpt><trkpt lat="45.7854267" lon="11.6176483"><ele>682.3333333333333</ele><time>2026-03-28T13:36:02.147Z</time></trkpt><trkpt lat="45.785525" lon="11.6176567"><ele>680.0</ele><time>2026-03-28T13:36:04.148Z</time></trkpt><trkpt lat="45.78561" lon="11.6176483"><ele>680.0</ele><time>2026-03-28T13:36:06.148Z</time></trkpt><trkpt lat="45.7856867" lon="11.6176283"><ele>680.0</ele><time>2026-03-28T13:36:08.148Z</time></trkpt><trkpt lat="45.785805" lon="11.6176133"><ele>680.0</ele><time>2026-03-28T13:36:10.148Z</time></trkpt><trkpt lat="45.7858717" lon="11.6176"><ele>680.0</ele><time>2026-03-28T13:36:11.148Z</time></trkpt><trkpt lat="45.7859567" lon="11.61759"><ele>680.0</ele><time>2026-03-28T13:36:13.148Z</time></trkpt><trkpt lat="45.7860383" lon="11.617525"><ele>680.0</ele><time>2026-03-28T13:36:16.148Z</time></trkpt><trkpt lat="45.7861283" lon="11.6175167"><ele>680.0</ele><time>2026-03-28T13:36:18.148Z</time></trkpt><trkpt lat="45.786195" lon="11.61751"><ele>680.0</ele><time>2026-03-28T13:36:19.147Z</time></trkpt><trkpt lat="45.7862617" lon="11.6174433"><ele>680.0</ele><time>2026-03-28T13:36:20.148Z</time></trkpt><trkpt lat="45.786335" lon="11.6174"><ele>680.0</ele><time>2026-03-28T13:36:21.148Z</time></trkpt><trkpt lat="45.7864383" lon="11.61735"><ele>680.0</ele><time>2026-03-28T13:36:23.148Z</time></trkpt><trkpt lat="45.7865433" lon="11.6172333"><ele>680.0</ele><time>2026-03-28T13:36:25.148Z</time></trkpt><trkpt lat="45.78665" lon="11.61715"><ele>680.0</ele><time>2026-03-28T13:36:27.148Z</time></trkpt><trkpt lat="45.78671" lon="11.617105"><ele>680.0</ele><time>2026-03-28T13:36:28.148Z</time></trkpt><trkpt lat="45.7867867" lon="11.6170433"><ele>680.0</ele><time>2026-03-28T13:36:29.148Z</time></trkpt><trkpt lat="45.78685" lon="11.6169983"><ele>680.0</ele><time>2026-03-28T13:36:30.148Z</time></trkpt><trkpt lat="45.78691" lon="11.61696"><ele>680.0</ele><time>2026-03-28T13:36:31.148Z</time></trkpt><trkpt lat="45.7869733" lon="11.6169117"><ele>677.8</ele><time>2026-03-28T13:36:32.147Z</time></trkpt><trkpt lat="45.78703" lon="11.6168583"><ele>675.6</ele><time>2026-03-28T13:36:33.148Z</time></trkpt><trkpt lat="45.787085" lon="11.6168117"><ele>673.4000000000001</ele><time>2026-03-28T13:36:34.147Z</time></trkpt><trkpt lat="45.7872" lon="11.6167683"><ele>671.2</ele><time>2026-03-28T13:36:36.148Z</time></trkpt><trkpt lat="45.78732" lon="11.616685"><ele>669.0</ele><time>2026-03-28T13:36:38.147Z</time></trkpt><trkpt lat="45.78739" lon="11.6166367"><ele>669.0</ele><time>2026-03-28T13:36:39.148Z</time></trkpt><trkpt lat="45.7874567" lon="11.6166017"><ele>669.0</ele><time>2026-03-28T13:36:40.148Z</time></trkpt><trkpt lat="45.7875167" lon="11.6165633"><ele>669.0</ele><time>2026-03-28T13:36:41.148Z</time></trkpt><trkpt lat="45.7875783" lon="11.616525"><ele>669.0</ele><time>2026-03-28T13:36:42.147Z</time></trkpt><trkpt lat="45.78765" lon="11.616475"><ele>669.0</ele><time>2026-03-28T13:36:43.148Z</time></trkpt><trkpt lat="45.7877033" lon="11.616425"><ele>669.0</ele><time>2026-03-28T13:36:44.148Z</time></trkpt><trkpt lat="45.7877917" lon="11.6163683"><ele>669.0</ele><time>2026-03-28T13:36:46.148Z</time></trkpt><trkpt lat="45.7878967" lon="11.616325"><ele>669.1666666666666</ele><time>2026-03-28T13:36:48.148Z</time></trkpt><trkpt lat="45.78796" lon="11.6162933"><ele>669.3333333333334</ele><time>2026-03-28T13:36:49.148Z</time></trkpt><trkpt lat="45.788065" lon="11.6162583"><ele>669.5</ele><time>2026-03-28T13:36:51.148Z</time></trkpt><trkpt lat="45.78819" lon="11.61621"><ele>669.6666666666667</ele><time>2026-03-28T13:36:53.148Z</time></trkpt><trkpt lat="45.7882517" lon="11.6161767"><ele>669.8333333333334</ele><time>2026-03-28T13:36:54.148Z</time></trkpt><trkpt lat="45.7883133" lon="11.6161433"><ele>670.0</ele><time>2026-03-28T13:36:55.147Z</time></trkpt><trkpt lat="45.7883817" lon="11.6161117"><ele>669.3333333333334</ele><time>2026-03-28T13:36:56.148Z</time></trkpt><trkpt lat="45.7885033" lon="11.61606"><ele>668.6666666666667</ele><time>2026-03-28T13:36:58.148Z</time></trkpt><trkpt lat="45.7885683" lon="11.6159967"><ele>668.0</ele><time>2026-03-28T13:36:59.148Z</time></trkpt><trkpt lat="45.7886333" lon="11.6159633"><ele>667.3333333333334</ele><time>2026-03-28T13:37:00.148Z</time></trkpt><trkpt lat="45.788695" lon="11.6159383"><ele>666.6666666666666</ele><time>2026-03-28T13:37:01.148Z</time></trkpt><trkpt lat="45.7887767" lon="11.6159283"><ele>666.0</ele><time>2026-03-28T13:37:02.148Z</time></trkpt><trkpt lat="45.7888783" lon="11.6159167"><ele>664.4</ele><time>2026-03-28T13:37:04.148Z</time></trkpt><trkpt lat="45.7889417" lon="11.61592"><ele>662.8</ele><time>2026-03-28T13:37:05.148Z</time></trkpt><trkpt lat="45.789035" lon="11.615905"><ele>661.1999999999999</ele><time>2026-03-28T13:37:07.147Z</time></trkpt><trkpt lat="45.7891167" lon="11.6158483"><ele>659.5999999999999</ele><time>2026-03-28T13:37:09.148Z</time></trkpt><trkpt lat="45.789215" lon="11.61571"><ele>658.0</ele><time>2026-03-28T13:37:11.148Z</time></trkpt><trkpt lat="45.7893317" lon="11.6155633"><ele>657.6666666666667</ele><time>2026-03-28T13:37:13.148Z</time></trkpt><trkpt lat="45.7893817" lon="11.615465"><ele>657.3333333333334</ele><time>2026-03-28T13:37:14.147Z</time></trkpt><trkpt lat="45.7894167" lon="11.6153783"><ele>657.0</ele><time>2026-03-28T13:37:15.148Z</time></trkpt><trkpt lat="45.7894467" lon="11.61529"><ele>656.6666666666666</ele><time>2026-03-28T13:37:16.147Z</time></trkpt><trkpt lat="45.78947" lon="11.615195"><ele>656.3333333333333</ele><time>2026-03-28T13:37:17.148Z</time></trkpt><trkpt lat="45.789485" lon="11.6150867"><ele>656.0</ele><time>2026-03-28T13:37:18.148Z</time></trkpt><trkpt lat="45.78951" lon="11.6149717"><ele>656.0</ele><time>2026-03-28T13:37:19.148Z</time></trkpt><trkpt lat="45.789545" lon="11.6148617"><ele>656.0</ele><time>2026-03-28T13:37:20.148Z</time></trkpt><trkpt lat="45.7895983" lon="11.6147633"><ele>656.0</ele><time>2026-03-28T13:37:21.148Z</time></trkpt><trkpt lat="45.7896567" lon="11.6146567"><ele>656.0</ele><time>2026-03-28T13:37:22.147Z</time></trkpt><trkpt lat="45.7897083" lon="11.614545"><ele>656.0</ele><time>2026-03-28T13:37:23.148Z</time></trkpt><trkpt lat="45.7897683" lon="11.614445"><ele>654.5999999999999</ele><time>2026-03-28T13:37:24.147Z</time></trkpt><trkpt lat="45.7898217" lon="11.61435"><ele>653.2</ele><time>2026-03-28T13:37:25.148Z</time></trkpt><trkpt lat="45.78988" lon="11.6142383"><ele>651.8</ele><time>2026-03-28T13:37:26.148Z</time></trkpt><trkpt lat="45.7899433" lon="11.6141317"><ele>650.4000000000001</ele><time>2026-03-28T13:37:27.148Z</time></trkpt><trkpt lat="45.7900083" lon="11.6140333"><ele>649.0</ele><time>2026-03-28T13:37:28.148Z</time></trkpt><trkpt lat="45.7900733" lon="11.613955"><ele>649.0</ele><time>2026-03-28T13:37:29.148Z</time></trkpt><trkpt lat="45.7901383" lon="11.613875"><ele>649.0</ele><time>2026-03-28T13:37:30.147Z</time></trkpt><trkpt lat="45.7902117" lon="11.6137667"><ele>649.0</ele><time>2026-03-28T13:37:31.148Z</time></trkpt><trkpt lat="45.7902717" lon="11.6136867"><ele>649.0</ele><time>2026-03-28T13:37:32.147Z</time></trkpt><trkpt lat="45.7903217" lon="11.6135917"><ele>649.0</ele><time>2026-03-28T13:37:33.148Z</time></trkpt><trkpt lat="45.79036" lon="11.6134883"><ele>649.0</ele><time>2026-03-28T13:37:34.148Z</time></trkpt><trkpt lat="45.7903883" lon="11.613375"><ele>650.4285714285713</ele><time>2026-03-28T13:37:35.148Z</time></trkpt><trkpt lat="45.7904067" lon="11.6132733"><ele>651.8571428571429</ele><time>2026-03-28T13:37:36.148Z</time></trkpt><trkpt lat="45.790415" lon="11.6131817"><ele>653.2857142857142</ele><time>2026-03-28T13:37:37.148Z</time></trkpt><trkpt lat="45.79041" lon="11.6130917"><ele>654.7142857142857</ele><time>2026-03-28T13:37:38.148Z</time></trkpt><trkpt lat="45.7904133" lon="11.612995"><ele>656.1428571428571</ele><time>2026-03-28T13:37:39.148Z</time></trkpt><trkpt lat="45.7904133" lon="11.6128983"><ele>657.5714285714286</ele><time>2026-03-28T13:37:40.147Z</time></trkpt><trkpt lat="45.7904167" lon="11.6127917"><ele>659.0</ele><time>2026-03-28T13:37:41.148Z</time></trkpt><trkpt lat="45.7904133" lon="11.6126667"><ele>659.0</ele><time>2026-03-28T13:37:42.148Z</time></trkpt><trkpt lat="45.79041" lon="11.6125567"><ele>659.0</ele><time>2026-03-28T13:37:43.147Z</time></trkpt><trkpt lat="45.79041" lon="11.61246"><ele>659.0</ele><time>2026-03-28T13:37:44.147Z</time></trkpt><trkpt lat="45.7904267" lon="11.6123017"><ele>659.0</ele><time>2026-03-28T13:37:46.148Z</time></trkpt><trkpt lat="45.7907467" lon="11.6121283"><ele>658.0</ele><time>2026-03-28T13:37:47.148Z</time></trkpt><trkpt lat="45.7907467" lon="11.6119167"><ele>657.0</ele><time>2026-03-28T13:37:49.148Z</time></trkpt><trkpt lat="45.790735" lon="11.611815"><ele>656.0</ele><time>2026-03-28T13:37:50.148Z</time></trkpt><trkpt lat="45.79071" lon="11.6116433"><ele>655.0</ele><time>2026-03-28T13:37:52.148Z</time></trkpt><trkpt lat="45.7906683" lon="11.6115033"><ele>654.0</ele><time>2026-03-28T13:37:54.148Z</time></trkpt><trkpt lat="45.7906483" lon="11.6114033"><ele>654.0</ele><time>2026-03-28T13:37:56.148Z</time></trkpt><trkpt lat="45.7906117" lon="11.6113083"><ele>654.0</ele><time>2026-03-28T13:38:00.146Z</time></trkpt><trkpt lat="45.7905767" lon="11.611225"><ele>654.0</ele><time>2026-03-28T13:38:05.147Z</time></trkpt><trkpt lat="45.790565" lon="11.6111333"><ele>654.0</ele><time>2026-03-28T13:38:09.147Z</time></trkpt><trkpt lat="45.7905333" lon="11.6110383"><ele>654.0</ele><time>2026-03-28T13:38:15.146Z</time></trkpt><trkpt lat="45.790475" lon="11.6109917"><ele>654.0</ele><time>2026-03-28T13:38:23.147Z</time></trkpt><trkpt lat="45.7903567" lon="11.6109733"><ele>651.6666666666666</ele><time>2026-03-28T13:38:52.146Z</time></trkpt><trkpt lat="45.7903033" lon="11.6109183"><ele>649.3333333333334</ele><time>2026-03-28T13:39:00.147Z</time></trkpt><trkpt lat="45.7902433" lon="11.6108367"><ele>647.0</ele><time>2026-03-28T13:39:04.147Z</time></trkpt><trkpt lat="45.790185" lon="11.6107867"><ele>644.6666666666667</ele><time>2026-03-28T13:39:06.146Z</time></trkpt><trkpt lat="45.7901383" lon="11.610725"><ele>642.3333333333334</ele><time>2026-03-28T13:39:08.147Z</time></trkpt><trkpt lat="45.790095" lon="11.6106583"><ele>640.0</ele><time>2026-03-28T13:39:10.147Z</time></trkpt><trkpt lat="45.790075" lon="11.6105033"><ele>637.8</ele><time>2026-03-28T13:39:12.147Z</time></trkpt><trkpt lat="45.7900117" lon="11.61038"><ele>635.6</ele><time>2026-03-28T13:39:14.147Z</time></trkpt><trkpt lat="45.789975" lon="11.6102533"><ele>633.4</ele><time>2026-03-28T13:39:16.146Z</time></trkpt><trkpt lat="45.78994" lon="11.610115"><ele>631.2</ele><time>2026-03-28T13:39:18.146Z</time></trkpt><trkpt lat="45.789895" lon="11.6099633"><ele>629.0</ele><time>2026-03-28T13:39:20.146Z</time></trkpt><trkpt lat="45.7898417" lon="11.609825"><ele>627.5</ele><time>2026-03-28T13:39:22.147Z</time></trkpt><trkpt lat="45.7898033" lon="11.6097067"><ele>626.0</ele><time>2026-03-28T13:39:24.146Z</time></trkpt><trkpt lat="45.78977" lon="11.6096183"><ele>624.5</ele><time>2026-03-28T13:39:26.147Z</time></trkpt><trkpt lat="45.789725" lon="11.6095233"><ele>623.0</ele><time>2026-03-28T13:39:28.147Z</time></trkpt><trkpt lat="45.789675" lon="11.60945"><ele>621.5</ele><time>2026-03-28T13:39:31.147Z</time></trkpt><trkpt lat="45.7896317" lon="11.609365"><ele>620.0</ele><time>2026-03-28T13:39:34.147Z</time></trkpt><trkpt lat="45.7895967" lon="11.609285"><ele>619.6666666666666</ele><time>2026-03-28T13:39:37.147Z</time></trkpt><trkpt lat="45.7895617" lon="11.6091933"><ele>619.3333333333333</ele><time>2026-03-28T13:39:39.147Z</time></trkpt><trkpt lat="45.7895167" lon="11.6090917"><ele>619.0</ele><time>2026-03-28T13:39:41.147Z</time></trkpt><trkpt lat="45.7894583" lon="11.609035"><ele>618.6666666666666</ele><time>2026-03-28T13:39:43.147Z</time></trkpt><trkpt lat="45.789375" lon="11.608935"><ele>618.3333333333334</ele><time>2026-03-28T13:39:45.146Z</time></trkpt><trkpt lat="45.7892967" lon="11.6088583"><ele>618.0</ele><time>2026-03-28T13:39:47.147Z</time></trkpt><trkpt lat="45.789205" lon="11.6087917"><ele>617.6</ele><time>2026-03-28T13:39:49.147Z</time></trkpt><trkpt lat="45.7890883" lon="11.60873"><ele>617.1999999999999</ele><time>2026-03-28T13:39:51.146Z</time></trkpt><trkpt lat="45.7889733" lon="11.6086767"><ele>616.8</ele><time>2026-03-28T13:39:53.147Z</time></trkpt><trkpt lat="45.788905" lon="11.6086217"><ele>616.4</ele><time>2026-03-28T13:39:54.147Z</time></trkpt><trkpt lat="45.7888383" lon="11.6085467"><ele>616.0</ele><time>2026-03-28T13:39:55.146Z</time></trkpt><trkpt lat="45.7887917" lon="11.6084333"><ele>618.4</ele><time>2026-03-28T13:39:56.147Z</time></trkpt><trkpt lat="45.7887383" lon="11.6083167"><ele>620.8</ele><time>2026-03-28T13:39:57.147Z</time></trkpt><trkpt lat="45.78868" lon="11.608195"><ele>623.1999999999999</ele><time>2026-03-28T13:39:58.147Z</time></trkpt><trkpt lat="45.78861" lon="11.6080367"><ele>625.6</ele><time>2026-03-28T13:39:59.147Z</time></trkpt><trkpt lat="45.7885617" lon="11.6078983"><ele>628.0</ele><time>2026-03-28T13:40:00.147Z</time></trkpt><trkpt lat="45.7885167" lon="11.607765"><ele>626.0</ele><time>2026-03-28T13:40:01.147Z</time></trkpt><trkpt lat="45.7884817" lon="11.60762"><ele>624.0</ele><time>2026-03-28T13:40:02.147Z</time></trkpt><trkpt lat="45.7884483" lon="11.607485"><ele>622.0</ele><time>2026-03-28T13:40:03.147Z</time></trkpt><trkpt lat="45.7884183" lon="11.6073517"><ele>620.0</ele><time>2026-03-28T13:40:04.147Z</time></trkpt><trkpt lat="45.78837" lon="11.6072283"><ele>618.0</ele><time>2026-03-28T13:40:05.147Z</time></trkpt><trkpt lat="45.78834" lon="11.6071083"><ele>620.6</ele><time>2026-03-28T13:40:06.147Z</time></trkpt><trkpt lat="45.788315" lon="11.606985"><ele>623.1999999999999</ele><time>2026-03-28T13:40:07.146Z</time></trkpt><trkpt lat="45.7883017" lon="11.6068533"><ele>625.8</ele><time>2026-03-28T13:40:08.147Z</time></trkpt><trkpt lat="45.7882867" lon="11.6067217"><ele>628.4</ele><time>2026-03-28T13:40:09.147Z</time></trkpt><trkpt lat="45.7882733" lon="11.6065717"><ele>631.0</ele><time>2026-03-28T13:40:10.147Z</time></trkpt><trkpt lat="45.788265" lon="11.6063983"><ele>631.0</ele><time>2026-03-28T13:40:11.147Z</time></trkpt><trkpt lat="45.78827" lon="11.6062667"><ele>631.0</ele><time>2026-03-28T13:40:12.147Z</time></trkpt><trkpt lat="45.788255" lon="11.6061533"><ele>631.0</ele><time>2026-03-28T13:40:13.146Z</time></trkpt><trkpt lat="45.7882283" lon="11.60607"><ele>631.0</ele><time>2026-03-28T13:40:14.147Z</time></trkpt><trkpt lat="45.788175" lon="11.60596"><ele>631.0</ele><time>2026-03-28T13:40:15.147Z</time></trkpt><trkpt lat="45.7881133" lon="11.6058517"><ele>631.0</ele><time>2026-03-28T13:40:16.146Z</time></trkpt><trkpt lat="45.7880483" lon="11.605735"><ele>634.75</ele><time>2026-03-28T13:40:17.147Z</time></trkpt><trkpt lat="45.78799" lon="11.6056033"><ele>638.5</ele><time>2026-03-28T13:40:18.147Z</time></trkpt><trkpt lat="45.78794" lon="11.605455"><ele>642.25</ele><time>2026-03-28T13:40:19.147Z</time></trkpt><trkpt lat="45.7878917" lon="11.605295"><ele>646.0</ele><time>2026-03-28T13:40:20.146Z</time></trkpt><trkpt lat="45.7878467" lon="11.605125"><ele>649.5</ele><time>2026-03-28T13:40:21.147Z</time></trkpt><trkpt lat="45.7878067" lon="11.6049667"><ele>653.0</ele><time>2026-03-28T13:40:22.146Z</time></trkpt><trkpt lat="45.7877733" lon="11.6047833"><ele>656.5</ele><time>2026-03-28T13:40:23.147Z</time></trkpt><trkpt lat="45.7877517" lon="11.6045833"><ele>660.0</ele><time>2026-03-28T13:40:24.147Z</time></trkpt><trkpt lat="45.787725" lon="11.6043983"><ele>662.2</ele><time>2026-03-28T13:40:25.147Z</time></trkpt><trkpt lat="45.7876883" lon="11.6042217"><ele>664.4</ele><time>2026-03-28T13:40:26.147Z</time></trkpt><trkpt lat="45.787655" lon="11.604145"><ele>666.5999999999999</ele><time>2026-03-28T13:40:27.146Z</time></trkpt><trkpt lat="45.7875883" lon="11.604"><ele>668.8</ele><time>2026-03-28T13:40:28.146Z</time></trkpt><trkpt lat="45.78752" lon="11.6039183"><ele>671.0</ele><time>2026-03-28T13:40:29.147Z</time></trkpt><trkpt lat="45.787445" lon="11.6038133"><ele>667.5</ele><time>2026-03-28T13:40:30.147Z</time></trkpt><trkpt lat="45.7873817" lon="11.6036767"><ele>664.0</ele><time>2026-03-28T13:40:31.147Z</time></trkpt><trkpt lat="45.7873167" lon="11.6035267"><ele>660.5</ele><time>2026-03-28T13:40:32.147Z</time></trkpt><trkpt lat="45.7872567" lon="11.60339"><ele>657.0</ele><time>2026-03-28T13:40:33.147Z</time></trkpt><trkpt lat="45.7871933" lon="11.6032733"><ele>657.0</ele><time>2026-03-28T13:40:34.147Z</time></trkpt><trkpt lat="45.78712" lon="11.603145"><ele>657.0</ele><time>2026-03-28T13:40:35.147Z</time></trkpt><trkpt lat="45.7870283" lon="11.6030783"><ele>657.0</ele><time>2026-03-28T13:40:36.147Z</time></trkpt><trkpt lat="45.7869317" lon="11.6030267"><ele>657.0</ele><time>2026-03-28T13:40:37.147Z</time></trkpt><trkpt lat="45.7868367" lon="11.6029833"><ele>657.0</ele><time>2026-03-28T13:40:38.147Z</time></trkpt><trkpt lat="45.7867367" lon="11.6029467"><ele>658.2</ele><time>2026-03-28T13:40:39.147Z</time></trkpt><trkpt lat="45.786635" lon="11.6028917"><ele>659.4000000000001</ele><time>2026-03-28T13:40:40.147Z</time></trkpt><trkpt lat="45.7865317" lon="11.6028383"><ele>660.5999999999999</ele><time>2026-03-28T13:40:41.147Z</time></trkpt><trkpt lat="45.7864417" lon="11.60279"><ele>661.8</ele><time>2026-03-28T13:40:42.147Z</time></trkpt><trkpt lat="45.7863667" lon="11.60274"><ele>663.0</ele><time>2026-03-28T13:40:43.147Z</time></trkpt><trkpt lat="45.786295" lon="11.6026933"><ele>663.0</ele><time>2026-03-28T13:40:44.147Z</time></trkpt><trkpt lat="45.7862233" lon="11.6026283"><ele>663.0</ele><time>2026-03-28T13:40:45.147Z</time></trkpt><trkpt lat="45.78616" lon="11.602555"><ele>663.0</ele><time>2026-03-28T13:40:46.146Z</time></trkpt><trkpt lat="45.7861067" lon="11.60249"><ele>663.0</ele><time>2026-03-28T13:40:47.147Z</time></trkpt><trkpt lat="45.7860267" lon="11.60238"><ele>663.0</ele><time>2026-03-28T13:40:49.147Z</time></trkpt><trkpt lat="45.7859733" lon="11.6023017"><ele>663.0</ele><time>2026-03-28T13:40:52.146Z</time></trkpt><trkpt lat="45.785945" lon="11.602185"><ele>662.6666666666666</ele><time>2026-03-28T13:40:57.147Z</time></trkpt><trkpt lat="45.78593" lon="11.6020833"><ele>662.3333333333334</ele><time>2026-03-28T13:40:59.147Z</time></trkpt><trkpt lat="45.7859117" lon="11.6019783"><ele>662.0</ele><time>2026-03-28T13:41:02.147Z</time></trkpt><trkpt lat="45.7858983" lon="11.6018783"><ele>661.6666666666667</ele><time>2026-03-28T13:41:13.147Z</time></trkpt><trkpt lat="45.7859" lon="11.6017767"><ele>661.3333333333334</ele><time>2026-03-28T13:42:35.147Z</time></trkpt><trkpt lat="45.7859633" lon="11.6016967"><ele>661.0</ele><time>2026-03-28T13:42:40.147Z</time></trkpt><trkpt lat="45.7860167" lon="11.6016133"><ele>660.0</ele><time>2026-03-28T13:42:42.146Z</time></trkpt><trkpt lat="45.786065" lon="11.6015167"><ele>659.0</ele><time>2026-03-28T13:42:45.147Z</time></trkpt><trkpt lat="45.7861117" lon="11.6014183"><ele>658.0</ele><time>2026-03-28T13:42:47.147Z</time></trkpt><trkpt lat="45.7861567" lon="11.6013533"><ele>657.0</ele><time>2026-03-28T13:42:49.147Z</time></trkpt><trkpt lat="45.78622" lon="11.6012633"><ele>656.0</ele><time>2026-03-28T13:42:52.146Z</time></trkpt><trkpt lat="45.78628" lon="11.601205"><ele>655.0</ele><time>2026-03-28T13:42:54.147Z</time></trkpt><trkpt lat="45.7863683" lon="11.6010933"><ele>650.6</ele><time>2026-03-28T13:42:56.147Z</time></trkpt><trkpt lat="45.7864233" lon="11.60099"><ele>646.2</ele><time>2026-03-28T13:42:57.147Z</time></trkpt><trkpt lat="45.7864683" lon="11.6009233"><ele>641.8</ele><time>2026-03-28T13:42:58.146Z</time></trkpt><trkpt lat="45.78655" lon="11.600825"><ele>637.4</ele><time>2026-03-28T13:43:00.147Z</time></trkpt><trkpt lat="45.7866417" lon="11.60071"><ele>633.0</ele><time>2026-03-28T13:43:02.147Z</time></trkpt><trkpt lat="45.78674" lon="11.6005383"><ele>633.0</ele><time>2026-03-28T13:43:04.147Z</time></trkpt><trkpt lat="45.7868083" lon="11.600405"><ele>633.0</ele><time>2026-03-28T13:43:06.147Z</time></trkpt><trkpt lat="45.78688" lon="11.6002967"><ele>633.0</ele><time>2026-03-28T13:43:08.147Z</time></trkpt><trkpt lat="45.786935" lon="11.6002433"><ele>633.0</ele><time>2026-03-28T13:43:10.147Z</time></trkpt><trkpt lat="45.78699" lon="11.6001883"><ele>633.0</ele><time>2026-03-28T13:43:12.147Z</time></trkpt><trkpt lat="45.787045" lon="11.6001317"><ele>633.0</ele><time>2026-03-28T13:43:15.147Z</time></trkpt><trkpt lat="45.7871033" lon="11.6000567"><ele>630.8333333333334</ele><time>2026-03-28T13:43:18.147Z</time></trkpt><trkpt lat="45.7871617" lon="11.5999917"><ele>628.6666666666666</ele><time>2026-03-28T13:43:21.147Z</time></trkpt><trkpt lat="45.787245" lon="11.5999267"><ele>626.5</ele><time>2026-03-28T13:43:23.147Z</time></trkpt><trkpt lat="45.78731" lon="11.5998683"><ele>624.3333333333333</ele><time>2026-03-28T13:43:24.147Z</time></trkpt><trkpt lat="45.7873717" lon="11.5998117"><ele>622.1666666666666</ele><time>2026-03-28T13:43:25.147Z</time></trkpt><trkpt lat="45.78744" lon="11.599725"><ele>620.0</ele><time>2026-03-28T13:43:26.146Z</time></trkpt><trkpt lat="45.7875" lon="11.599655"><ele>620.0</ele><time>2026-03-28T13:43:27.146Z</time></trkpt><trkpt lat="45.7875633" lon="11.5995633"><ele>620.0</ele><time>2026-03-28T13:43:28.147Z</time></trkpt><trkpt lat="45.7876567" lon="11.5994167"><ele>620.0</ele><time>2026-03-28T13:43:30.147Z</time></trkpt><trkpt lat="45.787715" lon="11.5993417"><ele>620.0</ele><time>2026-03-28T13:43:31.147Z</time></trkpt><trkpt lat="45.787815" lon="11.5992517"><ele>620.0</ele><time>2026-03-28T13:43:33.147Z</time></trkpt><trkpt lat="45.7879117" lon="11.599145"><ele>618.0</ele><time>2026-03-28T13:43:35.147Z</time></trkpt><trkpt lat="45.78796" lon="11.5990867"><ele>616.0</ele><time>2026-03-28T13:43:36.146Z</time></trkpt><trkpt lat="45.7880367" lon="11.59898"><ele>614.0</ele><time>2026-03-28T13:43:38.146Z</time></trkpt><trkpt lat="45.7881117" lon="11.5989083"><ele>612.0</ele><time>2026-03-28T13:43:40.147Z</time></trkpt><trkpt lat="45.788185" lon="11.59879"><ele>610.0</ele><time>2026-03-28T13:43:43.147Z</time></trkpt><trkpt lat="45.7882283" lon="11.5987133"><ele>608.0</ele><time>2026-03-28T13:43:44.146Z</time></trkpt><trkpt lat="45.7882733" lon="11.5986233"><ele>605.6</ele><time>2026-03-28T13:43:45.146Z</time></trkpt><trkpt lat="45.7883517" lon="11.598475"><ele>603.1999999999999</ele><time>2026-03-28T13:43:46.147Z</time></trkpt><trkpt lat="45.7884167" lon="11.5983417"><ele>600.8</ele><time>2026-03-28T13:43:47.147Z</time></trkpt><trkpt lat="45.7884733" lon="11.5982283"><ele>598.4</ele><time>2026-03-28T13:43:48.147Z</time></trkpt><trkpt lat="45.7885333" lon="11.59812"><ele>596.0</ele><time>2026-03-28T13:43:49.147Z</time></trkpt><trkpt lat="45.7885883" lon="11.5980183"><ele>596.0</ele><time>2026-03-28T13:43:50.146Z</time></trkpt><trkpt lat="45.7886533" lon="11.5979033"><ele>596.0</ele><time>2026-03-28T13:43:51.147Z</time></trkpt><trkpt lat="45.7887067" lon="11.5977967"><ele>596.0</ele><time>2026-03-28T13:43:52.147Z</time></trkpt><trkpt lat="45.7887517" lon="11.5976833"><ele>596.0</ele><time>2026-03-28T13:43:53.147Z</time></trkpt><trkpt lat="45.788795" lon="11.5975467"><ele>596.0</ele><time>2026-03-28T13:43:54.147Z</time></trkpt><trkpt lat="45.7888317" lon="11.597445"><ele>593.0</ele><time>2026-03-28T13:43:55.147Z</time></trkpt><trkpt lat="45.7888767" lon="11.5973667"><ele>590.0</ele><time>2026-03-28T13:43:56.146Z</time></trkpt><trkpt lat="45.7889317" lon="11.5972267"><ele>587.0</ele><time>2026-03-28T13:43:58.147Z</time></trkpt><trkpt lat="45.7889283" lon="11.5971167"><ele>584.0</ele><time>2026-03-28T13:44:00.147Z</time></trkpt><trkpt lat="45.78893" lon="11.597"><ele>581.0</ele><time>2026-03-28T13:44:02.147Z</time></trkpt><trkpt lat="45.78896" lon="11.5969"><ele>578.0</ele><time>2026-03-28T13:44:05.146Z</time></trkpt><trkpt lat="45.7890067" lon="11.596835"><ele>577.6666666666666</ele><time>2026-03-28T13:44:08.147Z</time></trkpt><trkpt lat="45.7890533" lon="11.5967683"><ele>577.3333333333333</ele><time>2026-03-28T13:44:11.147Z</time></trkpt><trkpt lat="45.7890983" lon="11.59667"><ele>577.0</ele><time>2026-03-28T13:44:24.147Z</time></trkpt><trkpt lat="45.7891783" lon="11.5965883"><ele>576.6666666666666</ele><time>2026-03-28T13:44:26.146Z</time></trkpt><trkpt lat="45.7892783" lon="11.59649"><ele>576.3333333333334</ele><time>2026-03-28T13:44:28.147Z</time></trkpt><trkpt lat="45.7893383" lon="11.5964367"><ele>576.0</ele><time>2026-03-28T13:44:29.146Z</time></trkpt><trkpt lat="45.78939" lon="11.5963783"><ele>576.0</ele><time>2026-03-28T13:44:30.147Z</time></trkpt><trkpt lat="45.7894483" lon="11.5963117"><ele>576.0</ele><time>2026-03-28T13:44:31.146Z</time></trkpt><trkpt lat="45.78951" lon="11.5962583"><ele>576.0</ele><time>2026-03-28T13:44:32.147Z</time></trkpt><trkpt lat="45.789565" lon="11.5961967"><ele>576.0</ele><time>2026-03-28T13:44:33.146Z</time></trkpt><trkpt lat="45.789615" lon="11.5961267"><ele>576.0</ele><time>2026-03-28T13:44:34.147Z</time></trkpt><trkpt lat="45.7896717" lon="11.5960533"><ele>576.0</ele><time>2026-03-28T13:44:35.147Z</time></trkpt><trkpt lat="45.789735" lon="11.595965"><ele>574.1666666666666</ele><time>2026-03-28T13:44:36.146Z</time></trkpt><trkpt lat="45.7898017" lon="11.595865"><ele>572.3333333333334</ele><time>2026-03-28T13:44:37.147Z</time></trkpt><trkpt lat="45.7898633" lon="11.5957633"><ele>570.5</ele><time>2026-03-28T13:44:38.147Z</time></trkpt><trkpt lat="45.7899217" lon="11.595665"><ele>568.6666666666667</ele><time>2026-03-28T13:44:39.147Z</time></trkpt><trkpt lat="45.789975" lon="11.595575"><ele>566.8333333333334</ele><time>2026-03-28T13:44:40.147Z</time></trkpt><trkpt lat="45.7900233" lon="11.595495"><ele>565.0</ele><time>2026-03-28T13:44:41.147Z</time></trkpt><trkpt lat="45.79007" lon="11.5954183"><ele>565.0</ele><time>2026-03-28T13:44:42.147Z</time></trkpt><trkpt lat="45.7901217" lon="11.5953533"><ele>565.0</ele><time>2026-03-28T13:44:43.147Z</time></trkpt><trkpt lat="45.7901717" lon="11.5952833"><ele>565.0</ele><time>2026-03-28T13:44:44.147Z</time></trkpt><trkpt lat="45.7902217" lon="11.59522"><ele>565.0</ele><time>2026-03-28T13:44:45.147Z</time></trkpt><trkpt lat="45.7902767" lon="11.595155"><ele>565.0</ele><time>2026-03-28T13:44:46.147Z</time></trkpt><trkpt lat="45.7903383" lon="11.5950767"><ele>565.0</ele><time>2026-03-28T13:44:47.147Z</time></trkpt><trkpt lat="45.79043" lon="11.595015"><ele>566.25</ele><time>2026-03-28T13:44:48.147Z</time></trkpt><trkpt lat="45.7905167" lon="11.59493"><ele>567.5</ele><time>2026-03-28T13:44:49.147Z</time></trkpt><trkpt lat="45.7906133" lon="11.5948483"><ele>568.75</ele><time>2026-03-28T13:44:50.147Z</time></trkpt><trkpt lat="45.7907283" lon="11.5947767"><ele>570.0</ele><time>2026-03-28T13:44:51.146Z</time></trkpt><trkpt lat="45.790845" lon="11.5947083"><ele>570.0</ele><time>2026-03-28T13:44:52.147Z</time></trkpt><trkpt lat="45.7909667" lon="11.5946367"><ele>570.0</ele><time>2026-03-28T13:44:53.147Z</time></trkpt><trkpt lat="45.7910717" lon="11.5945633"><ele>570.0</ele><time>2026-03-28T13:44:54.147Z</time></trkpt><trkpt lat="45.7911483" lon="11.5945167"><ele>570.0</ele><time>2026-03-28T13:44:55.147Z</time></trkpt><trkpt lat="45.7912667" lon="11.5944567"><ele>570.6666666666666</ele><time>2026-03-28T13:44:56.147Z</time></trkpt><trkpt lat="45.7913867" lon="11.594405"><ele>571.3333333333333</ele><time>2026-03-28T13:44:57.146Z</time></trkpt><trkpt lat="45.7914833" lon="11.5943617"><ele>572.0</ele><time>2026-03-28T13:44:58.147Z</time></trkpt><trkpt lat="45.7890067" lon="11.596835"><ele>571.3333333333333</ele><time>2026-03-28T13:44:08.147Z</time></trkpt><trkpt lat="45.7890533" lon="11.5967683"><ele>570.6666666666666</ele><time>2026-03-28T13:44:11.147Z</time></trkpt><trkpt lat="45.7890983" lon="11.59667"><ele>570.0</ele><time>2026-03-28T13:44:24.147Z</time></trkpt><trkpt lat="45.7891783" lon="11.5965883"><ele>569.3333333333334</ele><time>2026-03-28T13:44:26.146Z</time></trkpt><trkpt lat="45.7892783" lon="11.59649"><ele>568.6666666666667</ele><time>2026-03-28T13:44:28.147Z</time></trkpt><trkpt lat="45.7893383" lon="11.5964367"><ele>568.0</ele><time>2026-03-28T13:44:29.146Z</time></trkpt><trkpt lat="45.78939" lon="11.5963783"><ele>567.5</ele><time>2026-03-28T13:44:30.147Z</time></trkpt><trkpt lat="45.7894483" lon="11.5963117"><ele>567.0</ele><time>2026-03-28T13:44:31.146Z</time></trkpt><trkpt lat="45.78951" lon="11.5962583"><ele>566.5</ele><time>2026-03-28T13:44:32.147Z</time></trkpt><trkpt lat="45.789565" lon="11.5961967"><ele>566.0</ele><time>2026-03-28T13:44:33.146Z</time></trkpt><trkpt lat="45.789615" lon="11.5961267"><ele>565.5</ele><time>2026-03-28T13:44:34.147Z</time></trkpt><trkpt lat="45.7896717" lon="11.5960533"><ele>565.0</ele><time>2026-03-28T13:44:35.147Z</time></trkpt><trkpt lat="45.789735" lon="11.595965"><ele>565.0</ele><time>2026-03-28T13:44:36.146Z</time></trkpt><trkpt lat="45.7898017" lon="11.595865"><ele>565.0</ele><time>2026-03-28T13:44:37.147Z</time></trkpt><trkpt lat="45.7898633" lon="11.5957633"><ele>565.0</ele><time>2026-03-28T13:44:38.147Z</time></trkpt><trkpt lat="45.7899217" lon="11.595665"><ele>565.0</ele><time>2026-03-28T13:44:39.147Z</time></trkpt><trkpt lat="45.789975" lon="11.595575"><ele>565.0</ele><time>2026-03-28T13:44:40.147Z</time></trkpt><trkpt lat="45.7900233" lon="11.595495"><ele>565.0</ele><time>2026-03-28T13:44:41.147Z</time></trkpt><trkpt lat="45.79007" lon="11.5954183"><ele>565.0</ele><time>2026-03-28T13:44:42.147Z</time></trkpt><trkpt lat="45.7901217" lon="11.5953533"><ele>565.0</ele><time>2026-03-28T13:44:43.147Z</time></trkpt><trkpt lat="45.7901717" lon="11.5952833"><ele>565.0</ele><time>2026-03-28T13:44:44.147Z</time></trkpt><trkpt lat="45.7902217" lon="11.59522"><ele>565.0</ele><time>2026-03-28T13:44:45.147Z</time></trkpt><trkpt lat="45.7902767" lon="11.595155"><ele>565.0</ele><time>2026-03-28T13:44:46.147Z</time></trkpt><trkpt lat="45.7903383" lon="11.5950767"><ele>565.0</ele><time>2026-03-28T13:44:47.147Z</time></trkpt><trkpt lat="45.79043" lon="11.595015"><ele>566.25</ele><time>2026-03-28T13:44:48.147Z</time></trkpt><trkpt lat="45.7905167" lon="11.59493"><ele>567.5</ele><time>2026-03-28T13:44:49.147Z</time></trkpt><trkpt lat="45.7906133" lon="11.5948483"><ele>568.75</ele><time>2026-03-28T13:44:50.147Z</time></trkpt><trkpt lat="45.7907283" lon="11.5947767"><ele>570.0</ele><time>2026-03-28T13:44:51.146Z</time></trkpt><trkpt lat="45.790845" lon="11.5947083"><ele>570.0</ele><time>2026-03-28T13:44:52.147Z</time></trkpt><trkpt lat="45.7909667" lon="11.5946367"><ele>570.0</ele><time>2026-03-28T13:44:53.147Z</time></trkpt><trkpt lat="45.7910717" lon="11.5945633"><ele>570.0</ele><time>2026-03-28T13:44:54.147Z</time></trkpt><trkpt lat="45.7911483" lon="11.5945167"><ele>570.0</ele><time>2026-03-28T13:44:55.147Z</time></trkpt><trkpt lat="45.7912667" lon="11.5944567"><ele>570.4</ele><time>2026-03-28T13:44:56.147Z</time></trkpt><trkpt lat="45.7913867" lon="11.594405"><ele>570.8</ele><time>2026-03-28T13:44:57.146Z</time></trkpt><trkpt lat="45.7914833" lon="11.5943617"><ele>571.2</ele><time>2026-03-28T13:44:58.147Z</time></trkpt><trkpt lat="45.791565" lon="11.594315"><ele>571.6</ele><time>2026-03-28T13:44:59.147Z</time></trkpt><trkpt lat="45.7916283" lon="11.5942483"><ele>572.0</ele><time>2026-03-28T13:45:00.147Z</time></trkpt><trkpt lat="45.7916733" lon="11.59418"><ele>572.0</ele><time>2026-03-28T13:45:01.146Z</time></trkpt><trkpt lat="45.7917267" lon="11.5940317"><ele>572.0</ele><time>2026-03-28T13:45:03.146Z</time></trkpt><trkpt lat="45.7917033" lon="11.59391"><ele>572.0</ele><time>2026-03-28T13:45:05.147Z</time></trkpt><trkpt lat="45.7916633" lon="11.593795"><ele>572.0</ele><time>2026-03-28T13:45:06.147Z</time></trkpt><trkpt lat="45.7916" lon="11.59361"><ele>572.0</ele><time>2026-03-28T13:45:07.146Z</time></trkpt><trkpt lat="45.79152" lon="11.5934583"><ele>572.6666666666666</ele><time>2026-03-28T13:45:08.147Z</time></trkpt><trkpt lat="45.791435" lon="11.593275"><ele>573.3333333333334</ele><time>2026-03-28T13:45:09.147Z</time></trkpt><trkpt lat="45.7913667" lon="11.593075"><ele>574.0</ele><time>2026-03-28T13:45:10.147Z</time></trkpt><trkpt lat="45.7913067" lon="11.5928583"><ele>575.0</ele><time>2026-03-28T13:45:11.147Z</time></trkpt><trkpt lat="45.79125" lon="11.592655"><ele>576.0</ele><time>2026-03-28T13:45:12.147Z</time></trkpt><trkpt lat="45.7911933" lon="11.592445"><ele>577.0</ele><time>2026-03-28T13:45:13.147Z</time></trkpt><trkpt lat="45.7911467" lon="11.5922583"><ele>578.0</ele><time>2026-03-28T13:45:14.147Z</time></trkpt><trkpt lat="45.791105" lon="11.5920633"><ele>578.75</ele><time>2026-03-28T13:45:15.146Z</time></trkpt><trkpt lat="45.791085" lon="11.59187"><ele>579.5</ele><time>2026-03-28T13:45:16.147Z</time></trkpt><trkpt lat="45.7910783" lon="11.5916517"><ele>580.25</ele><time>2026-03-28T13:45:17.146Z</time></trkpt><trkpt lat="45.791075" lon="11.5914367"><ele>581.0</ele><time>2026-03-28T13:45:18.147Z</time></trkpt><trkpt lat="45.791065" lon="11.5912217"><ele>583.3333333333333</ele><time>2026-03-28T13:45:19.147Z</time></trkpt><trkpt lat="45.791035" lon="11.5909933"><ele>585.6666666666666</ele><time>2026-03-28T13:45:20.147Z</time></trkpt><trkpt lat="45.7909933" lon="11.59076"><ele>588.0</ele><time>2026-03-28T13:45:21.146Z</time></trkpt><trkpt lat="45.7909483" lon="11.59053"><ele>587.3333333333334</ele><time>2026-03-28T13:45:22.147Z</time></trkpt><trkpt lat="45.7909067" lon="11.5903083"><ele>586.6666666666667</ele><time>2026-03-28T13:45:23.147Z</time></trkpt><trkpt lat="45.7908533" lon="11.5900733"><ele>586.0</ele><time>2026-03-28T13:45:24.147Z</time></trkpt><trkpt lat="45.7908167" lon="11.5898767"><ele>586.0</ele><time>2026-03-28T13:45:25.146Z</time></trkpt><trkpt lat="45.7907617" lon="11.5896717"><ele>586.0</ele><time>2026-03-28T13:45:26.147Z</time></trkpt><trkpt lat="45.7907017" lon="11.589475"><ele>586.0</ele><time>2026-03-28T13:45:27.147Z</time></trkpt><trkpt lat="45.79063" lon="11.5892733"><ele>587.6666666666667</ele><time>2026-03-28T13:45:28.147Z</time></trkpt><trkpt lat="45.7905583" lon="11.5890783"><ele>589.3333333333334</ele><time>2026-03-28T13:45:29.147Z</time></trkpt><trkpt lat="45.7905017" lon="11.5888817"><ele>591.0</ele><time>2026-03-28T13:45:30.146Z</time></trkpt><trkpt lat="45.7904517" lon="11.5886817"><ele>592.75</ele><time>2026-03-28T13:45:31.147Z</time></trkpt><trkpt lat="45.79041" lon="11.588475"><ele>594.5</ele><time>2026-03-28T13:45:32.146Z</time></trkpt><trkpt lat="45.7903633" lon="11.5882683"><ele>596.25</ele><time>2026-03-28T13:45:33.146Z</time></trkpt><trkpt lat="45.7903267" lon="11.5880633"><ele>598.0</ele><time>2026-03-28T13:45:34.147Z</time></trkpt><trkpt lat="45.79029" lon="11.5878567"><ele>598.25</ele><time>2026-03-28T13:45:35.147Z</time></trkpt><trkpt lat="45.7902533" lon="11.5876533"><ele>598.5</ele><time>2026-03-28T13:45:36.147Z</time></trkpt><trkpt lat="45.790215" lon="11.587455"><ele>598.75</ele><time>2026-03-28T13:45:37.147Z</time></trkpt><trkpt lat="45.790175" lon="11.587265"><ele>599.0</ele><time>2026-03-28T13:45:38.147Z</time></trkpt><trkpt lat="45.7901283" lon="11.58709"><ele>599.5</ele><time>2026-03-28T13:45:39.147Z</time></trkpt><trkpt lat="45.7900817" lon="11.5869117"><ele>600.0</ele><time>2026-03-28T13:45:40.147Z</time></trkpt><trkpt lat="45.79002" lon="11.5867"><ele>600.5</ele><time>2026-03-28T13:45:41.147Z</time></trkpt><trkpt lat="45.7899417" lon="11.58651"><ele>601.0</ele><time>2026-03-28T13:45:42.147Z</time></trkpt><trkpt lat="45.7898917" lon="11.5863467"><ele>601.25</ele><time>2026-03-28T13:45:43.146Z</time></trkpt><trkpt lat="45.7898483" lon="11.586135"><ele>601.5</ele><time>2026-03-28T13:45:44.147Z</time></trkpt><trkpt lat="45.7898067" lon="11.585925"><ele>601.75</ele><time>2026-03-28T13:45:45.147Z</time></trkpt><trkpt lat="45.7897667" lon="11.5857367"><ele>602.0</ele><time>2026-03-28T13:45:46.147Z</time></trkpt><trkpt lat="45.7897267" lon="11.585575"><ele>602.0</ele><time>2026-03-28T13:45:47.146Z</time></trkpt><trkpt lat="45.78969" lon="11.5854317"><ele>602.0</ele><time>2026-03-28T13:45:48.146Z</time></trkpt><trkpt lat="45.789665" lon="11.58531"><ele>602.0</ele><time>2026-03-28T13:45:49.147Z</time></trkpt><trkpt lat="45.78964" lon="11.5852067"><ele>602.0</ele><time>2026-03-28T13:45:50.146Z</time></trkpt><trkpt lat="45.78961" lon="11.5851133"><ele>602.0</ele><time>2026-03-28T13:45:51.147Z</time></trkpt><trkpt lat="45.7895583" lon="11.58498"><ele>602.0</ele><time>2026-03-28T13:45:53.147Z</time></trkpt><trkpt lat="45.7894667" lon="11.5849617"><ele>603.1666666666666</ele><time>2026-03-28T13:45:57.147Z</time></trkpt><trkpt lat="45.789365" lon="11.584935"><ele>604.3333333333333</ele><time>2026-03-28T13:45:59.147Z</time></trkpt><trkpt lat="45.789295" lon="11.584925"><ele>605.5</ele><time>2026-03-28T13:46:00.147Z</time></trkpt><trkpt lat="45.7892117" lon="11.5849133"><ele>606.6666666666666</ele><time>2026-03-28T13:46:01.147Z</time></trkpt><trkpt lat="45.7891333" lon="11.5848983"><ele>607.8333333333334</ele><time>2026-03-28T13:46:02.146Z</time></trkpt><trkpt lat="45.7890533" lon="11.584875"><ele>609.0</ele><time>2026-03-28T13:46:03.146Z</time></trkpt><trkpt lat="45.788975" lon="11.584845"><ele>609.0</ele><time>2026-03-28T13:46:04.147Z</time></trkpt><trkpt lat="45.7889017" lon="11.5848267"><ele>609.0</ele><time>2026-03-28T13:46:05.147Z</time></trkpt><trkpt lat="45.7888333" lon="11.58481"><ele>609.0</ele><time>2026-03-28T13:46:06.147Z</time></trkpt><trkpt lat="45.7887683" lon="11.5848017"><ele>609.0</ele><time>2026-03-28T13:46:07.146Z</time></trkpt><trkpt lat="45.7887" lon="11.58479"><ele>609.0</ele><time>2026-03-28T13:46:08.147Z</time></trkpt><trkpt lat="45.7886283" lon="11.584775"><ele>609.0</ele><time>2026-03-28T13:46:09.147Z</time></trkpt><trkpt lat="45.7885633" lon="11.58477"><ele>609.0</ele><time>2026-03-28T13:46:10.146Z</time></trkpt><trkpt lat="45.7884533" lon="11.5847667"><ele>610.6</ele><time>2026-03-28T13:46:12.147Z</time></trkpt><trkpt lat="45.7883667" lon="11.5847533"><ele>612.2</ele><time>2026-03-28T13:46:14.147Z</time></trkpt><trkpt lat="45.7882567" lon="11.5847317"><ele>613.8000000000001</ele><time>2026-03-28T13:46:16.147Z</time></trkpt><trkpt lat="45.7881417" lon="11.58469"><ele>615.4</ele><time>2026-03-28T13:46:18.146Z</time></trkpt><trkpt lat="45.7880617" lon="11.5846983"><ele>617.0</ele><time>2026-03-28T13:46:20.146Z</time></trkpt><trkpt lat="45.7879933" lon="11.58472"><ele>617.0</ele><time>2026-03-28T13:46:21.146Z</time></trkpt><trkpt lat="45.787915" lon="11.584715"><ele>617.0</ele><time>2026-03-28T13:46:23.147Z</time></trkpt><trkpt lat="45.78782" lon="11.584695"><ele>617.0</ele><time>2026-03-28T13:46:25.147Z</time></trkpt><trkpt lat="45.7877483" lon="11.5846167"><ele>617.0</ele><time>2026-03-28T13:46:27.147Z</time></trkpt><trkpt lat="45.7877167" lon="11.5845333"><ele>617.0</ele><time>2026-03-28T13:46:29.147Z</time></trkpt><trkpt lat="45.787645" lon="11.5844333"><ele>617.0</ele><time>2026-03-28T13:46:32.147Z</time></trkpt><trkpt lat="45.7876083" lon="11.5843433"><ele>619.2</ele><time>2026-03-28T13:46:34.146Z</time></trkpt><trkpt lat="45.7875617" lon="11.58426"><ele>621.4000000000001</ele><time>2026-03-28T13:46:36.147Z</time></trkpt><trkpt lat="45.7874967" lon="11.5841817"><ele>623.5999999999999</ele><time>2026-03-28T13:46:38.146Z</time></trkpt><trkpt lat="45.787425" lon="11.5841383"><ele>625.8</ele><time>2026-03-28T13:46:41.146Z</time></trkpt><trkpt lat="45.7873033" lon="11.5841167"><ele>628.0</ele><time>2026-03-28T13:46:54.147Z</time></trkpt><trkpt lat="45.7871967" lon="11.5841083"><ele>628.0</ele><time>2026-03-28T13:46:56.147Z</time></trkpt><trkpt lat="45.7870817" lon="11.5840583"><ele>628.0</ele><time>2026-03-28T13:46:58.147Z</time></trkpt><trkpt lat="45.7870083" lon="11.5840233"><ele>628.0</ele><time>2026-03-28T13:47:00.147Z</time></trkpt><trkpt lat="45.7869383" lon="11.58402"><ele>628.0</ele><time>2026-03-28T13:47:02.147Z</time></trkpt><trkpt lat="45.786865" lon="11.5839483"><ele>628.0</ele><time>2026-03-28T13:47:05.146Z</time></trkpt><trkpt lat="45.7867967" lon="11.5839117"><ele>628.0</ele><time>2026-03-28T13:47:08.146Z</time></trkpt><trkpt lat="45.786715" lon="11.5838867"><ele>631.1666666666667</ele><time>2026-03-28T13:47:10.147Z</time></trkpt><trkpt lat="45.7866433" lon="11.5838533"><ele>634.3333333333334</ele><time>2026-03-28T13:47:12.146Z</time></trkpt><trkpt lat="45.7865933" lon="11.5837917"><ele>637.5</ele><time>2026-03-28T13:47:14.147Z</time></trkpt><trkpt lat="45.786535" lon="11.583705"><ele>640.6666666666666</ele><time>2026-03-28T13:47:16.147Z</time></trkpt><trkpt lat="45.7864517" lon="11.583615"><ele>643.8333333333333</ele><time>2026-03-28T13:47:18.147Z</time></trkpt><trkpt lat="45.7863967" lon="11.58356"><ele>647.0</ele><time>2026-03-28T13:47:19.147Z</time></trkpt><trkpt lat="45.786335" lon="11.58351"><ele>647.2</ele><time>2026-03-28T13:47:20.147Z</time></trkpt><trkpt lat="45.7862683" lon="11.583425"><ele>647.4000000000001</ele><time>2026-03-28T13:47:21.147Z</time></trkpt><trkpt lat="45.78622" lon="11.5833517"><ele>647.5999999999999</ele><time>2026-03-28T13:47:22.147Z</time></trkpt><trkpt lat="45.7861567" lon="11.5831167"><ele>647.8</ele><time>2026-03-28T13:47:23.147Z</time></trkpt><trkpt lat="45.786105" lon="11.583025"><ele>648.0</ele><time>2026-03-28T13:47:24.147Z</time></trkpt><trkpt lat="45.7860517" lon="11.582935"><ele>655.5</ele><time>2026-03-28T13:47:25.147Z</time></trkpt><trkpt lat="45.7859833" lon="11.5827217"><ele>663.0</ele><time>2026-03-28T13:47:26.147Z</time></trkpt><trkpt lat="45.7859233" lon="11.5825833"><ele>670.5</ele><time>2026-03-28T13:47:27.147Z</time></trkpt><trkpt lat="45.7858817" lon="11.58244"><ele>678.0</ele><time>2026-03-28T13:47:28.147Z</time></trkpt><trkpt lat="45.7858367" lon="11.58231"><ele>678.0</ele><time>2026-03-28T13:47:29.146Z</time></trkpt><trkpt lat="45.7857917" lon="11.5822017"><ele>678.0</ele><time>2026-03-28T13:47:30.147Z</time></trkpt><trkpt lat="45.7857483" lon="11.58212"><ele>678.0</ele><time>2026-03-28T13:47:31.147Z</time></trkpt><trkpt lat="45.7857033" lon="11.582025"><ele>678.0</ele><time>2026-03-28T13:47:32.147Z</time></trkpt><trkpt lat="45.785655" lon="11.58193"><ele>678.0</ele><time>2026-03-28T13:47:33.147Z</time></trkpt><trkpt lat="45.7856083" lon="11.5818367"><ele>678.0</ele><time>2026-03-28T13:47:34.147Z</time></trkpt><trkpt lat="45.7855583" lon="11.5817533"><ele>676.1666666666666</ele><time>2026-03-28T13:47:35.146Z</time></trkpt><trkpt lat="45.7855083" lon="11.5816683"><ele>674.3333333333334</ele><time>2026-03-28T13:47:36.146Z</time></trkpt><trkpt lat="45.7854467" lon="11.581605"><ele>672.5</ele><time>2026-03-28T13:47:37.147Z</time></trkpt><trkpt lat="45.78537" lon="11.58155"><ele>670.6666666666667</ele><time>2026-03-28T13:47:38.146Z</time></trkpt><trkpt lat="45.7852817" lon="11.58149"><ele>668.8333333333334</ele><time>2026-03-28T13:47:39.147Z</time></trkpt><trkpt lat="45.7851933" lon="11.5814283"><ele>667.0</ele><time>2026-03-28T13:47:40.147Z</time></trkpt><trkpt lat="45.7851033" lon="11.5813483"><ele>671.1666666666667</ele><time>2026-03-28T13:47:41.147Z</time></trkpt><trkpt lat="45.785025" lon="11.5812817"><ele>675.3333333333334</ele><time>2026-03-28T13:47:42.147Z</time></trkpt><trkpt lat="45.7849483" lon="11.5812183"><ele>679.5</ele><time>2026-03-28T13:47:43.146Z</time></trkpt><trkpt lat="45.7848717" lon="11.5811383"><ele>683.6666666666666</ele><time>2026-03-28T13:47:44.147Z</time></trkpt><trkpt lat="45.7848017" lon="11.5810583"><ele>687.8333333333333</ele><time>2026-03-28T13:47:45.147Z</time></trkpt><trkpt lat="45.7847383" lon="11.5809983"><ele>692.0</ele><time>2026-03-28T13:47:46.147Z</time></trkpt><trkpt lat="45.7846883" lon="11.5809433"><ele>692.0</ele><time>2026-03-28T13:47:47.147Z</time></trkpt><trkpt lat="45.7846117" lon="11.58089"><ele>692.0</ele><time>2026-03-28T13:47:49.146Z</time></trkpt><trkpt lat="45.7845667" lon="11.580815"><ele>692.0</ele><time>2026-03-28T13:47:51.147Z</time></trkpt><trkpt lat="45.78455" lon="11.5806617"><ele>692.0</ele><time>2026-03-28T13:47:53.147Z</time></trkpt><trkpt lat="45.78455" lon="11.580555"><ele>692.0</ele><time>2026-03-28T13:47:54.147Z</time></trkpt><trkpt lat="45.7845667" lon="11.5804133"><ele>692.0</ele><time>2026-03-28T13:47:55.147Z</time></trkpt><trkpt lat="45.7845767" lon="11.5802783"><ele>692.1428571428571</ele><time>2026-03-28T13:47:56.147Z</time></trkpt><trkpt lat="45.7845767" lon="11.5801867"><ele>692.2857142857143</ele><time>2026-03-28T13:47:57.147Z</time></trkpt><trkpt lat="45.7845933" lon="11.58008"><ele>692.4285714285714</ele><time>2026-03-28T13:47:59.147Z</time></trkpt><trkpt lat="45.78463" lon="11.5799883"><ele>692.5714285714286</ele><time>2026-03-28T13:48:01.147Z</time></trkpt><trkpt lat="45.7846167" lon="11.5798817"><ele>692.7142857142858</ele><time>2026-03-28T13:48:18.147Z</time></trkpt><trkpt lat="45.7845733" lon="11.5798117"><ele>692.8571428571429</ele><time>2026-03-28T13:48:25.147Z</time></trkpt><trkpt lat="45.784535" lon="11.579725"><ele>693.0</ele><time>2026-03-28T13:48:38.146Z</time></trkpt><trkpt lat="45.7844967" lon="11.57964"><ele>693.0</ele><time>2026-03-28T13:48:41.147Z</time></trkpt><trkpt lat="45.7844283" lon="11.579555"><ele>693.0</ele><time>2026-03-28T13:48:44.147Z</time></trkpt><trkpt lat="45.7843933" lon="11.5794583"><ele>693.0</ele><time>2026-03-28T13:48:47.147Z</time></trkpt><trkpt lat="45.7843917" lon="11.5793267"><ele>693.0</ele><time>2026-03-28T13:48:48.147Z</time></trkpt><trkpt lat="45.784345" lon="11.5792433"><ele>693.0</ele><time>2026-03-28T13:48:50.147Z</time></trkpt><trkpt lat="45.7843117" lon="11.5791633"><ele>693.0</ele><time>2026-03-28T13:48:52.147Z</time></trkpt><trkpt lat="45.7842867" lon="11.5790767"><ele>694.1666666666666</ele><time>2026-03-28T13:48:54.146Z</time></trkpt><trkpt lat="45.7842567" lon="11.578985"><ele>695.3333333333334</ele><time>2026-03-28T13:48:56.146Z</time></trkpt><trkpt lat="45.78425" lon="11.5788917"><ele>696.5</ele><time>2026-03-28T13:48:58.147Z</time></trkpt><trkpt lat="45.78423" lon="11.5788033"><ele>697.6666666666667</ele><time>2026-03-28T13:49:08.147Z</time></trkpt><trkpt lat="45.78422" lon="11.5786633"><ele>698.8333333333334</ele><time>2026-03-28T13:51:17.145Z</time></trkpt><trkpt lat="45.7842933" lon="11.5785783"><ele>700.0</ele><time>2026-03-28T13:51:20.146Z</time></trkpt><trkpt lat="45.78436" lon="11.5784267"><ele>700.6666666666667</ele><time>2026-03-28T13:51:22.145Z</time></trkpt><trkpt lat="45.7843867" lon="11.5783333"><ele>701.3333333333334</ele><time>2026-03-28T13:51:23.146Z</time></trkpt><trkpt lat="45.7844117" lon="11.5782283"><ele>702.0</ele><time>2026-03-28T13:51:24.146Z</time></trkpt><trkpt lat="45.7844483" lon="11.578115"><ele>702.6666666666666</ele><time>2026-03-28T13:51:25.146Z</time></trkpt><trkpt lat="45.784495" lon="11.5779933"><ele>703.3333333333333</ele><time>2026-03-28T13:51:26.145Z</time></trkpt><trkpt lat="45.78454" lon="11.5778767"><ele>704.0</ele><time>2026-03-28T13:51:27.146Z</time></trkpt><trkpt lat="45.7845933" lon="11.5777533"><ele>707.6</ele><time>2026-03-28T13:51:28.146Z</time></trkpt><trkpt lat="45.7846483" lon="11.5776617"><ele>711.2</ele><time>2026-03-28T13:51:29.146Z</time></trkpt><trkpt lat="45.7847017" lon="11.5775983"><ele>714.8000000000001</ele><time>2026-03-28T13:51:30.145Z</time></trkpt><trkpt lat="45.7847783" lon="11.5775133"><ele>718.4000000000001</ele><time>2026-03-28T13:51:31.145Z</time></trkpt><trkpt lat="45.7848667" lon="11.5774283"><ele>722.0</ele><time>2026-03-28T13:51:32.146Z</time></trkpt><trkpt lat="45.7849633" lon="11.5773867"><ele>722.0</ele><time>2026-03-28T13:51:34.145Z</time></trkpt><trkpt lat="45.7848883" lon="11.5773067"><ele>722.0</ele><time>2026-03-28T13:51:40.145Z</time></trkpt><trkpt lat="45.7848383" lon="11.57721"><ele>722.0</ele><time>2026-03-28T13:51:41.145Z</time></trkpt><trkpt lat="45.78479" lon="11.5770833"><ele>722.0</ele><time>2026-03-28T13:51:42.146Z</time></trkpt><trkpt lat="45.7847517" lon="11.5769383"><ele>722.0</ele><time>2026-03-28T13:51:43.146Z</time></trkpt><trkpt lat="45.784715" lon="11.5767883"><ele>725.0</ele><time>2026-03-28T13:51:44.145Z</time></trkpt><trkpt lat="45.7846733" lon="11.5766367"><ele>728.0</ele><time>2026-03-28T13:51:45.145Z</time></trkpt><trkpt lat="45.7846267" lon="11.5764717"><ele>731.0</ele><time>2026-03-28T13:51:46.146Z</time></trkpt><trkpt lat="45.7845933" lon="11.5763133"><ele>734.0</ele><time>2026-03-28T13:51:47.146Z</time></trkpt><trkpt lat="45.7845667" lon="11.5761433"><ele>736.25</ele><time>2026-03-28T13:51:48.146Z</time></trkpt><trkpt lat="45.784545" lon="11.575985"><ele>738.5</ele><time>2026-03-28T13:51:49.146Z</time></trkpt><trkpt lat="45.7845083" lon="11.5758233"><ele>740.75</ele><time>2026-03-28T13:51:50.146Z</time></trkpt><trkpt lat="45.784465" lon="11.575675"><ele>743.0</ele><time>2026-03-28T13:51:51.145Z</time></trkpt><trkpt lat="45.784415" lon="11.575535"><ele>743.0</ele><time>2026-03-28T13:51:52.146Z</time></trkpt><trkpt lat="45.7843667" lon="11.5754017"><ele>743.0</ele><time>2026-03-28T13:51:53.145Z</time></trkpt><trkpt lat="45.78432" lon="11.5752867"><ele>743.0</ele><time>2026-03-28T13:51:54.146Z</time></trkpt><trkpt lat="45.7842867" lon="11.5751917"><ele>743.0</ele><time>2026-03-28T13:51:55.146Z</time></trkpt><trkpt lat="45.784265" lon="11.5751033"><ele>743.0</ele><time>2026-03-28T13:51:56.146Z</time></trkpt><trkpt lat="45.784225" lon="11.5750117"><ele>743.0</ele><time>2026-03-28T13:51:58.146Z</time></trkpt><trkpt lat="45.78422" lon="11.574905"><ele>743.0</ele><time>2026-03-28T13:52:00.145Z</time></trkpt><trkpt lat="45.78432" lon="11.5749783"><ele>743.0</ele><time>2026-03-28T13:52:05.146Z</time></trkpt><trkpt lat="45.78438" lon="11.5751033"><ele>743.0</ele><time>2026-03-28T13:52:06.145Z</time></trkpt><trkpt lat="45.7844617" lon="11.5752817"><ele>743.0</ele><time>2026-03-28T13:52:07.146Z</time></trkpt><trkpt lat="45.7845433" lon="11.5754567"><ele>743.0</ele><time>2026-03-28T13:52:08.146Z</time></trkpt><trkpt lat="45.784625" lon="11.5756267"><ele>743.0</ele><time>2026-03-28T13:52:09.146Z</time></trkpt><trkpt lat="45.784705" lon="11.5757917"><ele>743.0</ele><time>2026-03-28T13:52:10.146Z</time></trkpt><trkpt lat="45.7847833" lon="11.5759933"><ele>743.0</ele><time>2026-03-28T13:52:11.146Z</time></trkpt><trkpt lat="45.7848633" lon="11.5761717"><ele>740.75</ele><time>2026-03-28T13:52:12.146Z</time></trkpt><trkpt lat="45.7849367" lon="11.5763233"><ele>738.5</ele><time>2026-03-28T13:52:13.146Z</time></trkpt><trkpt lat="45.7850067" lon="11.57647"><ele>736.25</ele><time>2026-03-28T13:52:14.146Z</time></trkpt><trkpt lat="45.7850767" lon="11.5766083"><ele>734.0</ele><time>2026-03-28T13:52:15.145Z</time></trkpt><trkpt lat="45.7851567" lon="11.5767283"><ele>735.4000000000001</ele><time>2026-03-28T13:52:16.145Z</time></trkpt><trkpt lat="45.7852383" lon="11.5768367"><ele>736.8</ele><time>2026-03-28T13:52:17.146Z</time></trkpt><trkpt lat="45.7853317" lon="11.5769217"><ele>738.2</ele><time>2026-03-28T13:52:18.146Z</time></trkpt><trkpt lat="45.7854183" lon="11.5770133"><ele>739.5999999999999</ele><time>2026-03-28T13:52:19.146Z</time></trkpt><trkpt lat="45.7855167" lon="11.5771"><ele>741.0</ele><time>2026-03-28T13:52:20.146Z</time></trkpt><trkpt lat="45.785605" lon="11.5772017"><ele>741.0</ele><time>2026-03-28T13:52:21.146Z</time></trkpt><trkpt lat="45.78568" lon="11.5773117"><ele>741.0</ele><time>2026-03-28T13:52:22.146Z</time></trkpt><trkpt lat="45.785755" lon="11.5774117"><ele>741.0</ele><time>2026-03-28T13:52:23.146Z</time></trkpt><trkpt lat="45.7858483" lon="11.577475"><ele>741.0</ele><time>2026-03-28T13:52:24.146Z</time></trkpt><trkpt lat="45.785935" lon="11.5775233"><ele>741.0</ele><time>2026-03-28T13:52:25.146Z</time></trkpt><trkpt lat="45.78601" lon="11.5775567"><ele>741.8</ele><time>2026-03-28T13:52:26.146Z</time></trkpt><trkpt lat="45.7861217" lon="11.5775383"><ele>742.5999999999999</ele><time>2026-03-28T13:52:28.145Z</time></trkpt><trkpt lat="45.7862183" lon="11.57747"><ele>743.4</ele><time>2026-03-28T13:52:30.146Z</time></trkpt><trkpt lat="45.7862833" lon="11.57737"><ele>744.2</ele><time>2026-03-28T13:52:32.146Z</time></trkpt><trkpt lat="45.7863933" lon="11.5772667"><ele>745.0</ele><time>2026-03-28T13:52:34.146Z</time></trkpt><trkpt lat="45.786465" lon="11.57722"><ele>745.0</ele><time>2026-03-28T13:52:35.146Z</time></trkpt><trkpt lat="45.78654" lon="11.5771467"><ele>745.0</ele><time>2026-03-28T13:52:36.146Z</time></trkpt><trkpt lat="45.78661" lon="11.57704"><ele>745.0</ele><time>2026-03-28T13:52:37.146Z</time></trkpt><trkpt lat="45.786675" lon="11.57691"><ele>745.0</ele><time>2026-03-28T13:52:38.146Z</time></trkpt><trkpt lat="45.78674" lon="11.5767433"><ele>745.0</ele><time>2026-03-28T13:52:39.146Z</time></trkpt><trkpt lat="45.78678" lon="11.5765983"><ele>746.6</ele><time>2026-03-28T13:52:40.146Z</time></trkpt><trkpt lat="45.786805" lon="11.5764567"><ele>748.2</ele><time>2026-03-28T13:52:41.145Z</time></trkpt><trkpt lat="45.7868233" lon="11.576325"><ele>749.8</ele><time>2026-03-28T13:52:42.146Z</time></trkpt><trkpt lat="45.78684" lon="11.57619"><ele>751.4</ele><time>2026-03-28T13:52:43.146Z</time></trkpt><trkpt lat="45.7868533" lon="11.5760533"><ele>753.0</ele><time>2026-03-28T13:52:44.146Z</time></trkpt><trkpt lat="45.7868783" lon="11.57591"><ele>752.2</ele><time>2026-03-28T13:52:45.145Z</time></trkpt><trkpt lat="45.786905" lon="11.5757733"><ele>751.4</ele><time>2026-03-28T13:52:46.146Z</time></trkpt><trkpt lat="45.78694" lon="11.5756433"><ele>750.6</ele><time>2026-03-28T13:52:47.145Z</time></trkpt><trkpt lat="45.7869883" lon="11.5755033"><ele>749.8000000000001</ele><time>2026-03-28T13:52:48.146Z</time></trkpt><trkpt lat="45.787055" lon="11.5753667"><ele>749.0</ele><time>2026-03-28T13:52:49.145Z</time></trkpt><trkpt lat="45.78713" lon="11.575225"><ele>749.0</ele><time>2026-03-28T13:52:50.146Z</time></trkpt><trkpt lat="45.7872117" lon="11.575105"><ele>749.0</ele><time>2026-03-28T13:52:51.146Z</time></trkpt><trkpt lat="45.7873167" lon="11.5749833"><ele>749.0</ele><time>2026-03-28T13:52:52.146Z</time></trkpt><trkpt lat="45.7874233" lon="11.5748517"><ele>749.0</ele><time>2026-03-28T13:52:53.146Z</time></trkpt><trkpt lat="45.7875383" lon="11.574715"><ele>749.0</ele><time>2026-03-28T13:52:54.145Z</time></trkpt><trkpt lat="45.7876283" lon="11.574565"><ele>749.0</ele><time>2026-03-28T13:52:55.146Z</time></trkpt><trkpt lat="45.7876967" lon="11.574385"><ele>749.0</ele><time>2026-03-28T13:52:56.145Z</time></trkpt><trkpt lat="45.7877517" lon="11.574215"><ele>749.0</ele><time>2026-03-28T13:52:57.146Z</time></trkpt><trkpt lat="45.787795" lon="11.5740533"><ele>750.0</ele><time>2026-03-28T13:52:58.145Z</time></trkpt><trkpt lat="45.787845" lon="11.5739283"><ele>751.0</ele><time>2026-03-28T13:52:59.145Z</time></trkpt><trkpt lat="45.7878783" lon="11.5738167"><ele>752.0</ele><time>2026-03-28T13:53:00.146Z</time></trkpt><trkpt lat="45.7879217" lon="11.5737117"><ele>753.0</ele><time>2026-03-28T13:53:01.146Z</time></trkpt><trkpt lat="45.7879683" lon="11.57362"><ele>754.0</ele><time>2026-03-28T13:53:02.145Z</time></trkpt><trkpt lat="45.7880183" lon="11.5735533"><ele>755.0</ele><time>2026-03-28T13:53:03.146Z</time></trkpt><trkpt lat="45.788075" lon="11.5734183"><ele>755.0</ele><time>2026-03-28T13:53:05.146Z</time></trkpt><trkpt lat="45.7880667" lon="11.5732533"><ele>755.0</ele><time>2026-03-28T13:53:07.146Z</time></trkpt><trkpt lat="45.788" lon="11.5731117"><ele>755.0</ele><time>2026-03-28T13:53:09.146Z</time></trkpt><trkpt lat="45.7879083" lon="11.5730217"><ele>755.0</ele><time>2026-03-28T13:53:11.146Z</time></trkpt><trkpt lat="45.787805" lon="11.5729733"><ele>755.0</ele><time>2026-03-28T13:53:13.145Z</time></trkpt><trkpt lat="45.7877417" lon="11.5729817"><ele>755.0</ele><time>2026-03-28T13:53:15.146Z</time></trkpt><trkpt lat="45.787615" lon="11.5730517"><ele>755.0</ele><time>2026-03-28T13:53:17.145Z</time></trkpt><trkpt lat="45.78753" lon="11.5731233"><ele>755.0</ele><time>2026-03-28T13:53:18.146Z</time></trkpt><trkpt lat="45.7874433" lon="11.5732083"><ele>755.0</ele><time>2026-03-28T13:53:19.146Z</time></trkpt><trkpt lat="45.78738" lon="11.5732967"><ele>758.0</ele><time>2026-03-28T13:53:20.146Z</time></trkpt><trkpt lat="45.78731" lon="11.5734183"><ele>761.0</ele><time>2026-03-28T13:53:21.145Z</time></trkpt><trkpt lat="45.7872567" lon="11.5735417"><ele>764.0</ele><time>2026-03-28T13:53:22.146Z</time></trkpt><trkpt lat="45.7871967" lon="11.5736567"><ele>767.0</ele><time>2026-03-28T13:53:23.146Z</time></trkpt><trkpt lat="45.7871567" lon="11.5737717"><ele>770.0</ele><time>2026-03-28T13:53:24.146Z</time></trkpt><trkpt lat="45.78711" lon="11.5738783"><ele>770.0</ele><time>2026-03-28T13:53:25.146Z</time></trkpt><trkpt lat="45.78707" lon="11.57398"><ele>770.0</ele><time>2026-03-28T13:53:26.146Z</time></trkpt><trkpt lat="45.7870483" lon="11.5740867"><ele>770.0</ele><time>2026-03-28T13:53:27.146Z</time></trkpt><trkpt lat="45.78705" lon="11.5741783"><ele>770.0</ele><time>2026-03-28T13:53:28.146Z</time></trkpt><trkpt lat="45.7870117" lon="11.5742517"><ele>770.0</ele><time>2026-03-28T13:53:29.146Z</time></trkpt><trkpt lat="45.78696" lon="11.57432"><ele>770.0</ele><time>2026-03-28T13:53:30.145Z</time></trkpt><trkpt lat="45.7869067" lon="11.574375"><ele>770.0</ele><time>2026-03-28T13:53:31.146Z</time></trkpt><trkpt lat="45.7868383" lon="11.5744333"><ele>771.6666666666667</ele><time>2026-03-28T13:53:32.146Z</time></trkpt><trkpt lat="45.78676" lon="11.5744933"><ele>773.3333333333334</ele><time>2026-03-28T13:53:33.146Z</time></trkpt><trkpt lat="45.7867033" lon="11.5745433"><ele>775.0</ele><time>2026-03-28T13:53:34.146Z</time></trkpt><trkpt lat="45.7866317" lon="11.5746017"><ele>776.6666666666667</ele><time>2026-03-28T13:53:35.146Z</time></trkpt><trkpt lat="45.7865417" lon="11.5746633"><ele>778.3333333333334</ele><time>2026-03-28T13:53:36.145Z</time></trkpt><trkpt lat="45.7864767" lon="11.5747267"><ele>780.0</ele><time>2026-03-28T13:53:37.145Z</time></trkpt><trkpt lat="45.7863867" lon="11.574785"><ele>780.0</ele><time>2026-03-28T13:53:38.146Z</time></trkpt><trkpt lat="45.7862983" lon="11.57485"><ele>780.0</ele><time>2026-03-28T13:53:39.146Z</time></trkpt><trkpt lat="45.7862283" lon="11.5749083"><ele>780.0</ele><time>2026-03-28T13:53:40.146Z</time></trkpt><trkpt lat="45.7861717" lon="11.5749533"><ele>780.0</ele><time>2026-03-28T13:53:41.146Z</time></trkpt><trkpt lat="45.7860833" lon="11.5750167"><ele>780.0</ele><time>2026-03-28T13:53:43.146Z</time></trkpt><trkpt lat="45.78603" lon="11.5750683"><ele>780.0</ele><time>2026-03-28T13:53:45.146Z</time></trkpt><trkpt lat="45.7859717" lon="11.575105"><ele>780.5</ele><time>2026-03-28T13:53:47.145Z</time></trkpt><trkpt lat="45.78591" lon="11.5750817"><ele>781.0</ele><time>2026-03-28T13:54:04.146Z</time></trkpt><trkpt lat="45.7859033" lon="11.5749533"><ele>781.5</ele><time>2026-03-28T13:54:17.145Z</time></trkpt><trkpt lat="45.78586" lon="11.574885"><ele>782.0</ele><time>2026-03-28T13:54:24.146Z</time></trkpt><trkpt lat="45.785845" lon="11.5747517"><ele>782.5</ele><time>2026-03-28T13:54:27.146Z</time></trkpt><trkpt lat="45.7858567" lon="11.574635"><ele>783.0</ele><time>2026-03-28T13:54:30.146Z</time></trkpt><trkpt lat="45.7858567" lon="11.5744783"><ele>788.0</ele><time>2026-03-28T13:54:32.146Z</time></trkpt><trkpt lat="45.78585" lon="11.574345"><ele>793.0</ele><time>2026-03-28T13:54:34.146Z</time></trkpt><trkpt lat="45.7858567" lon="11.5742183"><ele>798.0</ele><time>2026-03-28T13:54:36.146Z</time></trkpt><trkpt lat="45.7858883" lon="11.5741317"><ele>803.0</ele><time>2026-03-28T13:54:41.146Z</time></trkpt><trkpt lat="45.7858483" lon="11.5739417"><ele>808.0</ele><time>2026-03-28T13:55:37.145Z</time></trkpt><trkpt lat="45.7858533" lon="11.5738483"><ele>807.9999999999999</ele><time>2026-03-28T13:56:52.146Z</time></trkpt><trkpt lat="45.785805" lon="11.5737517"><ele>808.0</ele><time>2026-03-28T13:56:55.146Z</time></trkpt><trkpt lat="45.7857667" lon="11.5736517"><ele>808.0</ele><time>2026-03-28T13:56:58.146Z</time></trkpt><trkpt lat="45.785755" lon="11.57353"><ele>808.0</ele><time>2026-03-28T13:57:00.145Z</time></trkpt><trkpt lat="45.78573" lon="11.5733933"><ele>807.9999999999999</ele><time>2026-03-28T13:57:02.146Z</time></trkpt><trkpt lat="45.7857" lon="11.5732583"><ele>808.0</ele><time>2026-03-28T13:57:04.146Z</time></trkpt><trkpt lat="45.7856733" lon="11.573125"><ele>813.1666666666666</ele><time>2026-03-28T13:57:07.145Z</time></trkpt><trkpt lat="45.78563" lon="11.5730333"><ele>818.3333333333333</ele><time>2026-03-28T13:57:09.146Z</time></trkpt><trkpt lat="45.7855683" lon="11.5729717"><ele>823.5</ele><time>2026-03-28T13:57:12.146Z</time></trkpt><trkpt lat="45.7855183" lon="11.5728583"><ele>828.6666666666667</ele><time>2026-03-28T13:57:14.146Z</time></trkpt><trkpt lat="45.785475" lon="11.5727917"><ele>833.8333333333334</ele><time>2026-03-28T13:57:16.145Z</time></trkpt><trkpt lat="45.7854217" lon="11.5726917"><ele>839.0</ele><time>2026-03-28T13:57:19.146Z</time></trkpt><trkpt lat="45.7853717" lon="11.572565"><ele>842.8333333333334</ele><time>2026-03-28T13:57:22.146Z</time></trkpt><trkpt lat="45.7853583" lon="11.5724583"><ele>846.6666666666667</ele><time>2026-03-28T13:57:25.146Z</time></trkpt><trkpt lat="45.7854183" lon="11.57241"><ele>850.5</ele><time>2026-03-28T13:57:31.146Z</time></trkpt><trkpt lat="45.78549" lon="11.5723933"><ele>854.3333333333333</ele><time>2026-03-28T13:57:34.146Z</time></trkpt><trkpt lat="45.7855633" lon="11.57233"><ele>858.1666666666666</ele><time>2026-03-28T13:57:37.145Z</time></trkpt><trkpt lat="45.7856383" lon="11.572295"><ele>862.0</ele><time>2026-03-28T13:57:42.145Z</time></trkpt><trkpt lat="45.78571" lon="11.5722567"><ele>861.9999999999999</ele><time>2026-03-28T13:57:45.146Z</time></trkpt><trkpt lat="45.7857433" lon="11.57216"><ele>862.0</ele><time>2026-03-28T13:57:49.145Z</time></trkpt><trkpt lat="45.7857367" lon="11.5720683"><ele>862.0</ele><time>2026-03-28T13:57:54.146Z</time></trkpt><trkpt lat="45.78571" lon="11.5719617"><ele>862.0</ele><time>2026-03-28T13:57:55.146Z</time></trkpt><trkpt lat="45.7856417" lon="11.5718083"><ele>861.9999999999999</ele><time>2026-03-28T13:57:57.146Z</time></trkpt><trkpt lat="45.7856117" lon="11.5717033"><ele>862.0</ele><time>2026-03-28T13:58:00.146Z</time></trkpt><trkpt lat="45.7855817" lon="11.5716117"><ele>864.1666666666666</ele><time>2026-03-28T13:58:07.145Z</time></trkpt><trkpt lat="45.7856383" lon="11.5714867"><ele>866.3333333333333</ele><time>2026-03-28T13:58:37.146Z</time></trkpt><trkpt lat="45.7856967" lon="11.5713883"><ele>868.5</ele><time>2026-03-28T13:58:39.146Z</time></trkpt><trkpt lat="45.785765" lon="11.57126"><ele>870.6666666666667</ele><time>2026-03-28T13:58:41.145Z</time></trkpt><trkpt lat="45.7858017" lon="11.57118"><ele>872.8333333333334</ele><time>2026-03-28T13:58:42.146Z</time></trkpt><trkpt lat="45.7858383" lon="11.5711033"><ele>875.0</ele><time>2026-03-28T13:58:43.146Z</time></trkpt><trkpt lat="45.7858833" lon="11.57103"><ele>875.4</ele><time>2026-03-28T13:58:44.146Z</time></trkpt><trkpt lat="45.7859283" lon="11.5709617"><ele>875.8</ele><time>2026-03-28T13:58:45.146Z</time></trkpt><trkpt lat="45.7860083" lon="11.570835"><ele>876.2</ele><time>2026-03-28T13:58:47.146Z</time></trkpt><trkpt lat="45.786095" lon="11.570705"><ele>876.6</ele><time>2026-03-28T13:58:49.146Z</time></trkpt><trkpt lat="45.7861483" lon="11.57063"><ele>877.0</ele><time>2026-03-28T13:58:50.145Z</time></trkpt><trkpt lat="45.786205" lon="11.570555"><ele>876.9999999999999</ele><time>2026-03-28T13:58:51.146Z</time></trkpt><trkpt lat="45.7862683" lon="11.5704833"><ele>877.0</ele><time>2026-03-28T13:58:52.146Z</time></trkpt><trkpt lat="45.7863367" lon="11.5704283"><ele>877.0</ele><time>2026-03-28T13:58:53.145Z</time></trkpt><trkpt lat="45.786405" lon="11.5703783"><ele>877.0</ele><time>2026-03-28T13:58:54.145Z</time></trkpt><trkpt lat="45.786475" lon="11.5703267"><ele>876.9999999999999</ele><time>2026-03-28T13:58:55.146Z</time></trkpt><trkpt lat="45.7865433" lon="11.5702733"><ele>877.0</ele><time>2026-03-28T13:58:56.146Z</time></trkpt><trkpt lat="45.78662" lon="11.5702083"><ele>880.2</ele><time>2026-03-28T13:58:57.145Z</time></trkpt><trkpt lat="45.7867017" lon="11.570145"><ele>883.4000000000001</ele><time>2026-03-28T13:58:58.146Z</time></trkpt><trkpt lat="45.786785" lon="11.5700883"><ele>886.5999999999999</ele><time>2026-03-28T13:58:59.145Z</time></trkpt><trkpt lat="45.786865" lon="11.570035"><ele>889.8</ele><time>2026-03-28T13:59:00.145Z</time></trkpt><trkpt lat="45.7869533" lon="11.569985"><ele>893.0</ele><time>2026-03-28T13:59:01.146Z</time></trkpt><trkpt lat="45.7870383" lon="11.56994"><ele>894.3333333333334</ele><time>2026-03-28T13:59:02.146Z</time></trkpt><trkpt lat="45.7871267" lon="11.5698883"><ele>895.6666666666667</ele><time>2026-03-28T13:59:03.146Z</time></trkpt><trkpt lat="45.7872133" lon="11.5698367"><ele>897.0</ele><time>2026-03-28T13:59:04.146Z</time></trkpt><trkpt lat="45.7872917" lon="11.5697967"><ele>898.3333333333333</ele><time>2026-03-28T13:59:05.146Z</time></trkpt><trkpt lat="45.7873667" lon="11.5697617"><ele>899.6666666666666</ele><time>2026-03-28T13:59:06.146Z</time></trkpt><trkpt lat="45.78746" lon="11.56976"><ele>901.0</ele><time>2026-03-28T13:59:08.146Z</time></trkpt><trkpt lat="45.7876117" lon="11.56973"><ele>898.3333333333333</ele><time>2026-03-28T14:00:00.146Z</time></trkpt><trkpt lat="45.78773" lon="11.569705"><ele>895.6666666666666</ele><time>2026-03-28T14:00:02.146Z</time></trkpt><trkpt lat="45.7877967" lon="11.5696867"><ele>893.0</ele><time>2026-03-28T14:00:03.145Z</time></trkpt><trkpt lat="45.787875" lon="11.569685"><ele>890.3333333333333</ele><time>2026-03-28T14:00:04.145Z</time></trkpt><trkpt lat="45.7879467" lon="11.5696583"><ele>887.6666666666666</ele><time>2026-03-28T14:00:05.146Z</time></trkpt><trkpt lat="45.7880117" lon="11.569625"><ele>885.0</ele><time>2026-03-28T14:00:06.146Z</time></trkpt><trkpt lat="45.7880717" lon="11.5695817"><ele>885.0</ele><time>2026-03-28T14:00:07.146Z</time></trkpt><trkpt lat="45.7881333" lon="11.569545"><ele>885.0</ele><time>2026-03-28T14:00:08.146Z</time></trkpt><trkpt lat="45.7881933" lon="11.5695167"><ele>885.0</ele><time>2026-03-28T14:00:09.145Z</time></trkpt><trkpt lat="45.7882467" lon="11.5694667"><ele>885.0</ele><time>2026-03-28T14:00:10.145Z</time></trkpt><trkpt lat="45.7883333" lon="11.5693917"><ele>885.0</ele><time>2026-03-28T14:00:11.146Z</time></trkpt><trkpt lat="45.7884133" lon="11.569325"><ele>885.0</ele><time>2026-03-28T14:00:12.146Z</time></trkpt><trkpt lat="45.7885367" lon="11.5691833"><ele>882.3333333333334</ele><time>2026-03-28T14:00:14.145Z</time></trkpt><trkpt lat="45.7885783" lon="11.5691133"><ele>879.6666666666667</ele><time>2026-03-28T14:00:15.146Z</time></trkpt><trkpt lat="45.788645" lon="11.5690367"><ele>877.0</ele><time>2026-03-28T14:00:16.146Z</time></trkpt><trkpt lat="45.7887083" lon="11.5689567"><ele>874.3333333333334</ele><time>2026-03-28T14:00:17.146Z</time></trkpt><trkpt lat="45.788755" lon="11.5688067"><ele>871.6666666666667</ele><time>2026-03-28T14:00:19.145Z</time></trkpt><trkpt lat="45.7887567" lon="11.5686717"><ele>869.0</ele><time>2026-03-28T14:00:21.145Z</time></trkpt><trkpt lat="45.78873" lon="11.5685"><ele>869.0000000000001</ele><time>2026-03-28T14:00:23.146Z</time></trkpt><trkpt lat="45.7887" lon="11.5683967"><ele>869.0</ele><time>2026-03-28T14:00:24.145Z</time></trkpt><trkpt lat="45.7886667" lon="11.5682833"><ele>869.0</ele><time>2026-03-28T14:00:25.145Z</time></trkpt><trkpt lat="45.7886183" lon="11.5681717"><ele>869.0</ele><time>2026-03-28T14:00:26.146Z</time></trkpt><trkpt lat="45.7885817" lon="11.5680483"><ele>869.0000000000001</ele><time>2026-03-28T14:00:27.145Z</time></trkpt><trkpt lat="45.788545" lon="11.5679417"><ele>869.0</ele><time>2026-03-28T14:00:28.146Z</time></trkpt><trkpt lat="45.7885183" lon="11.567845"><ele>866.6</ele><time>2026-03-28T14:00:29.146Z</time></trkpt><trkpt lat="45.788485" lon="11.5677633"><ele>864.2</ele><time>2026-03-28T14:00:30.145Z</time></trkpt><trkpt lat="45.7884517" lon="11.567685"><ele>861.8000000000001</ele><time>2026-03-28T14:00:31.145Z</time></trkpt><trkpt lat="45.7883983" lon="11.5675517"><ele>859.4000000000001</ele><time>2026-03-28T14:00:33.146Z</time></trkpt><trkpt lat="45.7883583" lon="11.5674217"><ele>857.0</ele><time>2026-03-28T14:00:35.146Z</time></trkpt><trkpt lat="45.788325" lon="11.5672517"><ele>857.0000000000001</ele><time>2026-03-28T14:00:37.146Z</time></trkpt><trkpt lat="45.7883433" lon="11.56707"><ele>857.0</ele><time>2026-03-28T14:00:39.146Z</time></trkpt><trkpt lat="45.7883683" lon="11.5669667"><ele>857.0</ele><time>2026-03-28T14:00:40.145Z</time></trkpt><trkpt lat="45.788395" lon="11.5668617"><ele>857.0</ele><time>2026-03-28T14:00:41.145Z</time></trkpt><trkpt lat="45.7884233" lon="11.566755"><ele>857.0000000000001</ele><time>2026-03-28T14:00:42.146Z</time></trkpt><trkpt lat="45.7884517" lon="11.566645"><ele>857.0</ele><time>2026-03-28T14:00:43.146Z</time></trkpt><trkpt lat="45.78848" lon="11.5665333"><ele>853.5000000000001</ele><time>2026-03-28T14:00:44.146Z</time></trkpt><trkpt lat="45.7885217" lon="11.5664167"><ele>850.0</ele><time>2026-03-28T14:00:45.146Z</time></trkpt><trkpt lat="45.7885567" lon="11.5663067"><ele>846.5</ele><time>2026-03-28T14:00:46.146Z</time></trkpt><trkpt lat="45.7885933" lon="11.5662067"><ele>843.0</ele><time>2026-03-28T14:00:47.146Z</time></trkpt><trkpt lat="45.7886417" lon="11.5660867"><ele>839.5000000000001</ele><time>2026-03-28T14:00:48.146Z</time></trkpt><trkpt lat="45.7886983" lon="11.5659717"><ele>836.0</ele><time>2026-03-28T14:00:49.145Z</time></trkpt><trkpt lat="45.78876" lon="11.5658533"><ele>836.0</ele><time>2026-03-28T14:00:50.146Z</time></trkpt><trkpt lat="45.7888267" lon="11.5657333"><ele>836.0</ele><time>2026-03-28T14:00:51.146Z</time></trkpt><trkpt lat="45.78889" lon="11.5656183"><ele>836.0</ele><time>2026-03-28T14:00:52.145Z</time></trkpt><trkpt lat="45.7889367" lon="11.5654933"><ele>836.0</ele><time>2026-03-28T14:00:53.146Z</time></trkpt><trkpt lat="45.78897" lon="11.56535"><ele>836.0</ele><time>2026-03-28T14:00:54.145Z</time></trkpt><trkpt lat="45.788995" lon="11.5652067"><ele>835.8</ele><time>2026-03-28T14:00:55.146Z</time></trkpt><trkpt lat="45.7890233" lon="11.5650383"><ele>835.5999999999999</ele><time>2026-03-28T14:00:56.146Z</time></trkpt><trkpt lat="45.789055" lon="11.564895"><ele>835.4</ele><time>2026-03-28T14:00:57.146Z</time></trkpt><trkpt lat="45.7890917" lon="11.5647467"><ele>835.2</ele><time>2026-03-28T14:00:58.146Z</time></trkpt><trkpt lat="45.7891267" lon="11.5646083"><ele>835.0</ele><time>2026-03-28T14:00:59.146Z</time></trkpt><trkpt lat="45.7891633" lon="11.5644683"><ele>835.0</ele><time>2026-03-28T14:01:00.146Z</time></trkpt><trkpt lat="45.7892083" lon="11.56433"><ele>835.0</ele><time>2026-03-28T14:01:01.145Z</time></trkpt><trkpt lat="45.7892517" lon="11.5641967"><ele>835.0</ele><time>2026-03-28T14:01:02.146Z</time></trkpt><trkpt lat="45.789295" lon="11.56407"><ele>835.0</ele><time>2026-03-28T14:01:03.146Z</time></trkpt><trkpt lat="45.7893383" lon="11.56395"><ele>835.0</ele><time>2026-03-28T14:01:04.146Z</time></trkpt><trkpt lat="45.7893783" lon="11.5638317"><ele>837.2</ele><time>2026-03-28T14:01:05.146Z</time></trkpt><trkpt lat="45.789435" lon="11.5637117"><ele>839.4</ele><time>2026-03-28T14:01:06.146Z</time></trkpt><trkpt lat="45.7894967" lon="11.5635933"><ele>841.5999999999999</ele><time>2026-03-28T14:01:07.146Z</time></trkpt><trkpt lat="45.7895517" lon="11.5634717"><ele>843.8</ele><time>2026-03-28T14:01:08.146Z</time></trkpt><trkpt lat="45.7896" lon="11.5633367"><ele>846.0</ele><time>2026-03-28T14:01:09.146Z</time></trkpt><trkpt lat="45.7896383" lon="11.56319"><ele>846.0</ele><time>2026-03-28T14:01:10.145Z</time></trkpt><trkpt lat="45.7896667" lon="11.5630533"><ele>846.0</ele><time>2026-03-28T14:01:11.146Z</time></trkpt><trkpt lat="45.78968" lon="11.5629283"><ele>846.0</ele><time>2026-03-28T14:01:12.146Z</time></trkpt><trkpt lat="45.7897033" lon="11.5628083"><ele>846.0</ele><time>2026-03-28T14:01:13.145Z</time></trkpt><trkpt lat="45.7897333" lon="11.5627067"><ele>846.0</ele><time>2026-03-28T14:01:14.146Z</time></trkpt><trkpt lat="45.789775" lon="11.5626317"><ele>846.0</ele><time>2026-03-28T14:01:15.146Z</time></trkpt><trkpt lat="45.7898217" lon="11.56253"><ele>844.5</ele><time>2026-03-28T14:01:16.145Z</time></trkpt><trkpt lat="45.78985" lon="11.5624367"><ele>843.0</ele><time>2026-03-28T14:01:17.146Z</time></trkpt><trkpt lat="45.7898733" lon="11.5623283"><ele>841.5</ele><time>2026-03-28T14:01:18.146Z</time></trkpt><trkpt lat="45.789895" lon="11.56221"><ele>840.0</ele><time>2026-03-28T14:01:19.146Z</time></trkpt><trkpt lat="45.7899117" lon="11.5620917"><ele>838.5</ele><time>2026-03-28T14:01:20.146Z</time></trkpt><trkpt lat="45.789925" lon="11.5619833"><ele>837.0</ele><time>2026-03-28T14:01:21.146Z</time></trkpt><trkpt lat="45.789935" lon="11.5618767"><ele>835.8333333333334</ele><time>2026-03-28T14:01:22.146Z</time></trkpt><trkpt lat="45.7899417" lon="11.561775"><ele>834.6666666666667</ele><time>2026-03-28T14:01:23.146Z</time></trkpt><trkpt lat="45.7899467" lon="11.5616267"><ele>833.5</ele><time>2026-03-28T14:01:25.146Z</time></trkpt><trkpt lat="45.7899517" lon="11.5615117"><ele>832.3333333333334</ele><time>2026-03-28T14:01:27.146Z</time></trkpt><trkpt lat="45.7899883" lon="11.5614233"><ele>831.1666666666667</ele><time>2026-03-28T14:01:30.146Z</time></trkpt><trkpt lat="45.79001" lon="11.56157"><ele>830.0</ele><time>2026-03-28T14:01:42.146Z</time></trkpt><trkpt lat="45.7900717" lon="11.5617133"><ele>830.0</ele><time>2026-03-28T14:01:43.146Z</time></trkpt><trkpt lat="45.79013" lon="11.5618483"><ele>830.0</ele><time>2026-03-28T14:01:44.146Z</time></trkpt><trkpt lat="45.7901917" lon="11.5619883"><ele>830.0</ele><time>2026-03-28T14:01:45.145Z</time></trkpt><trkpt lat="45.790245" lon="11.5621017"><ele>830.0</ele><time>2026-03-28T14:01:46.146Z</time></trkpt><trkpt lat="45.7902867" lon="11.5621983"><ele>830.0</ele><time>2026-03-28T14:01:47.146Z</time></trkpt><trkpt lat="45.7903283" lon="11.562295"><ele>830.3333333333334</ele><time>2026-03-28T14:01:48.146Z</time></trkpt><trkpt lat="45.7903667" lon="11.562385"><ele>830.6666666666667</ele><time>2026-03-28T14:01:49.145Z</time></trkpt><trkpt lat="45.7904017" lon="11.5624617"><ele>831.0</ele><time>2026-03-28T14:01:50.145Z</time></trkpt><trkpt lat="45.7904533" lon="11.562565"><ele>831.3333333333333</ele><time>2026-03-28T14:01:52.146Z</time></trkpt><trkpt lat="45.790525" lon="11.5626783"><ele>831.6666666666666</ele><time>2026-03-28T14:02:10.146Z</time></trkpt><trkpt lat="45.7905767" lon="11.5627767"><ele>832.0</ele><time>2026-03-28T14:02:11.146Z</time></trkpt><trkpt lat="45.790655" lon="11.56292"><ele>832.0</ele><time>2026-03-28T14:02:12.145Z</time></trkpt><trkpt lat="45.790745" lon="11.5630667"><ele>832.0</ele><time>2026-03-28T14:02:13.145Z</time></trkpt><trkpt lat="45.7908217" lon="11.5631967"><ele>832.0</ele><time>2026-03-28T14:02:14.146Z</time></trkpt><trkpt lat="45.7908967" lon="11.5632933"><ele>832.0</ele><time>2026-03-28T14:02:15.146Z</time></trkpt><trkpt lat="45.790965" lon="11.563375"><ele>832.0</ele><time>2026-03-28T14:02:16.145Z</time></trkpt><trkpt lat="45.7910383" lon="11.5634467"><ele>830.6666666666666</ele><time>2026-03-28T14:02:17.146Z</time></trkpt><trkpt lat="45.7911017" lon="11.5635083"><ele>829.3333333333333</ele><time>2026-03-28T14:02:18.146Z</time></trkpt><trkpt lat="45.791165" lon="11.56357"><ele>828.0</ele><time>2026-03-28T14:02:19.146Z</time></trkpt><trkpt lat="45.79123" lon="11.56363"><ele>826.6666666666667</ele><time>2026-03-28T14:02:20.146Z</time></trkpt><trkpt lat="45.791295" lon="11.5637"><ele>825.3333333333334</ele><time>2026-03-28T14:02:21.145Z</time></trkpt><trkpt lat="45.791365" lon="11.5637733"><ele>824.0</ele><time>2026-03-28T14:02:22.146Z</time></trkpt><trkpt lat="45.791435" lon="11.56385"><ele>824.0000000000001</ele><time>2026-03-28T14:02:23.145Z</time></trkpt><trkpt lat="45.791505" lon="11.5639183"><ele>824.0</ele><time>2026-03-28T14:02:24.146Z</time></trkpt><trkpt lat="45.79157" lon="11.563975"><ele>824.0</ele><time>2026-03-28T14:02:25.145Z</time></trkpt><trkpt lat="45.7916333" lon="11.5640217"><ele>824.0</ele><time>2026-03-28T14:02:26.146Z</time></trkpt><trkpt lat="45.7916983" lon="11.5640667"><ele>824.0000000000001</ele><time>2026-03-28T14:02:27.146Z</time></trkpt><trkpt lat="45.7918017" lon="11.56414"><ele>824.0</ele><time>2026-03-28T14:02:29.145Z</time></trkpt><trkpt lat="45.791875" lon="11.56421"><ele>819.5000000000001</ele><time>2026-03-28T14:02:31.146Z</time></trkpt><trkpt lat="45.7919317" lon="11.5642717"><ele>815.0</ele><time>2026-03-28T14:02:33.146Z</time></trkpt><trkpt lat="45.791985" lon="11.5643233"><ele>810.5</ele><time>2026-03-28T14:02:35.146Z</time></trkpt><trkpt lat="45.792045" lon="11.56436"><ele>806.0</ele><time>2026-03-28T14:02:37.146Z</time></trkpt><trkpt lat="45.7921217" lon="11.5644033"><ele>801.5000000000001</ele><time>2026-03-28T14:02:39.145Z</time></trkpt><trkpt lat="45.7922183" lon="11.5644517"><ele>797.0</ele><time>2026-03-28T14:02:41.146Z</time></trkpt><trkpt lat="45.79233" lon="11.5644883"><ele>798.4000000000001</ele><time>2026-03-28T14:02:43.145Z</time></trkpt><trkpt lat="45.7924433" lon="11.5645367"><ele>799.8000000000001</ele><time>2026-03-28T14:02:45.146Z</time></trkpt><trkpt lat="45.7925533" lon="11.5645933"><ele>801.2</ele><time>2026-03-28T14:02:47.146Z</time></trkpt><trkpt lat="45.7926633" lon="11.5646383"><ele>802.6</ele><time>2026-03-28T14:02:49.146Z</time></trkpt><trkpt lat="45.792725" lon="11.564665"><ele>804.0</ele><time>2026-03-28T14:02:50.146Z</time></trkpt><trkpt lat="45.79279" lon="11.5646833"><ele>801.0</ele><time>2026-03-28T14:02:51.146Z</time></trkpt><trkpt lat="45.792845" lon="11.5647483"><ele>798.0</ele><time>2026-03-28T14:02:54.145Z</time></trkpt><trkpt lat="45.79288" lon="11.5648583"><ele>795.0</ele><time>2026-03-28T14:02:56.146Z</time></trkpt><trkpt lat="45.79293" lon="11.5649233"><ele>792.0</ele><time>2026-03-28T14:02:57.146Z</time></trkpt><trkpt lat="45.7929867" lon="11.5650533"><ele>789.0</ele><time>2026-03-28T14:02:59.146Z</time></trkpt><trkpt lat="45.793" lon="11.5651667"><ele>786.0</ele><time>2026-03-28T14:03:01.146Z</time></trkpt><trkpt lat="45.793015" lon="11.565265"><ele>784.6666666666666</ele><time>2026-03-28T14:03:03.145Z</time></trkpt><trkpt lat="45.7930167" lon="11.5653767"><ele>783.3333333333333</ele><time>2026-03-28T14:03:05.145Z</time></trkpt><trkpt lat="45.79302" lon="11.5654833"><ele>782.0</ele><time>2026-03-28T14:03:07.145Z</time></trkpt><trkpt lat="45.793035" lon="11.565605"><ele>780.6666666666666</ele><time>2026-03-28T14:03:09.145Z</time></trkpt><trkpt lat="45.7930167" lon="11.5657483"><ele>779.3333333333333</ele><time>2026-03-28T14:03:11.146Z</time></trkpt><trkpt lat="45.79301" lon="11.5659"><ele>778.0</ele><time>2026-03-28T14:03:13.146Z</time></trkpt><trkpt lat="45.793" lon="11.5660517"><ele>778.0</ele><time>2026-03-28T14:03:15.145Z</time></trkpt><trkpt lat="45.7930683" lon="11.5661183"><ele>778.0</ele><time>2026-03-28T14:03:18.145Z</time></trkpt><trkpt lat="45.7932133" lon="11.5660567"><ele>778.0</ele><time>2026-03-28T14:03:20.145Z</time></trkpt><trkpt lat="45.7933167" lon="11.566025"><ele>778.0</ele><time>2026-03-28T14:03:21.144Z</time></trkpt><trkpt lat="45.793425" lon="11.5659767"><ele>774.4</ele><time>2026-03-28T14:03:22.144Z</time></trkpt><trkpt lat="45.7935433" lon="11.5659283"><ele>770.8</ele><time>2026-03-28T14:03:23.145Z</time></trkpt><trkpt lat="45.79365" lon="11.56588"><ele>767.2</ele><time>2026-03-28T14:03:24.144Z</time></trkpt><trkpt lat="45.79373" lon="11.5658083"><ele>763.6</ele><time>2026-03-28T14:03:25.145Z</time></trkpt><trkpt lat="45.7938" lon="11.5657233"><ele>760.0</ele><time>2026-03-28T14:03:26.145Z</time></trkpt><trkpt lat="45.7938983" lon="11.56566"><ele>760.0</ele><time>2026-03-28T14:03:27.145Z</time></trkpt><trkpt lat="45.7939517" lon="11.5655717"><ele>760.0</ele><time>2026-03-28T14:03:28.145Z</time></trkpt><trkpt lat="45.79399" lon="11.5654833"><ele>760.0</ele><time>2026-03-28T14:03:29.145Z</time></trkpt><trkpt lat="45.7940233" lon="11.5654033"><ele>760.0</ele><time>2026-03-28T14:03:30.144Z</time></trkpt><trkpt lat="45.794045" lon="11.5653167"><ele>760.0</ele><time>2026-03-28T14:03:31.145Z</time></trkpt><trkpt lat="45.7940833" lon="11.5651933"><ele>760.0</ele><time>2026-03-28T14:03:33.145Z</time></trkpt><trkpt lat="45.7941833" lon="11.565105"><ele>760.6</ele><time>2026-03-28T14:03:35.145Z</time></trkpt><trkpt lat="45.794245" lon="11.5650417"><ele>761.2</ele><time>2026-03-28T14:03:36.145Z</time></trkpt><trkpt lat="45.7943183" lon="11.5649517"><ele>761.8</ele><time>2026-03-28T14:03:37.145Z</time></trkpt><trkpt lat="45.7944017" lon="11.5648517"><ele>762.4</ele><time>2026-03-28T14:03:38.145Z</time></trkpt><trkpt lat="45.7944917" lon="11.56476"><ele>763.0</ele><time>2026-03-28T14:03:39.145Z</time></trkpt><trkpt lat="45.79459" lon="11.56469"><ele>763.0</ele><time>2026-03-28T14:03:40.145Z</time></trkpt><trkpt lat="45.79471" lon="11.5646417"><ele>763.0</ele><time>2026-03-28T14:03:41.145Z</time></trkpt><trkpt lat="45.7948267" lon="11.5646217"><ele>763.0</ele><time>2026-03-28T14:03:42.145Z</time></trkpt><trkpt lat="45.7949417" lon="11.5646267"><ele>763.0</ele><time>2026-03-28T14:03:43.144Z</time></trkpt><trkpt lat="45.795055" lon="11.5646533"><ele>763.0</ele><time>2026-03-28T14:03:44.144Z</time></trkpt><trkpt lat="45.795165" lon="11.5646767"><ele>763.0</ele><time>2026-03-28T14:03:45.144Z</time></trkpt><trkpt lat="45.7952733" lon="11.564675"><ele>763.0</ele><time>2026-03-28T14:03:46.144Z</time></trkpt><trkpt lat="45.7953833" lon="11.5646533"><ele>763.0</ele><time>2026-03-28T14:03:47.145Z</time></trkpt><trkpt lat="45.7954917" lon="11.56462"><ele>763.0</ele><time>2026-03-28T14:03:48.145Z</time></trkpt><trkpt lat="45.7955867" lon="11.564575"><ele>766.2</ele><time>2026-03-28T14:03:49.144Z</time></trkpt><trkpt lat="45.7956683" lon="11.56452"><ele>769.4</ele><time>2026-03-28T14:03:50.144Z</time></trkpt><trkpt lat="45.7957367" lon="11.564455"><ele>772.6</ele><time>2026-03-28T14:03:51.145Z</time></trkpt><trkpt lat="45.7957933" lon="11.56438"><ele>775.8000000000001</ele><time>2026-03-28T14:03:52.145Z</time></trkpt><trkpt lat="45.795855" lon="11.5642633"><ele>779.0</ele><time>2026-03-28T14:03:53.144Z</time></trkpt><trkpt lat="45.7959133" lon="11.564135"><ele>779.0000000000001</ele><time>2026-03-28T14:03:54.145Z</time></trkpt><trkpt lat="45.7959633" lon="11.564025"><ele>779.0</ele><time>2026-03-28T14:03:55.145Z</time></trkpt><trkpt lat="45.7960133" lon="11.5639333"><ele>779.0</ele><time>2026-03-28T14:03:56.145Z</time></trkpt><trkpt lat="45.7960717" lon="11.5638733"><ele>779.0</ele><time>2026-03-28T14:03:57.145Z</time></trkpt><trkpt lat="45.7961333" lon="11.563835"><ele>779.0000000000001</ele><time>2026-03-28T14:03:58.144Z</time></trkpt><trkpt lat="45.7961667" lon="11.5639817"><ele>779.0</ele><time>2026-03-28T14:03:59.145Z</time></trkpt><trkpt lat="45.7962133" lon="11.5641317"><ele>783.5</ele><time>2026-03-28T14:04:00.144Z</time></trkpt><trkpt lat="45.796235" lon="11.5642883"><ele>788.0</ele><time>2026-03-28T14:04:01.144Z</time></trkpt><trkpt lat="45.7962467" lon="11.56448"><ele>792.5</ele><time>2026-03-28T14:04:02.145Z</time></trkpt><trkpt lat="45.7962483" lon="11.5646733"><ele>797.0</ele><time>2026-03-28T14:04:03.144Z</time></trkpt><trkpt lat="45.7962483" lon="11.5648517"><ele>797.0</ele><time>2026-03-28T14:04:04.145Z</time></trkpt><trkpt lat="45.79626" lon="11.565015"><ele>797.0</ele><time>2026-03-28T14:04:05.145Z</time></trkpt><trkpt lat="45.7962933" lon="11.56516"><ele>797.0</ele><time>2026-03-28T14:04:06.144Z</time></trkpt><trkpt lat="45.7963517" lon="11.56527"><ele>797.0</ele><time>2026-03-28T14:04:07.144Z</time></trkpt><trkpt lat="45.7964367" lon="11.5653583"><ele>797.0</ele><time>2026-03-28T14:04:08.144Z</time></trkpt><trkpt lat="45.79652" lon="11.5654417"><ele>797.0000000000001</ele><time>2026-03-28T14:04:09.145Z</time></trkpt><trkpt lat="45.7965917" lon="11.5655067"><ele>797.0</ele><time>2026-03-28T14:04:10.145Z</time></trkpt><trkpt lat="45.7966533" lon="11.56556"><ele>797.0</ele><time>2026-03-28T14:04:11.145Z</time></trkpt><trkpt lat="45.7967583" lon="11.5655933"><ele>797.0</ele><time>2026-03-28T14:04:13.144Z</time></trkpt><trkpt lat="45.796785" lon="11.5654983"><ele>797.0000000000001</ele><time>2026-03-28T14:04:16.145Z</time></trkpt><trkpt lat="45.7967367" lon="11.5653583"><ele>797.0</ele><time>2026-03-28T14:04:18.145Z</time></trkpt><trkpt lat="45.79671" lon="11.5652567"><ele>797.0000000000001</ele><time>2026-03-28T14:04:19.144Z</time></trkpt><trkpt lat="45.7966933" lon="11.5651367"><ele>797.0</ele><time>2026-03-28T14:04:20.144Z</time></trkpt><trkpt lat="45.7966817" lon="11.56502"><ele>797.0</ele><time>2026-03-28T14:04:21.145Z</time></trkpt><trkpt lat="45.79668" lon="11.564895"><ele>797.0</ele><time>2026-03-28T14:04:22.144Z</time></trkpt><trkpt lat="45.79668" lon="11.5647767"><ele>797.0000000000001</ele><time>2026-03-28T14:04:23.144Z</time></trkpt><trkpt lat="45.7966933" lon="11.5646567"><ele>797.0</ele><time>2026-03-28T14:04:24.145Z</time></trkpt><trkpt lat="45.7967083" lon="11.564535"><ele>798.0000000000001</ele><time>2026-03-28T14:04:25.145Z</time></trkpt><trkpt lat="45.7967233" lon="11.5644167"><ele>799.0</ele><time>2026-03-28T14:04:26.145Z</time></trkpt><trkpt lat="45.7967317" lon="11.5643117"><ele>800.0</ele><time>2026-03-28T14:04:27.145Z</time></trkpt><trkpt lat="45.79674" lon="11.5642167"><ele>801.0</ele><time>2026-03-28T14:04:28.145Z</time></trkpt><trkpt lat="45.7967567" lon="11.5641233"><ele>802.0000000000001</ele><time>2026-03-28T14:04:29.145Z</time></trkpt><trkpt lat="45.7967667" lon="11.563945"><ele>803.0</ele><time>2026-03-28T14:04:31.144Z</time></trkpt><trkpt lat="45.796765" lon="11.56379"><ele>804.5000000000001</ele><time>2026-03-28T14:04:33.144Z</time></trkpt><trkpt lat="45.7967533" lon="11.5636283"><ele>806.0</ele><time>2026-03-28T14:04:35.144Z</time></trkpt><trkpt lat="45.7967617" lon="11.5635283"><ele>807.5</ele><time>2026-03-28T14:04:36.145Z</time></trkpt><trkpt lat="45.7967733" lon="11.5634333"><ele>809.0</ele><time>2026-03-28T14:04:37.145Z</time></trkpt><trkpt lat="45.7967867" lon="11.5633233"><ele>810.5000000000001</ele><time>2026-03-28T14:04:38.145Z</time></trkpt><trkpt lat="45.7967917" lon="11.5632233"><ele>812.0</ele><time>2026-03-28T14:04:39.145Z</time></trkpt><trkpt lat="45.7968017" lon="11.5631283"><ele>812.0</ele><time>2026-03-28T14:04:40.144Z</time></trkpt><trkpt lat="45.7968133" lon="11.5629567"><ele>812.0</ele><time>2026-03-28T14:04:42.145Z</time></trkpt><trkpt lat="45.7968133" lon="11.5628133"><ele>812.0</ele><time>2026-03-28T14:04:44.145Z</time></trkpt><trkpt lat="45.79681" lon="11.5626517"><ele>812.0</ele><time>2026-03-28T14:04:46.145Z</time></trkpt><trkpt lat="45.79675" lon="11.562585"><ele>812.0</ele><time>2026-03-28T14:04:48.145Z</time></trkpt><trkpt lat="45.7966517" lon="11.5625633"><ele>814.6</ele><time>2026-03-28T14:04:50.145Z</time></trkpt><trkpt lat="45.79655" lon="11.5625683"><ele>817.2</ele><time>2026-03-28T14:04:51.145Z</time></trkpt><trkpt lat="45.7964433" lon="11.5625817"><ele>819.8</ele><time>2026-03-28T14:04:52.145Z</time></trkpt><trkpt lat="45.796335" lon="11.5625783"><ele>822.4</ele><time>2026-03-28T14:04:53.145Z</time></trkpt><trkpt lat="45.7962167" lon="11.562585"><ele>825.0</ele><time>2026-03-28T14:04:54.145Z</time></trkpt><trkpt lat="45.796015" lon="11.5626333"><ele>823.0</ele><time>2026-03-28T14:04:55.145Z</time></trkpt><trkpt lat="45.7958967" lon="11.5626117"><ele>821.0</ele><time>2026-03-28T14:04:56.145Z</time></trkpt><trkpt lat="45.795805" lon="11.5625617"><ele>819.0</ele><time>2026-03-28T14:04:57.145Z</time></trkpt><trkpt lat="45.7957433" lon="11.5624817"><ele>817.0</ele><time>2026-03-28T14:04:58.145Z</time></trkpt><trkpt lat="45.795695" lon="11.5623583"><ele>815.0</ele><time>2026-03-28T14:04:59.144Z</time></trkpt><trkpt lat="45.79565" lon="11.562235"><ele>815.0</ele><time>2026-03-28T14:05:00.145Z</time></trkpt><trkpt lat="45.7956067" lon="11.5621033"><ele>815.0</ele><time>2026-03-28T14:05:01.145Z</time></trkpt><trkpt lat="45.7955733" lon="11.5619467"><ele>815.0</ele><time>2026-03-28T14:05:02.145Z</time></trkpt><trkpt lat="45.79556" lon="11.5618033"><ele>815.0</ele><time>2026-03-28T14:05:03.145Z</time></trkpt><trkpt lat="45.7955417" lon="11.5616533"><ele>815.0</ele><time>2026-03-28T14:05:04.145Z</time></trkpt><trkpt lat="45.79552" lon="11.56154"><ele>817.3333333333334</ele><time>2026-03-28T14:05:05.145Z</time></trkpt><trkpt lat="45.7954933" lon="11.56143"><ele>819.6666666666667</ele><time>2026-03-28T14:05:06.145Z</time></trkpt><trkpt lat="45.7954533" lon="11.5613367"><ele>822.0</ele><time>2026-03-28T14:05:07.145Z</time></trkpt><trkpt lat="45.79541" lon="11.56124"><ele>824.3333333333333</ele><time>2026-03-28T14:05:08.145Z</time></trkpt><trkpt lat="45.7953733" lon="11.5611433"><ele>826.6666666666666</ele><time>2026-03-28T14:05:09.144Z</time></trkpt><trkpt lat="45.7953417" lon="11.5610433"><ele>829.0</ele><time>2026-03-28T14:05:10.145Z</time></trkpt><trkpt lat="45.7953183" lon="11.5609217"><ele>831.1666666666666</ele><time>2026-03-28T14:05:11.144Z</time></trkpt><trkpt lat="45.7953033" lon="11.56083"><ele>833.3333333333333</ele><time>2026-03-28T14:05:12.145Z</time></trkpt><trkpt lat="45.7952817" lon="11.56071"><ele>835.5</ele><time>2026-03-28T14:05:13.145Z</time></trkpt><trkpt lat="45.79526" lon="11.56059"><ele>837.6666666666667</ele><time>2026-03-28T14:05:14.145Z</time></trkpt><trkpt lat="45.7952417" lon="11.56048"><ele>839.8333333333334</ele><time>2026-03-28T14:05:15.144Z</time></trkpt><trkpt lat="45.7952233" lon="11.5603733"><ele>842.0</ele><time>2026-03-28T14:05:16.145Z</time></trkpt><trkpt lat="45.7952" lon="11.5602417"><ele>839.6</ele><time>2026-03-28T14:05:17.145Z</time></trkpt><trkpt lat="45.7951683" lon="11.560095"><ele>837.2</ele><time>2026-03-28T14:05:18.145Z</time></trkpt><trkpt lat="45.7951367" lon="11.5599667"><ele>834.8</ele><time>2026-03-28T14:05:19.145Z</time></trkpt><trkpt lat="45.7951183" lon="11.5598567"><ele>832.4</ele><time>2026-03-28T14:05:20.144Z</time></trkpt><trkpt lat="45.7951" lon="11.5597317"><ele>830.0</ele><time>2026-03-28T14:05:21.144Z</time></trkpt><trkpt lat="45.7950917" lon="11.5594667"><ele>830.0000000000001</ele><time>2026-03-28T14:05:22.145Z</time></trkpt><trkpt lat="45.7950917" lon="11.55933"><ele>830.0</ele><time>2026-03-28T14:05:23.145Z</time></trkpt><trkpt lat="45.795075" lon="11.559235"><ele>830.0</ele><time>2026-03-28T14:05:24.144Z</time></trkpt><trkpt lat="45.795045" lon="11.5591083"><ele>830.0</ele><time>2026-03-28T14:05:25.145Z</time></trkpt><trkpt lat="45.7950067" lon="11.5589967"><ele>830.0000000000001</ele><time>2026-03-28T14:05:26.144Z</time></trkpt><trkpt lat="45.7949567" lon="11.5588783"><ele>830.0</ele><time>2026-03-28T14:05:27.145Z</time></trkpt><trkpt lat="45.7949183" lon="11.5587583"><ele>832.2</ele><time>2026-03-28T14:05:28.145Z</time></trkpt><trkpt lat="45.794875" lon="11.5586433"><ele>834.4</ele><time>2026-03-28T14:05:29.145Z</time></trkpt><trkpt lat="45.7948383" lon="11.55852"><ele>836.5999999999999</ele><time>2026-03-28T14:05:30.144Z</time></trkpt><trkpt lat="45.7948033" lon="11.5583983"><ele>838.8</ele><time>2026-03-28T14:05:31.145Z</time></trkpt><trkpt lat="45.7947567" lon="11.558285"><ele>841.0</ele><time>2026-03-28T14:05:32.145Z</time></trkpt><trkpt lat="45.7947133" lon="11.5581833"><ele>841.0</ele><time>2026-03-28T14:05:33.144Z</time></trkpt><trkpt lat="45.794665" lon="11.558075"><ele>841.0</ele><time>2026-03-28T14:05:34.144Z</time></trkpt><trkpt lat="45.7946167" lon="11.55797"><ele>841.0</ele><time>2026-03-28T14:05:35.145Z</time></trkpt><trkpt lat="45.794565" lon="11.5578517"><ele>841.0</ele><time>2026-03-28T14:05:36.145Z</time></trkpt><trkpt lat="45.79451" lon="11.5577233"><ele>841.0</ele><time>2026-03-28T14:05:37.145Z</time></trkpt><trkpt lat="45.79445" lon="11.5575967"><ele>840.8</ele><time>2026-03-28T14:05:38.145Z</time></trkpt><trkpt lat="45.79439" lon="11.5574717"><ele>840.5999999999999</ele><time>2026-03-28T14:05:39.145Z</time></trkpt><trkpt lat="45.7943267" lon="11.5573767"><ele>840.4</ele><time>2026-03-28T14:05:40.145Z</time></trkpt><trkpt lat="45.7942633" lon="11.5572917"><ele>840.2</ele><time>2026-03-28T14:05:41.145Z</time></trkpt><trkpt lat="45.7941967" lon="11.557215"><ele>840.0</ele><time>2026-03-28T14:05:42.144Z</time></trkpt><trkpt lat="45.79412" lon="11.5571283"><ele>842.0</ele><time>2026-03-28T14:05:43.145Z</time></trkpt><trkpt lat="45.7940433" lon="11.5570267"><ele>844.0</ele><time>2026-03-28T14:05:44.145Z</time></trkpt><trkpt lat="45.793975" lon="11.5569267"><ele>846.0</ele><time>2026-03-28T14:05:45.144Z</time></trkpt><trkpt lat="45.7938967" lon="11.5568117"><ele>848.0</ele><time>2026-03-28T14:05:46.145Z</time></trkpt><trkpt lat="45.7938183" lon="11.55669"><ele>850.0</ele><time>2026-03-28T14:05:47.145Z</time></trkpt><trkpt lat="45.7937433" lon="11.5565667"><ele>849.9999999999999</ele><time>2026-03-28T14:05:48.144Z</time></trkpt><trkpt lat="45.7936733" lon="11.5564717"><ele>850.0</ele><time>2026-03-28T14:05:49.145Z</time></trkpt><trkpt lat="45.7935983" lon="11.5563933"><ele>850.0</ele><time>2026-03-28T14:05:50.145Z</time></trkpt><trkpt lat="45.79353" lon="11.5563183"><ele>850.0</ele><time>2026-03-28T14:05:51.145Z</time></trkpt><trkpt lat="45.7934817" lon="11.5562533"><ele>849.9999999999999</ele><time>2026-03-28T14:05:52.145Z</time></trkpt><trkpt lat="45.7934083" lon="11.5561817"><ele>850.0</ele><time>2026-03-28T14:05:53.145Z</time></trkpt><trkpt lat="45.7933533" lon="11.5561017"><ele>852.0</ele><time>2026-03-28T14:05:54.145Z</time></trkpt><trkpt lat="45.7933" lon="11.5560233"><ele>854.0</ele><time>2026-03-28T14:05:55.145Z</time></trkpt><trkpt lat="45.793195" lon="11.555945"><ele>856.0</ele><time>2026-03-28T14:05:57.145Z</time></trkpt><trkpt lat="45.79314" lon="11.5558617"><ele>858.0</ele><time>2026-03-28T14:05:59.145Z</time></trkpt><trkpt lat="45.7931533" lon="11.5556833"><ele>860.0</ele><time>2026-03-28T14:06:01.144Z</time></trkpt><trkpt lat="45.79315" lon="11.5555883"><ele>861.75</ele><time>2026-03-28T14:06:02.144Z</time></trkpt><trkpt lat="45.7930833" lon="11.5553467"><ele>863.5</ele><time>2026-03-28T14:06:04.145Z</time></trkpt><trkpt lat="45.7930267" lon="11.5552417"><ele>865.25</ele><time>2026-03-28T14:06:05.145Z</time></trkpt><trkpt lat="45.79296" lon="11.5551333"><ele>867.0</ele><time>2026-03-28T14:06:06.145Z</time></trkpt><trkpt lat="45.7929017" lon="11.555"><ele>867.0</ele><time>2026-03-28T14:06:07.144Z</time></trkpt><trkpt lat="45.7928467" lon="11.5548783"><ele>867.0</ele><time>2026-03-28T14:06:08.144Z</time></trkpt><trkpt lat="45.7927917" lon="11.5547483"><ele>867.0</ele><time>2026-03-28T14:06:09.145Z</time></trkpt><trkpt lat="45.792735" lon="11.5546233"><ele>867.0</ele><time>2026-03-28T14:06:10.144Z</time></trkpt><trkpt lat="45.79267" lon="11.5544883"><ele>867.0</ele><time>2026-03-28T14:06:11.145Z</time></trkpt><trkpt lat="45.7926033" lon="11.55436"><ele>868.0</ele><time>2026-03-28T14:06:12.144Z</time></trkpt><trkpt lat="45.7925367" lon="11.55424"><ele>869.0</ele><time>2026-03-28T14:06:13.145Z</time></trkpt><trkpt lat="45.79248" lon="11.554115"><ele>870.0</ele><time>2026-03-28T14:06:14.145Z</time></trkpt><trkpt lat="45.7924233" lon="11.5539967"><ele>871.0</ele><time>2026-03-28T14:06:15.145Z</time></trkpt><trkpt lat="45.7923683" lon="11.5538883"><ele>872.0</ele><time>2026-03-28T14:06:16.145Z</time></trkpt><trkpt lat="45.7923183" lon="11.5537967"><ele>872.0000000000001</ele><time>2026-03-28T14:06:17.145Z</time></trkpt><trkpt lat="45.7922717" lon="11.5537283"><ele>872.0</ele><time>2026-03-28T14:06:19.145Z</time></trkpt><trkpt lat="45.7923483" lon="11.553635"><ele>872.0</ele><time>2026-03-28T14:06:32.145Z</time></trkpt><trkpt lat="45.79244" lon="11.5535817"><ele>872.0</ele><time>2026-03-28T14:06:33.145Z</time></trkpt><trkpt lat="45.7925533" lon="11.5535733"><ele>872.0000000000001</ele><time>2026-03-28T14:06:35.145Z</time></trkpt><trkpt lat="45.7926167" lon="11.5535917"><ele>872.0</ele><time>2026-03-28T14:06:36.144Z</time></trkpt><trkpt lat="45.792685" lon="11.5536017"><ele>873.5</ele><time>2026-03-28T14:06:37.144Z</time></trkpt><trkpt lat="45.792795" lon="11.5536933"><ele>875.0</ele><time>2026-03-28T14:06:38.145Z</time></trkpt><trkpt lat="45.7928817" lon="11.5538033"><ele>876.5</ele><time>2026-03-28T14:06:39.145Z</time></trkpt><trkpt lat="45.79296" lon="11.5538933"><ele>878.0</ele><time>2026-03-28T14:06:40.145Z</time></trkpt><trkpt lat="45.7932083" lon="11.5541267"><ele>878.0</ele><time>2026-03-28T14:06:41.145Z</time></trkpt><trkpt lat="45.793275" lon="11.5541883"><ele>878.0</ele><time>2026-03-28T14:06:42.145Z</time></trkpt><trkpt lat="45.79334" lon="11.5542333"><ele>878.0</ele><time>2026-03-28T14:06:43.145Z</time></trkpt><trkpt lat="45.7933333" lon="11.5540333"><ele>878.0</ele><time>2026-03-28T14:06:53.145Z</time></trkpt><trkpt lat="45.7933317" lon="11.5539367"><ele>878.0</ele><time>2026-03-28T14:06:57.144Z</time></trkpt><trkpt lat="45.7933117" lon="11.5537817"><ele>878.0</ele><time>2026-03-28T14:07:07.145Z</time></trkpt><trkpt lat="45.79327" lon="11.5537133"><ele>878.0</ele><time>2026-03-28T14:07:09.144Z</time></trkpt><trkpt lat="45.7932833" lon="11.5536067"><ele>878.0</ele><time>2026-03-28T14:07:12.145Z</time></trkpt><trkpt lat="45.7932867" lon="11.5535083"><ele>878.0</ele><time>2026-03-28T14:07:14.145Z</time></trkpt><trkpt lat="45.7932933" lon="11.5534183"><ele>878.0</ele><time>2026-03-28T14:07:16.145Z</time></trkpt><trkpt lat="45.7933017" lon="11.55331"><ele>878.0</ele><time>2026-03-28T14:07:18.145Z</time></trkpt><trkpt lat="45.7932817" lon="11.5532"><ele>878.0</ele><time>2026-03-28T14:07:21.145Z</time></trkpt><trkpt lat="45.7932283" lon="11.5531467"><ele>879.5000000000001</ele><time>2026-03-28T14:07:27.145Z</time></trkpt><trkpt lat="45.7931283" lon="11.5531083"><ele>881.0</ele><time>2026-03-28T14:08:18.145Z</time></trkpt><trkpt lat="45.793115" lon="11.5530033"><ele>882.5</ele><time>2026-03-28T14:08:42.144Z</time></trkpt><trkpt lat="45.79311" lon="11.5529033"><ele>884.0</ele><time>2026-03-28T14:08:46.145Z</time></trkpt><trkpt lat="45.7931033" lon="11.5528133"><ele>885.5000000000001</ele><time>2026-03-28T14:08:49.144Z</time></trkpt><trkpt lat="45.7930767" lon="11.5527283"><ele>887.0</ele><time>2026-03-28T14:09:17.144Z</time></trkpt><trkpt lat="45.7929983" lon="11.5526533"><ele>889.6666666666667</ele><time>2026-03-28T14:09:18.144Z</time></trkpt><trkpt lat="45.792915" lon="11.5525833"><ele>892.3333333333334</ele><time>2026-03-28T14:09:39.144Z</time></trkpt><trkpt lat="45.7929217" lon="11.5526983"><ele>895.0</ele><time>2026-03-28T14:10:05.145Z</time></trkpt><trkpt lat="45.7928483" lon="11.552745"><ele>897.6666666666667</ele><time>2026-03-28T14:10:10.145Z</time></trkpt><trkpt lat="45.7927667" lon="11.5527583"><ele>900.3333333333334</ele><time>2026-03-28T14:10:12.144Z</time></trkpt><trkpt lat="45.7927017" lon="11.5527333"><ele>903.0</ele><time>2026-03-28T14:10:13.144Z</time></trkpt><trkpt lat="45.79258" lon="11.5527033"><ele>903.25</ele><time>2026-03-28T14:10:15.144Z</time></trkpt><trkpt lat="45.7924517" lon="11.5527167"><ele>903.5</ele><time>2026-03-28T14:10:16.145Z</time></trkpt><trkpt lat="45.7923117" lon="11.5527417"><ele>903.75</ele><time>2026-03-28T14:10:17.145Z</time></trkpt><trkpt lat="45.7921833" lon="11.5527483"><ele>904.0</ele><time>2026-03-28T14:10:18.145Z</time></trkpt><trkpt lat="45.79203" lon="11.5527267"><ele>904.0</ele><time>2026-03-28T14:10:19.145Z</time></trkpt><trkpt lat="45.7918967" lon="11.5526933"><ele>904.0</ele><time>2026-03-28T14:10:20.145Z</time></trkpt><trkpt lat="45.7917933" lon="11.5526717"><ele>904.0</ele><time>2026-03-28T14:10:21.145Z</time></trkpt><trkpt lat="45.7916767" lon="11.5526433"><ele>904.0</ele><time>2026-03-28T14:10:22.145Z</time></trkpt><trkpt lat="45.7915617" lon="11.55261"><ele>901.0</ele><time>2026-03-28T14:10:23.145Z</time></trkpt><trkpt lat="45.7914317" lon="11.552585"><ele>898.0</ele><time>2026-03-28T14:10:24.144Z</time></trkpt><trkpt lat="45.7913" lon="11.5526067"><ele>895.0</ele><time>2026-03-28T14:10:25.144Z</time></trkpt><trkpt lat="45.791175" lon="11.5526233"><ele>892.0</ele><time>2026-03-28T14:10:26.145Z</time></trkpt><trkpt lat="45.7910583" lon="11.552645"><ele>892.0</ele><time>2026-03-28T14:10:27.145Z</time></trkpt><trkpt lat="45.7909383" lon="11.5526517"><ele>892.0</ele><time>2026-03-28T14:10:28.144Z</time></trkpt><trkpt lat="45.790825" lon="11.5526533"><ele>892.0</ele><time>2026-03-28T14:10:29.144Z</time></trkpt><trkpt lat="45.7907133" lon="11.5526533"><ele>892.0</ele><time>2026-03-28T14:10:30.145Z</time></trkpt><trkpt lat="45.7906083" lon="11.5526683"><ele>892.0</ele><time>2026-03-28T14:10:31.145Z</time></trkpt><trkpt lat="45.7904983" lon="11.552695"><ele>892.0</ele><time>2026-03-28T14:10:32.145Z</time></trkpt><trkpt lat="45.7903767" lon="11.5527233"><ele>892.0</ele><time>2026-03-28T14:10:33.145Z</time></trkpt><trkpt lat="45.7902783" lon="11.5527367"><ele>892.0</ele><time>2026-03-28T14:10:34.145Z</time></trkpt><trkpt lat="45.7901767" lon="11.5527483"><ele>892.0</ele><time>2026-03-28T14:10:35.145Z</time></trkpt><trkpt lat="45.7900783" lon="11.5527533"><ele>892.8333333333333</ele><time>2026-03-28T14:10:36.145Z</time></trkpt><trkpt lat="45.7899933" lon="11.5527517"><ele>893.6666666666666</ele><time>2026-03-28T14:10:37.144Z</time></trkpt><trkpt lat="45.7899167" lon="11.55273"><ele>894.5</ele><time>2026-03-28T14:10:38.145Z</time></trkpt><trkpt lat="45.7898467" lon="11.5526833"><ele>895.3333333333333</ele><time>2026-03-28T14:10:39.145Z</time></trkpt><trkpt lat="45.78977" lon="11.5526333"><ele>896.1666666666666</ele><time>2026-03-28T14:10:40.145Z</time></trkpt><trkpt lat="45.7896933" lon="11.5525583"><ele>897.0</ele><time>2026-03-28T14:10:41.145Z</time></trkpt><trkpt lat="45.7896117" lon="11.552475"><ele>897.0</ele><time>2026-03-28T14:10:42.145Z</time></trkpt><trkpt lat="45.789535" lon="11.5523567"><ele>897.0</ele><time>2026-03-28T14:10:43.145Z</time></trkpt><trkpt lat="45.7894667" lon="11.5522417"><ele>897.0</ele><time>2026-03-28T14:10:44.145Z</time></trkpt><trkpt lat="45.7894017" lon="11.55212"><ele>897.0</ele><time>2026-03-28T14:10:45.145Z</time></trkpt><trkpt lat="45.78935" lon="11.55199"><ele>897.0</ele><time>2026-03-28T14:10:46.145Z</time></trkpt><trkpt lat="45.7892917" lon="11.5518567"><ele>897.3333333333334</ele><time>2026-03-28T14:10:47.145Z</time></trkpt><trkpt lat="45.7892333" lon="11.551735"><ele>897.6666666666667</ele><time>2026-03-28T14:10:48.144Z</time></trkpt><trkpt lat="45.7891867" lon="11.5516233"><ele>898.0</ele><time>2026-03-28T14:10:49.145Z</time></trkpt><trkpt lat="45.7891517" lon="11.551515"><ele>898.3333333333334</ele><time>2026-03-28T14:10:50.145Z</time></trkpt><trkpt lat="45.7891217" lon="11.5514233"><ele>898.6666666666667</ele><time>2026-03-28T14:10:51.145Z</time></trkpt><trkpt lat="45.7890933" lon="11.551315"><ele>899.0</ele><time>2026-03-28T14:10:53.145Z</time></trkpt><trkpt lat="45.78908" lon="11.5512167"><ele>900.8000000000001</ele><time>2026-03-28T14:10:56.145Z</time></trkpt><trkpt lat="45.7890217" lon="11.5511017"><ele>902.6000000000001</ele><time>2026-03-28T14:10:58.144Z</time></trkpt><trkpt lat="45.7889533" lon="11.5509567"><ele>904.4</ele><time>2026-03-28T14:11:00.145Z</time></trkpt><trkpt lat="45.7889217" lon="11.5508733"><ele>906.2</ele><time>2026-03-28T14:11:01.145Z</time></trkpt><trkpt lat="45.7888933" lon="11.550695"><ele>908.0</ele><time>2026-03-28T14:11:03.145Z</time></trkpt><trkpt lat="45.7889017" lon="11.550605"><ele>908.0</ele><time>2026-03-28T14:11:04.144Z</time></trkpt><trkpt lat="45.7889417" lon="11.5504783"><ele>908.0</ele><time>2026-03-28T14:11:06.145Z</time></trkpt><trkpt lat="45.78898" lon="11.5504"><ele>908.0</ele><time>2026-03-28T14:11:08.144Z</time></trkpt><trkpt lat="45.7890317" lon="11.5502683"><ele>908.0</ele><time>2026-03-28T14:12:19.145Z</time></trkpt><trkpt lat="45.7890467" lon="11.550095"><ele>908.0</ele><time>2026-03-28T14:12:27.145Z</time></trkpt><trkpt lat="45.7890867" lon="11.5499867"><ele>906.8333333333334</ele><time>2026-03-28T14:12:31.145Z</time></trkpt><trkpt lat="45.7891067" lon="11.549895"><ele>905.6666666666667</ele><time>2026-03-28T14:12:36.144Z</time></trkpt><trkpt lat="45.7891283" lon="11.5497767"><ele>904.5</ele><time>2026-03-28T14:12:41.145Z</time></trkpt><trkpt lat="45.78911" lon="11.5496883"><ele>903.3333333333333</ele><time>2026-03-28T14:12:46.145Z</time></trkpt><trkpt lat="45.7890433" lon="11.5497333"><ele>902.1666666666666</ele><time>2026-03-28T14:12:55.144Z</time></trkpt><trkpt lat="45.7889717" lon="11.5497683"><ele>901.0</ele><time>2026-03-28T14:12:58.144Z</time></trkpt><trkpt lat="45.7888883" lon="11.5498183"><ele>900.9999999999999</ele><time>2026-03-28T14:13:01.145Z</time></trkpt><trkpt lat="45.788815" lon="11.5498417"><ele>901.0</ele><time>2026-03-28T14:13:03.145Z</time></trkpt><trkpt lat="45.78874" lon="11.5498883"><ele>901.0</ele><time>2026-03-28T14:13:05.145Z</time></trkpt><trkpt lat="45.7886617" lon="11.549965"><ele>901.0</ele><time>2026-03-28T14:13:08.145Z</time></trkpt><trkpt lat="45.78857" lon="11.5500267"><ele>900.9999999999999</ele><time>2026-03-28T14:13:10.145Z</time></trkpt><trkpt lat="45.7884967" lon="11.5500817"><ele>901.0</ele><time>2026-03-28T14:13:12.145Z</time></trkpt><trkpt lat="45.788415" lon="11.5501417"><ele>896.4285714285714</ele><time>2026-03-28T14:13:15.144Z</time></trkpt><trkpt lat="45.7883467" lon="11.550175"><ele>891.8571428571429</ele><time>2026-03-28T14:13:17.145Z</time></trkpt><trkpt lat="45.7882817" lon="11.550215"><ele>887.2857142857143</ele><time>2026-03-28T14:13:20.145Z</time></trkpt><trkpt lat="45.78822" lon="11.5502483"><ele>882.7142857142858</ele><time>2026-03-28T14:13:23.145Z</time></trkpt><trkpt lat="45.7881567" lon="11.5502917"><ele>878.1428571428571</ele><time>2026-03-28T14:13:28.145Z</time></trkpt><trkpt lat="45.7880967" lon="11.55032"><ele>873.5714285714287</ele><time>2026-03-28T14:13:34.145Z</time></trkpt><trkpt lat="45.7880017" lon="11.5503633"><ele>869.0</ele><time>2026-03-28T14:14:10.144Z</time></trkpt><trkpt lat="45.7878967" lon="11.5504317"><ele>868.2857142857143</ele><time>2026-03-28T14:15:34.145Z</time></trkpt><trkpt lat="45.7878417" lon="11.5503733"><ele>867.5714285714286</ele><time>2026-03-28T14:18:43.144Z</time></trkpt><trkpt lat="45.78778" lon="11.5503183"><ele>866.8571428571429</ele><time>2026-03-28T14:18:50.144Z</time></trkpt><trkpt lat="45.7877167" lon="11.5502917"><ele>866.1428571428571</ele><time>2026-03-28T14:18:59.144Z</time></trkpt><trkpt lat="45.7876433" lon="11.5502967"><ele>865.4285714285713</ele><time>2026-03-28T14:19:29.144Z</time></trkpt><trkpt lat="45.7876033" lon="11.55038"><ele>864.7142857142857</ele><time>2026-03-28T14:19:40.144Z</time></trkpt><trkpt lat="45.787605" lon="11.5504817"><ele>864.0</ele><time>2026-03-28T14:19:43.144Z</time></trkpt><trkpt lat="45.7876017" lon="11.550575"><ele>864.8333333333334</ele><time>2026-03-28T14:19:47.144Z</time></trkpt><trkpt lat="45.78761" lon="11.5506983"><ele>865.6666666666667</ele><time>2026-03-28T14:19:51.144Z</time></trkpt><trkpt lat="45.78765" lon="11.5508233"><ele>866.5</ele><time>2026-03-28T14:19:54.144Z</time></trkpt><trkpt lat="45.7876983" lon="11.5509067"><ele>867.3333333333334</ele><time>2026-03-28T14:19:56.144Z</time></trkpt><trkpt lat="45.787745" lon="11.5509933"><ele>868.1666666666667</ele><time>2026-03-28T14:19:58.144Z</time></trkpt><trkpt lat="45.78778" lon="11.55107"><ele>869.0</ele><time>2026-03-28T14:20:03.144Z</time></trkpt><trkpt lat="45.7876883" lon="11.5509417"><ele>863.0000000000001</ele><time>2026-03-28T14:21:15.144Z</time></trkpt><trkpt lat="45.7876417" lon="11.5508517"><ele>857.0</ele><time>2026-03-28T14:21:19.143Z</time></trkpt><trkpt lat="45.7876083" lon="11.55075"><ele>851.0</ele><time>2026-03-28T14:21:22.143Z</time></trkpt><trkpt lat="45.78756" lon="11.550635"><ele>845.0</ele><time>2026-03-28T14:21:25.144Z</time></trkpt><trkpt lat="45.7874983" lon="11.55053"><ele>839.0000000000001</ele><time>2026-03-28T14:21:28.143Z</time></trkpt><trkpt lat="45.7874517" lon="11.550445"><ele>833.0</ele><time>2026-03-28T14:21:30.143Z</time></trkpt><trkpt lat="45.7873733" lon="11.55036"><ele>833.0</ele><time>2026-03-28T14:21:33.144Z</time></trkpt><trkpt lat="45.7873267" lon="11.550285"><ele>833.0</ele><time>2026-03-28T14:21:35.144Z</time></trkpt><trkpt lat="45.787285" lon="11.5502167"><ele>833.0</ele><time>2026-03-28T14:21:37.143Z</time></trkpt><trkpt lat="45.7872233" lon="11.5501983"><ele>833.0</ele><time>2026-03-28T14:21:40.144Z</time></trkpt><trkpt lat="45.7871483" lon="11.5502317"><ele>833.0</ele><time>2026-03-28T14:21:44.144Z</time></trkpt><trkpt lat="45.787095" lon="11.5503333"><ele>833.0</ele><time>2026-03-28T14:22:09.144Z</time></trkpt><trkpt lat="45.7870933" lon="11.550445"><ele>833.0</ele><time>2026-03-28T14:22:13.143Z</time></trkpt><trkpt lat="45.7870717" lon="11.5505333"><ele>833.0000000000001</ele><time>2026-03-28T14:22:16.144Z</time></trkpt><trkpt lat="45.78709" lon="11.55062"><ele>833.0</ele><time>2026-03-28T14:22:20.144Z</time></trkpt><trkpt lat="45.78702" lon="11.5505"><ele>833.0</ele><time>2026-03-28T14:22:23.144Z</time></trkpt><trkpt lat="45.7869783" lon="11.5504167"><ele>833.0</ele><time>2026-03-28T14:22:24.144Z</time></trkpt><trkpt lat="45.7869167" lon="11.5503167"><ele>833.0000000000001</ele><time>2026-03-28T14:22:25.144Z</time></trkpt><trkpt lat="45.7868517" lon="11.5502067"><ele>833.0</ele><time>2026-03-28T14:22:26.144Z</time></trkpt><trkpt lat="45.7867983" lon="11.5500883"><ele>829.0</ele><time>2026-03-28T14:22:27.144Z</time></trkpt><trkpt lat="45.78674" lon="11.5499667"><ele>825.0</ele><time>2026-03-28T14:22:28.144Z</time></trkpt><trkpt lat="45.7866833" lon="11.5498533"><ele>821.0</ele><time>2026-03-28T14:22:29.144Z</time></trkpt><trkpt lat="45.7866267" lon="11.5497567"><ele>817.0</ele><time>2026-03-28T14:22:30.144Z</time></trkpt><trkpt lat="45.7865767" lon="11.549655"><ele>813.0</ele><time>2026-03-28T14:22:31.143Z</time></trkpt><trkpt lat="45.7865367" lon="11.5495283"><ele>813.0</ele><time>2026-03-28T14:22:32.143Z</time></trkpt><trkpt lat="45.7864917" lon="11.5494467"><ele>813.0</ele><time>2026-03-28T14:22:33.144Z</time></trkpt><trkpt lat="45.78645" lon="11.54935"><ele>813.0</ele><time>2026-03-28T14:22:34.143Z</time></trkpt><trkpt lat="45.7863983" lon="11.5492667"><ele>813.0</ele><time>2026-03-28T14:22:35.144Z</time></trkpt><trkpt lat="45.7863517" lon="11.5491983"><ele>813.0</ele><time>2026-03-28T14:22:36.144Z</time></trkpt><trkpt lat="45.7862917" lon="11.54914"><ele>813.0</ele><time>2026-03-28T14:22:37.144Z</time></trkpt><trkpt lat="45.7862367" lon="11.5490883"><ele>813.0</ele><time>2026-03-28T14:22:38.144Z</time></trkpt><trkpt lat="45.7861833" lon="11.549035"><ele>813.0</ele><time>2026-03-28T14:22:39.144Z</time></trkpt><trkpt lat="45.7860933" lon="11.5489417"><ele>813.0</ele><time>2026-03-28T14:22:41.144Z</time></trkpt><trkpt lat="45.78602" lon="11.5488733"><ele>813.0</ele><time>2026-03-28T14:22:43.143Z</time></trkpt><trkpt lat="45.785945" lon="11.5487967"><ele>813.0</ele><time>2026-03-28T14:22:46.144Z</time></trkpt><trkpt lat="45.7858783" lon="11.548735"><ele>813.0</ele><time>2026-03-28T14:22:48.144Z</time></trkpt><trkpt lat="45.7858017" lon="11.5486517"><ele>808.8</ele><time>2026-03-28T14:22:50.143Z</time></trkpt><trkpt lat="45.7856983" lon="11.5485483"><ele>804.5999999999999</ele><time>2026-03-28T14:22:52.143Z</time></trkpt><trkpt lat="45.7856333" lon="11.5484883"><ele>800.4000000000001</ele><time>2026-03-28T14:22:53.144Z</time></trkpt><trkpt lat="45.78556" lon="11.5484317"><ele>796.2</ele><time>2026-03-28T14:22:54.144Z</time></trkpt><trkpt lat="45.7854783" lon="11.5483867"><ele>792.0</ele><time>2026-03-28T14:22:55.144Z</time></trkpt><trkpt lat="45.78539" lon="11.5483517"><ele>792.0</ele><time>2026-03-28T14:22:56.144Z</time></trkpt><trkpt lat="45.785295" lon="11.54833"><ele>792.0</ele><time>2026-03-28T14:22:57.144Z</time></trkpt><trkpt lat="45.785195" lon="11.548315"><ele>792.0</ele><time>2026-03-28T14:22:58.143Z</time></trkpt><trkpt lat="45.7850883" lon="11.5483133"><ele>792.0</ele><time>2026-03-28T14:22:59.144Z</time></trkpt><trkpt lat="45.78498" lon="11.5483167"><ele>792.0</ele><time>2026-03-28T14:23:00.143Z</time></trkpt><trkpt lat="45.784885" lon="11.548325"><ele>790.6</ele><time>2026-03-28T14:23:01.143Z</time></trkpt><trkpt lat="45.7847933" lon="11.5483183"><ele>789.2</ele><time>2026-03-28T14:23:02.144Z</time></trkpt><trkpt lat="45.784695" lon="11.5483017"><ele>787.8</ele><time>2026-03-28T14:23:03.144Z</time></trkpt><trkpt lat="45.7846" lon="11.5482683"><ele>786.4</ele><time>2026-03-28T14:23:04.144Z</time></trkpt><trkpt lat="45.7845083" lon="11.548225"><ele>785.0</ele><time>2026-03-28T14:23:05.144Z</time></trkpt><trkpt lat="45.7844167" lon="11.548165"><ele>785.8</ele><time>2026-03-28T14:23:06.143Z</time></trkpt><trkpt lat="45.784335" lon="11.5480867"><ele>786.6</ele><time>2026-03-28T14:23:07.144Z</time></trkpt><trkpt lat="45.7842583" lon="11.5479883"><ele>787.4000000000001</ele><time>2026-03-28T14:23:08.144Z</time></trkpt><trkpt lat="45.784175" lon="11.5478717"><ele>788.2</ele><time>2026-03-28T14:23:09.143Z</time></trkpt><trkpt lat="45.7841017" lon="11.547755"><ele>789.0</ele><time>2026-03-28T14:23:10.143Z</time></trkpt><trkpt lat="45.7840167" lon="11.54764"><ele>789.0</ele><time>2026-03-28T14:23:11.144Z</time></trkpt><trkpt lat="45.783925" lon="11.5475367"><ele>789.0</ele><time>2026-03-28T14:23:12.144Z</time></trkpt><trkpt lat="45.7838183" lon="11.54743"><ele>789.0</ele><time>2026-03-28T14:23:13.144Z</time></trkpt><trkpt lat="45.7837133" lon="11.5473217"><ele>789.0</ele><time>2026-03-28T14:23:14.144Z</time></trkpt><trkpt lat="45.7836117" lon="11.5472133"><ele>786.25</ele><time>2026-03-28T14:23:15.143Z</time></trkpt><trkpt lat="45.7835133" lon="11.5470967"><ele>783.5</ele><time>2026-03-28T14:23:16.144Z</time></trkpt><trkpt lat="45.7834167" lon="11.546995"><ele>780.75</ele><time>2026-03-28T14:23:17.144Z</time></trkpt><trkpt lat="45.78333" lon="11.5468967"><ele>778.0</ele><time>2026-03-28T14:23:18.143Z</time></trkpt><trkpt lat="45.78325" lon="11.5468033"><ele>778.0</ele><time>2026-03-28T14:23:19.143Z</time></trkpt><trkpt lat="45.7831667" lon="11.54672"><ele>778.0</ele><time>2026-03-28T14:23:20.144Z</time></trkpt><trkpt lat="45.7830733" lon="11.5466567"><ele>778.0</ele><time>2026-03-28T14:23:21.144Z</time></trkpt><trkpt lat="45.78297" lon="11.5466"><ele>778.0</ele><time>2026-03-28T14:23:22.143Z</time></trkpt><trkpt lat="45.78286" lon="11.5465617"><ele>778.0</ele><time>2026-03-28T14:23:23.144Z</time></trkpt><trkpt lat="45.7827517" lon="11.5465267"><ele>773.75</ele><time>2026-03-28T14:23:24.143Z</time></trkpt><trkpt lat="45.7826267" lon="11.5465167"><ele>769.5</ele><time>2026-03-28T14:23:25.144Z</time></trkpt><trkpt lat="45.782515" lon="11.5465233"><ele>765.25</ele><time>2026-03-28T14:23:26.143Z</time></trkpt><trkpt lat="45.7824083" lon="11.5465233"><ele>761.0</ele><time>2026-03-28T14:23:27.144Z</time></trkpt><trkpt lat="45.7823" lon="11.5465133"><ele>761.0</ele><time>2026-03-28T14:23:28.143Z</time></trkpt><trkpt lat="45.782195" lon="11.5465117"><ele>761.0</ele><time>2026-03-28T14:23:29.144Z</time></trkpt><trkpt lat="45.7820867" lon="11.5465067"><ele>761.0</ele><time>2026-03-28T14:23:30.144Z</time></trkpt><trkpt lat="45.781985" lon="11.5465167"><ele>761.0</ele><time>2026-03-28T14:23:31.143Z</time></trkpt><trkpt lat="45.7818967" lon="11.54654"><ele>761.0</ele><time>2026-03-28T14:23:32.144Z</time></trkpt><trkpt lat="45.7818183" lon="11.54657"><ele>758.5</ele><time>2026-03-28T14:23:33.144Z</time></trkpt><trkpt lat="45.7817417" lon="11.5466067"><ele>756.0</ele><time>2026-03-28T14:23:34.144Z</time></trkpt><trkpt lat="45.7816633" lon="11.54664"><ele>753.5</ele><time>2026-03-28T14:23:35.144Z</time></trkpt><trkpt lat="45.781585" lon="11.546675"><ele>751.0</ele><time>2026-03-28T14:23:36.144Z</time></trkpt><trkpt lat="45.7814983" lon="11.5467133"><ele>748.5</ele><time>2026-03-28T14:23:37.144Z</time></trkpt><trkpt lat="45.7814083" lon="11.54674"><ele>746.0</ele><time>2026-03-28T14:23:38.144Z</time></trkpt><trkpt lat="45.7813117" lon="11.54675"><ele>746.0</ele><time>2026-03-28T14:23:39.143Z</time></trkpt><trkpt lat="45.7812183" lon="11.5467483"><ele>746.0</ele><time>2026-03-28T14:23:40.144Z</time></trkpt><trkpt lat="45.7811217" lon="11.54674"><ele>746.0</ele><time>2026-03-28T14:23:41.144Z</time></trkpt><trkpt lat="45.7810283" lon="11.54674"><ele>746.0</ele><time>2026-03-28T14:23:42.144Z</time></trkpt><trkpt lat="45.7809367" lon="11.5467533"><ele>746.0</ele><time>2026-03-28T14:23:43.144Z</time></trkpt><trkpt lat="45.7808567" lon="11.5467783"><ele>743.4</ele><time>2026-03-28T14:23:44.144Z</time></trkpt><trkpt lat="45.7807917" lon="11.54681"><ele>740.8</ele><time>2026-03-28T14:23:45.144Z</time></trkpt><trkpt lat="45.780715" lon="11.54682"><ele>738.1999999999999</ele><time>2026-03-28T14:23:47.144Z</time></trkpt><trkpt lat="45.780775" lon="11.5467467"><ele>735.5999999999999</ele><time>2026-03-28T14:23:52.144Z</time></trkpt><trkpt lat="45.7808917" lon="11.546615"><ele>733.0</ele><time>2026-03-28T14:23:54.143Z</time></trkpt><trkpt lat="45.7809683" lon="11.5465067"><ele>732.2</ele><time>2026-03-28T14:23:55.143Z</time></trkpt><trkpt lat="45.78104" lon="11.5464"><ele>731.4</ele><time>2026-03-28T14:23:56.143Z</time></trkpt><trkpt lat="45.7811283" lon="11.546285"><ele>730.6</ele><time>2026-03-28T14:23:57.143Z</time></trkpt><trkpt lat="45.7812267" lon="11.5461867"><ele>729.8000000000001</ele><time>2026-03-28T14:23:58.144Z</time></trkpt><trkpt lat="45.781315" lon="11.5461333"><ele>729.0</ele><time>2026-03-28T14:23:59.144Z</time></trkpt><trkpt lat="45.7814117" lon="11.5460983"><ele>729.0</ele><time>2026-03-28T14:24:00.144Z</time></trkpt><trkpt lat="45.7814917" lon="11.5460583"><ele>729.0</ele><time>2026-03-28T14:24:01.143Z</time></trkpt><trkpt lat="45.7815683" lon="11.5460267"><ele>729.0</ele><time>2026-03-28T14:24:02.144Z</time></trkpt><trkpt lat="45.7816333" lon="11.5460083"><ele>729.0</ele><time>2026-03-28T14:24:03.143Z</time></trkpt><trkpt lat="45.7817333" lon="11.5460033"><ele>729.0</ele><time>2026-03-28T14:24:05.144Z</time></trkpt><trkpt lat="45.7818083" lon="11.5459933"><ele>729.0</ele><time>2026-03-28T14:24:08.144Z</time></trkpt><trkpt lat="45.7818633" lon="11.545945"><ele>732.3333333333334</ele><time>2026-03-28T14:24:17.144Z</time></trkpt><trkpt lat="45.7819383" lon="11.5458967"><ele>735.6666666666666</ele><time>2026-03-28T14:24:19.144Z</time></trkpt><trkpt lat="45.7819917" lon="11.5458483"><ele>739.0</ele><time>2026-03-28T14:24:20.144Z</time></trkpt><trkpt lat="45.7820533" lon="11.5457767"><ele>742.3333333333333</ele><time>2026-03-28T14:24:21.143Z</time></trkpt><trkpt lat="45.7821183" lon="11.545705"><ele>745.6666666666666</ele><time>2026-03-28T14:24:22.143Z</time></trkpt><trkpt lat="45.78219" lon="11.5456183"><ele>749.0</ele><time>2026-03-28T14:24:23.144Z</time></trkpt><trkpt lat="45.782255" lon="11.5455467"><ele>749.0</ele><time>2026-03-28T14:24:24.144Z</time></trkpt><trkpt lat="45.7823117" lon="11.54548"><ele>749.0</ele><time>2026-03-28T14:24:25.144Z</time></trkpt><trkpt lat="45.782365" lon="11.5454067"><ele>749.0</ele><time>2026-03-28T14:24:26.144Z</time></trkpt><trkpt lat="45.7824167" lon="11.5453433"><ele>749.0</ele><time>2026-03-28T14:24:27.144Z</time></trkpt><trkpt lat="45.7824667" lon="11.5452817"><ele>749.0</ele><time>2026-03-28T14:24:28.144Z</time></trkpt><trkpt lat="45.7825217" lon="11.545215"><ele>749.0</ele><time>2026-03-28T14:24:29.143Z</time></trkpt><trkpt lat="45.7825783" lon="11.5451417"><ele>749.0</ele><time>2026-03-28T14:24:30.144Z</time></trkpt><trkpt lat="45.7826283" lon="11.5450817"><ele>749.3333333333333</ele><time>2026-03-28T14:24:31.143Z</time></trkpt><trkpt lat="45.7827033" lon="11.5450017"><ele>749.6666666666666</ele><time>2026-03-28T14:24:33.143Z</time></trkpt><trkpt lat="45.7827533" lon="11.5449367"><ele>750.0</ele><time>2026-03-28T14:24:37.144Z</time></trkpt><trkpt lat="45.78279" lon="11.5448333"><ele>750.3333333333334</ele><time>2026-03-28T14:25:44.144Z</time></trkpt><trkpt lat="45.7828533" lon="11.544805"><ele>750.6666666666667</ele><time>2026-03-28T14:25:57.144Z</time></trkpt><trkpt lat="45.7829267" lon="11.5447633"><ele>751.0</ele><time>2026-03-28T14:26:09.144Z</time></trkpt><trkpt lat="45.782995" lon="11.5446617"><ele>751.0</ele><time>2026-03-28T14:28:20.144Z</time></trkpt><trkpt lat="45.7829267" lon="11.5447283"><ele>751.0</ele><time>2026-03-28T14:29:41.143Z</time></trkpt><trkpt lat="45.7829833" lon="11.5446467"><ele>751.0</ele><time>2026-03-28T14:30:03.142Z</time></trkpt><trkpt lat="45.78306" lon="11.5445633"><ele>751.0</ele><time>2026-03-28T14:30:05.143Z</time></trkpt><trkpt lat="45.7831433" lon="11.544455"><ele>751.0</ele><time>2026-03-28T14:30:07.143Z</time></trkpt><trkpt lat="45.7832317" lon="11.5443683"><ele>752.1428571428572</ele><time>2026-03-28T14:30:09.142Z</time></trkpt><trkpt lat="45.7832733" lon="11.5443"><ele>753.2857142857143</ele><time>2026-03-28T14:30:10.142Z</time></trkpt><trkpt lat="45.7833233" lon="11.5442317"><ele>754.4285714285714</ele><time>2026-03-28T14:30:11.143Z</time></trkpt><trkpt lat="45.783385" lon="11.5441267"><ele>755.5714285714287</ele><time>2026-03-28T14:30:12.143Z</time></trkpt><trkpt lat="45.7834367" lon="11.544055"><ele>756.7142857142857</ele><time>2026-03-28T14:30:13.143Z</time></trkpt><trkpt lat="45.7834883" lon="11.5439817"><ele>757.8571428571429</ele><time>2026-03-28T14:30:14.143Z</time></trkpt><trkpt lat="45.7835383" lon="11.543915"><ele>759.0</ele><time>2026-03-28T14:30:15.143Z</time></trkpt><trkpt lat="45.7835883" lon="11.5438467"><ele>759.0</ele><time>2026-03-28T14:30:16.143Z</time></trkpt><trkpt lat="45.7836383" lon="11.5437883"><ele>759.0</ele><time>2026-03-28T14:30:17.142Z</time></trkpt><trkpt lat="45.7837083" lon="11.5436683"><ele>759.0</ele><time>2026-03-28T14:30:19.143Z</time></trkpt><trkpt lat="45.7837417" lon="11.5435233"><ele>759.0</ele><time>2026-03-28T14:30:21.143Z</time></trkpt><trkpt lat="45.7837467" lon="11.5434283"><ele>759.0</ele><time>2026-03-28T14:30:22.143Z</time></trkpt><trkpt lat="45.7837517" lon="11.54333"><ele>759.0</ele><time>2026-03-28T14:30:23.143Z</time></trkpt><trkpt lat="45.783765" lon="11.5432317"><ele>755.4000000000001</ele><time>2026-03-28T14:30:24.143Z</time></trkpt><trkpt lat="45.7838067" lon="11.5430683"><ele>751.8</ele><time>2026-03-28T14:30:26.143Z</time></trkpt><trkpt lat="45.7838667" lon="11.542915"><ele>748.2</ele><time>2026-03-28T14:30:28.143Z</time></trkpt><trkpt lat="45.783905" lon="11.5428367"><ele>744.5999999999999</ele><time>2026-03-28T14:30:29.143Z</time></trkpt><trkpt lat="45.7839467" lon="11.54275"><ele>741.0</ele><time>2026-03-28T14:30:30.142Z</time></trkpt><trkpt lat="45.783985" lon="11.542645"><ele>738.5999999999999</ele><time>2026-03-28T14:30:31.142Z</time></trkpt><trkpt lat="45.78401" lon="11.5425233"><ele>736.2</ele><time>2026-03-28T14:30:32.143Z</time></trkpt><trkpt lat="45.7840283" lon="11.5423867"><ele>733.8</ele><time>2026-03-28T14:30:33.143Z</time></trkpt><trkpt lat="45.7840483" lon="11.5422433"><ele>731.4000000000001</ele><time>2026-03-28T14:30:34.142Z</time></trkpt><trkpt lat="45.78407" lon="11.5421033"><ele>729.0</ele><time>2026-03-28T14:30:35.143Z</time></trkpt><trkpt lat="45.7840917" lon="11.5419633"><ele>726.6</ele><time>2026-03-28T14:30:36.143Z</time></trkpt><trkpt lat="45.7841233" lon="11.541835"><ele>724.2</ele><time>2026-03-28T14:30:37.143Z</time></trkpt><trkpt lat="45.7841717" lon="11.5417133"><ele>721.8000000000001</ele><time>2026-03-28T14:30:38.142Z</time></trkpt><trkpt lat="45.78422" lon="11.541595"><ele>719.4000000000001</ele><time>2026-03-28T14:30:39.143Z</time></trkpt><trkpt lat="45.784265" lon="11.5414683"><ele>717.0</ele><time>2026-03-28T14:30:40.142Z</time></trkpt><trkpt lat="45.7843033" lon="11.541325"><ele>714.2</ele><time>2026-03-28T14:30:41.143Z</time></trkpt><trkpt lat="45.7843367" lon="11.5411767"><ele>711.4000000000001</ele><time>2026-03-28T14:30:42.143Z</time></trkpt><trkpt lat="45.7843733" lon="11.54103"><ele>708.5999999999999</ele><time>2026-03-28T14:30:43.143Z</time></trkpt><trkpt lat="45.7844067" lon="11.5408933"><ele>705.8</ele><time>2026-03-28T14:30:44.143Z</time></trkpt><trkpt lat="45.78443" lon="11.5407467"><ele>703.0</ele><time>2026-03-28T14:30:45.143Z</time></trkpt><trkpt lat="45.784455" lon="11.5406183"><ele>704.8333333333334</ele><time>2026-03-28T14:30:46.143Z</time></trkpt><trkpt lat="45.78448" lon="11.5405"><ele>706.6666666666667</ele><time>2026-03-28T14:30:47.142Z</time></trkpt><trkpt lat="45.7845" lon="11.5403783"><ele>708.5</ele><time>2026-03-28T14:30:48.143Z</time></trkpt><trkpt lat="45.7845183" lon="11.5402583"><ele>710.3333333333334</ele><time>2026-03-28T14:30:49.143Z</time></trkpt><trkpt lat="45.7845283" lon="11.5401433"><ele>712.1666666666666</ele><time>2026-03-28T14:30:50.143Z</time></trkpt><trkpt lat="45.7845267" lon="11.5400267"><ele>714.0</ele><time>2026-03-28T14:30:51.143Z</time></trkpt><trkpt lat="45.784515" lon="11.53989"><ele>714.0</ele><time>2026-03-28T14:30:52.143Z</time></trkpt><trkpt lat="45.7845017" lon="11.5397467"><ele>714.0</ele><time>2026-03-28T14:30:53.142Z</time></trkpt><trkpt lat="45.7844917" lon="11.5396"><ele>714.0</ele><time>2026-03-28T14:30:54.143Z</time></trkpt><trkpt lat="45.7844933" lon="11.5394483"><ele>714.0</ele><time>2026-03-28T14:30:55.143Z</time></trkpt><trkpt lat="45.784515" lon="11.5393133"><ele>714.0</ele><time>2026-03-28T14:30:56.143Z</time></trkpt><trkpt lat="45.7845367" lon="11.5391933"><ele>711.3333333333334</ele><time>2026-03-28T14:30:57.143Z</time></trkpt><trkpt lat="45.78456" lon="11.5390867"><ele>708.6666666666666</ele><time>2026-03-28T14:30:58.143Z</time></trkpt><trkpt lat="45.7845883" lon="11.538995"><ele>706.0</ele><time>2026-03-28T14:30:59.143Z</time></trkpt><trkpt lat="45.78463" lon="11.5389133"><ele>703.3333333333333</ele><time>2026-03-28T14:31:00.143Z</time></trkpt><trkpt lat="45.7847083" lon="11.5387917"><ele>700.6666666666666</ele><time>2026-03-28T14:31:02.143Z</time></trkpt><trkpt lat="45.78477" lon="11.5387183"><ele>698.0</ele><time>2026-03-28T14:31:05.143Z</time></trkpt><trkpt lat="45.7847133" lon="11.5386333"><ele>698.0</ele><time>2026-03-28T14:31:10.143Z</time></trkpt><trkpt lat="45.78458" lon="11.5386567"><ele>698.0</ele><time>2026-03-28T14:31:12.143Z</time></trkpt><trkpt lat="45.7845" lon="11.538695"><ele>698.0</ele><time>2026-03-28T14:31:13.143Z</time></trkpt><trkpt lat="45.784415" lon="11.5387467"><ele>698.0</ele><time>2026-03-28T14:31:14.143Z</time></trkpt><trkpt lat="45.78434" lon="11.5388167"><ele>698.0</ele><time>2026-03-28T14:31:15.143Z</time></trkpt><trkpt lat="45.7842783" lon="11.53889"><ele>695.0</ele><time>2026-03-28T14:31:16.143Z</time></trkpt><trkpt lat="45.78422" lon="11.5389583"><ele>692.0</ele><time>2026-03-28T14:31:17.143Z</time></trkpt><trkpt lat="45.7841583" lon="11.5390217"><ele>689.0</ele><time>2026-03-28T14:31:18.143Z</time></trkpt><trkpt lat="45.7841" lon="11.5390833"><ele>686.0</ele><time>2026-03-28T14:31:19.143Z</time></trkpt><trkpt lat="45.7840133" lon="11.539185"><ele>683.0</ele><time>2026-03-28T14:31:21.143Z</time></trkpt><trkpt lat="45.7839367" lon="11.5393117"><ele>683.0</ele><time>2026-03-28T14:31:23.143Z</time></trkpt><trkpt lat="45.7838967" lon="11.5393833"><ele>683.0</ele><time>2026-03-28T14:31:24.143Z</time></trkpt><trkpt lat="45.7838483" lon="11.5394433"><ele>683.0</ele><time>2026-03-28T14:31:25.143Z</time></trkpt><trkpt lat="45.7837933" lon="11.5395033"><ele>683.0</ele><time>2026-03-28T14:31:26.143Z</time></trkpt><trkpt lat="45.7837333" lon="11.5395517"><ele>683.0</ele><time>2026-03-28T14:31:27.143Z</time></trkpt><trkpt lat="45.78367" lon="11.5396017"><ele>683.0</ele><time>2026-03-28T14:31:28.143Z</time></trkpt><trkpt lat="45.783585" lon="11.539655"><ele>683.0</ele><time>2026-03-28T14:31:29.143Z</time></trkpt><trkpt lat="45.7835083" lon="11.5397033"><ele>679.4</ele><time>2026-03-28T14:31:30.143Z</time></trkpt><trkpt lat="45.7834367" lon="11.5397517"><ele>675.8</ele><time>2026-03-28T14:31:31.143Z</time></trkpt><trkpt lat="45.78338" lon="11.5398033"><ele>672.2</ele><time>2026-03-28T14:31:32.142Z</time></trkpt><trkpt lat="45.783285" lon="11.5399033"><ele>668.6</ele><time>2026-03-28T14:31:34.143Z</time></trkpt><trkpt lat="45.7832083" lon="11.5399733"><ele>665.0</ele><time>2026-03-28T14:31:36.143Z</time></trkpt><trkpt lat="45.7831417" lon="11.54008"><ele>665.0</ele><time>2026-03-28T14:31:38.143Z</time></trkpt><trkpt lat="45.783075" lon="11.5401633"><ele>665.0</ele><time>2026-03-28T14:31:40.143Z</time></trkpt><trkpt lat="45.7830167" lon="11.54021"><ele>665.0</ele><time>2026-03-28T14:31:43.142Z</time></trkpt><trkpt lat="45.782985" lon="11.5400817"><ele>665.0</ele><time>2026-03-28T14:31:54.143Z</time></trkpt><trkpt lat="45.7829633" lon="11.5399767"><ele>665.0</ele><time>2026-03-28T14:31:55.143Z</time></trkpt><trkpt lat="45.7829533" lon="11.539855"><ele>665.0</ele><time>2026-03-28T14:31:56.143Z</time></trkpt><trkpt lat="45.7829583" lon="11.5397367"><ele>665.0</ele><time>2026-03-28T14:31:57.143Z</time></trkpt><trkpt lat="45.7829817" lon="11.5396167"><ele>665.0</ele><time>2026-03-28T14:31:58.142Z</time></trkpt><trkpt lat="45.7830017" lon="11.5395017"><ele>665.0</ele><time>2026-03-28T14:31:59.143Z</time></trkpt><trkpt lat="45.7830317" lon="11.539405"><ele>665.0</ele><time>2026-03-28T14:32:00.143Z</time></trkpt><trkpt lat="45.78304" lon="11.5393083"><ele>665.0</ele><time>2026-03-28T14:32:01.143Z</time></trkpt><trkpt lat="45.7830433" lon="11.5392017"><ele>665.0</ele><time>2026-03-28T14:32:02.143Z</time></trkpt><trkpt lat="45.7830417" lon="11.5390883"><ele>662.6666666666666</ele><time>2026-03-28T14:32:03.143Z</time></trkpt><trkpt lat="45.7830483" lon="11.5389733"><ele>660.3333333333333</ele><time>2026-03-28T14:32:04.142Z</time></trkpt><trkpt lat="45.7830433" lon="11.5388583"><ele>658.0</ele><time>2026-03-28T14:32:05.142Z</time></trkpt><trkpt lat="45.783035" lon="11.538745"><ele>655.6666666666666</ele><time>2026-03-28T14:32:06.143Z</time></trkpt><trkpt lat="45.7830383" lon="11.5386467"><ele>653.3333333333334</ele><time>2026-03-28T14:32:07.143Z</time></trkpt><trkpt lat="45.783045" lon="11.5385333"><ele>651.0</ele><time>2026-03-28T14:32:08.142Z</time></trkpt><trkpt lat="45.78306" lon="11.53842"><ele>648.3333333333334</ele><time>2026-03-28T14:32:09.143Z</time></trkpt><trkpt lat="45.783075" lon="11.53829"><ele>645.6666666666666</ele><time>2026-03-28T14:32:10.143Z</time></trkpt><trkpt lat="45.7830983" lon="11.5381733"><ele>643.0</ele><time>2026-03-28T14:32:11.143Z</time></trkpt><trkpt lat="45.783125" lon="11.538045"><ele>640.3333333333333</ele><time>2026-03-28T14:32:12.143Z</time></trkpt><trkpt lat="45.7831517" lon="11.53793"><ele>637.6666666666666</ele><time>2026-03-28T14:32:13.143Z</time></trkpt><trkpt lat="45.7831883" lon="11.5378217"><ele>635.0</ele><time>2026-03-28T14:32:14.142Z</time></trkpt><trkpt lat="45.7832317" lon="11.5377067"><ele>634.6666666666666</ele><time>2026-03-28T14:32:15.142Z</time></trkpt><trkpt lat="45.7832767" lon="11.5376083"><ele>634.3333333333333</ele><time>2026-03-28T14:32:16.142Z</time></trkpt><trkpt lat="45.7833317" lon="11.5375217"><ele>634.0</ele><time>2026-03-28T14:32:17.142Z</time></trkpt><trkpt lat="45.7833967" lon="11.5374333"><ele>633.6666666666666</ele><time>2026-03-28T14:32:18.142Z</time></trkpt><trkpt lat="45.783465" lon="11.5373533"><ele>633.3333333333334</ele><time>2026-03-28T14:32:19.142Z</time></trkpt><trkpt lat="45.7835283" lon="11.537275"><ele>633.0</ele><time>2026-03-28T14:32:20.143Z</time></trkpt><trkpt lat="45.7835933" lon="11.5372"><ele>633.0</ele><time>2026-03-28T14:32:21.143Z</time></trkpt><trkpt lat="45.7836533" lon="11.53712"><ele>633.0</ele><time>2026-03-28T14:32:22.143Z</time></trkpt><trkpt lat="45.783715" lon="11.5370333"><ele>633.0</ele><time>2026-03-28T14:32:23.143Z</time></trkpt><trkpt lat="45.7837783" lon="11.5369433"><ele>633.0</ele><time>2026-03-28T14:32:24.142Z</time></trkpt><trkpt lat="45.7838417" lon="11.5368583"><ele>633.0</ele><time>2026-03-28T14:32:25.143Z</time></trkpt><trkpt lat="45.7839083" lon="11.53677"><ele>633.0</ele><time>2026-03-28T14:32:26.143Z</time></trkpt><trkpt lat="45.7839783" lon="11.5367017"><ele>628.0</ele><time>2026-03-28T14:32:27.143Z</time></trkpt><trkpt lat="45.784045" lon="11.5366317"><ele>623.0</ele><time>2026-03-28T14:32:28.143Z</time></trkpt><trkpt lat="45.7841117" lon="11.5365617"><ele>618.0</ele><time>2026-03-28T14:32:29.143Z</time></trkpt><trkpt lat="45.7841717" lon="11.5364933"><ele>613.0</ele><time>2026-03-28T14:32:30.142Z</time></trkpt><trkpt lat="45.784225" lon="11.5364367"><ele>608.0</ele><time>2026-03-28T14:32:31.142Z</time></trkpt><trkpt lat="45.7843" lon="11.5363483"><ele>603.0</ele><time>2026-03-28T14:32:33.143Z</time></trkpt><trkpt lat="45.78422" lon="11.5362933"><ele>603.0</ele><time>2026-03-28T14:32:38.142Z</time></trkpt><trkpt lat="45.7841467" lon="11.536295"><ele>603.0</ele><time>2026-03-28T14:32:39.143Z</time></trkpt><trkpt lat="45.784065" lon="11.5363183"><ele>603.0</ele><time>2026-03-28T14:32:40.143Z</time></trkpt><trkpt lat="45.783965" lon="11.5363433"><ele>603.0</ele><time>2026-03-28T14:32:41.143Z</time></trkpt><trkpt lat="45.7838683" lon="11.5363617"><ele>603.0</ele><time>2026-03-28T14:32:42.143Z</time></trkpt><trkpt lat="45.783775" lon="11.536385"><ele>603.0</ele><time>2026-03-28T14:32:43.143Z</time></trkpt><trkpt lat="45.7836867" lon="11.53642"><ele>603.0</ele><time>2026-03-28T14:32:44.143Z</time></trkpt><trkpt lat="45.7835983" lon="11.53645"><ele>603.0</ele><time>2026-03-28T14:32:45.142Z</time></trkpt><trkpt lat="45.7835067" lon="11.53647"><ele>603.0</ele><time>2026-03-28T14:32:46.143Z</time></trkpt><trkpt lat="45.7834133" lon="11.5364933"><ele>603.0</ele><time>2026-03-28T14:32:47.143Z</time></trkpt><trkpt lat="45.7833183" lon="11.5365067"><ele>601.1999999999999</ele><time>2026-03-28T14:32:48.143Z</time></trkpt><trkpt lat="45.7832133" lon="11.53651"><ele>599.4</ele><time>2026-03-28T14:32:49.143Z</time></trkpt><trkpt lat="45.7831083" lon="11.53652"><ele>597.5999999999999</ele><time>2026-03-28T14:32:50.143Z</time></trkpt><trkpt lat="45.7830033" lon="11.5365333"><ele>595.8</ele><time>2026-03-28T14:32:51.143Z</time></trkpt><trkpt lat="45.7829167" lon="11.5365467"><ele>594.0</ele><time>2026-03-28T14:32:52.143Z</time></trkpt><trkpt lat="45.78283" lon="11.536565"><ele>594.0</ele><time>2026-03-28T14:32:53.142Z</time></trkpt><trkpt lat="45.78274" lon="11.53658"><ele>594.0</ele><time>2026-03-28T14:32:54.142Z</time></trkpt><trkpt lat="45.7826617" lon="11.5365967"><ele>594.0</ele><time>2026-03-28T14:32:55.143Z</time></trkpt><trkpt lat="45.7825833" lon="11.5366"><ele>594.0</ele><time>2026-03-28T14:32:56.143Z</time></trkpt><trkpt lat="45.7825117" lon="11.536615"><ele>594.0</ele><time>2026-03-28T14:32:57.143Z</time></trkpt><trkpt lat="45.78244" lon="11.5366433"><ele>594.0</ele><time>2026-03-28T14:32:58.142Z</time></trkpt><trkpt lat="45.78237" lon="11.5367033"><ele>592.8</ele><time>2026-03-28T14:32:59.143Z</time></trkpt><trkpt lat="45.78231" lon="11.5367817"><ele>591.5999999999999</ele><time>2026-03-28T14:33:00.143Z</time></trkpt><trkpt lat="45.78225" lon="11.53688"><ele>590.4</ele><time>2026-03-28T14:33:01.142Z</time></trkpt><trkpt lat="45.7821883" lon="11.5369933"><ele>589.1999999999999</ele><time>2026-03-28T14:33:02.143Z</time></trkpt><trkpt lat="45.7821267" lon="11.5371033"><ele>588.0</ele><time>2026-03-28T14:33:03.142Z</time></trkpt><trkpt lat="45.7820683" lon="11.5372067"><ele>588.0</ele><time>2026-03-28T14:33:04.143Z</time></trkpt><trkpt lat="45.7820367" lon="11.5373"><ele>588.0</ele><time>2026-03-28T14:33:05.143Z</time></trkpt><trkpt lat="45.7820033" lon="11.5373983"><ele>588.0</ele><time>2026-03-28T14:33:06.143Z</time></trkpt><trkpt lat="45.7819783" lon="11.5375"><ele>588.0</ele><time>2026-03-28T14:33:07.143Z</time></trkpt><trkpt lat="45.78198" lon="11.5376433"><ele>588.0</ele><time>2026-03-28T14:33:08.143Z</time></trkpt><trkpt lat="45.781965" lon="11.537755"><ele>588.0</ele><time>2026-03-28T14:33:09.143Z</time></trkpt><trkpt lat="45.781955" lon="11.537845"><ele>579.5</ele><time>2026-03-28T14:33:10.143Z</time></trkpt><trkpt lat="45.7818317" lon="11.5378517"><ele>571.0</ele><time>2026-03-28T14:33:22.143Z</time></trkpt><trkpt lat="45.7817767" lon="11.5377617"><ele>562.5</ele><time>2026-03-28T14:33:25.142Z</time></trkpt><trkpt lat="45.7817367" lon="11.5376267"><ele>554.0</ele><time>2026-03-28T14:33:28.143Z</time></trkpt><trkpt lat="45.7817283" lon="11.5374217"><ele>554.0</ele><time>2026-03-28T14:33:43.143Z</time></trkpt><trkpt lat="45.7817233" lon="11.5372767"><ele>554.0</ele><time>2026-03-28T14:34:03.143Z</time></trkpt><trkpt lat="45.7816983" lon="11.537185"><ele>554.0</ele><time>2026-03-28T14:34:06.143Z</time></trkpt><trkpt lat="45.7816717" lon="11.537095"><ele>554.0</ele><time>2026-03-28T14:34:09.143Z</time></trkpt><trkpt lat="45.7816467" lon="11.537005"><ele>554.0</ele><time>2026-03-28T14:34:12.142Z</time></trkpt><trkpt lat="45.78164" lon="11.5368117"><ele>554.0</ele><time>2026-03-28T14:34:13.142Z</time></trkpt><trkpt lat="45.781695" lon="11.5366983"><ele>552.75</ele><time>2026-03-28T14:34:15.143Z</time></trkpt><trkpt lat="45.7817483" lon="11.5366117"><ele>551.5</ele><time>2026-03-28T14:34:17.143Z</time></trkpt><trkpt lat="45.781845" lon="11.5365083"><ele>550.25</ele><time>2026-03-28T14:34:19.143Z</time></trkpt><trkpt lat="45.78196" lon="11.5362667"><ele>549.0</ele><time>2026-03-28T14:34:20.143Z</time></trkpt><trkpt lat="45.7820317" lon="11.5361833"><ele>548.8</ele><time>2026-03-28T14:34:21.142Z</time></trkpt><trkpt lat="45.782095" lon="11.5361117"><ele>548.5999999999999</ele><time>2026-03-28T14:34:22.143Z</time></trkpt><trkpt lat="45.782165" lon="11.5360383"><ele>548.4</ele><time>2026-03-28T14:34:23.143Z</time></trkpt><trkpt lat="45.7822367" lon="11.53597"><ele>548.1999999999999</ele><time>2026-03-28T14:34:24.143Z</time></trkpt><trkpt lat="45.7823283" lon="11.5358883"><ele>548.0</ele><time>2026-03-28T14:34:25.143Z</time></trkpt><trkpt lat="45.782425" lon="11.5358033"><ele>548.0</ele><time>2026-03-28T14:34:26.143Z</time></trkpt><trkpt lat="45.7825133" lon="11.5357183"><ele>548.0</ele><time>2026-03-28T14:34:27.143Z</time></trkpt><trkpt lat="45.7826017" lon="11.535645"><ele>548.0</ele><time>2026-03-28T14:34:28.143Z</time></trkpt><trkpt lat="45.7826883" lon="11.5355617"><ele>548.0</ele><time>2026-03-28T14:34:29.142Z</time></trkpt><trkpt lat="45.782775" lon="11.53548"><ele>548.0</ele><time>2026-03-28T14:34:30.142Z</time></trkpt><trkpt lat="45.78287" lon="11.5353983"><ele>544.8</ele><time>2026-03-28T14:34:31.143Z</time></trkpt><trkpt lat="45.7829617" lon="11.53532"><ele>541.5999999999999</ele><time>2026-03-28T14:34:32.143Z</time></trkpt><trkpt lat="45.7830417" lon="11.53524"><ele>538.4000000000001</ele><time>2026-03-28T14:34:33.142Z</time></trkpt><trkpt lat="45.7831183" lon="11.5351717"><ele>535.2</ele><time>2026-03-28T14:34:34.143Z</time></trkpt><trkpt lat="45.7831833" lon="11.5351067"><ele>532.0</ele><time>2026-03-28T14:34:35.143Z</time></trkpt><trkpt lat="45.783245" lon="11.5350417"><ele>532.0</ele><time>2026-03-28T14:34:36.143Z</time></trkpt><trkpt lat="45.7833033" lon="11.5349817"><ele>532.0</ele><time>2026-03-28T14:34:37.143Z</time></trkpt><trkpt lat="45.78336" lon="11.5349333"><ele>532.0</ele><time>2026-03-28T14:34:38.143Z</time></trkpt><trkpt lat="45.7834567" lon="11.5348567"><ele>532.0</ele><time>2026-03-28T14:34:40.143Z</time></trkpt><trkpt lat="45.78352" lon="11.5348067"><ele>532.0</ele><time>2026-03-28T14:34:42.143Z</time></trkpt><trkpt lat="45.7835833" lon="11.534775"><ele>532.0</ele><time>2026-03-28T14:34:44.143Z</time></trkpt><trkpt lat="45.783495" lon="11.53484"><ele>532.0</ele><time>2026-03-28T14:34:50.142Z</time></trkpt><trkpt lat="45.7834217" lon="11.5348633"><ele>532.0</ele><time>2026-03-28T14:34:51.143Z</time></trkpt><trkpt lat="45.7833283" lon="11.534875"><ele>532.0</ele><time>2026-03-28T14:34:52.142Z</time></trkpt><trkpt lat="45.7832417" lon="11.53489"><ele>532.0</ele><time>2026-03-28T14:34:53.143Z</time></trkpt><trkpt lat="45.7828667" lon="11.534885"><ele>532.0</ele><time>2026-03-28T14:34:54.143Z</time></trkpt><trkpt lat="45.78273" lon="11.5349033"><ele>532.0</ele><time>2026-03-28T14:34:55.143Z</time></trkpt><trkpt lat="45.7826017" lon="11.5349133"><ele>532.0</ele><time>2026-03-28T14:34:56.143Z</time></trkpt><trkpt lat="45.7824717" lon="11.5349217"><ele>532.0</ele><time>2026-03-28T14:34:57.143Z</time></trkpt><trkpt lat="45.7823417" lon="11.534925"><ele>527.0</ele><time>2026-03-28T14:34:58.142Z</time></trkpt><trkpt lat="45.782175" lon="11.5349283"><ele>522.0</ele><time>2026-03-28T14:34:59.143Z</time></trkpt><trkpt lat="45.7820283" lon="11.5349183"><ele>517.0</ele><time>2026-03-28T14:35:00.143Z</time></trkpt><trkpt lat="45.7818933" lon="11.5349267"><ele>512.0</ele><time>2026-03-28T14:35:01.143Z</time></trkpt><trkpt lat="45.7817617" lon="11.5349483"><ele>509.99999999999994</ele><time>2026-03-28T14:35:02.143Z</time></trkpt><trkpt lat="45.78167" lon="11.5349433"><ele>508.0</ele><time>2026-03-28T14:35:03.142Z</time></trkpt><trkpt lat="45.781585" lon="11.5349417"><ele>506.0</ele><time>2026-03-28T14:35:04.143Z</time></trkpt><trkpt lat="45.78152" lon="11.534935"><ele>504.0</ele><time>2026-03-28T14:35:05.143Z</time></trkpt><trkpt lat="45.78145" lon="11.5349183"><ele>501.99999999999994</ele><time>2026-03-28T14:35:08.142Z</time></trkpt><trkpt lat="45.7813867" lon="11.5348617"><ele>500.0</ele><time>2026-03-28T14:35:14.143Z</time></trkpt><trkpt lat="45.7812967" lon="11.53485"><ele>500.0</ele><time>2026-03-28T14:35:18.143Z</time></trkpt><trkpt lat="45.7811817" lon="11.5348217"><ele>500.0</ele><time>2026-03-28T14:35:20.142Z</time></trkpt><trkpt lat="45.78109" lon="11.534765"><ele>500.0</ele><time>2026-03-28T14:35:22.142Z</time></trkpt><trkpt lat="45.7810317" lon="11.5347233"><ele>500.0</ele><time>2026-03-28T14:35:23.143Z</time></trkpt><trkpt lat="45.7807083" lon="11.5346417"><ele>497.5</ele><time>2026-03-28T14:35:25.143Z</time></trkpt><trkpt lat="45.7806033" lon="11.534585"><ele>495.0</ele><time>2026-03-28T14:35:26.142Z</time></trkpt><trkpt lat="45.78052" lon="11.5345333"><ele>492.5</ele><time>2026-03-28T14:35:27.143Z</time></trkpt><trkpt lat="45.78031" lon="11.5344567"><ele>490.0</ele><time>2026-03-28T14:35:28.143Z</time></trkpt><trkpt lat="45.78019" lon="11.5343917"><ele>480.0</ele><time>2026-03-28T14:35:29.143Z</time></trkpt><trkpt lat="45.7800033" lon="11.5343317"><ele>470.0</ele><time>2026-03-28T14:35:30.142Z</time></trkpt><trkpt lat="45.7798717" lon="11.5342783"><ele>460.0</ele><time>2026-03-28T14:35:31.143Z</time></trkpt><trkpt lat="45.7797317" lon="11.5342467"><ele>460.0</ele><time>2026-03-28T14:35:32.143Z</time></trkpt><trkpt lat="45.77962" lon="11.5342333"><ele>460.0</ele><time>2026-03-28T14:35:33.143Z</time></trkpt><trkpt lat="45.7794567" lon="11.534205"><ele>460.0</ele><time>2026-03-28T14:35:34.143Z</time></trkpt><trkpt lat="45.779335" lon="11.5341867"><ele>460.0</ele><time>2026-03-28T14:35:35.143Z</time></trkpt><trkpt lat="45.779205" lon="11.5341817"><ele>456.25</ele><time>2026-03-28T14:35:36.143Z</time></trkpt><trkpt lat="45.77909" lon="11.534205"><ele>452.5</ele><time>2026-03-28T14:35:37.143Z</time></trkpt><trkpt lat="45.7789367" lon="11.5342517"><ele>448.75</ele><time>2026-03-28T14:35:38.142Z</time></trkpt><trkpt lat="45.7788" lon="11.5342783"><ele>445.0</ele><time>2026-03-28T14:35:39.142Z</time></trkpt><trkpt lat="45.7786767" lon="11.5343267"><ele>445.0</ele><time>2026-03-28T14:35:40.143Z</time></trkpt><trkpt lat="45.7785633" lon="11.5343683"><ele>445.0</ele><time>2026-03-28T14:35:41.143Z</time></trkpt><trkpt lat="45.7784883" lon="11.5344083"><ele>445.0</ele><time>2026-03-28T14:35:42.142Z</time></trkpt><trkpt lat="45.77837" lon="11.5344417"><ele>445.0</ele><time>2026-03-28T14:35:44.143Z</time></trkpt><trkpt lat="45.7782717" lon="11.5344117"><ele>445.0</ele><time>2026-03-28T14:35:51.143Z</time></trkpt><trkpt lat="45.7782" lon="11.534385"><ele>441.6</ele><time>2026-03-28T14:35:52.142Z</time></trkpt><trkpt lat="45.77811" lon="11.534365"><ele>438.2</ele><time>2026-03-28T14:35:53.143Z</time></trkpt><trkpt lat="45.7780117" lon="11.5343533"><ele>434.79999999999995</ele><time>2026-03-28T14:35:54.142Z</time></trkpt><trkpt lat="45.7779083" lon="11.5343717"><ele>431.4</ele><time>2026-03-28T14:35:55.143Z</time></trkpt><trkpt lat="45.7778183" lon="11.534435"><ele>428.0</ele><time>2026-03-28T14:35:56.142Z</time></trkpt><trkpt lat="45.7777367" lon="11.5345383"><ele>424.5</ele><time>2026-03-28T14:35:57.143Z</time></trkpt><trkpt lat="45.77766" lon="11.5346783"><ele>421.0</ele><time>2026-03-28T14:35:58.143Z</time></trkpt><trkpt lat="45.7775867" lon="11.5348117"><ele>417.5</ele><time>2026-03-28T14:35:59.142Z</time></trkpt><trkpt lat="45.77751" lon="11.5349367"><ele>414.0</ele><time>2026-03-28T14:36:00.143Z</time></trkpt><trkpt lat="45.7774333" lon="11.5350283"><ele>414.0</ele><time>2026-03-28T14:36:01.143Z</time></trkpt><trkpt lat="45.7773467" lon="11.535095"><ele>414.0</ele><time>2026-03-28T14:36:02.143Z</time></trkpt><trkpt lat="45.7772683" lon="11.5351233"><ele>414.0</ele><time>2026-03-28T14:36:03.143Z</time></trkpt><trkpt lat="45.7771817" lon="11.535135"><ele>414.0</ele><time>2026-03-28T14:36:04.143Z</time></trkpt><trkpt lat="45.777075" lon="11.5351433"><ele>414.0</ele><time>2026-03-28T14:36:05.142Z</time></trkpt><trkpt lat="45.7769667" lon="11.53516"><ele>414.0</ele><time>2026-03-28T14:36:06.143Z</time></trkpt><trkpt lat="45.7768617" lon="11.5351883"><ele>414.0</ele><time>2026-03-28T14:36:07.143Z</time></trkpt><trkpt lat="45.7767483" lon="11.5352017"><ele>414.0</ele><time>2026-03-28T14:36:08.143Z</time></trkpt><trkpt lat="45.776625" lon="11.5352133"><ele>414.0</ele><time>2026-03-28T14:36:09.142Z</time></trkpt><trkpt lat="45.7765017" lon="11.5352183"><ele>411.5</ele><time>2026-03-28T14:36:10.143Z</time></trkpt><trkpt lat="45.7763817" lon="11.5352217"><ele>409.0</ele><time>2026-03-28T14:36:11.143Z</time></trkpt><trkpt lat="45.776265" lon="11.5352033"><ele>406.5</ele><time>2026-03-28T14:36:12.143Z</time></trkpt><trkpt lat="45.7761617" lon="11.5351617"><ele>404.0</ele><time>2026-03-28T14:36:13.143Z</time></trkpt><trkpt lat="45.776045" lon="11.5351133"><ele>403.5</ele><time>2026-03-28T14:36:14.142Z</time></trkpt><trkpt lat="45.7759433" lon="11.5350783"><ele>403.0</ele><time>2026-03-28T14:36:15.143Z</time></trkpt><trkpt lat="45.7758333" lon="11.5350717"><ele>402.5</ele><time>2026-03-28T14:36:16.143Z</time></trkpt><trkpt lat="45.7757117" lon="11.5350933"><ele>402.0</ele><time>2026-03-28T14:36:17.142Z</time></trkpt><trkpt lat="45.775615" lon="11.5351933"><ele>402.0</ele><time>2026-03-28T14:36:18.143Z</time></trkpt><trkpt lat="45.7755483" lon="11.5353283"><ele>402.0</ele><time>2026-03-28T14:36:19.142Z</time></trkpt><trkpt lat="45.775475" lon="11.5354883"><ele>402.0</ele><time>2026-03-28T14:36:20.143Z</time></trkpt><trkpt lat="45.7753733" lon="11.53565"><ele>402.0</ele><time>2026-03-28T14:36:21.142Z</time></trkpt><trkpt lat="45.77527" lon="11.5358017"><ele>402.0</ele><time>2026-03-28T14:36:22.143Z</time></trkpt><trkpt lat="45.77516" lon="11.5359367"><ele>402.0</ele><time>2026-03-28T14:36:23.142Z</time></trkpt><trkpt lat="45.775055" lon="11.5360767"><ele>402.0</ele><time>2026-03-28T14:36:24.143Z</time></trkpt><trkpt lat="45.77495" lon="11.5362133"><ele>402.0</ele><time>2026-03-28T14:36:25.143Z</time></trkpt><trkpt lat="45.774845" lon="11.536345"><ele>405.75</ele><time>2026-03-28T14:36:26.143Z</time></trkpt><trkpt lat="45.7747383" lon="11.5364683"><ele>409.5</ele><time>2026-03-28T14:36:27.143Z</time></trkpt><trkpt lat="45.774635" lon="11.53658"><ele>413.25</ele><time>2026-03-28T14:36:28.143Z</time></trkpt><trkpt lat="45.7745333" lon="11.53668"><ele>417.0</ele><time>2026-03-28T14:36:29.143Z</time></trkpt><trkpt lat="45.7744317" lon="11.5367833"><ele>415.0</ele><time>2026-03-28T14:36:30.142Z</time></trkpt><trkpt lat="45.774335" lon="11.5368883"><ele>413.0</ele><time>2026-03-28T14:36:31.142Z</time></trkpt><trkpt lat="45.7742417" lon="11.5369967"><ele>411.0</ele><time>2026-03-28T14:36:32.143Z</time></trkpt><trkpt lat="45.7741567" lon="11.5371033"><ele>409.0</ele><time>2026-03-28T14:36:33.142Z</time></trkpt><trkpt lat="45.774085" lon="11.53721"><ele>409.0</ele><time>2026-03-28T14:36:34.143Z</time></trkpt><trkpt lat="45.7740167" lon="11.53733"><ele>409.0</ele><time>2026-03-28T14:36:35.142Z</time></trkpt><trkpt lat="45.77396" lon="11.5374683"><ele>409.0</ele><time>2026-03-28T14:36:36.143Z</time></trkpt><trkpt lat="45.7739183" lon="11.53763"><ele>409.0</ele><time>2026-03-28T14:36:37.142Z</time></trkpt><trkpt lat="45.7738833" lon="11.5377933"><ele>412.5</ele><time>2026-03-28T14:36:38.142Z</time></trkpt><trkpt lat="45.773845" lon="11.53796"><ele>416.0</ele><time>2026-03-28T14:36:39.143Z</time></trkpt><trkpt lat="45.7738033" lon="11.53813"><ele>419.5</ele><time>2026-03-28T14:36:40.143Z</time></trkpt><trkpt lat="45.7737683" lon="11.5382933"><ele>423.0</ele><time>2026-03-28T14:36:41.143Z</time></trkpt><trkpt lat="45.7737483" lon="11.5384533"><ele>423.0</ele><time>2026-03-28T14:36:42.142Z</time></trkpt><trkpt lat="45.7737133" lon="11.5386083"><ele>423.0</ele><time>2026-03-28T14:36:43.143Z</time></trkpt><trkpt lat="45.7736783" lon="11.5387733"><ele>423.0</ele><time>2026-03-28T14:36:44.143Z</time></trkpt><trkpt lat="45.7736383" lon="11.5389533"><ele>423.0</ele><time>2026-03-28T14:36:45.143Z</time></trkpt><trkpt lat="45.7735933" lon="11.5391383"><ele>422.25</ele><time>2026-03-28T14:36:46.143Z</time></trkpt><trkpt lat="45.7735433" lon="11.5393167"><ele>421.5</ele><time>2026-03-28T14:36:47.143Z</time></trkpt><trkpt lat="45.7734967" lon="11.5394933"><ele>420.75</ele><time>2026-03-28T14:36:48.143Z</time></trkpt><trkpt lat="45.7734517" lon="11.5396667"><ele>420.0</ele><time>2026-03-28T14:36:49.143Z</time></trkpt><trkpt lat="45.7734117" lon="11.53983"><ele>420.0</ele><time>2026-03-28T14:36:50.143Z</time></trkpt><trkpt lat="45.7733767" lon="11.5399833"><ele>420.0</ele><time>2026-03-28T14:36:51.143Z</time></trkpt><trkpt lat="45.7733433" lon="11.5401117"><ele>420.0</ele><time>2026-03-28T14:36:52.143Z</time></trkpt><trkpt lat="45.7733033" lon="11.540215"><ele>420.0</ele><time>2026-03-28T14:36:53.142Z</time></trkpt><trkpt lat="45.7732733" lon="11.540295"><ele>420.0</ele><time>2026-03-28T14:36:54.143Z</time></trkpt><trkpt lat="45.7732" lon="11.5403467"><ele>420.0</ele><time>2026-03-28T14:36:56.142Z</time></trkpt><trkpt lat="45.7731367" lon="11.540305"><ele>420.0</ele><time>2026-03-28T14:36:58.143Z</time></trkpt><trkpt lat="45.7730817" lon="11.5402533"><ele>420.0</ele><time>2026-03-28T14:36:59.143Z</time></trkpt><trkpt lat="45.77299" lon="11.540135"><ele>420.0</ele><time>2026-03-28T14:37:00.143Z</time></trkpt><trkpt lat="45.7728933" lon="11.5399733"><ele>420.0</ele><time>2026-03-28T14:37:01.143Z</time></trkpt><trkpt lat="45.77282" lon="11.5396717"><ele>414.0</ele><time>2026-03-28T14:37:02.143Z</time></trkpt><trkpt lat="45.7728033" lon="11.539365"><ele>408.0</ele><time>2026-03-28T14:37:03.143Z</time></trkpt><trkpt lat="45.7727783" lon="11.5390883"><ele>402.0</ele><time>2026-03-28T14:37:04.143Z</time></trkpt><trkpt lat="45.7727583" lon="11.53883"><ele>398.0</ele><time>2026-03-28T14:37:05.142Z</time></trkpt><trkpt lat="45.77273" lon="11.5385833"><ele>394.0</ele><time>2026-03-28T14:37:06.142Z</time></trkpt><trkpt lat="45.7726833" lon="11.5383533"><ele>390.0</ele><time>2026-03-28T14:37:07.143Z</time></trkpt><trkpt lat="45.7726233" lon="11.5381333"><ele>393.33333333333337</ele><time>2026-03-28T14:37:08.142Z</time></trkpt><trkpt lat="45.7725583" lon="11.5379033"><ele>396.6666666666667</ele><time>2026-03-28T14:37:09.143Z</time></trkpt><trkpt lat="45.77249" lon="11.5376733"><ele>400.0</ele><time>2026-03-28T14:37:10.143Z</time></trkpt><trkpt lat="45.7724217" lon="11.5374467"><ele>400.0</ele><time>2026-03-28T14:37:11.143Z</time></trkpt><trkpt lat="45.77236" lon="11.5372383"><ele>400.0</ele><time>2026-03-28T14:37:12.142Z</time></trkpt><trkpt lat="45.7723" lon="11.5370333"><ele>400.0</ele><time>2026-03-28T14:37:13.143Z</time></trkpt><trkpt lat="45.7722367" lon="11.53684"><ele>396.75</ele><time>2026-03-28T14:37:14.143Z</time></trkpt><trkpt lat="45.772175" lon="11.5366467"><ele>393.5</ele><time>2026-03-28T14:37:15.143Z</time></trkpt><trkpt lat="45.7721283" lon="11.5364633"><ele>390.25</ele><time>2026-03-28T14:37:16.143Z</time></trkpt><trkpt lat="45.77208" lon="11.53629"><ele>387.0</ele><time>2026-03-28T14:37:17.143Z</time></trkpt><trkpt lat="45.77202" lon="11.536155"><ele>383.6</ele><time>2026-03-28T14:37:18.143Z</time></trkpt><trkpt lat="45.77195" lon="11.5360467"><ele>380.20000000000005</ele><time>2026-03-28T14:37:19.142Z</time></trkpt><trkpt lat="45.7718633" lon="11.5359467"><ele>376.8</ele><time>2026-03-28T14:37:20.143Z</time></trkpt><trkpt lat="45.7717733" lon="11.535855"><ele>373.4</ele><time>2026-03-28T14:37:21.142Z</time></trkpt><trkpt lat="45.7716683" lon="11.535805"><ele>370.0</ele><time>2026-03-28T14:37:22.143Z</time></trkpt><trkpt lat="45.7715533" lon="11.5357567"><ele>374.25</ele><time>2026-03-28T14:37:23.142Z</time></trkpt><trkpt lat="45.7714417" lon="11.535675"><ele>378.5</ele><time>2026-03-28T14:37:24.143Z</time></trkpt><trkpt lat="45.77133" lon="11.5355467"><ele>382.75</ele><time>2026-03-28T14:37:25.142Z</time></trkpt><trkpt lat="45.7712317" lon="11.5354017"><ele>387.0</ele><time>2026-03-28T14:37:26.143Z</time></trkpt><trkpt lat="45.7711467" lon="11.5352533"><ele>387.0</ele><time>2026-03-28T14:37:27.143Z</time></trkpt><trkpt lat="45.7710583" lon="11.5351117"><ele>387.0</ele><time>2026-03-28T14:37:28.143Z</time></trkpt><trkpt lat="45.7709683" lon="11.534965"><ele>387.0</ele><time>2026-03-28T14:37:29.143Z</time></trkpt><trkpt lat="45.7708767" lon="11.53481"><ele>387.0</ele><time>2026-03-28T14:37:30.143Z</time></trkpt><trkpt lat="45.770785" lon="11.534655"><ele>386.0</ele><time>2026-03-28T14:37:31.142Z</time></trkpt><trkpt lat="45.7707" lon="11.5344983"><ele>385.0</ele><time>2026-03-28T14:37:32.142Z</time></trkpt><trkpt lat="45.77063" lon="11.5343517"><ele>384.0</ele><time>2026-03-28T14:37:33.143Z</time></trkpt><trkpt lat="45.7705517" lon="11.5342067"><ele>383.0</ele><time>2026-03-28T14:37:34.142Z</time></trkpt><trkpt lat="45.7704683" lon="11.5340683"><ele>383.0</ele><time>2026-03-28T14:37:35.143Z</time></trkpt><trkpt lat="45.7703783" lon="11.53393"><ele>383.0</ele><time>2026-03-28T14:37:36.143Z</time></trkpt><trkpt lat="45.7702967" lon="11.53379"><ele>383.0</ele><time>2026-03-28T14:37:37.142Z</time></trkpt><trkpt lat="45.7702033" lon="11.53367"><ele>383.0</ele><time>2026-03-28T14:37:38.142Z</time></trkpt><trkpt lat="45.7701133" lon="11.5335483"><ele>384.2</ele><time>2026-03-28T14:37:39.142Z</time></trkpt><trkpt lat="45.770035" lon="11.5334467"><ele>385.4</ele><time>2026-03-28T14:37:40.143Z</time></trkpt><trkpt lat="45.76996" lon="11.533345"><ele>386.59999999999997</ele><time>2026-03-28T14:37:41.142Z</time></trkpt><trkpt lat="45.7699017" lon="11.5332667"><ele>387.79999999999995</ele><time>2026-03-28T14:37:42.143Z</time></trkpt><trkpt lat="45.7698383" lon="11.5331883"><ele>389.0</ele><time>2026-03-28T14:37:43.143Z</time></trkpt><trkpt lat="45.7697567" lon="11.53315"><ele>389.0</ele><time>2026-03-28T14:37:44.143Z</time></trkpt><trkpt lat="45.769695" lon="11.5331733"><ele>389.0</ele><time>2026-03-28T14:37:45.143Z</time></trkpt><trkpt lat="45.76964" lon="11.533285"><ele>389.0</ele><time>2026-03-28T14:37:46.142Z</time></trkpt><trkpt lat="45.769595" lon="11.53342"><ele>389.0</ele><time>2026-03-28T14:37:47.143Z</time></trkpt><trkpt lat="45.7695583" lon="11.5335767"><ele>389.0</ele><time>2026-03-28T14:37:48.143Z</time></trkpt><trkpt lat="45.7695033" lon="11.5337333"><ele>387.5</ele><time>2026-03-28T14:37:49.143Z</time></trkpt><trkpt lat="45.7694317" lon="11.5338733"><ele>386.0</ele><time>2026-03-28T14:37:50.142Z</time></trkpt><trkpt lat="45.7693433" lon="11.534025"><ele>384.5</ele><time>2026-03-28T14:37:51.143Z</time></trkpt><trkpt lat="45.7692567" lon="11.5341717"><ele>383.0</ele><time>2026-03-28T14:37:52.143Z</time></trkpt><trkpt lat="45.7692017" lon="11.5343267"><ele>383.0</ele><time>2026-03-28T14:37:53.143Z</time></trkpt><trkpt lat="45.7691717" lon="11.5344933"><ele>383.0</ele><time>2026-03-28T14:37:54.142Z</time></trkpt><trkpt lat="45.769165" lon="11.5346667"><ele>383.0</ele><time>2026-03-28T14:37:55.143Z</time></trkpt><trkpt lat="45.7691483" lon="11.5348433"><ele>383.0</ele><time>2026-03-28T14:37:56.143Z</time></trkpt><trkpt lat="45.7691" lon="11.5350183"><ele>386.75</ele><time>2026-03-28T14:37:57.143Z</time></trkpt><trkpt lat="45.76903" lon="11.5351783"><ele>390.5</ele><time>2026-03-28T14:37:58.142Z</time></trkpt><trkpt lat="45.76894" lon="11.535315"><ele>394.25</ele><time>2026-03-28T14:37:59.143Z</time></trkpt><trkpt lat="45.7688483" lon="11.535445"><ele>398.0</ele><time>2026-03-28T14:38:00.143Z</time></trkpt><trkpt lat="45.7687517" lon="11.5355783"><ele>394.75</ele><time>2026-03-28T14:38:01.142Z</time></trkpt><trkpt lat="45.7686683" lon="11.5357317"><ele>391.5</ele><time>2026-03-28T14:38:02.143Z</time></trkpt><trkpt lat="45.7685933" lon="11.5358917"><ele>388.25</ele><time>2026-03-28T14:38:03.143Z</time></trkpt><trkpt lat="45.7685417" lon="11.536045"><ele>385.0</ele><time>2026-03-28T14:38:04.143Z</time></trkpt><trkpt lat="45.7685" lon="11.5361833"><ele>385.83333333333337</ele><time>2026-03-28T14:38:05.143Z</time></trkpt><trkpt lat="45.7684667" lon="11.5362983"><ele>386.6666666666667</ele><time>2026-03-28T14:38:06.143Z</time></trkpt><trkpt lat="45.7684617" lon="11.536395"><ele>387.5</ele><time>2026-03-28T14:38:07.143Z</time></trkpt><trkpt lat="45.7684183" lon="11.5364817"><ele>388.33333333333337</ele><time>2026-03-28T14:38:08.143Z</time></trkpt><trkpt lat="45.7683633" lon="11.5365567"><ele>389.1666666666667</ele><time>2026-03-28T14:38:09.143Z</time></trkpt><trkpt lat="45.768295" lon="11.5366083"><ele>390.0</ele><time>2026-03-28T14:38:10.143Z</time></trkpt><trkpt lat="45.768205" lon="11.5366333"><ele>390.0</ele><time>2026-03-28T14:38:11.143Z</time></trkpt><trkpt lat="45.7681133" lon="11.536635"><ele>390.0</ele><time>2026-03-28T14:38:12.142Z</time></trkpt><trkpt lat="45.7680167" lon="11.53662"><ele>390.0</ele><time>2026-03-28T14:38:13.143Z</time></trkpt><trkpt lat="45.7679167" lon="11.5365833"><ele>390.0</ele><time>2026-03-28T14:38:14.142Z</time></trkpt><trkpt lat="45.7678117" lon="11.53654"><ele>390.0</ele><time>2026-03-28T14:38:15.143Z</time></trkpt><trkpt lat="45.76771" lon="11.5364917"><ele>389.2</ele><time>2026-03-28T14:38:16.142Z</time></trkpt><trkpt lat="45.7676067" lon="11.5364367"><ele>388.4</ele><time>2026-03-28T14:38:17.143Z</time></trkpt><trkpt lat="45.7675033" lon="11.5363733"><ele>387.6</ele><time>2026-03-28T14:38:18.143Z</time></trkpt><trkpt lat="45.7674033" lon="11.5362967"><ele>386.8</ele><time>2026-03-28T14:38:19.143Z</time></trkpt><trkpt lat="45.76731" lon="11.53621"><ele>386.0</ele><time>2026-03-28T14:38:20.143Z</time></trkpt><trkpt lat="45.7672133" lon="11.5361233"><ele>386.0</ele><time>2026-03-28T14:38:21.143Z</time></trkpt><trkpt lat="45.7671183" lon="11.536055"><ele>386.0</ele><time>2026-03-28T14:38:22.143Z</time></trkpt><trkpt lat="45.7670167" lon="11.5360183"><ele>386.0</ele><time>2026-03-28T14:38:23.143Z</time></trkpt><trkpt lat="45.7669083" lon="11.53601"><ele>386.0</ele><time>2026-03-28T14:38:24.143Z</time></trkpt><trkpt lat="45.7668133" lon="11.53601"><ele>386.0</ele><time>2026-03-28T14:38:25.143Z</time></trkpt><trkpt lat="45.7667267" lon="11.5360467"><ele>388.16666666666663</ele><time>2026-03-28T14:38:26.143Z</time></trkpt><trkpt lat="45.7666617" lon="11.53609"><ele>390.3333333333333</ele><time>2026-03-28T14:38:27.143Z</time></trkpt><trkpt lat="45.7665867" lon="11.5361567"><ele>392.5</ele><time>2026-03-28T14:38:29.143Z</time></trkpt><trkpt lat="45.76656" lon="11.53625"><ele>394.66666666666663</ele><time>2026-03-28T14:38:32.143Z</time></trkpt><trkpt lat="45.7665217" lon="11.53633"><ele>396.8333333333333</ele><time>2026-03-28T14:38:36.143Z</time></trkpt><trkpt lat="45.766445" lon="11.5363333"><ele>399.0</ele><time>2026-03-28T14:38:38.143Z</time></trkpt><trkpt lat="45.7665083" lon="11.5362533"><ele>399.0</ele><time>2026-03-28T14:38:44.143Z</time></trkpt><trkpt lat="45.76659" lon="11.536185"><ele>399.0</ele><time>2026-03-28T14:38:46.143Z</time></trkpt><trkpt lat="45.7666717" lon="11.5361133"><ele>399.0</ele><time>2026-03-28T14:38:48.143Z</time></trkpt><trkpt lat="45.76673" lon="11.53606"><ele>399.0</ele><time>2026-03-28T14:38:50.143Z</time></trkpt><trkpt lat="45.76679" lon="11.5359933"><ele>399.0</ele><time>2026-03-28T14:38:53.143Z</time></trkpt><trkpt lat="45.76679" lon="11.535875"><ele>399.0</ele><time>2026-03-28T14:38:56.143Z</time></trkpt><trkpt lat="45.76676" lon="11.5357117"><ele>399.0</ele><time>2026-03-28T14:38:58.143Z</time></trkpt><trkpt lat="45.7667517" lon="11.5355617"><ele>399.0</ele><time>2026-03-28T14:39:00.143Z</time></trkpt><trkpt lat="45.7667317" lon="11.5354067"><ele>399.0</ele><time>2026-03-28T14:39:02.143Z</time></trkpt><trkpt lat="45.7666917" lon="11.5352367"><ele>399.0</ele><time>2026-03-28T14:39:04.143Z</time></trkpt><trkpt lat="45.76666" lon="11.5351417"><ele>399.0</ele><time>2026-03-28T14:39:05.142Z</time></trkpt><trkpt lat="45.7666183" lon="11.5350517"><ele>398.3333333333333</ele><time>2026-03-28T14:39:06.143Z</time></trkpt><trkpt lat="45.7665733" lon="11.5349533"><ele>397.66666666666663</ele><time>2026-03-28T14:39:07.142Z</time></trkpt><trkpt lat="45.7665317" lon="11.5348717"><ele>397.0</ele><time>2026-03-28T14:39:08.143Z</time></trkpt><trkpt lat="45.7664833" lon="11.5347733"><ele>396.3333333333333</ele><time>2026-03-28T14:39:09.142Z</time></trkpt><trkpt lat="45.7664467" lon="11.5346767"><ele>395.66666666666663</ele><time>2026-03-28T14:39:10.142Z</time></trkpt><trkpt lat="45.7664167" lon="11.5345683"><ele>395.0</ele><time>2026-03-28T14:39:11.143Z</time></trkpt><trkpt lat="45.76638" lon="11.53447"><ele>393.66666666666663</ele><time>2026-03-28T14:39:12.143Z</time></trkpt><trkpt lat="45.7663367" lon="11.5343833"><ele>392.3333333333333</ele><time>2026-03-28T14:39:13.143Z</time></trkpt><trkpt lat="45.7662883" lon="11.5342983"><ele>391.0</ele><time>2026-03-28T14:39:14.143Z</time></trkpt><trkpt lat="45.76624" lon="11.534235"><ele>389.66666666666663</ele><time>2026-03-28T14:39:15.143Z</time></trkpt><trkpt lat="45.766185" lon="11.53417"><ele>388.3333333333333</ele><time>2026-03-28T14:39:16.143Z</time></trkpt><trkpt lat="45.7661383" lon="11.5341033"><ele>387.0</ele><time>2026-03-28T14:39:17.143Z</time></trkpt><trkpt lat="45.7660667" lon="11.533995"><ele>386.20000000000005</ele><time>2026-03-28T14:39:19.143Z</time></trkpt><trkpt lat="45.7659833" lon="11.53384"><ele>385.4</ele><time>2026-03-28T14:39:21.143Z</time></trkpt><trkpt lat="45.7659033" lon="11.53378"><ele>384.6</ele><time>2026-03-28T14:39:22.143Z</time></trkpt><trkpt lat="45.7658367" lon="11.5337333"><ele>383.79999999999995</ele><time>2026-03-28T14:39:23.143Z</time></trkpt><trkpt lat="45.765755" lon="11.5336783"><ele>383.0</ele><time>2026-03-28T14:39:24.142Z</time></trkpt><trkpt lat="45.7656583" lon="11.533615"><ele>383.0</ele><time>2026-03-28T14:39:25.143Z</time></trkpt><trkpt lat="45.7655883" lon="11.5335467"><ele>383.0</ele><time>2026-03-28T14:39:26.143Z</time></trkpt><trkpt lat="45.76552" lon="11.5334767"><ele>383.0</ele><time>2026-03-28T14:39:27.143Z</time></trkpt><trkpt lat="45.76543" lon="11.5333983"><ele>383.0</ele><time>2026-03-28T14:39:28.143Z</time></trkpt><trkpt lat="45.76534" lon="11.5333317"><ele>383.0</ele><time>2026-03-28T14:39:29.143Z</time></trkpt><trkpt lat="45.765275" lon="11.5332633"><ele>383.0</ele><time>2026-03-28T14:39:30.143Z</time></trkpt><trkpt lat="45.7652167" lon="11.5331833"><ele>383.0</ele><time>2026-03-28T14:39:31.143Z</time></trkpt><trkpt lat="45.7651617" lon="11.533095"><ele>383.0</ele><time>2026-03-28T14:39:32.143Z</time></trkpt><trkpt lat="45.7650967" lon="11.5329767"><ele>383.0</ele><time>2026-03-28T14:39:33.143Z</time></trkpt><trkpt lat="45.7650467" lon="11.5328417"><ele>383.0</ele><time>2026-03-28T14:39:34.143Z</time></trkpt><trkpt lat="45.765035" lon="11.5327033"><ele>384.0</ele><time>2026-03-28T14:39:35.143Z</time></trkpt><trkpt lat="45.7650383" lon="11.532545"><ele>385.0</ele><time>2026-03-28T14:39:36.142Z</time></trkpt><trkpt lat="45.7650333" lon="11.532405"><ele>386.0</ele><time>2026-03-28T14:39:37.142Z</time></trkpt><trkpt lat="45.7650167" lon="11.53226"><ele>387.0</ele><time>2026-03-28T14:39:38.142Z</time></trkpt><trkpt lat="45.7649817" lon="11.5321033"><ele>388.0</ele><time>2026-03-28T14:39:39.143Z</time></trkpt><trkpt lat="45.7649417" lon="11.531935"><ele>388.0</ele><time>2026-03-28T14:39:40.142Z</time></trkpt><trkpt lat="45.7649067" lon="11.5317617"><ele>388.0</ele><time>2026-03-28T14:39:41.142Z</time></trkpt><trkpt lat="45.764885" lon="11.5315983"><ele>388.0</ele><time>2026-03-28T14:39:42.143Z</time></trkpt><trkpt lat="45.7648767" lon="11.5314433"><ele>388.0</ele><time>2026-03-28T14:39:43.143Z</time></trkpt><trkpt lat="45.764865" lon="11.531305"><ele>388.0</ele><time>2026-03-28T14:39:44.143Z</time></trkpt><trkpt lat="45.7648433" lon="11.5311683"><ele>387.25</ele><time>2026-03-28T14:39:45.142Z</time></trkpt><trkpt lat="45.7648117" lon="11.53101"><ele>386.5</ele><time>2026-03-28T14:39:46.143Z</time></trkpt><trkpt lat="45.76476" lon="11.53086"><ele>385.75</ele><time>2026-03-28T14:39:47.143Z</time></trkpt><trkpt lat="45.7647067" lon="11.530715"><ele>385.0</ele><time>2026-03-28T14:39:48.142Z</time></trkpt><trkpt lat="45.7646583" lon="11.530565"><ele>385.0</ele><time>2026-03-28T14:39:49.143Z</time></trkpt><trkpt lat="45.7646183" lon="11.5304283"><ele>385.0</ele><time>2026-03-28T14:39:50.143Z</time></trkpt><trkpt lat="45.7645867" lon="11.5302883"><ele>385.0</ele><time>2026-03-28T14:39:51.143Z</time></trkpt><trkpt lat="45.7645733" lon="11.5301667"><ele>385.0</ele><time>2026-03-28T14:39:52.143Z</time></trkpt><trkpt lat="45.76457" lon="11.5300533"><ele>385.0</ele><time>2026-03-28T14:39:53.143Z</time></trkpt><trkpt lat="45.7645783" lon="11.5299017"><ele>383.2</ele><time>2026-03-28T14:39:54.143Z</time></trkpt><trkpt lat="45.7645967" lon="11.5297683"><ele>381.4</ele><time>2026-03-28T14:39:55.142Z</time></trkpt><trkpt lat="45.7646117" lon="11.52964"><ele>379.6</ele><time>2026-03-28T14:39:56.143Z</time></trkpt><trkpt lat="45.7646167" lon="11.5294967"><ele>377.8</ele><time>2026-03-28T14:39:57.143Z</time></trkpt><trkpt lat="45.7646167" lon="11.52938"><ele>376.0</ele><time>2026-03-28T14:39:58.143Z</time></trkpt><trkpt lat="45.7646117" lon="11.5292483"><ele>375.20000000000005</ele><time>2026-03-28T14:39:59.143Z</time></trkpt><trkpt lat="45.7645967" lon="11.5291"><ele>374.40000000000003</ele><time>2026-03-28T14:40:00.142Z</time></trkpt><trkpt lat="45.764565" lon="11.5289517"><ele>373.6</ele><time>2026-03-28T14:40:01.143Z</time></trkpt><trkpt lat="45.7645317" lon="11.5288083"><ele>372.8</ele><time>2026-03-28T14:40:02.143Z</time></trkpt><trkpt lat="45.7644933" lon="11.5286783"><ele>372.0</ele><time>2026-03-28T14:40:03.142Z</time></trkpt><trkpt lat="45.764455" lon="11.528555"><ele>371.6666666666667</ele><time>2026-03-28T14:40:04.143Z</time></trkpt><trkpt lat="45.764445" lon="11.5284333"><ele>371.3333333333333</ele><time>2026-03-28T14:40:05.143Z</time></trkpt><trkpt lat="45.7644633" lon="11.5283133"><ele>371.0</ele><time>2026-03-28T14:40:06.143Z</time></trkpt><trkpt lat="45.7644833" lon="11.5282017"><ele>370.66666666666663</ele><time>2026-03-28T14:40:07.143Z</time></trkpt><trkpt lat="45.7645133" lon="11.5280883"><ele>370.3333333333333</ele><time>2026-03-28T14:40:08.143Z</time></trkpt><trkpt lat="45.764555" lon="11.527975"><ele>370.0</ele><time>2026-03-28T14:40:09.143Z</time></trkpt><trkpt lat="45.76462" lon="11.5278683"><ele>370.0</ele><time>2026-03-28T14:40:10.143Z</time></trkpt><trkpt lat="45.76469" lon="11.5277717"><ele>370.0</ele><time>2026-03-28T14:40:11.143Z</time></trkpt><trkpt lat="45.7647533" lon="11.5276633"><ele>370.0</ele><time>2026-03-28T14:40:12.143Z</time></trkpt><trkpt lat="45.7648133" lon="11.5275483"><ele>370.0</ele><time>2026-03-28T14:40:13.142Z</time></trkpt><trkpt lat="45.764865" lon="11.5274217"><ele>370.0</ele><time>2026-03-28T14:40:14.143Z</time></trkpt><trkpt lat="45.76491" lon="11.5273033"><ele>370.0</ele><time>2026-03-28T14:40:15.142Z</time></trkpt><trkpt lat="45.76496" lon="11.5271967"><ele>370.0</ele><time>2026-03-28T14:40:16.143Z</time></trkpt><trkpt lat="45.765025" lon="11.52711"><ele>370.0</ele><time>2026-03-28T14:40:17.143Z</time></trkpt><trkpt lat="45.7650983" lon="11.527005"><ele>370.0</ele><time>2026-03-28T14:40:18.143Z</time></trkpt><trkpt lat="45.76518" lon="11.5269083"><ele>370.0</ele><time>2026-03-28T14:40:19.143Z</time></trkpt><trkpt lat="45.7652567" lon="11.5268083"><ele>369.8333333333333</ele><time>2026-03-28T14:40:20.142Z</time></trkpt><trkpt lat="45.76533" lon="11.5267217"><ele>369.66666666666663</ele><time>2026-03-28T14:40:21.143Z</time></trkpt><trkpt lat="45.76539" lon="11.5266333"><ele>369.5</ele><time>2026-03-28T14:40:22.143Z</time></trkpt><trkpt lat="45.7654433" lon="11.52655"><ele>369.3333333333333</ele><time>2026-03-28T14:40:23.142Z</time></trkpt><trkpt lat="45.7654867" lon="11.526455"><ele>369.1666666666667</ele><time>2026-03-28T14:40:24.142Z</time></trkpt><trkpt lat="45.7655183" lon="11.5263567"><ele>369.0</ele><time>2026-03-28T14:40:25.143Z</time></trkpt><trkpt lat="45.7655333" lon="11.52624"><ele>369.0</ele><time>2026-03-28T14:40:26.143Z</time></trkpt><trkpt lat="45.765525" lon="11.5261133"><ele>369.0</ele><time>2026-03-28T14:40:27.142Z</time></trkpt><trkpt lat="45.76551" lon="11.5259667"><ele>369.0</ele><time>2026-03-28T14:40:28.143Z</time></trkpt><trkpt lat="45.7655033" lon="11.5258067"><ele>369.0</ele><time>2026-03-28T14:40:29.142Z</time></trkpt><trkpt lat="45.7655117" lon="11.5256617"><ele>369.0</ele><time>2026-03-28T14:40:30.143Z</time></trkpt><trkpt lat="45.7655383" lon="11.5255217"><ele>367.6</ele><time>2026-03-28T14:40:31.143Z</time></trkpt><trkpt lat="45.7655683" lon="11.5253883"><ele>366.2</ele><time>2026-03-28T14:40:32.143Z</time></trkpt><trkpt lat="45.7655967" lon="11.52526"><ele>364.8</ele><time>2026-03-28T14:40:33.143Z</time></trkpt><trkpt lat="45.76562" lon="11.52515"><ele>363.40000000000003</ele><time>2026-03-28T14:40:34.143Z</time></trkpt><trkpt lat="45.76563" lon="11.52505"><ele>362.0</ele><time>2026-03-28T14:40:35.143Z</time></trkpt><trkpt lat="45.7656017" lon="11.5248833"><ele>362.0</ele><time>2026-03-28T14:40:37.143Z</time></trkpt><trkpt lat="45.765565" lon="11.52478"><ele>362.0</ele><time>2026-03-28T14:40:38.143Z</time></trkpt><trkpt lat="45.7655167" lon="11.5246767"><ele>362.0</ele><time>2026-03-28T14:40:39.143Z</time></trkpt><trkpt lat="45.76545" lon="11.5245667"><ele>362.0</ele><time>2026-03-28T14:40:40.143Z</time></trkpt><trkpt lat="45.765385" lon="11.5244517"><ele>362.0</ele><time>2026-03-28T14:40:41.143Z</time></trkpt><trkpt lat="45.7653217" lon="11.524335"><ele>359.6</ele><time>2026-03-28T14:40:42.143Z</time></trkpt><trkpt lat="45.765255" lon="11.52422"><ele>357.20000000000005</ele><time>2026-03-28T14:40:43.143Z</time></trkpt><trkpt lat="45.7651917" lon="11.524105"><ele>354.8</ele><time>2026-03-28T14:40:44.142Z</time></trkpt><trkpt lat="45.7651283" lon="11.523985"><ele>352.4</ele><time>2026-03-28T14:40:45.142Z</time></trkpt><trkpt lat="45.7650683" lon="11.5238683"><ele>350.0</ele><time>2026-03-28T14:40:46.143Z</time></trkpt><trkpt lat="45.7650067" lon="11.5237467"><ele>348.8</ele><time>2026-03-28T14:40:47.143Z</time></trkpt><trkpt lat="45.7649517" lon="11.5236133"><ele>347.6</ele><time>2026-03-28T14:40:48.142Z</time></trkpt><trkpt lat="45.764905" lon="11.5234767"><ele>346.4</ele><time>2026-03-28T14:40:49.142Z</time></trkpt><trkpt lat="45.7648633" lon="11.523345"><ele>345.2</ele><time>2026-03-28T14:40:50.142Z</time></trkpt><trkpt lat="45.764825" lon="11.5232117"><ele>344.0</ele><time>2026-03-28T14:40:51.142Z</time></trkpt><trkpt lat="45.7647917" lon="11.5230767"><ele>344.0</ele><time>2026-03-28T14:40:52.141Z</time></trkpt><trkpt lat="45.7647583" lon="11.5229467"><ele>344.0</ele><time>2026-03-28T14:40:53.142Z</time></trkpt><trkpt lat="45.7647233" lon="11.5228067"><ele>344.0</ele><time>2026-03-28T14:40:54.142Z</time></trkpt><trkpt lat="45.76468" lon="11.5226683"><ele>344.0</ele><time>2026-03-28T14:40:55.142Z</time></trkpt><trkpt lat="45.7646317" lon="11.5225317"><ele>344.0</ele><time>2026-03-28T14:40:56.142Z</time></trkpt><trkpt lat="45.764565" lon="11.5224317"><ele>342.2</ele><time>2026-03-28T14:40:57.142Z</time></trkpt><trkpt lat="45.7645017" lon="11.522345"><ele>340.4</ele><time>2026-03-28T14:40:58.142Z</time></trkpt><trkpt lat="45.764425" lon="11.5222517"><ele>338.6</ele><time>2026-03-28T14:40:59.142Z</time></trkpt><trkpt lat="45.7643567" lon="11.5221433"><ele>336.8</ele><time>2026-03-28T14:41:00.141Z</time></trkpt><trkpt lat="45.764305" lon="11.52201"><ele>335.0</ele><time>2026-03-28T14:41:01.142Z</time></trkpt><trkpt lat="45.7642833" lon="11.52186"><ele>333.83333333333337</ele><time>2026-03-28T14:41:02.142Z</time></trkpt><trkpt lat="45.764265" lon="11.5217133"><ele>332.6666666666667</ele><time>2026-03-28T14:41:03.142Z</time></trkpt><trkpt lat="45.7642517" lon="11.521585"><ele>331.5</ele><time>2026-03-28T14:41:04.141Z</time></trkpt><trkpt lat="45.76423" lon="11.521475"><ele>330.3333333333333</ele><time>2026-03-28T14:41:05.141Z</time></trkpt><trkpt lat="45.764205" lon="11.521385"><ele>329.16666666666663</ele><time>2026-03-28T14:41:06.141Z</time></trkpt><trkpt lat="45.7641617" lon="11.521305"><ele>328.0</ele><time>2026-03-28T14:41:08.142Z</time></trkpt><trkpt lat="45.7640867" lon="11.5212433"><ele>328.8333333333333</ele><time>2026-03-28T14:41:11.142Z</time></trkpt><trkpt lat="45.7640117" lon="11.5211933"><ele>329.66666666666663</ele><time>2026-03-28T14:41:13.141Z</time></trkpt><trkpt lat="45.76392" lon="11.5211083"><ele>330.5</ele><time>2026-03-28T14:41:15.141Z</time></trkpt><trkpt lat="45.76386" lon="11.5210617"><ele>331.3333333333333</ele><time>2026-03-28T14:41:16.141Z</time></trkpt><trkpt lat="45.7637967" lon="11.5210117"><ele>332.1666666666667</ele><time>2026-03-28T14:41:17.142Z</time></trkpt><trkpt lat="45.7637167" lon="11.52096"><ele>333.0</ele><time>2026-03-28T14:41:18.142Z</time></trkpt><trkpt lat="45.763635" lon="11.520915"><ele>333.0</ele><time>2026-03-28T14:41:19.141Z</time></trkpt><trkpt lat="45.76356" lon="11.5208667"><ele>333.0</ele><time>2026-03-28T14:41:20.141Z</time></trkpt><trkpt lat="45.7634867" lon="11.5208067"><ele>333.0</ele><time>2026-03-28T14:41:21.142Z</time></trkpt><trkpt lat="45.7634217" lon="11.520725"><ele>333.0</ele><time>2026-03-28T14:41:22.141Z</time></trkpt><trkpt lat="45.76337" lon="11.5206233"><ele>333.0</ele><time>2026-03-28T14:41:23.142Z</time></trkpt><trkpt lat="45.7633217" lon="11.5205067"><ele>333.0</ele><time>2026-03-28T14:41:24.141Z</time></trkpt><trkpt lat="45.763275" lon="11.520385"><ele>330.2</ele><time>2026-03-28T14:41:25.142Z</time></trkpt><trkpt lat="45.76322" lon="11.5202633"><ele>327.4</ele><time>2026-03-28T14:41:26.141Z</time></trkpt><trkpt lat="45.7631533" lon="11.5201467"><ele>324.59999999999997</ele><time>2026-03-28T14:41:27.142Z</time></trkpt><trkpt lat="45.763075" lon="11.520035"><ele>321.79999999999995</ele><time>2026-03-28T14:41:28.142Z</time></trkpt><trkpt lat="45.762995" lon="11.5199267"><ele>319.0</ele><time>2026-03-28T14:41:29.142Z</time></trkpt><trkpt lat="45.762915" lon="11.5198267"><ele>319.0</ele><time>2026-03-28T14:41:30.142Z</time></trkpt><trkpt lat="45.7628283" lon="11.519725"><ele>319.0</ele><time>2026-03-28T14:41:31.142Z</time></trkpt><trkpt lat="45.76275" lon="11.51962"><ele>319.0</ele><time>2026-03-28T14:41:32.141Z</time></trkpt><trkpt lat="45.7626867" lon="11.5194933"><ele>319.0</ele><time>2026-03-28T14:41:33.142Z</time></trkpt><trkpt lat="45.7626517" lon="11.51936"><ele>319.0</ele><time>2026-03-28T14:41:34.142Z</time></trkpt><trkpt lat="45.7626283" lon="11.519215"><ele>316.0</ele><time>2026-03-28T14:41:35.142Z</time></trkpt><trkpt lat="45.76261" lon="11.5190667"><ele>313.0</ele><time>2026-03-28T14:41:36.142Z</time></trkpt><trkpt lat="45.7625733" lon="11.518935"><ele>310.0</ele><time>2026-03-28T14:41:37.142Z</time></trkpt><trkpt lat="45.76252" lon="11.5188067"><ele>307.0</ele><time>2026-03-28T14:41:38.142Z</time></trkpt><trkpt lat="45.762455" lon="11.5187117"><ele>304.0</ele><time>2026-03-28T14:41:39.142Z</time></trkpt><trkpt lat="45.762365" lon="11.5186433"><ele>304.0</ele><time>2026-03-28T14:41:40.141Z</time></trkpt><trkpt lat="45.7622583" lon="11.5186"><ele>304.0</ele><time>2026-03-28T14:41:41.141Z</time></trkpt><trkpt lat="45.762145" lon="11.5185817"><ele>304.0</ele><time>2026-03-28T14:41:42.142Z</time></trkpt><trkpt lat="45.762035" lon="11.518555"><ele>304.0</ele><time>2026-03-28T14:41:43.141Z</time></trkpt><trkpt lat="45.7619283" lon="11.5185183"><ele>304.0</ele><time>2026-03-28T14:41:44.142Z</time></trkpt><trkpt lat="45.761825" lon="11.5184617"><ele>302.59999999999997</ele><time>2026-03-28T14:41:45.142Z</time></trkpt><trkpt lat="45.7617217" lon="11.5184067"><ele>301.2</ele><time>2026-03-28T14:41:46.142Z</time></trkpt><trkpt lat="45.76162" lon="11.5183517"><ele>299.79999999999995</ele><time>2026-03-28T14:41:47.142Z</time></trkpt><trkpt lat="45.7615167" lon="11.5183083"><ele>298.4</ele><time>2026-03-28T14:41:48.142Z</time></trkpt><trkpt lat="45.7614233" lon="11.51827"><ele>297.0</ele><time>2026-03-28T14:41:49.142Z</time></trkpt><trkpt lat="45.761345" lon="11.5182367"><ele>297.0</ele><time>2026-03-28T14:41:50.142Z</time></trkpt><trkpt lat="45.7612667" lon="11.5182117"><ele>297.0</ele><time>2026-03-28T14:41:51.142Z</time></trkpt><trkpt lat="45.7612017" lon="11.5182217"><ele>297.0</ele><time>2026-03-28T14:41:52.142Z</time></trkpt><trkpt lat="45.7611533" lon="11.5183133"><ele>297.0</ele><time>2026-03-28T14:41:54.142Z</time></trkpt><trkpt lat="45.7611817" lon="11.5183983"><ele>297.0</ele><time>2026-03-28T14:41:55.142Z</time></trkpt><trkpt lat="45.76124" lon="11.5184917"><ele>297.0</ele><time>2026-03-28T14:41:56.142Z</time></trkpt><trkpt lat="45.7613367" lon="11.5185917"><ele>297.0</ele><time>2026-03-28T14:41:57.142Z</time></trkpt><trkpt lat="45.7614333" lon="11.5187033"><ele>297.0</ele><time>2026-03-28T14:41:58.142Z</time></trkpt><trkpt lat="45.761525" lon="11.5188167"><ele>297.0</ele><time>2026-03-28T14:41:59.142Z</time></trkpt><trkpt lat="45.761605" lon="11.51891"><ele>297.0</ele><time>2026-03-28T14:42:00.142Z</time></trkpt><trkpt lat="45.7616733" lon="11.5189933"><ele>297.0</ele><time>2026-03-28T14:42:01.142Z</time></trkpt><trkpt lat="45.7617333" lon="11.5191083"><ele>295.3333333333333</ele><time>2026-03-28T14:42:03.141Z</time></trkpt><trkpt lat="45.7616383" lon="11.519125"><ele>293.6666666666667</ele><time>2026-03-28T14:42:07.141Z</time></trkpt><trkpt lat="45.761565" lon="11.5190883"><ele>292.0</ele><time>2026-03-28T14:42:08.142Z</time></trkpt><trkpt lat="45.761485" lon="11.519065"><ele>290.33333333333337</ele><time>2026-03-28T14:42:09.141Z</time></trkpt><trkpt lat="45.7614167" lon="11.5190717"><ele>288.6666666666667</ele><time>2026-03-28T14:42:10.142Z</time></trkpt><trkpt lat="45.7613717" lon="11.5191967"><ele>287.0</ele><time>2026-03-28T14:42:12.142Z</time></trkpt><trkpt lat="45.7614183" lon="11.5192733"><ele>287.0</ele><time>2026-03-28T14:42:13.142Z</time></trkpt><trkpt lat="45.7614933" lon="11.5193633"><ele>287.0</ele><time>2026-03-28T14:42:14.142Z</time></trkpt><trkpt lat="45.7615767" lon="11.5194467"><ele>287.0</ele><time>2026-03-28T14:42:15.142Z</time></trkpt><trkpt lat="45.76167" lon="11.5195267"><ele>287.0</ele><time>2026-03-28T14:42:16.142Z</time></trkpt><trkpt lat="45.76175" lon="11.519595"><ele>287.0</ele><time>2026-03-28T14:42:17.142Z</time></trkpt><trkpt lat="45.76183" lon="11.5196617"><ele>289.2</ele><time>2026-03-28T14:42:18.142Z</time></trkpt><trkpt lat="45.7618833" lon="11.5197317"><ele>291.4</ele><time>2026-03-28T14:42:19.142Z</time></trkpt><trkpt lat="45.76192" lon="11.519815"><ele>293.6</ele><time>2026-03-28T14:42:21.142Z</time></trkpt><trkpt lat="45.7618067" lon="11.51976"><ele>295.8</ele><time>2026-03-28T14:42:24.142Z</time></trkpt><trkpt lat="45.7617083" lon="11.5197117"><ele>298.0</ele><time>2026-03-28T14:42:25.142Z</time></trkpt><trkpt lat="45.761615" lon="11.5196683"><ele>296.16666666666663</ele><time>2026-03-28T14:42:26.142Z</time></trkpt><trkpt lat="45.7615167" lon="11.5196483"><ele>294.3333333333333</ele><time>2026-03-28T14:42:27.142Z</time></trkpt><trkpt lat="45.7614333" lon="11.5196233"><ele>292.5</ele><time>2026-03-28T14:42:28.142Z</time></trkpt><trkpt lat="45.761335" lon="11.51961"><ele>290.6666666666667</ele><time>2026-03-28T14:42:29.142Z</time></trkpt><trkpt lat="45.7612633" lon="11.5195767"><ele>288.83333333333337</ele><time>2026-03-28T14:42:30.142Z</time></trkpt><trkpt lat="45.7611833" lon="11.5195417"><ele>287.0</ele><time>2026-03-28T14:42:31.141Z</time></trkpt><trkpt lat="45.7611067" lon="11.519505"><ele>284.5</ele><time>2026-03-28T14:42:32.141Z</time></trkpt><trkpt lat="45.761025" lon="11.5194817"><ele>282.0</ele><time>2026-03-28T14:42:33.142Z</time></trkpt><trkpt lat="45.76094" lon="11.5194767"><ele>279.5</ele><time>2026-03-28T14:42:34.142Z</time></trkpt><trkpt lat="45.760855" lon="11.51948"><ele>277.0</ele><time>2026-03-28T14:42:35.141Z</time></trkpt><trkpt lat="45.7607717" lon="11.5194833"><ele>274.5</ele><time>2026-03-28T14:42:36.142Z</time></trkpt><trkpt lat="45.7606917" lon="11.5194867"><ele>272.0</ele><time>2026-03-28T14:42:37.142Z</time></trkpt><trkpt lat="45.7606167" lon="11.5194967"><ele>272.0</ele><time>2026-03-28T14:42:38.142Z</time></trkpt><trkpt lat="45.7605467" lon="11.5195083"><ele>272.0</ele><time>2026-03-28T14:42:39.141Z</time></trkpt><trkpt lat="45.7604767" lon="11.51951"><ele>272.0</ele><time>2026-03-28T14:42:40.142Z</time></trkpt><trkpt lat="45.7604033" lon="11.5195133"><ele>272.0</ele><time>2026-03-28T14:42:41.141Z</time></trkpt><trkpt lat="45.7602717" lon="11.5195183"><ele>272.0</ele><time>2026-03-28T14:42:43.142Z</time></trkpt><trkpt lat="45.7601967" lon="11.5195167"><ele>272.0</ele><time>2026-03-28T14:42:44.141Z</time></trkpt><trkpt lat="45.7601183" lon="11.5195033"><ele>269.6666666666667</ele><time>2026-03-28T14:42:45.142Z</time></trkpt><trkpt lat="45.7600367" lon="11.51949"><ele>267.33333333333337</ele><time>2026-03-28T14:42:46.142Z</time></trkpt><trkpt lat="45.7599583" lon="11.51946"><ele>265.0</ele><time>2026-03-28T14:42:47.142Z</time></trkpt><trkpt lat="45.75989" lon="11.51939"><ele>262.6666666666667</ele><time>2026-03-28T14:42:48.142Z</time></trkpt><trkpt lat="45.75982" lon="11.5193017"><ele>260.3333333333333</ele><time>2026-03-28T14:42:49.141Z</time></trkpt><trkpt lat="45.759745" lon="11.5192033"><ele>258.0</ele><time>2026-03-28T14:42:50.142Z</time></trkpt><trkpt lat="45.7596767" lon="11.5190917"><ele>258.0</ele><time>2026-03-28T14:42:51.142Z</time></trkpt><trkpt lat="45.75963" lon="11.5189867"><ele>258.0</ele><time>2026-03-28T14:42:52.141Z</time></trkpt><trkpt lat="45.7595833" lon="11.5188717"><ele>258.0</ele><time>2026-03-28T14:42:53.142Z</time></trkpt><trkpt lat="45.7595283" lon="11.5187583"><ele>258.0</ele><time>2026-03-28T14:42:54.142Z</time></trkpt><trkpt lat="45.7594717" lon="11.51865"><ele>258.0</ele><time>2026-03-28T14:42:55.142Z</time></trkpt><trkpt lat="45.7594183" lon="11.5185633"><ele>255.33333333333334</ele><time>2026-03-28T14:42:56.141Z</time></trkpt><trkpt lat="45.759365" lon="11.518505"><ele>252.66666666666669</ele><time>2026-03-28T14:42:57.142Z</time></trkpt><trkpt lat="45.7592933" lon="11.5185167"><ele>250.0</ele><time>2026-03-28T14:42:59.142Z</time></trkpt><trkpt lat="45.759235" lon="11.5185933"><ele>247.33333333333334</ele><time>2026-03-28T14:43:01.142Z</time></trkpt><trkpt lat="45.7592383" lon="11.5187383"><ele>244.66666666666669</ele><time>2026-03-28T14:43:03.141Z</time></trkpt><trkpt lat="45.759295" lon="11.5189017"><ele>242.0</ele><time>2026-03-28T14:43:05.141Z</time></trkpt><trkpt lat="45.75934" lon="11.5190467"><ele>241.2</ele><time>2026-03-28T14:43:07.141Z</time></trkpt><trkpt lat="45.7593917" lon="11.5191567"><ele>240.39999999999998</ele><time>2026-03-28T14:43:09.142Z</time></trkpt><trkpt lat="45.75932" lon="11.5191183"><ele>239.60000000000002</ele><time>2026-03-28T14:43:12.142Z</time></trkpt><trkpt lat="45.7591917" lon="11.51906"><ele>238.8</ele><time>2026-03-28T14:43:14.141Z</time></trkpt><trkpt lat="45.7590817" lon="11.5190517"><ele>238.0</ele><time>2026-03-28T14:43:15.142Z</time></trkpt><trkpt lat="45.75897" lon="11.519055"><ele>238.0</ele><time>2026-03-28T14:43:16.142Z</time></trkpt><trkpt lat="45.7588533" lon="11.5191017"><ele>238.0</ele><time>2026-03-28T14:43:17.141Z</time></trkpt><trkpt lat="45.7587433" lon="11.5191483"><ele>238.0</ele><time>2026-03-28T14:43:18.141Z</time></trkpt><trkpt lat="45.7586367" lon="11.5192"><ele>238.0</ele><time>2026-03-28T14:43:19.141Z</time></trkpt><trkpt lat="45.7585317" lon="11.51925"><ele>234.60000000000002</ele><time>2026-03-28T14:43:20.142Z</time></trkpt><trkpt lat="45.758425" lon="11.5192967"><ele>231.20000000000002</ele><time>2026-03-28T14:43:21.142Z</time></trkpt><trkpt lat="45.7583333" lon="11.5193467"><ele>227.8</ele><time>2026-03-28T14:43:22.142Z</time></trkpt><trkpt lat="45.7582417" lon="11.5194033"><ele>224.4</ele><time>2026-03-28T14:43:23.141Z</time></trkpt><trkpt lat="45.75815" lon="11.5194483"><ele>221.0</ele><time>2026-03-28T14:43:24.142Z</time></trkpt><trkpt lat="45.758065" lon="11.51951"><ele>220.00000000000003</ele><time>2026-03-28T14:43:25.141Z</time></trkpt><trkpt lat="45.75799" lon="11.519585"><ele>219.0</ele><time>2026-03-28T14:43:26.142Z</time></trkpt><trkpt lat="45.75792" lon="11.5196567"><ele>218.0</ele><time>2026-03-28T14:43:27.142Z</time></trkpt><trkpt lat="45.757845" lon="11.519715"><ele>217.0</ele><time>2026-03-28T14:43:28.142Z</time></trkpt><trkpt lat="45.7577783" lon="11.5197667"><ele>216.00000000000003</ele><time>2026-03-28T14:43:29.142Z</time></trkpt><trkpt lat="45.7577083" lon="11.51979"><ele>215.0</ele><time>2026-03-28T14:43:30.141Z</time></trkpt><trkpt lat="45.7576333" lon="11.5197983"><ele>213.8</ele><time>2026-03-28T14:43:31.141Z</time></trkpt><trkpt lat="45.7575567" lon="11.5197817"><ele>212.6</ele><time>2026-03-28T14:43:32.142Z</time></trkpt><trkpt lat="45.75747" lon="11.519735"><ele>211.39999999999998</ele><time>2026-03-28T14:43:33.142Z</time></trkpt><trkpt lat="45.757365" lon="11.5196833"><ele>210.2</ele><time>2026-03-28T14:43:34.141Z</time></trkpt><trkpt lat="45.7572633" lon="11.5196233"><ele>209.0</ele><time>2026-03-28T14:43:35.142Z</time></trkpt><trkpt lat="45.757155" lon="11.519565"><ele>208.79999999999998</ele><time>2026-03-28T14:43:36.142Z</time></trkpt><trkpt lat="45.7570383" lon="11.5195233"><ele>208.6</ele><time>2026-03-28T14:43:37.142Z</time></trkpt><trkpt lat="45.756935" lon="11.5194933"><ele>208.4</ele><time>2026-03-28T14:43:38.141Z</time></trkpt><trkpt lat="45.7568317" lon="11.5194783"><ele>208.2</ele><time>2026-03-28T14:43:39.142Z</time></trkpt><trkpt lat="45.7567183" lon="11.519465"><ele>208.0</ele><time>2026-03-28T14:43:40.142Z</time></trkpt><trkpt lat="45.7566133" lon="11.51944"><ele>205.4</ele><time>2026-03-28T14:43:41.142Z</time></trkpt><trkpt lat="45.7565083" lon="11.5194067"><ele>202.8</ele><time>2026-03-28T14:43:42.142Z</time></trkpt><trkpt lat="45.7564167" lon="11.519365"><ele>200.2</ele><time>2026-03-28T14:43:43.142Z</time></trkpt><trkpt lat="45.7563183" lon="11.5193417"><ele>197.6</ele><time>2026-03-28T14:43:44.142Z</time></trkpt><trkpt lat="45.7562183" lon="11.5193433"><ele>195.0</ele><time>2026-03-28T14:43:45.142Z</time></trkpt><trkpt lat="45.756125" lon="11.5193483"><ele>195.0</ele><time>2026-03-28T14:43:46.142Z</time></trkpt><trkpt lat="45.7560383" lon="11.51936"><ele>195.0</ele><time>2026-03-28T14:43:47.141Z</time></trkpt><trkpt lat="45.7559617" lon="11.519375"><ele>195.0</ele><time>2026-03-28T14:43:48.142Z</time></trkpt><trkpt lat="45.7559" lon="11.5194"><ele>195.0</ele><time>2026-03-28T14:43:49.141Z</time></trkpt><trkpt lat="45.7558533" lon="11.5195417"><ele>195.0</ele><time>2026-03-28T14:43:51.142Z</time></trkpt><trkpt lat="45.7558717" lon="11.5197383"><ele>192.75</ele><time>2026-03-28T14:43:53.142Z</time></trkpt><trkpt lat="45.7559067" lon="11.5198683"><ele>190.5</ele><time>2026-03-28T14:43:54.142Z</time></trkpt><trkpt lat="45.7559517" lon="11.5200383"><ele>188.25</ele><time>2026-03-28T14:43:55.142Z</time></trkpt><trkpt lat="45.756005" lon="11.52022"><ele>186.0</ele><time>2026-03-28T14:43:56.142Z</time></trkpt><trkpt lat="45.7560783" lon="11.520405"><ele>186.0</ele><time>2026-03-28T14:43:57.141Z</time></trkpt><trkpt lat="45.7561683" lon="11.52059"><ele>186.0</ele><time>2026-03-28T14:43:58.141Z</time></trkpt><trkpt lat="45.756265" lon="11.5207517"><ele>186.0</ele><time>2026-03-28T14:43:59.142Z</time></trkpt><trkpt lat="45.7563433" lon="11.520915"><ele>186.0</ele><time>2026-03-28T14:44:00.142Z</time></trkpt><trkpt lat="45.7564167" lon="11.5211017"><ele>185.0</ele><time>2026-03-28T14:44:01.142Z</time></trkpt><trkpt lat="45.756475" lon="11.5212983"><ele>184.0</ele><time>2026-03-28T14:44:02.142Z</time></trkpt><trkpt lat="45.7565217" lon="11.5214933"><ele>183.0</ele><time>2026-03-28T14:44:03.141Z</time></trkpt><trkpt lat="45.756565" lon="11.5216683"><ele>182.0</ele><time>2026-03-28T14:44:04.142Z</time></trkpt><trkpt lat="45.7566017" lon="11.5218117"><ele>182.0</ele><time>2026-03-28T14:44:05.142Z</time></trkpt><trkpt lat="45.7566233" lon="11.52191"><ele>182.0</ele><time>2026-03-28T14:44:06.142Z</time></trkpt><trkpt lat="45.7566367" lon="11.5220017"><ele>182.0</ele><time>2026-03-28T14:44:07.141Z</time></trkpt><trkpt lat="45.7566417" lon="11.522105"><ele>182.0</ele><time>2026-03-28T14:44:08.141Z</time></trkpt><trkpt lat="45.7566433" lon="11.5222217"><ele>182.0</ele><time>2026-03-28T14:44:09.142Z</time></trkpt><trkpt lat="45.7566533" lon="11.5223433"><ele>182.0</ele><time>2026-03-28T14:44:10.142Z</time></trkpt><trkpt lat="45.7566617" lon="11.5224433"><ele>182.0</ele><time>2026-03-28T14:44:11.142Z</time></trkpt><trkpt lat="45.7566517" lon="11.5225883"><ele>182.0</ele><time>2026-03-28T14:44:13.142Z</time></trkpt><trkpt lat="45.7565683" lon="11.5226617"><ele>182.0</ele><time>2026-03-28T14:44:15.141Z</time></trkpt><trkpt lat="45.7564917" lon="11.5226717"><ele>182.0</ele><time>2026-03-28T14:44:16.142Z</time></trkpt><trkpt lat="45.7564083" lon="11.5226883"><ele>182.0</ele><time>2026-03-28T14:44:17.142Z</time></trkpt><trkpt lat="45.7563133" lon="11.522705"><ele>182.0</ele><time>2026-03-28T14:44:18.142Z</time></trkpt><trkpt lat="45.756225" lon="11.5227233"><ele>182.0</ele><time>2026-03-28T14:44:19.142Z</time></trkpt><trkpt lat="45.7561333" lon="11.52273"><ele>182.0</ele><time>2026-03-28T14:44:20.142Z</time></trkpt><trkpt lat="45.7560417" lon="11.522705"><ele>182.0</ele><time>2026-03-28T14:44:21.141Z</time></trkpt><trkpt lat="45.75594" lon="11.52265"><ele>182.0</ele><time>2026-03-28T14:44:22.142Z</time></trkpt><trkpt lat="45.7558383" lon="11.5225817"><ele>182.0</ele><time>2026-03-28T14:44:23.142Z</time></trkpt><trkpt lat="45.7557533" lon="11.5225133"><ele>182.0</ele><time>2026-03-28T14:44:24.142Z</time></trkpt><trkpt lat="45.7556833" lon="11.52242"><ele>181.0</ele><time>2026-03-28T14:44:25.142Z</time></trkpt><trkpt lat="45.7556317" lon="11.522305"><ele>180.0</ele><time>2026-03-28T14:44:26.142Z</time></trkpt><trkpt lat="45.7555917" lon="11.5221633"><ele>179.0</ele><time>2026-03-28T14:44:27.141Z</time></trkpt><trkpt lat="45.75554" lon="11.5220233"><ele>178.0</ele><time>2026-03-28T14:44:28.142Z</time></trkpt><trkpt lat="45.7555017" lon="11.5218933"><ele>177.0</ele><time>2026-03-28T14:44:29.142Z</time></trkpt><trkpt lat="45.7554667" lon="11.52178"><ele>176.83333333333334</ele><time>2026-03-28T14:44:30.142Z</time></trkpt><trkpt lat="45.7554333" lon="11.5216617"><ele>176.66666666666666</ele><time>2026-03-28T14:44:31.142Z</time></trkpt><trkpt lat="45.7554033" lon="11.5215583"><ele>176.5</ele><time>2026-03-28T14:44:32.142Z</time></trkpt><trkpt lat="45.7553783" lon="11.521455"><ele>176.33333333333331</ele><time>2026-03-28T14:44:33.141Z</time></trkpt><trkpt lat="45.7553467" lon="11.5213567"><ele>176.16666666666666</ele><time>2026-03-28T14:44:34.141Z</time></trkpt><trkpt lat="45.75532" lon="11.5212617"><ele>176.0</ele><time>2026-03-28T14:44:35.142Z</time></trkpt><trkpt lat="45.755295" lon="11.52116"><ele>175.8</ele><time>2026-03-28T14:44:36.142Z</time></trkpt><trkpt lat="45.7552633" lon="11.52105"><ele>175.60000000000002</ele><time>2026-03-28T14:44:37.142Z</time></trkpt><trkpt lat="45.7552267" lon="11.5209333"><ele>175.4</ele><time>2026-03-28T14:44:38.142Z</time></trkpt><trkpt lat="45.755185" lon="11.5207983"><ele>175.2</ele><time>2026-03-28T14:44:39.142Z</time></trkpt><trkpt lat="45.755145" lon="11.5206467"><ele>175.0</ele><time>2026-03-28T14:44:40.141Z</time></trkpt><trkpt lat="45.75511" lon="11.5204883"><ele>173.75</ele><time>2026-03-28T14:44:41.141Z</time></trkpt><trkpt lat="45.7550783" lon="11.52032"><ele>172.5</ele><time>2026-03-28T14:44:42.142Z</time></trkpt><trkpt lat="45.75505" lon="11.5201483"><ele>171.25</ele><time>2026-03-28T14:44:43.141Z</time></trkpt><trkpt lat="45.75502" lon="11.51997"><ele>170.0</ele><time>2026-03-28T14:44:44.142Z</time></trkpt><trkpt lat="45.7549783" lon="11.5198017"><ele>170.0</ele><time>2026-03-28T14:44:45.142Z</time></trkpt><trkpt lat="45.7549467" lon="11.5196367"><ele>170.0</ele><time>2026-03-28T14:44:46.142Z</time></trkpt><trkpt lat="45.7549117" lon="11.5194683"><ele>170.0</ele><time>2026-03-28T14:44:47.142Z</time></trkpt><trkpt lat="45.7548733" lon="11.5193"><ele>170.0</ele><time>2026-03-28T14:44:48.142Z</time></trkpt><trkpt lat="45.7548283" lon="11.5191383"><ele>169.75</ele><time>2026-03-28T14:44:49.142Z</time></trkpt><trkpt lat="45.754775" lon="11.518995"><ele>169.5</ele><time>2026-03-28T14:44:50.142Z</time></trkpt><trkpt lat="45.7547067" lon="11.51886"><ele>169.25</ele><time>2026-03-28T14:44:51.142Z</time></trkpt><trkpt lat="45.7546283" lon="11.5187467"><ele>169.0</ele><time>2026-03-28T14:44:52.142Z</time></trkpt><trkpt lat="45.7545483" lon="11.518635"><ele>169.5</ele><time>2026-03-28T14:44:53.142Z</time></trkpt><trkpt lat="45.75446" lon="11.5185283"><ele>170.0</ele><time>2026-03-28T14:44:54.141Z</time></trkpt><trkpt lat="45.75436" lon="11.5184283"><ele>170.5</ele><time>2026-03-28T14:44:55.142Z</time></trkpt><trkpt lat="45.7542483" lon="11.5183483"><ele>171.0</ele><time>2026-03-28T14:44:56.142Z</time></trkpt><trkpt lat="45.7541317" lon="11.5182833"><ele>169.75</ele><time>2026-03-28T14:44:57.142Z</time></trkpt><trkpt lat="45.754015" lon="11.518215"><ele>168.5</ele><time>2026-03-28T14:44:58.142Z</time></trkpt><trkpt lat="45.7538917" lon="11.5181333"><ele>167.25</ele><time>2026-03-28T14:44:59.141Z</time></trkpt><trkpt lat="45.75378" lon="11.518065"><ele>166.0</ele><time>2026-03-28T14:45:00.142Z</time></trkpt><trkpt lat="45.753665" lon="11.5180017"><ele>166.0</ele><time>2026-03-28T14:45:01.142Z</time></trkpt><trkpt lat="45.753555" lon="11.5179483"><ele>166.0</ele><time>2026-03-28T14:45:02.142Z</time></trkpt><trkpt lat="45.753465" lon="11.5179017"><ele>166.0</ele><time>2026-03-28T14:45:03.142Z</time></trkpt><trkpt lat="45.7533667" lon="11.517855"><ele>166.0</ele><time>2026-03-28T14:45:04.141Z</time></trkpt><trkpt lat="45.7532683" lon="11.5177967"><ele>166.0</ele><time>2026-03-28T14:45:05.142Z</time></trkpt><trkpt lat="45.7531817" lon="11.5177367"><ele>164.33333333333334</ele><time>2026-03-28T14:45:06.142Z</time></trkpt><trkpt lat="45.75311" lon="11.5176633"><ele>162.66666666666669</ele><time>2026-03-28T14:45:07.142Z</time></trkpt><trkpt lat="45.753045" lon="11.5176033"><ele>161.0</ele><time>2026-03-28T14:45:08.142Z</time></trkpt><trkpt lat="45.7529867" lon="11.5175433"><ele>159.33333333333334</ele><time>2026-03-28T14:45:09.141Z</time></trkpt><trkpt lat="45.752925" lon="11.517445"><ele>157.66666666666666</ele><time>2026-03-28T14:45:11.141Z</time></trkpt><trkpt lat="45.752855" lon="11.5174017"><ele>156.0</ele><time>2026-03-28T14:45:14.142Z</time></trkpt><trkpt lat="45.75276" lon="11.5174467"><ele>155.4</ele><time>2026-03-28T14:45:16.142Z</time></trkpt><trkpt lat="45.7526817" lon="11.5175017"><ele>154.8</ele><time>2026-03-28T14:45:17.142Z</time></trkpt><trkpt lat="45.752585" lon="11.51757"><ele>154.20000000000002</ele><time>2026-03-28T14:45:18.142Z</time></trkpt><trkpt lat="45.752485" lon="11.5176433"><ele>153.6</ele><time>2026-03-28T14:45:19.142Z</time></trkpt><trkpt lat="45.7523733" lon="11.5177233"><ele>153.0</ele><time>2026-03-28T14:45:20.142Z</time></trkpt><trkpt lat="45.75225" lon="11.5178133"><ele>155.0</ele><time>2026-03-28T14:45:21.142Z</time></trkpt><trkpt lat="45.7521183" lon="11.5179133"><ele>157.0</ele><time>2026-03-28T14:45:22.142Z</time></trkpt><trkpt lat="45.7519883" lon="11.517995"><ele>159.0</ele><time>2026-03-28T14:45:23.142Z</time></trkpt><trkpt lat="45.7518617" lon="11.51808"><ele>161.0</ele><time>2026-03-28T14:45:24.142Z</time></trkpt><trkpt lat="45.7517283" lon="11.518165"><ele>161.0</ele><time>2026-03-28T14:45:25.142Z</time></trkpt><trkpt lat="45.7515933" lon="11.518255"><ele>161.0</ele><time>2026-03-28T14:45:26.141Z</time></trkpt><trkpt lat="45.75145" lon="11.5183633"><ele>161.0</ele><time>2026-03-28T14:45:27.141Z</time></trkpt><trkpt lat="45.7513033" lon="11.5184833"><ele>161.0</ele><time>2026-03-28T14:45:28.142Z</time></trkpt><trkpt lat="45.751155" lon="11.5186133"><ele>161.0</ele><time>2026-03-28T14:45:29.142Z</time></trkpt><trkpt lat="45.75101" lon="11.51874"><ele>161.0</ele><time>2026-03-28T14:45:30.141Z</time></trkpt><trkpt lat="45.7508517" lon="11.5188517"><ele>161.33333333333331</ele><time>2026-03-28T14:45:31.142Z</time></trkpt><trkpt lat="45.7507117" lon="11.5189633"><ele>161.66666666666666</ele><time>2026-03-28T14:45:32.141Z</time></trkpt><trkpt lat="45.7505833" lon="11.5191017"><ele>162.0</ele><time>2026-03-28T14:45:33.142Z</time></trkpt><trkpt lat="45.7504617" lon="11.51926"><ele>162.0</ele><time>2026-03-28T14:45:34.141Z</time></trkpt><trkpt lat="45.750345" lon="11.519445"><ele>162.0</ele><time>2026-03-28T14:45:35.142Z</time></trkpt><trkpt lat="45.7502583" lon="11.5196467"><ele>162.0</ele><time>2026-03-28T14:45:36.142Z</time></trkpt><trkpt lat="45.75018" lon="11.5198367"><ele>161.25</ele><time>2026-03-28T14:45:37.142Z</time></trkpt><trkpt lat="45.750115" lon="11.52002"><ele>160.5</ele><time>2026-03-28T14:45:38.141Z</time></trkpt><trkpt lat="45.7500417" lon="11.5201967"><ele>159.75</ele><time>2026-03-28T14:45:39.142Z</time></trkpt><trkpt lat="45.7499633" lon="11.5203617"><ele>159.0</ele><time>2026-03-28T14:45:40.142Z</time></trkpt><trkpt lat="45.7498867" lon="11.52053"><ele>159.0</ele><time>2026-03-28T14:45:41.142Z</time></trkpt><trkpt lat="45.7497967" lon="11.5206867"><ele>159.0</ele><time>2026-03-28T14:45:42.141Z</time></trkpt><trkpt lat="45.7496983" lon="11.5208417"><ele>159.0</ele><time>2026-03-28T14:45:43.142Z</time></trkpt><trkpt lat="45.7495817" lon="11.5209917"><ele>159.0</ele><time>2026-03-28T14:45:44.141Z</time></trkpt><trkpt lat="45.74947" lon="11.5211333"><ele>160.66666666666666</ele><time>2026-03-28T14:45:45.142Z</time></trkpt><trkpt lat="45.7493617" lon="11.521285"><ele>162.33333333333331</ele><time>2026-03-28T14:45:46.142Z</time></trkpt><trkpt lat="45.7492517" lon="11.5214317"><ele>164.0</ele><time>2026-03-28T14:45:47.142Z</time></trkpt><trkpt lat="45.7491483" lon="11.5215933"><ele>164.0</ele><time>2026-03-28T14:45:48.142Z</time></trkpt><trkpt lat="45.74905" lon="11.5217733"><ele>164.0</ele><time>2026-03-28T14:45:49.142Z</time></trkpt><trkpt lat="45.7489683" lon="11.5219617"><ele>164.0</ele><time>2026-03-28T14:45:50.142Z</time></trkpt><trkpt lat="45.7489067" lon="11.5221633"><ele>166.66666666666666</ele><time>2026-03-28T14:45:51.142Z</time></trkpt><trkpt lat="45.7488617" lon="11.5223783"><ele>169.33333333333334</ele><time>2026-03-28T14:45:52.142Z</time></trkpt><trkpt lat="45.7488233" lon="11.5225883"><ele>172.0</ele><time>2026-03-28T14:45:53.142Z</time></trkpt><trkpt lat="45.7487917" lon="11.5228117"><ele>173.0</ele><time>2026-03-28T14:45:54.141Z</time></trkpt><trkpt lat="45.748765" lon="11.5230233"><ele>174.0</ele><time>2026-03-28T14:45:55.142Z</time></trkpt><trkpt lat="45.7487417" lon="11.523235"><ele>175.0</ele><time>2026-03-28T14:45:56.141Z</time></trkpt><trkpt lat="45.7487" lon="11.5234383"><ele>176.0</ele><time>2026-03-28T14:45:57.142Z</time></trkpt><trkpt lat="45.74866" lon="11.52365"><ele>176.75</ele><time>2026-03-28T14:45:58.142Z</time></trkpt><trkpt lat="45.74862" lon="11.5238583"><ele>177.5</ele><time>2026-03-28T14:45:59.142Z</time></trkpt><trkpt lat="45.7485883" lon="11.5240617"><ele>178.25</ele><time>2026-03-28T14:46:00.142Z</time></trkpt><trkpt lat="45.7485517" lon="11.5242417"><ele>179.0</ele><time>2026-03-28T14:46:01.142Z</time></trkpt><trkpt lat="45.7485017" lon="11.524395"><ele>177.79999999999998</ele><time>2026-03-28T14:46:02.141Z</time></trkpt><trkpt lat="45.7484333" lon="11.5245267"><ele>176.6</ele><time>2026-03-28T14:46:03.142Z</time></trkpt><trkpt lat="45.7483767" lon="11.524635"><ele>175.4</ele><time>2026-03-28T14:46:04.142Z</time></trkpt><trkpt lat="45.7483" lon="11.5246967"><ele>174.2</ele><time>2026-03-28T14:46:05.141Z</time></trkpt><trkpt lat="45.74822" lon="11.52474"><ele>173.0</ele><time>2026-03-28T14:46:06.141Z</time></trkpt><trkpt lat="45.7481267" lon="11.5247517"><ele>173.0</ele><time>2026-03-28T14:46:07.142Z</time></trkpt><trkpt lat="45.7480067" lon="11.5247267"><ele>173.0</ele><time>2026-03-28T14:46:08.142Z</time></trkpt><trkpt lat="45.7478817" lon="11.52468"><ele>173.0</ele><time>2026-03-28T14:46:09.142Z</time></trkpt><trkpt lat="45.7477733" lon="11.5246533"><ele>173.0</ele><time>2026-03-28T14:46:10.141Z</time></trkpt><trkpt lat="45.7476633" lon="11.5246283"><ele>172.0</ele><time>2026-03-28T14:46:11.142Z</time></trkpt><trkpt lat="45.7475583" lon="11.52461"><ele>171.0</ele><time>2026-03-28T14:46:12.142Z</time></trkpt><trkpt lat="45.747455" lon="11.5245917"><ele>170.0</ele><time>2026-03-28T14:46:13.142Z</time></trkpt><trkpt lat="45.7473433" lon="11.524575"><ele>169.0</ele><time>2026-03-28T14:46:14.142Z</time></trkpt><trkpt lat="45.7472333" lon="11.5245417"><ele>168.0</ele><time>2026-03-28T14:46:15.142Z</time></trkpt><trkpt lat="45.7471233" lon="11.5244933"><ele>166.75</ele><time>2026-03-28T14:46:16.142Z</time></trkpt><trkpt lat="45.74702" lon="11.5244383"><ele>165.5</ele><time>2026-03-28T14:46:17.142Z</time></trkpt><trkpt lat="45.7469167" lon="11.5243617"><ele>164.25</ele><time>2026-03-28T14:46:18.141Z</time></trkpt><trkpt lat="45.7468067" lon="11.52428"><ele>163.0</ele><time>2026-03-28T14:46:19.142Z</time></trkpt><trkpt lat="45.7467" lon="11.5241983"><ele>163.0</ele><time>2026-03-28T14:46:20.142Z</time></trkpt><trkpt lat="45.7465983" lon="11.5241117"><ele>163.0</ele><time>2026-03-28T14:46:21.142Z</time></trkpt><trkpt lat="45.7465" lon="11.5240033"><ele>163.0</ele><time>2026-03-28T14:46:22.142Z</time></trkpt><trkpt lat="45.7464117" lon="11.5238733"><ele>163.0</ele><time>2026-03-28T14:46:23.142Z</time></trkpt><trkpt lat="45.7463217" lon="11.5237333"><ele>162.25</ele><time>2026-03-28T14:46:24.142Z</time></trkpt><trkpt lat="45.7462217" lon="11.52359"><ele>161.5</ele><time>2026-03-28T14:46:25.142Z</time></trkpt><trkpt lat="45.74612" lon="11.52345"><ele>160.75</ele><time>2026-03-28T14:46:26.142Z</time></trkpt><trkpt lat="45.7460167" lon="11.5233133"><ele>160.0</ele><time>2026-03-28T14:46:27.142Z</time></trkpt><trkpt lat="45.7459233" lon="11.52318"><ele>160.0</ele><time>2026-03-28T14:46:28.141Z</time></trkpt><trkpt lat="45.745825" lon="11.5230467"><ele>160.0</ele><time>2026-03-28T14:46:29.142Z</time></trkpt><trkpt lat="45.7457183" lon="11.5229217"><ele>160.0</ele><time>2026-03-28T14:46:30.142Z</time></trkpt><trkpt lat="45.7455883" lon="11.52281"><ele>160.0</ele><time>2026-03-28T14:46:31.142Z</time></trkpt><trkpt lat="45.7454633" lon="11.522715"><ele>157.25</ele><time>2026-03-28T14:46:32.142Z</time></trkpt><trkpt lat="45.74533" lon="11.5226433"><ele>154.5</ele><time>2026-03-28T14:46:33.142Z</time></trkpt><trkpt lat="45.7451783" lon="11.5226"><ele>151.75</ele><time>2026-03-28T14:46:34.141Z</time></trkpt><trkpt lat="45.74503" lon="11.5225933"><ele>149.0</ele><time>2026-03-28T14:46:35.142Z</time></trkpt><trkpt lat="45.74489" lon="11.5226083"><ele>148.75</ele><time>2026-03-28T14:46:36.142Z</time></trkpt><trkpt lat="45.7447433" lon="11.5226167"><ele>148.5</ele><time>2026-03-28T14:46:37.141Z</time></trkpt><trkpt lat="45.7446167" lon="11.522635"><ele>148.25</ele><time>2026-03-28T14:46:38.142Z</time></trkpt><trkpt lat="45.7444833" lon="11.5226467"><ele>148.0</ele><time>2026-03-28T14:46:39.141Z</time></trkpt><trkpt lat="45.74437" lon="11.52265"><ele>147.83333333333334</ele><time>2026-03-28T14:46:40.141Z</time></trkpt><trkpt lat="45.744275" lon="11.5226583"><ele>147.66666666666669</ele><time>2026-03-28T14:46:41.141Z</time></trkpt><trkpt lat="45.7441767" lon="11.5226633"><ele>147.5</ele><time>2026-03-28T14:46:42.142Z</time></trkpt><trkpt lat="45.7440917" lon="11.5226667"><ele>147.33333333333334</ele><time>2026-03-28T14:46:43.142Z</time></trkpt><trkpt lat="45.744015" lon="11.5226783"><ele>147.16666666666666</ele><time>2026-03-28T14:46:44.142Z</time></trkpt><trkpt lat="45.7439483" lon="11.5226917"><ele>147.0</ele><time>2026-03-28T14:46:45.142Z</time></trkpt><trkpt lat="45.7438317" lon="11.5227167"><ele>147.0</ele><time>2026-03-28T14:46:47.142Z</time></trkpt><trkpt lat="45.7437317" lon="11.5227317"><ele>147.0</ele><time>2026-03-28T14:46:49.142Z</time></trkpt><trkpt lat="45.7436517" lon="11.5227517"><ele>147.0</ele><time>2026-03-28T14:46:51.142Z</time></trkpt><trkpt lat="45.74358" lon="11.5227533"><ele>147.0</ele><time>2026-03-28T14:46:53.142Z</time></trkpt><trkpt lat="45.7435083" lon="11.5227567"><ele>147.0</ele><time>2026-03-28T14:46:56.142Z</time></trkpt><trkpt lat="45.743445" lon="11.5227517"><ele>147.0</ele><time>2026-03-28T14:46:58.142Z</time></trkpt><trkpt lat="45.743355" lon="11.522765"><ele>147.0</ele><time>2026-03-28T14:47:01.141Z</time></trkpt><trkpt lat="45.7432917" lon="11.52278"><ele>147.0</ele><time>2026-03-28T14:47:03.142Z</time></trkpt><trkpt lat="45.743195" lon="11.5227933"><ele>147.0</ele><time>2026-03-28T14:47:06.142Z</time></trkpt><trkpt lat="45.7431017" lon="11.52281"><ele>147.0</ele><time>2026-03-28T14:47:09.142Z</time></trkpt><trkpt lat="45.743005" lon="11.5228267"><ele>147.0</ele><time>2026-03-28T14:47:11.142Z</time></trkpt><trkpt lat="45.74291" lon="11.5228383"><ele>147.0</ele><time>2026-03-28T14:47:13.142Z</time></trkpt><trkpt lat="45.7428383" lon="11.5228483"><ele>147.0</ele><time>2026-03-28T14:47:15.142Z</time></trkpt><trkpt lat="45.7427217" lon="11.52287"><ele>147.0</ele><time>2026-03-28T14:47:17.142Z</time></trkpt><trkpt lat="45.7426167" lon="11.5228933"><ele>147.0</ele><time>2026-03-28T14:47:19.142Z</time></trkpt><trkpt lat="45.7425167" lon="11.522905"><ele>147.0</ele><time>2026-03-28T14:47:21.141Z</time></trkpt><trkpt lat="45.74242" lon="11.5229133"><ele>147.0</ele><time>2026-03-28T14:47:23.142Z</time></trkpt><trkpt lat="45.7423317" lon="11.5229267"><ele>146.83333333333334</ele><time>2026-03-28T14:47:25.141Z</time></trkpt><trkpt lat="45.742265" lon="11.52294"><ele>146.66666666666666</ele><time>2026-03-28T14:47:27.141Z</time></trkpt><trkpt lat="45.742185" lon="11.5229567"><ele>146.5</ele><time>2026-03-28T14:47:29.142Z</time></trkpt><trkpt lat="45.742115" lon="11.5229517"><ele>146.33333333333331</ele><time>2026-03-28T14:47:31.142Z</time></trkpt><trkpt lat="45.7420333" lon="11.5229217"><ele>146.16666666666666</ele><time>2026-03-28T14:47:33.142Z</time></trkpt><trkpt lat="45.74197" lon="11.5229"><ele>146.0</ele><time>2026-03-28T14:47:36.142Z</time></trkpt><trkpt lat="45.741875" lon="11.5228883"><ele>145.83333333333331</ele><time>2026-03-28T14:47:55.142Z</time></trkpt><trkpt lat="45.7418933" lon="11.522995"><ele>145.66666666666666</ele><time>2026-03-28T14:49:33.142Z</time></trkpt><trkpt lat="45.7419583" lon="11.52304"><ele>145.5</ele><time>2026-03-28T14:49:37.141Z</time></trkpt><trkpt lat="45.742035" lon="11.523025"><ele>145.33333333333334</ele><time>2026-03-28T14:49:39.141Z</time></trkpt><trkpt lat="45.7421383" lon="11.52303"><ele>145.16666666666669</ele><time>2026-03-28T14:49:41.141Z</time></trkpt><trkpt lat="45.7422317" lon="11.523025"><ele>145.0</ele><time>2026-03-28T14:49:43.141Z</time></trkpt><trkpt lat="45.742305" lon="11.52301"><ele>145.0</ele><time>2026-03-28T14:49:45.141Z</time></trkpt><trkpt lat="45.7423883" lon="11.5230117"><ele>145.0</ele><time>2026-03-28T14:49:48.142Z</time></trkpt><trkpt lat="45.74243" lon="11.5231983"><ele>145.0</ele><time>2026-03-28T14:51:11.142Z</time></trkpt><trkpt lat="45.7424967" lon="11.523135"><ele>145.0</ele><time>2026-03-28T14:53:37.141Z</time></trkpt><trkpt lat="45.7425983" lon="11.5231"><ele>145.0</ele><time>2026-03-28T14:54:29.142Z</time></trkpt><trkpt lat="45.7425183" lon="11.5230517"><ele>145.0</ele><time>2026-03-28T14:54:34.142Z</time></trkpt><trkpt lat="45.7424667" lon="11.5229917"><ele>145.0</ele><time>2026-03-28T14:54:37.142Z</time></trkpt><trkpt lat="45.7424683" lon="11.5230833"><ele>145.0</ele><time>2026-03-28T14:54:46.141Z</time></trkpt><trkpt lat="45.7425333" lon="11.523065"><ele>145.0</ele><time>2026-03-28T14:54:50.142Z</time></trkpt><trkpt lat="45.7426" lon="11.5230633"><ele>145.0</ele><time>2026-03-28T14:54:54.141Z</time></trkpt><trkpt lat="45.7426717" lon="11.52313"><ele>145.0</ele><time>2026-03-28T14:55:01.142Z</time></trkpt><trkpt lat="45.742675" lon="11.5232267"><ele>145.0</ele><time>2026-03-28T14:55:05.142Z</time></trkpt><trkpt lat="45.74265" lon="11.5231283"><ele>145.0</ele><time>2026-03-28T14:55:21.141Z</time></trkpt><trkpt lat="45.7426967" lon="11.52319"><ele>145.0</ele><time>2026-03-28T14:58:00.141Z</time></trkpt><trkpt lat="45.7426767" lon="11.5230867"><ele>145.0</ele><time>2026-03-28T14:59:42.141Z</time></trkpt><trkpt lat="45.7426183" lon="11.52299"><ele>145.0</ele><time>2026-03-28T14:59:50.141Z</time></trkpt><trkpt lat="45.742555" lon="11.5229933"><ele>145.0</ele><time>2026-03-28T14:59:52.141Z</time></trkpt><trkpt lat="45.7425917" lon="11.5230867"><ele>145.0</ele><time>2026-03-28T14:59:55.141Z</time></trkpt><trkpt lat="45.7425358" lon="11.5230423"><ele>145.0</ele><time>2026-03-28T15:00:17.184Z</time></trkpt><trkpt lat="45.7425155" lon="11.5231287"><ele>145.0</ele><time>2026-03-28T15:00:47.211Z</time></trkpt><trkpt lat="45.7425633" lon="11.5231933"><ele>145.0</ele><time>2026-03-28T15:04:34.141Z</time></trkpt><trkpt lat="45.7425517" lon="11.5231017"><ele>145.0</ele><time>2026-03-28T15:05:17.141Z</time></trkpt><trkpt lat="45.74249" lon="11.52314"><ele>145.0</ele><time>2026-03-28T15:15:28.139Z</time></trkpt><trkpt lat="45.7425533" lon="11.5231667"><ele>145.0</ele><time>2026-03-28T15:16:31.14Z</time></trkpt><trkpt lat="45.7425267" lon="11.5230833"><ele>145.0</ele><time>2026-03-28T15:25:16.139Z</time></trkpt><trkpt lat="45.7425783" lon="11.523025"><ele>145.0</ele><time>2026-03-28T15:25:42.14Z</time></trkpt><trkpt lat="45.7426233" lon="11.5231217"><ele>145.0</ele><time>2026-03-28T15:25:47.14Z</time></trkpt><trkpt lat="45.7426717" lon="11.5232067"><ele>145.0</ele><time>2026-03-28T15:25:53.14Z</time></trkpt><trkpt lat="45.74264" lon="11.523335"><ele>145.0</ele><time>2026-03-28T15:26:18.14Z</time></trkpt><trkpt lat="45.7426333" lon="11.5232367"><ele>145.0</ele><time>2026-03-28T15:26:21.138Z</time></trkpt><trkpt lat="45.7425833" lon="11.5231783"><ele>145.0</ele><time>2026-03-28T15:26:29.139Z</time></trkpt><trkpt lat="45.742525" lon="11.5231217"><ele>145.0</ele><time>2026-03-28T15:26:35.138Z</time></trkpt><trkpt lat="45.74242" lon="11.52309"><ele>145.0</ele><time>2026-03-28T15:29:52.139Z</time></trkpt><trkpt lat="45.74249" lon="11.523095"><ele>145.0</ele><time>2026-03-28T15:34:02.139Z</time></trkpt><trkpt lat="45.7423983" lon="11.5230483"><ele>145.0</ele><time>2026-03-28T15:34:06.139Z</time></trkpt><trkpt lat="45.74233" lon="11.52305"><ele>145.0</ele><time>2026-03-28T15:34:07.139Z</time></trkpt><trkpt lat="45.7422417" lon="11.5230733"><ele>145.0</ele><time>2026-03-28T15:34:08.139Z</time></trkpt><trkpt lat="45.7421483" lon="11.5231017"><ele>145.0</ele><time>2026-03-28T15:34:09.139Z</time></trkpt><trkpt lat="45.742065" lon="11.5231267"><ele>145.0</ele><time>2026-03-28T15:34:10.139Z</time></trkpt><trkpt lat="45.7419933" lon="11.52316"><ele>145.0</ele><time>2026-03-28T15:34:11.139Z</time></trkpt><trkpt lat="45.74194" lon="11.52321"><ele>145.0</ele><time>2026-03-28T15:34:12.138Z</time></trkpt><trkpt lat="45.741875" lon="11.523365"><ele>145.0</ele><time>2026-03-28T15:34:14.139Z</time></trkpt><trkpt lat="45.74186" lon="11.5234817"><ele>145.0</ele><time>2026-03-28T15:34:15.138Z</time></trkpt><trkpt lat="45.74186" lon="11.5236133"><ele>145.0</ele><time>2026-03-28T15:34:16.139Z</time></trkpt><trkpt lat="45.74186" lon="11.5237283"><ele>144.66666666666669</ele><time>2026-03-28T15:34:17.138Z</time></trkpt><trkpt lat="45.74186" lon="11.5238317"><ele>144.33333333333334</ele><time>2026-03-28T15:34:18.138Z</time></trkpt><trkpt lat="45.7418583" lon="11.5239267"><ele>144.0</ele><time>2026-03-28T15:34:19.138Z</time></trkpt><trkpt lat="45.7418533" lon="11.52402"><ele>143.66666666666666</ele><time>2026-03-28T15:34:21.139Z</time></trkpt><trkpt lat="45.7417417" lon="11.5240683"><ele>143.33333333333331</ele><time>2026-03-28T15:34:25.139Z</time></trkpt><trkpt lat="45.7416617" lon="11.524065"><ele>143.0</ele><time>2026-03-28T15:34:26.139Z</time></trkpt><trkpt lat="45.74157" lon="11.5240433"><ele>143.0</ele><time>2026-03-28T15:34:27.139Z</time></trkpt><trkpt lat="45.7414633" lon="11.5240117"><ele>143.0</ele><time>2026-03-28T15:34:28.139Z</time></trkpt><trkpt lat="45.7413533" lon="11.523985"><ele>143.0</ele><time>2026-03-28T15:34:29.139Z</time></trkpt><trkpt lat="45.7412483" lon="11.52397"><ele>143.0</ele><time>2026-03-28T15:34:30.139Z</time></trkpt><trkpt lat="45.7411583" lon="11.5239617"><ele>143.0</ele><time>2026-03-28T15:34:31.139Z</time></trkpt><trkpt lat="45.7410683" lon="11.5239517"><ele>143.0</ele><time>2026-03-28T15:34:32.139Z</time></trkpt><trkpt lat="45.74098" lon="11.5239433"><ele>143.0</ele><time>2026-03-28T15:34:33.139Z</time></trkpt><trkpt lat="45.7408867" lon="11.52394"><ele>143.0</ele><time>2026-03-28T15:34:34.139Z</time></trkpt><trkpt lat="45.7408017" lon="11.52395"><ele>143.0</ele><time>2026-03-28T15:34:35.139Z</time></trkpt><trkpt lat="45.7407183" lon="11.523975"><ele>143.0</ele><time>2026-03-28T15:34:36.139Z</time></trkpt><trkpt lat="45.7406533" lon="11.5240017"><ele>143.0</ele><time>2026-03-28T15:34:37.139Z</time></trkpt><trkpt lat="45.740575" lon="11.52406"><ele>143.0</ele><time>2026-03-28T15:34:38.139Z</time></trkpt><trkpt lat="45.7405083" lon="11.5241633"><ele>143.0</ele><time>2026-03-28T15:34:39.139Z</time></trkpt><trkpt lat="45.7404533" lon="11.5242717"><ele>143.0</ele><time>2026-03-28T15:34:40.139Z</time></trkpt><trkpt lat="45.7404033" lon="11.5243867"><ele>143.0</ele><time>2026-03-28T15:34:41.139Z</time></trkpt><trkpt lat="45.7403567" lon="11.5245133"><ele>143.0</ele><time>2026-03-28T15:34:42.139Z</time></trkpt><trkpt lat="45.7403133" lon="11.52464"><ele>142.5</ele><time>2026-03-28T15:34:43.138Z</time></trkpt><trkpt lat="45.7402617" lon="11.5247883"><ele>142.0</ele><time>2026-03-28T15:34:44.138Z</time></trkpt><trkpt lat="45.74021" lon="11.5249633"><ele>141.5</ele><time>2026-03-28T15:34:45.139Z</time></trkpt><trkpt lat="45.7401567" lon="11.52515"><ele>141.0</ele><time>2026-03-28T15:34:46.138Z</time></trkpt><trkpt lat="45.7400983" lon="11.52535"><ele>140.75</ele><time>2026-03-28T15:34:47.139Z</time></trkpt><trkpt lat="45.74005" lon="11.5255333"><ele>140.5</ele><time>2026-03-28T15:34:48.139Z</time></trkpt><trkpt lat="45.740015" lon="11.5257017"><ele>140.25</ele><time>2026-03-28T15:34:49.139Z</time></trkpt><trkpt lat="45.7399917" lon="11.5258683"><ele>140.0</ele><time>2026-03-28T15:34:50.139Z</time></trkpt><trkpt lat="45.739975" lon="11.526035"><ele>140.0</ele><time>2026-03-28T15:34:51.139Z</time></trkpt><trkpt lat="45.73997" lon="11.5262067"><ele>140.0</ele><time>2026-03-28T15:34:52.139Z</time></trkpt><trkpt lat="45.7399667" lon="11.5263617"><ele>140.0</ele><time>2026-03-28T15:34:53.139Z</time></trkpt><trkpt lat="45.7399767" lon="11.5265017"><ele>140.0</ele><time>2026-03-28T15:34:54.139Z</time></trkpt><trkpt lat="45.7399883" lon="11.5266233"><ele>140.0</ele><time>2026-03-28T15:34:55.139Z</time></trkpt><trkpt lat="45.7399883" lon="11.5267233"><ele>139.6</ele><time>2026-03-28T15:34:56.138Z</time></trkpt><trkpt lat="45.7399783" lon="11.5269"><ele>139.2</ele><time>2026-03-28T15:34:58.139Z</time></trkpt><trkpt lat="45.7399817" lon="11.5269967"><ele>138.8</ele><time>2026-03-28T15:34:59.139Z</time></trkpt><trkpt lat="45.73999" lon="11.5271633"><ele>138.4</ele><time>2026-03-28T15:35:01.139Z</time></trkpt><trkpt lat="45.7399933" lon="11.5273333"><ele>138.0</ele><time>2026-03-28T15:35:03.139Z</time></trkpt><trkpt lat="45.7399967" lon="11.5274317"><ele>138.0</ele><time>2026-03-28T15:35:04.138Z</time></trkpt><trkpt lat="45.74" lon="11.52756"><ele>138.0</ele><time>2026-03-28T15:35:05.139Z</time></trkpt><trkpt lat="45.7400033" lon="11.52771"><ele>138.0</ele><time>2026-03-28T15:35:06.139Z</time></trkpt><trkpt lat="45.7400083" lon="11.5278667"><ele>138.0</ele><time>2026-03-28T15:35:07.139Z</time></trkpt><trkpt lat="45.740015" lon="11.5280233"><ele>138.0</ele><time>2026-03-28T15:35:08.138Z</time></trkpt><trkpt lat="45.7400133" lon="11.52817"><ele>137.75</ele><time>2026-03-28T15:35:09.139Z</time></trkpt><trkpt lat="45.740015" lon="11.528325"><ele>137.5</ele><time>2026-03-28T15:35:10.139Z</time></trkpt><trkpt lat="45.7400167" lon="11.5284967"><ele>137.25</ele><time>2026-03-28T15:35:11.139Z</time></trkpt><trkpt lat="45.740005" lon="11.5286783"><ele>137.0</ele><time>2026-03-28T15:35:12.139Z</time></trkpt><trkpt lat="45.7399967" lon="11.528835"><ele>136.79999999999998</ele><time>2026-03-28T15:35:13.138Z</time></trkpt><trkpt lat="45.7399883" lon="11.5289967"><ele>136.6</ele><time>2026-03-28T15:35:14.139Z</time></trkpt><trkpt lat="45.7399733" lon="11.529155"><ele>136.39999999999998</ele><time>2026-03-28T15:35:15.138Z</time></trkpt><trkpt lat="45.739945" lon="11.5292933"><ele>136.2</ele><time>2026-03-28T15:35:16.138Z</time></trkpt><trkpt lat="45.7399233" lon="11.5294283"><ele>136.0</ele><time>2026-03-28T15:35:17.139Z</time></trkpt><trkpt lat="45.739905" lon="11.5295583"><ele>136.4</ele><time>2026-03-28T15:35:18.139Z</time></trkpt><trkpt lat="45.739885" lon="11.5296967"><ele>136.8</ele><time>2026-03-28T15:35:19.139Z</time></trkpt><trkpt lat="45.7398583" lon="11.5298333"><ele>137.20000000000002</ele><time>2026-03-28T15:35:20.139Z</time></trkpt><trkpt lat="45.7398383" lon="11.52996"><ele>137.6</ele><time>2026-03-28T15:35:21.138Z</time></trkpt><trkpt lat="45.73982" lon="11.530075"><ele>138.0</ele><time>2026-03-28T15:35:22.139Z</time></trkpt><trkpt lat="45.7398033" lon="11.530195"><ele>138.0</ele><time>2026-03-28T15:35:23.139Z</time></trkpt><trkpt lat="45.73979" lon="11.5303067"><ele>138.0</ele><time>2026-03-28T15:35:24.139Z</time></trkpt><trkpt lat="45.739765" lon="11.530445"><ele>138.0</ele><time>2026-03-28T15:35:26.138Z</time></trkpt><trkpt lat="45.7397017" lon="11.5305567"><ele>138.0</ele><time>2026-03-28T15:35:28.138Z</time></trkpt><trkpt lat="45.739645" lon="11.530625"><ele>138.0</ele><time>2026-03-28T15:35:29.139Z</time></trkpt><trkpt lat="45.7395917" lon="11.5307133"><ele>138.0</ele><time>2026-03-28T15:35:30.138Z</time></trkpt><trkpt lat="45.7395467" lon="11.5308083"><ele>137.66666666666666</ele><time>2026-03-28T15:35:31.139Z</time></trkpt><trkpt lat="45.7395" lon="11.5308983"><ele>137.33333333333334</ele><time>2026-03-28T15:35:32.139Z</time></trkpt><trkpt lat="45.7394567" lon="11.5309783"><ele>137.0</ele><time>2026-03-28T15:35:33.138Z</time></trkpt><trkpt lat="45.7394117" lon="11.5310683"><ele>136.66666666666669</ele><time>2026-03-28T15:35:34.139Z</time></trkpt><trkpt lat="45.739365" lon="11.531155"><ele>136.33333333333334</ele><time>2026-03-28T15:35:35.139Z</time></trkpt><trkpt lat="45.7393217" lon="11.53125"><ele>136.0</ele><time>2026-03-28T15:35:36.139Z</time></trkpt><trkpt lat="45.7392817" lon="11.5313383"><ele>134.6</ele><time>2026-03-28T15:35:37.139Z</time></trkpt><trkpt lat="45.7392383" lon="11.531435"><ele>133.2</ele><time>2026-03-28T15:35:38.139Z</time></trkpt><trkpt lat="45.739195" lon="11.5315317"><ele>131.8</ele><time>2026-03-28T15:35:39.139Z</time></trkpt><trkpt lat="45.7391433" lon="11.5316483"><ele>130.4</ele><time>2026-03-28T15:35:40.138Z</time></trkpt><trkpt lat="45.7390967" lon="11.5317783"><ele>129.0</ele><time>2026-03-28T15:35:41.139Z</time></trkpt><trkpt lat="45.7390417" lon="11.5319167"><ele>129.0</ele><time>2026-03-28T15:35:42.139Z</time></trkpt><trkpt lat="45.738995" lon="11.53204"><ele>129.0</ele><time>2026-03-28T15:35:43.138Z</time></trkpt><trkpt lat="45.738945" lon="11.5321583"><ele>129.0</ele><time>2026-03-28T15:35:44.139Z</time></trkpt><trkpt lat="45.7388767" lon="11.5322683"><ele>129.0</ele><time>2026-03-28T15:35:45.139Z</time></trkpt><trkpt lat="45.7388183" lon="11.5323617"><ele>129.0</ele><time>2026-03-28T15:35:46.139Z</time></trkpt><trkpt lat="45.7387533" lon="11.5324783"><ele>129.0</ele><time>2026-03-28T15:35:47.138Z</time></trkpt><trkpt lat="45.7387017" lon="11.5325867"><ele>129.0</ele><time>2026-03-28T15:35:48.138Z</time></trkpt><trkpt lat="45.738655" lon="11.5326967"><ele>129.0</ele><time>2026-03-28T15:35:49.139Z</time></trkpt><trkpt lat="45.73861" lon="11.5327983"><ele>129.0</ele><time>2026-03-28T15:35:50.139Z</time></trkpt><trkpt lat="45.738565" lon="11.5329067"><ele>129.0</ele><time>2026-03-28T15:35:51.139Z</time></trkpt><trkpt lat="45.738515" lon="11.5330233"><ele>129.0</ele><time>2026-03-28T15:35:52.138Z</time></trkpt><trkpt lat="45.73846" lon="11.5331417"><ele>129.0</ele><time>2026-03-28T15:35:53.139Z</time></trkpt><trkpt lat="45.7384017" lon="11.5332583"><ele>129.0</ele><time>2026-03-28T15:35:54.139Z</time></trkpt><trkpt lat="45.7383417" lon="11.5333783"><ele>129.0</ele><time>2026-03-28T15:35:55.139Z</time></trkpt><trkpt lat="45.7382883" lon="11.5334983"><ele>129.0</ele><time>2026-03-28T15:35:56.139Z</time></trkpt><trkpt lat="45.738235" lon="11.53362"><ele>129.0</ele><time>2026-03-28T15:35:57.139Z</time></trkpt><trkpt lat="45.7381817" lon="11.533745"><ele>128.8</ele><time>2026-03-28T15:35:58.138Z</time></trkpt><trkpt lat="45.7381267" lon="11.5338717"><ele>128.60000000000002</ele><time>2026-03-28T15:35:59.139Z</time></trkpt><trkpt lat="45.7380717" lon="11.5339917"><ele>128.4</ele><time>2026-03-28T15:36:00.139Z</time></trkpt><trkpt lat="45.7380167" lon="11.5341067"><ele>128.20000000000002</ele><time>2026-03-28T15:36:01.139Z</time></trkpt><trkpt lat="45.7379633" lon="11.5342"><ele>128.0</ele><time>2026-03-28T15:36:02.139Z</time></trkpt><trkpt lat="45.7379167" lon="11.53428"><ele>128.0</ele><time>2026-03-28T15:36:03.139Z</time></trkpt><trkpt lat="45.7378717" lon="11.5343533"><ele>127.99999999999999</ele><time>2026-03-28T15:36:04.139Z</time></trkpt><trkpt lat="45.7378233" lon="11.53443"><ele>128.0</ele><time>2026-03-28T15:36:05.138Z</time></trkpt><trkpt lat="45.7377767" lon="11.534515"><ele>128.0</ele><time>2026-03-28T15:36:06.139Z</time></trkpt><trkpt lat="45.7377317" lon="11.5346083"><ele>127.99999999999999</ele><time>2026-03-28T15:36:07.138Z</time></trkpt><trkpt lat="45.7376833" lon="11.5347"><ele>128.0</ele><time>2026-03-28T15:36:08.139Z</time></trkpt><trkpt lat="45.7376383" lon="11.53478"><ele>128.0</ele><time>2026-03-28T15:36:09.139Z</time></trkpt><trkpt lat="45.7375933" lon="11.534855"><ele>128.66666666666666</ele><time>2026-03-28T15:36:10.139Z</time></trkpt><trkpt lat="45.7375333" lon="11.5349083"><ele>129.33333333333331</ele><time>2026-03-28T15:36:11.138Z</time></trkpt><trkpt lat="45.737465" lon="11.5349567"><ele>130.0</ele><time>2026-03-28T15:36:12.139Z</time></trkpt><trkpt lat="45.7373817" lon="11.535"><ele>130.66666666666666</ele><time>2026-03-28T15:36:13.139Z</time></trkpt><trkpt lat="45.7373033" lon="11.5350367"><ele>131.33333333333334</ele><time>2026-03-28T15:36:14.138Z</time></trkpt><trkpt lat="45.7372167" lon="11.5350733"><ele>132.0</ele><time>2026-03-28T15:36:15.139Z</time></trkpt><trkpt lat="45.7371433" lon="11.53509"><ele>132.0</ele><time>2026-03-28T15:36:16.139Z</time></trkpt><trkpt lat="45.7370583" lon="11.5350983"><ele>132.0</ele><time>2026-03-28T15:36:17.138Z</time></trkpt><trkpt lat="45.736965" lon="11.535105"><ele>132.0</ele><time>2026-03-28T15:36:18.139Z</time></trkpt><trkpt lat="45.7368583" lon="11.53511"><ele>132.0</ele><time>2026-03-28T15:36:19.139Z</time></trkpt><trkpt lat="45.7367433" lon="11.5351167"><ele>132.0</ele><time>2026-03-28T15:36:20.139Z</time></trkpt><trkpt lat="45.7366317" lon="11.5351233"><ele>131.33333333333334</ele><time>2026-03-28T15:36:21.139Z</time></trkpt><trkpt lat="45.7365317" lon="11.5351283"><ele>130.66666666666666</ele><time>2026-03-28T15:36:22.139Z</time></trkpt><trkpt lat="45.736445" lon="11.53513"><ele>130.0</ele><time>2026-03-28T15:36:23.139Z</time></trkpt><trkpt lat="45.7363533" lon="11.5351383"><ele>129.33333333333331</ele><time>2026-03-28T15:36:24.139Z</time></trkpt><trkpt lat="45.7362683" lon="11.53516"><ele>128.66666666666666</ele><time>2026-03-28T15:36:25.138Z</time></trkpt><trkpt lat="45.7361917" lon="11.535185"><ele>128.0</ele><time>2026-03-28T15:36:26.139Z</time></trkpt><trkpt lat="45.7361167" lon="11.5352167"><ele>127.85714285714285</ele><time>2026-03-28T15:36:27.139Z</time></trkpt><trkpt lat="45.7360433" lon="11.5352367"><ele>127.7142857142857</ele><time>2026-03-28T15:36:28.138Z</time></trkpt><trkpt lat="45.7359667" lon="11.535265"><ele>127.57142857142857</ele><time>2026-03-28T15:36:29.139Z</time></trkpt><trkpt lat="45.7359033" lon="11.53529"><ele>127.42857142857142</ele><time>2026-03-28T15:36:30.139Z</time></trkpt><trkpt lat="45.7358417" lon="11.53532"><ele>127.28571428571428</ele><time>2026-03-28T15:36:32.139Z</time></trkpt><trkpt lat="45.7357817" lon="11.53536"><ele>127.14285714285714</ele><time>2026-03-28T15:36:35.139Z</time></trkpt><trkpt lat="45.7357133" lon="11.5354083"><ele>127.0</ele><time>2026-03-28T15:36:37.139Z</time></trkpt><trkpt lat="45.735605" lon="11.53545"><ele>127.0</ele><time>2026-03-28T15:36:39.138Z</time></trkpt><trkpt lat="45.735495" lon="11.5354933"><ele>126.99999999999999</ele><time>2026-03-28T15:36:41.138Z</time></trkpt><trkpt lat="45.7354083" lon="11.5354967"><ele>126.99999999999999</ele><time>2026-03-28T15:36:43.139Z</time></trkpt><trkpt lat="45.73534" lon="11.535495"><ele>127.0</ele><time>2026-03-28T15:36:47.139Z</time></trkpt><trkpt lat="45.7352067" lon="11.53559"><ele>127.0</ele><time>2026-03-28T15:37:29.139Z</time></trkpt><trkpt lat="45.735145" lon="11.5356583"><ele>127.00000000000001</ele><time>2026-03-28T15:37:30.139Z</time></trkpt><trkpt lat="45.7350867" lon="11.5357067"><ele>127.0</ele><time>2026-03-28T15:37:32.138Z</time></trkpt><trkpt lat="45.7349933" lon="11.535745"><ele>127.0</ele><time>2026-03-28T15:37:34.139Z</time></trkpt><trkpt lat="45.73491" lon="11.5357783"><ele>127.0</ele><time>2026-03-28T15:37:36.139Z</time></trkpt><trkpt lat="45.7348467" lon="11.535795"><ele>127.00000000000001</ele><time>2026-03-28T15:37:38.139Z</time></trkpt><trkpt lat="45.7347817" lon="11.535795"><ele>127.0</ele><time>2026-03-28T15:37:43.139Z</time></trkpt><trkpt lat="45.734675" lon="11.5357733"><ele>127.00000000000001</ele><time>2026-03-28T15:37:54.139Z</time></trkpt><trkpt lat="45.7345967" lon="11.5358"><ele>127.0</ele><time>2026-03-28T15:37:56.139Z</time></trkpt><trkpt lat="45.73448" lon="11.535835"><ele>127.0</ele><time>2026-03-28T15:37:58.138Z</time></trkpt><trkpt lat="45.73441" lon="11.535855"><ele>127.0</ele><time>2026-03-28T15:37:59.139Z</time></trkpt><trkpt lat="45.7343433" lon="11.535875"><ele>127.00000000000001</ele><time>2026-03-28T15:38:00.139Z</time></trkpt><trkpt lat="45.7342517" lon="11.535895"><ele>127.0</ele><time>2026-03-28T15:38:01.138Z</time></trkpt><trkpt lat="45.7341867" lon="11.53591"><ele>126.0</ele><time>2026-03-28T15:38:02.139Z</time></trkpt><trkpt lat="45.7340733" lon="11.5359317"><ele>124.99999999999999</ele><time>2026-03-28T15:38:04.138Z</time></trkpt><trkpt lat="45.7339683" lon="11.5359567"><ele>123.99999999999999</ele><time>2026-03-28T15:38:06.139Z</time></trkpt><trkpt lat="45.73386" lon="11.535985"><ele>123.0</ele><time>2026-03-28T15:38:08.138Z</time></trkpt><trkpt lat="45.733745" lon="11.5360133"><ele>122.0</ele><time>2026-03-28T15:38:10.138Z</time></trkpt><trkpt lat="45.73361" lon="11.5360367"><ele>121.66666666666666</ele><time>2026-03-28T15:38:12.139Z</time></trkpt><trkpt lat="45.7335317" lon="11.536055"><ele>121.33333333333333</ele><time>2026-03-28T15:38:13.139Z</time></trkpt><trkpt lat="45.7334533" lon="11.5360767"><ele>121.0</ele><time>2026-03-28T15:38:14.139Z</time></trkpt><trkpt lat="45.7333633" lon="11.536095"><ele>120.66666666666666</ele><time>2026-03-28T15:38:15.139Z</time></trkpt><trkpt lat="45.733265" lon="11.5361067"><ele>120.33333333333333</ele><time>2026-03-28T15:38:16.139Z</time></trkpt><trkpt lat="45.733165" lon="11.5361217"><ele>120.0</ele><time>2026-03-28T15:38:17.139Z</time></trkpt><trkpt lat="45.7330617" lon="11.5361333"><ele>120.0</ele><time>2026-03-28T15:38:18.139Z</time></trkpt><trkpt lat="45.732955" lon="11.5361383"><ele>120.0</ele><time>2026-03-28T15:38:19.138Z</time></trkpt><trkpt lat="45.732845" lon="11.5361417"><ele>120.0</ele><time>2026-03-28T15:38:20.139Z</time></trkpt><trkpt lat="45.7327367" lon="11.536145"><ele>120.0</ele><time>2026-03-28T15:38:21.139Z</time></trkpt><trkpt lat="45.7326333" lon="11.5361517"><ele>120.0</ele><time>2026-03-28T15:38:22.139Z</time></trkpt><trkpt lat="45.7325317" lon="11.5361717"><ele>119.8</ele><time>2026-03-28T15:38:23.139Z</time></trkpt><trkpt lat="45.73243" lon="11.5362033"><ele>119.6</ele><time>2026-03-28T15:38:24.139Z</time></trkpt><trkpt lat="45.7323267" lon="11.5362467"><ele>119.4</ele><time>2026-03-28T15:38:25.139Z</time></trkpt><trkpt lat="45.73223" lon="11.5362967"><ele>119.2</ele><time>2026-03-28T15:38:26.139Z</time></trkpt><trkpt lat="45.73213" lon="11.5363483"><ele>119.0</ele><time>2026-03-28T15:38:27.139Z</time></trkpt><trkpt lat="45.73203" lon="11.53641"><ele>119.4</ele><time>2026-03-28T15:38:28.139Z</time></trkpt><trkpt lat="45.7319317" lon="11.53648"><ele>119.80000000000001</ele><time>2026-03-28T15:38:29.139Z</time></trkpt><trkpt lat="45.73184" lon="11.5365533"><ele>120.19999999999999</ele><time>2026-03-28T15:38:30.139Z</time></trkpt><trkpt lat="45.7317433" lon="11.53663"><ele>120.6</ele><time>2026-03-28T15:38:31.139Z</time></trkpt><trkpt lat="45.7316483" lon="11.5367067"><ele>121.0</ele><time>2026-03-28T15:38:32.139Z</time></trkpt><trkpt lat="45.7315617" lon="11.5367783"><ele>121.0</ele><time>2026-03-28T15:38:33.138Z</time></trkpt><trkpt lat="45.731475" lon="11.53685"><ele>121.0</ele><time>2026-03-28T15:38:34.138Z</time></trkpt><trkpt lat="45.7313933" lon="11.53692"><ele>121.0</ele><time>2026-03-28T15:38:35.138Z</time></trkpt><trkpt lat="45.7313067" lon="11.536985"><ele>121.0</ele><time>2026-03-28T15:38:36.139Z</time></trkpt><trkpt lat="45.7312217" lon="11.5370517"><ele>121.0</ele><time>2026-03-28T15:38:37.139Z</time></trkpt><trkpt lat="45.7311333" lon="11.5371133"><ele>121.00000000000001</ele><time>2026-03-28T15:38:38.139Z</time></trkpt><trkpt lat="45.731065" lon="11.5371717"><ele>121.0</ele><time>2026-03-28T15:38:39.139Z</time></trkpt><trkpt lat="45.7309883" lon="11.5372283"><ele>121.0</ele><time>2026-03-28T15:38:40.138Z</time></trkpt><trkpt lat="45.7309133" lon="11.5372817"><ele>121.0</ele><time>2026-03-28T15:38:41.139Z</time></trkpt><trkpt lat="45.7308433" lon="11.5373383"><ele>121.00000000000001</ele><time>2026-03-28T15:38:42.139Z</time></trkpt><trkpt lat="45.7307733" lon="11.53738"><ele>121.0</ele><time>2026-03-28T15:38:43.139Z</time></trkpt><trkpt lat="45.7307183" lon="11.537425"><ele>121.00000000000001</ele><time>2026-03-28T15:38:44.139Z</time></trkpt><trkpt lat="45.730655" lon="11.5374783"><ele>121.0</ele><time>2026-03-28T15:38:45.138Z</time></trkpt><trkpt lat="45.7305933" lon="11.5375333"><ele>121.0</ele><time>2026-03-28T15:38:46.139Z</time></trkpt><trkpt lat="45.7305183" lon="11.5375883"><ele>121.0</ele><time>2026-03-28T15:38:47.139Z</time></trkpt><trkpt lat="45.7304383" lon="11.5376567"><ele>121.00000000000001</ele><time>2026-03-28T15:38:48.138Z</time></trkpt><trkpt lat="45.7303517" lon="11.5377167"><ele>121.0</ele><time>2026-03-28T15:38:49.138Z</time></trkpt><trkpt lat="45.73025" lon="11.5377683"><ele>120.5</ele><time>2026-03-28T15:38:50.139Z</time></trkpt><trkpt lat="45.73016" lon="11.5378267"><ele>120.0</ele><time>2026-03-28T15:38:51.139Z</time></trkpt><trkpt lat="45.730055" lon="11.5378883"><ele>119.5</ele><time>2026-03-28T15:38:52.138Z</time></trkpt><trkpt lat="45.7299433" lon="11.5379517"><ele>119.0</ele><time>2026-03-28T15:38:53.139Z</time></trkpt><trkpt lat="45.7298317" lon="11.5380183"><ele>119.5</ele><time>2026-03-28T15:38:54.139Z</time></trkpt><trkpt lat="45.729705" lon="11.5380883"><ele>120.0</ele><time>2026-03-28T15:38:55.139Z</time></trkpt><trkpt lat="45.7295917" lon="11.5381617"><ele>120.5</ele><time>2026-03-28T15:38:56.138Z</time></trkpt><trkpt lat="45.7294767" lon="11.5382417"><ele>121.0</ele><time>2026-03-28T15:38:57.138Z</time></trkpt><trkpt lat="45.7293683" lon="11.5383233"><ele>121.0</ele><time>2026-03-28T15:38:58.139Z</time></trkpt><trkpt lat="45.7292617" lon="11.5384083"><ele>121.0</ele><time>2026-03-28T15:38:59.139Z</time></trkpt><trkpt lat="45.72915" lon="11.5384917"><ele>121.0</ele><time>2026-03-28T15:39:00.139Z</time></trkpt><trkpt lat="45.7290417" lon="11.53857"><ele>121.0</ele><time>2026-03-28T15:39:01.139Z</time></trkpt><trkpt lat="45.7289317" lon="11.5386367"><ele>121.0</ele><time>2026-03-28T15:39:02.139Z</time></trkpt><trkpt lat="45.72883" lon="11.5386917"><ele>121.0</ele><time>2026-03-28T15:39:03.138Z</time></trkpt><trkpt lat="45.7287267" lon="11.5387367"><ele>121.0</ele><time>2026-03-28T15:39:04.139Z</time></trkpt><trkpt lat="45.7286283" lon="11.5387767"><ele>121.0</ele><time>2026-03-28T15:39:05.138Z</time></trkpt><trkpt lat="45.7285467" lon="11.5388117"><ele>121.0</ele><time>2026-03-28T15:39:06.139Z</time></trkpt><trkpt lat="45.7284633" lon="11.5388417"><ele>121.33333333333334</ele><time>2026-03-28T15:39:07.139Z</time></trkpt><trkpt lat="45.7283883" lon="11.53887"><ele>121.66666666666667</ele><time>2026-03-28T15:39:08.138Z</time></trkpt><trkpt lat="45.7283183" lon="11.5388883"><ele>122.0</ele><time>2026-03-28T15:39:09.138Z</time></trkpt><trkpt lat="45.7282333" lon="11.5389033"><ele>122.33333333333334</ele><time>2026-03-28T15:39:11.138Z</time></trkpt><trkpt lat="45.7281667" lon="11.5388917"><ele>122.66666666666667</ele><time>2026-03-28T15:39:13.139Z</time></trkpt><trkpt lat="45.7280917" lon="11.53885"><ele>123.0</ele><time>2026-03-28T15:39:16.138Z</time></trkpt><trkpt lat="45.7280317" lon="11.538785"><ele>123.0</ele><time>2026-03-28T15:39:18.139Z</time></trkpt><trkpt lat="45.727975" lon="11.5387417"><ele>123.00000000000001</ele><time>2026-03-28T15:39:20.139Z</time></trkpt><trkpt lat="45.7279083" lon="11.5387717"><ele>123.00000000000001</ele><time>2026-03-28T15:39:22.139Z</time></trkpt><trkpt lat="45.7277717" lon="11.5388233"><ele>123.0</ele><time>2026-03-28T15:39:24.138Z</time></trkpt><trkpt lat="45.72768" lon="11.53884"><ele>123.0</ele><time>2026-03-28T15:39:25.138Z</time></trkpt><trkpt lat="45.7275783" lon="11.5388483"><ele>122.66666666666667</ele><time>2026-03-28T15:39:26.138Z</time></trkpt><trkpt lat="45.7274917" lon="11.5388483"><ele>122.33333333333334</ele><time>2026-03-28T15:39:27.139Z</time></trkpt><trkpt lat="45.7274183" lon="11.538855"><ele>122.0</ele><time>2026-03-28T15:39:28.139Z</time></trkpt><trkpt lat="45.727355" lon="11.53886"><ele>121.66666666666667</ele><time>2026-03-28T15:39:29.139Z</time></trkpt><trkpt lat="45.7272433" lon="11.5388633"><ele>121.33333333333334</ele><time>2026-03-28T15:39:31.139Z</time></trkpt><trkpt lat="45.727165" lon="11.5388517"><ele>121.0</ele><time>2026-03-28T15:39:33.139Z</time></trkpt><trkpt lat="45.727095" lon="11.5388133"><ele>121.00000000000001</ele><time>2026-03-28T15:39:37.139Z</time></trkpt><trkpt lat="45.7270667" lon="11.5389383"><ele>121.0</ele><time>2026-03-28T15:39:42.139Z</time></trkpt><trkpt lat="45.7270683" lon="11.5390767"><ele>121.0</ele><time>2026-03-28T15:39:44.139Z</time></trkpt><trkpt lat="45.7270683" lon="11.5391983"><ele>121.0</ele><time>2026-03-28T15:39:46.139Z</time></trkpt><trkpt lat="45.7270367" lon="11.5392817"><ele>121.00000000000001</ele><time>2026-03-28T15:39:49.138Z</time></trkpt><trkpt lat="45.72696" lon="11.5392117"><ele>121.0</ele><time>2026-03-28T15:39:51.138Z</time></trkpt><trkpt lat="45.7268967" lon="11.5391533"><ele>121.6</ele><time>2026-03-28T15:39:52.139Z</time></trkpt><trkpt lat="45.7268167" lon="11.5391067"><ele>122.19999999999999</ele><time>2026-03-28T15:39:53.139Z</time></trkpt><trkpt lat="45.726725" lon="11.5390667"><ele>122.80000000000001</ele><time>2026-03-28T15:39:54.139Z</time></trkpt><trkpt lat="45.726635" lon="11.5390433"><ele>123.4</ele><time>2026-03-28T15:39:55.138Z</time></trkpt><trkpt lat="45.7265367" lon="11.5390117"><ele>124.0</ele><time>2026-03-28T15:39:56.139Z</time></trkpt><trkpt lat="45.7264317" lon="11.5389833"><ele>124.0</ele><time>2026-03-28T15:39:57.139Z</time></trkpt><trkpt lat="45.726325" lon="11.5389467"><ele>124.0</ele><time>2026-03-28T15:39:58.139Z</time></trkpt><trkpt lat="45.7262133" lon="11.538895"><ele>124.0</ele><time>2026-03-28T15:39:59.139Z</time></trkpt><trkpt lat="45.7260883" lon="11.5388333"><ele>124.0</ele><time>2026-03-28T15:40:00.139Z</time></trkpt><trkpt lat="45.7259733" lon="11.5387567"><ele>122.75</ele><time>2026-03-28T15:40:01.139Z</time></trkpt><trkpt lat="45.7258633" lon="11.5386717"><ele>121.5</ele><time>2026-03-28T15:40:02.138Z</time></trkpt><trkpt lat="45.72576" lon="11.538585"><ele>120.25</ele><time>2026-03-28T15:40:03.138Z</time></trkpt><trkpt lat="45.7256617" lon="11.5385133"><ele>119.0</ele><time>2026-03-28T15:40:04.139Z</time></trkpt><trkpt lat="45.7255667" lon="11.5384567"><ele>119.0</ele><time>2026-03-28T15:40:05.139Z</time></trkpt><trkpt lat="45.72547" lon="11.5384117"><ele>119.0</ele><time>2026-03-28T15:40:06.139Z</time></trkpt><trkpt lat="45.7253733" lon="11.5383867"><ele>119.0</ele><time>2026-03-28T15:40:07.139Z</time></trkpt><trkpt lat="45.7252733" lon="11.5383633"><ele>119.0</ele><time>2026-03-28T15:40:08.139Z</time></trkpt><trkpt lat="45.7251617" lon="11.5383383"><ele>119.0</ele><time>2026-03-28T15:40:09.139Z</time></trkpt><trkpt lat="45.7250567" lon="11.53832"><ele>119.66666666666666</ele><time>2026-03-28T15:40:10.138Z</time></trkpt><trkpt lat="45.7249583" lon="11.5383067"><ele>120.33333333333333</ele><time>2026-03-28T15:40:11.139Z</time></trkpt><trkpt lat="45.72486" lon="11.5382867"><ele>121.0</ele><time>2026-03-28T15:40:12.138Z</time></trkpt><trkpt lat="45.724775" lon="11.5382767"><ele>121.66666666666666</ele><time>2026-03-28T15:40:13.139Z</time></trkpt><trkpt lat="45.7246933" lon="11.5382633"><ele>122.33333333333333</ele><time>2026-03-28T15:40:14.139Z</time></trkpt><trkpt lat="45.7246167" lon="11.5382583"><ele>123.0</ele><time>2026-03-28T15:40:15.139Z</time></trkpt><trkpt lat="45.7245383" lon="11.5382517"><ele>123.0</ele><time>2026-03-28T15:40:16.139Z</time></trkpt><trkpt lat="45.7244717" lon="11.5382533"><ele>123.00000000000001</ele><time>2026-03-28T15:40:17.139Z</time></trkpt><trkpt lat="45.724375" lon="11.5382383"><ele>123.00000000000001</ele><time>2026-03-28T15:40:19.139Z</time></trkpt><trkpt lat="45.7242917" lon="11.53819"><ele>123.0</ele><time>2026-03-28T15:40:21.139Z</time></trkpt><trkpt lat="45.7242083" lon="11.5381517"><ele>123.0</ele><time>2026-03-28T15:40:23.139Z</time></trkpt><trkpt lat="45.7240833" lon="11.538175"><ele>122.83333333333333</ele><time>2026-03-28T15:40:25.138Z</time></trkpt><trkpt lat="45.7239967" lon="11.5382"><ele>122.66666666666666</ele><time>2026-03-28T15:40:26.139Z</time></trkpt><trkpt lat="45.7239033" lon="11.5382233"><ele>122.5</ele><time>2026-03-28T15:40:27.139Z</time></trkpt><trkpt lat="45.7238183" lon="11.53825"><ele>122.33333333333333</ele><time>2026-03-28T15:40:28.139Z</time></trkpt><trkpt lat="45.7237417" lon="11.5382717"><ele>122.16666666666666</ele><time>2026-03-28T15:40:29.139Z</time></trkpt><trkpt lat="45.7236783" lon="11.5382917"><ele>122.0</ele><time>2026-03-28T15:40:30.139Z</time></trkpt><trkpt lat="45.72359" lon="11.5383133"><ele>122.0</ele><time>2026-03-28T15:40:32.139Z</time></trkpt><trkpt lat="45.7235967" lon="11.5381733"><ele>121.99999999999999</ele><time>2026-03-28T15:40:40.139Z</time></trkpt><trkpt lat="45.7236033" lon="11.5380533"><ele>121.99999999999999</ele><time>2026-03-28T15:40:44.138Z</time></trkpt><trkpt lat="45.72361" lon="11.5378883"><ele>122.0</ele><time>2026-03-28T15:41:12.138Z</time></trkpt><trkpt lat="45.72353" lon="11.5379583"><ele>122.0</ele><time>2026-03-28T15:42:04.138Z</time></trkpt><trkpt lat="45.72346" lon="11.53795"><ele>121.6</ele><time>2026-03-28T15:42:05.137Z</time></trkpt><trkpt lat="45.7233767" lon="11.5379367"><ele>121.19999999999999</ele><time>2026-03-28T15:42:06.137Z</time></trkpt><trkpt lat="45.7232833" lon="11.5379133"><ele>120.8</ele><time>2026-03-28T15:42:07.138Z</time></trkpt><trkpt lat="45.7231967" lon="11.5378883"><ele>120.4</ele><time>2026-03-28T15:42:08.137Z</time></trkpt><trkpt lat="45.7230933" lon="11.537875"><ele>120.0</ele><time>2026-03-28T15:42:09.138Z</time></trkpt><trkpt lat="45.7229967" lon="11.5378867"><ele>120.0</ele><time>2026-03-28T15:42:10.138Z</time></trkpt><trkpt lat="45.7229083" lon="11.537915"><ele>120.0</ele><time>2026-03-28T15:42:11.137Z</time></trkpt><trkpt lat="45.7228117" lon="11.537965"><ele>120.0</ele><time>2026-03-28T15:42:12.138Z</time></trkpt><trkpt lat="45.7227117" lon="11.5380283"><ele>120.0</ele><time>2026-03-28T15:42:13.138Z</time></trkpt><trkpt lat="45.72264" lon="11.53807"><ele>120.0</ele><time>2026-03-28T15:42:14.138Z</time></trkpt><trkpt lat="45.7225517" lon="11.53811"><ele>119.33333333333333</ele><time>2026-03-28T15:42:16.137Z</time></trkpt><trkpt lat="45.7225167" lon="11.5381933"><ele>118.66666666666666</ele><time>2026-03-28T15:42:20.137Z</time></trkpt><trkpt lat="45.7224683" lon="11.5382717"><ele>118.0</ele><time>2026-03-28T15:42:22.138Z</time></trkpt><trkpt lat="45.7223867" lon="11.5383117"><ele>117.33333333333333</ele><time>2026-03-28T15:42:25.138Z</time></trkpt><trkpt lat="45.7223067" lon="11.53833"><ele>116.66666666666666</ele><time>2026-03-28T15:42:27.138Z</time></trkpt><trkpt lat="45.7222217" lon="11.5383433"><ele>116.0</ele><time>2026-03-28T15:42:29.137Z</time></trkpt><trkpt lat="45.7221133" lon="11.5383483"><ele>116.0</ele><time>2026-03-28T15:42:31.137Z</time></trkpt><trkpt lat="45.7220367" lon="11.5383533"><ele>116.0</ele><time>2026-03-28T15:42:32.137Z</time></trkpt><trkpt lat="45.7219517" lon="11.53836"><ele>116.0</ele><time>2026-03-28T15:42:33.138Z</time></trkpt><trkpt lat="45.7218583" lon="11.5383717"><ele>116.0</ele><time>2026-03-28T15:42:34.138Z</time></trkpt><trkpt lat="45.721755" lon="11.5383883"><ele>116.0</ele><time>2026-03-28T15:42:35.138Z</time></trkpt><trkpt lat="45.7216567" lon="11.5384167"><ele>115.6</ele><time>2026-03-28T15:42:36.138Z</time></trkpt><trkpt lat="45.7215733" lon="11.5384567"><ele>115.19999999999999</ele><time>2026-03-28T15:42:37.138Z</time></trkpt><trkpt lat="45.7214867" lon="11.5385133"><ele>114.80000000000001</ele><time>2026-03-28T15:42:38.138Z</time></trkpt><trkpt lat="45.7213967" lon="11.5385733"><ele>114.4</ele><time>2026-03-28T15:42:39.137Z</time></trkpt><trkpt lat="45.721305" lon="11.5386233"><ele>114.0</ele><time>2026-03-28T15:42:40.138Z</time></trkpt><trkpt lat="45.72122" lon="11.538665"><ele>114.0</ele><time>2026-03-28T15:42:41.138Z</time></trkpt><trkpt lat="45.7211467" lon="11.5386983"><ele>114.0</ele><time>2026-03-28T15:42:42.138Z</time></trkpt><trkpt lat="45.72108" lon="11.5387117"><ele>114.0</ele><time>2026-03-28T15:42:43.137Z</time></trkpt><trkpt lat="45.721005" lon="11.538715"><ele>114.0</ele><time>2026-03-28T15:42:44.138Z</time></trkpt><trkpt lat="45.7209033" lon="11.538725"><ele>114.0</ele><time>2026-03-28T15:42:46.138Z</time></trkpt><trkpt lat="45.72084" lon="11.5388017"><ele>114.0</ele><time>2026-03-28T15:42:48.137Z</time></trkpt><trkpt lat="45.7208117" lon="11.5389183"><ele>114.33333333333333</ele><time>2026-03-28T15:42:50.138Z</time></trkpt><trkpt lat="45.7207867" lon="11.53905"><ele>114.66666666666666</ele><time>2026-03-28T15:42:52.137Z</time></trkpt><trkpt lat="45.7207517" lon="11.53915"><ele>115.0</ele><time>2026-03-28T15:42:55.138Z</time></trkpt><trkpt lat="45.7207167" lon="11.5392583"><ele>115.33333333333333</ele><time>2026-03-28T15:43:13.138Z</time></trkpt><trkpt lat="45.7206167" lon="11.539305"><ele>115.66666666666666</ele><time>2026-03-28T15:43:16.137Z</time></trkpt><trkpt lat="45.7205467" lon="11.5393033"><ele>116.0</ele><time>2026-03-28T15:43:18.137Z</time></trkpt><trkpt lat="45.72047" lon="11.5393117"><ele>116.0</ele><time>2026-03-28T15:43:20.138Z</time></trkpt><trkpt lat="45.72041" lon="11.5393533"><ele>116.0</ele><time>2026-03-28T15:43:22.138Z</time></trkpt><trkpt lat="45.7203533" lon="11.539395"><ele>116.0</ele><time>2026-03-28T15:43:24.137Z</time></trkpt><trkpt lat="45.7202467" lon="11.5394183"><ele>116.0</ele><time>2026-03-28T15:43:26.138Z</time></trkpt><trkpt lat="45.7201617" lon="11.53944"><ele>116.0</ele><time>2026-03-28T15:43:28.138Z</time></trkpt><trkpt lat="45.7200333" lon="11.5395017"><ele>116.16666666666666</ele><time>2026-03-28T15:43:38.138Z</time></trkpt><trkpt lat="45.719965" lon="11.5395217"><ele>116.33333333333333</ele><time>2026-03-28T15:43:40.137Z</time></trkpt><trkpt lat="45.7198983" lon="11.5395433"><ele>116.5</ele><time>2026-03-28T15:43:41.137Z</time></trkpt><trkpt lat="45.7198283" lon="11.5395683"><ele>116.66666666666666</ele><time>2026-03-28T15:43:42.138Z</time></trkpt><trkpt lat="45.7197283" lon="11.5396033"><ele>116.83333333333333</ele><time>2026-03-28T15:43:43.138Z</time></trkpt><trkpt lat="45.7196083" lon="11.53965"><ele>117.0</ele><time>2026-03-28T15:43:44.138Z</time></trkpt><trkpt lat="45.7194817" lon="11.539695"><ele>116.5</ele><time>2026-03-28T15:43:45.137Z</time></trkpt><trkpt lat="45.7193633" lon="11.539725"><ele>116.0</ele><time>2026-03-28T15:43:46.137Z</time></trkpt><trkpt lat="45.7192483" lon="11.5397583"><ele>115.5</ele><time>2026-03-28T15:43:47.138Z</time></trkpt><trkpt lat="45.719125" lon="11.5397983"><ele>115.0</ele><time>2026-03-28T15:43:48.137Z</time></trkpt><trkpt lat="45.7190017" lon="11.5398383"><ele>115.0</ele><time>2026-03-28T15:43:49.138Z</time></trkpt><trkpt lat="45.7188933" lon="11.5398783"><ele>115.0</ele><time>2026-03-28T15:43:50.138Z</time></trkpt><trkpt lat="45.7187983" lon="11.5399183"><ele>115.0</ele><time>2026-03-28T15:43:51.138Z</time></trkpt><trkpt lat="45.71871" lon="11.53996"><ele>115.0</ele><time>2026-03-28T15:43:52.138Z</time></trkpt><trkpt lat="45.7186333" lon="11.54"><ele>115.0</ele><time>2026-03-28T15:43:53.137Z</time></trkpt><trkpt lat="45.7185683" lon="11.540035"><ele>114.8</ele><time>2026-03-28T15:43:54.138Z</time></trkpt><trkpt lat="45.7185017" lon="11.5401283"><ele>114.6</ele><time>2026-03-28T15:43:56.138Z</time></trkpt><trkpt lat="45.7184683" lon="11.54022"><ele>114.4</ele><time>2026-03-28T15:43:58.138Z</time></trkpt><trkpt lat="45.7185067" lon="11.5403283"><ele>114.2</ele><time>2026-03-28T15:44:00.137Z</time></trkpt><trkpt lat="45.7185917" lon="11.5404783"><ele>114.0</ele><time>2026-03-28T15:44:02.138Z</time></trkpt><trkpt lat="45.7186467" lon="11.540575"><ele>114.66666666666667</ele><time>2026-03-28T15:44:03.138Z</time></trkpt><trkpt lat="45.71869" lon="11.54067"><ele>115.33333333333334</ele><time>2026-03-28T15:44:04.138Z</time></trkpt><trkpt lat="45.7187183" lon="11.5407667"><ele>116.0</ele><time>2026-03-28T15:44:05.137Z</time></trkpt><trkpt lat="45.7187167" lon="11.5408883"><ele>116.66666666666667</ele><time>2026-03-28T15:44:07.138Z</time></trkpt><trkpt lat="45.718675" lon="11.5409667"><ele>117.33333333333334</ele><time>2026-03-28T15:44:10.138Z</time></trkpt><trkpt lat="45.7186567" lon="11.541085"><ele>118.0</ele><time>2026-03-28T15:44:16.138Z</time></trkpt><trkpt lat="45.71863" lon="11.5411717"><ele>117.83333333333334</ele><time>2026-03-28T15:44:19.138Z</time></trkpt><trkpt lat="45.7185617" lon="11.5411883"><ele>117.66666666666667</ele><time>2026-03-28T15:44:22.138Z</time></trkpt><trkpt lat="45.718495" lon="11.5411367"><ele>117.5</ele><time>2026-03-28T15:44:24.137Z</time></trkpt><trkpt lat="45.7184183" lon="11.541085"><ele>117.33333333333334</ele><time>2026-03-28T15:44:26.138Z</time></trkpt><trkpt lat="45.7183033" lon="11.541065"><ele>117.16666666666667</ele><time>2026-03-28T15:44:28.138Z</time></trkpt><trkpt lat="45.7182333" lon="11.5410717"><ele>117.0</ele><time>2026-03-28T15:44:29.138Z</time></trkpt><trkpt lat="45.7181633" lon="11.5410783"><ele>117.0</ele><time>2026-03-28T15:44:30.138Z</time></trkpt><trkpt lat="45.7180783" lon="11.5410867"><ele>116.99999999999999</ele><time>2026-03-28T15:44:31.137Z</time></trkpt><trkpt lat="45.7179917" lon="11.5410933"><ele>116.99999999999999</ele><time>2026-03-28T15:44:32.138Z</time></trkpt><trkpt lat="45.7178983" lon="11.5411017"><ele>117.0</ele><time>2026-03-28T15:44:33.137Z</time></trkpt><trkpt lat="45.717805" lon="11.54112"><ele>117.0</ele><time>2026-03-28T15:44:34.137Z</time></trkpt><trkpt lat="45.7177117" lon="11.541145"><ele>117.39999999999999</ele><time>2026-03-28T15:44:35.138Z</time></trkpt><trkpt lat="45.7176283" lon="11.5411633"><ele>117.79999999999998</ele><time>2026-03-28T15:44:36.138Z</time></trkpt><trkpt lat="45.7175467" lon="11.541175"><ele>118.2</ele><time>2026-03-28T15:44:37.138Z</time></trkpt><trkpt lat="45.71745" lon="11.5411933"><ele>118.6</ele><time>2026-03-28T15:44:38.138Z</time></trkpt><trkpt lat="45.7173467" lon="11.5412067"><ele>119.0</ele><time>2026-03-28T15:44:39.138Z</time></trkpt><trkpt lat="45.7172433" lon="11.541225"><ele>119.0</ele><time>2026-03-28T15:44:40.137Z</time></trkpt><trkpt lat="45.71714" lon="11.5412517"><ele>119.0</ele><time>2026-03-28T15:44:41.138Z</time></trkpt><trkpt lat="45.7170133" lon="11.5412733"><ele>119.0</ele><time>2026-03-28T15:44:42.137Z</time></trkpt><trkpt lat="45.7168767" lon="11.5412883"><ele>119.0</ele><time>2026-03-28T15:44:43.137Z</time></trkpt><trkpt lat="45.716745" lon="11.5413083"><ele>118.5</ele><time>2026-03-28T15:44:44.138Z</time></trkpt><trkpt lat="45.7166133" lon="11.5413217"><ele>118.0</ele><time>2026-03-28T15:44:45.138Z</time></trkpt><trkpt lat="45.71649" lon="11.541345"><ele>117.5</ele><time>2026-03-28T15:44:46.138Z</time></trkpt><trkpt lat="45.7163517" lon="11.541365"><ele>117.0</ele><time>2026-03-28T15:44:47.138Z</time></trkpt><trkpt lat="45.7162117" lon="11.5413867"><ele>117.0</ele><time>2026-03-28T15:44:48.137Z</time></trkpt><trkpt lat="45.7160933" lon="11.5414083"><ele>117.0</ele><time>2026-03-28T15:44:49.138Z</time></trkpt><trkpt lat="45.7159817" lon="11.5414317"><ele>117.0</ele><time>2026-03-28T15:44:50.137Z</time></trkpt><trkpt lat="45.7158667" lon="11.54145"><ele>117.0</ele><time>2026-03-28T15:44:51.138Z</time></trkpt><trkpt lat="45.71575" lon="11.5414583"><ele>116.6</ele><time>2026-03-28T15:44:52.138Z</time></trkpt><trkpt lat="45.7156517" lon="11.5414933"><ele>116.19999999999999</ele><time>2026-03-28T15:44:53.138Z</time></trkpt><trkpt lat="45.715555" lon="11.5415217"><ele>115.8</ele><time>2026-03-28T15:44:54.138Z</time></trkpt><trkpt lat="45.7154533" lon="11.541525"><ele>115.4</ele><time>2026-03-28T15:44:55.138Z</time></trkpt><trkpt lat="45.7153333" lon="11.5415117"><ele>115.0</ele><time>2026-03-28T15:44:56.138Z</time></trkpt><trkpt lat="45.7152133" lon="11.5415117"><ele>115.0</ele><time>2026-03-28T15:44:57.138Z</time></trkpt><trkpt lat="45.7151" lon="11.5415217"><ele>115.0</ele><time>2026-03-28T15:44:58.138Z</time></trkpt><trkpt lat="45.71498" lon="11.5415367"><ele>115.0</ele><time>2026-03-28T15:44:59.137Z</time></trkpt><trkpt lat="45.7148667" lon="11.5415633"><ele>115.0</ele><time>2026-03-28T15:45:00.138Z</time></trkpt><trkpt lat="45.7147467" lon="11.54159"><ele>115.0</ele><time>2026-03-28T15:45:01.138Z</time></trkpt><trkpt lat="45.7146267" lon="11.5416117"><ele>115.0</ele><time>2026-03-28T15:45:02.138Z</time></trkpt><trkpt lat="45.7145067" lon="11.5416333"><ele>115.0</ele><time>2026-03-28T15:45:03.138Z</time></trkpt><trkpt lat="45.71439" lon="11.5416483"><ele>115.0</ele><time>2026-03-28T15:45:04.138Z</time></trkpt><trkpt lat="45.714275" lon="11.5416517"><ele>114.8</ele><time>2026-03-28T15:45:05.138Z</time></trkpt><trkpt lat="45.71418" lon="11.541675"><ele>114.6</ele><time>2026-03-28T15:45:06.138Z</time></trkpt><trkpt lat="45.71406" lon="11.5417083"><ele>114.4</ele><time>2026-03-28T15:45:07.138Z</time></trkpt><trkpt lat="45.7139433" lon="11.5417233"><ele>114.2</ele><time>2026-03-28T15:45:08.138Z</time></trkpt><trkpt lat="45.7138333" lon="11.5417383"><ele>114.0</ele><time>2026-03-28T15:45:09.138Z</time></trkpt><trkpt lat="45.7137333" lon="11.5417367"><ele>114.0</ele><time>2026-03-28T15:45:10.138Z</time></trkpt><trkpt lat="45.7136283" lon="11.5417183"><ele>114.0</ele><time>2026-03-28T15:45:11.138Z</time></trkpt><trkpt lat="45.7135217" lon="11.5417117"><ele>114.0</ele><time>2026-03-28T15:45:12.138Z</time></trkpt><trkpt lat="45.7134133" lon="11.5417217"><ele>114.0</ele><time>2026-03-28T15:45:13.137Z</time></trkpt><trkpt lat="45.713305" lon="11.54175"><ele>114.0</ele><time>2026-03-28T15:45:14.137Z</time></trkpt><trkpt lat="45.7131867" lon="11.5417917"><ele>114.0</ele><time>2026-03-28T15:45:15.138Z</time></trkpt><trkpt lat="45.7130833" lon="11.5418383"><ele>114.0</ele><time>2026-03-28T15:45:16.138Z</time></trkpt><trkpt lat="45.7129683" lon="11.5418833"><ele>114.0</ele><time>2026-03-28T15:45:17.138Z</time></trkpt><trkpt lat="45.71287" lon="11.541925"><ele>114.0</ele><time>2026-03-28T15:45:18.138Z</time></trkpt><trkpt lat="45.7127567" lon="11.541945"><ele>114.0</ele><time>2026-03-28T15:45:19.138Z</time></trkpt><trkpt lat="45.712665" lon="11.5419517"><ele>114.4</ele><time>2026-03-28T15:45:20.138Z</time></trkpt><trkpt lat="45.71259" lon="11.5419733"><ele>114.80000000000001</ele><time>2026-03-28T15:45:21.138Z</time></trkpt><trkpt lat="45.7125217" lon="11.5420117"><ele>115.19999999999999</ele><time>2026-03-28T15:45:22.137Z</time></trkpt><trkpt lat="45.7124367" lon="11.5420567"><ele>115.6</ele><time>2026-03-28T15:45:23.138Z</time></trkpt><trkpt lat="45.71233" lon="11.5420917"><ele>116.0</ele><time>2026-03-28T15:45:24.138Z</time></trkpt><trkpt lat="45.7122067" lon="11.5421333"><ele>116.0</ele><time>2026-03-28T15:45:25.138Z</time></trkpt><trkpt lat="45.712085" lon="11.542175"><ele>116.0</ele><time>2026-03-28T15:45:26.138Z</time></trkpt><trkpt lat="45.7119633" lon="11.5422183"><ele>116.0</ele><time>2026-03-28T15:45:27.137Z</time></trkpt><trkpt lat="45.711835" lon="11.5422633"><ele>116.0</ele><time>2026-03-28T15:45:28.138Z</time></trkpt><trkpt lat="45.7117033" lon="11.5423017"><ele>115.75</ele><time>2026-03-28T15:45:29.138Z</time></trkpt><trkpt lat="45.7115733" lon="11.54233"><ele>115.5</ele><time>2026-03-28T15:45:30.138Z</time></trkpt><trkpt lat="45.7114583" lon="11.5423617"><ele>115.25</ele><time>2026-03-28T15:45:31.138Z</time></trkpt><trkpt lat="45.7113483" lon="11.5423933"><ele>115.0</ele><time>2026-03-28T15:45:32.137Z</time></trkpt><trkpt lat="45.71124" lon="11.5424267"><ele>115.0</ele><time>2026-03-28T15:45:33.137Z</time></trkpt><trkpt lat="45.7111333" lon="11.5424517"><ele>115.0</ele><time>2026-03-28T15:45:34.137Z</time></trkpt><trkpt lat="45.7110133" lon="11.5424633"><ele>115.0</ele><time>2026-03-28T15:45:35.137Z</time></trkpt><trkpt lat="45.7108967" lon="11.5424717"><ele>115.0</ele><time>2026-03-28T15:45:36.138Z</time></trkpt><trkpt lat="45.7107583" lon="11.54248"><ele>115.0</ele><time>2026-03-28T15:45:37.138Z</time></trkpt><trkpt lat="45.7106333" lon="11.5425133"><ele>115.0</ele><time>2026-03-28T15:45:38.138Z</time></trkpt><trkpt lat="45.71052" lon="11.5425517"><ele>115.0</ele><time>2026-03-28T15:45:39.138Z</time></trkpt><trkpt lat="45.710425" lon="11.54258"><ele>115.0</ele><time>2026-03-28T15:45:40.138Z</time></trkpt><trkpt lat="45.71035" lon="11.542615"><ele>115.0</ele><time>2026-03-28T15:45:41.138Z</time></trkpt><trkpt lat="45.7102733" lon="11.5426533"><ele>114.6</ele><time>2026-03-28T15:45:42.138Z</time></trkpt><trkpt lat="45.7101783" lon="11.542685"><ele>114.2</ele><time>2026-03-28T15:45:43.138Z</time></trkpt><trkpt lat="45.7100683" lon="11.5427067"><ele>113.80000000000001</ele><time>2026-03-28T15:45:44.138Z</time></trkpt><trkpt lat="45.70995" lon="11.542735"><ele>113.4</ele><time>2026-03-28T15:45:45.137Z</time></trkpt><trkpt lat="45.7098383" lon="11.5427667"><ele>113.0</ele><time>2026-03-28T15:45:46.138Z</time></trkpt><trkpt lat="45.7097283" lon="11.5427917"><ele>113.0</ele><time>2026-03-28T15:45:47.138Z</time></trkpt><trkpt lat="45.709605" lon="11.542815"><ele>113.00000000000001</ele><time>2026-03-28T15:45:48.138Z</time></trkpt><trkpt lat="45.7094867" lon="11.5428467"><ele>113.00000000000001</ele><time>2026-03-28T15:45:49.138Z</time></trkpt><trkpt lat="45.7093867" lon="11.54287"><ele>113.0</ele><time>2026-03-28T15:45:50.137Z</time></trkpt><trkpt lat="45.709295" lon="11.54289"><ele>113.0</ele><time>2026-03-28T15:45:51.138Z</time></trkpt><trkpt lat="45.7092117" lon="11.5429183"><ele>113.2</ele><time>2026-03-28T15:45:52.138Z</time></trkpt><trkpt lat="45.7090833" lon="11.5429617"><ele>113.4</ele><time>2026-03-28T15:45:54.138Z</time></trkpt><trkpt lat="45.709005" lon="11.54297"><ele>113.60000000000001</ele><time>2026-03-28T15:45:55.138Z</time></trkpt><trkpt lat="45.70892" lon="11.5429717"><ele>113.80000000000001</ele><time>2026-03-28T15:45:56.138Z</time></trkpt><trkpt lat="45.7088267" lon="11.5429783"><ele>114.0</ele><time>2026-03-28T15:45:57.138Z</time></trkpt><trkpt lat="45.7087433" lon="11.5429967"><ele>114.0</ele><time>2026-03-28T15:45:58.138Z</time></trkpt><trkpt lat="45.708665" lon="11.543025"><ele>114.0</ele><time>2026-03-28T15:45:59.138Z</time></trkpt><trkpt lat="45.7085917" lon="11.54305"><ele>114.0</ele><time>2026-03-28T15:46:00.137Z</time></trkpt><trkpt lat="45.7085233" lon="11.54307"><ele>114.0</ele><time>2026-03-28T15:46:01.137Z</time></trkpt><trkpt lat="45.708455" lon="11.5430867"><ele>114.0</ele><time>2026-03-28T15:46:02.137Z</time></trkpt><trkpt lat="45.7083867" lon="11.54311"><ele>114.0</ele><time>2026-03-28T15:46:03.138Z</time></trkpt><trkpt lat="45.7082883" lon="11.543155"><ele>114.0</ele><time>2026-03-28T15:46:05.138Z</time></trkpt><trkpt lat="45.7082183" lon="11.543195"><ele>114.0</ele><time>2026-03-28T15:46:07.138Z</time></trkpt><trkpt lat="45.70816" lon="11.5432617"><ele>114.0</ele><time>2026-03-28T15:46:11.138Z</time></trkpt><trkpt lat="45.7081417" lon="11.5433983"><ele>114.0</ele><time>2026-03-28T15:48:01.138Z</time></trkpt><trkpt lat="45.7080967" lon="11.5434767"><ele>114.0</ele><time>2026-03-28T15:48:02.138Z</time></trkpt><trkpt lat="45.7080283" lon="11.5435483"><ele>114.0</ele><time>2026-03-28T15:48:03.138Z</time></trkpt><trkpt lat="45.70794" lon="11.5436133"><ele>114.0</ele><time>2026-03-28T15:48:04.138Z</time></trkpt><trkpt lat="45.7078417" lon="11.5436817"><ele>114.0</ele><time>2026-03-28T15:48:05.138Z</time></trkpt><trkpt lat="45.7077433" lon="11.5437633"><ele>114.0</ele><time>2026-03-28T15:48:06.138Z</time></trkpt><trkpt lat="45.70765" lon="11.5438617"><ele>114.0</ele><time>2026-03-28T15:48:07.138Z</time></trkpt><trkpt lat="45.7075617" lon="11.5439617"><ele>113.80000000000001</ele><time>2026-03-28T15:48:08.138Z</time></trkpt><trkpt lat="45.7074717" lon="11.5440683"><ele>113.60000000000001</ele><time>2026-03-28T15:48:09.138Z</time></trkpt><trkpt lat="45.7073983" lon="11.5441667"><ele>113.4</ele><time>2026-03-28T15:48:10.138Z</time></trkpt><trkpt lat="45.7073133" lon="11.5442667"><ele>113.2</ele><time>2026-03-28T15:48:11.138Z</time></trkpt><trkpt lat="45.7072367" lon="11.5443783"><ele>113.0</ele><time>2026-03-28T15:48:12.138Z</time></trkpt><trkpt lat="45.70715" lon="11.5444983"><ele>113.0</ele><time>2026-03-28T15:48:13.137Z</time></trkpt><trkpt lat="45.7070483" lon="11.5446267"><ele>113.0</ele><time>2026-03-28T15:48:14.138Z</time></trkpt><trkpt lat="45.7069417" lon="11.5447667"><ele>113.0</ele><time>2026-03-28T15:48:15.138Z</time></trkpt><trkpt lat="45.7068317" lon="11.5449217"><ele>113.0</ele><time>2026-03-28T15:48:16.138Z</time></trkpt><trkpt lat="45.706725" lon="11.5450717"><ele>113.0</ele><time>2026-03-28T15:48:17.138Z</time></trkpt><trkpt lat="45.706625" lon="11.5452267"><ele>113.0</ele><time>2026-03-28T15:48:18.137Z</time></trkpt><trkpt lat="45.706535" lon="11.5453567"><ele>113.0</ele><time>2026-03-28T15:48:19.138Z</time></trkpt><trkpt lat="45.7064517" lon="11.5454717"><ele>113.0</ele><time>2026-03-28T15:48:20.138Z</time></trkpt><trkpt lat="45.7063767" lon="11.54558"><ele>113.16666666666666</ele><time>2026-03-28T15:48:21.138Z</time></trkpt><trkpt lat="45.7063117" lon="11.54568"><ele>113.33333333333333</ele><time>2026-03-28T15:48:22.138Z</time></trkpt><trkpt lat="45.7062517" lon="11.5457517"><ele>113.5</ele><time>2026-03-28T15:48:23.137Z</time></trkpt><trkpt lat="45.70619" lon="11.5458083"><ele>113.66666666666666</ele><time>2026-03-28T15:48:24.138Z</time></trkpt><trkpt lat="45.70609" lon="11.5458417"><ele>113.83333333333333</ele><time>2026-03-28T15:48:26.137Z</time></trkpt><trkpt lat="45.7060183" lon="11.5457833"><ele>114.0</ele><time>2026-03-28T15:48:28.138Z</time></trkpt><trkpt lat="45.70596" lon="11.5456217"><ele>113.4</ele><time>2026-03-28T15:48:30.138Z</time></trkpt><trkpt lat="45.705915" lon="11.545475"><ele>112.80000000000001</ele><time>2026-03-28T15:48:32.138Z</time></trkpt><trkpt lat="45.7058467" lon="11.5454133"><ele>112.19999999999999</ele><time>2026-03-28T15:48:35.137Z</time></trkpt><trkpt lat="45.70574" lon="11.5454817"><ele>111.6</ele><time>2026-03-28T15:48:37.137Z</time></trkpt><trkpt lat="45.70567" lon="11.5455183"><ele>111.0</ele><time>2026-03-28T15:48:38.138Z</time></trkpt><trkpt lat="45.7056" lon="11.54558"><ele>111.0</ele><time>2026-03-28T15:48:39.138Z</time></trkpt><trkpt lat="45.7055333" lon="11.5456483"><ele>111.0</ele><time>2026-03-28T15:48:40.137Z</time></trkpt><trkpt lat="45.7054667" lon="11.54571"><ele>111.0</ele><time>2026-03-28T15:48:41.138Z</time></trkpt><trkpt lat="45.7053967" lon="11.5457567"><ele>111.0</ele><time>2026-03-28T15:48:42.137Z</time></trkpt><trkpt lat="45.7053217" lon="11.5457983"><ele>111.0</ele><time>2026-03-28T15:48:43.137Z</time></trkpt><trkpt lat="45.705245" lon="11.5458417"><ele>111.0</ele><time>2026-03-28T15:48:44.138Z</time></trkpt><trkpt lat="45.7051617" lon="11.5458867"><ele>110.4</ele><time>2026-03-28T15:48:45.138Z</time></trkpt><trkpt lat="45.7050783" lon="11.545925"><ele>109.8</ele><time>2026-03-28T15:48:46.138Z</time></trkpt><trkpt lat="45.7049933" lon="11.5459533"><ele>109.20000000000002</ele><time>2026-03-28T15:48:47.138Z</time></trkpt><trkpt lat="45.7048917" lon="11.5459917"><ele>108.60000000000001</ele><time>2026-03-28T15:48:48.138Z</time></trkpt><trkpt lat="45.7047767" lon="11.546065"><ele>108.0</ele><time>2026-03-28T15:48:49.138Z</time></trkpt><trkpt lat="45.7046483" lon="11.54617"><ele>108.25</ele><time>2026-03-28T15:48:50.138Z</time></trkpt><trkpt lat="45.7045317" lon="11.5462767"><ele>108.5</ele><time>2026-03-28T15:48:51.138Z</time></trkpt><trkpt lat="45.7044067" lon="11.54638"><ele>108.75</ele><time>2026-03-28T15:48:52.137Z</time></trkpt><trkpt lat="45.7043" lon="11.546465"><ele>109.0</ele><time>2026-03-28T15:48:53.138Z</time></trkpt><trkpt lat="45.7041867" lon="11.546555"><ele>109.0</ele><time>2026-03-28T15:48:54.138Z</time></trkpt><trkpt lat="45.70407" lon="11.5466483"><ele>109.0</ele><time>2026-03-28T15:48:55.138Z</time></trkpt><trkpt lat="45.7039467" lon="11.5467367"><ele>109.0</ele><time>2026-03-28T15:48:56.138Z</time></trkpt><trkpt lat="45.7038367" lon="11.5468167"><ele>109.0</ele><time>2026-03-28T15:48:57.137Z</time></trkpt><trkpt lat="45.7037267" lon="11.5468933"><ele>109.0</ele><time>2026-03-28T15:48:58.138Z</time></trkpt><trkpt lat="45.7036267" lon="11.5469767"><ele>109.0</ele><time>2026-03-28T15:48:59.138Z</time></trkpt><trkpt lat="45.7035233" lon="11.547045"><ele>109.0</ele><time>2026-03-28T15:49:00.138Z</time></trkpt><trkpt lat="45.7034133" lon="11.5471083"><ele>109.0</ele><time>2026-03-28T15:49:01.138Z</time></trkpt><trkpt lat="45.7032983" lon="11.5471733"><ele>108.5</ele><time>2026-03-28T15:49:02.138Z</time></trkpt><trkpt lat="45.7031867" lon="11.5472317"><ele>108.0</ele><time>2026-03-28T15:49:03.138Z</time></trkpt><trkpt lat="45.70308" lon="11.5472917"><ele>107.5</ele><time>2026-03-28T15:49:04.137Z</time></trkpt><trkpt lat="45.702975" lon="11.5473467"><ele>107.0</ele><time>2026-03-28T15:49:05.138Z</time></trkpt><trkpt lat="45.7028717" lon="11.5473917"><ele>106.99999999999999</ele><time>2026-03-28T15:49:06.137Z</time></trkpt><trkpt lat="45.7027817" lon="11.547425"><ele>107.0</ele><time>2026-03-28T15:49:07.138Z</time></trkpt><trkpt lat="45.70269" lon="11.547455"><ele>107.0</ele><time>2026-03-28T15:49:08.138Z</time></trkpt><trkpt lat="45.7026017" lon="11.547485"><ele>107.0</ele><time>2026-03-28T15:49:09.137Z</time></trkpt><trkpt lat="45.7025283" lon="11.5475267"><ele>106.99999999999999</ele><time>2026-03-28T15:49:10.138Z</time></trkpt><trkpt lat="45.702465" lon="11.5475783"><ele>107.0</ele><time>2026-03-28T15:49:11.138Z</time></trkpt><trkpt lat="45.70241" lon="11.5476233"><ele>107.0</ele><time>2026-03-28T15:49:12.138Z</time></trkpt><trkpt lat="45.70229" lon="11.5476983"><ele>106.99999999999999</ele><time>2026-03-28T15:49:14.138Z</time></trkpt><trkpt lat="45.7021967" lon="11.5477217"><ele>106.99999999999999</ele><time>2026-03-28T15:49:15.138Z</time></trkpt><trkpt lat="45.702085" lon="11.5477417"><ele>107.0</ele><time>2026-03-28T15:49:16.138Z</time></trkpt><trkpt lat="45.7019767" lon="11.54776"><ele>107.0</ele><time>2026-03-28T15:49:17.138Z</time></trkpt><trkpt lat="45.7018717" lon="11.54778"><ele>106.8</ele><time>2026-03-28T15:49:18.138Z</time></trkpt><trkpt lat="45.7017717" lon="11.5477983"><ele>106.6</ele><time>2026-03-28T15:49:19.138Z</time></trkpt><trkpt lat="45.7016817" lon="11.5478133"><ele>106.39999999999999</ele><time>2026-03-28T15:49:20.137Z</time></trkpt><trkpt lat="45.701605" lon="11.547835"><ele>106.19999999999999</ele><time>2026-03-28T15:49:21.138Z</time></trkpt><trkpt lat="45.7014917" lon="11.5478133"><ele>106.0</ele><time>2026-03-28T15:49:23.138Z</time></trkpt><trkpt lat="45.7013733" lon="11.547755"><ele>106.0</ele><time>2026-03-28T15:49:25.137Z</time></trkpt><trkpt lat="45.7012967" lon="11.5477317"><ele>106.0</ele><time>2026-03-28T15:49:26.138Z</time></trkpt><trkpt lat="45.7012067" lon="11.54772"><ele>106.0</ele><time>2026-03-28T15:49:27.138Z</time></trkpt><trkpt lat="45.7011083" lon="11.5477133"><ele>106.0</ele><time>2026-03-28T15:49:28.137Z</time></trkpt><trkpt lat="45.7009983" lon="11.5477083"><ele>106.0</ele><time>2026-03-28T15:49:29.138Z</time></trkpt><trkpt lat="45.7008883" lon="11.54771"><ele>105.4</ele><time>2026-03-28T15:49:30.138Z</time></trkpt><trkpt lat="45.70078" lon="11.5477167"><ele>104.8</ele><time>2026-03-28T15:49:31.137Z</time></trkpt><trkpt lat="45.7006783" lon="11.5477317"><ele>104.2</ele><time>2026-03-28T15:49:32.138Z</time></trkpt><trkpt lat="45.7005783" lon="11.5477567"><ele>103.60000000000001</ele><time>2026-03-28T15:49:33.137Z</time></trkpt><trkpt lat="45.70049" lon="11.5477817"><ele>103.0</ele><time>2026-03-28T15:49:34.138Z</time></trkpt><trkpt lat="45.7004" lon="11.5478033"><ele>103.00000000000001</ele><time>2026-03-28T15:49:35.138Z</time></trkpt><trkpt lat="45.7003233" lon="11.5478317"><ele>103.0</ele><time>2026-03-28T15:49:36.138Z</time></trkpt><trkpt lat="45.7002383" lon="11.5478633"><ele>103.0</ele><time>2026-03-28T15:49:37.138Z</time></trkpt><trkpt lat="45.700165" lon="11.5478883"><ele>103.0</ele><time>2026-03-28T15:49:38.138Z</time></trkpt><trkpt lat="45.70008" lon="11.5479167"><ele>103.00000000000001</ele><time>2026-03-28T15:49:39.138Z</time></trkpt><trkpt lat="45.6999817" lon="11.5479617"><ele>103.0</ele><time>2026-03-28T15:49:40.138Z</time></trkpt><trkpt lat="45.69988" lon="11.5480083"><ele>103.2</ele><time>2026-03-28T15:49:41.138Z</time></trkpt><trkpt lat="45.6997783" lon="11.548045"><ele>103.4</ele><time>2026-03-28T15:49:42.138Z</time></trkpt><trkpt lat="45.699685" lon="11.54809"><ele>103.60000000000001</ele><time>2026-03-28T15:49:43.138Z</time></trkpt><trkpt lat="45.6995867" lon="11.5481417"><ele>103.80000000000001</ele><time>2026-03-28T15:49:44.138Z</time></trkpt><trkpt lat="45.6994917" lon="11.5482"><ele>104.0</ele><time>2026-03-28T15:49:45.137Z</time></trkpt><trkpt lat="45.6993933" lon="11.5482433"><ele>104.0</ele><time>2026-03-28T15:49:46.138Z</time></trkpt><trkpt lat="45.6992883" lon="11.5482867"><ele>104.0</ele><time>2026-03-28T15:49:47.138Z</time></trkpt><trkpt lat="45.6991933" lon="11.5483267"><ele>104.0</ele><time>2026-03-28T15:49:48.137Z</time></trkpt><trkpt lat="45.6990983" lon="11.5483733"><ele>104.0</ele><time>2026-03-28T15:49:49.138Z</time></trkpt><trkpt lat="45.6990067" lon="11.548415"><ele>104.0</ele><time>2026-03-28T15:49:50.138Z</time></trkpt><trkpt lat="45.6989033" lon="11.5484567"><ele>104.0</ele><time>2026-03-28T15:49:51.138Z</time></trkpt><trkpt lat="45.6988033" lon="11.5485017"><ele>104.0</ele><time>2026-03-28T15:49:52.138Z</time></trkpt><trkpt lat="45.6987017" lon="11.5485483"><ele>104.0</ele><time>2026-03-28T15:49:53.137Z</time></trkpt><trkpt lat="45.6986017" lon="11.5485967"><ele>104.0</ele><time>2026-03-28T15:49:54.138Z</time></trkpt><trkpt lat="45.6985033" lon="11.5486467"><ele>104.0</ele><time>2026-03-28T15:49:55.138Z</time></trkpt><trkpt lat="45.6983867" lon="11.5486967"><ele>104.5</ele><time>2026-03-28T15:49:56.138Z</time></trkpt><trkpt lat="45.6982717" lon="11.5487467"><ele>105.0</ele><time>2026-03-28T15:49:57.138Z</time></trkpt><trkpt lat="45.6981633" lon="11.5488"><ele>105.5</ele><time>2026-03-28T15:49:58.138Z</time></trkpt><trkpt lat="45.6980533" lon="11.54885"><ele>106.0</ele><time>2026-03-28T15:49:59.138Z</time></trkpt><trkpt lat="45.6979417" lon="11.5489017"><ele>106.0</ele><time>2026-03-28T15:50:00.138Z</time></trkpt><trkpt lat="45.6978267" lon="11.5489583"><ele>106.0</ele><time>2026-03-28T15:50:01.138Z</time></trkpt><trkpt lat="45.69771" lon="11.5490233"><ele>106.0</ele><time>2026-03-28T15:50:02.138Z</time></trkpt><trkpt lat="45.6975867" lon="11.5490833"><ele>106.0</ele><time>2026-03-28T15:50:03.137Z</time></trkpt><trkpt lat="45.6974467" lon="11.5491467"><ele>105.0</ele><time>2026-03-28T15:50:04.137Z</time></trkpt><trkpt lat="45.6973117" lon="11.5492017"><ele>104.0</ele><time>2026-03-28T15:50:05.137Z</time></trkpt><trkpt lat="45.69717" lon="11.5492583"><ele>103.0</ele><time>2026-03-28T15:50:06.137Z</time></trkpt><trkpt lat="45.69704" lon="11.54932"><ele>102.0</ele><time>2026-03-28T15:50:07.138Z</time></trkpt><trkpt lat="45.69691" lon="11.54938"><ele>102.0</ele><time>2026-03-28T15:50:08.137Z</time></trkpt><trkpt lat="45.696785" lon="11.549435"><ele>102.0</ele><time>2026-03-28T15:50:09.138Z</time></trkpt><trkpt lat="45.69667" lon="11.5494883"><ele>102.0</ele><time>2026-03-28T15:50:10.138Z</time></trkpt><trkpt lat="45.6965633" lon="11.5495367"><ele>102.0</ele><time>2026-03-28T15:50:11.137Z</time></trkpt><trkpt lat="45.6964583" lon="11.5495833"><ele>102.0</ele><time>2026-03-28T15:50:12.137Z</time></trkpt><trkpt lat="45.6963533" lon="11.54963"><ele>102.0</ele><time>2026-03-28T15:50:13.138Z</time></trkpt><trkpt lat="45.69625" lon="11.5496717"><ele>102.0</ele><time>2026-03-28T15:50:14.138Z</time></trkpt><trkpt lat="45.6961467" lon="11.54971"><ele>102.0</ele><time>2026-03-28T15:50:15.137Z</time></trkpt><trkpt lat="45.6960433" lon="11.5497483"><ele>102.0</ele><time>2026-03-28T15:50:16.137Z</time></trkpt><trkpt lat="45.6959433" lon="11.549785"><ele>101.19999999999999</ele><time>2026-03-28T15:50:17.138Z</time></trkpt><trkpt lat="45.6958433" lon="11.54982"><ele>100.4</ele><time>2026-03-28T15:50:18.138Z</time></trkpt><trkpt lat="45.6957367" lon="11.5498633"><ele>99.6</ele><time>2026-03-28T15:50:19.137Z</time></trkpt><trkpt lat="45.69563" lon="11.549905"><ele>98.80000000000001</ele><time>2026-03-28T15:50:20.138Z</time></trkpt><trkpt lat="45.695525" lon="11.54995"><ele>98.0</ele><time>2026-03-28T15:50:21.138Z</time></trkpt><trkpt lat="45.6954317" lon="11.55001"><ele>98.0</ele><time>2026-03-28T15:50:22.138Z</time></trkpt><trkpt lat="45.6953333" lon="11.5500667"><ele>98.0</ele><time>2026-03-28T15:50:23.137Z</time></trkpt><trkpt lat="45.6952433" lon="11.5501267"><ele>98.0</ele><time>2026-03-28T15:50:24.138Z</time></trkpt><trkpt lat="45.6951567" lon="11.5501667"><ele>98.0</ele><time>2026-03-28T15:50:25.138Z</time></trkpt><trkpt lat="45.6950733" lon="11.5502"><ele>98.0</ele><time>2026-03-28T15:50:26.138Z</time></trkpt><trkpt lat="45.6949967" lon="11.5502317"><ele>97.66666666666666</ele><time>2026-03-28T15:50:27.138Z</time></trkpt><trkpt lat="45.69493" lon="11.5502533"><ele>97.33333333333333</ele><time>2026-03-28T15:50:28.138Z</time></trkpt><trkpt lat="45.6948617" lon="11.55027"><ele>97.0</ele><time>2026-03-28T15:50:29.138Z</time></trkpt><trkpt lat="45.694785" lon="11.5502783"><ele>96.66666666666666</ele><time>2026-03-28T15:50:30.138Z</time></trkpt><trkpt lat="45.69471" lon="11.550235"><ele>96.33333333333333</ele><time>2026-03-28T15:50:32.138Z</time></trkpt><trkpt lat="45.6946333" lon="11.5502383"><ele>96.0</ele><time>2026-03-28T15:50:34.138Z</time></trkpt><trkpt lat="45.6945733" lon="11.55032"><ele>96.66666666666667</ele><time>2026-03-28T15:50:36.138Z</time></trkpt><trkpt lat="45.6945217" lon="11.55041"><ele>97.33333333333334</ele><time>2026-03-28T15:50:37.137Z</time></trkpt><trkpt lat="45.6944683" lon="11.5504867"><ele>98.0</ele><time>2026-03-28T15:50:38.138Z</time></trkpt><trkpt lat="45.6944033" lon="11.5505417"><ele>98.66666666666667</ele><time>2026-03-28T15:50:39.138Z</time></trkpt><trkpt lat="45.6943217" lon="11.5505817"><ele>99.33333333333334</ele><time>2026-03-28T15:50:40.138Z</time></trkpt><trkpt lat="45.6942217" lon="11.55063"><ele>100.0</ele><time>2026-03-28T15:50:41.138Z</time></trkpt><trkpt lat="45.6941133" lon="11.55068"><ele>100.0</ele><time>2026-03-28T15:50:42.138Z</time></trkpt><trkpt lat="45.693995" lon="11.5507317"><ele>100.0</ele><time>2026-03-28T15:50:43.138Z</time></trkpt><trkpt lat="45.693865" lon="11.55079"><ele>100.0</ele><time>2026-03-28T15:50:44.138Z</time></trkpt><trkpt lat="45.6937317" lon="11.5508483"><ele>100.0</ele><time>2026-03-28T15:50:45.138Z</time></trkpt><trkpt lat="45.6935967" lon="11.5509117"><ele>99.33333333333334</ele><time>2026-03-28T15:50:46.138Z</time></trkpt><trkpt lat="45.693455" lon="11.5509767"><ele>98.66666666666666</ele><time>2026-03-28T15:50:47.138Z</time></trkpt><trkpt lat="45.69331" lon="11.551045"><ele>98.0</ele><time>2026-03-28T15:50:48.138Z</time></trkpt><trkpt lat="45.6931567" lon="11.5511167"><ele>98.0</ele><time>2026-03-28T15:50:49.138Z</time></trkpt><trkpt lat="45.6930083" lon="11.5511833"><ele>98.0</ele><time>2026-03-28T15:50:50.138Z</time></trkpt><trkpt lat="45.6928617" lon="11.5512467"><ele>98.0</ele><time>2026-03-28T15:50:51.138Z</time></trkpt><trkpt lat="45.69272" lon="11.5513067"><ele>98.75</ele><time>2026-03-28T15:50:52.138Z</time></trkpt><trkpt lat="45.6925733" lon="11.55137"><ele>99.5</ele><time>2026-03-28T15:50:53.138Z</time></trkpt><trkpt lat="45.6924317" lon="11.5514317"><ele>100.25</ele><time>2026-03-28T15:50:54.138Z</time></trkpt><trkpt lat="45.6922917" lon="11.5514883"><ele>101.0</ele><time>2026-03-28T15:50:55.138Z</time></trkpt><trkpt lat="45.6921567" lon="11.5515467"><ele>101.0</ele><time>2026-03-28T15:50:56.138Z</time></trkpt><trkpt lat="45.6920217" lon="11.5516083"><ele>101.0</ele><time>2026-03-28T15:50:57.138Z</time></trkpt><trkpt lat="45.6918933" lon="11.5516617"><ele>101.0</ele><time>2026-03-28T15:50:58.138Z</time></trkpt><trkpt lat="45.6917833" lon="11.551715"><ele>101.0</ele><time>2026-03-28T15:50:59.138Z</time></trkpt><trkpt lat="45.6916867" lon="11.5517617"><ele>100.49999999999999</ele><time>2026-03-28T15:51:00.138Z</time></trkpt><trkpt lat="45.691605" lon="11.5518017"><ele>100.0</ele><time>2026-03-28T15:51:01.138Z</time></trkpt><trkpt lat="45.6915383" lon="11.5518333"><ele>99.5</ele><time>2026-03-28T15:51:02.137Z</time></trkpt><trkpt lat="45.6914583" lon="11.5518883"><ele>99.0</ele><time>2026-03-28T15:51:04.137Z</time></trkpt><trkpt lat="45.6913967" lon="11.5519117"><ele>98.49999999999999</ele><time>2026-03-28T15:51:07.138Z</time></trkpt><trkpt lat="45.6913217" lon="11.551945"><ele>98.0</ele><time>2026-03-28T16:05:14.138Z</time></trkpt><trkpt lat="45.69118" lon="11.552005"><ele>98.0</ele><time>2026-03-28T16:05:16.138Z</time></trkpt><trkpt lat="45.6910717" lon="11.5520533"><ele>98.0</ele><time>2026-03-28T16:05:17.138Z</time></trkpt><trkpt lat="45.6909467" lon="11.5521083"><ele>98.0</ele><time>2026-03-28T16:05:18.138Z</time></trkpt><trkpt lat="45.690825" lon="11.552165"><ele>98.0</ele><time>2026-03-28T16:05:19.138Z</time></trkpt><trkpt lat="45.690705" lon="11.5522167"><ele>98.0</ele><time>2026-03-28T16:05:20.137Z</time></trkpt><trkpt lat="45.690575" lon="11.5522667"><ele>98.0</ele><time>2026-03-28T16:05:21.138Z</time></trkpt><trkpt lat="45.6904483" lon="11.55231"><ele>98.0</ele><time>2026-03-28T16:05:22.138Z</time></trkpt><trkpt lat="45.6903333" lon="11.5523583"><ele>98.0</ele><time>2026-03-28T16:05:23.138Z</time></trkpt><trkpt lat="45.690205" lon="11.5524117"><ele>97.5</ele><time>2026-03-28T16:05:24.138Z</time></trkpt><trkpt lat="45.6900817" lon="11.5524767"><ele>97.0</ele><time>2026-03-28T16:05:25.138Z</time></trkpt><trkpt lat="45.6899583" lon="11.5525383"><ele>96.5</ele><time>2026-03-28T16:05:26.138Z</time></trkpt><trkpt lat="45.68984" lon="11.5526083"><ele>96.0</ele><time>2026-03-28T16:05:27.138Z</time></trkpt><trkpt lat="45.6897233" lon="11.5526667"><ele>96.0</ele><time>2026-03-28T16:05:28.138Z</time></trkpt><trkpt lat="45.6896283" lon="11.5527267"><ele>96.0</ele><time>2026-03-28T16:05:29.137Z</time></trkpt><trkpt lat="45.689535" lon="11.55279"><ele>96.0</ele><time>2026-03-28T16:05:30.138Z</time></trkpt><trkpt lat="45.68944" lon="11.552845"><ele>96.0</ele><time>2026-03-28T16:05:31.137Z</time></trkpt><trkpt lat="45.6893383" lon="11.5529"><ele>96.0</ele><time>2026-03-28T16:05:32.138Z</time></trkpt><trkpt lat="45.689235" lon="11.5529517"><ele>96.19999999999999</ele><time>2026-03-28T16:05:33.138Z</time></trkpt><trkpt lat="45.6891317" lon="11.55301"><ele>96.39999999999999</ele><time>2026-03-28T16:05:34.138Z</time></trkpt><trkpt lat="45.6890367" lon="11.553065"><ele>96.6</ele><time>2026-03-28T16:05:35.138Z</time></trkpt><trkpt lat="45.68895" lon="11.553115"><ele>96.8</ele><time>2026-03-28T16:05:36.138Z</time></trkpt><trkpt lat="45.68887" lon="11.5531667"><ele>97.0</ele><time>2026-03-28T16:05:37.138Z</time></trkpt><trkpt lat="45.6887917" lon="11.5532267"><ele>97.00000000000001</ele><time>2026-03-28T16:05:38.137Z</time></trkpt><trkpt lat="45.6887117" lon="11.5532817"><ele>97.0</ele><time>2026-03-28T16:05:39.138Z</time></trkpt><trkpt lat="45.6886317" lon="11.5533267"><ele>97.0</ele><time>2026-03-28T16:05:40.137Z</time></trkpt><trkpt lat="45.688555" lon="11.5533767"><ele>97.0</ele><time>2026-03-28T16:05:41.138Z</time></trkpt><trkpt lat="45.6884817" lon="11.5534167"><ele>97.00000000000001</ele><time>2026-03-28T16:05:42.138Z</time></trkpt><trkpt lat="45.6884083" lon="11.5534617"><ele>97.0</ele><time>2026-03-28T16:05:43.138Z</time></trkpt><trkpt lat="45.6883317" lon="11.5535083"><ele>96.83333333333334</ele><time>2026-03-28T16:05:44.138Z</time></trkpt><trkpt lat="45.68825" lon="11.553555"><ele>96.66666666666667</ele><time>2026-03-28T16:05:45.138Z</time></trkpt><trkpt lat="45.688165" lon="11.553605"><ele>96.5</ele><time>2026-03-28T16:05:46.138Z</time></trkpt><trkpt lat="45.688085" lon="11.5536483"><ele>96.33333333333334</ele><time>2026-03-28T16:05:47.138Z</time></trkpt><trkpt lat="45.6880067" lon="11.5536883"><ele>96.16666666666667</ele><time>2026-03-28T16:05:48.138Z</time></trkpt><trkpt lat="45.6879267" lon="11.5537283"><ele>96.0</ele><time>2026-03-28T16:05:49.138Z</time></trkpt><trkpt lat="45.6878517" lon="11.5537683"><ele>95.99999999999999</ele><time>2026-03-28T16:05:50.138Z</time></trkpt><trkpt lat="45.68778" lon="11.5538083"><ele>96.0</ele><time>2026-03-28T16:05:51.137Z</time></trkpt><trkpt lat="45.68771" lon="11.55384"><ele>96.0</ele><time>2026-03-28T16:05:52.138Z</time></trkpt><trkpt lat="45.6876433" lon="11.5538833"><ele>96.0</ele><time>2026-03-28T16:05:53.138Z</time></trkpt><trkpt lat="45.6875783" lon="11.553935"><ele>96.0</ele><time>2026-03-28T16:05:54.138Z</time></trkpt><trkpt lat="45.687515" lon="11.5539817"><ele>95.99999999999999</ele><time>2026-03-28T16:05:55.137Z</time></trkpt><trkpt lat="45.68745" lon="11.5540217"><ele>96.0</ele><time>2026-03-28T16:05:56.137Z</time></trkpt><trkpt lat="45.687385" lon="11.5540617"><ele>95.66666666666667</ele><time>2026-03-28T16:05:57.137Z</time></trkpt><trkpt lat="45.6873167" lon="11.5540967"><ele>95.33333333333333</ele><time>2026-03-28T16:05:58.138Z</time></trkpt><trkpt lat="45.68724" lon="11.5541283"><ele>95.0</ele><time>2026-03-28T16:05:59.138Z</time></trkpt><trkpt lat="45.6871617" lon="11.5541517"><ele>94.66666666666666</ele><time>2026-03-28T16:06:00.137Z</time></trkpt><trkpt lat="45.6870817" lon="11.55419"><ele>94.33333333333333</ele><time>2026-03-28T16:06:01.137Z</time></trkpt><trkpt lat="45.6869983" lon="11.5542383"><ele>94.0</ele><time>2026-03-28T16:06:02.138Z</time></trkpt><trkpt lat="45.6869133" lon="11.5542883"><ele>93.2</ele><time>2026-03-28T16:06:03.137Z</time></trkpt><trkpt lat="45.6868283" lon="11.5543417"><ele>92.4</ele><time>2026-03-28T16:06:04.138Z</time></trkpt><trkpt lat="45.6867467" lon="11.5543917"><ele>91.6</ele><time>2026-03-28T16:06:05.138Z</time></trkpt><trkpt lat="45.6866633" lon="11.55444"><ele>90.8</ele><time>2026-03-28T16:06:06.138Z</time></trkpt><trkpt lat="45.6865783" lon="11.5544917"><ele>90.0</ele><time>2026-03-28T16:06:07.138Z</time></trkpt><trkpt lat="45.6864917" lon="11.554535"><ele>91.0</ele><time>2026-03-28T16:06:08.138Z</time></trkpt><trkpt lat="45.6864167" lon="11.5545783"><ele>92.0</ele><time>2026-03-28T16:06:09.137Z</time></trkpt><trkpt lat="45.68636" lon="11.5546283"><ele>93.0</ele><time>2026-03-28T16:06:10.138Z</time></trkpt><trkpt lat="45.6863233" lon="11.5547717"><ele>94.0</ele><time>2026-03-28T16:06:12.138Z</time></trkpt><trkpt lat="45.6862767" lon="11.5549083"><ele>95.0</ele><time>2026-03-28T16:06:14.138Z</time></trkpt><trkpt lat="45.686215" lon="11.55505"><ele>95.0</ele><time>2026-03-28T16:06:16.138Z</time></trkpt><trkpt lat="45.6861267" lon="11.5551817"><ele>95.0</ele><time>2026-03-28T16:06:18.138Z</time></trkpt><trkpt lat="45.6860817" lon="11.5552617"><ele>95.0</ele><time>2026-03-28T16:06:19.138Z</time></trkpt><trkpt lat="45.6860333" lon="11.5553683"><ele>95.0</ele><time>2026-03-28T16:06:20.137Z</time></trkpt><trkpt lat="45.68599" lon="11.55547"><ele>95.0</ele><time>2026-03-28T16:06:21.138Z</time></trkpt><trkpt lat="45.6859483" lon="11.5555683"><ele>94.66666666666667</ele><time>2026-03-28T16:06:22.138Z</time></trkpt><trkpt lat="45.6859067" lon="11.55565"><ele>94.33333333333334</ele><time>2026-03-28T16:06:23.138Z</time></trkpt><trkpt lat="45.685865" lon="11.555725"><ele>94.0</ele><time>2026-03-28T16:06:24.138Z</time></trkpt><trkpt lat="45.6858217" lon="11.5558017"><ele>93.66666666666667</ele><time>2026-03-28T16:06:25.137Z</time></trkpt><trkpt lat="45.68577" lon="11.5558667"><ele>93.33333333333333</ele><time>2026-03-28T16:06:26.138Z</time></trkpt><trkpt lat="45.6857017" lon="11.555925"><ele>93.0</ele><time>2026-03-28T16:06:27.137Z</time></trkpt><trkpt lat="45.6856117" lon="11.5559817"><ele>93.0</ele><time>2026-03-28T16:06:28.137Z</time></trkpt><trkpt lat="45.68551" lon="11.5560383"><ele>93.0</ele><time>2026-03-28T16:06:29.138Z</time></trkpt><trkpt lat="45.6854017" lon="11.5560967"><ele>93.0</ele><time>2026-03-28T16:06:30.137Z</time></trkpt><trkpt lat="45.68529" lon="11.5561467"><ele>93.0</ele><time>2026-03-28T16:06:31.138Z</time></trkpt><trkpt lat="45.6851767" lon="11.5562033"><ele>91.25</ele><time>2026-03-28T16:06:32.138Z</time></trkpt><trkpt lat="45.6850733" lon="11.5562383"><ele>89.5</ele><time>2026-03-28T16:06:33.138Z</time></trkpt><trkpt lat="45.6849617" lon="11.5562717"><ele>87.75</ele><time>2026-03-28T16:06:34.138Z</time></trkpt><trkpt lat="45.6848383" lon="11.5563133"><ele>86.0</ele><time>2026-03-28T16:06:35.138Z</time></trkpt><trkpt lat="45.68471" lon="11.5563467"><ele>86.0</ele><time>2026-03-28T16:06:36.137Z</time></trkpt><trkpt lat="45.6845717" lon="11.5563817"><ele>86.0</ele><time>2026-03-28T16:06:37.138Z</time></trkpt><trkpt lat="45.68444" lon="11.556415"><ele>86.0</ele><time>2026-03-28T16:06:38.137Z</time></trkpt><trkpt lat="45.68431" lon="11.5564467"><ele>86.0</ele><time>2026-03-28T16:06:39.138Z</time></trkpt><trkpt lat="45.68418" lon="11.556475"><ele>86.5</ele><time>2026-03-28T16:06:40.138Z</time></trkpt><trkpt lat="45.6840533" lon="11.5564883"><ele>87.0</ele><time>2026-03-28T16:06:41.137Z</time></trkpt><trkpt lat="45.683925" lon="11.556505"><ele>87.5</ele><time>2026-03-28T16:06:42.138Z</time></trkpt><trkpt lat="45.6837833" lon="11.5565483"><ele>88.0</ele><time>2026-03-28T16:06:43.138Z</time></trkpt><trkpt lat="45.6836367" lon="11.5565967"><ele>87.66666666666666</ele><time>2026-03-28T16:06:44.138Z</time></trkpt><trkpt lat="45.6834833" lon="11.5566367"><ele>87.33333333333333</ele><time>2026-03-28T16:06:45.138Z</time></trkpt><trkpt lat="45.683335" lon="11.5566833"><ele>87.0</ele><time>2026-03-28T16:06:46.137Z</time></trkpt><trkpt lat="45.6831917" lon="11.5567333"><ele>87.0</ele><time>2026-03-28T16:06:47.138Z</time></trkpt><trkpt lat="45.6830517" lon="11.5567867"><ele>87.0</ele><time>2026-03-28T16:06:48.138Z</time></trkpt><trkpt lat="45.6829083" lon="11.556845"><ele>87.0</ele><time>2026-03-28T16:06:49.138Z</time></trkpt><trkpt lat="45.6827567" lon="11.5569083"><ele>87.0</ele><time>2026-03-28T16:06:50.138Z</time></trkpt><trkpt lat="45.6826017" lon="11.5569767"><ele>87.0</ele><time>2026-03-28T16:06:51.138Z</time></trkpt><trkpt lat="45.6824383" lon="11.557045"><ele>87.0</ele><time>2026-03-28T16:06:52.138Z</time></trkpt><trkpt lat="45.6822733" lon="11.5571167"><ele>87.33333333333333</ele><time>2026-03-28T16:06:53.137Z</time></trkpt><trkpt lat="45.6821033" lon="11.5571867"><ele>87.66666666666666</ele><time>2026-03-28T16:06:54.138Z</time></trkpt><trkpt lat="45.6819417" lon="11.5572517"><ele>88.0</ele><time>2026-03-28T16:06:55.137Z</time></trkpt><trkpt lat="45.6817917" lon="11.5573083"><ele>88.0</ele><time>2026-03-28T16:06:56.138Z</time></trkpt><trkpt lat="45.681645" lon="11.55736"><ele>88.0</ele><time>2026-03-28T16:06:57.138Z</time></trkpt><trkpt lat="45.6815183" lon="11.5574117"><ele>88.0</ele><time>2026-03-28T16:06:58.138Z</time></trkpt><trkpt lat="45.68141" lon="11.5574567"><ele>88.0</ele><time>2026-03-28T16:06:59.138Z</time></trkpt><trkpt lat="45.6813183" lon="11.5574917"><ele>88.0</ele><time>2026-03-28T16:07:00.138Z</time></trkpt><trkpt lat="45.6812417" lon="11.5575183"><ele>88.0</ele><time>2026-03-28T16:07:01.138Z</time></trkpt><trkpt lat="45.6811683" lon="11.557545"><ele>88.0</ele><time>2026-03-28T16:07:02.138Z</time></trkpt><trkpt lat="45.6811017" lon="11.55757"><ele>88.0</ele><time>2026-03-28T16:07:03.138Z</time></trkpt><trkpt lat="45.68103" lon="11.557595"><ele>88.0</ele><time>2026-03-28T16:07:04.138Z</time></trkpt><trkpt lat="45.6809633" lon="11.5576283"><ele>88.0</ele><time>2026-03-28T16:07:05.138Z</time></trkpt><trkpt lat="45.6808933" lon="11.557655"><ele>88.0</ele><time>2026-03-28T16:07:06.137Z</time></trkpt><trkpt lat="45.6808283" lon="11.5576717"><ele>88.33333333333333</ele><time>2026-03-28T16:07:07.137Z</time></trkpt><trkpt lat="45.680765" lon="11.5576983"><ele>88.66666666666666</ele><time>2026-03-28T16:07:08.138Z</time></trkpt><trkpt lat="45.6807" lon="11.557745"><ele>89.0</ele><time>2026-03-28T16:07:09.138Z</time></trkpt><trkpt lat="45.680635" lon="11.5577867"><ele>89.33333333333333</ele><time>2026-03-28T16:07:10.138Z</time></trkpt><trkpt lat="45.68056" lon="11.557815"><ele>89.66666666666667</ele><time>2026-03-28T16:07:11.137Z</time></trkpt><trkpt lat="45.680475" lon="11.55785"><ele>90.0</ele><time>2026-03-28T16:07:12.137Z</time></trkpt><trkpt lat="45.6803817" lon="11.5578883"><ele>88.2</ele><time>2026-03-28T16:07:13.138Z</time></trkpt><trkpt lat="45.680285" lon="11.557925"><ele>86.4</ele><time>2026-03-28T16:07:14.137Z</time></trkpt><trkpt lat="45.680195" lon="11.557965"><ele>84.6</ele><time>2026-03-28T16:07:15.137Z</time></trkpt><trkpt lat="45.6801" lon="11.5579983"><ele>82.8</ele><time>2026-03-28T16:07:16.138Z</time></trkpt><trkpt lat="45.6799983" lon="11.5580367"><ele>81.0</ele><time>2026-03-28T16:07:17.138Z</time></trkpt><trkpt lat="45.679885" lon="11.5580717"><ele>81.0</ele><time>2026-03-28T16:07:18.138Z</time></trkpt><trkpt lat="45.6797717" lon="11.558115"><ele>81.0</ele><time>2026-03-28T16:07:19.137Z</time></trkpt><trkpt lat="45.6796583" lon="11.55815"><ele>81.0</ele><time>2026-03-28T16:07:20.138Z</time></trkpt><trkpt lat="45.67954" lon="11.5582017"><ele>81.0</ele><time>2026-03-28T16:07:21.138Z</time></trkpt><trkpt lat="45.6794183" lon="11.55825"><ele>82.25</ele><time>2026-03-28T16:07:22.138Z</time></trkpt><trkpt lat="45.67929" lon="11.5583033"><ele>83.5</ele><time>2026-03-28T16:07:23.138Z</time></trkpt><trkpt lat="45.6791633" lon="11.5583583"><ele>84.75</ele><time>2026-03-28T16:07:24.137Z</time></trkpt><trkpt lat="45.6790483" lon="11.558405"><ele>86.0</ele><time>2026-03-28T16:07:25.138Z</time></trkpt><trkpt lat="45.6789383" lon="11.5584533"><ele>86.0</ele><time>2026-03-28T16:07:26.138Z</time></trkpt><trkpt lat="45.6788317" lon="11.558505"><ele>86.0</ele><time>2026-03-28T16:07:27.137Z</time></trkpt><trkpt lat="45.6787333" lon="11.5585517"><ele>86.0</ele><time>2026-03-28T16:07:28.138Z</time></trkpt><trkpt lat="45.678635" lon="11.5586083"><ele>86.0</ele><time>2026-03-28T16:07:29.138Z</time></trkpt><trkpt lat="45.67855" lon="11.558675"><ele>86.0</ele><time>2026-03-28T16:07:30.138Z</time></trkpt><trkpt lat="45.6784583" lon="11.5587417"><ele>85.6</ele><time>2026-03-28T16:07:31.138Z</time></trkpt><trkpt lat="45.678365" lon="11.558805"><ele>85.19999999999999</ele><time>2026-03-28T16:07:32.138Z</time></trkpt><trkpt lat="45.6782733" lon="11.558875"><ele>84.80000000000001</ele><time>2026-03-28T16:07:33.137Z</time></trkpt><trkpt lat="45.678175" lon="11.5589517"><ele>84.4</ele><time>2026-03-28T16:07:34.138Z</time></trkpt><trkpt lat="45.6780783" lon="11.5590317"><ele>84.0</ele><time>2026-03-28T16:07:35.137Z</time></trkpt><trkpt lat="45.6779667" lon="11.559115"><ele>84.0</ele><time>2026-03-28T16:07:36.138Z</time></trkpt><trkpt lat="45.6778483" lon="11.559205"><ele>84.0</ele><time>2026-03-28T16:07:37.137Z</time></trkpt><trkpt lat="45.677725" lon="11.559305"><ele>84.0</ele><time>2026-03-28T16:07:38.137Z</time></trkpt><trkpt lat="45.677605" lon="11.5594117"><ele>84.0</ele><time>2026-03-28T16:07:39.137Z</time></trkpt><trkpt lat="45.677485" lon="11.559525"><ele>84.0</ele><time>2026-03-28T16:07:40.138Z</time></trkpt><trkpt lat="45.6773667" lon="11.5596383"><ele>84.0</ele><time>2026-03-28T16:07:41.138Z</time></trkpt><trkpt lat="45.6772467" lon="11.5597467"><ele>84.0</ele><time>2026-03-28T16:07:42.137Z</time></trkpt><trkpt lat="45.6771267" lon="11.5598717"><ele>84.0</ele><time>2026-03-28T16:07:43.138Z</time></trkpt><trkpt lat="45.6770117" lon="11.5599933"><ele>84.75</ele><time>2026-03-28T16:07:44.138Z</time></trkpt><trkpt lat="45.676895" lon="11.5601133"><ele>85.5</ele><time>2026-03-28T16:07:45.138Z</time></trkpt><trkpt lat="45.67678" lon="11.5602333"><ele>86.25</ele><time>2026-03-28T16:07:46.138Z</time></trkpt><trkpt lat="45.6766683" lon="11.5603567"><ele>87.0</ele><time>2026-03-28T16:07:47.138Z</time></trkpt><trkpt lat="45.676545" lon="11.5604767"><ele>88.0</ele><time>2026-03-28T16:07:48.138Z</time></trkpt><trkpt lat="45.6764183" lon="11.5606017"><ele>89.0</ele><time>2026-03-28T16:07:49.137Z</time></trkpt><trkpt lat="45.676295" lon="11.56073"><ele>90.0</ele><time>2026-03-28T16:07:50.137Z</time></trkpt><trkpt lat="45.6761733" lon="11.5608533"><ele>89.25</ele><time>2026-03-28T16:07:51.138Z</time></trkpt><trkpt lat="45.6760533" lon="11.560975"><ele>88.5</ele><time>2026-03-28T16:07:52.138Z</time></trkpt><trkpt lat="45.67594" lon="11.561085"><ele>87.75</ele><time>2026-03-28T16:07:53.137Z</time></trkpt><trkpt lat="45.6758283" lon="11.5611917"><ele>87.0</ele><time>2026-03-28T16:07:54.138Z</time></trkpt><trkpt lat="45.675715" lon="11.5613083"><ele>87.0</ele><time>2026-03-28T16:07:55.138Z</time></trkpt><trkpt lat="45.6756083" lon="11.561425"><ele>87.0</ele><time>2026-03-28T16:07:56.138Z</time></trkpt><trkpt lat="45.675515" lon="11.56151"><ele>87.0</ele><time>2026-03-28T16:07:57.137Z</time></trkpt><trkpt lat="45.67543" lon="11.5616067"><ele>87.0</ele><time>2026-03-28T16:07:58.138Z</time></trkpt><trkpt lat="45.67535" lon="11.5616917"><ele>86.75</ele><time>2026-03-28T16:07:59.138Z</time></trkpt><trkpt lat="45.675265" lon="11.5617783"><ele>86.5</ele><time>2026-03-28T16:08:00.137Z</time></trkpt><trkpt lat="45.6751767" lon="11.5618617"><ele>86.25</ele><time>2026-03-28T16:08:01.137Z</time></trkpt><trkpt lat="45.6750867" lon="11.5619667"><ele>86.0</ele><time>2026-03-28T16:08:02.138Z</time></trkpt><trkpt lat="45.67499" lon="11.5620767"><ele>86.0</ele><time>2026-03-28T16:08:03.138Z</time></trkpt><trkpt lat="45.674895" lon="11.5621817"><ele>86.0</ele><time>2026-03-28T16:08:04.137Z</time></trkpt><trkpt lat="45.6748067" lon="11.562275"><ele>86.0</ele><time>2026-03-28T16:08:05.137Z</time></trkpt><trkpt lat="45.6747267" lon="11.562365"><ele>86.0</ele><time>2026-03-28T16:08:06.138Z</time></trkpt><trkpt lat="45.6746533" lon="11.5624483"><ele>86.0</ele><time>2026-03-28T16:08:07.138Z</time></trkpt><trkpt lat="45.67459" lon="11.56254"><ele>86.0</ele><time>2026-03-28T16:08:08.138Z</time></trkpt><trkpt lat="45.6745267" lon="11.5626283"><ele>86.0</ele><time>2026-03-28T16:08:09.137Z</time></trkpt><trkpt lat="45.674465" lon="11.5626867"><ele>86.0</ele><time>2026-03-28T16:08:10.138Z</time></trkpt><trkpt lat="45.6744183" lon="11.5627583"><ele>86.0</ele><time>2026-03-28T16:08:11.138Z</time></trkpt><trkpt lat="45.6743733" lon="11.5628317"><ele>86.0</ele><time>2026-03-28T16:08:12.137Z</time></trkpt><trkpt lat="45.67428" lon="11.5629533"><ele>86.0</ele><time>2026-03-28T16:08:14.138Z</time></trkpt><trkpt lat="45.6742333" lon="11.5630333"><ele>86.28571428571429</ele><time>2026-03-28T16:08:15.137Z</time></trkpt><trkpt lat="45.6741867" lon="11.5631117"><ele>86.57142857142857</ele><time>2026-03-28T16:08:16.138Z</time></trkpt><trkpt lat="45.6741383" lon="11.5631817"><ele>86.85714285714286</ele><time>2026-03-28T16:08:17.138Z</time></trkpt><trkpt lat="45.6740933" lon="11.5632617"><ele>87.14285714285714</ele><time>2026-03-28T16:08:18.138Z</time></trkpt><trkpt lat="45.6740433" lon="11.56333"><ele>87.42857142857143</ele><time>2026-03-28T16:08:19.138Z</time></trkpt><trkpt lat="45.6739883" lon="11.5634017"><ele>87.71428571428572</ele><time>2026-03-28T16:08:20.138Z</time></trkpt><trkpt lat="45.6739267" lon="11.5634867"><ele>88.0</ele><time>2026-03-28T16:08:21.137Z</time></trkpt><trkpt lat="45.67386" lon="11.5635817"><ele>88.0</ele><time>2026-03-28T16:08:22.138Z</time></trkpt><trkpt lat="45.6737883" lon="11.56369"><ele>88.0</ele><time>2026-03-28T16:08:23.138Z</time></trkpt><trkpt lat="45.6737183" lon="11.5637883"><ele>88.0</ele><time>2026-03-28T16:08:24.138Z</time></trkpt><trkpt lat="45.6736383" lon="11.5638967"><ele>88.0</ele><time>2026-03-28T16:08:25.137Z</time></trkpt><trkpt lat="45.6735633" lon="11.56402"><ele>88.0</ele><time>2026-03-28T16:08:26.138Z</time></trkpt><trkpt lat="45.6734783" lon="11.564145"><ele>87.5</ele><time>2026-03-28T16:08:27.137Z</time></trkpt><trkpt lat="45.673375" lon="11.5642683"><ele>87.0</ele><time>2026-03-28T16:08:28.138Z</time></trkpt><trkpt lat="45.6732767" lon="11.56439"><ele>86.5</ele><time>2026-03-28T16:08:29.138Z</time></trkpt><trkpt lat="45.673175" lon="11.5645033"><ele>86.0</ele><time>2026-03-28T16:08:30.138Z</time></trkpt><trkpt lat="45.673065" lon="11.5646117"><ele>86.0</ele><time>2026-03-28T16:08:31.138Z</time></trkpt><trkpt lat="45.67295" lon="11.56472"><ele>86.0</ele><time>2026-03-28T16:08:32.137Z</time></trkpt><trkpt lat="45.6728317" lon="11.56482"><ele>86.0</ele><time>2026-03-28T16:08:33.136Z</time></trkpt><trkpt lat="45.6727117" lon="11.5649017"><ele>86.0</ele><time>2026-03-28T16:08:34.137Z</time></trkpt><trkpt lat="45.672605" lon="11.5649833"><ele>85.66666666666667</ele><time>2026-03-28T16:08:35.137Z</time></trkpt><trkpt lat="45.672505" lon="11.5650433"><ele>85.33333333333334</ele><time>2026-03-28T16:08:36.137Z</time></trkpt><trkpt lat="45.6724133" lon="11.5651067"><ele>85.0</ele><time>2026-03-28T16:08:37.137Z</time></trkpt><trkpt lat="45.6723367" lon="11.56517"><ele>84.66666666666667</ele><time>2026-03-28T16:08:38.137Z</time></trkpt><trkpt lat="45.6722667" lon="11.5652267"><ele>84.33333333333333</ele><time>2026-03-28T16:08:39.137Z</time></trkpt><trkpt lat="45.672205" lon="11.565275"><ele>84.0</ele><time>2026-03-28T16:08:40.137Z</time></trkpt><trkpt lat="45.672145" lon="11.5653133"><ele>84.0</ele><time>2026-03-28T16:08:41.137Z</time></trkpt><trkpt lat="45.6720317" lon="11.5653367"><ele>84.0</ele><time>2026-03-28T16:08:43.137Z</time></trkpt><trkpt lat="45.6719683" lon="11.565355"><ele>84.0</ele><time>2026-03-28T16:08:44.137Z</time></trkpt><trkpt lat="45.6719033" lon="11.5653933"><ele>84.0</ele><time>2026-03-28T16:08:45.137Z</time></trkpt><trkpt lat="45.6718367" lon="11.565445"><ele>84.0</ele><time>2026-03-28T16:08:46.137Z</time></trkpt><trkpt lat="45.6717733" lon="11.5654933"><ele>84.0</ele><time>2026-03-28T16:08:47.137Z</time></trkpt><trkpt lat="45.6717083" lon="11.565535"><ele>83.66666666666667</ele><time>2026-03-28T16:08:48.137Z</time></trkpt><trkpt lat="45.6716467" lon="11.565575"><ele>83.33333333333333</ele><time>2026-03-28T16:08:49.137Z</time></trkpt><trkpt lat="45.67155" lon="11.56564"><ele>83.0</ele><time>2026-03-28T16:08:51.136Z</time></trkpt><trkpt lat="45.67148" lon="11.565685"><ele>82.66666666666666</ele><time>2026-03-28T16:08:53.137Z</time></trkpt><trkpt lat="45.6714117" lon="11.56567"><ele>82.33333333333333</ele><time>2026-03-28T16:08:55.137Z</time></trkpt><trkpt lat="45.671375" lon="11.5655667"><ele>82.0</ele><time>2026-03-28T16:08:57.137Z</time></trkpt><trkpt lat="45.6713133" lon="11.5654617"><ele>82.0</ele><time>2026-03-28T16:08:59.137Z</time></trkpt><trkpt lat="45.6712183" lon="11.5654517"><ele>82.0</ele><time>2026-03-28T16:09:01.137Z</time></trkpt><trkpt lat="45.6711333" lon="11.565485"><ele>82.0</ele><time>2026-03-28T16:09:03.136Z</time></trkpt><trkpt lat="45.6710733" lon="11.5654567"><ele>82.0</ele><time>2026-03-28T16:09:05.136Z</time></trkpt><trkpt lat="45.6710217" lon="11.5653833"><ele>82.0</ele><time>2026-03-28T16:09:07.137Z</time></trkpt><trkpt lat="45.6709567" lon="11.565275"><ele>82.0</ele><time>2026-03-28T16:09:09.137Z</time></trkpt><trkpt lat="45.6709133" lon="11.5652067"><ele>81.14285714285714</ele><time>2026-03-28T16:09:10.137Z</time></trkpt><trkpt lat="45.6708733" lon="11.56513"><ele>80.28571428571428</ele><time>2026-03-28T16:09:11.137Z</time></trkpt><trkpt lat="45.6708367" lon="11.565055"><ele>79.42857142857142</ele><time>2026-03-28T16:09:12.136Z</time></trkpt><trkpt lat="45.670785" lon="11.5649267"><ele>78.57142857142857</ele><time>2026-03-28T16:09:14.137Z</time></trkpt><trkpt lat="45.67074" lon="11.5648267"><ele>77.71428571428572</ele><time>2026-03-28T16:09:16.137Z</time></trkpt><trkpt lat="45.670715" lon="11.5647417"><ele>76.85714285714285</ele><time>2026-03-28T16:09:18.136Z</time></trkpt><trkpt lat="45.6706867" lon="11.564655"><ele>76.0</ele><time>2026-03-28T16:09:20.137Z</time></trkpt><trkpt lat="45.6706483" lon="11.5645567"><ele>76.28571428571428</ele><time>2026-03-28T16:09:22.137Z</time></trkpt><trkpt lat="45.67062" lon="11.5644583"><ele>76.57142857142858</ele><time>2026-03-28T16:09:24.137Z</time></trkpt><trkpt lat="45.6706" lon="11.56437"><ele>76.85714285714286</ele><time>2026-03-28T16:09:26.137Z</time></trkpt><trkpt lat="45.6705667" lon="11.5642917"><ele>77.14285714285714</ele><time>2026-03-28T16:09:30.137Z</time></trkpt><trkpt lat="45.6704883" lon="11.5642083"><ele>77.42857142857142</ele><time>2026-03-28T16:09:34.137Z</time></trkpt><trkpt lat="45.67043" lon="11.5641617"><ele>77.71428571428572</ele><time>2026-03-28T16:09:36.137Z</time></trkpt><trkpt lat="45.670355" lon="11.5642017"><ele>78.0</ele><time>2026-03-28T16:09:40.137Z</time></trkpt><trkpt lat="45.6702967" lon="11.56428"><ele>78.33333333333333</ele><time>2026-03-28T16:09:42.137Z</time></trkpt><trkpt lat="45.67023" lon="11.5643483"><ele>78.66666666666667</ele><time>2026-03-28T16:09:44.137Z</time></trkpt><trkpt lat="45.67017" lon="11.5644333"><ele>79.0</ele><time>2026-03-28T16:09:46.137Z</time></trkpt><trkpt lat="45.670125" lon="11.56453"><ele>79.33333333333334</ele><time>2026-03-28T16:09:48.137Z</time></trkpt><trkpt lat="45.6700633" lon="11.5646367"><ele>79.66666666666667</ele><time>2026-03-28T16:09:50.136Z</time></trkpt><trkpt lat="45.6699767" lon="11.5646867"><ele>80.0</ele><time>2026-03-28T16:09:51.136Z</time></trkpt><trkpt lat="45.6698833" lon="11.5647433"><ele>79.4</ele><time>2026-03-28T16:09:52.137Z</time></trkpt><trkpt lat="45.669785" lon="11.564805"><ele>78.8</ele><time>2026-03-28T16:09:53.137Z</time></trkpt><trkpt lat="45.6696733" lon="11.5648583"><ele>78.2</ele><time>2026-03-28T16:09:54.137Z</time></trkpt><trkpt lat="45.6695817" lon="11.5649167"><ele>77.6</ele><time>2026-03-28T16:09:55.136Z</time></trkpt><trkpt lat="45.6695067" lon="11.564965"><ele>77.0</ele><time>2026-03-28T16:09:56.137Z</time></trkpt><trkpt lat="45.6694383" lon="11.565015"><ele>77.0</ele><time>2026-03-28T16:09:57.137Z</time></trkpt><trkpt lat="45.66932" lon="11.5650617"><ele>77.0</ele><time>2026-03-28T16:09:58.136Z</time></trkpt><trkpt lat="45.6692233" lon="11.565075"><ele>77.0</ele><time>2026-03-28T16:09:59.137Z</time></trkpt><trkpt lat="45.6691333" lon="11.5650867"><ele>77.0</ele><time>2026-03-28T16:10:00.137Z</time></trkpt><trkpt lat="45.6690483" lon="11.56512"><ele>77.0</ele><time>2026-03-28T16:10:01.137Z</time></trkpt><trkpt lat="45.6689617" lon="11.56517"><ele>77.0</ele><time>2026-03-28T16:10:02.136Z</time></trkpt><trkpt lat="45.66888" lon="11.565215"><ele>77.0</ele><time>2026-03-28T16:10:03.137Z</time></trkpt><trkpt lat="45.668765" lon="11.5652817"><ele>77.0</ele><time>2026-03-28T16:10:05.137Z</time></trkpt><trkpt lat="45.6687017" lon="11.565315"><ele>77.0</ele><time>2026-03-28T16:10:06.137Z</time></trkpt><trkpt lat="45.6686283" lon="11.56536"><ele>77.0</ele><time>2026-03-28T16:10:07.136Z</time></trkpt><trkpt lat="45.6685533" lon="11.5654033"><ele>77.0</ele><time>2026-03-28T16:10:08.136Z</time></trkpt><trkpt lat="45.6684867" lon="11.5654517"><ele>77.0</ele><time>2026-03-28T16:10:09.137Z</time></trkpt><trkpt lat="45.668415" lon="11.5654917"><ele>77.0</ele><time>2026-03-28T16:10:10.136Z</time></trkpt><trkpt lat="45.6683517" lon="11.56553"><ele>77.0</ele><time>2026-03-28T16:10:11.137Z</time></trkpt><trkpt lat="45.6682667" lon="11.56558"><ele>77.0</ele><time>2026-03-28T16:10:13.136Z</time></trkpt><trkpt lat="45.6682033" lon="11.56562"><ele>77.0</ele><time>2026-03-28T16:10:16.137Z</time></trkpt><trkpt lat="45.668115" lon="11.5656767"><ele>77.0</ele><time>2026-03-28T16:10:19.136Z</time></trkpt><trkpt lat="45.6680383" lon="11.5657383"><ele>77.0</ele><time>2026-03-28T16:10:21.136Z</time></trkpt><trkpt lat="45.66794" lon="11.5657883"><ele>77.0</ele><time>2026-03-28T16:10:23.137Z</time></trkpt><trkpt lat="45.6678767" lon="11.565815"><ele>77.0</ele><time>2026-03-28T16:10:24.137Z</time></trkpt><trkpt lat="45.6677567" lon="11.5658633"><ele>77.0</ele><time>2026-03-28T16:10:26.137Z</time></trkpt><trkpt lat="45.6676717" lon="11.5659033"><ele>77.0</ele><time>2026-03-28T16:10:28.136Z</time></trkpt><trkpt lat="45.6675783" lon="11.56596"><ele>77.4</ele><time>2026-03-28T16:10:30.137Z</time></trkpt><trkpt lat="45.6674717" lon="11.5660067"><ele>77.80000000000001</ele><time>2026-03-28T16:10:32.137Z</time></trkpt><trkpt lat="45.6673617" lon="11.5660517"><ele>78.2</ele><time>2026-03-28T16:10:34.136Z</time></trkpt><trkpt lat="45.6672717" lon="11.56609"><ele>78.60000000000001</ele><time>2026-03-28T16:10:36.137Z</time></trkpt><trkpt lat="45.6671967" lon="11.5661283"><ele>79.0</ele><time>2026-03-28T16:10:38.136Z</time></trkpt><trkpt lat="45.6671333" lon="11.56616"><ele>79.0</ele><time>2026-03-28T16:10:40.136Z</time></trkpt><trkpt lat="45.6670617" lon="11.5661833"><ele>79.0</ele><time>2026-03-28T16:10:42.136Z</time></trkpt><trkpt lat="45.6669983" lon="11.5662033"><ele>79.0</ele><time>2026-03-28T16:10:44.137Z</time></trkpt><trkpt lat="45.6669" lon="11.5662533"><ele>79.0</ele><time>2026-03-28T16:10:46.137Z</time></trkpt><trkpt lat="45.666815" lon="11.566295"><ele>79.0</ele><time>2026-03-28T16:10:48.137Z</time></trkpt><trkpt lat="45.6667067" lon="11.5663383"><ele>79.0</ele><time>2026-03-28T16:10:50.137Z</time></trkpt><trkpt lat="45.6666" lon="11.5663633"><ele>78.5</ele><time>2026-03-28T16:10:52.137Z</time></trkpt><trkpt lat="45.6664883" lon="11.5663883"><ele>78.0</ele><time>2026-03-28T16:10:54.137Z</time></trkpt><trkpt lat="45.666365" lon="11.56644"><ele>77.5</ele><time>2026-03-28T16:10:56.137Z</time></trkpt><trkpt lat="45.6662683" lon="11.5664717"><ele>77.0</ele><time>2026-03-28T16:10:58.137Z</time></trkpt><trkpt lat="45.66614" lon="11.56651"><ele>77.0</ele><time>2026-03-28T16:11:00.137Z</time></trkpt><trkpt lat="45.6660483" lon="11.56654"><ele>77.0</ele><time>2026-03-28T16:11:01.137Z</time></trkpt><trkpt lat="45.6659367" lon="11.56657"><ele>77.0</ele><time>2026-03-28T16:11:02.137Z</time></trkpt><trkpt lat="45.6658033" lon="11.5666167"><ele>77.0</ele><time>2026-03-28T16:11:03.137Z</time></trkpt><trkpt lat="45.6656617" lon="11.5666567"><ele>77.0</ele><time>2026-03-28T16:11:04.137Z</time></trkpt><trkpt lat="45.6655017" lon="11.5666967"><ele>77.0</ele><time>2026-03-28T16:11:05.137Z</time></trkpt><trkpt lat="45.66535" lon="11.566735"><ele>77.0</ele><time>2026-03-28T16:11:06.137Z</time></trkpt><trkpt lat="45.6652133" lon="11.5667717"><ele>77.5</ele><time>2026-03-28T16:11:07.136Z</time></trkpt><trkpt lat="45.66508" lon="11.56681"><ele>78.0</ele><time>2026-03-28T16:11:08.136Z</time></trkpt><trkpt lat="45.6649417" lon="11.5668533"><ele>78.5</ele><time>2026-03-28T16:11:09.137Z</time></trkpt><trkpt lat="45.6648083" lon="11.5668967"><ele>79.0</ele><time>2026-03-28T16:11:10.137Z</time></trkpt><trkpt lat="45.6646733" lon="11.5669383"><ele>79.0</ele><time>2026-03-28T16:11:11.136Z</time></trkpt><trkpt lat="45.66454" lon="11.5669967"><ele>79.0</ele><time>2026-03-28T16:11:12.136Z</time></trkpt><trkpt lat="45.6643983" lon="11.56705"><ele>79.0</ele><time>2026-03-28T16:11:13.136Z</time></trkpt><trkpt lat="45.664265" lon="11.5670967"><ele>79.0</ele><time>2026-03-28T16:11:14.136Z</time></trkpt><trkpt lat="45.6641317" lon="11.5671467"><ele>78.5</ele><time>2026-03-28T16:11:15.136Z</time></trkpt><trkpt lat="45.6639967" lon="11.5672067"><ele>78.0</ele><time>2026-03-28T16:11:16.137Z</time></trkpt><trkpt lat="45.6638583" lon="11.5672667"><ele>77.5</ele><time>2026-03-28T16:11:17.137Z</time></trkpt><trkpt lat="45.6637167" lon="11.5673283"><ele>77.0</ele><time>2026-03-28T16:11:18.136Z</time></trkpt><trkpt lat="45.6635667" lon="11.5673983"><ele>76.66666666666667</ele><time>2026-03-28T16:11:19.137Z</time></trkpt><trkpt lat="45.66341" lon="11.567465"><ele>76.33333333333333</ele><time>2026-03-28T16:11:20.136Z</time></trkpt><trkpt lat="45.6632533" lon="11.5675417"><ele>76.0</ele><time>2026-03-28T16:11:21.136Z</time></trkpt><trkpt lat="45.66309" lon="11.56762"><ele>76.0</ele><time>2026-03-28T16:11:22.137Z</time></trkpt><trkpt lat="45.6629317" lon="11.5677"><ele>76.0</ele><time>2026-03-28T16:11:23.137Z</time></trkpt><trkpt lat="45.6627783" lon="11.5677783"><ele>76.0</ele><time>2026-03-28T16:11:24.137Z</time></trkpt><trkpt lat="45.6626283" lon="11.56785"><ele>75.75</ele><time>2026-03-28T16:11:25.137Z</time></trkpt><trkpt lat="45.66249" lon="11.5679133"><ele>75.5</ele><time>2026-03-28T16:11:26.136Z</time></trkpt><trkpt lat="45.6623583" lon="11.5679817"><ele>75.25</ele><time>2026-03-28T16:11:27.137Z</time></trkpt><trkpt lat="45.6622533" lon="11.5680483"><ele>75.0</ele><time>2026-03-28T16:11:28.137Z</time></trkpt><trkpt lat="45.662175" lon="11.568105"><ele>75.0</ele><time>2026-03-28T16:11:29.137Z</time></trkpt><trkpt lat="45.6620783" lon="11.5681667"><ele>75.0</ele><time>2026-03-28T16:11:31.137Z</time></trkpt><trkpt lat="45.6620083" lon="11.5682017"><ele>75.0</ele><time>2026-03-28T16:11:34.136Z</time></trkpt><trkpt lat="45.6619417" lon="11.56823"><ele>75.0</ele><time>2026-03-28T16:11:37.137Z</time></trkpt><trkpt lat="45.661845" lon="11.568305"><ele>75.0</ele><time>2026-03-28T16:11:39.137Z</time></trkpt><trkpt lat="45.661785" lon="11.56834"><ele>75.0</ele><time>2026-03-28T16:11:40.137Z</time></trkpt><trkpt lat="45.6617083" lon="11.5683867"><ele>75.4</ele><time>2026-03-28T16:11:41.136Z</time></trkpt><trkpt lat="45.6616233" lon="11.5684383"><ele>75.8</ele><time>2026-03-28T16:11:42.137Z</time></trkpt><trkpt lat="45.6615217" lon="11.5685017"><ele>76.2</ele><time>2026-03-28T16:11:43.136Z</time></trkpt><trkpt lat="45.66142" lon="11.5685733"><ele>76.6</ele><time>2026-03-28T16:11:44.136Z</time></trkpt><trkpt lat="45.661305" lon="11.5686433"><ele>77.0</ele><time>2026-03-28T16:11:45.136Z</time></trkpt><trkpt lat="45.6611783" lon="11.5687117"><ele>76.0</ele><time>2026-03-28T16:11:46.137Z</time></trkpt><trkpt lat="45.661055" lon="11.568795"><ele>75.0</ele><time>2026-03-28T16:11:47.137Z</time></trkpt><trkpt lat="45.6609167" lon="11.5688667"><ele>74.0</ele><time>2026-03-28T16:11:48.137Z</time></trkpt><trkpt lat="45.6607833" lon="11.5689483"><ele>73.0</ele><time>2026-03-28T16:11:49.137Z</time></trkpt><trkpt lat="45.6606333" lon="11.56903"><ele>73.0</ele><time>2026-03-28T16:11:50.137Z</time></trkpt><trkpt lat="45.66048" lon="11.5691217"><ele>73.0</ele><time>2026-03-28T16:11:51.137Z</time></trkpt><trkpt lat="45.66033" lon="11.5692033"><ele>73.0</ele><time>2026-03-28T16:11:52.137Z</time></trkpt><trkpt lat="45.660185" lon="11.56929"><ele>73.25</ele><time>2026-03-28T16:11:53.137Z</time></trkpt><trkpt lat="45.66005" lon="11.569385"><ele>73.5</ele><time>2026-03-28T16:11:54.137Z</time></trkpt><trkpt lat="45.6599267" lon="11.5694783"><ele>73.75</ele><time>2026-03-28T16:11:55.137Z</time></trkpt><trkpt lat="45.6598" lon="11.5695817"><ele>74.0</ele><time>2026-03-28T16:11:56.136Z</time></trkpt><trkpt lat="45.6596717" lon="11.5696833"><ele>74.0</ele><time>2026-03-28T16:11:57.136Z</time></trkpt><trkpt lat="45.6595467" lon="11.5698"><ele>74.0</ele><time>2026-03-28T16:11:58.137Z</time></trkpt><trkpt lat="45.65943" lon="11.569915"><ele>74.0</ele><time>2026-03-28T16:11:59.136Z</time></trkpt><trkpt lat="45.6593033" lon="11.5700217"><ele>74.0</ele><time>2026-03-28T16:12:00.137Z</time></trkpt><trkpt lat="45.6591767" lon="11.5701183"><ele>73.75</ele><time>2026-03-28T16:12:01.137Z</time></trkpt><trkpt lat="45.6590517" lon="11.5702233"><ele>73.5</ele><time>2026-03-28T16:12:02.137Z</time></trkpt><trkpt lat="45.658925" lon="11.5703417"><ele>73.25</ele><time>2026-03-28T16:12:03.137Z</time></trkpt><trkpt lat="45.658795" lon="11.5704567"><ele>73.0</ele><time>2026-03-28T16:12:04.136Z</time></trkpt><trkpt lat="45.6586617" lon="11.5705617"><ele>72.5</ele><time>2026-03-28T16:12:05.137Z</time></trkpt><trkpt lat="45.6585283" lon="11.5706633"><ele>72.0</ele><time>2026-03-28T16:12:06.137Z</time></trkpt><trkpt lat="45.6584" lon="11.570765"><ele>71.5</ele><time>2026-03-28T16:12:07.137Z</time></trkpt><trkpt lat="45.6582717" lon="11.5708683"><ele>71.0</ele><time>2026-03-28T16:12:08.136Z</time></trkpt><trkpt lat="45.65814" lon="11.570975"><ele>71.0</ele><time>2026-03-28T16:12:09.137Z</time></trkpt><trkpt lat="45.6580133" lon="11.5710817"><ele>71.0</ele><time>2026-03-28T16:12:10.137Z</time></trkpt><trkpt lat="45.6578867" lon="11.5711817"><ele>71.0</ele><time>2026-03-28T16:12:11.137Z</time></trkpt><trkpt lat="45.6577567" lon="11.5712717"><ele>71.0</ele><time>2026-03-28T16:12:12.137Z</time></trkpt><trkpt lat="45.65764" lon="11.5713567"><ele>71.25</ele><time>2026-03-28T16:12:13.137Z</time></trkpt><trkpt lat="45.6575317" lon="11.5714433"><ele>71.5</ele><time>2026-03-28T16:12:14.137Z</time></trkpt><trkpt lat="45.65742" lon="11.571515"><ele>71.75</ele><time>2026-03-28T16:12:15.136Z</time></trkpt><trkpt lat="45.6573067" lon="11.5716"><ele>72.0</ele><time>2026-03-28T16:12:16.137Z</time></trkpt><trkpt lat="45.6571983" lon="11.5716917"><ele>72.0</ele><time>2026-03-28T16:12:17.137Z</time></trkpt><trkpt lat="45.657095" lon="11.5717933"><ele>72.0</ele><time>2026-03-28T16:12:18.137Z</time></trkpt><trkpt lat="45.6569917" lon="11.5719067"><ele>72.0</ele><time>2026-03-28T16:12:19.137Z</time></trkpt><trkpt lat="45.6568983" lon="11.572025"><ele>72.0</ele><time>2026-03-28T16:12:20.137Z</time></trkpt><trkpt lat="45.6567917" lon="11.57215"><ele>71.5</ele><time>2026-03-28T16:12:21.137Z</time></trkpt><trkpt lat="45.656685" lon="11.5722683"><ele>71.0</ele><time>2026-03-28T16:12:22.136Z</time></trkpt><trkpt lat="45.6565733" lon="11.5723833"><ele>70.5</ele><time>2026-03-28T16:12:23.137Z</time></trkpt><trkpt lat="45.6564633" lon="11.572495"><ele>70.0</ele><time>2026-03-28T16:12:24.137Z</time></trkpt><trkpt lat="45.6563517" lon="11.5726117"><ele>70.0</ele><time>2026-03-28T16:12:25.137Z</time></trkpt><trkpt lat="45.6562417" lon="11.5727267"><ele>70.0</ele><time>2026-03-28T16:12:26.136Z</time></trkpt><trkpt lat="45.656135" lon="11.57284"><ele>70.0</ele><time>2026-03-28T16:12:27.137Z</time></trkpt><trkpt lat="45.6560317" lon="11.57295"><ele>70.0</ele><time>2026-03-28T16:12:28.136Z</time></trkpt><trkpt lat="45.6559267" lon="11.5730633"><ele>70.25</ele><time>2026-03-28T16:12:29.137Z</time></trkpt><trkpt lat="45.65582" lon="11.573165"><ele>70.5</ele><time>2026-03-28T16:12:30.137Z</time></trkpt><trkpt lat="45.65571" lon="11.573275"><ele>70.75</ele><time>2026-03-28T16:12:31.137Z</time></trkpt><trkpt lat="45.6556017" lon="11.57339"><ele>71.0</ele><time>2026-03-28T16:12:32.137Z</time></trkpt><trkpt lat="45.6554883" lon="11.5735"><ele>71.0</ele><time>2026-03-28T16:12:33.136Z</time></trkpt><trkpt lat="45.65538" lon="11.573615"><ele>71.0</ele><time>2026-03-28T16:12:34.137Z</time></trkpt><trkpt lat="45.6552683" lon="11.5737383"><ele>71.0</ele><time>2026-03-28T16:12:35.137Z</time></trkpt><trkpt lat="45.6551567" lon="11.5738667"><ele>71.0</ele><time>2026-03-28T16:12:36.136Z</time></trkpt><trkpt lat="45.6550433" lon="11.5739817"><ele>71.5</ele><time>2026-03-28T16:12:37.137Z</time></trkpt><trkpt lat="45.654935" lon="11.574095"><ele>72.0</ele><time>2026-03-28T16:12:38.137Z</time></trkpt><trkpt lat="45.6548233" lon="11.574205"><ele>72.5</ele><time>2026-03-28T16:12:39.137Z</time></trkpt><trkpt lat="45.6547133" lon="11.5743233"><ele>73.0</ele><time>2026-03-28T16:12:40.137Z</time></trkpt><trkpt lat="45.6545983" lon="11.5744433"><ele>72.5</ele><time>2026-03-28T16:12:41.137Z</time></trkpt><trkpt lat="45.6544883" lon="11.57456"><ele>72.0</ele><time>2026-03-28T16:12:42.137Z</time></trkpt><trkpt lat="45.6543783" lon="11.5746783"><ele>71.5</ele><time>2026-03-28T16:12:43.136Z</time></trkpt><trkpt lat="45.65427" lon="11.5747883"><ele>71.0</ele><time>2026-03-28T16:12:44.137Z</time></trkpt><trkpt lat="45.6541633" lon="11.57491"><ele>71.0</ele><time>2026-03-28T16:12:45.137Z</time></trkpt><trkpt lat="45.6540533" lon="11.57502"><ele>71.0</ele><time>2026-03-28T16:12:46.137Z</time></trkpt><trkpt lat="45.6539383" lon="11.5751317"><ele>71.0</ele><time>2026-03-28T16:12:47.137Z</time></trkpt><trkpt lat="45.6538283" lon="11.5752483"><ele>71.0</ele><time>2026-03-28T16:12:48.137Z</time></trkpt><trkpt lat="45.653715" lon="11.575355"><ele>70.0</ele><time>2026-03-28T16:12:49.136Z</time></trkpt><trkpt lat="45.6536033" lon="11.5754733"><ele>69.0</ele><time>2026-03-28T16:12:50.137Z</time></trkpt><trkpt lat="45.65349" lon="11.5755867"><ele>68.0</ele><time>2026-03-28T16:12:51.137Z</time></trkpt><trkpt lat="45.65338" lon="11.57571"><ele>67.0</ele><time>2026-03-28T16:12:52.137Z</time></trkpt><trkpt lat="45.6532733" lon="11.5758283"><ele>67.0</ele><time>2026-03-28T16:12:53.137Z</time></trkpt><trkpt lat="45.6531617" lon="11.5759433"><ele>67.0</ele><time>2026-03-28T16:12:54.137Z</time></trkpt><trkpt lat="45.65305" lon="11.57606"><ele>67.0</ele><time>2026-03-28T16:12:55.137Z</time></trkpt><trkpt lat="45.6529333" lon="11.5761717"><ele>67.0</ele><time>2026-03-28T16:12:56.136Z</time></trkpt><trkpt lat="45.65282" lon="11.576285"><ele>66.25</ele><time>2026-03-28T16:12:57.137Z</time></trkpt><trkpt lat="45.652705" lon="11.5764"><ele>65.5</ele><time>2026-03-28T16:12:58.137Z</time></trkpt><trkpt lat="45.6525933" lon="11.5765233"><ele>64.75</ele><time>2026-03-28T16:12:59.137Z</time></trkpt><trkpt lat="45.6524767" lon="11.5766517"><ele>64.0</ele><time>2026-03-28T16:13:00.137Z</time></trkpt><trkpt lat="45.6523567" lon="11.5767833"><ele>64.0</ele><time>2026-03-28T16:13:01.137Z</time></trkpt><trkpt lat="45.652235" lon="11.5769067"><ele>64.0</ele><time>2026-03-28T16:13:02.137Z</time></trkpt><trkpt lat="45.652115" lon="11.577025"><ele>64.0</ele><time>2026-03-28T16:13:03.136Z</time></trkpt><trkpt lat="45.6519933" lon="11.5771467"><ele>64.0</ele><time>2026-03-28T16:13:04.137Z</time></trkpt><trkpt lat="45.6518783" lon="11.5772733"><ele>64.5</ele><time>2026-03-28T16:13:05.137Z</time></trkpt><trkpt lat="45.6517583" lon="11.577395"><ele>65.0</ele><time>2026-03-28T16:13:06.137Z</time></trkpt><trkpt lat="45.65164" lon="11.57751"><ele>65.5</ele><time>2026-03-28T16:13:07.137Z</time></trkpt><trkpt lat="45.6515217" lon="11.5776233"><ele>66.0</ele><time>2026-03-28T16:13:08.137Z</time></trkpt><trkpt lat="45.6514067" lon="11.5777417"><ele>66.0</ele><time>2026-03-28T16:13:09.136Z</time></trkpt><trkpt lat="45.6513017" lon="11.5778517"><ele>66.0</ele><time>2026-03-28T16:13:10.137Z</time></trkpt><trkpt lat="45.6512" lon="11.5779533"><ele>66.0</ele><time>2026-03-28T16:13:11.136Z</time></trkpt><trkpt lat="45.6511117" lon="11.5780483"><ele>66.0</ele><time>2026-03-28T16:13:12.137Z</time></trkpt><trkpt lat="45.6510333" lon="11.57814"><ele>66.0</ele><time>2026-03-28T16:13:13.137Z</time></trkpt><trkpt lat="45.6509567" lon="11.578225"><ele>66.0</ele><time>2026-03-28T16:13:14.137Z</time></trkpt><trkpt lat="45.6508883" lon="11.5783033"><ele>66.0</ele><time>2026-03-28T16:13:15.137Z</time></trkpt><trkpt lat="45.6508233" lon="11.5783667"><ele>66.0</ele><time>2026-03-28T16:13:16.137Z</time></trkpt><trkpt lat="45.65074" lon="11.57843"><ele>66.0</ele><time>2026-03-28T16:13:18.136Z</time></trkpt><trkpt lat="45.650745" lon="11.57853"><ele>66.0</ele><time>2026-03-28T16:13:22.137Z</time></trkpt><trkpt lat="45.6507817" lon="11.5786433"><ele>66.0</ele><time>2026-03-28T16:13:24.137Z</time></trkpt><trkpt lat="45.6507483" lon="11.5787417"><ele>66.0</ele><time>2026-03-28T16:13:26.137Z</time></trkpt><trkpt lat="45.6506317" lon="11.57882"><ele>66.0</ele><time>2026-03-28T16:13:28.137Z</time></trkpt><trkpt lat="45.6505533" lon="11.578875"><ele>66.0</ele><time>2026-03-28T16:13:29.137Z</time></trkpt><trkpt lat="45.6504767" lon="11.5789383"><ele>66.0</ele><time>2026-03-28T16:13:30.137Z</time></trkpt><trkpt lat="45.6503917" lon="11.5789983"><ele>66.0</ele><time>2026-03-28T16:13:31.137Z</time></trkpt><trkpt lat="45.6503033" lon="11.579065"><ele>66.0</ele><time>2026-03-28T16:13:32.136Z</time></trkpt><trkpt lat="45.650205" lon="11.5791467"><ele>66.0</ele><time>2026-03-28T16:13:33.137Z</time></trkpt><trkpt lat="45.650095" lon="11.5792317"><ele>66.0</ele><time>2026-03-28T16:13:34.136Z</time></trkpt><trkpt lat="45.6499583" lon="11.5793367"><ele>66.33333333333333</ele><time>2026-03-28T16:13:35.136Z</time></trkpt><trkpt lat="45.6498167" lon="11.5794683"><ele>66.66666666666666</ele><time>2026-03-28T16:13:36.137Z</time></trkpt><trkpt lat="45.64968" lon="11.579615"><ele>67.0</ele><time>2026-03-28T16:13:37.137Z</time></trkpt><trkpt lat="45.649565" lon="11.5797733"><ele>67.0</ele><time>2026-03-28T16:13:38.137Z</time></trkpt><trkpt lat="45.6494617" lon="11.57994"><ele>67.0</ele><time>2026-03-28T16:13:39.137Z</time></trkpt><trkpt lat="45.64936" lon="11.5800867"><ele>67.0</ele><time>2026-03-28T16:13:40.137Z</time></trkpt><trkpt lat="45.649275" lon="11.58022"><ele>67.0</ele><time>2026-03-28T16:13:41.137Z</time></trkpt><trkpt lat="45.6491967" lon="11.5803283"><ele>66.25</ele><time>2026-03-28T16:13:42.136Z</time></trkpt><trkpt lat="45.6491033" lon="11.58042"><ele>65.5</ele><time>2026-03-28T16:13:43.137Z</time></trkpt><trkpt lat="45.6489933" lon="11.5805"><ele>64.75</ele><time>2026-03-28T16:13:44.137Z</time></trkpt><trkpt lat="45.64886" lon="11.5805783"><ele>64.0</ele><time>2026-03-28T16:13:45.137Z</time></trkpt><trkpt lat="45.6487133" lon="11.5806517"><ele>65.25</ele><time>2026-03-28T16:13:46.136Z</time></trkpt><trkpt lat="45.6485683" lon="11.5807067"><ele>66.5</ele><time>2026-03-28T16:13:47.137Z</time></trkpt><trkpt lat="45.64844" lon="11.5807517"><ele>67.75</ele><time>2026-03-28T16:13:48.137Z</time></trkpt><trkpt lat="45.648315" lon="11.5807967"><ele>69.0</ele><time>2026-03-28T16:13:49.137Z</time></trkpt><trkpt lat="45.6481983" lon="11.580845"><ele>69.0</ele><time>2026-03-28T16:13:50.137Z</time></trkpt><trkpt lat="45.6480867" lon="11.580885"><ele>69.0</ele><time>2026-03-28T16:13:51.137Z</time></trkpt><trkpt lat="45.6479933" lon="11.5809133"><ele>69.0</ele><time>2026-03-28T16:13:52.137Z</time></trkpt><trkpt lat="45.6479133" lon="11.580945"><ele>69.0</ele><time>2026-03-28T16:13:53.137Z</time></trkpt><trkpt lat="45.6478433" lon="11.5809833"><ele>69.0</ele><time>2026-03-28T16:13:54.136Z</time></trkpt><trkpt lat="45.6477783" lon="11.5810467"><ele>69.0</ele><time>2026-03-28T16:13:55.137Z</time></trkpt><trkpt lat="45.647725" lon="11.581145"><ele>67.8</ele><time>2026-03-28T16:13:56.136Z</time></trkpt><trkpt lat="45.6476733" lon="11.58129"><ele>66.60000000000001</ele><time>2026-03-28T16:13:57.137Z</time></trkpt><trkpt lat="45.6476167" lon="11.581435"><ele>65.4</ele><time>2026-03-28T16:13:58.136Z</time></trkpt><trkpt lat="45.6475617" lon="11.5815783"><ele>64.2</ele><time>2026-03-28T16:13:59.137Z</time></trkpt><trkpt lat="45.6475117" lon="11.5817"><ele>63.0</ele><time>2026-03-28T16:14:00.137Z</time></trkpt><trkpt lat="45.64747" lon="11.5818133"><ele>63.0</ele><time>2026-03-28T16:14:01.137Z</time></trkpt><trkpt lat="45.6474167" lon="11.5819117"><ele>63.0</ele><time>2026-03-28T16:14:02.137Z</time></trkpt><trkpt lat="45.6473633" lon="11.5819817"><ele>63.0</ele><time>2026-03-28T16:14:03.137Z</time></trkpt><trkpt lat="45.6473067" lon="11.5820483"><ele>63.0</ele><time>2026-03-28T16:14:04.136Z</time></trkpt><trkpt lat="45.6472433" lon="11.5821"><ele>63.0</ele><time>2026-03-28T16:14:05.136Z</time></trkpt><trkpt lat="45.6471783" lon="11.582145"><ele>63.0</ele><time>2026-03-28T16:14:06.137Z</time></trkpt><trkpt lat="45.6471217" lon="11.582195"><ele>63.0</ele><time>2026-03-28T16:14:07.137Z</time></trkpt><trkpt lat="45.647065" lon="11.58226"><ele>62.666666666666664</ele><time>2026-03-28T16:14:08.136Z</time></trkpt><trkpt lat="45.6470117" lon="11.58234"><ele>62.33333333333333</ele><time>2026-03-28T16:14:09.137Z</time></trkpt><trkpt lat="45.6469567" lon="11.5824167"><ele>62.0</ele><time>2026-03-28T16:14:10.137Z</time></trkpt><trkpt lat="45.6469017" lon="11.582485"><ele>61.666666666666664</ele><time>2026-03-28T16:14:11.137Z</time></trkpt><trkpt lat="45.6468367" lon="11.58253"><ele>61.33333333333333</ele><time>2026-03-28T16:14:12.137Z</time></trkpt><trkpt lat="45.6467667" lon="11.5825633"><ele>61.0</ele><time>2026-03-28T16:14:13.136Z</time></trkpt><trkpt lat="45.6466817" lon="11.5825733"><ele>62.49999999999999</ele><time>2026-03-28T16:14:14.136Z</time></trkpt><trkpt lat="45.6466" lon="11.5825683"><ele>64.0</ele><time>2026-03-28T16:14:15.137Z</time></trkpt><trkpt lat="45.6465217" lon="11.5825767"><ele>65.5</ele><time>2026-03-28T16:14:16.137Z</time></trkpt><trkpt lat="45.6464433" lon="11.5826183"><ele>67.0</ele><time>2026-03-28T16:14:17.137Z</time></trkpt><trkpt lat="45.6463667" lon="11.5826817"><ele>68.5</ele><time>2026-03-28T16:14:18.137Z</time></trkpt><trkpt lat="45.6462917" lon="11.5827467"><ele>70.0</ele><time>2026-03-28T16:14:19.137Z</time></trkpt><trkpt lat="45.6462217" lon="11.582815"><ele>70.16666666666666</ele><time>2026-03-28T16:14:20.137Z</time></trkpt><trkpt lat="45.64615" lon="11.582875"><ele>70.33333333333333</ele><time>2026-03-28T16:14:21.137Z</time></trkpt><trkpt lat="45.6460783" lon="11.582925"><ele>70.5</ele><time>2026-03-28T16:14:22.137Z</time></trkpt><trkpt lat="45.6460033" lon="11.582955"><ele>70.66666666666667</ele><time>2026-03-28T16:14:23.137Z</time></trkpt><trkpt lat="45.6459367" lon="11.5829417"><ele>70.83333333333334</ele><time>2026-03-28T16:14:24.136Z</time></trkpt><trkpt lat="45.6458667" lon="11.5829083"><ele>71.0</ele><time>2026-03-28T16:14:25.137Z</time></trkpt><trkpt lat="45.6457633" lon="11.5827883"><ele>72.33333333333334</ele><time>2026-03-28T16:14:27.137Z</time></trkpt><trkpt lat="45.6457183" lon="11.5826867"><ele>73.66666666666667</ele><time>2026-03-28T16:14:28.137Z</time></trkpt><trkpt lat="45.6456783" lon="11.5825633"><ele>75.0</ele><time>2026-03-28T16:14:29.136Z</time></trkpt><trkpt lat="45.64565" lon="11.5824467"><ele>76.33333333333333</ele><time>2026-03-28T16:14:30.137Z</time></trkpt><trkpt lat="45.6456217" lon="11.58235"><ele>77.66666666666666</ele><time>2026-03-28T16:14:31.137Z</time></trkpt><trkpt lat="45.6455717" lon="11.5822317"><ele>79.0</ele><time>2026-03-28T16:14:33.137Z</time></trkpt><trkpt lat="45.645525" lon="11.58217"><ele>79.0</ele><time>2026-03-28T16:14:37.136Z</time></trkpt><trkpt lat="45.64553" lon="11.5822783"><ele>79.0</ele><time>2026-03-28T16:14:42.137Z</time></trkpt><trkpt lat="45.6456333" lon="11.5823817"><ele>79.0</ele><time>2026-03-28T16:14:44.136Z</time></trkpt><trkpt lat="45.6456883" lon="11.5824617"><ele>79.0</ele><time>2026-03-28T16:14:45.137Z</time></trkpt><trkpt lat="45.6457317" lon="11.5825817"><ele>79.0</ele><time>2026-03-28T16:14:46.137Z</time></trkpt><trkpt lat="45.6457633" lon="11.5827317"><ele>77.4</ele><time>2026-03-28T16:14:47.137Z</time></trkpt><trkpt lat="45.6457883" lon="11.5828917"><ele>75.80000000000001</ele><time>2026-03-28T16:14:48.137Z</time></trkpt><trkpt lat="45.64579" lon="11.5830317"><ele>74.19999999999999</ele><time>2026-03-28T16:14:49.137Z</time></trkpt><trkpt lat="45.645775" lon="11.5831517"><ele>72.6</ele><time>2026-03-28T16:14:50.136Z</time></trkpt><trkpt lat="45.645755" lon="11.5832767"><ele>71.0</ele><time>2026-03-28T16:14:51.136Z</time></trkpt><trkpt lat="45.6457383" lon="11.5833917"><ele>71.0</ele><time>2026-03-28T16:14:52.137Z</time></trkpt><trkpt lat="45.6457283" lon="11.5834817"><ele>71.0</ele><time>2026-03-28T16:14:53.137Z</time></trkpt><trkpt lat="45.645755" lon="11.5836083"><ele>71.0</ele><time>2026-03-28T16:14:55.136Z</time></trkpt><trkpt lat="45.6458767" lon="11.5836383"><ele>71.0</ele><time>2026-03-28T16:14:57.137Z</time></trkpt><trkpt lat="45.6459733" lon="11.5836317"><ele>71.0</ele><time>2026-03-28T16:14:58.137Z</time></trkpt><trkpt lat="45.64609" lon="11.5836033"><ele>68.5</ele><time>2026-03-28T16:14:59.136Z</time></trkpt><trkpt lat="45.646215" lon="11.5835533"><ele>66.0</ele><time>2026-03-28T16:15:00.136Z</time></trkpt><trkpt lat="45.6463233" lon="11.5834933"><ele>63.5</ele><time>2026-03-28T16:15:01.137Z</time></trkpt><trkpt lat="45.6464233" lon="11.58342"><ele>61.0</ele><time>2026-03-28T16:15:02.136Z</time></trkpt><trkpt lat="45.6465317" lon="11.5833167"><ele>61.0</ele><time>2026-03-28T16:15:03.136Z</time></trkpt><trkpt lat="45.646625" lon="11.5831733"><ele>61.0</ele><time>2026-03-28T16:15:04.137Z</time></trkpt><trkpt lat="45.646715" lon="11.583"><ele>61.0</ele><time>2026-03-28T16:15:05.137Z</time></trkpt><trkpt lat="45.6468" lon="11.58281"><ele>61.0</ele><time>2026-03-28T16:15:06.136Z</time></trkpt><trkpt lat="45.6468767" lon="11.5826517"><ele>61.0</ele><time>2026-03-28T16:15:07.136Z</time></trkpt><trkpt lat="45.64695" lon="11.58252"><ele>60.99999999999999</ele><time>2026-03-28T16:15:08.137Z</time></trkpt><trkpt lat="45.647015" lon="11.5824117"><ele>60.99999999999999</ele><time>2026-03-28T16:15:09.137Z</time></trkpt><trkpt lat="45.647075" lon="11.5823233"><ele>61.0</ele><time>2026-03-28T16:15:10.137Z</time></trkpt><trkpt lat="45.6471233" lon="11.58225"><ele>61.0</ele><time>2026-03-28T16:15:11.137Z</time></trkpt><trkpt lat="45.6471817" lon="11.5821567"><ele>60.99999999999999</ele><time>2026-03-28T16:15:13.137Z</time></trkpt><trkpt lat="45.6471283" lon="11.582075"><ele>61.0</ele><time>2026-03-28T16:15:16.137Z</time></trkpt><trkpt lat="45.6470567" lon="11.5820417"><ele>61.0</ele><time>2026-03-28T16:15:18.136Z</time></trkpt><trkpt lat="45.647005" lon="11.581965"><ele>61.0</ele><time>2026-03-28T16:15:20.137Z</time></trkpt><trkpt lat="45.6469617" lon="11.5818617"><ele>60.99999999999999</ele><time>2026-03-28T16:15:22.137Z</time></trkpt><trkpt lat="45.6469183" lon="11.5817533"><ele>61.0</ele><time>2026-03-28T16:15:24.136Z</time></trkpt><trkpt lat="45.6468517" lon="11.5816233"><ele>61.0</ele><time>2026-03-28T16:15:26.137Z</time></trkpt><trkpt lat="45.6467883" lon="11.5814767"><ele>60.99999999999999</ele><time>2026-03-28T16:15:28.137Z</time></trkpt><trkpt lat="45.6467533" lon="11.5813667"><ele>60.99999999999999</ele><time>2026-03-28T16:15:30.137Z</time></trkpt><trkpt lat="45.646715" lon="11.5812417"><ele>61.0</ele><time>2026-03-28T16:15:33.137Z</time></trkpt><trkpt lat="45.6466767" lon="11.5811133"><ele>61.0</ele><time>2026-03-28T16:15:35.137Z</time></trkpt><trkpt lat="45.646625" lon="11.5809717"><ele>60.99999999999999</ele><time>2026-03-28T16:15:37.136Z</time></trkpt><trkpt lat="45.64656" lon="11.5808533"><ele>61.0</ele><time>2026-03-28T16:15:39.137Z</time></trkpt><trkpt lat="45.6465267" lon="11.5807633"><ele>61.0</ele><time>2026-03-28T16:15:41.137Z</time></trkpt><trkpt lat="45.64651" lon="11.5806667"><ele>61.0</ele><time>2026-03-28T16:15:43.137Z</time></trkpt><trkpt lat="45.6464767" lon="11.5805583"><ele>60.99999999999999</ele><time>2026-03-28T16:15:45.137Z</time></trkpt><trkpt lat="45.6464167" lon="11.5805167"><ele>61.0</ele><time>2026-03-28T16:15:48.137Z</time></trkpt><trkpt lat="45.6463517" lon="11.5804867"><ele>61.0</ele><time>2026-03-28T16:15:52.137Z</time></trkpt><trkpt lat="45.6462867" lon="11.5803883"><ele>60.99999999999999</ele><time>2026-03-28T16:15:55.136Z</time></trkpt><trkpt lat="45.64622" lon="11.5803483"><ele>60.99999999999999</ele><time>2026-03-28T16:15:58.136Z</time></trkpt><trkpt lat="45.64614" lon="11.5803433"><ele>61.0</ele><time>2026-03-28T16:16:00.137Z</time></trkpt><trkpt lat="45.6460667" lon="11.5804"><ele>61.0</ele><time>2026-03-28T16:16:02.137Z</time></trkpt><trkpt lat="45.6459517" lon="11.58051"><ele>61.0</ele><time>2026-03-28T16:16:04.137Z</time></trkpt><trkpt lat="45.6458917" lon="11.580555"><ele>60.99999999999999</ele><time>2026-03-28T16:16:05.137Z</time></trkpt><trkpt lat="45.6458317" lon="11.5806217"><ele>60.99999999999999</ele><time>2026-03-28T16:16:07.137Z</time></trkpt><trkpt lat="45.6457783" lon="11.5807067"><ele>61.0</ele><time>2026-03-28T16:16:11.137Z</time></trkpt><trkpt lat="45.645675" lon="11.58086"><ele>61.0</ele><time>2026-03-28T16:16:13.137Z</time></trkpt><trkpt lat="45.64562" lon="11.5809417"><ele>60.99999999999999</ele><time>2026-03-28T16:16:14.137Z</time></trkpt><trkpt lat="45.6455717" lon="11.581005"><ele>61.0</ele><time>2026-03-28T16:16:15.137Z</time></trkpt><trkpt lat="45.6455217" lon="11.5810767"><ele>61.0</ele><time>2026-03-28T16:16:17.137Z</time></trkpt><trkpt lat="45.6454683" lon="11.58102"><ele>61.0</ele><time>2026-03-28T16:16:20.137Z</time></trkpt><trkpt lat="45.6454467" lon="11.5809267"><ele>60.99999999999999</ele><time>2026-03-28T16:16:22.137Z</time></trkpt><trkpt lat="45.6454233" lon="11.5808"><ele>61.0</ele><time>2026-03-28T16:16:24.137Z</time></trkpt><trkpt lat="45.6453817" lon="11.5806467"><ele>60.99999999999999</ele><time>2026-03-28T16:16:26.137Z</time></trkpt><trkpt lat="45.64533" lon="11.5805283"><ele>61.0</ele><time>2026-03-28T16:16:28.137Z</time></trkpt><trkpt lat="45.6452767" lon="11.5804517"><ele>61.0</ele><time>2026-03-28T16:16:30.137Z</time></trkpt><trkpt lat="45.6452" lon="11.580415"><ele>61.0</ele><time>2026-03-28T16:16:32.137Z</time></trkpt><trkpt lat="45.64508" lon="11.5804317"><ele>60.99999999999999</ele><time>2026-03-28T16:16:34.137Z</time></trkpt><trkpt lat="45.6450133" lon="11.5804667"><ele>61.0</ele><time>2026-03-28T16:16:35.137Z</time></trkpt><trkpt lat="45.6449367" lon="11.5805217"><ele>61.0</ele><time>2026-03-28T16:16:36.137Z</time></trkpt><trkpt lat="45.6448517" lon="11.58059"><ele>60.99999999999999</ele><time>2026-03-28T16:16:37.136Z</time></trkpt><trkpt lat="45.6447533" lon="11.580675"><ele>60.99999999999999</ele><time>2026-03-28T16:16:38.136Z</time></trkpt><trkpt lat="45.6446533" lon="11.5807583"><ele>61.0</ele><time>2026-03-28T16:16:39.137Z</time></trkpt><trkpt lat="45.6445617" lon="11.5808417"><ele>61.0</ele><time>2026-03-28T16:16:40.137Z</time></trkpt><trkpt lat="45.64448" lon="11.5809083"><ele>60.99999999999999</ele><time>2026-03-28T16:16:41.137Z</time></trkpt><trkpt lat="45.6443983" lon="11.5809667"><ele>61.0</ele><time>2026-03-28T16:16:42.137Z</time></trkpt><trkpt lat="45.6443283" lon="11.5810267"><ele>61.0</ele><time>2026-03-28T16:16:43.136Z</time></trkpt><trkpt lat="45.64427" lon="11.5810717"><ele>61.0</ele><time>2026-03-28T16:16:44.137Z</time></trkpt><trkpt lat="45.6441933" lon="11.581175"><ele>60.99999999999999</ele><time>2026-03-28T16:16:46.136Z</time></trkpt><trkpt lat="45.6441167" lon="11.5812517"><ele>61.0</ele><time>2026-03-28T16:16:48.137Z</time></trkpt><trkpt lat="45.644055" lon="11.58129"><ele>61.0</ele><time>2026-03-28T16:16:49.137Z</time></trkpt><trkpt lat="45.643975" lon="11.581325"><ele>60.99999999999999</ele><time>2026-03-28T16:16:50.137Z</time></trkpt><trkpt lat="45.64388" lon="11.5813783"><ele>60.99999999999999</ele><time>2026-03-28T16:16:51.137Z</time></trkpt><trkpt lat="45.6437733" lon="11.5814483"><ele>61.0</ele><time>2026-03-28T16:16:52.137Z</time></trkpt><trkpt lat="45.64366" lon="11.5815383"><ele>61.0</ele><time>2026-03-28T16:16:53.137Z</time></trkpt><trkpt lat="45.6435383" lon="11.581635"><ele>60.666666666666664</ele><time>2026-03-28T16:16:54.137Z</time></trkpt><trkpt lat="45.6434117" lon="11.58172"><ele>60.33333333333333</ele><time>2026-03-28T16:16:55.137Z</time></trkpt><trkpt lat="45.6432683" lon="11.581795"><ele>60.0</ele><time>2026-03-28T16:16:56.137Z</time></trkpt><trkpt lat="45.6431117" lon="11.5818617"><ele>60.0</ele><time>2026-03-28T16:16:57.136Z</time></trkpt><trkpt lat="45.6429617" lon="11.5819183"><ele>60.0</ele><time>2026-03-28T16:16:58.136Z</time></trkpt><trkpt lat="45.642825" lon="11.5819683"><ele>60.0</ele><time>2026-03-28T16:16:59.137Z</time></trkpt><trkpt lat="45.6427" lon="11.58202"><ele>60.0</ele><time>2026-03-28T16:17:00.137Z</time></trkpt><trkpt lat="45.6425833" lon="11.5820633"><ele>59.8</ele><time>2026-03-28T16:17:01.137Z</time></trkpt><trkpt lat="45.6424733" lon="11.582105"><ele>59.6</ele><time>2026-03-28T16:17:02.136Z</time></trkpt><trkpt lat="45.6423717" lon="11.5821433"><ele>59.400000000000006</ele><time>2026-03-28T16:17:03.136Z</time></trkpt><trkpt lat="45.6422733" lon="11.582175"><ele>59.2</ele><time>2026-03-28T16:17:04.137Z</time></trkpt><trkpt lat="45.642195" lon="11.5822"><ele>59.0</ele><time>2026-03-28T16:17:05.137Z</time></trkpt><trkpt lat="45.6421283" lon="11.58222"><ele>59.0</ele><time>2026-03-28T16:17:06.137Z</time></trkpt><trkpt lat="45.64204" lon="11.5821783"><ele>59.00000000000001</ele><time>2026-03-28T16:17:08.137Z</time></trkpt><trkpt lat="45.6420183" lon="11.5820833"><ele>59.00000000000001</ele><time>2026-03-28T16:17:09.137Z</time></trkpt><trkpt lat="45.6420067" lon="11.5819667"><ele>59.0</ele><time>2026-03-28T16:17:10.137Z</time></trkpt><trkpt lat="45.6420033" lon="11.581825"><ele>59.0</ele><time>2026-03-28T16:17:11.136Z</time></trkpt><trkpt lat="45.64201" lon="11.5816517"><ele>58.75</ele><time>2026-03-28T16:17:12.136Z</time></trkpt><trkpt lat="45.6420133" lon="11.581445"><ele>58.5</ele><time>2026-03-28T16:17:13.137Z</time></trkpt><trkpt lat="45.642025" lon="11.5812283"><ele>58.25</ele><time>2026-03-28T16:17:14.137Z</time></trkpt><trkpt lat="45.6420517" lon="11.5810133"><ele>58.0</ele><time>2026-03-28T16:17:15.137Z</time></trkpt><trkpt lat="45.642085" lon="11.5808183"><ele>57.75</ele><time>2026-03-28T16:17:16.137Z</time></trkpt><trkpt lat="45.6421133" lon="11.5806283"><ele>57.5</ele><time>2026-03-28T16:17:17.137Z</time></trkpt><trkpt lat="45.64213" lon="11.5804617"><ele>57.25</ele><time>2026-03-28T16:17:18.137Z</time></trkpt><trkpt lat="45.642135" lon="11.5803067"><ele>57.0</ele><time>2026-03-28T16:17:19.137Z</time></trkpt><trkpt lat="45.6421267" lon="11.5801633"><ele>57.333333333333336</ele><time>2026-03-28T16:17:20.137Z</time></trkpt><trkpt lat="45.64212" lon="11.58003"><ele>57.66666666666667</ele><time>2026-03-28T16:17:21.137Z</time></trkpt><trkpt lat="45.6420983" lon="11.5799033"><ele>58.0</ele><time>2026-03-28T16:17:22.137Z</time></trkpt><trkpt lat="45.6420783" lon="11.57978"><ele>58.333333333333336</ele><time>2026-03-28T16:17:23.137Z</time></trkpt><trkpt lat="45.6420633" lon="11.579675"><ele>58.66666666666667</ele><time>2026-03-28T16:17:24.137Z</time></trkpt><trkpt lat="45.642045" lon="11.579585"><ele>59.0</ele><time>2026-03-28T16:17:25.136Z</time></trkpt><trkpt lat="45.64203" lon="11.5794967"><ele>59.00000000000001</ele><time>2026-03-28T16:17:26.137Z</time></trkpt><trkpt lat="45.6419983" lon="11.5793533"><ele>59.0</ele><time>2026-03-28T16:17:28.136Z</time></trkpt><trkpt lat="45.6419033" lon="11.5793033"><ele>59.0</ele><time>2026-03-28T16:17:32.137Z</time></trkpt><trkpt lat="45.64183" lon="11.5793017"><ele>59.0</ele><time>2026-03-28T16:17:33.137Z</time></trkpt><trkpt lat="45.64175" lon="11.579295"><ele>59.00000000000001</ele><time>2026-03-28T16:17:34.137Z</time></trkpt><trkpt lat="45.6416617" lon="11.5792933"><ele>59.0</ele><time>2026-03-28T16:17:35.137Z</time></trkpt><trkpt lat="45.64157" lon="11.57929"><ele>59.0</ele><time>2026-03-28T16:17:36.136Z</time></trkpt><trkpt lat="45.6414717" lon="11.5792867"><ele>59.00000000000001</ele><time>2026-03-28T16:17:37.137Z</time></trkpt><trkpt lat="45.6413717" lon="11.57928"><ele>59.00000000000001</ele><time>2026-03-28T16:17:38.136Z</time></trkpt><trkpt lat="45.64126" lon="11.5792717"><ele>59.0</ele><time>2026-03-28T16:17:39.137Z</time></trkpt><trkpt lat="45.6411367" lon="11.5792617"><ele>59.0</ele><time>2026-03-28T16:17:40.137Z</time></trkpt><trkpt lat="45.641025" lon="11.5792517"><ele>58.75</ele><time>2026-03-28T16:17:41.137Z</time></trkpt><trkpt lat="45.640915" lon="11.5792433"><ele>58.5</ele><time>2026-03-28T16:17:42.137Z</time></trkpt><trkpt lat="45.6407917" lon="11.579235"><ele>58.25</ele><time>2026-03-28T16:17:43.137Z</time></trkpt><trkpt lat="45.6406733" lon="11.5792333"><ele>58.0</ele><time>2026-03-28T16:17:44.137Z</time></trkpt><trkpt lat="45.640565" lon="11.57924"><ele>58.0</ele><time>2026-03-28T16:17:45.137Z</time></trkpt><trkpt lat="45.640455" lon="11.5792383"><ele>58.0</ele><time>2026-03-28T16:17:46.137Z</time></trkpt><trkpt lat="45.64036" lon="11.5792317"><ele>58.0</ele><time>2026-03-28T16:17:47.137Z</time></trkpt><trkpt lat="45.640265" lon="11.5792283"><ele>58.0</ele><time>2026-03-28T16:17:48.136Z</time></trkpt><trkpt lat="45.6401717" lon="11.57923"><ele>58.0</ele><time>2026-03-28T16:17:49.137Z</time></trkpt><trkpt lat="45.6400767" lon="11.579225"><ele>57.8</ele><time>2026-03-28T16:17:50.136Z</time></trkpt><trkpt lat="45.6399767" lon="11.57922"><ele>57.599999999999994</ele><time>2026-03-28T16:17:51.137Z</time></trkpt><trkpt lat="45.6398883" lon="11.579215"><ele>57.400000000000006</ele><time>2026-03-28T16:17:52.137Z</time></trkpt><trkpt lat="45.63979" lon="11.57921"><ele>57.2</ele><time>2026-03-28T16:17:53.136Z</time></trkpt><trkpt lat="45.6396933" lon="11.5792067"><ele>57.0</ele><time>2026-03-28T16:17:54.137Z</time></trkpt><trkpt lat="45.6396033" lon="11.579195"><ele>57.0</ele><time>2026-03-28T16:17:55.137Z</time></trkpt><trkpt lat="45.6395367" lon="11.5791833"><ele>57.0</ele><time>2026-03-28T16:17:56.137Z</time></trkpt><trkpt lat="45.6394483" lon="11.579165"><ele>57.0</ele><time>2026-03-28T16:17:57.137Z</time></trkpt><trkpt lat="45.6393667" lon="11.579145"><ele>57.0</ele><time>2026-03-28T16:17:58.137Z</time></trkpt><trkpt lat="45.6393033" lon="11.57912"><ele>57.0</ele><time>2026-03-28T16:17:59.137Z</time></trkpt><trkpt lat="45.6392267" lon="11.5790333"><ele>57.0</ele><time>2026-03-28T16:18:01.137Z</time></trkpt><trkpt lat="45.639205" lon="11.57892"><ele>57.0</ele><time>2026-03-28T16:18:03.136Z</time></trkpt><trkpt lat="45.6392167" lon="11.5787617"><ele>57.0</ele><time>2026-03-28T16:18:05.137Z</time></trkpt><trkpt lat="45.6392367" lon="11.5786483"><ele>57.0</ele><time>2026-03-28T16:18:06.137Z</time></trkpt><trkpt lat="45.63926" lon="11.5785367"><ele>57.0</ele><time>2026-03-28T16:18:07.137Z</time></trkpt><trkpt lat="45.6392833" lon="11.5784317"><ele>57.0</ele><time>2026-03-28T16:18:08.136Z</time></trkpt><trkpt lat="45.6393117" lon="11.5782667"><ele>57.166666666666664</ele><time>2026-03-28T16:18:10.136Z</time></trkpt><trkpt lat="45.6392817" lon="11.5781283"><ele>57.33333333333333</ele><time>2026-03-28T16:18:12.137Z</time></trkpt><trkpt lat="45.6391883" lon="11.5780583"><ele>57.5</ele><time>2026-03-28T16:18:14.137Z</time></trkpt><trkpt lat="45.6391167" lon="11.578035"><ele>57.666666666666664</ele><time>2026-03-28T16:18:15.137Z</time></trkpt><trkpt lat="45.6390417" lon="11.578015"><ele>57.83333333333333</ele><time>2026-03-28T16:18:16.137Z</time></trkpt><trkpt lat="45.6389617" lon="11.5779967"><ele>58.0</ele><time>2026-03-28T16:18:17.137Z</time></trkpt><trkpt lat="45.6388833" lon="11.5779767"><ele>57.99999999999999</ele><time>2026-03-28T16:18:18.137Z</time></trkpt><trkpt lat="45.6388133" lon="11.577955"><ele>58.0</ele><time>2026-03-28T16:18:19.137Z</time></trkpt><trkpt lat="45.63875" lon="11.577935"><ele>58.0</ele><time>2026-03-28T16:18:20.136Z</time></trkpt><trkpt lat="45.6386817" lon="11.5779067"><ele>58.0</ele><time>2026-03-28T16:18:21.137Z</time></trkpt><trkpt lat="45.63857" lon="11.5778883"><ele>57.99999999999999</ele><time>2026-03-28T16:18:23.137Z</time></trkpt><trkpt lat="45.6385033" lon="11.5779167"><ele>58.0</ele><time>2026-03-28T16:18:24.136Z</time></trkpt><trkpt lat="45.6384417" lon="11.5779683"><ele>58.0</ele><time>2026-03-28T16:18:25.137Z</time></trkpt><trkpt lat="45.6383733" lon="11.57803"><ele>58.0</ele><time>2026-03-28T16:18:26.137Z</time></trkpt><trkpt lat="45.6383" lon="11.5781083"><ele>58.0</ele><time>2026-03-28T16:18:27.137Z</time></trkpt><trkpt lat="45.63822" lon="11.5782133"><ele>58.0</ele><time>2026-03-28T16:18:28.137Z</time></trkpt><trkpt lat="45.63814" lon="11.5783567"><ele>58.0</ele><time>2026-03-28T16:18:29.136Z</time></trkpt><trkpt lat="45.638075" lon="11.578525"><ele>58.0</ele><time>2026-03-28T16:18:30.137Z</time></trkpt><trkpt lat="45.638015" lon="11.5787117"><ele>58.0</ele><time>2026-03-28T16:18:31.136Z</time></trkpt><trkpt lat="45.637955" lon="11.5789"><ele>58.0</ele><time>2026-03-28T16:18:32.137Z</time></trkpt><trkpt lat="45.637895" lon="11.5790733"><ele>58.0</ele><time>2026-03-28T16:18:33.137Z</time></trkpt><trkpt lat="45.6378333" lon="11.57923"><ele>58.0</ele><time>2026-03-28T16:18:34.136Z</time></trkpt><trkpt lat="45.63776" lon="11.5793783"><ele>58.0</ele><time>2026-03-28T16:18:35.136Z</time></trkpt><trkpt lat="45.637665" lon="11.5795133"><ele>58.0</ele><time>2026-03-28T16:18:36.136Z</time></trkpt><trkpt lat="45.6375517" lon="11.5796183"><ele>58.0</ele><time>2026-03-28T16:18:37.136Z</time></trkpt><trkpt lat="45.6374233" lon="11.5797083"><ele>58.0</ele><time>2026-03-28T16:18:38.137Z</time></trkpt><trkpt lat="45.6372917" lon="11.5798117"><ele>58.0</ele><time>2026-03-28T16:18:39.136Z</time></trkpt><trkpt lat="45.63715" lon="11.57992"><ele>58.0</ele><time>2026-03-28T16:18:40.137Z</time></trkpt><trkpt lat="45.6370083" lon="11.58003"><ele>57.0</ele><time>2026-03-28T16:18:41.137Z</time></trkpt><trkpt lat="45.6368767" lon="11.5801417"><ele>56.0</ele><time>2026-03-28T16:18:42.136Z</time></trkpt><trkpt lat="45.636735" lon="11.5802567"><ele>55.0</ele><time>2026-03-28T16:18:43.137Z</time></trkpt><trkpt lat="45.6366033" lon="11.5803767"><ele>54.666666666666664</ele><time>2026-03-28T16:18:44.137Z</time></trkpt><trkpt lat="45.636465" lon="11.5804883"><ele>54.33333333333333</ele><time>2026-03-28T16:18:45.136Z</time></trkpt><trkpt lat="45.6363333" lon="11.5805933"><ele>54.0</ele><time>2026-03-28T16:18:46.136Z</time></trkpt><trkpt lat="45.6361867" lon="11.5806867"><ele>54.25</ele><time>2026-03-28T16:18:47.136Z</time></trkpt><trkpt lat="45.6360467" lon="11.580765"><ele>54.5</ele><time>2026-03-28T16:18:48.137Z</time></trkpt><trkpt lat="45.6359083" lon="11.580805"><ele>54.75</ele><time>2026-03-28T16:18:49.137Z</time></trkpt><trkpt lat="45.6357667" lon="11.580815"><ele>55.0</ele><time>2026-03-28T16:18:50.136Z</time></trkpt><trkpt lat="45.635625" lon="11.5807933"><ele>55.0</ele><time>2026-03-28T16:18:51.137Z</time></trkpt><trkpt lat="45.6354983" lon="11.5807433"><ele>55.0</ele><time>2026-03-28T16:18:52.136Z</time></trkpt><trkpt lat="45.635385" lon="11.5806617"><ele>55.0</ele><time>2026-03-28T16:18:53.137Z</time></trkpt><trkpt lat="45.6352867" lon="11.58055"><ele>55.0</ele><time>2026-03-28T16:18:54.137Z</time></trkpt><trkpt lat="45.6351917" lon="11.5804167"><ele>55.25</ele><time>2026-03-28T16:18:55.137Z</time></trkpt><trkpt lat="45.635095" lon="11.580265"><ele>55.5</ele><time>2026-03-28T16:18:56.137Z</time></trkpt><trkpt lat="45.6350033" lon="11.5801283"><ele>55.75</ele><time>2026-03-28T16:18:57.137Z</time></trkpt><trkpt lat="45.63491" lon="11.5799883"><ele>56.0</ele><time>2026-03-28T16:18:58.136Z</time></trkpt><trkpt lat="45.63482" lon="11.5798517"><ele>56.0</ele><time>2026-03-28T16:18:59.137Z</time></trkpt><trkpt lat="45.63473" lon="11.57972"><ele>56.0</ele><time>2026-03-28T16:19:00.137Z</time></trkpt><trkpt lat="45.6346417" lon="11.5795983"><ele>56.0</ele><time>2026-03-28T16:19:01.136Z</time></trkpt><trkpt lat="45.634545" lon="11.579495"><ele>56.0</ele><time>2026-03-28T16:19:02.137Z</time></trkpt><trkpt lat="45.6344417" lon="11.57942"><ele>56.0</ele><time>2026-03-28T16:19:03.136Z</time></trkpt><trkpt lat="45.6343217" lon="11.57938"><ele>56.0</ele><time>2026-03-28T16:19:04.137Z</time></trkpt><trkpt lat="45.6342033" lon="11.5793883"><ele>56.0</ele><time>2026-03-28T16:19:05.137Z</time></trkpt><trkpt lat="45.6340833" lon="11.5794517"><ele>56.0</ele><time>2026-03-28T16:19:06.137Z</time></trkpt><trkpt lat="45.63396" lon="11.57955"><ele>56.0</ele><time>2026-03-28T16:19:07.137Z</time></trkpt><trkpt lat="45.6338267" lon="11.5796733"><ele>56.0</ele><time>2026-03-28T16:19:08.137Z</time></trkpt><trkpt lat="45.63369" lon="11.5798083"><ele>56.0</ele><time>2026-03-28T16:19:09.137Z</time></trkpt><trkpt lat="45.6335583" lon="11.5799383"><ele>55.66666666666667</ele><time>2026-03-28T16:19:10.136Z</time></trkpt><trkpt lat="45.6334217" lon="11.5800683"><ele>55.33333333333333</ele><time>2026-03-28T16:19:11.137Z</time></trkpt><trkpt lat="45.6332833" lon="11.5802083"><ele>55.0</ele><time>2026-03-28T16:19:12.137Z</time></trkpt><trkpt lat="45.6331433" lon="11.5803433"><ele>55.0</ele><time>2026-03-28T16:19:13.137Z</time></trkpt><trkpt lat="45.6330083" lon="11.580475"><ele>55.0</ele><time>2026-03-28T16:19:14.137Z</time></trkpt><trkpt lat="45.6328667" lon="11.58059"><ele>55.0</ele><time>2026-03-28T16:19:15.136Z</time></trkpt><trkpt lat="45.632725" lon="11.5806783"><ele>54.33333333333333</ele><time>2026-03-28T16:19:16.137Z</time></trkpt><trkpt lat="45.6325783" lon="11.58074"><ele>53.66666666666667</ele><time>2026-03-28T16:19:17.137Z</time></trkpt><trkpt lat="45.6324317" lon="11.5807983"><ele>53.0</ele><time>2026-03-28T16:19:18.136Z</time></trkpt><trkpt lat="45.632275" lon="11.58084"><ele>53.0</ele><time>2026-03-28T16:19:19.137Z</time></trkpt><trkpt lat="45.6321167" lon="11.5808767"><ele>53.0</ele><time>2026-03-28T16:19:20.136Z</time></trkpt><trkpt lat="45.6319683" lon="11.580905"><ele>53.0</ele><time>2026-03-28T16:19:21.136Z</time></trkpt><trkpt lat="45.6318133" lon="11.58092"><ele>52.75</ele><time>2026-03-28T16:19:22.136Z</time></trkpt><trkpt lat="45.63166" lon="11.580945"><ele>52.5</ele><time>2026-03-28T16:19:23.137Z</time></trkpt><trkpt lat="45.6315233" lon="11.58097"><ele>52.25</ele><time>2026-03-28T16:19:24.137Z</time></trkpt><trkpt lat="45.6314" lon="11.580995"><ele>52.0</ele><time>2026-03-28T16:19:25.136Z</time></trkpt><trkpt lat="45.6312883" lon="11.5810133"><ele>51.99999999999999</ele><time>2026-03-28T16:19:26.137Z</time></trkpt><trkpt lat="45.63118" lon="11.5810267"><ele>52.0</ele><time>2026-03-28T16:19:27.136Z</time></trkpt><trkpt lat="45.6310867" lon="11.581045"><ele>52.0</ele><time>2026-03-28T16:19:28.137Z</time></trkpt><trkpt lat="45.6310033" lon="11.5810667"><ele>52.0</ele><time>2026-03-28T16:19:29.137Z</time></trkpt><trkpt lat="45.63094" lon="11.5810867"><ele>51.99999999999999</ele><time>2026-03-28T16:19:30.136Z</time></trkpt><trkpt lat="45.6308633" lon="11.5811033"><ele>52.0</ele><time>2026-03-28T16:19:32.137Z</time></trkpt><trkpt lat="45.63082" lon="11.581015"><ele>51.8</ele><time>2026-03-28T16:19:34.136Z</time></trkpt><trkpt lat="45.6308367" lon="11.5808333"><ele>51.6</ele><time>2026-03-28T16:19:36.136Z</time></trkpt><trkpt lat="45.6308467" lon="11.58069"><ele>51.4</ele><time>2026-03-28T16:19:37.137Z</time></trkpt><trkpt lat="45.6308383" lon="11.5805483"><ele>51.199999999999996</ele><time>2026-03-28T16:19:38.137Z</time></trkpt><trkpt lat="45.63083" lon="11.5804267"><ele>51.0</ele><time>2026-03-28T16:19:39.137Z</time></trkpt><trkpt lat="45.63082" lon="11.5803217"><ele>51.0</ele><time>2026-03-28T16:19:40.137Z</time></trkpt><trkpt lat="45.6307883" lon="11.5802383"><ele>51.0</ele><time>2026-03-28T16:19:41.137Z</time></trkpt><trkpt lat="45.6306833" lon="11.58018"><ele>51.0</ele><time>2026-03-28T16:19:43.137Z</time></trkpt><trkpt lat="45.630605" lon="11.580215"><ele>51.0</ele><time>2026-03-28T16:19:44.137Z</time></trkpt><trkpt lat="45.630515" lon="11.5802483"><ele>51.0</ele><time>2026-03-28T16:19:45.137Z</time></trkpt><trkpt lat="45.6304183" lon="11.580275"><ele>51.0</ele><time>2026-03-28T16:19:46.137Z</time></trkpt><trkpt lat="45.6303233" lon="11.5803033"><ele>51.0</ele><time>2026-03-28T16:19:47.137Z</time></trkpt><trkpt lat="45.6302367" lon="11.5803483"><ele>51.0</ele><time>2026-03-28T16:19:48.136Z</time></trkpt><trkpt lat="45.6301483" lon="11.58041"><ele>51.0</ele><time>2026-03-28T16:19:49.137Z</time></trkpt><trkpt lat="45.630065" lon="11.5804833"><ele>51.0</ele><time>2026-03-28T16:19:50.137Z</time></trkpt><trkpt lat="45.6299933" lon="11.58055"><ele>50.5</ele><time>2026-03-28T16:19:51.137Z</time></trkpt><trkpt lat="45.629915" lon="11.580605"><ele>50.0</ele><time>2026-03-28T16:19:52.137Z</time></trkpt><trkpt lat="45.6298417" lon="11.5806367"><ele>49.5</ele><time>2026-03-28T16:19:53.136Z</time></trkpt><trkpt lat="45.629775" lon="11.5806417"><ele>49.0</ele><time>2026-03-28T16:19:54.137Z</time></trkpt><trkpt lat="45.6297117" lon="11.5806417"><ele>48.5</ele><time>2026-03-28T16:19:55.137Z</time></trkpt><trkpt lat="45.6296033" lon="11.580565"><ele>48.0</ele><time>2026-03-28T16:19:57.137Z</time></trkpt><trkpt lat="45.6295267" lon="11.5804517"><ele>48.599999999999994</ele><time>2026-03-28T16:19:59.137Z</time></trkpt><trkpt lat="45.6294967" lon="11.5802867"><ele>49.199999999999996</ele><time>2026-03-28T16:20:01.137Z</time></trkpt><trkpt lat="45.629495" lon="11.58017"><ele>49.8</ele><time>2026-03-28T16:20:02.137Z</time></trkpt><trkpt lat="45.6295017" lon="11.580045"><ele>50.4</ele><time>2026-03-28T16:20:03.137Z</time></trkpt><trkpt lat="45.6295083" lon="11.5799383"><ele>51.0</ele><time>2026-03-28T16:20:04.137Z</time></trkpt><trkpt lat="45.6295083" lon="11.5797883"><ele>51.0</ele><time>2026-03-28T16:20:06.137Z</time></trkpt><trkpt lat="45.629485" lon="11.5796933"><ele>51.0</ele><time>2026-03-28T16:20:10.137Z</time></trkpt><trkpt lat="45.62943" lon="11.5795783"><ele>51.0</ele><time>2026-03-28T16:20:13.136Z</time></trkpt><trkpt lat="45.6293533" lon="11.5794633"><ele>51.0</ele><time>2026-03-28T16:20:15.137Z</time></trkpt><trkpt lat="45.629295" lon="11.5794133"><ele>51.0</ele><time>2026-03-28T16:20:16.137Z</time></trkpt><trkpt lat="45.6292233" lon="11.579375"><ele>51.0</ele><time>2026-03-28T16:20:17.136Z</time></trkpt><trkpt lat="45.6291333" lon="11.57936"><ele>50.599999999999994</ele><time>2026-03-28T16:20:18.136Z</time></trkpt><trkpt lat="45.6290333" lon="11.579365"><ele>50.2</ele><time>2026-03-28T16:20:19.136Z</time></trkpt><trkpt lat="45.6289317" lon="11.5793867"><ele>49.8</ele><time>2026-03-28T16:20:20.137Z</time></trkpt><trkpt lat="45.6288217" lon="11.5794183"><ele>49.400000000000006</ele><time>2026-03-28T16:20:21.137Z</time></trkpt><trkpt lat="45.6287233" lon="11.579445"><ele>49.0</ele><time>2026-03-28T16:20:22.137Z</time></trkpt><trkpt lat="45.6286217" lon="11.5794667"><ele>49.0</ele><time>2026-03-28T16:20:23.137Z</time></trkpt><trkpt lat="45.6285233" lon="11.5794933"><ele>49.0</ele><time>2026-03-28T16:20:24.137Z</time></trkpt><trkpt lat="45.6284333" lon="11.5795233"><ele>49.0</ele><time>2026-03-28T16:20:25.136Z</time></trkpt><trkpt lat="45.6283483" lon="11.5795467"><ele>49.0</ele><time>2026-03-28T16:20:26.137Z</time></trkpt><trkpt lat="45.6282633" lon="11.5795833"><ele>49.0</ele><time>2026-03-28T16:20:27.136Z</time></trkpt><trkpt lat="45.6281783" lon="11.5796167"><ele>48.99999999999999</ele><time>2026-03-28T16:20:28.137Z</time></trkpt><trkpt lat="45.6281" lon="11.579645"><ele>49.0</ele><time>2026-03-28T16:20:29.137Z</time></trkpt><trkpt lat="45.6280317" lon="11.5796783"><ele>49.0</ele><time>2026-03-28T16:20:30.137Z</time></trkpt><trkpt lat="45.6279133" lon="11.5797067"><ele>49.0</ele><time>2026-03-28T16:20:32.137Z</time></trkpt><trkpt lat="45.6278483" lon="11.579715"><ele>48.99999999999999</ele><time>2026-03-28T16:20:33.137Z</time></trkpt><trkpt lat="45.6277717" lon="11.5797217"><ele>49.0</ele><time>2026-03-28T16:20:34.136Z</time></trkpt><trkpt lat="45.6276967" lon="11.579745"><ele>48.99999999999999</ele><time>2026-03-28T16:20:35.137Z</time></trkpt><trkpt lat="45.6276267" lon="11.57977"><ele>49.0</ele><time>2026-03-28T16:20:36.137Z</time></trkpt><trkpt lat="45.6275583" lon="11.5797967"><ele>49.0</ele><time>2026-03-28T16:20:37.137Z</time></trkpt><trkpt lat="45.627495" lon="11.5798233"><ele>49.0</ele><time>2026-03-28T16:20:38.137Z</time></trkpt><trkpt lat="45.6274217" lon="11.5798433"><ele>48.99999999999999</ele><time>2026-03-28T16:20:40.137Z</time></trkpt><trkpt lat="45.62737" lon="11.5797467"><ele>49.0</ele><time>2026-03-28T16:20:43.137Z</time></trkpt><trkpt lat="45.62737" lon="11.57961"><ele>48.75</ele><time>2026-03-28T16:20:44.137Z</time></trkpt><trkpt lat="45.62739" lon="11.5794317"><ele>48.5</ele><time>2026-03-28T16:20:45.137Z</time></trkpt><trkpt lat="45.6274017" lon="11.5792467"><ele>48.25</ele><time>2026-03-28T16:20:46.137Z</time></trkpt><trkpt lat="45.627405" lon="11.5790733"><ele>48.0</ele><time>2026-03-28T16:20:47.137Z</time></trkpt><trkpt lat="45.62739" lon="11.57891"><ele>48.0</ele><time>2026-03-28T16:20:48.137Z</time></trkpt><trkpt lat="45.6273683" lon="11.5787833"><ele>48.0</ele><time>2026-03-28T16:20:49.137Z</time></trkpt><trkpt lat="45.627335" lon="11.5786817"><ele>48.0</ele><time>2026-03-28T16:20:50.137Z</time></trkpt><trkpt lat="45.627265" lon="11.57864"><ele>48.0</ele><time>2026-03-28T16:20:51.137Z</time></trkpt><trkpt lat="45.6271617" lon="11.57862"><ele>48.0</ele><time>2026-03-28T16:20:52.137Z</time></trkpt><trkpt lat="45.6270533" lon="11.5786117"><ele>48.166666666666664</ele><time>2026-03-28T16:20:53.137Z</time></trkpt><trkpt lat="45.6269683" lon="11.5785967"><ele>48.33333333333333</ele><time>2026-03-28T16:20:54.137Z</time></trkpt><trkpt lat="45.6269033" lon="11.5785817"><ele>48.5</ele><time>2026-03-28T16:20:55.137Z</time></trkpt><trkpt lat="45.62684" lon="11.57853"><ele>48.666666666666664</ele><time>2026-03-28T16:20:57.136Z</time></trkpt><trkpt lat="45.62681" lon="11.5784267"><ele>48.83333333333333</ele><time>2026-03-28T16:20:59.137Z</time></trkpt><trkpt lat="45.62684" lon="11.5782683"><ele>49.0</ele><time>2026-03-28T16:21:01.136Z</time></trkpt><trkpt lat="45.6268633" lon="11.57813"><ele>49.0</ele><time>2026-03-28T16:21:02.136Z</time></trkpt><trkpt lat="45.62688" lon="11.5779717"><ele>49.0</ele><time>2026-03-28T16:21:03.136Z</time></trkpt><trkpt lat="45.6268917" lon="11.57781"><ele>49.0</ele><time>2026-03-28T16:21:04.136Z</time></trkpt><trkpt lat="45.6268983" lon="11.577655"><ele>49.0</ele><time>2026-03-28T16:21:05.137Z</time></trkpt><trkpt lat="45.6269083" lon="11.5775167"><ele>49.0</ele><time>2026-03-28T16:21:06.137Z</time></trkpt><trkpt lat="45.6269117" lon="11.5774167"><ele>48.857142857142854</ele><time>2026-03-28T16:21:07.137Z</time></trkpt><trkpt lat="45.6269083" lon="11.577325"><ele>48.714285714285715</ele><time>2026-03-28T16:21:08.137Z</time></trkpt><trkpt lat="45.626905" lon="11.5772183"><ele>48.57142857142857</ele><time>2026-03-28T16:21:09.137Z</time></trkpt><trkpt lat="45.6269017" lon="11.5771283"><ele>48.42857142857143</ele><time>2026-03-28T16:21:10.137Z</time></trkpt><trkpt lat="45.6269067" lon="11.5770317"><ele>48.285714285714285</ele><time>2026-03-28T16:21:12.137Z</time></trkpt><trkpt lat="45.626915" lon="11.5769167"><ele>48.14285714285714</ele><time>2026-03-28T16:21:17.137Z</time></trkpt><trkpt lat="45.6269067" lon="11.5768"><ele>48.0</ele><time>2026-03-28T16:21:19.137Z</time></trkpt><trkpt lat="45.626885" lon="11.57664"><ele>48.333333333333336</ele><time>2026-03-28T16:21:21.137Z</time></trkpt><trkpt lat="45.6268733" lon="11.5765483"><ele>48.66666666666667</ele><time>2026-03-28T16:21:22.136Z</time></trkpt><trkpt lat="45.62686" lon="11.5764"><ele>49.0</ele><time>2026-03-28T16:21:24.137Z</time></trkpt><trkpt lat="45.626865" lon="11.5762833"><ele>49.333333333333336</ele><time>2026-03-28T16:21:26.136Z</time></trkpt><trkpt lat="45.6269333" lon="11.576205"><ele>49.66666666666667</ele><time>2026-03-28T16:21:28.137Z</time></trkpt><trkpt lat="45.6269967" lon="11.5761517"><ele>50.0</ele><time>2026-03-28T16:21:29.137Z</time></trkpt><trkpt lat="45.62707" lon="11.5760933"><ele>50.0</ele><time>2026-03-28T16:21:30.137Z</time></trkpt><trkpt lat="45.6271533" lon="11.5759883"><ele>50.0</ele><time>2026-03-28T16:21:31.137Z</time></trkpt><trkpt lat="45.6272467" lon="11.5758633"><ele>50.0</ele><time>2026-03-28T16:21:32.136Z</time></trkpt><trkpt lat="45.62736" lon="11.5757083"><ele>50.0</ele><time>2026-03-28T16:21:33.137Z</time></trkpt><trkpt lat="45.6274783" lon="11.5755617"><ele>50.0</ele><time>2026-03-28T16:21:34.137Z</time></trkpt><trkpt lat="45.6276067" lon="11.575415"><ele>50.0</ele><time>2026-03-28T16:21:35.137Z</time></trkpt><trkpt lat="45.6277267" lon="11.5752683"><ele>50.0</ele><time>2026-03-28T16:21:36.137Z</time></trkpt><trkpt lat="45.6278383" lon="11.575135"><ele>50.6</ele><time>2026-03-28T16:21:37.137Z</time></trkpt><trkpt lat="45.6279417" lon="11.5750217"><ele>51.2</ele><time>2026-03-28T16:21:38.137Z</time></trkpt><trkpt lat="45.6280217" lon="11.5749133"><ele>51.8</ele><time>2026-03-28T16:21:39.137Z</time></trkpt><trkpt lat="45.6280817" lon="11.5748067"><ele>52.4</ele><time>2026-03-28T16:21:40.136Z</time></trkpt><trkpt lat="45.6281417" lon="11.574715"><ele>53.0</ele><time>2026-03-28T16:21:41.137Z</time></trkpt><trkpt lat="45.6281883" lon="11.5746267"><ele>53.00000000000001</ele><time>2026-03-28T16:21:42.137Z</time></trkpt><trkpt lat="45.6282333" lon="11.5745433"><ele>53.0</ele><time>2026-03-28T16:21:43.137Z</time></trkpt><trkpt lat="45.6282717" lon="11.5744517"><ele>53.0</ele><time>2026-03-28T16:21:45.136Z</time></trkpt><trkpt lat="45.6282517" lon="11.5743517"><ele>53.0</ele><time>2026-03-28T16:21:49.136Z</time></trkpt><trkpt lat="45.628185" lon="11.574265"><ele>53.00000000000001</ele><time>2026-03-28T16:21:51.137Z</time></trkpt><trkpt lat="45.6281233" lon="11.574215"><ele>53.0</ele><time>2026-03-28T16:21:52.137Z</time></trkpt><trkpt lat="45.6280467" lon="11.5741533"><ele>52.8</ele><time>2026-03-28T16:21:53.137Z</time></trkpt><trkpt lat="45.62796" lon="11.574085"><ele>52.599999999999994</ele><time>2026-03-28T16:21:54.137Z</time></trkpt><trkpt lat="45.6278717" lon="11.5740167"><ele>52.400000000000006</ele><time>2026-03-28T16:21:55.137Z</time></trkpt><trkpt lat="45.6277833" lon="11.5739467"><ele>52.2</ele><time>2026-03-28T16:21:56.137Z</time></trkpt><trkpt lat="45.6276983" lon="11.573875"><ele>52.0</ele><time>2026-03-28T16:21:57.137Z</time></trkpt><trkpt lat="45.627605" lon="11.5738"><ele>51.8</ele><time>2026-03-28T16:21:58.137Z</time></trkpt><trkpt lat="45.62751" lon="11.5737233"><ele>51.6</ele><time>2026-03-28T16:21:59.136Z</time></trkpt><trkpt lat="45.6274167" lon="11.5736533"><ele>51.4</ele><time>2026-03-28T16:22:00.137Z</time></trkpt><trkpt lat="45.6273283" lon="11.573585"><ele>51.199999999999996</ele><time>2026-03-28T16:22:01.137Z</time></trkpt><trkpt lat="45.62725" lon="11.5735217"><ele>51.0</ele><time>2026-03-28T16:22:02.137Z</time></trkpt><trkpt lat="45.6271783" lon="11.5734667"><ele>51.0</ele><time>2026-03-28T16:22:03.136Z</time></trkpt><trkpt lat="45.6271183" lon="11.57341"><ele>51.0</ele><time>2026-03-28T16:22:04.136Z</time></trkpt><trkpt lat="45.6270167" lon="11.5733183"><ele>51.0</ele><time>2026-03-28T16:22:06.137Z</time></trkpt><trkpt lat="45.6269417" lon="11.5732517"><ele>51.0</ele><time>2026-03-28T16:22:08.136Z</time></trkpt><trkpt lat="45.6268683" lon="11.5732017"><ele>51.0</ele><time>2026-03-28T16:22:11.137Z</time></trkpt><trkpt lat="45.6268117" lon="11.5731333"><ele>51.0</ele><time>2026-03-28T16:22:14.136Z</time></trkpt><trkpt lat="45.6267283" lon="11.57308"><ele>51.0</ele><time>2026-03-28T16:22:16.137Z</time></trkpt><trkpt lat="45.6266567" lon="11.5730317"><ele>51.0</ele><time>2026-03-28T16:22:18.137Z</time></trkpt><trkpt lat="45.626605" lon="11.5729433"><ele>51.0</ele><time>2026-03-28T16:22:21.136Z</time></trkpt><trkpt lat="45.6266" lon="11.5728533"><ele>51.0</ele><time>2026-03-28T16:22:22.137Z</time></trkpt><trkpt lat="45.6266117" lon="11.5727317"><ele>51.0</ele><time>2026-03-28T16:22:23.137Z</time></trkpt><trkpt lat="45.62661" lon="11.572615"><ele>51.0</ele><time>2026-03-28T16:22:24.137Z</time></trkpt><trkpt lat="45.6266267" lon="11.572445"><ele>51.0</ele><time>2026-03-28T16:22:25.137Z</time></trkpt><trkpt lat="45.6267433" lon="11.57211"><ele>51.0</ele><time>2026-03-28T16:22:26.137Z</time></trkpt><trkpt lat="45.6267967" lon="11.5718783"><ele>51.0</ele><time>2026-03-28T16:22:27.137Z</time></trkpt><trkpt lat="45.62684" lon="11.5716667"><ele>51.0</ele><time>2026-03-28T16:22:28.137Z</time></trkpt><trkpt lat="45.6268783" lon="11.5715017"><ele>51.0</ele><time>2026-03-28T16:22:29.137Z</time></trkpt><trkpt lat="45.6269167" lon="11.571395"><ele>51.0</ele><time>2026-03-28T16:22:30.136Z</time></trkpt><trkpt lat="45.6269567" lon="11.5713233"><ele>51.0</ele><time>2026-03-28T16:22:31.137Z</time></trkpt><trkpt lat="45.6270533" lon="11.5713017"><ele>51.0</ele><time>2026-03-28T16:22:33.137Z</time></trkpt><trkpt lat="45.6271517" lon="11.57125"><ele>51.166666666666664</ele><time>2026-03-28T16:22:35.137Z</time></trkpt><trkpt lat="45.6271917" lon="11.5711417"><ele>51.33333333333333</ele><time>2026-03-28T16:22:37.137Z</time></trkpt><trkpt lat="45.627235" lon="11.5710267"><ele>51.5</ele><time>2026-03-28T16:22:40.136Z</time></trkpt><trkpt lat="45.6272633" lon="11.5709183"><ele>51.666666666666664</ele><time>2026-03-28T16:22:43.136Z</time></trkpt><trkpt lat="45.627305" lon="11.5708217"><ele>51.83333333333333</ele><time>2026-03-28T16:22:46.137Z</time></trkpt><trkpt lat="45.6272683" lon="11.5707433"><ele>52.0</ele><time>2026-03-28T16:22:51.136Z</time></trkpt><trkpt lat="45.6272133" lon="11.5706817"><ele>52.0</ele><time>2026-03-28T16:22:59.137Z</time></trkpt><trkpt lat="45.6271983" lon="11.57042"><ele>52.0</ele><time>2026-03-28T16:23:02.137Z</time></trkpt><trkpt lat="45.6271917" lon="11.57024"><ele>52.0</ele><time>2026-03-28T16:23:03.137Z</time></trkpt><trkpt lat="45.6271733" lon="11.570055"><ele>52.0</ele><time>2026-03-28T16:23:04.137Z</time></trkpt><trkpt lat="45.627145" lon="11.56989"><ele>52.0</ele><time>2026-03-28T16:23:05.137Z</time></trkpt><trkpt lat="45.6271083" lon="11.5697567"><ele>52.0</ele><time>2026-03-28T16:23:06.136Z</time></trkpt><trkpt lat="45.6270867" lon="11.56964"><ele>52.0</ele><time>2026-03-28T16:23:07.137Z</time></trkpt><trkpt lat="45.62706" lon="11.5695417"><ele>52.0</ele><time>2026-03-28T16:23:08.137Z</time></trkpt><trkpt lat="45.627" lon="11.569495"><ele>52.0</ele><time>2026-03-28T16:23:10.137Z</time></trkpt><trkpt lat="45.6268733" lon="11.5695483"><ele>52.0</ele><time>2026-03-28T16:23:27.137Z</time></trkpt><trkpt lat="45.6268097" lon="11.5695275"><ele>52.0</ele><time>2026-03-28T16:25:48.203Z</time></trkpt><trkpt lat="45.6267562" lon="11.5694768"><ele>52.0</ele><time>2026-03-28T16:25:56.188Z</time></trkpt><trkpt lat="45.6267192" lon="11.5694025"><ele>52.0</ele><time>2026-03-28T16:27:10.187Z</time></trkpt><trkpt lat="45.6266547" lon="11.5693889"><ele>52.0</ele><time>2026-03-28T16:27:21.154Z</time></trkpt><trkpt lat="45.626594" lon="11.5693417"><ele>52.0</ele><time>2026-03-28T16:28:11.196Z</time></trkpt><trkpt lat="45.6265989" lon="11.569433"><ele>52.0</ele><time>2026-03-28T16:31:39.243Z</time></trkpt><trkpt lat="45.6266051" lon="11.5695237"><ele>51.99999999999999</ele><time>2026-03-28T16:32:34.183Z</time></trkpt><trkpt lat="45.6266583" lon="11.5695883"><ele>52.0</ele><time>2026-03-28T16:32:52.17Z</time></trkpt><trkpt lat="45.6267267" lon="11.5696033"><ele>52.0</ele><time>2026-03-28T16:33:12.17Z</time></trkpt><trkpt lat="45.6267983" lon="11.5696117"><ele>52.0</ele><time>2026-03-28T16:33:16.17Z</time></trkpt><trkpt lat="45.6268617" lon="11.56965"><ele>51.99999999999999</ele><time>2026-03-28T16:33:28.169Z</time></trkpt><trkpt lat="45.6269583" lon="11.5696467"><ele>52.0</ele><time>2026-03-28T16:33:47.17Z</time></trkpt><trkpt lat="45.6267633" lon="11.5695633"><ele>51.99999999999999</ele><time>2026-03-28T16:33:55.17Z</time></trkpt><trkpt lat="45.6266983" lon="11.5695367"><ele>52.0</ele><time>2026-03-28T16:33:57.17Z</time></trkpt><trkpt lat="45.626595" lon="11.5695067"><ele>52.0</ele><time>2026-03-28T16:33:59.169Z</time></trkpt><trkpt lat="45.6265217" lon="11.56949"><ele>52.0</ele><time>2026-03-28T16:34:01.17Z</time></trkpt><trkpt lat="45.62644" lon="11.5694917"><ele>51.99999999999999</ele><time>2026-03-28T16:34:05.17Z</time></trkpt><trkpt lat="45.626555" lon="11.569505"><ele>52.0</ele><time>2026-03-28T16:34:12.17Z</time></trkpt><trkpt lat="45.6266517" lon="11.5694967"><ele>52.0</ele><time>2026-03-28T16:34:16.17Z</time></trkpt><trkpt lat="45.6267417" lon="11.5694983"><ele>52.0</ele><time>2026-03-28T16:34:20.17Z</time></trkpt><trkpt lat="45.6268133" lon="11.569475"><ele>52.0</ele><time>2026-03-28T16:34:23.169Z</time></trkpt><trkpt lat="45.6264933" lon="11.5695933"><ele>52.0</ele><time>2026-03-28T16:34:45.17Z</time></trkpt><trkpt lat="45.626535" lon="11.5695033"><ele>52.0</ele><time>2026-03-28T16:34:48.169Z</time></trkpt><trkpt lat="45.626645" lon="11.5694617"><ele>52.0</ele><time>2026-03-28T16:34:58.17Z</time></trkpt><trkpt lat="45.6265667" lon="11.5693267"><ele>52.0</ele><time>2026-03-28T16:35:01.17Z</time></trkpt><trkpt lat="45.6265183" lon="11.5692467"><ele>52.0</ele><time>2026-03-28T16:35:03.17Z</time></trkpt><trkpt lat="45.6264883" lon="11.56916"><ele>52.0</ele><time>2026-03-28T16:35:05.169Z</time></trkpt><trkpt lat="45.62647" lon="11.5690667"><ele>52.0</ele><time>2026-03-28T16:35:07.17Z</time></trkpt><trkpt lat="45.6264767" lon="11.5689567"><ele>52.0</ele><time>2026-03-28T16:35:09.17Z</time></trkpt><trkpt lat="45.6264517" lon="11.568865"><ele>52.0</ele><time>2026-03-28T16:35:11.17Z</time></trkpt><trkpt lat="45.6266233" lon="11.5691167"><ele>52.0</ele><time>2026-03-28T16:35:13.17Z</time></trkpt><trkpt lat="45.626755" lon="11.5693133"><ele>52.0</ele><time>2026-03-28T16:35:15.17Z</time></trkpt><trkpt lat="45.6267033" lon="11.5692467"><ele>52.0</ele><time>2026-03-28T16:35:37.17Z</time></trkpt><trkpt lat="45.6266267" lon="11.56926"><ele>52.0</ele><time>2026-03-28T16:35:48.169Z</time></trkpt><trkpt lat="45.62656" lon="11.56937"><ele>52.0</ele><time>2026-03-28T16:37:52.169Z</time></trkpt><trkpt lat="45.6265067" lon="11.569275"><ele>52.0</ele><time>2026-03-28T16:37:54.169Z</time></trkpt><trkpt lat="45.6265567" lon="11.5694"><ele>52.0</ele><time>2026-03-28T16:38:02.17Z</time></trkpt><trkpt lat="45.6266117" lon="11.56946"><ele>52.0</ele><time>2026-03-28T16:38:04.17Z</time></trkpt><trkpt lat="45.6266567" lon="11.5695317"><ele>52.0</ele><time>2026-03-28T16:38:07.17Z</time></trkpt><trkpt lat="45.6265919" lon="11.569517"><ele>52.0</ele><time>2026-03-28T16:39:26.17Z</time></trkpt><trkpt lat="45.626528" lon="11.5695411"><ele>52.0</ele><time>2026-03-28T16:39:41.158Z</time></trkpt><trkpt lat="45.6265943" lon="11.5695262"><ele>52.0</ele><time>2026-03-28T16:39:50.203Z</time></trkpt><trkpt lat="45.6265924" lon="11.5694328"><ele>52.0</ele><time>2026-03-28T16:43:09.211Z</time></trkpt><trkpt lat="45.6265911" lon="11.5693332"><ele>52.0</ele><time>2026-03-28T16:48:38.223Z</time></trkpt><trkpt lat="45.6266053" lon="11.5694238"><ele>52.0</ele><time>2026-03-28T16:48:49.19Z</time></trkpt><trkpt lat="45.6265378" lon="11.5694491"><ele>52.0</ele><time>2026-03-28T16:49:16.17Z</time></trkpt><trkpt lat="45.6265144" lon="11.5693643"><ele>52.0</ele><time>2026-03-28T16:49:24.116Z</time></trkpt><trkpt lat="45.6265842" lon="11.5692622"><ele>52.0</ele><time>2026-03-28T16:50:05.216Z</time></trkpt><trkpt lat="45.6266132" lon="11.5693461"><ele>52.0</ele><time>2026-03-28T16:50:19.169Z</time></trkpt><trkpt lat="45.6266022" lon="11.5694718"><ele>52.0</ele><time>2026-03-28T16:50:59.202Z</time></trkpt><trkpt lat="45.6265283" lon="11.5695133"><ele>52.0</ele><time>2026-03-28T16:52:38.17Z</time></trkpt><trkpt lat="45.626465" lon="11.56951"><ele>52.0</ele><time>2026-03-28T16:52:41.17Z</time></trkpt><trkpt lat="45.6265367" lon="11.5695"><ele>52.0</ele><time>2026-03-28T16:52:59.17Z</time></trkpt><trkpt lat="45.6266146" lon="11.5695127"><ele>52.0</ele><time>2026-03-28T16:54:48.218Z</time></trkpt><trkpt lat="45.6265814" lon="11.5694013"><ele>52.0</ele><time>2026-03-28T16:55:25.168Z</time></trkpt></trkseg></trk></gpx>